<?xml version='1.0' encoding='UTF-8'?><gpx version="1.1" creator="JPX - https://github.com/jenetics/jpx" xmlns="http://www.topografix.com/GPX/1/1"><trk><trkseg><trkpt lat="44.5011748" lon="8.8990627"><ele>106.00000000000001</ele><time>2026-04-18T05:18:33.999Z</time></trkpt><trkpt lat="44.5010959" lon="8.8990175"><ele>106.0</ele><time>2026-04-18T05:18:36.999Z</time></trkpt><trkpt lat="44.5010139" lon="8.8990432"><ele>106.0</ele><time>2026-04-18T05:18:39.999Z</time></trkpt><trkpt lat="44.5010067" lon="8.8991348"><ele>106.0</ele><time>2026-04-18T05:18:41.999Z</time></trkpt><trkpt lat="44.5010209" lon="8.8992261"><ele>106.00000000000001</ele><time>2026-04-18T05:18:43.999Z</time></trkpt><trkpt lat="44.5009821" lon="8.8993648"><ele>106.0</ele><time>2026-04-18T05:18:45.999Z</time></trkpt><trkpt lat="44.5008811" lon="8.8995351"><ele>104.0</ele><time>2026-04-18T05:18:47.999Z</time></trkpt><trkpt lat="44.5008152" lon="8.89961"><ele>102.0</ele><time>2026-04-18T05:18:48.999Z</time></trkpt><trkpt lat="44.5007263" lon="8.8997136"><ele>100.0</ele><time>2026-04-18T05:18:49.999Z</time></trkpt><trkpt lat="44.5006444" lon="8.8998135"><ele>98.0</ele><time>2026-04-18T05:18:51Z</time></trkpt><trkpt lat="44.5005709" lon="8.8999021"><ele>96.0</ele><time>2026-04-18T05:18:51.999Z</time></trkpt><trkpt lat="44.5005048" lon="8.9000033"><ele>95.4</ele><time>2026-04-18T05:18:52.999Z</time></trkpt><trkpt lat="44.5004387" lon="8.9000933"><ele>94.8</ele><time>2026-04-18T05:18:53.999Z</time></trkpt><trkpt lat="44.5003605" lon="8.9001712"><ele>94.2</ele><time>2026-04-18T05:18:54.999Z</time></trkpt><trkpt lat="44.5002811" lon="8.9002379"><ele>93.60000000000001</ele><time>2026-04-18T05:18:55.999Z</time></trkpt><trkpt lat="44.5001936" lon="8.9002823"><ele>93.0</ele><time>2026-04-18T05:18:56.999Z</time></trkpt><trkpt lat="44.5001167" lon="8.9002913"><ele>93.0</ele><time>2026-04-18T05:18:57.999Z</time></trkpt><trkpt lat="44.5000401" lon="8.9002766"><ele>93.0</ele><time>2026-04-18T05:18:58.999Z</time></trkpt><trkpt lat="44.499965" lon="8.9002869"><ele>93.0</ele><time>2026-04-18T05:18:59.999Z</time></trkpt><trkpt lat="44.499877" lon="8.9003029"><ele>93.0</ele><time>2026-04-18T05:19:00.999Z</time></trkpt><trkpt lat="44.4997932" lon="8.9003564"><ele>93.0</ele><time>2026-04-18T05:19:01.999Z</time></trkpt><trkpt lat="44.4997352" lon="8.900418"><ele>93.0</ele><time>2026-04-18T05:19:02.999Z</time></trkpt><trkpt lat="44.4996987" lon="8.9005178"><ele>93.0</ele><time>2026-04-18T05:19:04Z</time></trkpt><trkpt lat="44.4996791" lon="8.9006186"><ele>93.0</ele><time>2026-04-18T05:19:04.999Z</time></trkpt><trkpt lat="44.4996121" lon="8.9007138"><ele>93.0</ele><time>2026-04-18T05:19:05.999Z</time></trkpt><trkpt lat="44.4995514" lon="8.9008144"><ele>93.0</ele><time>2026-04-18T05:19:06.999Z</time></trkpt><trkpt lat="44.4994644" lon="8.900901"><ele>93.0</ele><time>2026-04-18T05:19:07.999Z</time></trkpt><trkpt lat="44.4994006" lon="8.9009741"><ele>92.80000000000001</ele><time>2026-04-18T05:19:08.999Z</time></trkpt><trkpt lat="44.499317" lon="8.9010302"><ele>92.6</ele><time>2026-04-18T05:19:09.999Z</time></trkpt><trkpt lat="44.499225" lon="8.9010841"><ele>92.4</ele><time>2026-04-18T05:19:10.999Z</time></trkpt><trkpt lat="44.4991377" lon="8.901135"><ele>92.19999999999999</ele><time>2026-04-18T05:19:11.999Z</time></trkpt><trkpt lat="44.4990496" lon="8.9011756"><ele>92.0</ele><time>2026-04-18T05:19:12.999Z</time></trkpt><trkpt lat="44.4989773" lon="8.9012268"><ele>92.0</ele><time>2026-04-18T05:19:13.999Z</time></trkpt><trkpt lat="44.4989113" lon="8.9012825"><ele>92.0</ele><time>2026-04-18T05:19:14.999Z</time></trkpt><trkpt lat="44.498854" lon="8.9013583"><ele>92.0</ele><time>2026-04-18T05:19:15.999Z</time></trkpt><trkpt lat="44.4988007" lon="8.9014527"><ele>92.0</ele><time>2026-04-18T05:19:16.999Z</time></trkpt><trkpt lat="44.4987551" lon="8.9015441"><ele>92.0</ele><time>2026-04-18T05:19:17.999Z</time></trkpt><trkpt lat="44.498688" lon="8.9016417"><ele>92.0</ele><time>2026-04-18T05:19:18.999Z</time></trkpt><trkpt lat="44.4986036" lon="8.9017286"><ele>91.0</ele><time>2026-04-18T05:19:19.999Z</time></trkpt><trkpt lat="44.4985141" lon="8.9018009"><ele>90.0</ele><time>2026-04-18T05:19:21.1Z</time></trkpt><trkpt lat="44.4983232" lon="8.9018906"><ele>89.0</ele><time>2026-04-18T05:19:22.999Z</time></trkpt><trkpt lat="44.4982255" lon="8.9019228"><ele>88.0</ele><time>2026-04-18T05:19:23.999Z</time></trkpt><trkpt lat="44.498122" lon="8.9019517"><ele>88.0</ele><time>2026-04-18T05:19:24.999Z</time></trkpt><trkpt lat="44.4980138" lon="8.9019741"><ele>88.0</ele><time>2026-04-18T05:19:25.999Z</time></trkpt><trkpt lat="44.497905" lon="8.9019857"><ele>88.0</ele><time>2026-04-18T05:19:26.999Z</time></trkpt><trkpt lat="44.4977887" lon="8.9020006"><ele>88.0</ele><time>2026-04-18T05:19:27.999Z</time></trkpt><trkpt lat="44.4976812" lon="8.9020033"><ele>88.0</ele><time>2026-04-18T05:19:28.999Z</time></trkpt><trkpt lat="44.497577" lon="8.901998"><ele>87.80000000000001</ele><time>2026-04-18T05:19:29.999Z</time></trkpt><trkpt lat="44.4974761" lon="8.9019777"><ele>87.6</ele><time>2026-04-18T05:19:30.999Z</time></trkpt><trkpt lat="44.4973803" lon="8.9019582"><ele>87.4</ele><time>2026-04-18T05:19:31.999Z</time></trkpt><trkpt lat="44.4972786" lon="8.9019438"><ele>87.19999999999999</ele><time>2026-04-18T05:19:32.999Z</time></trkpt><trkpt lat="44.4971842" lon="8.9019377"><ele>87.0</ele><time>2026-04-18T05:19:34.103Z</time></trkpt><trkpt lat="44.4969824" lon="8.9019452"><ele>86.19999999999999</ele><time>2026-04-18T05:19:35.999Z</time></trkpt><trkpt lat="44.4968745" lon="8.901941"><ele>85.4</ele><time>2026-04-18T05:19:36.999Z</time></trkpt><trkpt lat="44.496763" lon="8.9019429"><ele>84.6</ele><time>2026-04-18T05:19:37.999Z</time></trkpt><trkpt lat="44.496654" lon="8.9019505"><ele>83.80000000000001</ele><time>2026-04-18T05:19:38.999Z</time></trkpt><trkpt lat="44.496551" lon="8.9019588"><ele>83.0</ele><time>2026-04-18T05:19:39.999Z</time></trkpt><trkpt lat="44.4964421" lon="8.901986"><ele>83.0</ele><time>2026-04-18T05:19:40.999Z</time></trkpt><trkpt lat="44.4963448" lon="8.9020283"><ele>83.0</ele><time>2026-04-18T05:19:41.999Z</time></trkpt><trkpt lat="44.4962506" lon="8.9020844"><ele>83.0</ele><time>2026-04-18T05:19:42.999Z</time></trkpt><trkpt lat="44.4961552" lon="8.9021491"><ele>83.0</ele><time>2026-04-18T05:19:43.999Z</time></trkpt><trkpt lat="44.4960644" lon="8.9022365"><ele>83.0</ele><time>2026-04-18T05:19:44.999Z</time></trkpt><trkpt lat="44.4959827" lon="8.9023369"><ele>83.60000000000001</ele><time>2026-04-18T05:19:45.999Z</time></trkpt><trkpt lat="44.4959074" lon="8.9024481"><ele>84.2</ele><time>2026-04-18T05:19:46.999Z</time></trkpt><trkpt lat="44.4958452" lon="8.9025552"><ele>84.8</ele><time>2026-04-18T05:19:47.999Z</time></trkpt><trkpt lat="44.495775" lon="8.9026667"><ele>85.4</ele><time>2026-04-18T05:19:48.999Z</time></trkpt><trkpt lat="44.495714" lon="8.9027683"><ele>86.0</ele><time>2026-04-18T05:19:49.999Z</time></trkpt><trkpt lat="44.4956537" lon="8.9028719"><ele>86.0</ele><time>2026-04-18T05:19:50.999Z</time></trkpt><trkpt lat="44.4956014" lon="8.9029757"><ele>86.0</ele><time>2026-04-18T05:19:51.999Z</time></trkpt><trkpt lat="44.4955447" lon="8.9030751"><ele>86.0</ele><time>2026-04-18T05:19:52.999Z</time></trkpt><trkpt lat="44.4954815" lon="8.9031615"><ele>86.0</ele><time>2026-04-18T05:19:53.999Z</time></trkpt><trkpt lat="44.4954106" lon="8.9032468"><ele>86.0</ele><time>2026-04-18T05:19:54.999Z</time></trkpt><trkpt lat="44.4953372" lon="8.9032983"><ele>86.0</ele><time>2026-04-18T05:19:55.999Z</time></trkpt><trkpt lat="44.4952592" lon="8.9033282"><ele>85.66666666666667</ele><time>2026-04-18T05:19:56.999Z</time></trkpt><trkpt lat="44.495186" lon="8.9033621"><ele>85.33333333333334</ele><time>2026-04-18T05:19:57.999Z</time></trkpt><trkpt lat="44.4951154" lon="8.9033905"><ele>85.0</ele><time>2026-04-18T05:19:58.999Z</time></trkpt><trkpt lat="44.4950346" lon="8.9034049"><ele>84.66666666666667</ele><time>2026-04-18T05:19:59.999Z</time></trkpt><trkpt lat="44.4949532" lon="8.903432"><ele>84.33333333333333</ele><time>2026-04-18T05:20:00.999Z</time></trkpt><trkpt lat="44.4948289" lon="8.9034737"><ele>84.0</ele><time>2026-04-18T05:20:02.999Z</time></trkpt><trkpt lat="44.4947556" lon="8.9034921"><ele>84.0</ele><time>2026-04-18T05:20:04Z</time></trkpt><trkpt lat="44.494676" lon="8.9035147"><ele>84.0</ele><time>2026-04-18T05:20:05.101Z</time></trkpt><trkpt lat="44.4945103" lon="8.9035611"><ele>84.0</ele><time>2026-04-18T05:20:06.999Z</time></trkpt><trkpt lat="44.4943956" lon="8.9035832"><ele>84.0</ele><time>2026-04-18T05:20:07.999Z</time></trkpt><trkpt lat="44.4942839" lon="8.9036021"><ele>84.0</ele><time>2026-04-18T05:20:08.999Z</time></trkpt><trkpt lat="44.4941892" lon="8.9035929"><ele>84.0</ele><time>2026-04-18T05:20:09.999Z</time></trkpt><trkpt lat="44.4940845" lon="8.9035647"><ele>84.0</ele><time>2026-04-18T05:20:10.999Z</time></trkpt><trkpt lat="44.4939851" lon="8.9035244"><ele>84.0</ele><time>2026-04-18T05:20:11.999Z</time></trkpt><trkpt lat="44.4938827" lon="8.9034663"><ele>84.0</ele><time>2026-04-18T05:20:12.999Z</time></trkpt><trkpt lat="44.4937744" lon="8.9033875"><ele>83.25</ele><time>2026-04-18T05:20:13.999Z</time></trkpt><trkpt lat="44.4936725" lon="8.9033198"><ele>82.5</ele><time>2026-04-18T05:20:14.999Z</time></trkpt><trkpt lat="44.4935447" lon="8.9031984"><ele>81.75</ele><time>2026-04-18T05:20:15.999Z</time></trkpt><trkpt lat="44.4934496" lon="8.9031158"><ele>81.0</ele><time>2026-04-18T05:20:16.999Z</time></trkpt><trkpt lat="44.4933237" lon="8.9030327"><ele>81.0</ele><time>2026-04-18T05:20:17.999Z</time></trkpt><trkpt lat="44.4931919" lon="8.9029489"><ele>81.0</ele><time>2026-04-18T05:20:18.999Z</time></trkpt><trkpt lat="44.4930616" lon="8.9028594"><ele>81.0</ele><time>2026-04-18T05:20:19.999Z</time></trkpt><trkpt lat="44.4929359" lon="8.9027459"><ele>81.0</ele><time>2026-04-18T05:20:20.999Z</time></trkpt><trkpt lat="44.4928051" lon="8.9026617"><ele>80.0</ele><time>2026-04-18T05:20:21.999Z</time></trkpt><trkpt lat="44.4926728" lon="8.9025607"><ele>79.0</ele><time>2026-04-18T05:20:22.999Z</time></trkpt><trkpt lat="44.492554" lon="8.9024346"><ele>78.0</ele><time>2026-04-18T05:20:23.999Z</time></trkpt><trkpt lat="44.4924142" lon="8.9023097"><ele>78.0</ele><time>2026-04-18T05:20:24.999Z</time></trkpt><trkpt lat="44.4922787" lon="8.9021815"><ele>78.0</ele><time>2026-04-18T05:20:25.999Z</time></trkpt><trkpt lat="44.4921419" lon="8.9020471"><ele>78.0</ele><time>2026-04-18T05:20:26.999Z</time></trkpt><trkpt lat="44.4920198" lon="8.9019038"><ele>78.0</ele><time>2026-04-18T05:20:27.999Z</time></trkpt><trkpt lat="44.491889" lon="8.9017766"><ele>78.0</ele><time>2026-04-18T05:20:28.999Z</time></trkpt><trkpt lat="44.4917659" lon="8.9016435"><ele>78.0</ele><time>2026-04-18T05:20:29.999Z</time></trkpt><trkpt lat="44.4916373" lon="8.9015207"><ele>78.33333333333333</ele><time>2026-04-18T05:20:30.999Z</time></trkpt><trkpt lat="44.4915099" lon="8.9013958"><ele>78.66666666666666</ele><time>2026-04-18T05:20:31.999Z</time></trkpt><trkpt lat="44.4913894" lon="8.9012633"><ele>79.0</ele><time>2026-04-18T05:20:32.999Z</time></trkpt><trkpt lat="44.4912529" lon="8.9011361"><ele>78.0</ele><time>2026-04-18T05:20:33.999Z</time></trkpt><trkpt lat="44.4911235" lon="8.9010171"><ele>77.0</ele><time>2026-04-18T05:20:34.999Z</time></trkpt><trkpt lat="44.4909877" lon="8.9008886"><ele>76.0</ele><time>2026-04-18T05:20:35.999Z</time></trkpt><trkpt lat="44.4908525" lon="8.9007502"><ele>76.0</ele><time>2026-04-18T05:20:36.999Z</time></trkpt><trkpt lat="44.4907189" lon="8.9006186"><ele>76.0</ele><time>2026-04-18T05:20:37.999Z</time></trkpt><trkpt lat="44.490588" lon="8.90049"><ele>76.0</ele><time>2026-04-18T05:20:38.999Z</time></trkpt><trkpt lat="44.490452" lon="8.9003546"><ele>76.66666666666666</ele><time>2026-04-18T05:20:39.999Z</time></trkpt><trkpt lat="44.4903158" lon="8.9002138"><ele>77.33333333333333</ele><time>2026-04-18T05:20:40.999Z</time></trkpt><trkpt lat="44.4901824" lon="8.9000959"><ele>78.0</ele><time>2026-04-18T05:20:41.999Z</time></trkpt><trkpt lat="44.4900538" lon="8.8999959"><ele>78.0</ele><time>2026-04-18T05:20:42.999Z</time></trkpt><trkpt lat="44.4899291" lon="8.8998982"><ele>78.0</ele><time>2026-04-18T05:20:43.999Z</time></trkpt><trkpt lat="44.4898232" lon="8.899827"><ele>78.0</ele><time>2026-04-18T05:20:44.999Z</time></trkpt><trkpt lat="44.4897285" lon="8.8997491"><ele>78.0</ele><time>2026-04-18T05:20:45.999Z</time></trkpt><trkpt lat="44.4896453" lon="8.8996883"><ele>77.16666666666667</ele><time>2026-04-18T05:20:46.999Z</time></trkpt><trkpt lat="44.4895759" lon="8.8996332"><ele>76.33333333333333</ele><time>2026-04-18T05:20:47.999Z</time></trkpt><trkpt lat="44.4895243" lon="8.8995824"><ele>75.5</ele><time>2026-04-18T05:20:48.999Z</time></trkpt><trkpt lat="44.4894449" lon="8.8995035"><ele>74.66666666666666</ele><time>2026-04-18T05:20:50.999Z</time></trkpt><trkpt lat="44.489373" lon="8.8994255"><ele>73.83333333333333</ele><time>2026-04-18T05:20:52.999Z</time></trkpt><trkpt lat="44.4893228" lon="8.8993423"><ele>73.0</ele><time>2026-04-18T05:20:54.999Z</time></trkpt><trkpt lat="44.4892892" lon="8.8992265"><ele>74.66666666666666</ele><time>2026-04-18T05:20:56.999Z</time></trkpt><trkpt lat="44.4891983" lon="8.8991702"><ele>76.33333333333333</ele><time>2026-04-18T05:20:58.999Z</time></trkpt><trkpt lat="44.4891306" lon="8.8991715"><ele>78.0</ele><time>2026-04-18T05:20:59.999Z</time></trkpt><trkpt lat="44.4890612" lon="8.899158"><ele>79.66666666666667</ele><time>2026-04-18T05:21:00.999Z</time></trkpt><trkpt lat="44.4889872" lon="8.8991358"><ele>81.33333333333334</ele><time>2026-04-18T05:21:01.999Z</time></trkpt><trkpt lat="44.4888991" lon="8.899094"><ele>83.0</ele><time>2026-04-18T05:21:02.999Z</time></trkpt><trkpt lat="44.4888168" lon="8.8990265"><ele>80.80000000000001</ele><time>2026-04-18T05:21:03.999Z</time></trkpt><trkpt lat="44.4887316" lon="8.8989653"><ele>78.60000000000001</ele><time>2026-04-18T05:21:04.999Z</time></trkpt><trkpt lat="44.4886308" lon="8.8989077"><ele>76.4</ele><time>2026-04-18T05:21:05.999Z</time></trkpt><trkpt lat="44.4885263" lon="8.898854"><ele>74.2</ele><time>2026-04-18T05:21:06.999Z</time></trkpt><trkpt lat="44.4884209" lon="8.8987972"><ele>72.0</ele><time>2026-04-18T05:21:07.999Z</time></trkpt><trkpt lat="44.488314" lon="8.8987403"><ele>72.0</ele><time>2026-04-18T05:21:08.999Z</time></trkpt><trkpt lat="44.4882085" lon="8.898683"><ele>72.0</ele><time>2026-04-18T05:21:09.999Z</time></trkpt><trkpt lat="44.4881038" lon="8.8986296"><ele>72.0</ele><time>2026-04-18T05:21:10.999Z</time></trkpt><trkpt lat="44.4879927" lon="8.8985846"><ele>72.0</ele><time>2026-04-18T05:21:11.999Z</time></trkpt><trkpt lat="44.4878809" lon="8.8985372"><ele>71.75</ele><time>2026-04-18T05:21:12.999Z</time></trkpt><trkpt lat="44.487769" lon="8.8984899"><ele>71.5</ele><time>2026-04-18T05:21:13.999Z</time></trkpt><trkpt lat="44.4876579" lon="8.8984474"><ele>71.25</ele><time>2026-04-18T05:21:14.999Z</time></trkpt><trkpt lat="44.4875414" lon="8.8983988"><ele>71.0</ele><time>2026-04-18T05:21:15.999Z</time></trkpt><trkpt lat="44.4874339" lon="8.8983597"><ele>70.5</ele><time>2026-04-18T05:21:16.999Z</time></trkpt><trkpt lat="44.4873195" lon="8.8983138"><ele>70.0</ele><time>2026-04-18T05:21:17.999Z</time></trkpt><trkpt lat="44.4872034" lon="8.8982703"><ele>69.5</ele><time>2026-04-18T05:21:18.999Z</time></trkpt><trkpt lat="44.4870899" lon="8.898235"><ele>69.0</ele><time>2026-04-18T05:21:19.999Z</time></trkpt><trkpt lat="44.4869759" lon="8.8982071"><ele>69.0</ele><time>2026-04-18T05:21:20.999Z</time></trkpt><trkpt lat="44.4868568" lon="8.8981822"><ele>69.0</ele><time>2026-04-18T05:21:21.999Z</time></trkpt><trkpt lat="44.4867369" lon="8.8981587"><ele>69.0</ele><time>2026-04-18T05:21:22.999Z</time></trkpt><trkpt lat="44.4866152" lon="8.8981325"><ele>69.0</ele><time>2026-04-18T05:21:23.999Z</time></trkpt><trkpt lat="44.4864953" lon="8.8981134"><ele>69.0</ele><time>2026-04-18T05:21:24.999Z</time></trkpt><trkpt lat="44.4863766" lon="8.898098"><ele>69.0</ele><time>2026-04-18T05:21:25.999Z</time></trkpt><trkpt lat="44.4862519" lon="8.8980857"><ele>69.0</ele><time>2026-04-18T05:21:26.999Z</time></trkpt><trkpt lat="44.4861251" lon="8.8980763"><ele>69.0</ele><time>2026-04-18T05:21:27.999Z</time></trkpt><trkpt lat="44.4860047" lon="8.8980716"><ele>68.25</ele><time>2026-04-18T05:21:28.999Z</time></trkpt><trkpt lat="44.4858821" lon="8.8980706"><ele>67.5</ele><time>2026-04-18T05:21:29.999Z</time></trkpt><trkpt lat="44.4857598" lon="8.8980728"><ele>66.75</ele><time>2026-04-18T05:21:30.999Z</time></trkpt><trkpt lat="44.485633" lon="8.898081"><ele>66.0</ele><time>2026-04-18T05:21:31.999Z</time></trkpt><trkpt lat="44.4855042" lon="8.8980895"><ele>67.25</ele><time>2026-04-18T05:21:32.999Z</time></trkpt><trkpt lat="44.4853688" lon="8.8981047"><ele>68.5</ele><time>2026-04-18T05:21:33.999Z</time></trkpt><trkpt lat="44.4852362" lon="8.8981263"><ele>69.75</ele><time>2026-04-18T05:21:34.999Z</time></trkpt><trkpt lat="44.485108" lon="8.8981533"><ele>71.0</ele><time>2026-04-18T05:21:35.999Z</time></trkpt><trkpt lat="44.4849819" lon="8.898174"><ele>71.0</ele><time>2026-04-18T05:21:36.999Z</time></trkpt><trkpt lat="44.484859" lon="8.8982019"><ele>71.0</ele><time>2026-04-18T05:21:37.999Z</time></trkpt><trkpt lat="44.4847388" lon="8.8982266"><ele>71.0</ele><time>2026-04-18T05:21:38.999Z</time></trkpt><trkpt lat="44.4846168" lon="8.8982585"><ele>71.0</ele><time>2026-04-18T05:21:39.999Z</time></trkpt><trkpt lat="44.4844809" lon="8.8982897"><ele>72.25</ele><time>2026-04-18T05:21:40.999Z</time></trkpt><trkpt lat="44.4843414" lon="8.8983176"><ele>73.5</ele><time>2026-04-18T05:21:41.999Z</time></trkpt><trkpt lat="44.4842077" lon="8.8983511"><ele>74.75</ele><time>2026-04-18T05:21:42.999Z</time></trkpt><trkpt lat="44.4840843" lon="8.8983786"><ele>76.0</ele><time>2026-04-18T05:21:43.999Z</time></trkpt><trkpt lat="44.4839574" lon="8.8984043"><ele>74.75</ele><time>2026-04-18T05:21:44.999Z</time></trkpt><trkpt lat="44.4838298" lon="8.8984322"><ele>73.5</ele><time>2026-04-18T05:21:45.999Z</time></trkpt><trkpt lat="44.4837158" lon="8.8984578"><ele>72.25</ele><time>2026-04-18T05:21:46.999Z</time></trkpt><trkpt lat="44.4835728" lon="8.8984939"><ele>71.0</ele><time>2026-04-18T05:21:47.999Z</time></trkpt><trkpt lat="44.4834489" lon="8.8985232"><ele>70.25</ele><time>2026-04-18T05:21:48.999Z</time></trkpt><trkpt lat="44.483324" lon="8.8985511"><ele>69.5</ele><time>2026-04-18T05:21:49.999Z</time></trkpt><trkpt lat="44.4831899" lon="8.898582"><ele>68.75</ele><time>2026-04-18T05:21:50.999Z</time></trkpt><trkpt lat="44.4830522" lon="8.898612"><ele>68.0</ele><time>2026-04-18T05:21:51.999Z</time></trkpt><trkpt lat="44.4829177" lon="8.8986459"><ele>67.25</ele><time>2026-04-18T05:21:52.999Z</time></trkpt><trkpt lat="44.4827801" lon="8.8986816"><ele>66.5</ele><time>2026-04-18T05:21:53.999Z</time></trkpt><trkpt lat="44.4826395" lon="8.8987133"><ele>65.75</ele><time>2026-04-18T05:21:54.999Z</time></trkpt><trkpt lat="44.4824993" lon="8.8987433"><ele>65.0</ele><time>2026-04-18T05:21:55.999Z</time></trkpt><trkpt lat="44.4823548" lon="8.8987789"><ele>65.0</ele><time>2026-04-18T05:21:56.999Z</time></trkpt><trkpt lat="44.4822046" lon="8.8988166"><ele>65.0</ele><time>2026-04-18T05:21:57.999Z</time></trkpt><trkpt lat="44.4820548" lon="8.8988548"><ele>65.0</ele><time>2026-04-18T05:21:58.999Z</time></trkpt><trkpt lat="44.4819146" lon="8.8988827"><ele>65.0</ele><time>2026-04-18T05:21:59.999Z</time></trkpt><trkpt lat="44.4817738" lon="8.8989156"><ele>65.0</ele><time>2026-04-18T05:22:00.999Z</time></trkpt><trkpt lat="44.4816317" lon="8.8989469"><ele>65.0</ele><time>2026-04-18T05:22:01.999Z</time></trkpt><trkpt lat="44.4814878" lon="8.8989782"><ele>65.0</ele><time>2026-04-18T05:22:02.999Z</time></trkpt><trkpt lat="44.4813468" lon="8.8990056"><ele>65.0</ele><time>2026-04-18T05:22:03.999Z</time></trkpt><trkpt lat="44.4811996" lon="8.8990397"><ele>65.0</ele><time>2026-04-18T05:22:04.999Z</time></trkpt><trkpt lat="44.4810588" lon="8.8990742"><ele>65.0</ele><time>2026-04-18T05:22:06Z</time></trkpt><trkpt lat="44.4809266" lon="8.899114"><ele>65.0</ele><time>2026-04-18T05:22:06.999Z</time></trkpt><trkpt lat="44.4807853" lon="8.899138"><ele>65.0</ele><time>2026-04-18T05:22:07.999Z</time></trkpt><trkpt lat="44.4806474" lon="8.8991699"><ele>65.0</ele><time>2026-04-18T05:22:08.999Z</time></trkpt><trkpt lat="44.4805143" lon="8.8991994"><ele>65.0</ele><time>2026-04-18T05:22:09.999Z</time></trkpt><trkpt lat="44.4803843" lon="8.8992268"><ele>65.0</ele><time>2026-04-18T05:22:11Z</time></trkpt><trkpt lat="44.4802497" lon="8.8992543"><ele>65.0</ele><time>2026-04-18T05:22:11.999Z</time></trkpt><trkpt lat="44.480111" lon="8.8992847"><ele>65.25</ele><time>2026-04-18T05:22:12.999Z</time></trkpt><trkpt lat="44.4799754" lon="8.8993129"><ele>65.5</ele><time>2026-04-18T05:22:13.999Z</time></trkpt><trkpt lat="44.479842" lon="8.8993474"><ele>65.75</ele><time>2026-04-18T05:22:14.999Z</time></trkpt><trkpt lat="44.4797153" lon="8.899375"><ele>66.0</ele><time>2026-04-18T05:22:15.999Z</time></trkpt><trkpt lat="44.4795919" lon="8.8994068"><ele>65.25</ele><time>2026-04-18T05:22:16.999Z</time></trkpt><trkpt lat="44.4794726" lon="8.8994296"><ele>64.5</ele><time>2026-04-18T05:22:17.999Z</time></trkpt><trkpt lat="44.4793527" lon="8.899461"><ele>63.75</ele><time>2026-04-18T05:22:18.999Z</time></trkpt><trkpt lat="44.4792297" lon="8.8994866"><ele>63.0</ele><time>2026-04-18T05:22:19.999Z</time></trkpt><trkpt lat="44.4791082" lon="8.8995128"><ele>63.0</ele><time>2026-04-18T05:22:20.999Z</time></trkpt><trkpt lat="44.478983" lon="8.8995432"><ele>63.0</ele><time>2026-04-18T05:22:21.999Z</time></trkpt><trkpt lat="44.4788591" lon="8.8995721"><ele>63.0</ele><time>2026-04-18T05:22:22.999Z</time></trkpt><trkpt lat="44.4787268" lon="8.8996012"><ele>63.0</ele><time>2026-04-18T05:22:23.999Z</time></trkpt><trkpt lat="44.4786064" lon="8.8996279"><ele>63.25</ele><time>2026-04-18T05:22:24.999Z</time></trkpt><trkpt lat="44.4784806" lon="8.8996585"><ele>63.5</ele><time>2026-04-18T05:22:25.999Z</time></trkpt><trkpt lat="44.478361" lon="8.8996851"><ele>63.75</ele><time>2026-04-18T05:22:26.999Z</time></trkpt><trkpt lat="44.4782398" lon="8.8997006"><ele>64.0</ele><time>2026-04-18T05:22:27.999Z</time></trkpt><trkpt lat="44.4781259" lon="8.8997063"><ele>64.0</ele><time>2026-04-18T05:22:28.999Z</time></trkpt><trkpt lat="44.4780089" lon="8.8996915"><ele>64.0</ele><time>2026-04-18T05:22:29.999Z</time></trkpt><trkpt lat="44.4778861" lon="8.899656"><ele>64.0</ele><time>2026-04-18T05:22:30.999Z</time></trkpt><trkpt lat="44.4777643" lon="8.8996203"><ele>64.0</ele><time>2026-04-18T05:22:31.999Z</time></trkpt><trkpt lat="44.4776461" lon="8.899585"><ele>64.25</ele><time>2026-04-18T05:22:32.999Z</time></trkpt><trkpt lat="44.4775286" lon="8.899553"><ele>64.5</ele><time>2026-04-18T05:22:33.999Z</time></trkpt><trkpt lat="44.477404" lon="8.8995219"><ele>64.75</ele><time>2026-04-18T05:22:34.999Z</time></trkpt><trkpt lat="44.4772809" lon="8.8994969"><ele>65.0</ele><time>2026-04-18T05:22:35.999Z</time></trkpt><trkpt lat="44.4771497" lon="8.8994675"><ele>63.75</ele><time>2026-04-18T05:22:36.999Z</time></trkpt><trkpt lat="44.4770182" lon="8.8994307"><ele>62.5</ele><time>2026-04-18T05:22:37.999Z</time></trkpt><trkpt lat="44.4768859" lon="8.8993932"><ele>61.25</ele><time>2026-04-18T05:22:38.999Z</time></trkpt><trkpt lat="44.4767478" lon="8.8993595"><ele>60.0</ele><time>2026-04-18T05:22:39.999Z</time></trkpt><trkpt lat="44.4766087" lon="8.8993205"><ele>60.0</ele><time>2026-04-18T05:22:40.999Z</time></trkpt><trkpt lat="44.4764651" lon="8.8992793"><ele>60.0</ele><time>2026-04-18T05:22:41.999Z</time></trkpt><trkpt lat="44.476322" lon="8.8992362"><ele>60.0</ele><time>2026-04-18T05:22:42.999Z</time></trkpt><trkpt lat="44.4761735" lon="8.8991902"><ele>60.0</ele><time>2026-04-18T05:22:43.999Z</time></trkpt><trkpt lat="44.4760225" lon="8.8991442"><ele>60.25</ele><time>2026-04-18T05:22:44.999Z</time></trkpt><trkpt lat="44.475876" lon="8.899097"><ele>60.5</ele><time>2026-04-18T05:22:46Z</time></trkpt><trkpt lat="44.475735" lon="8.8990599"><ele>60.75</ele><time>2026-04-18T05:22:46.999Z</time></trkpt><trkpt lat="44.4755887" lon="8.8990237"><ele>61.0</ele><time>2026-04-18T05:22:47.999Z</time></trkpt><trkpt lat="44.4754503" lon="8.8990112"><ele>61.0</ele><time>2026-04-18T05:22:48.999Z</time></trkpt><trkpt lat="44.4753089" lon="8.8990092"><ele>61.0</ele><time>2026-04-18T05:22:49.999Z</time></trkpt><trkpt lat="44.4751753" lon="8.8990203"><ele>61.0</ele><time>2026-04-18T05:22:50.999Z</time></trkpt><trkpt lat="44.4750493" lon="8.8990398"><ele>61.0</ele><time>2026-04-18T05:22:51.999Z</time></trkpt><trkpt lat="44.474933" lon="8.8990766"><ele>61.0</ele><time>2026-04-18T05:22:52.999Z</time></trkpt><trkpt lat="44.4748241" lon="8.899119"><ele>60.99999999999999</ele><time>2026-04-18T05:22:53.999Z</time></trkpt><trkpt lat="44.4747299" lon="8.8991634"><ele>60.99999999999999</ele><time>2026-04-18T05:22:54.999Z</time></trkpt><trkpt lat="44.4746519" lon="8.8992096"><ele>61.0</ele><time>2026-04-18T05:22:55.999Z</time></trkpt><trkpt lat="44.4745784" lon="8.8992514"><ele>61.0</ele><time>2026-04-18T05:22:56.999Z</time></trkpt><trkpt lat="44.4744835" lon="8.8993105"><ele>60.599999999999994</ele><time>2026-04-18T05:22:58.999Z</time></trkpt><trkpt lat="44.474384" lon="8.8993845"><ele>60.199999999999996</ele><time>2026-04-18T05:23:00.999Z</time></trkpt><trkpt lat="44.474269" lon="8.8994578"><ele>59.800000000000004</ele><time>2026-04-18T05:23:02.999Z</time></trkpt><trkpt lat="44.4742077" lon="8.8994914"><ele>59.400000000000006</ele><time>2026-04-18T05:23:03.999Z</time></trkpt><trkpt lat="44.4741305" lon="8.8995166"><ele>59.0</ele><time>2026-04-18T05:23:05.999Z</time></trkpt><trkpt lat="44.4740609" lon="8.8995492"><ele>59.0</ele><time>2026-04-18T05:23:32.999Z</time></trkpt><trkpt lat="44.4739578" lon="8.8996052"><ele>59.00000000000001</ele><time>2026-04-18T05:23:33.999Z</time></trkpt><trkpt lat="44.4738742" lon="8.8996557"><ele>59.00000000000001</ele><time>2026-04-18T05:23:34.999Z</time></trkpt><trkpt lat="44.4737879" lon="8.8997087"><ele>59.0</ele><time>2026-04-18T05:23:35.999Z</time></trkpt><trkpt lat="44.4737072" lon="8.8997548"><ele>59.0</ele><time>2026-04-18T05:23:36.999Z</time></trkpt><trkpt lat="44.4736139" lon="8.8998205"><ele>58.5</ele><time>2026-04-18T05:23:37.999Z</time></trkpt><trkpt lat="44.4735239" lon="8.8999043"><ele>58.0</ele><time>2026-04-18T05:23:38.999Z</time></trkpt><trkpt lat="44.4734303" lon="8.8999894"><ele>57.5</ele><time>2026-04-18T05:23:39.999Z</time></trkpt><trkpt lat="44.473348" lon="8.9000835"><ele>57.0</ele><time>2026-04-18T05:23:40.999Z</time></trkpt><trkpt lat="44.4732283" lon="8.9001845"><ele>57.0</ele><time>2026-04-18T05:23:41.999Z</time></trkpt><trkpt lat="44.4731209" lon="8.900286"><ele>57.0</ele><time>2026-04-18T05:23:42.999Z</time></trkpt><trkpt lat="44.4729952" lon="8.9003766"><ele>57.0</ele><time>2026-04-18T05:23:43.999Z</time></trkpt><trkpt lat="44.4728802" lon="8.9004792"><ele>57.0</ele><time>2026-04-18T05:23:44.999Z</time></trkpt><trkpt lat="44.4727598" lon="8.9005788"><ele>57.25</ele><time>2026-04-18T05:23:45.999Z</time></trkpt><trkpt lat="44.4726445" lon="8.9006863"><ele>57.5</ele><time>2026-04-18T05:23:46.999Z</time></trkpt><trkpt lat="44.4725247" lon="8.900789"><ele>57.75</ele><time>2026-04-18T05:23:47.999Z</time></trkpt><trkpt lat="44.4723944" lon="8.9008839"><ele>58.0</ele><time>2026-04-18T05:23:48.999Z</time></trkpt><trkpt lat="44.4722605" lon="8.9009569"><ele>58.0</ele><time>2026-04-18T05:23:49.999Z</time></trkpt><trkpt lat="44.4721238" lon="8.9010168"><ele>58.0</ele><time>2026-04-18T05:23:50.999Z</time></trkpt><trkpt lat="44.4719976" lon="8.901051"><ele>58.0</ele><time>2026-04-18T05:23:52Z</time></trkpt><trkpt lat="44.4718736" lon="8.9010808"><ele>58.0</ele><time>2026-04-18T05:23:52.999Z</time></trkpt><trkpt lat="44.4717556" lon="8.9011043"><ele>57.8</ele><time>2026-04-18T05:23:53.999Z</time></trkpt><trkpt lat="44.471643" lon="8.9011298"><ele>57.599999999999994</ele><time>2026-04-18T05:23:54.999Z</time></trkpt><trkpt lat="44.4715351" lon="8.9011524"><ele>57.400000000000006</ele><time>2026-04-18T05:23:55.999Z</time></trkpt><trkpt lat="44.4714341" lon="8.90117"><ele>57.2</ele><time>2026-04-18T05:23:56.999Z</time></trkpt><trkpt lat="44.4713371" lon="8.9011927"><ele>57.0</ele><time>2026-04-18T05:23:57.999Z</time></trkpt><trkpt lat="44.4712657" lon="8.901223"><ele>56.666666666666664</ele><time>2026-04-18T05:23:58.999Z</time></trkpt><trkpt lat="44.4711862" lon="8.9012318"><ele>56.33333333333333</ele><time>2026-04-18T05:23:59.999Z</time></trkpt><trkpt lat="44.4711121" lon="8.9012412"><ele>56.0</ele><time>2026-04-18T05:24:00.999Z</time></trkpt><trkpt lat="44.4710123" lon="8.9012497"><ele>55.666666666666664</ele><time>2026-04-18T05:24:02.999Z</time></trkpt><trkpt lat="44.4709481" lon="8.901242"><ele>55.33333333333333</ele><time>2026-04-18T05:24:06.999Z</time></trkpt><trkpt lat="44.4708759" lon="8.90126"><ele>55.0</ele><time>2026-04-18T05:24:10.999Z</time></trkpt><trkpt lat="44.4707356" lon="8.9012745"><ele>55.0</ele><time>2026-04-18T05:24:12.999Z</time></trkpt><trkpt lat="44.4706443" lon="8.9012772"><ele>55.0</ele><time>2026-04-18T05:24:13.999Z</time></trkpt><trkpt lat="44.4705117" lon="8.9012618"><ele>55.0</ele><time>2026-04-18T05:24:14.999Z</time></trkpt><trkpt lat="44.4703908" lon="8.9012549"><ele>55.0</ele><time>2026-04-18T05:24:15.999Z</time></trkpt><trkpt lat="44.4702662" lon="8.9012568"><ele>55.0</ele><time>2026-04-18T05:24:16.999Z</time></trkpt><trkpt lat="44.4701367" lon="8.9012598"><ele>55.0</ele><time>2026-04-18T05:24:17.999Z</time></trkpt><trkpt lat="44.4700097" lon="8.9012618"><ele>55.0</ele><time>2026-04-18T05:24:18.999Z</time></trkpt><trkpt lat="44.4698724" lon="8.9012559"><ele>55.0</ele><time>2026-04-18T05:24:19.999Z</time></trkpt><trkpt lat="44.4697378" lon="8.9012486"><ele>54.5</ele><time>2026-04-18T05:24:20.999Z</time></trkpt><trkpt lat="44.4696007" lon="8.9012321"><ele>54.0</ele><time>2026-04-18T05:24:21.999Z</time></trkpt><trkpt lat="44.4694606" lon="8.9012196"><ele>53.5</ele><time>2026-04-18T05:24:22.999Z</time></trkpt><trkpt lat="44.4693166" lon="8.9011939"><ele>53.0</ele><time>2026-04-18T05:24:23.999Z</time></trkpt><trkpt lat="44.4691693" lon="8.9011656"><ele>53.0</ele><time>2026-04-18T05:24:24.999Z</time></trkpt><trkpt lat="44.4690207" lon="8.9011285"><ele>53.0</ele><time>2026-04-18T05:24:25.999Z</time></trkpt><trkpt lat="44.4688749" lon="8.901094"><ele>53.0</ele><time>2026-04-18T05:24:26.999Z</time></trkpt><trkpt lat="44.4687261" lon="8.9010584"><ele>52.75</ele><time>2026-04-18T05:24:27.999Z</time></trkpt><trkpt lat="44.4685761" lon="8.9010173"><ele>52.5</ele><time>2026-04-18T05:24:28.999Z</time></trkpt><trkpt lat="44.4684335" lon="8.9009773"><ele>52.25</ele><time>2026-04-18T05:24:29.999Z</time></trkpt><trkpt lat="44.4683035" lon="8.9009362"><ele>52.0</ele><time>2026-04-18T05:24:30.999Z</time></trkpt><trkpt lat="44.4681826" lon="8.9008866"><ele>52.400000000000006</ele><time>2026-04-18T05:24:31.999Z</time></trkpt><trkpt lat="44.4680704" lon="8.9008432"><ele>52.800000000000004</ele><time>2026-04-18T05:24:32.999Z</time></trkpt><trkpt lat="44.4679744" lon="8.9007765"><ele>53.2</ele><time>2026-04-18T05:24:33.999Z</time></trkpt><trkpt lat="44.4679051" lon="8.9006885"><ele>53.6</ele><time>2026-04-18T05:24:34.999Z</time></trkpt><trkpt lat="44.4678605" lon="8.9005864"><ele>54.0</ele><time>2026-04-18T05:24:35.999Z</time></trkpt><trkpt lat="44.467844" lon="8.9004721"><ele>54.0</ele><time>2026-04-18T05:24:36.999Z</time></trkpt><trkpt lat="44.4678552" lon="8.9003504"><ele>54.00000000000001</ele><time>2026-04-18T05:24:37.999Z</time></trkpt><trkpt lat="44.4679026" lon="8.9002375"><ele>54.00000000000001</ele><time>2026-04-18T05:24:38.999Z</time></trkpt><trkpt lat="44.4679573" lon="8.9001194"><ele>54.0</ele><time>2026-04-18T05:24:39.999Z</time></trkpt><trkpt lat="44.4680249" lon="8.9000015"><ele>54.0</ele><time>2026-04-18T05:24:40.999Z</time></trkpt><trkpt lat="44.4680906" lon="8.899878"><ele>54.0</ele><time>2026-04-18T05:24:41.999Z</time></trkpt><trkpt lat="44.4681568" lon="8.8997498"><ele>54.0</ele><time>2026-04-18T05:24:42.999Z</time></trkpt><trkpt lat="44.4682277" lon="8.899616"><ele>54.0</ele><time>2026-04-18T05:24:43.999Z</time></trkpt><trkpt lat="44.4682963" lon="8.8994997"><ele>54.0</ele><time>2026-04-18T05:24:44.999Z</time></trkpt><trkpt lat="44.4683803" lon="8.8993911"><ele>54.0</ele><time>2026-04-18T05:24:45.999Z</time></trkpt><trkpt lat="44.4684745" lon="8.8993137"><ele>54.00000000000001</ele><time>2026-04-18T05:24:46.999Z</time></trkpt><trkpt lat="44.4685768" lon="8.8992645"><ele>54.00000000000001</ele><time>2026-04-18T05:24:47.999Z</time></trkpt><trkpt lat="44.4686799" lon="8.8992377"><ele>54.0</ele><time>2026-04-18T05:24:48.999Z</time></trkpt><trkpt lat="44.4687737" lon="8.8992311"><ele>54.0</ele><time>2026-04-18T05:24:49.999Z</time></trkpt><trkpt lat="44.4688409" lon="8.8992388"><ele>54.6</ele><time>2026-04-18T05:24:50.999Z</time></trkpt><trkpt lat="44.4689222" lon="8.8992448"><ele>55.2</ele><time>2026-04-18T05:24:51.999Z</time></trkpt><trkpt lat="44.4690151" lon="8.8992547"><ele>55.800000000000004</ele><time>2026-04-18T05:24:52.999Z</time></trkpt><trkpt lat="44.4691174" lon="8.8992883"><ele>56.400000000000006</ele><time>2026-04-18T05:24:53.999Z</time></trkpt><trkpt lat="44.4692236" lon="8.89932"><ele>57.0</ele><time>2026-04-18T05:24:54.999Z</time></trkpt><trkpt lat="44.4693295" lon="8.899365"><ele>57.400000000000006</ele><time>2026-04-18T05:24:55.999Z</time></trkpt><trkpt lat="44.4694218" lon="8.8994327"><ele>57.800000000000004</ele><time>2026-04-18T05:24:56.999Z</time></trkpt><trkpt lat="44.4695387" lon="8.8994879"><ele>58.2</ele><time>2026-04-18T05:24:57.999Z</time></trkpt><trkpt lat="44.4696452" lon="8.8995303"><ele>58.6</ele><time>2026-04-18T05:24:58.999Z</time></trkpt><trkpt lat="44.4697494" lon="8.8995806"><ele>59.0</ele><time>2026-04-18T05:24:59.999Z</time></trkpt><trkpt lat="44.4698352" lon="8.8996504"><ele>59.0</ele><time>2026-04-18T05:25:00.999Z</time></trkpt><trkpt lat="44.469914" lon="8.8997454"><ele>59.00000000000001</ele><time>2026-04-18T05:25:01.999Z</time></trkpt><trkpt lat="44.4699713" lon="8.8998678"><ele>59.00000000000001</ele><time>2026-04-18T05:25:02.999Z</time></trkpt><trkpt lat="44.4700099" lon="8.9000304"><ele>59.0</ele><time>2026-04-18T05:25:03.999Z</time></trkpt><trkpt lat="44.4700365" lon="8.9001926"><ele>59.0</ele><time>2026-04-18T05:25:04.999Z</time></trkpt><trkpt lat="44.4700445" lon="8.9003585"><ele>58.5</ele><time>2026-04-18T05:25:05.999Z</time></trkpt><trkpt lat="44.4700436" lon="8.9005317"><ele>58.0</ele><time>2026-04-18T05:25:07Z</time></trkpt><trkpt lat="44.4700404" lon="8.9007059"><ele>57.5</ele><time>2026-04-18T05:25:07.999Z</time></trkpt><trkpt lat="44.4700382" lon="8.9008668"><ele>57.0</ele><time>2026-04-18T05:25:08.999Z</time></trkpt><trkpt lat="44.4700414" lon="8.9010389"><ele>56.5</ele><time>2026-04-18T05:25:10Z</time></trkpt><trkpt lat="44.4700445" lon="8.9012134"><ele>56.0</ele><time>2026-04-18T05:25:10.999Z</time></trkpt><trkpt lat="44.4700532" lon="8.9013859"><ele>55.5</ele><time>2026-04-18T05:25:11.999Z</time></trkpt><trkpt lat="44.4700662" lon="8.9015561"><ele>55.0</ele><time>2026-04-18T05:25:12.999Z</time></trkpt><trkpt lat="44.470085" lon="8.9017254"><ele>55.0</ele><time>2026-04-18T05:25:13.999Z</time></trkpt><trkpt lat="44.4701024" lon="8.9018953"><ele>55.0</ele><time>2026-04-18T05:25:14.999Z</time></trkpt><trkpt lat="44.4701204" lon="8.9020753"><ele>55.0</ele><time>2026-04-18T05:25:15.999Z</time></trkpt><trkpt lat="44.4701473" lon="8.902251"><ele>55.0</ele><time>2026-04-18T05:25:16.999Z</time></trkpt><trkpt lat="44.4701857" lon="8.9024417"><ele>55.0</ele><time>2026-04-18T05:25:17.999Z</time></trkpt><trkpt lat="44.4702175" lon="8.9026038"><ele>55.0</ele><time>2026-04-18T05:25:18.999Z</time></trkpt><trkpt lat="44.4702488" lon="8.9027565"><ele>55.0</ele><time>2026-04-18T05:25:19.999Z</time></trkpt><trkpt lat="44.470289" lon="8.902902"><ele>55.0</ele><time>2026-04-18T05:25:20.999Z</time></trkpt><trkpt lat="44.4703248" lon="8.9030329"><ele>55.0</ele><time>2026-04-18T05:25:21.999Z</time></trkpt><trkpt lat="44.4703537" lon="8.9031466"><ele>55.0</ele><time>2026-04-18T05:25:22.999Z</time></trkpt><trkpt lat="44.4703376" lon="8.9033243"><ele>55.0</ele><time>2026-04-18T05:25:24.999Z</time></trkpt><trkpt lat="44.4703015" lon="8.9034143"><ele>55.0</ele><time>2026-04-18T05:25:25.999Z</time></trkpt><trkpt lat="44.4702512" lon="8.903498"><ele>55.0</ele><time>2026-04-18T05:25:26.999Z</time></trkpt><trkpt lat="44.4701957" lon="8.9035878"><ele>55.0</ele><time>2026-04-18T05:25:27.999Z</time></trkpt><trkpt lat="44.4701346" lon="8.9036793"><ele>55.0</ele><time>2026-04-18T05:25:28.999Z</time></trkpt><trkpt lat="44.4700617" lon="8.9037723"><ele>55.0</ele><time>2026-04-18T05:25:30.101Z</time></trkpt><trkpt lat="44.4699033" lon="8.9039305"><ele>55.0</ele><time>2026-04-18T05:25:31.999Z</time></trkpt><trkpt lat="44.4698223" lon="8.9040066"><ele>55.0</ele><time>2026-04-18T05:25:32.999Z</time></trkpt><trkpt lat="44.4697427" lon="8.9040856"><ele>55.0</ele><time>2026-04-18T05:25:33.999Z</time></trkpt><trkpt lat="44.4696647" lon="8.9041644"><ele>55.0</ele><time>2026-04-18T05:25:34.999Z</time></trkpt><trkpt lat="44.4695845" lon="8.9042363"><ele>55.0</ele><time>2026-04-18T05:25:35.999Z</time></trkpt><trkpt lat="44.4695025" lon="8.9043037"><ele>55.0</ele><time>2026-04-18T05:25:36.999Z</time></trkpt><trkpt lat="44.4694252" lon="8.9043664"><ele>55.0</ele><time>2026-04-18T05:25:37.999Z</time></trkpt><trkpt lat="44.4693581" lon="8.9044281"><ele>54.6</ele><time>2026-04-18T05:25:38.999Z</time></trkpt><trkpt lat="44.4692997" lon="8.9044848"><ele>54.2</ele><time>2026-04-18T05:25:39.999Z</time></trkpt><trkpt lat="44.4691984" lon="8.9045771"><ele>53.8</ele><time>2026-04-18T05:25:41.999Z</time></trkpt><trkpt lat="44.4691793" lon="8.9046704"><ele>53.4</ele><time>2026-04-18T05:25:43.999Z</time></trkpt><trkpt lat="44.4692063" lon="8.9048071"><ele>53.0</ele><time>2026-04-18T05:25:45.999Z</time></trkpt><trkpt lat="44.4692826" lon="8.9048937"><ele>53.00000000000001</ele><time>2026-04-18T05:25:47.999Z</time></trkpt><trkpt lat="44.469328" lon="8.9049863"><ele>53.0</ele><time>2026-04-18T05:25:48.999Z</time></trkpt><trkpt lat="44.4693869" lon="8.9050719"><ele>53.0</ele><time>2026-04-18T05:25:49.999Z</time></trkpt><trkpt lat="44.4694414" lon="8.9051287"><ele>53.0</ele><time>2026-04-18T05:25:50.999Z</time></trkpt><trkpt lat="44.4694819" lon="8.9051976"><ele>53.00000000000001</ele><time>2026-04-18T05:25:51.999Z</time></trkpt><trkpt lat="44.4695539" lon="8.9052351"><ele>53.0</ele><time>2026-04-18T05:25:52.999Z</time></trkpt><trkpt lat="44.4696767" lon="8.9052314"><ele>53.0</ele><time>2026-04-18T05:25:54.999Z</time></trkpt><trkpt lat="44.4697998" lon="8.9051525"><ele>53.0</ele><time>2026-04-18T05:25:56.999Z</time></trkpt><trkpt lat="44.4698623" lon="8.905083"><ele>53.0</ele><time>2026-04-18T05:25:57.999Z</time></trkpt><trkpt lat="44.4699304" lon="8.9050038"><ele>53.0</ele><time>2026-04-18T05:25:58.999Z</time></trkpt><trkpt lat="44.4699958" lon="8.9049275"><ele>53.0</ele><time>2026-04-18T05:25:59.999Z</time></trkpt><trkpt lat="44.4700589" lon="8.9048515"><ele>53.50000000000001</ele><time>2026-04-18T05:26:00.999Z</time></trkpt><trkpt lat="44.4701275" lon="8.904768"><ele>54.0</ele><time>2026-04-18T05:26:01.999Z</time></trkpt><trkpt lat="44.4701934" lon="8.9046865"><ele>54.5</ele><time>2026-04-18T05:26:02.999Z</time></trkpt><trkpt lat="44.4702651" lon="8.904609"><ele>55.0</ele><time>2026-04-18T05:26:03.999Z</time></trkpt><trkpt lat="44.4703255" lon="8.9045338"><ele>55.50000000000001</ele><time>2026-04-18T05:26:04.999Z</time></trkpt><trkpt lat="44.4703823" lon="8.9044692"><ele>56.0</ele><time>2026-04-18T05:26:05.999Z</time></trkpt><trkpt lat="44.4704414" lon="8.9044085"><ele>56.4</ele><time>2026-04-18T05:26:06.999Z</time></trkpt><trkpt lat="44.4705537" lon="8.9043639"><ele>56.8</ele><time>2026-04-18T05:26:08.999Z</time></trkpt><trkpt lat="44.4706526" lon="8.9044279"><ele>57.199999999999996</ele><time>2026-04-18T05:26:10.999Z</time></trkpt><trkpt lat="44.4706991" lon="8.9045084"><ele>57.599999999999994</ele><time>2026-04-18T05:26:11.999Z</time></trkpt><trkpt lat="44.4707544" lon="8.9045792"><ele>58.0</ele><time>2026-04-18T05:26:12.999Z</time></trkpt><trkpt lat="44.4708078" lon="8.9046773"><ele>58.0</ele><time>2026-04-18T05:26:13.999Z</time></trkpt><trkpt lat="44.4708778" lon="8.9047813"><ele>58.0</ele><time>2026-04-18T05:26:14.999Z</time></trkpt><trkpt lat="44.4709589" lon="8.9049043"><ele>58.0</ele><time>2026-04-18T05:26:15.999Z</time></trkpt><trkpt lat="44.4710341" lon="8.9049929"><ele>58.0</ele><time>2026-04-18T05:26:16.999Z</time></trkpt><trkpt lat="44.4711086" lon="8.905111"><ele>58.0</ele><time>2026-04-18T05:26:17.999Z</time></trkpt><trkpt lat="44.471184" lon="8.9052254"><ele>58.25</ele><time>2026-04-18T05:26:18.999Z</time></trkpt><trkpt lat="44.4712662" lon="8.90531"><ele>58.5</ele><time>2026-04-18T05:26:19.999Z</time></trkpt><trkpt lat="44.4713596" lon="8.9054158"><ele>58.75</ele><time>2026-04-18T05:26:20.999Z</time></trkpt><trkpt lat="44.4714552" lon="8.905519"><ele>59.0</ele><time>2026-04-18T05:26:21.999Z</time></trkpt><trkpt lat="44.4715443" lon="8.9056269"><ele>59.75</ele><time>2026-04-18T05:26:22.999Z</time></trkpt><trkpt lat="44.4716453" lon="8.9057478"><ele>60.5</ele><time>2026-04-18T05:26:23.999Z</time></trkpt><trkpt lat="44.4717432" lon="8.9058654"><ele>61.25</ele><time>2026-04-18T05:26:24.999Z</time></trkpt><trkpt lat="44.4718408" lon="8.9059934"><ele>62.0</ele><time>2026-04-18T05:26:25.999Z</time></trkpt><trkpt lat="44.4719101" lon="8.906126"><ele>60.5</ele><time>2026-04-18T05:26:26.999Z</time></trkpt><trkpt lat="44.4719992" lon="8.9062395"><ele>59.0</ele><time>2026-04-18T05:26:27.999Z</time></trkpt><trkpt lat="44.4720728" lon="8.9063792"><ele>57.5</ele><time>2026-04-18T05:26:28.999Z</time></trkpt><trkpt lat="44.4721485" lon="8.9065204"><ele>56.0</ele><time>2026-04-18T05:26:29.999Z</time></trkpt><trkpt lat="44.4722166" lon="8.906666"><ele>58.25</ele><time>2026-04-18T05:26:30.999Z</time></trkpt><trkpt lat="44.4722683" lon="8.9068159"><ele>60.5</ele><time>2026-04-18T05:26:31.999Z</time></trkpt><trkpt lat="44.4723116" lon="8.9069809"><ele>62.75</ele><time>2026-04-18T05:26:32.999Z</time></trkpt><trkpt lat="44.4723341" lon="8.9071461"><ele>65.0</ele><time>2026-04-18T05:26:33.999Z</time></trkpt><trkpt lat="44.4723482" lon="8.9074788"><ele>63.75</ele><time>2026-04-18T05:26:35.999Z</time></trkpt><trkpt lat="44.4723237" lon="8.9075912"><ele>62.5</ele><time>2026-04-18T05:26:36.999Z</time></trkpt><trkpt lat="44.4722794" lon="8.9077278"><ele>61.25</ele><time>2026-04-18T05:26:37.999Z</time></trkpt><trkpt lat="44.4722303" lon="8.9078309"><ele>60.0</ele><time>2026-04-18T05:26:39.105Z</time></trkpt><trkpt lat="44.4720281" lon="8.9080413"><ele>59.6</ele><time>2026-04-18T05:26:40.999Z</time></trkpt><trkpt lat="44.4719357" lon="8.9081175"><ele>59.2</ele><time>2026-04-18T05:26:41.999Z</time></trkpt><trkpt lat="44.471849" lon="8.9081931"><ele>58.8</ele><time>2026-04-18T05:26:42.999Z</time></trkpt><trkpt lat="44.4717656" lon="8.9082844"><ele>58.4</ele><time>2026-04-18T05:26:43.999Z</time></trkpt><trkpt lat="44.4717283" lon="8.9083679"><ele>58.0</ele><time>2026-04-18T05:26:44.999Z</time></trkpt><trkpt lat="44.4717025" lon="8.9084612"><ele>57.99999999999999</ele><time>2026-04-18T05:26:45.999Z</time></trkpt><trkpt lat="44.471704" lon="8.9085504"><ele>58.0</ele><time>2026-04-18T05:26:46.999Z</time></trkpt><trkpt lat="44.4717338" lon="8.9086371"><ele>58.0</ele><time>2026-04-18T05:26:47.999Z</time></trkpt><trkpt lat="44.471787" lon="8.9087175"><ele>58.0</ele><time>2026-04-18T05:26:48.999Z</time></trkpt><trkpt lat="44.4718457" lon="8.9087837"><ele>57.99999999999999</ele><time>2026-04-18T05:26:49.999Z</time></trkpt><trkpt lat="44.4719016" lon="8.9088591"><ele>58.0</ele><time>2026-04-18T05:26:50.999Z</time></trkpt><trkpt lat="44.4719735" lon="8.9089352"><ele>58.0</ele><time>2026-04-18T05:26:51.999Z</time></trkpt><trkpt lat="44.4720453" lon="8.9090236"><ele>58.0</ele><time>2026-04-18T05:26:52.999Z</time></trkpt><trkpt lat="44.4721283" lon="8.9090946"><ele>58.0</ele><time>2026-04-18T05:26:53.999Z</time></trkpt><trkpt lat="44.4722059" lon="8.9091657"><ele>58.0</ele><time>2026-04-18T05:26:54.999Z</time></trkpt><trkpt lat="44.4722889" lon="8.909237"><ele>58.0</ele><time>2026-04-18T05:26:55.999Z</time></trkpt><trkpt lat="44.4723982" lon="8.9093099"><ele>58.25</ele><time>2026-04-18T05:26:56.999Z</time></trkpt><trkpt lat="44.4725004" lon="8.9093875"><ele>58.5</ele><time>2026-04-18T05:26:57.999Z</time></trkpt><trkpt lat="44.4725986" lon="8.9094635"><ele>58.75</ele><time>2026-04-18T05:26:58.999Z</time></trkpt><trkpt lat="44.4727109" lon="8.9095201"><ele>59.0</ele><time>2026-04-18T05:26:59.999Z</time></trkpt><trkpt lat="44.4728154" lon="8.9095814"><ele>59.0</ele><time>2026-04-18T05:27:00.999Z</time></trkpt><trkpt lat="44.4729073" lon="8.9096537"><ele>59.00000000000001</ele><time>2026-04-18T05:27:01.999Z</time></trkpt><trkpt lat="44.4729973" lon="8.9097601"><ele>59.00000000000001</ele><time>2026-04-18T05:27:03Z</time></trkpt><trkpt lat="44.4730754" lon="8.9098669"><ele>59.0</ele><time>2026-04-18T05:27:03.999Z</time></trkpt><trkpt lat="44.4731395" lon="8.9099941"><ele>59.0</ele><time>2026-04-18T05:27:04.999Z</time></trkpt><trkpt lat="44.4732078" lon="8.9101321"><ele>59.0</ele><time>2026-04-18T05:27:05.999Z</time></trkpt><trkpt lat="44.4732582" lon="8.9102702"><ele>59.0</ele><time>2026-04-18T05:27:06.999Z</time></trkpt><trkpt lat="44.4733176" lon="8.9104228"><ele>59.0</ele><time>2026-04-18T05:27:07.999Z</time></trkpt><trkpt lat="44.4733631" lon="8.9105506"><ele>59.0</ele><time>2026-04-18T05:27:08.999Z</time></trkpt><trkpt lat="44.4734424" lon="8.9106717"><ele>59.0</ele><time>2026-04-18T05:27:09.999Z</time></trkpt><trkpt lat="44.4735309" lon="8.9107903"><ele>59.0</ele><time>2026-04-18T05:27:10.999Z</time></trkpt><trkpt lat="44.4736313" lon="8.9109113"><ele>59.0</ele><time>2026-04-18T05:27:11.999Z</time></trkpt><trkpt lat="44.4737557" lon="8.9110472"><ele>59.0</ele><time>2026-04-18T05:27:12.999Z</time></trkpt><trkpt lat="44.4738595" lon="8.9111604"><ele>59.0</ele><time>2026-04-18T05:27:13.999Z</time></trkpt><trkpt lat="44.4739621" lon="8.9112798"><ele>59.0</ele><time>2026-04-18T05:27:14.999Z</time></trkpt><trkpt lat="44.4740701" lon="8.9113897"><ele>59.0</ele><time>2026-04-18T05:27:15.999Z</time></trkpt><trkpt lat="44.4741814" lon="8.9115076"><ele>59.0</ele><time>2026-04-18T05:27:16.999Z</time></trkpt><trkpt lat="44.4742967" lon="8.9116405"><ele>59.25</ele><time>2026-04-18T05:27:17.999Z</time></trkpt><trkpt lat="44.4744051" lon="8.9117601"><ele>59.5</ele><time>2026-04-18T05:27:18.999Z</time></trkpt><trkpt lat="44.4745071" lon="8.911882"><ele>59.75</ele><time>2026-04-18T05:27:19.999Z</time></trkpt><trkpt lat="44.4746066" lon="8.9119935"><ele>60.0</ele><time>2026-04-18T05:27:20.999Z</time></trkpt><trkpt lat="44.4747005" lon="8.9120949"><ele>60.6</ele><time>2026-04-18T05:27:21.999Z</time></trkpt><trkpt lat="44.4747893" lon="8.9121887"><ele>61.2</ele><time>2026-04-18T05:27:22.999Z</time></trkpt><trkpt lat="44.4748634" lon="8.9122714"><ele>61.8</ele><time>2026-04-18T05:27:23.999Z</time></trkpt><trkpt lat="44.4749301" lon="8.9123397"><ele>62.4</ele><time>2026-04-18T05:27:24.999Z</time></trkpt><trkpt lat="44.4749857" lon="8.9124071"><ele>63.0</ele><time>2026-04-18T05:27:25.999Z</time></trkpt><trkpt lat="44.4750963" lon="8.9125224"><ele>62.599999999999994</ele><time>2026-04-18T05:27:27.999Z</time></trkpt><trkpt lat="44.4751635" lon="8.9126004"><ele>62.199999999999996</ele><time>2026-04-18T05:27:28.999Z</time></trkpt><trkpt lat="44.4752411" lon="8.9126775"><ele>61.8</ele><time>2026-04-18T05:27:29.999Z</time></trkpt><trkpt lat="44.4753161" lon="8.9127605"><ele>61.4</ele><time>2026-04-18T05:27:30.999Z</time></trkpt><trkpt lat="44.4753935" lon="8.9128463"><ele>61.0</ele><time>2026-04-18T05:27:31.999Z</time></trkpt><trkpt lat="44.4754736" lon="8.9129427"><ele>61.5</ele><time>2026-04-18T05:27:32.999Z</time></trkpt><trkpt lat="44.4755506" lon="8.9130317"><ele>62.0</ele><time>2026-04-18T05:27:33.999Z</time></trkpt><trkpt lat="44.475611" lon="8.9131321"><ele>62.5</ele><time>2026-04-18T05:27:34.999Z</time></trkpt><trkpt lat="44.4756781" lon="8.9133695"><ele>63.0</ele><time>2026-04-18T05:27:36.999Z</time></trkpt><trkpt lat="44.4757056" lon="8.9134932"><ele>63.0</ele><time>2026-04-18T05:27:37.999Z</time></trkpt><trkpt lat="44.4757361" lon="8.9136215"><ele>63.0</ele><time>2026-04-18T05:27:38.999Z</time></trkpt><trkpt lat="44.4757786" lon="8.9137321"><ele>63.0</ele><time>2026-04-18T05:27:39.999Z</time></trkpt><trkpt lat="44.4758411" lon="8.9138281"><ele>63.0</ele><time>2026-04-18T05:27:40.999Z</time></trkpt><trkpt lat="44.4759158" lon="8.9139063"><ele>63.0</ele><time>2026-04-18T05:27:41.999Z</time></trkpt><trkpt lat="44.4759936" lon="8.9139819"><ele>63.0</ele><time>2026-04-18T05:27:43Z</time></trkpt><trkpt lat="44.4760733" lon="8.9140735"><ele>63.0</ele><time>2026-04-18T05:27:43.999Z</time></trkpt><trkpt lat="44.476139" lon="8.9141924"><ele>63.0</ele><time>2026-04-18T05:27:44.999Z</time></trkpt><trkpt lat="44.4761938" lon="8.9143069"><ele>63.0</ele><time>2026-04-18T05:27:45.999Z</time></trkpt><trkpt lat="44.4762481" lon="8.9144606"><ele>63.0</ele><time>2026-04-18T05:27:46.999Z</time></trkpt><trkpt lat="44.4763102" lon="8.9146162"><ele>64.0</ele><time>2026-04-18T05:27:47.999Z</time></trkpt><trkpt lat="44.4763796" lon="8.9147728"><ele>65.0</ele><time>2026-04-18T05:27:48.999Z</time></trkpt><trkpt lat="44.4764345" lon="8.9149334"><ele>66.0</ele><time>2026-04-18T05:27:49.999Z</time></trkpt><trkpt lat="44.476501" lon="8.9150988"><ele>67.0</ele><time>2026-04-18T05:27:50.999Z</time></trkpt><trkpt lat="44.4765682" lon="8.9152719"><ele>67.0</ele><time>2026-04-18T05:27:51.999Z</time></trkpt><trkpt lat="44.4766344" lon="8.9154485"><ele>67.0</ele><time>2026-04-18T05:27:52.999Z</time></trkpt><trkpt lat="44.4767043" lon="8.9156173"><ele>67.0</ele><time>2026-04-18T05:27:53.999Z</time></trkpt><trkpt lat="44.4767743" lon="8.9157893"><ele>67.0</ele><time>2026-04-18T05:27:54.999Z</time></trkpt><trkpt lat="44.4768385" lon="8.9159418"><ele>66.75</ele><time>2026-04-18T05:27:55.999Z</time></trkpt><trkpt lat="44.4768972" lon="8.9161181"><ele>66.5</ele><time>2026-04-18T05:27:56.999Z</time></trkpt><trkpt lat="44.4769618" lon="8.9162813"><ele>66.25</ele><time>2026-04-18T05:27:57.999Z</time></trkpt><trkpt lat="44.4770499" lon="8.9164356"><ele>66.0</ele><time>2026-04-18T05:27:58.999Z</time></trkpt><trkpt lat="44.477133" lon="8.9165799"><ele>66.5</ele><time>2026-04-18T05:27:59.999Z</time></trkpt><trkpt lat="44.4772179" lon="8.9167137"><ele>67.0</ele><time>2026-04-18T05:28:00.999Z</time></trkpt><trkpt lat="44.477305" lon="8.9168388"><ele>67.5</ele><time>2026-04-18T05:28:01.999Z</time></trkpt><trkpt lat="44.4773989" lon="8.9169787"><ele>68.0</ele><time>2026-04-18T05:28:02.999Z</time></trkpt><trkpt lat="44.4774942" lon="8.9171016"><ele>68.0</ele><time>2026-04-18T05:28:03.999Z</time></trkpt><trkpt lat="44.4775973" lon="8.9172117"><ele>68.0</ele><time>2026-04-18T05:28:04.999Z</time></trkpt><trkpt lat="44.4777047" lon="8.9173298"><ele>68.0</ele><time>2026-04-18T05:28:05.999Z</time></trkpt><trkpt lat="44.4778156" lon="8.9174398"><ele>68.0</ele><time>2026-04-18T05:28:06.999Z</time></trkpt><trkpt lat="44.4779208" lon="8.9175373"><ele>67.5</ele><time>2026-04-18T05:28:07.999Z</time></trkpt><trkpt lat="44.478041" lon="8.9175892"><ele>67.0</ele><time>2026-04-18T05:28:08.999Z</time></trkpt><trkpt lat="44.4781735" lon="8.9176532"><ele>66.5</ele><time>2026-04-18T05:28:09.999Z</time></trkpt><trkpt lat="44.4782995" lon="8.9176955"><ele>66.0</ele><time>2026-04-18T05:28:10.999Z</time></trkpt><trkpt lat="44.4784378" lon="8.9177346"><ele>66.0</ele><time>2026-04-18T05:28:11.999Z</time></trkpt><trkpt lat="44.4785722" lon="8.9177785"><ele>66.0</ele><time>2026-04-18T05:28:12.999Z</time></trkpt><trkpt lat="44.4787104" lon="8.9178327"><ele>66.0</ele><time>2026-04-18T05:28:13.999Z</time></trkpt><trkpt lat="44.4788437" lon="8.9178981"><ele>66.0</ele><time>2026-04-18T05:28:14.999Z</time></trkpt><trkpt lat="44.478964" lon="8.9179878"><ele>67.25</ele><time>2026-04-18T05:28:15.999Z</time></trkpt><trkpt lat="44.4790815" lon="8.9180901"><ele>68.5</ele><time>2026-04-18T05:28:16.999Z</time></trkpt><trkpt lat="44.4792005" lon="8.9182062"><ele>69.75</ele><time>2026-04-18T05:28:17.999Z</time></trkpt><trkpt lat="44.4793186" lon="8.9183295"><ele>71.0</ele><time>2026-04-18T05:28:18.999Z</time></trkpt><trkpt lat="44.4794359" lon="8.9184552"><ele>71.0</ele><time>2026-04-18T05:28:19.999Z</time></trkpt><trkpt lat="44.4795465" lon="8.9185768"><ele>71.0</ele><time>2026-04-18T05:28:20.999Z</time></trkpt><trkpt lat="44.4796463" lon="8.9187139"><ele>71.0</ele><time>2026-04-18T05:28:21.999Z</time></trkpt><trkpt lat="44.4797523" lon="8.9188284"><ele>71.0</ele><time>2026-04-18T05:28:22.999Z</time></trkpt><trkpt lat="44.479844" lon="8.918916"><ele>71.75</ele><time>2026-04-18T05:28:23.999Z</time></trkpt><trkpt lat="44.479967" lon="8.9190081"><ele>72.5</ele><time>2026-04-18T05:28:25Z</time></trkpt><trkpt lat="44.4800725" lon="8.919058"><ele>73.25</ele><time>2026-04-18T05:28:25.999Z</time></trkpt><trkpt lat="44.4801757" lon="8.9190847"><ele>74.0</ele><time>2026-04-18T05:28:26.999Z</time></trkpt><trkpt lat="44.480278" lon="8.9190953"><ele>74.0</ele><time>2026-04-18T05:28:27.999Z</time></trkpt><trkpt lat="44.480387" lon="8.9191018"><ele>74.0</ele><time>2026-04-18T05:28:28.999Z</time></trkpt><trkpt lat="44.4805004" lon="8.9191381"><ele>74.0</ele><time>2026-04-18T05:28:29.999Z</time></trkpt><trkpt lat="44.4806112" lon="8.9192046"><ele>74.0</ele><time>2026-04-18T05:28:30.999Z</time></trkpt><trkpt lat="44.4807245" lon="8.9192821"><ele>74.25</ele><time>2026-04-18T05:28:31.999Z</time></trkpt><trkpt lat="44.4808222" lon="8.919353"><ele>74.5</ele><time>2026-04-18T05:28:32.999Z</time></trkpt><trkpt lat="44.4809288" lon="8.9194438"><ele>74.75</ele><time>2026-04-18T05:28:33.999Z</time></trkpt><trkpt lat="44.4810382" lon="8.9195346"><ele>75.0</ele><time>2026-04-18T05:28:34.999Z</time></trkpt><trkpt lat="44.4811471" lon="8.9196325"><ele>75.0</ele><time>2026-04-18T05:28:35.999Z</time></trkpt><trkpt lat="44.4812635" lon="8.9197286"><ele>75.0</ele><time>2026-04-18T05:28:36.999Z</time></trkpt><trkpt lat="44.4813876" lon="8.9198404"><ele>75.0</ele><time>2026-04-18T05:28:37.999Z</time></trkpt><trkpt lat="44.481517" lon="8.9199342"><ele>75.0</ele><time>2026-04-18T05:28:38.999Z</time></trkpt><trkpt lat="44.4816422" lon="8.9200241"><ele>75.5</ele><time>2026-04-18T05:28:39.999Z</time></trkpt><trkpt lat="44.4817664" lon="8.9201076"><ele>76.0</ele><time>2026-04-18T05:28:40.999Z</time></trkpt><trkpt lat="44.4818837" lon="8.9201891"><ele>76.5</ele><time>2026-04-18T05:28:41.999Z</time></trkpt><trkpt lat="44.4819962" lon="8.9202748"><ele>77.0</ele><time>2026-04-18T05:28:42.999Z</time></trkpt><trkpt lat="44.4821251" lon="8.9203536"><ele>77.0</ele><time>2026-04-18T05:28:43.999Z</time></trkpt><trkpt lat="44.4822523" lon="8.9204371"><ele>77.0</ele><time>2026-04-18T05:28:44.999Z</time></trkpt><trkpt lat="44.4823713" lon="8.9205223"><ele>77.0</ele><time>2026-04-18T05:28:45.999Z</time></trkpt><trkpt lat="44.48249" lon="8.9206163"><ele>77.0</ele><time>2026-04-18T05:28:46.999Z</time></trkpt><trkpt lat="44.4826056" lon="8.9207122"><ele>77.0</ele><time>2026-04-18T05:28:47.999Z</time></trkpt><trkpt lat="44.482739" lon="8.920807"><ele>77.0</ele><time>2026-04-18T05:28:48.999Z</time></trkpt><trkpt lat="44.4828679" lon="8.9209205"><ele>77.0</ele><time>2026-04-18T05:28:50.101Z</time></trkpt><trkpt lat="44.4831148" lon="8.9211195"><ele>76.75</ele><time>2026-04-18T05:28:51.999Z</time></trkpt><trkpt lat="44.4832484" lon="8.9211824"><ele>76.5</ele><time>2026-04-18T05:28:52.999Z</time></trkpt><trkpt lat="44.4833912" lon="8.9212152"><ele>76.25</ele><time>2026-04-18T05:28:53.999Z</time></trkpt><trkpt lat="44.4835165" lon="8.9212347"><ele>76.0</ele><time>2026-04-18T05:28:54.999Z</time></trkpt><trkpt lat="44.4836507" lon="8.9212341"><ele>76.25</ele><time>2026-04-18T05:28:55.999Z</time></trkpt><trkpt lat="44.4837836" lon="8.9212346"><ele>76.5</ele><time>2026-04-18T05:28:56.999Z</time></trkpt><trkpt lat="44.4839471" lon="8.9212436"><ele>76.75</ele><time>2026-04-18T05:28:57.999Z</time></trkpt><trkpt lat="44.4840859" lon="8.9212486"><ele>77.0</ele><time>2026-04-18T05:28:58.999Z</time></trkpt><trkpt lat="44.4842264" lon="8.9212563"><ele>77.0</ele><time>2026-04-18T05:28:59.999Z</time></trkpt><trkpt lat="44.4843671" lon="8.9212668"><ele>77.0</ele><time>2026-04-18T05:29:00.999Z</time></trkpt><trkpt lat="44.4845064" lon="8.9212702"><ele>77.0</ele><time>2026-04-18T05:29:01.999Z</time></trkpt><trkpt lat="44.484643" lon="8.921277"><ele>77.0</ele><time>2026-04-18T05:29:02.999Z</time></trkpt><trkpt lat="44.4847841" lon="8.9212845"><ele>77.0</ele><time>2026-04-18T05:29:03.999Z</time></trkpt><trkpt lat="44.4849239" lon="8.9212923"><ele>77.0</ele><time>2026-04-18T05:29:04.999Z</time></trkpt><trkpt lat="44.4850621" lon="8.9212975"><ele>77.0</ele><time>2026-04-18T05:29:05.999Z</time></trkpt><trkpt lat="44.4852016" lon="8.9213"><ele>77.0</ele><time>2026-04-18T05:29:06.999Z</time></trkpt><trkpt lat="44.4853287" lon="8.921307"><ele>77.75</ele><time>2026-04-18T05:29:07.999Z</time></trkpt><trkpt lat="44.4854591" lon="8.9213172"><ele>78.5</ele><time>2026-04-18T05:29:08.999Z</time></trkpt><trkpt lat="44.4855934" lon="8.9213251"><ele>79.25</ele><time>2026-04-18T05:29:09.999Z</time></trkpt><trkpt lat="44.4857271" lon="8.9213377"><ele>80.0</ele><time>2026-04-18T05:29:10.999Z</time></trkpt><trkpt lat="44.4858607" lon="8.9213487"><ele>80.0</ele><time>2026-04-18T05:29:11.999Z</time></trkpt><trkpt lat="44.4859953" lon="8.9213573"><ele>80.0</ele><time>2026-04-18T05:29:12.999Z</time></trkpt><trkpt lat="44.486131" lon="8.9213756"><ele>80.0</ele><time>2026-04-18T05:29:13.999Z</time></trkpt><trkpt lat="44.4862635" lon="8.921392"><ele>80.0</ele><time>2026-04-18T05:29:14.999Z</time></trkpt><trkpt lat="44.4863949" lon="8.921405"><ele>80.25</ele><time>2026-04-18T05:29:15.999Z</time></trkpt><trkpt lat="44.4865325" lon="8.9214127"><ele>80.5</ele><time>2026-04-18T05:29:16.999Z</time></trkpt><trkpt lat="44.486662" lon="8.9214284"><ele>80.75</ele><time>2026-04-18T05:29:17.999Z</time></trkpt><trkpt lat="44.4867978" lon="8.9214406"><ele>81.0</ele><time>2026-04-18T05:29:18.999Z</time></trkpt><trkpt lat="44.486934" lon="8.921449"><ele>81.0</ele><time>2026-04-18T05:29:19.999Z</time></trkpt><trkpt lat="44.4870702" lon="8.9214581"><ele>81.0</ele><time>2026-04-18T05:29:20.999Z</time></trkpt><trkpt lat="44.4872065" lon="8.9214705"><ele>81.0</ele><time>2026-04-18T05:29:21.999Z</time></trkpt><trkpt lat="44.4873398" lon="8.9214753"><ele>81.0</ele><time>2026-04-18T05:29:22.999Z</time></trkpt><trkpt lat="44.4874815" lon="8.9214794"><ele>81.33333333333333</ele><time>2026-04-18T05:29:23.999Z</time></trkpt><trkpt lat="44.4876104" lon="8.9214871"><ele>81.66666666666666</ele><time>2026-04-18T05:29:25.102Z</time></trkpt><trkpt lat="44.4878718" lon="8.9215097"><ele>82.0</ele><time>2026-04-18T05:29:26.999Z</time></trkpt><trkpt lat="44.4879878" lon="8.9215183"><ele>83.0</ele><time>2026-04-18T05:29:27.999Z</time></trkpt><trkpt lat="44.4881165" lon="8.9215383"><ele>84.0</ele><time>2026-04-18T05:29:28.999Z</time></trkpt><trkpt lat="44.4882426" lon="8.9215561"><ele>85.0</ele><time>2026-04-18T05:29:29.999Z</time></trkpt><trkpt lat="44.4883886" lon="8.9215708"><ele>86.0</ele><time>2026-04-18T05:29:30.999Z</time></trkpt><trkpt lat="44.4885266" lon="8.9215868"><ele>86.0</ele><time>2026-04-18T05:29:31.999Z</time></trkpt><trkpt lat="44.4886628" lon="8.9215994"><ele>86.0</ele><time>2026-04-18T05:29:32.999Z</time></trkpt><trkpt lat="44.4888082" lon="8.9216146"><ele>86.0</ele><time>2026-04-18T05:29:33.999Z</time></trkpt><trkpt lat="44.4889362" lon="8.9216285"><ele>86.0</ele><time>2026-04-18T05:29:34.999Z</time></trkpt><trkpt lat="44.4890653" lon="8.9216382"><ele>85.5</ele><time>2026-04-18T05:29:35.999Z</time></trkpt><trkpt lat="44.4891952" lon="8.92165"><ele>85.0</ele><time>2026-04-18T05:29:36.999Z</time></trkpt><trkpt lat="44.4893183" lon="8.9216634"><ele>84.5</ele><time>2026-04-18T05:29:37.999Z</time></trkpt><trkpt lat="44.4894498" lon="8.9216779"><ele>84.0</ele><time>2026-04-18T05:29:39.104Z</time></trkpt><trkpt lat="44.4897155" lon="8.9217083"><ele>84.5</ele><time>2026-04-18T05:29:40.999Z</time></trkpt><trkpt lat="44.4898441" lon="8.9217361"><ele>85.0</ele><time>2026-04-18T05:29:41.999Z</time></trkpt><trkpt lat="44.4899701" lon="8.9217655"><ele>85.5</ele><time>2026-04-18T05:29:42.999Z</time></trkpt><trkpt lat="44.4900994" lon="8.9217993"><ele>86.0</ele><time>2026-04-18T05:29:43.999Z</time></trkpt><trkpt lat="44.4902259" lon="8.9218366"><ele>86.0</ele><time>2026-04-18T05:29:44.999Z</time></trkpt><trkpt lat="44.4903639" lon="8.9218699"><ele>86.0</ele><time>2026-04-18T05:29:45.999Z</time></trkpt><trkpt lat="44.4904907" lon="8.9219113"><ele>86.0</ele><time>2026-04-18T05:29:46.999Z</time></trkpt><trkpt lat="44.4906161" lon="8.9219487"><ele>86.0</ele><time>2026-04-18T05:29:47.999Z</time></trkpt><trkpt lat="44.4907388" lon="8.9219936"><ele>87.25</ele><time>2026-04-18T05:29:48.999Z</time></trkpt><trkpt lat="44.4908653" lon="8.9220339"><ele>88.5</ele><time>2026-04-18T05:29:49.999Z</time></trkpt><trkpt lat="44.4909829" lon="8.922084"><ele>89.75</ele><time>2026-04-18T05:29:50.999Z</time></trkpt><trkpt lat="44.4911019" lon="8.9221203"><ele>91.0</ele><time>2026-04-18T05:29:51.999Z</time></trkpt><trkpt lat="44.4912208" lon="8.9221481"><ele>90.6</ele><time>2026-04-18T05:29:52.999Z</time></trkpt><trkpt lat="44.4913251" lon="8.9221757"><ele>90.19999999999999</ele><time>2026-04-18T05:29:53.999Z</time></trkpt><trkpt lat="44.4914371" lon="8.9221943"><ele>89.80000000000001</ele><time>2026-04-18T05:29:54.999Z</time></trkpt><trkpt lat="44.4915508" lon="8.92219"><ele>89.4</ele><time>2026-04-18T05:29:55.999Z</time></trkpt><trkpt lat="44.4916586" lon="8.9221532"><ele>89.0</ele><time>2026-04-18T05:29:56.999Z</time></trkpt><trkpt lat="44.4917639" lon="8.9220978"><ele>89.0</ele><time>2026-04-18T05:29:57.999Z</time></trkpt><trkpt lat="44.4918726" lon="8.9220195"><ele>89.0</ele><time>2026-04-18T05:29:58.999Z</time></trkpt><trkpt lat="44.4919476" lon="8.9219159"><ele>89.0</ele><time>2026-04-18T05:29:59.999Z</time></trkpt><trkpt lat="44.4920187" lon="8.9218021"><ele>89.0</ele><time>2026-04-18T05:30:00.999Z</time></trkpt><trkpt lat="44.4920701" lon="8.9216567"><ele>90.25</ele><time>2026-04-18T05:30:01.999Z</time></trkpt><trkpt lat="44.4921204" lon="8.921513"><ele>91.5</ele><time>2026-04-18T05:30:02.999Z</time></trkpt><trkpt lat="44.4921738" lon="8.9213706"><ele>92.75</ele><time>2026-04-18T05:30:03.999Z</time></trkpt><trkpt lat="44.492239" lon="8.9212331"><ele>94.0</ele><time>2026-04-18T05:30:04.999Z</time></trkpt><trkpt lat="44.492321" lon="8.921103"><ele>94.0</ele><time>2026-04-18T05:30:05.999Z</time></trkpt><trkpt lat="44.4924201" lon="8.9209901"><ele>94.0</ele><time>2026-04-18T05:30:06.999Z</time></trkpt><trkpt lat="44.4925273" lon="8.9208942"><ele>94.0</ele><time>2026-04-18T05:30:07.999Z</time></trkpt><trkpt lat="44.4926386" lon="8.9208204"><ele>94.0</ele><time>2026-04-18T05:30:08.999Z</time></trkpt><trkpt lat="44.4927789" lon="8.9207553"><ele>94.75</ele><time>2026-04-18T05:30:09.999Z</time></trkpt><trkpt lat="44.4929091" lon="8.9206983"><ele>95.5</ele><time>2026-04-18T05:30:10.999Z</time></trkpt><trkpt lat="44.4930341" lon="8.9206335"><ele>96.25</ele><time>2026-04-18T05:30:11.999Z</time></trkpt><trkpt lat="44.4931547" lon="8.9205634"><ele>97.0</ele><time>2026-04-18T05:30:12.999Z</time></trkpt><trkpt lat="44.4932824" lon="8.9205035"><ele>97.0</ele><time>2026-04-18T05:30:13.999Z</time></trkpt><trkpt lat="44.4934223" lon="8.9204623"><ele>97.0</ele><time>2026-04-18T05:30:14.999Z</time></trkpt><trkpt lat="44.493554" lon="8.9204357"><ele>97.0</ele><time>2026-04-18T05:30:15.999Z</time></trkpt><trkpt lat="44.4936919" lon="8.9204106"><ele>97.0</ele><time>2026-04-18T05:30:16.999Z</time></trkpt><trkpt lat="44.4938186" lon="8.9203959"><ele>95.5</ele><time>2026-04-18T05:30:17.999Z</time></trkpt><trkpt lat="44.4939576" lon="8.9203759"><ele>94.0</ele><time>2026-04-18T05:30:18.999Z</time></trkpt><trkpt lat="44.494102" lon="8.9203618"><ele>92.5</ele><time>2026-04-18T05:30:19.999Z</time></trkpt><trkpt lat="44.4942287" lon="8.9203597"><ele>91.0</ele><time>2026-04-18T05:30:20.999Z</time></trkpt><trkpt lat="44.4943534" lon="8.9203676"><ele>91.0</ele><time>2026-04-18T05:30:21.999Z</time></trkpt><trkpt lat="44.4944791" lon="8.9203751"><ele>91.0</ele><time>2026-04-18T05:30:22.999Z</time></trkpt><trkpt lat="44.4946052" lon="8.9203734"><ele>91.0</ele><time>2026-04-18T05:30:24Z</time></trkpt><trkpt lat="44.4947373" lon="8.9203752"><ele>91.0</ele><time>2026-04-18T05:30:24.999Z</time></trkpt><trkpt lat="44.4948571" lon="8.9203812"><ele>92.25</ele><time>2026-04-18T05:30:25.999Z</time></trkpt><trkpt lat="44.4949854" lon="8.9203937"><ele>93.5</ele><time>2026-04-18T05:30:26.999Z</time></trkpt><trkpt lat="44.4951255" lon="8.9204061"><ele>94.75</ele><time>2026-04-18T05:30:27.999Z</time></trkpt><trkpt lat="44.4952646" lon="8.9204259"><ele>96.0</ele><time>2026-04-18T05:30:28.999Z</time></trkpt><trkpt lat="44.4953849" lon="8.9204484"><ele>96.0</ele><time>2026-04-18T05:30:29.999Z</time></trkpt><trkpt lat="44.495503" lon="8.920476"><ele>96.0</ele><time>2026-04-18T05:30:30.999Z</time></trkpt><trkpt lat="44.495621" lon="8.9205071"><ele>96.0</ele><time>2026-04-18T05:30:31.999Z</time></trkpt><trkpt lat="44.4957203" lon="8.9205445"><ele>96.0</ele><time>2026-04-18T05:30:32.999Z</time></trkpt><trkpt lat="44.4958202" lon="8.9205939"><ele>96.0</ele><time>2026-04-18T05:30:33.999Z</time></trkpt><trkpt lat="44.4959096" lon="8.9206489"><ele>96.0</ele><time>2026-04-18T05:30:34.999Z</time></trkpt><trkpt lat="44.4960098" lon="8.9207058"><ele>96.0</ele><time>2026-04-18T05:30:35.999Z</time></trkpt><trkpt lat="44.4961047" lon="8.9207728"><ele>96.0</ele><time>2026-04-18T05:30:36.999Z</time></trkpt><trkpt lat="44.4962247" lon="8.9208528"><ele>96.0</ele><time>2026-04-18T05:30:37.999Z</time></trkpt><trkpt lat="44.4963188" lon="8.9209256"><ele>96.6</ele><time>2026-04-18T05:30:38.999Z</time></trkpt><trkpt lat="44.4964172" lon="8.9209998"><ele>97.19999999999999</ele><time>2026-04-18T05:30:39.999Z</time></trkpt><trkpt lat="44.4965102" lon="8.9210746"><ele>97.80000000000001</ele><time>2026-04-18T05:30:40.999Z</time></trkpt><trkpt lat="44.4966061" lon="8.92116"><ele>98.4</ele><time>2026-04-18T05:30:41.999Z</time></trkpt><trkpt lat="44.4967011" lon="8.9212379"><ele>99.0</ele><time>2026-04-18T05:30:42.999Z</time></trkpt><trkpt lat="44.496797" lon="8.921308"><ele>99.0</ele><time>2026-04-18T05:30:43.999Z</time></trkpt><trkpt lat="44.4968875" lon="8.9213874"><ele>99.0</ele><time>2026-04-18T05:30:44.999Z</time></trkpt><trkpt lat="44.4969808" lon="8.9214655"><ele>99.0</ele><time>2026-04-18T05:30:45.999Z</time></trkpt><trkpt lat="44.4970778" lon="8.9215437"><ele>99.0</ele><time>2026-04-18T05:30:46.999Z</time></trkpt><trkpt lat="44.4971762" lon="8.9216254"><ele>99.0</ele><time>2026-04-18T05:30:47.999Z</time></trkpt><trkpt lat="44.497269" lon="8.92171"><ele>99.0</ele><time>2026-04-18T05:30:48.999Z</time></trkpt><trkpt lat="44.4973641" lon="8.9217992"><ele>99.0</ele><time>2026-04-18T05:30:49.999Z</time></trkpt><trkpt lat="44.4974578" lon="8.9218838"><ele>99.0</ele><time>2026-04-18T05:30:50.999Z</time></trkpt><trkpt lat="44.497551" lon="8.9219704"><ele>99.0</ele><time>2026-04-18T05:30:51.999Z</time></trkpt><trkpt lat="44.4976418" lon="8.9220541"><ele>99.0</ele><time>2026-04-18T05:30:52.999Z</time></trkpt><trkpt lat="44.4977366" lon="8.9221419"><ele>99.0</ele><time>2026-04-18T05:30:53.999Z</time></trkpt><trkpt lat="44.4978419" lon="8.922221"><ele>99.0</ele><time>2026-04-18T05:30:54.999Z</time></trkpt><trkpt lat="44.4979374" lon="8.9223072"><ele>99.0</ele><time>2026-04-18T05:30:55.999Z</time></trkpt><trkpt lat="44.4980372" lon="8.9224049"><ele>99.0</ele><time>2026-04-18T05:30:56.999Z</time></trkpt><trkpt lat="44.4981419" lon="8.9224879"><ele>99.25</ele><time>2026-04-18T05:30:57.999Z</time></trkpt><trkpt lat="44.4982431" lon="8.9225774"><ele>99.5</ele><time>2026-04-18T05:30:58.999Z</time></trkpt><trkpt lat="44.4983443" lon="8.9226658"><ele>99.75</ele><time>2026-04-18T05:30:59.999Z</time></trkpt><trkpt lat="44.4984419" lon="8.9227541"><ele>100.0</ele><time>2026-04-18T05:31:01.102Z</time></trkpt><trkpt lat="44.4986396" lon="8.9229452"><ele>100.0</ele><time>2026-04-18T05:31:02.999Z</time></trkpt><trkpt lat="44.49874" lon="8.923035"><ele>100.0</ele><time>2026-04-18T05:31:03.999Z</time></trkpt><trkpt lat="44.4988314" lon="8.9231252"><ele>100.0</ele><time>2026-04-18T05:31:05Z</time></trkpt><trkpt lat="44.4989218" lon="8.9232309"><ele>100.0</ele><time>2026-04-18T05:31:05.999Z</time></trkpt><trkpt lat="44.4990211" lon="8.9233352"><ele>101.25</ele><time>2026-04-18T05:31:06.999Z</time></trkpt><trkpt lat="44.4991206" lon="8.9234416"><ele>102.5</ele><time>2026-04-18T05:31:07.999Z</time></trkpt><trkpt lat="44.4992212" lon="8.9235402"><ele>103.75</ele><time>2026-04-18T05:31:08.999Z</time></trkpt><trkpt lat="44.4993313" lon="8.9236484"><ele>105.0</ele><time>2026-04-18T05:31:09.999Z</time></trkpt><trkpt lat="44.4994304" lon="8.9237541"><ele>105.0</ele><time>2026-04-18T05:31:11Z</time></trkpt><trkpt lat="44.4995302" lon="8.9238584"><ele>105.0</ele><time>2026-04-18T05:31:11.999Z</time></trkpt><trkpt lat="44.4996327" lon="8.9239705"><ele>105.0</ele><time>2026-04-18T05:31:12.999Z</time></trkpt><trkpt lat="44.4997412" lon="8.9240813"><ele>105.0</ele><time>2026-04-18T05:31:13.999Z</time></trkpt><trkpt lat="44.4998503" lon="8.9241858"><ele>105.5</ele><time>2026-04-18T05:31:14.999Z</time></trkpt><trkpt lat="44.4999621" lon="8.9243004"><ele>106.0</ele><time>2026-04-18T05:31:15.999Z</time></trkpt><trkpt lat="44.5000747" lon="8.9244066"><ele>106.5</ele><time>2026-04-18T05:31:16.999Z</time></trkpt><trkpt lat="44.5001909" lon="8.9245211"><ele>107.0</ele><time>2026-04-18T05:31:17.999Z</time></trkpt><trkpt lat="44.5003047" lon="8.9246307"><ele>107.0</ele><time>2026-04-18T05:31:18.999Z</time></trkpt><trkpt lat="44.500424" lon="8.9247575"><ele>107.0</ele><time>2026-04-18T05:31:19.999Z</time></trkpt><trkpt lat="44.5005403" lon="8.9248844"><ele>107.0</ele><time>2026-04-18T05:31:20.999Z</time></trkpt><trkpt lat="44.5006535" lon="8.9249992"><ele>107.0</ele><time>2026-04-18T05:31:22Z</time></trkpt><trkpt lat="44.5007553" lon="8.9250843"><ele>107.0</ele><time>2026-04-18T05:31:22.999Z</time></trkpt><trkpt lat="44.5008653" lon="8.9251905"><ele>107.0</ele><time>2026-04-18T05:31:23.999Z</time></trkpt><trkpt lat="44.5009866" lon="8.9253197"><ele>107.0</ele><time>2026-04-18T05:31:24.999Z</time></trkpt><trkpt lat="44.5011037" lon="8.9254349"><ele>107.0</ele><time>2026-04-18T05:31:25.999Z</time></trkpt><trkpt lat="44.5012242" lon="8.9255572"><ele>108.0</ele><time>2026-04-18T05:31:26.999Z</time></trkpt><trkpt lat="44.5013437" lon="8.9256792"><ele>109.0</ele><time>2026-04-18T05:31:27.999Z</time></trkpt><trkpt lat="44.5014614" lon="8.9258013"><ele>110.0</ele><time>2026-04-18T05:31:28.999Z</time></trkpt><trkpt lat="44.5015831" lon="8.9259112"><ele>111.0</ele><time>2026-04-18T05:31:29.999Z</time></trkpt><trkpt lat="44.5016988" lon="8.9260246"><ele>111.0</ele><time>2026-04-18T05:31:30.999Z</time></trkpt><trkpt lat="44.5018186" lon="8.9261318"><ele>111.0</ele><time>2026-04-18T05:31:31.999Z</time></trkpt><trkpt lat="44.5019362" lon="8.9262381"><ele>111.0</ele><time>2026-04-18T05:31:32.999Z</time></trkpt><trkpt lat="44.5020592" lon="8.9263518"><ele>111.0</ele><time>2026-04-18T05:31:33.999Z</time></trkpt><trkpt lat="44.5021778" lon="8.9264644"><ele>111.33333333333334</ele><time>2026-04-18T05:31:34.999Z</time></trkpt><trkpt lat="44.502412" lon="8.9266609"><ele>111.66666666666667</ele><time>2026-04-18T05:31:36.999Z</time></trkpt><trkpt lat="44.5025171" lon="8.9267604"><ele>112.0</ele><time>2026-04-18T05:31:37.999Z</time></trkpt><trkpt lat="44.502621" lon="8.9268631"><ele>112.0</ele><time>2026-04-18T05:31:38.999Z</time></trkpt><trkpt lat="44.5027117" lon="8.9269487"><ele>112.0</ele><time>2026-04-18T05:31:40.1Z</time></trkpt><trkpt lat="44.5028688" lon="8.9270963"><ele>112.0</ele><time>2026-04-18T05:31:41.999Z</time></trkpt><trkpt lat="44.5029379" lon="8.927156"><ele>112.0</ele><time>2026-04-18T05:31:42.999Z</time></trkpt><trkpt lat="44.5030019" lon="8.9272138"><ele>112.50000000000001</ele><time>2026-04-18T05:31:43.999Z</time></trkpt><trkpt lat="44.5030898" lon="8.9272942"><ele>113.0</ele><time>2026-04-18T05:31:45.999Z</time></trkpt><trkpt lat="44.5031707" lon="8.9273747"><ele>113.5</ele><time>2026-04-18T05:31:47.999Z</time></trkpt><trkpt lat="44.503227" lon="8.9274175"><ele>114.0</ele><time>2026-04-18T05:31:48.999Z</time></trkpt><trkpt lat="44.5032923" lon="8.9274725"><ele>114.50000000000001</ele><time>2026-04-18T05:31:49.999Z</time></trkpt><trkpt lat="44.5033596" lon="8.9275418"><ele>115.0</ele><time>2026-04-18T05:31:50.999Z</time></trkpt><trkpt lat="44.5034333" lon="8.9276107"><ele>115.4</ele><time>2026-04-18T05:31:51.999Z</time></trkpt><trkpt lat="44.503519" lon="8.9276824"><ele>115.8</ele><time>2026-04-18T05:31:52.999Z</time></trkpt><trkpt lat="44.5036055" lon="8.927769"><ele>116.19999999999999</ele><time>2026-04-18T05:31:53.999Z</time></trkpt><trkpt lat="44.5036997" lon="8.9278553"><ele>116.6</ele><time>2026-04-18T05:31:54.999Z</time></trkpt><trkpt lat="44.5037935" lon="8.9279476"><ele>117.0</ele><time>2026-04-18T05:31:55.999Z</time></trkpt><trkpt lat="44.5038932" lon="8.9280492"><ele>117.0</ele><time>2026-04-18T05:31:56.999Z</time></trkpt><trkpt lat="44.5039939" lon="8.9281575"><ele>117.0</ele><time>2026-04-18T05:31:57.999Z</time></trkpt><trkpt lat="44.5040934" lon="8.9282709"><ele>117.0</ele><time>2026-04-18T05:31:58.999Z</time></trkpt><trkpt lat="44.5041894" lon="8.9283967"><ele>117.0</ele><time>2026-04-18T05:31:59.999Z</time></trkpt><trkpt lat="44.5042884" lon="8.9285316"><ele>117.5</ele><time>2026-04-18T05:32:00.999Z</time></trkpt><trkpt lat="44.5043848" lon="8.9286707"><ele>118.0</ele><time>2026-04-18T05:32:01.999Z</time></trkpt><trkpt lat="44.5044814" lon="8.9288137"><ele>118.5</ele><time>2026-04-18T05:32:02.999Z</time></trkpt><trkpt lat="44.5045752" lon="8.9289546"><ele>119.0</ele><time>2026-04-18T05:32:03.999Z</time></trkpt><trkpt lat="44.5046719" lon="8.9291017"><ele>119.5</ele><time>2026-04-18T05:32:04.999Z</time></trkpt><trkpt lat="44.5047715" lon="8.9292504"><ele>120.0</ele><time>2026-04-18T05:32:05.999Z</time></trkpt><trkpt lat="44.5048652" lon="8.9293917"><ele>120.5</ele><time>2026-04-18T05:32:06.999Z</time></trkpt><trkpt lat="44.5049573" lon="8.9295227"><ele>121.0</ele><time>2026-04-18T05:32:07.999Z</time></trkpt><trkpt lat="44.5050542" lon="8.9296597"><ele>121.0</ele><time>2026-04-18T05:32:08.999Z</time></trkpt><trkpt lat="44.5051517" lon="8.9298122"><ele>121.0</ele><time>2026-04-18T05:32:09.999Z</time></trkpt><trkpt lat="44.5052495" lon="8.9299672"><ele>121.0</ele><time>2026-04-18T05:32:10.999Z</time></trkpt><trkpt lat="44.5053453" lon="8.9301155"><ele>121.0</ele><time>2026-04-18T05:32:11.999Z</time></trkpt><trkpt lat="44.5054386" lon="8.9302594"><ele>121.75</ele><time>2026-04-18T05:32:12.999Z</time></trkpt><trkpt lat="44.5055323" lon="8.9304111"><ele>122.5</ele><time>2026-04-18T05:32:13.999Z</time></trkpt><trkpt lat="44.5056265" lon="8.9305587"><ele>123.25</ele><time>2026-04-18T05:32:14.999Z</time></trkpt><trkpt lat="44.5057156" lon="8.9307034"><ele>124.0</ele><time>2026-04-18T05:32:15.999Z</time></trkpt><trkpt lat="44.5058063" lon="8.9308568"><ele>124.0</ele><time>2026-04-18T05:32:16.998Z</time></trkpt><trkpt lat="44.5058953" lon="8.9310172"><ele>124.0</ele><time>2026-04-18T05:32:17.999Z</time></trkpt><trkpt lat="44.5059767" lon="8.9311696"><ele>124.0</ele><time>2026-04-18T05:32:18.999Z</time></trkpt><trkpt lat="44.5060612" lon="8.9313249"><ele>124.0</ele><time>2026-04-18T05:32:19.999Z</time></trkpt><trkpt lat="44.5061454" lon="8.9314754"><ele>124.0</ele><time>2026-04-18T05:32:20.999Z</time></trkpt><trkpt lat="44.5062228" lon="8.9316158"><ele>124.0</ele><time>2026-04-18T05:32:21.999Z</time></trkpt><trkpt lat="44.5062978" lon="8.9317568"><ele>124.0</ele><time>2026-04-18T05:32:22.999Z</time></trkpt><trkpt lat="44.5063735" lon="8.9319017"><ele>124.0</ele><time>2026-04-18T05:32:23.999Z</time></trkpt><trkpt lat="44.5064476" lon="8.93204"><ele>123.80000000000001</ele><time>2026-04-18T05:32:24.999Z</time></trkpt><trkpt lat="44.5065139" lon="8.9321701"><ele>123.60000000000001</ele><time>2026-04-18T05:32:25.999Z</time></trkpt><trkpt lat="44.5065814" lon="8.9322733"><ele>123.4</ele><time>2026-04-18T05:32:26.999Z</time></trkpt><trkpt lat="44.5066529" lon="8.9324042"><ele>123.2</ele><time>2026-04-18T05:32:27.999Z</time></trkpt><trkpt lat="44.5067189" lon="8.932534"><ele>123.0</ele><time>2026-04-18T05:32:28.999Z</time></trkpt><trkpt lat="44.5067893" lon="8.9326644"><ele>123.0</ele><time>2026-04-18T05:32:29.999Z</time></trkpt><trkpt lat="44.5068584" lon="8.9327945"><ele>123.0</ele><time>2026-04-18T05:32:30.999Z</time></trkpt><trkpt lat="44.5069357" lon="8.9329487"><ele>123.0</ele><time>2026-04-18T05:32:31.999Z</time></trkpt><trkpt lat="44.5070022" lon="8.9330871"><ele>123.0</ele><time>2026-04-18T05:32:32.999Z</time></trkpt><trkpt lat="44.5070663" lon="8.9332304"><ele>124.5</ele><time>2026-04-18T05:32:33.999Z</time></trkpt><trkpt lat="44.5071275" lon="8.9333788"><ele>126.0</ele><time>2026-04-18T05:32:34.999Z</time></trkpt><trkpt lat="44.5071837" lon="8.9335237"><ele>127.5</ele><time>2026-04-18T05:32:35.999Z</time></trkpt><trkpt lat="44.5072359" lon="8.9336693"><ele>129.0</ele><time>2026-04-18T05:32:36.999Z</time></trkpt><trkpt lat="44.5072885" lon="8.9338197"><ele>129.25</ele><time>2026-04-18T05:32:38Z</time></trkpt><trkpt lat="44.5073369" lon="8.9339691"><ele>129.5</ele><time>2026-04-18T05:32:38.999Z</time></trkpt><trkpt lat="44.5073764" lon="8.9341134"><ele>129.75</ele><time>2026-04-18T05:32:39.999Z</time></trkpt><trkpt lat="44.5074209" lon="8.9342668"><ele>130.0</ele><time>2026-04-18T05:32:40.999Z</time></trkpt><trkpt lat="44.5074614" lon="8.9344219"><ele>130.5</ele><time>2026-04-18T05:32:41.999Z</time></trkpt><trkpt lat="44.5075045" lon="8.934578"><ele>131.0</ele><time>2026-04-18T05:32:42.999Z</time></trkpt><trkpt lat="44.5075457" lon="8.9347362"><ele>131.5</ele><time>2026-04-18T05:32:43.999Z</time></trkpt><trkpt lat="44.5075823" lon="8.934889"><ele>132.0</ele><time>2026-04-18T05:32:44.999Z</time></trkpt><trkpt lat="44.5076144" lon="8.935041"><ele>131.5</ele><time>2026-04-18T05:32:46Z</time></trkpt><trkpt lat="44.5076305" lon="8.9351637"><ele>131.0</ele><time>2026-04-18T05:32:46.999Z</time></trkpt><trkpt lat="44.5076498" lon="8.9352807"><ele>130.5</ele><time>2026-04-18T05:32:47.999Z</time></trkpt><trkpt lat="44.5076638" lon="8.9354087"><ele>130.0</ele><time>2026-04-18T05:32:48.999Z</time></trkpt><trkpt lat="44.5076765" lon="8.9355311"><ele>129.5</ele><time>2026-04-18T05:32:49.999Z</time></trkpt><trkpt lat="44.5076952" lon="8.9356481"><ele>129.0</ele><time>2026-04-18T05:32:50.999Z</time></trkpt><trkpt lat="44.5076857" lon="8.9357445"><ele>129.0</ele><time>2026-04-18T05:32:51.999Z</time></trkpt><trkpt lat="44.5077025" lon="8.9358767"><ele>129.0</ele><time>2026-04-18T05:32:52.999Z</time></trkpt><trkpt lat="44.5077103" lon="8.936"><ele>129.0</ele><time>2026-04-18T05:32:53.999Z</time></trkpt><trkpt lat="44.5077243" lon="8.9361191"><ele>129.0</ele><time>2026-04-18T05:32:54.999Z</time></trkpt><trkpt lat="44.5077477" lon="8.9362392"><ele>129.0</ele><time>2026-04-18T05:32:55.999Z</time></trkpt><trkpt lat="44.5077585" lon="8.9363552"><ele>129.0</ele><time>2026-04-18T05:32:56.999Z</time></trkpt><trkpt lat="44.5077969" lon="8.9364504"><ele>129.66666666666666</ele><time>2026-04-18T05:32:57.999Z</time></trkpt><trkpt lat="44.5078534" lon="8.9365625"><ele>130.33333333333334</ele><time>2026-04-18T05:32:58.999Z</time></trkpt><trkpt lat="44.507899" lon="8.936669"><ele>131.0</ele><time>2026-04-18T05:32:59.999Z</time></trkpt><trkpt lat="44.50793" lon="8.9367878"><ele>131.66666666666669</ele><time>2026-04-18T05:33:00.999Z</time></trkpt><trkpt lat="44.5079605" lon="8.9368948"><ele>132.33333333333334</ele><time>2026-04-18T05:33:01.999Z</time></trkpt><trkpt lat="44.5079934" lon="8.9370027"><ele>133.0</ele><time>2026-04-18T05:33:02.999Z</time></trkpt><trkpt lat="44.5080413" lon="8.937115"><ele>133.20000000000002</ele><time>2026-04-18T05:33:03.999Z</time></trkpt><trkpt lat="44.508111" lon="8.9372073"><ele>133.4</ele><time>2026-04-18T05:33:04.999Z</time></trkpt><trkpt lat="44.5082064" lon="8.9372859"><ele>133.60000000000002</ele><time>2026-04-18T05:33:05.999Z</time></trkpt><trkpt lat="44.5083071" lon="8.9373204"><ele>133.8</ele><time>2026-04-18T05:33:06.999Z</time></trkpt><trkpt lat="44.5084111" lon="8.9373457"><ele>134.0</ele><time>2026-04-18T05:33:07.999Z</time></trkpt><trkpt lat="44.5085208" lon="8.9373608"><ele>134.0</ele><time>2026-04-18T05:33:08.999Z</time></trkpt><trkpt lat="44.5086303" lon="8.9373794"><ele>134.0</ele><time>2026-04-18T05:33:09.999Z</time></trkpt><trkpt lat="44.5087461" lon="8.9373989"><ele>134.0</ele><time>2026-04-18T05:33:10.999Z</time></trkpt><trkpt lat="44.5088621" lon="8.9374245"><ele>134.0</ele><time>2026-04-18T05:33:11.999Z</time></trkpt><trkpt lat="44.5089721" lon="8.937452"><ele>134.8</ele><time>2026-04-18T05:33:12.999Z</time></trkpt><trkpt lat="44.5090837" lon="8.9374839"><ele>135.60000000000002</ele><time>2026-04-18T05:33:13.999Z</time></trkpt><trkpt lat="44.5091927" lon="8.9375289"><ele>136.4</ele><time>2026-04-18T05:33:14.999Z</time></trkpt><trkpt lat="44.5092963" lon="8.9375737"><ele>137.20000000000002</ele><time>2026-04-18T05:33:15.999Z</time></trkpt><trkpt lat="44.5093979" lon="8.9376253"><ele>138.0</ele><time>2026-04-18T05:33:16.999Z</time></trkpt><trkpt lat="44.5095001" lon="8.9376707"><ele>138.4</ele><time>2026-04-18T05:33:17.999Z</time></trkpt><trkpt lat="44.5096007" lon="8.9377203"><ele>138.8</ele><time>2026-04-18T05:33:18.999Z</time></trkpt><trkpt lat="44.5096956" lon="8.93777"><ele>139.2</ele><time>2026-04-18T05:33:19.999Z</time></trkpt><trkpt lat="44.5097887" lon="8.937829"><ele>139.6</ele><time>2026-04-18T05:33:20.999Z</time></trkpt><trkpt lat="44.5098794" lon="8.9379021"><ele>140.0</ele><time>2026-04-18T05:33:21.999Z</time></trkpt><trkpt lat="44.509971" lon="8.9379859"><ele>140.0</ele><time>2026-04-18T05:33:22.999Z</time></trkpt><trkpt lat="44.5100559" lon="8.9380716"><ele>140.0</ele><time>2026-04-18T05:33:23.999Z</time></trkpt><trkpt lat="44.5101371" lon="8.9381593"><ele>140.0</ele><time>2026-04-18T05:33:24.999Z</time></trkpt><trkpt lat="44.5102237" lon="8.9382419"><ele>140.0</ele><time>2026-04-18T05:33:25.999Z</time></trkpt><trkpt lat="44.510315" lon="8.9383265"><ele>140.0</ele><time>2026-04-18T05:33:26.999Z</time></trkpt><trkpt lat="44.510401" lon="8.938411"><ele>140.6</ele><time>2026-04-18T05:33:27.999Z</time></trkpt><trkpt lat="44.5104895" lon="8.9385051"><ele>141.2</ele><time>2026-04-18T05:33:28.999Z</time></trkpt><trkpt lat="44.5105754" lon="8.9385976"><ele>141.8</ele><time>2026-04-18T05:33:29.999Z</time></trkpt><trkpt lat="44.510659" lon="8.9386842"><ele>142.4</ele><time>2026-04-18T05:33:30.999Z</time></trkpt><trkpt lat="44.5107376" lon="8.9387728"><ele>143.0</ele><time>2026-04-18T05:33:31.999Z</time></trkpt><trkpt lat="44.5108166" lon="8.9388437"><ele>143.0</ele><time>2026-04-18T05:33:32.999Z</time></trkpt><trkpt lat="44.5108946" lon="8.9389262"><ele>143.0</ele><time>2026-04-18T05:33:33.999Z</time></trkpt><trkpt lat="44.5109754" lon="8.9390119"><ele>143.0</ele><time>2026-04-18T05:33:34.999Z</time></trkpt><trkpt lat="44.5110542" lon="8.9390986"><ele>143.0</ele><time>2026-04-18T05:33:35.999Z</time></trkpt><trkpt lat="44.5111343" lon="8.9391791"><ele>143.0</ele><time>2026-04-18T05:33:36.999Z</time></trkpt><trkpt lat="44.5112155" lon="8.9392559"><ele>144.20000000000002</ele><time>2026-04-18T05:33:37.999Z</time></trkpt><trkpt lat="44.5112904" lon="8.9393271"><ele>145.4</ele><time>2026-04-18T05:33:38.999Z</time></trkpt><trkpt lat="44.5113642" lon="8.9394058"><ele>146.60000000000002</ele><time>2026-04-18T05:33:39.999Z</time></trkpt><trkpt lat="44.5114421" lon="8.9394999"><ele>147.8</ele><time>2026-04-18T05:33:40.999Z</time></trkpt><trkpt lat="44.5115173" lon="8.9395872"><ele>149.0</ele><time>2026-04-18T05:33:41.999Z</time></trkpt><trkpt lat="44.5115918" lon="8.9396771"><ele>149.0</ele><time>2026-04-18T05:33:42.999Z</time></trkpt><trkpt lat="44.5116557" lon="8.9397724"><ele>149.0</ele><time>2026-04-18T05:33:43.999Z</time></trkpt><trkpt lat="44.5117154" lon="8.9398756"><ele>149.0</ele><time>2026-04-18T05:33:44.999Z</time></trkpt><trkpt lat="44.5117755" lon="8.9399886"><ele>149.0</ele><time>2026-04-18T05:33:45.999Z</time></trkpt><trkpt lat="44.5118403" lon="8.9400918"><ele>149.0</ele><time>2026-04-18T05:33:46.999Z</time></trkpt><trkpt lat="44.5118986" lon="8.940203"><ele>149.16666666666666</ele><time>2026-04-18T05:33:47.999Z</time></trkpt><trkpt lat="44.5119584" lon="8.9403085"><ele>149.33333333333331</ele><time>2026-04-18T05:33:48.999Z</time></trkpt><trkpt lat="44.512009" lon="8.9404009"><ele>149.5</ele><time>2026-04-18T05:33:49.999Z</time></trkpt><trkpt lat="44.5120462" lon="8.9404829"><ele>149.66666666666666</ele><time>2026-04-18T05:33:50.999Z</time></trkpt><trkpt lat="44.5120947" lon="8.9405495"><ele>149.83333333333334</ele><time>2026-04-18T05:33:51.999Z</time></trkpt><trkpt lat="44.5121454" lon="8.9406343"><ele>150.0</ele><time>2026-04-18T05:33:52.999Z</time></trkpt><trkpt lat="44.5121972" lon="8.940715"><ele>150.0</ele><time>2026-04-18T05:33:53.999Z</time></trkpt><trkpt lat="44.5122465" lon="8.9407998"><ele>150.0</ele><time>2026-04-18T05:33:54.999Z</time></trkpt><trkpt lat="44.5122971" lon="8.9408963"><ele>150.0</ele><time>2026-04-18T05:33:55.999Z</time></trkpt><trkpt lat="44.5123449" lon="8.9409952"><ele>150.0</ele><time>2026-04-18T05:33:56.999Z</time></trkpt><trkpt lat="44.5124063" lon="8.9411509"><ele>150.0</ele><time>2026-04-18T05:33:57.999Z</time></trkpt><trkpt lat="44.5124465" lon="8.9412779"><ele>150.5</ele><time>2026-04-18T05:33:58.999Z</time></trkpt><trkpt lat="44.5124876" lon="8.9414087"><ele>151.0</ele><time>2026-04-18T05:33:59.999Z</time></trkpt><trkpt lat="44.5125473" lon="8.9415587"><ele>151.5</ele><time>2026-04-18T05:34:00.999Z</time></trkpt><trkpt lat="44.5125901" lon="8.9417032"><ele>152.0</ele><time>2026-04-18T05:34:01.999Z</time></trkpt><trkpt lat="44.5126326" lon="8.9418599"><ele>152.0</ele><time>2026-04-18T05:34:02.999Z</time></trkpt><trkpt lat="44.5126713" lon="8.9420292"><ele>152.0</ele><time>2026-04-18T05:34:03.999Z</time></trkpt><trkpt lat="44.5126637" lon="8.942192"><ele>152.0</ele><time>2026-04-18T05:34:04.999Z</time></trkpt><trkpt lat="44.5126682" lon="8.9423816"><ele>152.0</ele><time>2026-04-18T05:34:06Z</time></trkpt><trkpt lat="44.5126697" lon="8.9425756"><ele>153.0</ele><time>2026-04-18T05:34:06.999Z</time></trkpt><trkpt lat="44.5126635" lon="8.9427613"><ele>154.0</ele><time>2026-04-18T05:34:07.999Z</time></trkpt><trkpt lat="44.5126665" lon="8.9429621"><ele>155.0</ele><time>2026-04-18T05:34:08.999Z</time></trkpt><trkpt lat="44.5126647" lon="8.943162"><ele>156.0</ele><time>2026-04-18T05:34:09.999Z</time></trkpt><trkpt lat="44.5126658" lon="8.9433699"><ele>159.0</ele><time>2026-04-18T05:34:10.999Z</time></trkpt><trkpt lat="44.5126604" lon="8.9435809"><ele>162.0</ele><time>2026-04-18T05:34:11.999Z</time></trkpt><trkpt lat="44.5126532" lon="8.9437994"><ele>165.0</ele><time>2026-04-18T05:34:12.999Z</time></trkpt><trkpt lat="44.5126398" lon="8.9440118"><ele>168.33333333333334</ele><time>2026-04-18T05:34:13.999Z</time></trkpt><trkpt lat="44.5126243" lon="8.9442167"><ele>171.66666666666669</ele><time>2026-04-18T05:34:14.999Z</time></trkpt><trkpt lat="44.5126119" lon="8.9444394"><ele>175.0</ele><time>2026-04-18T05:34:15.999Z</time></trkpt><trkpt lat="44.5125956" lon="8.9446572"><ele>175.0</ele><time>2026-04-18T05:34:16.999Z</time></trkpt><trkpt lat="44.5125822" lon="8.9448696"><ele>175.0</ele><time>2026-04-18T05:34:17.999Z</time></trkpt><trkpt lat="44.5125714" lon="8.9450808"><ele>175.0</ele><time>2026-04-18T05:34:18.999Z</time></trkpt><trkpt lat="44.512549" lon="8.9453018"><ele>176.0</ele><time>2026-04-18T05:34:19.999Z</time></trkpt><trkpt lat="44.5125328" lon="8.9455203"><ele>177.0</ele><time>2026-04-18T05:34:20.999Z</time></trkpt><trkpt lat="44.5125141" lon="8.9457301"><ele>178.0</ele><time>2026-04-18T05:34:21.999Z</time></trkpt><trkpt lat="44.512496" lon="8.9459353"><ele>179.0</ele><time>2026-04-18T05:34:22.999Z</time></trkpt><trkpt lat="44.5124772" lon="8.9461255"><ele>180.0</ele><time>2026-04-18T05:34:23.999Z</time></trkpt><trkpt lat="44.5124657" lon="8.9462714"><ele>181.0</ele><time>2026-04-18T05:34:24.999Z</time></trkpt><trkpt lat="44.5124629" lon="8.9464403"><ele>182.0</ele><time>2026-04-18T05:34:25.999Z</time></trkpt><trkpt lat="44.5124693" lon="8.9465966"><ele>180.25</ele><time>2026-04-18T05:34:26.999Z</time></trkpt><trkpt lat="44.5124983" lon="8.9467387"><ele>178.5</ele><time>2026-04-18T05:34:27.999Z</time></trkpt><trkpt lat="44.512528" lon="8.9468907"><ele>176.75</ele><time>2026-04-18T05:34:28.999Z</time></trkpt><trkpt lat="44.5125804" lon="8.9470764"><ele>175.0</ele><time>2026-04-18T05:34:29.999Z</time></trkpt><trkpt lat="44.512611" lon="8.9472484"><ele>175.0</ele><time>2026-04-18T05:34:30.999Z</time></trkpt><trkpt lat="44.5126352" lon="8.9473989"><ele>175.0</ele><time>2026-04-18T05:34:31.999Z</time></trkpt><trkpt lat="44.5126653" lon="8.9475671"><ele>175.0</ele><time>2026-04-18T05:34:32.999Z</time></trkpt><trkpt lat="44.5127126" lon="8.9477435"><ele>175.0</ele><time>2026-04-18T05:34:33.999Z</time></trkpt><trkpt lat="44.5127594" lon="8.9478943"><ele>175.25</ele><time>2026-04-18T05:34:34.999Z</time></trkpt><trkpt lat="44.5128156" lon="8.9480539"><ele>175.5</ele><time>2026-04-18T05:34:35.999Z</time></trkpt><trkpt lat="44.5128792" lon="8.9482043"><ele>175.75</ele><time>2026-04-18T05:34:36.999Z</time></trkpt><trkpt lat="44.5129425" lon="8.9483748"><ele>176.0</ele><time>2026-04-18T05:34:37.999Z</time></trkpt><trkpt lat="44.5130174" lon="8.9485183"><ele>176.25</ele><time>2026-04-18T05:34:38.999Z</time></trkpt><trkpt lat="44.5130881" lon="8.9486682"><ele>176.5</ele><time>2026-04-18T05:34:39.999Z</time></trkpt><trkpt lat="44.5131561" lon="8.9488224"><ele>176.75</ele><time>2026-04-18T05:34:40.999Z</time></trkpt><trkpt lat="44.5132315" lon="8.948981"><ele>177.0</ele><time>2026-04-18T05:34:41.999Z</time></trkpt><trkpt lat="44.5133056" lon="8.9491326"><ele>179.5</ele><time>2026-04-18T05:34:42.999Z</time></trkpt><trkpt lat="44.513376" lon="8.9492905"><ele>182.0</ele><time>2026-04-18T05:34:43.999Z</time></trkpt><trkpt lat="44.5134511" lon="8.9494465"><ele>184.5</ele><time>2026-04-18T05:34:44.999Z</time></trkpt><trkpt lat="44.5135249" lon="8.9496001"><ele>187.0</ele><time>2026-04-18T05:34:45.999Z</time></trkpt><trkpt lat="44.5136042" lon="8.9497555"><ele>187.0</ele><time>2026-04-18T05:34:46.999Z</time></trkpt><trkpt lat="44.5136844" lon="8.9499021"><ele>187.0</ele><time>2026-04-18T05:34:47.999Z</time></trkpt><trkpt lat="44.5137414" lon="8.950043"><ele>187.0</ele><time>2026-04-18T05:34:48.999Z</time></trkpt><trkpt lat="44.5138203" lon="8.9501766"><ele>187.0</ele><time>2026-04-18T05:34:49.999Z</time></trkpt><trkpt lat="44.5138808" lon="8.9503049"><ele>186.8</ele><time>2026-04-18T05:34:50.999Z</time></trkpt><trkpt lat="44.5139456" lon="8.9504212"><ele>186.6</ele><time>2026-04-18T05:34:51.999Z</time></trkpt><trkpt lat="44.5140053" lon="8.9505444"><ele>186.4</ele><time>2026-04-18T05:34:52.999Z</time></trkpt><trkpt lat="44.5140466" lon="8.9506664"><ele>186.20000000000002</ele><time>2026-04-18T05:34:53.999Z</time></trkpt><trkpt lat="44.5140584" lon="8.9507838"><ele>186.0</ele><time>2026-04-18T05:34:54.999Z</time></trkpt><trkpt lat="44.5140326" lon="8.9508946"><ele>186.83333333333334</ele><time>2026-04-18T05:34:55.999Z</time></trkpt><trkpt lat="44.5140071" lon="8.9510162"><ele>187.66666666666666</ele><time>2026-04-18T05:34:56.999Z</time></trkpt><trkpt lat="44.5139544" lon="8.9511076"><ele>188.5</ele><time>2026-04-18T05:34:57.999Z</time></trkpt><trkpt lat="44.5139048" lon="8.9512079"><ele>189.33333333333331</ele><time>2026-04-18T05:34:58.999Z</time></trkpt><trkpt lat="44.5138372" lon="8.9512715"><ele>190.16666666666666</ele><time>2026-04-18T05:34:59.999Z</time></trkpt><trkpt lat="44.5137596" lon="8.9513155"><ele>191.0</ele><time>2026-04-18T05:35:00.999Z</time></trkpt><trkpt lat="44.5136867" lon="8.9513334"><ele>192.75</ele><time>2026-04-18T05:35:01.999Z</time></trkpt><trkpt lat="44.5135701" lon="8.951193"><ele>194.5</ele><time>2026-04-18T05:35:03.999Z</time></trkpt><trkpt lat="44.5135195" lon="8.9510964"><ele>196.25</ele><time>2026-04-18T05:35:04.999Z</time></trkpt><trkpt lat="44.5134526" lon="8.9509719"><ele>198.0</ele><time>2026-04-18T05:35:05.999Z</time></trkpt><trkpt lat="44.51338" lon="8.9507916"><ele>198.0</ele><time>2026-04-18T05:35:06.999Z</time></trkpt><trkpt lat="44.5133029" lon="8.9506559"><ele>198.0</ele><time>2026-04-18T05:35:07.999Z</time></trkpt><trkpt lat="44.5132396" lon="8.950529"><ele>198.0</ele><time>2026-04-18T05:35:08.999Z</time></trkpt><trkpt lat="44.5131632" lon="8.9503787"><ele>198.0</ele><time>2026-04-18T05:35:09.999Z</time></trkpt><trkpt lat="44.5130857" lon="8.9502372"><ele>198.0</ele><time>2026-04-18T05:35:10.999Z</time></trkpt><trkpt lat="44.5130001" lon="8.9500916"><ele>198.0</ele><time>2026-04-18T05:35:11.999Z</time></trkpt><trkpt lat="44.512926" lon="8.9499467"><ele>198.0</ele><time>2026-04-18T05:35:12.999Z</time></trkpt><trkpt lat="44.5128495" lon="8.949811"><ele>198.0</ele><time>2026-04-18T05:35:13.999Z</time></trkpt><trkpt lat="44.5127607" lon="8.9496837"><ele>198.25</ele><time>2026-04-18T05:35:14.999Z</time></trkpt><trkpt lat="44.5126679" lon="8.9495567"><ele>198.5</ele><time>2026-04-18T05:35:15.999Z</time></trkpt><trkpt lat="44.5125657" lon="8.9494197"><ele>198.75</ele><time>2026-04-18T05:35:16.999Z</time></trkpt><trkpt lat="44.5124652" lon="8.9492871"><ele>199.0</ele><time>2026-04-18T05:35:17.999Z</time></trkpt><trkpt lat="44.5123711" lon="8.9491538"><ele>199.0</ele><time>2026-04-18T05:35:18.999Z</time></trkpt><trkpt lat="44.512275" lon="8.949042"><ele>199.0</ele><time>2026-04-18T05:35:19.999Z</time></trkpt><trkpt lat="44.5121808" lon="8.9489274"><ele>199.0</ele><time>2026-04-18T05:35:20.999Z</time></trkpt><trkpt lat="44.5121017" lon="8.948806"><ele>199.0</ele><time>2026-04-18T05:35:21.999Z</time></trkpt><trkpt lat="44.5120378" lon="8.9486719"><ele>205.75</ele><time>2026-04-18T05:35:22.999Z</time></trkpt><trkpt lat="44.511986" lon="8.9485109"><ele>212.5</ele><time>2026-04-18T05:35:23.999Z</time></trkpt><trkpt lat="44.5119364" lon="8.9483469"><ele>219.25</ele><time>2026-04-18T05:35:24.999Z</time></trkpt><trkpt lat="44.5118857" lon="8.9481799"><ele>226.0</ele><time>2026-04-18T05:35:25.999Z</time></trkpt><trkpt lat="44.5118362" lon="8.9480015"><ele>226.0</ele><time>2026-04-18T05:35:26.999Z</time></trkpt><trkpt lat="44.5117846" lon="8.9478296"><ele>226.0</ele><time>2026-04-18T05:35:28Z</time></trkpt><trkpt lat="44.511736" lon="8.9476272"><ele>226.0</ele><time>2026-04-18T05:35:28.999Z</time></trkpt><trkpt lat="44.5117081" lon="8.9474399"><ele>226.0</ele><time>2026-04-18T05:35:29.999Z</time></trkpt><trkpt lat="44.5116905" lon="8.9472509"><ele>222.5</ele><time>2026-04-18T05:35:30.999Z</time></trkpt><trkpt lat="44.5116796" lon="8.9470714"><ele>219.0</ele><time>2026-04-18T05:35:31.999Z</time></trkpt><trkpt lat="44.5116706" lon="8.9468821"><ele>215.5</ele><time>2026-04-18T05:35:32.999Z</time></trkpt><trkpt lat="44.511655" lon="8.9467094"><ele>212.0</ele><time>2026-04-18T05:35:33.999Z</time></trkpt><trkpt lat="44.5116183" lon="8.9465517"><ele>209.75</ele><time>2026-04-18T05:35:34.999Z</time></trkpt><trkpt lat="44.5115803" lon="8.9463821"><ele>207.5</ele><time>2026-04-18T05:35:35.999Z</time></trkpt><trkpt lat="44.5115262" lon="8.9462264"><ele>205.25</ele><time>2026-04-18T05:35:36.999Z</time></trkpt><trkpt lat="44.5114703" lon="8.9460697"><ele>203.0</ele><time>2026-04-18T05:35:37.999Z</time></trkpt><trkpt lat="44.5114121" lon="8.945911"><ele>202.5</ele><time>2026-04-18T05:35:38.999Z</time></trkpt><trkpt lat="44.5113563" lon="8.945751"><ele>202.0</ele><time>2026-04-18T05:35:40Z</time></trkpt><trkpt lat="44.5113084" lon="8.9455969"><ele>201.5</ele><time>2026-04-18T05:35:40.999Z</time></trkpt><trkpt lat="44.5112579" lon="8.9454472"><ele>201.0</ele><time>2026-04-18T05:35:41.999Z</time></trkpt><trkpt lat="44.511214" lon="8.9452938"><ele>210.75</ele><time>2026-04-18T05:35:42.999Z</time></trkpt><trkpt lat="44.5111709" lon="8.9451228"><ele>220.5</ele><time>2026-04-18T05:35:43.999Z</time></trkpt><trkpt lat="44.5111508" lon="8.944949"><ele>230.25</ele><time>2026-04-18T05:35:44.999Z</time></trkpt><trkpt lat="44.5111411" lon="8.9447652"><ele>240.0</ele><time>2026-04-18T05:35:45.999Z</time></trkpt><trkpt lat="44.5111351" lon="8.9445821"><ele>240.0</ele><time>2026-04-18T05:35:46.999Z</time></trkpt><trkpt lat="44.5111267" lon="8.944408"><ele>240.0</ele><time>2026-04-18T05:35:47.999Z</time></trkpt><trkpt lat="44.5111063" lon="8.9442411"><ele>240.0</ele><time>2026-04-18T05:35:48.999Z</time></trkpt><trkpt lat="44.511075" lon="8.9440773"><ele>240.0</ele><time>2026-04-18T05:35:49.999Z</time></trkpt><trkpt lat="44.5110335" lon="8.9439268"><ele>238.0</ele><time>2026-04-18T05:35:51.103Z</time></trkpt><trkpt lat="44.510974" lon="8.9436227"><ele>236.0</ele><time>2026-04-18T05:35:52.999Z</time></trkpt><trkpt lat="44.5109538" lon="8.9434612"><ele>234.0</ele><time>2026-04-18T05:35:53.999Z</time></trkpt><trkpt lat="44.5109403" lon="8.9433183"><ele>232.0</ele><time>2026-04-18T05:35:54.999Z</time></trkpt><trkpt lat="44.5109228" lon="8.9431758"><ele>230.6</ele><time>2026-04-18T05:35:55.999Z</time></trkpt><trkpt lat="44.5108849" lon="8.943028"><ele>229.2</ele><time>2026-04-18T05:35:56.999Z</time></trkpt><trkpt lat="44.51082" lon="8.9429033"><ele>227.8</ele><time>2026-04-18T05:35:57.999Z</time></trkpt><trkpt lat="44.5107421" lon="8.9428143"><ele>226.4</ele><time>2026-04-18T05:35:58.999Z</time></trkpt><trkpt lat="44.5106585" lon="8.9427092"><ele>225.0</ele><time>2026-04-18T05:35:59.999Z</time></trkpt><trkpt lat="44.5105775" lon="8.9426028"><ele>227.5</ele><time>2026-04-18T05:36:00.999Z</time></trkpt><trkpt lat="44.5105001" lon="8.9424912"><ele>230.0</ele><time>2026-04-18T05:36:01.999Z</time></trkpt><trkpt lat="44.5104225" lon="8.9423723"><ele>232.5</ele><time>2026-04-18T05:36:02.999Z</time></trkpt><trkpt lat="44.5103424" lon="8.9422571"><ele>235.0</ele><time>2026-04-18T05:36:03.999Z</time></trkpt><trkpt lat="44.5102582" lon="8.9421442"><ele>235.0</ele><time>2026-04-18T05:36:04.999Z</time></trkpt><trkpt lat="44.5101714" lon="8.9420441"><ele>235.0</ele><time>2026-04-18T05:36:05.999Z</time></trkpt><trkpt lat="44.5100917" lon="8.9419836"><ele>235.0</ele><time>2026-04-18T05:36:06.999Z</time></trkpt><trkpt lat="44.5099587" lon="8.941928"><ele>235.0</ele><time>2026-04-18T05:36:07.999Z</time></trkpt><trkpt lat="44.50985" lon="8.9419353"><ele>235.0</ele><time>2026-04-18T05:36:08.999Z</time></trkpt><trkpt lat="44.5097429" lon="8.9419367"><ele>235.0</ele><time>2026-04-18T05:36:09.999Z</time></trkpt><trkpt lat="44.509645" lon="8.9419495"><ele>235.0</ele><time>2026-04-18T05:36:10.999Z</time></trkpt><trkpt lat="44.5095314" lon="8.9419576"><ele>235.0</ele><time>2026-04-18T05:36:11.999Z</time></trkpt><trkpt lat="44.5094309" lon="8.9419423"><ele>235.0</ele><time>2026-04-18T05:36:12.999Z</time></trkpt><trkpt lat="44.5093338" lon="8.9419853"><ele>231.0</ele><time>2026-04-18T05:36:13.999Z</time></trkpt><trkpt lat="44.5092302" lon="8.9420508"><ele>227.0</ele><time>2026-04-18T05:36:14.999Z</time></trkpt><trkpt lat="44.50921" lon="8.9422248"><ele>223.0</ele><time>2026-04-18T05:36:15.999Z</time></trkpt><trkpt lat="44.5091446" lon="8.9423552"><ele>219.0</ele><time>2026-04-18T05:36:17Z</time></trkpt><trkpt lat="44.509084" lon="8.9424859"><ele>223.6</ele><time>2026-04-18T05:36:17.999Z</time></trkpt><trkpt lat="44.5090442" lon="8.9426264"><ele>228.2</ele><time>2026-04-18T05:36:18.999Z</time></trkpt><trkpt lat="44.5090145" lon="8.942763"><ele>232.79999999999998</ele><time>2026-04-18T05:36:19.999Z</time></trkpt><trkpt lat="44.5089974" lon="8.9428949"><ele>237.39999999999998</ele><time>2026-04-18T05:36:20.999Z</time></trkpt><trkpt lat="44.5089686" lon="8.9430421"><ele>242.0</ele><time>2026-04-18T05:36:21.999Z</time></trkpt><trkpt lat="44.508934" lon="8.9431811"><ele>242.0</ele><time>2026-04-18T05:36:22.999Z</time></trkpt><trkpt lat="44.5088944" lon="8.943335"><ele>242.0</ele><time>2026-04-18T05:36:23.999Z</time></trkpt><trkpt lat="44.5088455" lon="8.9434891"><ele>242.0</ele><time>2026-04-18T05:36:24.999Z</time></trkpt><trkpt lat="44.5087971" lon="8.9436367"><ele>242.0</ele><time>2026-04-18T05:36:25.999Z</time></trkpt><trkpt lat="44.5087443" lon="8.943781"><ele>241.25</ele><time>2026-04-18T05:36:26.999Z</time></trkpt><trkpt lat="44.5086858" lon="8.9439236"><ele>240.5</ele><time>2026-04-18T05:36:27.999Z</time></trkpt><trkpt lat="44.5086235" lon="8.9440651"><ele>239.75</ele><time>2026-04-18T05:36:29Z</time></trkpt><trkpt lat="44.5085588" lon="8.9441959"><ele>239.0</ele><time>2026-04-18T05:36:29.999Z</time></trkpt><trkpt lat="44.5085027" lon="8.9443164"><ele>239.0</ele><time>2026-04-18T05:36:30.999Z</time></trkpt><trkpt lat="44.5084437" lon="8.944493"><ele>239.0</ele><time>2026-04-18T05:36:31.999Z</time></trkpt><trkpt lat="44.5084197" lon="8.9446522"><ele>239.0</ele><time>2026-04-18T05:36:32.999Z</time></trkpt><trkpt lat="44.5083967" lon="8.9448264"><ele>239.0</ele><time>2026-04-18T05:36:33.999Z</time></trkpt><trkpt lat="44.5083736" lon="8.9449939"><ele>243.66666666666669</ele><time>2026-04-18T05:36:34.999Z</time></trkpt><trkpt lat="44.5083404" lon="8.9451358"><ele>248.33333333333331</ele><time>2026-04-18T05:36:36.101Z</time></trkpt><trkpt lat="44.5082502" lon="8.9454631"><ele>253.0</ele><time>2026-04-18T05:36:37.999Z</time></trkpt><trkpt lat="44.5081983" lon="8.9456184"><ele>253.0</ele><time>2026-04-18T05:36:38.999Z</time></trkpt><trkpt lat="44.5081374" lon="8.9457746"><ele>253.0</ele><time>2026-04-18T05:36:39.999Z</time></trkpt><trkpt lat="44.5080725" lon="8.94592"><ele>253.0</ele><time>2026-04-18T05:36:41.103Z</time></trkpt><trkpt lat="44.5079549" lon="8.9461974"><ele>256.0</ele><time>2026-04-18T05:36:42.999Z</time></trkpt><trkpt lat="44.5079175" lon="8.9463513"><ele>259.0</ele><time>2026-04-18T05:36:43.999Z</time></trkpt><trkpt lat="44.5078913" lon="8.9465111"><ele>262.0</ele><time>2026-04-18T05:36:44.999Z</time></trkpt><trkpt lat="44.5078677" lon="8.946671"><ele>265.0</ele><time>2026-04-18T05:36:45.999Z</time></trkpt><trkpt lat="44.5078528" lon="8.9468304"><ele>263.2</ele><time>2026-04-18T05:36:46.999Z</time></trkpt><trkpt lat="44.5078325" lon="8.9469854"><ele>261.4</ele><time>2026-04-18T05:36:47.999Z</time></trkpt><trkpt lat="44.5078117" lon="8.9471386"><ele>259.6</ele><time>2026-04-18T05:36:48.999Z</time></trkpt><trkpt lat="44.5077934" lon="8.9472908"><ele>257.8</ele><time>2026-04-18T05:36:49.999Z</time></trkpt><trkpt lat="44.507774" lon="8.9474314"><ele>256.0</ele><time>2026-04-18T05:36:50.999Z</time></trkpt><trkpt lat="44.5077602" lon="8.947554"><ele>256.0</ele><time>2026-04-18T05:36:51.999Z</time></trkpt><trkpt lat="44.5077444" lon="8.9476873"><ele>256.0</ele><time>2026-04-18T05:36:52.999Z</time></trkpt><trkpt lat="44.5077117" lon="8.9478244"><ele>256.0</ele><time>2026-04-18T05:36:53.999Z</time></trkpt><trkpt lat="44.5076609" lon="8.947949"><ele>256.0</ele><time>2026-04-18T05:36:54.999Z</time></trkpt><trkpt lat="44.5075993" lon="8.9480575"><ele>256.0</ele><time>2026-04-18T05:36:55.999Z</time></trkpt><trkpt lat="44.5075338" lon="8.9481685"><ele>256.0</ele><time>2026-04-18T05:36:56.999Z</time></trkpt><trkpt lat="44.5074841" lon="8.9482884"><ele>256.0</ele><time>2026-04-18T05:36:57.999Z</time></trkpt><trkpt lat="44.5074443" lon="8.9484215"><ele>256.0</ele><time>2026-04-18T05:36:58.999Z</time></trkpt><trkpt lat="44.5074028" lon="8.9485606"><ele>256.0</ele><time>2026-04-18T05:36:59.999Z</time></trkpt><trkpt lat="44.5073431" lon="8.9487097"><ele>256.0</ele><time>2026-04-18T05:37:00.999Z</time></trkpt><trkpt lat="44.507263" lon="8.9488403"><ele>255.60000000000002</ele><time>2026-04-18T05:37:01.999Z</time></trkpt><trkpt lat="44.5071785" lon="8.9489462"><ele>255.20000000000002</ele><time>2026-04-18T05:37:02.999Z</time></trkpt><trkpt lat="44.5070652" lon="8.9490404"><ele>254.79999999999998</ele><time>2026-04-18T05:37:04Z</time></trkpt><trkpt lat="44.5069701" lon="8.9490695"><ele>254.39999999999998</ele><time>2026-04-18T05:37:04.999Z</time></trkpt><trkpt lat="44.5068755" lon="8.9491094"><ele>254.0</ele><time>2026-04-18T05:37:06.101Z</time></trkpt><trkpt lat="44.5067406" lon="8.9492696"><ele>254.0</ele><time>2026-04-18T05:37:07.999Z</time></trkpt><trkpt lat="44.5067146" lon="8.9493514"><ele>253.99999999999997</ele><time>2026-04-18T05:37:08.999Z</time></trkpt><trkpt lat="44.5068341" lon="8.9494815"><ele>253.99999999999997</ele><time>2026-04-18T05:37:09.999Z</time></trkpt><trkpt lat="44.5068849" lon="8.9495655"><ele>254.0</ele><time>2026-04-18T05:37:10.999Z</time></trkpt><trkpt lat="44.5069392" lon="8.9496821"><ele>254.0</ele><time>2026-04-18T05:37:11.999Z</time></trkpt><trkpt lat="44.5069862" lon="8.9497915"><ele>254.0</ele><time>2026-04-18T05:37:12.999Z</time></trkpt><trkpt lat="44.5070115" lon="8.9499104"><ele>254.0</ele><time>2026-04-18T05:37:13.999Z</time></trkpt><trkpt lat="44.5070212" lon="8.9500326"><ele>254.0</ele><time>2026-04-18T05:37:14.999Z</time></trkpt><trkpt lat="44.5069937" lon="8.9501653"><ele>254.0</ele><time>2026-04-18T05:37:16.11Z</time></trkpt><trkpt lat="44.5068956" lon="8.9504045"><ele>256.59999999999997</ele><time>2026-04-18T05:37:17.999Z</time></trkpt><trkpt lat="44.5068149" lon="8.9504911"><ele>259.2</ele><time>2026-04-18T05:37:18.999Z</time></trkpt><trkpt lat="44.506726" lon="8.9505376"><ele>261.79999999999995</ele><time>2026-04-18T05:37:19.999Z</time></trkpt><trkpt lat="44.5066247" lon="8.9505753"><ele>264.4</ele><time>2026-04-18T05:37:20.999Z</time></trkpt><trkpt lat="44.5065167" lon="8.9506129"><ele>267.0</ele><time>2026-04-18T05:37:21.999Z</time></trkpt><trkpt lat="44.506411" lon="8.9506559"><ele>267.0</ele><time>2026-04-18T05:37:22.999Z</time></trkpt><trkpt lat="44.5063071" lon="8.9506963"><ele>267.0</ele><time>2026-04-18T05:37:23.999Z</time></trkpt><trkpt lat="44.5062099" lon="8.9507618"><ele>267.0</ele><time>2026-04-18T05:37:24.999Z</time></trkpt><trkpt lat="44.5061284" lon="8.9508299"><ele>267.0</ele><time>2026-04-18T05:37:25.999Z</time></trkpt><trkpt lat="44.506055" lon="8.9509172"><ele>267.0</ele><time>2026-04-18T05:37:26.999Z</time></trkpt><trkpt lat="44.5060081" lon="8.9510114"><ele>265.5</ele><time>2026-04-18T05:37:27.999Z</time></trkpt><trkpt lat="44.505979" lon="8.9511223"><ele>264.0</ele><time>2026-04-18T05:37:28.999Z</time></trkpt><trkpt lat="44.5059819" lon="8.9512229"><ele>262.5</ele><time>2026-04-18T05:37:29.999Z</time></trkpt><trkpt lat="44.5059917" lon="8.9513273"><ele>261.0</ele><time>2026-04-18T05:37:30.999Z</time></trkpt><trkpt lat="44.5060074" lon="8.9514503"><ele>259.5</ele><time>2026-04-18T05:37:31.999Z</time></trkpt><trkpt lat="44.5060469" lon="8.9515899"><ele>258.0</ele><time>2026-04-18T05:37:32.999Z</time></trkpt><trkpt lat="44.5060688" lon="8.9517413"><ele>258.0</ele><time>2026-04-18T05:37:33.999Z</time></trkpt><trkpt lat="44.5060872" lon="8.9518817"><ele>258.0</ele><time>2026-04-18T05:37:34.999Z</time></trkpt><trkpt lat="44.506114" lon="8.9520062"><ele>258.0</ele><time>2026-04-18T05:37:35.999Z</time></trkpt><trkpt lat="44.5061537" lon="8.9521324"><ele>258.0</ele><time>2026-04-18T05:37:36.999Z</time></trkpt><trkpt lat="44.5061834" lon="8.9522513"><ele>258.0</ele><time>2026-04-18T05:37:37.999Z</time></trkpt><trkpt lat="44.5061991" lon="8.9523609"><ele>258.0</ele><time>2026-04-18T05:37:38.999Z</time></trkpt><trkpt lat="44.5061801" lon="8.9524686"><ele>258.0</ele><time>2026-04-18T05:37:39.999Z</time></trkpt><trkpt lat="44.5061508" lon="8.9525921"><ele>258.0</ele><time>2026-04-18T05:37:40.999Z</time></trkpt><trkpt lat="44.5060793" lon="8.9526978"><ele>258.0</ele><time>2026-04-18T05:37:41.999Z</time></trkpt><trkpt lat="44.5060409" lon="8.9528124"><ele>258.0</ele><time>2026-04-18T05:37:42.999Z</time></trkpt><trkpt lat="44.5060262" lon="8.95295"><ele>261.8</ele><time>2026-04-18T05:37:43.999Z</time></trkpt><trkpt lat="44.5060205" lon="8.9530814"><ele>265.6</ele><time>2026-04-18T05:37:44.999Z</time></trkpt><trkpt lat="44.5060104" lon="8.9532157"><ele>269.4</ele><time>2026-04-18T05:37:45.999Z</time></trkpt><trkpt lat="44.5060042" lon="8.9533472"><ele>273.2</ele><time>2026-04-18T05:37:46.999Z</time></trkpt><trkpt lat="44.5060035" lon="8.9534743"><ele>277.0</ele><time>2026-04-18T05:37:47.999Z</time></trkpt><trkpt lat="44.5060077" lon="8.9536099"><ele>281.0</ele><time>2026-04-18T05:37:48.999Z</time></trkpt><trkpt lat="44.5060178" lon="8.9537398"><ele>285.0</ele><time>2026-04-18T05:37:49.999Z</time></trkpt><trkpt lat="44.5060312" lon="8.9538596"><ele>289.0</ele><time>2026-04-18T05:37:50.999Z</time></trkpt><trkpt lat="44.5060277" lon="8.9539636"><ele>293.0</ele><time>2026-04-18T05:37:52Z</time></trkpt><trkpt lat="44.5060023" lon="8.9540652"><ele>297.0</ele><time>2026-04-18T05:37:52.999Z</time></trkpt><trkpt lat="44.5059535" lon="8.9541453"><ele>301.0</ele><time>2026-04-18T05:37:53.999Z</time></trkpt><trkpt lat="44.5059089" lon="8.9542262"><ele>307.66666666666663</ele><time>2026-04-18T05:37:54.999Z</time></trkpt><trkpt lat="44.5058276" lon="8.95428"><ele>314.3333333333333</ele><time>2026-04-18T05:37:55.999Z</time></trkpt><trkpt lat="44.5057555" lon="8.9543292"><ele>321.0</ele><time>2026-04-18T05:37:56.999Z</time></trkpt><trkpt lat="44.5056657" lon="8.9543493"><ele>327.6666666666667</ele><time>2026-04-18T05:37:57.999Z</time></trkpt><trkpt lat="44.5055903" lon="8.9543726"><ele>334.33333333333337</ele><time>2026-04-18T05:37:58.999Z</time></trkpt><trkpt lat="44.5054934" lon="8.954345"><ele>341.0</ele><time>2026-04-18T05:37:59.999Z</time></trkpt><trkpt lat="44.5054225" lon="8.9543237"><ele>340.4</ele><time>2026-04-18T05:38:00.999Z</time></trkpt><trkpt lat="44.505345" lon="8.9542902"><ele>339.8</ele><time>2026-04-18T05:38:01.999Z</time></trkpt><trkpt lat="44.5052302" lon="8.9542266"><ele>339.2</ele><time>2026-04-18T05:38:02.999Z</time></trkpt><trkpt lat="44.5051189" lon="8.9542213"><ele>338.59999999999997</ele><time>2026-04-18T05:38:03.999Z</time></trkpt><trkpt lat="44.5050161" lon="8.9542518"><ele>338.0</ele><time>2026-04-18T05:38:04.999Z</time></trkpt><trkpt lat="44.5049089" lon="8.9542778"><ele>338.0</ele><time>2026-04-18T05:38:05.999Z</time></trkpt><trkpt lat="44.5047932" lon="8.9542947"><ele>338.0</ele><time>2026-04-18T05:38:06.999Z</time></trkpt><trkpt lat="44.5046721" lon="8.9543009"><ele>338.0</ele><time>2026-04-18T05:38:07.999Z</time></trkpt><trkpt lat="44.5045496" lon="8.9543004"><ele>338.0</ele><time>2026-04-18T05:38:08.999Z</time></trkpt><trkpt lat="44.5044272" lon="8.9542742"><ele>332.83333333333337</ele><time>2026-04-18T05:38:09.999Z</time></trkpt><trkpt lat="44.5043297" lon="8.9543122"><ele>327.6666666666667</ele><time>2026-04-18T05:38:10.999Z</time></trkpt><trkpt lat="44.5042365" lon="8.9543131"><ele>322.5</ele><time>2026-04-18T05:38:11.999Z</time></trkpt><trkpt lat="44.5041518" lon="8.9543313"><ele>317.3333333333333</ele><time>2026-04-18T05:38:12.999Z</time></trkpt><trkpt lat="44.5040876" lon="8.9543914"><ele>312.16666666666663</ele><time>2026-04-18T05:38:13.999Z</time></trkpt><trkpt lat="44.5040214" lon="8.9544601"><ele>307.0</ele><time>2026-04-18T05:38:14.999Z</time></trkpt><trkpt lat="44.5040214" lon="8.9545851"><ele>307.0</ele><time>2026-04-18T05:38:15.999Z</time></trkpt><trkpt lat="44.5040082" lon="8.9546964"><ele>307.0</ele><time>2026-04-18T05:38:17Z</time></trkpt><trkpt lat="44.5040371" lon="8.9548027"><ele>307.0</ele><time>2026-04-18T05:38:17.999Z</time></trkpt><trkpt lat="44.504088" lon="8.9549108"><ele>307.0</ele><time>2026-04-18T05:38:18.999Z</time></trkpt><trkpt lat="44.5041298" lon="8.9550095"><ele>307.0</ele><time>2026-04-18T05:38:19.999Z</time></trkpt><trkpt lat="44.5041673" lon="8.9551382"><ele>307.0</ele><time>2026-04-18T05:38:20.999Z</time></trkpt><trkpt lat="44.5041938" lon="8.9552603"><ele>309.4</ele><time>2026-04-18T05:38:21.999Z</time></trkpt><trkpt lat="44.5042009" lon="8.9553964"><ele>311.79999999999995</ele><time>2026-04-18T05:38:22.999Z</time></trkpt><trkpt lat="44.5041777" lon="8.9555103"><ele>314.2</ele><time>2026-04-18T05:38:23.999Z</time></trkpt><trkpt lat="44.5041439" lon="8.955657"><ele>316.59999999999997</ele><time>2026-04-18T05:38:24.999Z</time></trkpt><trkpt lat="44.5041076" lon="8.9557673"><ele>319.0</ele><time>2026-04-18T05:38:25.999Z</time></trkpt><trkpt lat="44.5040934" lon="8.9559186"><ele>320.0</ele><time>2026-04-18T05:38:26.999Z</time></trkpt><trkpt lat="44.5040632" lon="8.9560557"><ele>321.0</ele><time>2026-04-18T05:38:27.999Z</time></trkpt><trkpt lat="44.5040341" lon="8.9561874"><ele>322.0</ele><time>2026-04-18T05:38:28.999Z</time></trkpt><trkpt lat="44.5040246" lon="8.9562904"><ele>323.0</ele><time>2026-04-18T05:38:29.999Z</time></trkpt><trkpt lat="44.5040209" lon="8.9564243"><ele>324.0</ele><time>2026-04-18T05:38:30.999Z</time></trkpt><trkpt lat="44.5040216" lon="8.9565521"><ele>324.0</ele><time>2026-04-18T05:38:31.999Z</time></trkpt><trkpt lat="44.5040452" lon="8.9566854"><ele>324.0</ele><time>2026-04-18T05:38:32.999Z</time></trkpt><trkpt lat="44.5040728" lon="8.9568069"><ele>324.0</ele><time>2026-04-18T05:38:33.999Z</time></trkpt><trkpt lat="44.5041099" lon="8.9569232"><ele>324.0</ele><time>2026-04-18T05:38:34.999Z</time></trkpt><trkpt lat="44.5041511" lon="8.9570415"><ele>324.0</ele><time>2026-04-18T05:38:35.999Z</time></trkpt><trkpt lat="44.5041943" lon="8.9571552"><ele>324.0</ele><time>2026-04-18T05:38:36.999Z</time></trkpt><trkpt lat="44.504223" lon="8.957263"><ele>324.0</ele><time>2026-04-18T05:38:37.999Z</time></trkpt><trkpt lat="44.5042539" lon="8.9573977"><ele>324.0</ele><time>2026-04-18T05:38:38.999Z</time></trkpt><trkpt lat="44.5042161" lon="8.9574927"><ele>324.0</ele><time>2026-04-18T05:38:39.999Z</time></trkpt><trkpt lat="44.5041563" lon="8.957588"><ele>324.0</ele><time>2026-04-18T05:38:40.999Z</time></trkpt><trkpt lat="44.5041209" lon="8.9576956"><ele>324.0</ele><time>2026-04-18T05:38:41.999Z</time></trkpt><trkpt lat="44.5040928" lon="8.9578039"><ele>323.6</ele><time>2026-04-18T05:38:42.999Z</time></trkpt><trkpt lat="44.5041186" lon="8.9579178"><ele>323.2</ele><time>2026-04-18T05:38:43.999Z</time></trkpt><trkpt lat="44.5041641" lon="8.9580264"><ele>322.8</ele><time>2026-04-18T05:38:44.999Z</time></trkpt><trkpt lat="44.5042096" lon="8.9581362"><ele>322.40000000000003</ele><time>2026-04-18T05:38:45.999Z</time></trkpt><trkpt lat="44.5042778" lon="8.958252"><ele>322.0</ele><time>2026-04-18T05:38:46.999Z</time></trkpt><trkpt lat="44.5043443" lon="8.9583589"><ele>325.66666666666663</ele><time>2026-04-18T05:38:47.999Z</time></trkpt><trkpt lat="44.5044009" lon="8.9584604"><ele>329.3333333333333</ele><time>2026-04-18T05:38:48.999Z</time></trkpt><trkpt lat="44.5044539" lon="8.9585689"><ele>333.0</ele><time>2026-04-18T05:38:49.999Z</time></trkpt><trkpt lat="44.5044611" lon="8.9586744"><ele>336.6666666666667</ele><time>2026-04-18T05:38:50.999Z</time></trkpt><trkpt lat="44.5044701" lon="8.9587711"><ele>340.33333333333337</ele><time>2026-04-18T05:38:51.999Z</time></trkpt><trkpt lat="44.5044299" lon="8.958876"><ele>344.0</ele><time>2026-04-18T05:38:52.999Z</time></trkpt><trkpt lat="44.5042986" lon="8.9589586"><ele>344.0</ele><time>2026-04-18T05:38:54.999Z</time></trkpt><trkpt lat="44.5042044" lon="8.9589889"><ele>344.0</ele><time>2026-04-18T05:38:55.999Z</time></trkpt><trkpt lat="44.5041028" lon="8.959014"><ele>344.0</ele><time>2026-04-18T05:38:56.999Z</time></trkpt><trkpt lat="44.503987" lon="8.9590502"><ele>344.0</ele><time>2026-04-18T05:38:58Z</time></trkpt><trkpt lat="44.503867" lon="8.9590946"><ele>344.0</ele><time>2026-04-18T05:38:58.999Z</time></trkpt><trkpt lat="44.5037573" lon="8.9591408"><ele>344.5</ele><time>2026-04-18T05:38:59.999Z</time></trkpt><trkpt lat="44.5036314" lon="8.9591398"><ele>345.0</ele><time>2026-04-18T05:39:01.101Z</time></trkpt><trkpt lat="44.5034198" lon="8.9591521"><ele>345.5</ele><time>2026-04-18T05:39:02.999Z</time></trkpt><trkpt lat="44.5033372" lon="8.9592188"><ele>346.0</ele><time>2026-04-18T05:39:03.999Z</time></trkpt><trkpt lat="44.5032686" lon="8.9592816"><ele>346.0</ele><time>2026-04-18T05:39:04.999Z</time></trkpt><trkpt lat="44.5032658" lon="8.9594156"><ele>346.0</ele><time>2026-04-18T05:39:05.999Z</time></trkpt><trkpt lat="44.5032442" lon="8.9595361"><ele>346.0</ele><time>2026-04-18T05:39:06.999Z</time></trkpt><trkpt lat="44.5032368" lon="8.9596821"><ele>346.0</ele><time>2026-04-18T05:39:07.999Z</time></trkpt><trkpt lat="44.5032302" lon="8.9598293"><ele>346.0</ele><time>2026-04-18T05:39:08.999Z</time></trkpt><trkpt lat="44.503222" lon="8.9599747"><ele>351.0</ele><time>2026-04-18T05:39:09.999Z</time></trkpt><trkpt lat="44.5032105" lon="8.9601267"><ele>356.0</ele><time>2026-04-18T05:39:10.999Z</time></trkpt><trkpt lat="44.5031929" lon="8.9602771"><ele>361.0</ele><time>2026-04-18T05:39:11.999Z</time></trkpt><trkpt lat="44.5031707" lon="8.9604522"><ele>366.0</ele><time>2026-04-18T05:39:12.999Z</time></trkpt><trkpt lat="44.5031313" lon="8.960578"><ele>371.0</ele><time>2026-04-18T05:39:14Z</time></trkpt><trkpt lat="44.5030811" lon="8.960699"><ele>371.0</ele><time>2026-04-18T05:39:14.999Z</time></trkpt><trkpt lat="44.5030219" lon="8.9607764"><ele>371.0</ele><time>2026-04-18T05:39:15.999Z</time></trkpt><trkpt lat="44.5029598" lon="8.9608013"><ele>371.0</ele><time>2026-04-18T05:39:16.999Z</time></trkpt><trkpt lat="44.5028495" lon="8.960817"><ele>371.0</ele><time>2026-04-18T05:39:17.999Z</time></trkpt><trkpt lat="44.5027759" lon="8.9608773"><ele>371.0</ele><time>2026-04-18T05:39:19Z</time></trkpt><trkpt lat="44.5027139" lon="8.9609585"><ele>371.0</ele><time>2026-04-18T05:39:19.999Z</time></trkpt><trkpt lat="44.5026911" lon="8.9610659"><ele>367.4</ele><time>2026-04-18T05:39:20.999Z</time></trkpt><trkpt lat="44.5026713" lon="8.9611845"><ele>363.8</ele><time>2026-04-18T05:39:21.999Z</time></trkpt><trkpt lat="44.5026736" lon="8.9612786"><ele>360.2</ele><time>2026-04-18T05:39:22.999Z</time></trkpt><trkpt lat="44.5026448" lon="8.9614306"><ele>356.59999999999997</ele><time>2026-04-18T05:39:23.999Z</time></trkpt><trkpt lat="44.502622" lon="8.961563"><ele>353.0</ele><time>2026-04-18T05:39:24.999Z</time></trkpt><trkpt lat="44.5025814" lon="8.9616762"><ele>360.2</ele><time>2026-04-18T05:39:25.999Z</time></trkpt><trkpt lat="44.5025228" lon="8.9617704"><ele>367.4</ele><time>2026-04-18T05:39:26.999Z</time></trkpt><trkpt lat="44.5024293" lon="8.9618517"><ele>374.59999999999997</ele><time>2026-04-18T05:39:28Z</time></trkpt><trkpt lat="44.5023098" lon="8.9619155"><ele>381.79999999999995</ele><time>2026-04-18T05:39:28.999Z</time></trkpt><trkpt lat="44.5021983" lon="8.9618884"><ele>389.0</ele><time>2026-04-18T05:39:29.999Z</time></trkpt><trkpt lat="44.502088" lon="8.9619363"><ele>381.0</ele><time>2026-04-18T05:39:30.999Z</time></trkpt><trkpt lat="44.5019986" lon="8.9620206"><ele>373.0</ele><time>2026-04-18T05:39:31.999Z</time></trkpt><trkpt lat="44.5019073" lon="8.9621257"><ele>365.0</ele><time>2026-04-18T05:39:32.999Z</time></trkpt><trkpt lat="44.5018669" lon="8.9622418"><ele>357.0</ele><time>2026-04-18T05:39:33.999Z</time></trkpt><trkpt lat="44.5018213" lon="8.9623844"><ele>349.0</ele><time>2026-04-18T05:39:34.999Z</time></trkpt><trkpt lat="44.5017583" lon="8.9625173"><ele>349.79999999999995</ele><time>2026-04-18T05:39:35.999Z</time></trkpt><trkpt lat="44.5016903" lon="8.9625978"><ele>350.59999999999997</ele><time>2026-04-18T05:39:36.999Z</time></trkpt><trkpt lat="44.5016304" lon="8.9627236"><ele>351.4</ele><time>2026-04-18T05:39:37.999Z</time></trkpt><trkpt lat="44.5015904" lon="8.9628425"><ele>352.2</ele><time>2026-04-18T05:39:38.999Z</time></trkpt><trkpt lat="44.5015831" lon="8.9629641"><ele>353.0</ele><time>2026-04-18T05:39:39.999Z</time></trkpt><trkpt lat="44.5015787" lon="8.9630663"><ele>353.0</ele><time>2026-04-18T05:39:41.101Z</time></trkpt><trkpt lat="44.5016267" lon="8.9632423"><ele>353.0</ele><time>2026-04-18T05:39:42.999Z</time></trkpt><trkpt lat="44.5016777" lon="8.963329"><ele>353.0</ele><time>2026-04-18T05:39:43.999Z</time></trkpt><trkpt lat="44.5017237" lon="8.9633969"><ele>353.0</ele><time>2026-04-18T05:39:44.999Z</time></trkpt><trkpt lat="44.5018213" lon="8.9634948"><ele>353.0</ele><time>2026-04-18T05:39:45.999Z</time></trkpt><trkpt lat="44.5019763" lon="8.963572"><ele>356.0</ele><time>2026-04-18T05:39:46.999Z</time></trkpt><trkpt lat="44.5021242" lon="8.9636132"><ele>359.0</ele><time>2026-04-18T05:39:47.999Z</time></trkpt><trkpt lat="44.5022664" lon="8.9636673"><ele>362.0</ele><time>2026-04-18T05:39:48.999Z</time></trkpt><trkpt lat="44.5023973" lon="8.9637066"><ele>365.0</ele><time>2026-04-18T05:39:50.103Z</time></trkpt><trkpt lat="44.5026358" lon="8.9637709"><ele>365.0</ele><time>2026-04-18T05:39:51.999Z</time></trkpt><trkpt lat="44.5027425" lon="8.9637711"><ele>365.0</ele><time>2026-04-18T05:39:52.999Z</time></trkpt><trkpt lat="44.5028535" lon="8.9637755"><ele>365.0</ele><time>2026-04-18T05:39:53.999Z</time></trkpt><trkpt lat="44.5029718" lon="8.9638194"><ele>365.0</ele><time>2026-04-18T05:39:55.999Z</time></trkpt><trkpt lat="44.5030412" lon="8.9638653"><ele>365.0</ele><time>2026-04-18T05:39:56.999Z</time></trkpt><trkpt lat="44.5030947" lon="8.9640243"><ele>362.4</ele><time>2026-04-18T05:39:57.999Z</time></trkpt><trkpt lat="44.5030752" lon="8.9641326"><ele>359.8</ele><time>2026-04-18T05:39:58.999Z</time></trkpt><trkpt lat="44.5030645" lon="8.964252"><ele>357.20000000000005</ele><time>2026-04-18T05:39:59.999Z</time></trkpt><trkpt lat="44.5029967" lon="8.9643781"><ele>354.6</ele><time>2026-04-18T05:40:00.999Z</time></trkpt><trkpt lat="44.5029435" lon="8.9645045"><ele>352.0</ele><time>2026-04-18T05:40:01.999Z</time></trkpt><trkpt lat="44.5028948" lon="8.9646265"><ele>352.0</ele><time>2026-04-18T05:40:02.999Z</time></trkpt><trkpt lat="44.5028544" lon="8.9647633"><ele>352.0</ele><time>2026-04-18T05:40:03.999Z</time></trkpt><trkpt lat="44.502838" lon="8.9649014"><ele>352.0</ele><time>2026-04-18T05:40:04.999Z</time></trkpt><trkpt lat="44.5028323" lon="8.9650432"><ele>352.0</ele><time>2026-04-18T05:40:05.999Z</time></trkpt><trkpt lat="44.5028532" lon="8.9651524"><ele>352.0</ele><time>2026-04-18T05:40:06.999Z</time></trkpt><trkpt lat="44.5028862" lon="8.9652648"><ele>361.6</ele><time>2026-04-18T05:40:07.999Z</time></trkpt><trkpt lat="44.5029611" lon="8.9653809"><ele>371.20000000000005</ele><time>2026-04-18T05:40:08.999Z</time></trkpt><trkpt lat="44.5030112" lon="8.9654929"><ele>380.8</ele><time>2026-04-18T05:40:09.999Z</time></trkpt><trkpt lat="44.5030413" lon="8.9656188"><ele>390.4</ele><time>2026-04-18T05:40:10.999Z</time></trkpt><trkpt lat="44.5030476" lon="8.9657547"><ele>400.0</ele><time>2026-04-18T05:40:11.999Z</time></trkpt><trkpt lat="44.5030611" lon="8.9658912"><ele>400.0</ele><time>2026-04-18T05:40:12.999Z</time></trkpt><trkpt lat="44.5030718" lon="8.9660296"><ele>400.0</ele><time>2026-04-18T05:40:14Z</time></trkpt><trkpt lat="44.5030922" lon="8.9661581"><ele>400.0</ele><time>2026-04-18T05:40:15.108Z</time></trkpt><trkpt lat="44.503156" lon="8.966429"><ele>400.0</ele><time>2026-04-18T05:40:16.999Z</time></trkpt><trkpt lat="44.5032109" lon="8.9665533"><ele>400.0</ele><time>2026-04-18T05:40:17.999Z</time></trkpt><trkpt lat="44.5032661" lon="8.9666834"><ele>400.0</ele><time>2026-04-18T05:40:18.999Z</time></trkpt><trkpt lat="44.5033038" lon="8.9668224"><ele>400.0</ele><time>2026-04-18T05:40:19.999Z</time></trkpt><trkpt lat="44.5032948" lon="8.9669483"><ele>400.0</ele><time>2026-04-18T05:40:20.999Z</time></trkpt><trkpt lat="44.503308" lon="8.9670757"><ele>400.0</ele><time>2026-04-18T05:40:21.999Z</time></trkpt><trkpt lat="44.5033342" lon="8.9671951"><ele>396.25</ele><time>2026-04-18T05:40:22.999Z</time></trkpt><trkpt lat="44.5034121" lon="8.9673167"><ele>392.5</ele><time>2026-04-18T05:40:23.999Z</time></trkpt><trkpt lat="44.5034817" lon="8.9674325"><ele>388.75</ele><time>2026-04-18T05:40:24.999Z</time></trkpt><trkpt lat="44.5035613" lon="8.9675392"><ele>385.0</ele><time>2026-04-18T05:40:25.999Z</time></trkpt><trkpt lat="44.5036458" lon="8.9676757"><ele>383.8</ele><time>2026-04-18T05:40:26.999Z</time></trkpt><trkpt lat="44.5037186" lon="8.9678062"><ele>382.6</ele><time>2026-04-18T05:40:27.999Z</time></trkpt><trkpt lat="44.503777" lon="8.9678973"><ele>381.4</ele><time>2026-04-18T05:40:28.999Z</time></trkpt><trkpt lat="44.503845" lon="8.9679816"><ele>380.2</ele><time>2026-04-18T05:40:29.999Z</time></trkpt><trkpt lat="44.5039219" lon="8.9680448"><ele>379.0</ele><time>2026-04-18T05:40:30.999Z</time></trkpt><trkpt lat="44.5040196" lon="8.9680407"><ele>379.0</ele><time>2026-04-18T05:40:31.999Z</time></trkpt><trkpt lat="44.5041229" lon="8.9679949"><ele>379.0</ele><time>2026-04-18T05:40:32.999Z</time></trkpt><trkpt lat="44.5042351" lon="8.9679429"><ele>379.0</ele><time>2026-04-18T05:40:33.999Z</time></trkpt><trkpt lat="44.5043419" lon="8.9678996"><ele>379.0</ele><time>2026-04-18T05:40:34.999Z</time></trkpt><trkpt lat="44.5044544" lon="8.967853"><ele>379.0</ele><time>2026-04-18T05:40:35.999Z</time></trkpt><trkpt lat="44.5045651" lon="8.9678216"><ele>379.0</ele><time>2026-04-18T05:40:36.999Z</time></trkpt><trkpt lat="44.5046847" lon="8.9678146"><ele>379.0</ele><time>2026-04-18T05:40:37.999Z</time></trkpt><trkpt lat="44.5048174" lon="8.9678232"><ele>379.0</ele><time>2026-04-18T05:40:38.999Z</time></trkpt><trkpt lat="44.5049502" lon="8.9678328"><ele>379.75</ele><time>2026-04-18T05:40:39.999Z</time></trkpt><trkpt lat="44.50508" lon="8.9678186"><ele>380.5</ele><time>2026-04-18T05:40:40.999Z</time></trkpt><trkpt lat="44.5051989" lon="8.9678151"><ele>381.25</ele><time>2026-04-18T05:40:41.999Z</time></trkpt><trkpt lat="44.5053217" lon="8.9678187"><ele>382.0</ele><time>2026-04-18T05:40:42.999Z</time></trkpt><trkpt lat="44.5054456" lon="8.9678376"><ele>384.3333333333333</ele><time>2026-04-18T05:40:43.999Z</time></trkpt><trkpt lat="44.5055696" lon="8.9678442"><ele>386.66666666666663</ele><time>2026-04-18T05:40:44.999Z</time></trkpt><trkpt lat="44.5056838" lon="8.9678367"><ele>389.0</ele><time>2026-04-18T05:40:46.1Z</time></trkpt><trkpt lat="44.5059131" lon="8.9677717"><ele>389.0</ele><time>2026-04-18T05:40:47.999Z</time></trkpt><trkpt lat="44.5060211" lon="8.9677262"><ele>389.0</ele><time>2026-04-18T05:40:48.999Z</time></trkpt><trkpt lat="44.5061148" lon="8.9676621"><ele>389.0</ele><time>2026-04-18T05:40:49.999Z</time></trkpt><trkpt lat="44.5062076" lon="8.9676084"><ele>389.0</ele><time>2026-04-18T05:40:50.999Z</time></trkpt><trkpt lat="44.5063062" lon="8.967566"><ele>389.0</ele><time>2026-04-18T05:40:51.999Z</time></trkpt><trkpt lat="44.5064044" lon="8.9675942"><ele>392.6</ele><time>2026-04-18T05:40:52.999Z</time></trkpt><trkpt lat="44.5065158" lon="8.9676421"><ele>396.2</ele><time>2026-04-18T05:40:53.999Z</time></trkpt><trkpt lat="44.5066109" lon="8.967692"><ele>399.8</ele><time>2026-04-18T05:40:54.999Z</time></trkpt><trkpt lat="44.5066773" lon="8.9677832"><ele>403.40000000000003</ele><time>2026-04-18T05:40:55.999Z</time></trkpt><trkpt lat="44.5067367" lon="8.9679039"><ele>407.0</ele><time>2026-04-18T05:40:56.999Z</time></trkpt><trkpt lat="44.5067891" lon="8.9680468"><ele>407.0</ele><time>2026-04-18T05:40:57.999Z</time></trkpt><trkpt lat="44.5068339" lon="8.9682003"><ele>407.0</ele><time>2026-04-18T05:40:58.999Z</time></trkpt><trkpt lat="44.5068782" lon="8.9683434"><ele>407.0</ele><time>2026-04-18T05:40:59.999Z</time></trkpt><trkpt lat="44.5069184" lon="8.9684809"><ele>407.0</ele><time>2026-04-18T05:41:00.999Z</time></trkpt><trkpt lat="44.5069359" lon="8.9685949"><ele>407.0</ele><time>2026-04-18T05:41:01.999Z</time></trkpt><trkpt lat="44.5069431" lon="8.9687448"><ele>406.66666666666663</ele><time>2026-04-18T05:41:02.999Z</time></trkpt><trkpt lat="44.5069346" lon="8.9688668"><ele>406.3333333333333</ele><time>2026-04-18T05:41:03.999Z</time></trkpt><trkpt lat="44.506894" lon="8.968967"><ele>406.0</ele><time>2026-04-18T05:41:04.999Z</time></trkpt><trkpt lat="44.5068883" lon="8.9690694"><ele>405.66666666666663</ele><time>2026-04-18T05:41:05.999Z</time></trkpt><trkpt lat="44.5069066" lon="8.9691766"><ele>405.3333333333333</ele><time>2026-04-18T05:41:07Z</time></trkpt><trkpt lat="44.5069682" lon="8.9692272"><ele>405.0</ele><time>2026-04-18T05:41:07.999Z</time></trkpt><trkpt lat="44.5070298" lon="8.9693202"><ele>405.0</ele><time>2026-04-18T05:41:08.999Z</time></trkpt><trkpt lat="44.5070803" lon="8.9694365"><ele>405.0</ele><time>2026-04-18T05:41:09.999Z</time></trkpt><trkpt lat="44.5070989" lon="8.9695442"><ele>405.0</ele><time>2026-04-18T05:41:10.999Z</time></trkpt><trkpt lat="44.5070988" lon="8.9696726"><ele>405.0</ele><time>2026-04-18T05:41:11.999Z</time></trkpt><trkpt lat="44.5070605" lon="8.9698159"><ele>405.0</ele><time>2026-04-18T05:41:12.999Z</time></trkpt><trkpt lat="44.5069818" lon="8.9699309"><ele>408.2</ele><time>2026-04-18T05:41:13.999Z</time></trkpt><trkpt lat="44.5069179" lon="8.9700569"><ele>411.4</ele><time>2026-04-18T05:41:14.999Z</time></trkpt><trkpt lat="44.5068485" lon="8.9701713"><ele>414.6</ele><time>2026-04-18T05:41:15.999Z</time></trkpt><trkpt lat="44.5067834" lon="8.9702886"><ele>417.8</ele><time>2026-04-18T05:41:16.999Z</time></trkpt><trkpt lat="44.5067113" lon="8.9704127"><ele>421.0</ele><time>2026-04-18T05:41:17.999Z</time></trkpt><trkpt lat="44.5066648" lon="8.970544"><ele>421.0</ele><time>2026-04-18T05:41:18.999Z</time></trkpt><trkpt lat="44.5066424" lon="8.9706817"><ele>421.0</ele><time>2026-04-18T05:41:19.999Z</time></trkpt><trkpt lat="44.5066319" lon="8.970824"><ele>421.0</ele><time>2026-04-18T05:41:20.999Z</time></trkpt><trkpt lat="44.5066475" lon="8.9709656"><ele>421.0</ele><time>2026-04-18T05:41:21.999Z</time></trkpt><trkpt lat="44.5066646" lon="8.9711042"><ele>421.0</ele><time>2026-04-18T05:41:22.999Z</time></trkpt><trkpt lat="44.5066694" lon="8.9712489"><ele>423.4</ele><time>2026-04-18T05:41:23.999Z</time></trkpt><trkpt lat="44.5066609" lon="8.9713755"><ele>425.8</ele><time>2026-04-18T05:41:24.999Z</time></trkpt><trkpt lat="44.5066151" lon="8.9714762"><ele>428.19999999999993</ele><time>2026-04-18T05:41:25.999Z</time></trkpt><trkpt lat="44.5065529" lon="8.9715756"><ele>430.59999999999997</ele><time>2026-04-18T05:41:26.999Z</time></trkpt><trkpt lat="44.506479" lon="8.9716775"><ele>433.0</ele><time>2026-04-18T05:41:27.999Z</time></trkpt><trkpt lat="44.5063666" lon="8.9717777"><ele>436.2</ele><time>2026-04-18T05:41:28.999Z</time></trkpt><trkpt lat="44.5062855" lon="8.9718852"><ele>439.4</ele><time>2026-04-18T05:41:29.999Z</time></trkpt><trkpt lat="44.5062154" lon="8.9719998"><ele>442.59999999999997</ele><time>2026-04-18T05:41:30.999Z</time></trkpt><trkpt lat="44.5061713" lon="8.972124"><ele>445.79999999999995</ele><time>2026-04-18T05:41:31.999Z</time></trkpt><trkpt lat="44.5061406" lon="8.9722626"><ele>449.0</ele><time>2026-04-18T05:41:32.999Z</time></trkpt><trkpt lat="44.5061216" lon="8.9724047"><ele>442.6</ele><time>2026-04-18T05:41:33.999Z</time></trkpt><trkpt lat="44.5061047" lon="8.9725465"><ele>436.2</ele><time>2026-04-18T05:41:35Z</time></trkpt><trkpt lat="44.5060885" lon="8.9726805"><ele>429.8</ele><time>2026-04-18T05:41:35.999Z</time></trkpt><trkpt lat="44.5060772" lon="8.972814"><ele>423.40000000000003</ele><time>2026-04-18T05:41:36.999Z</time></trkpt><trkpt lat="44.5060685" lon="8.9729323"><ele>417.0</ele><time>2026-04-18T05:41:37.999Z</time></trkpt><trkpt lat="44.506061" lon="8.973035"><ele>417.0</ele><time>2026-04-18T05:41:38.999Z</time></trkpt><trkpt lat="44.5060662" lon="8.9731295"><ele>417.0</ele><time>2026-04-18T05:41:39.999Z</time></trkpt><trkpt lat="44.5060723" lon="8.9732322"><ele>417.0</ele><time>2026-04-18T05:41:41Z</time></trkpt><trkpt lat="44.5060886" lon="8.9733359"><ele>417.0</ele><time>2026-04-18T05:41:41.999Z</time></trkpt><trkpt lat="44.5061118" lon="8.9734368"><ele>417.0</ele><time>2026-04-18T05:41:42.999Z</time></trkpt><trkpt lat="44.5061553" lon="8.9735344"><ele>417.0</ele><time>2026-04-18T05:41:43.999Z</time></trkpt><trkpt lat="44.5062227" lon="8.9736182"><ele>419.20000000000005</ele><time>2026-04-18T05:41:44.999Z</time></trkpt><trkpt lat="44.5062865" lon="8.9736579"><ele>421.4</ele><time>2026-04-18T05:41:45.999Z</time></trkpt><trkpt lat="44.506383" lon="8.9737055"><ele>423.59999999999997</ele><time>2026-04-18T05:41:46.999Z</time></trkpt><trkpt lat="44.5064757" lon="8.9737348"><ele>425.79999999999995</ele><time>2026-04-18T05:41:47.999Z</time></trkpt><trkpt lat="44.5065855" lon="8.9737384"><ele>428.0</ele><time>2026-04-18T05:41:48.999Z</time></trkpt><trkpt lat="44.5066714" lon="8.9737148"><ele>427.99999999999994</ele><time>2026-04-18T05:41:49.999Z</time></trkpt><trkpt lat="44.5067536" lon="8.97368"><ele>428.0</ele><time>2026-04-18T05:41:50.999Z</time></trkpt><trkpt lat="44.5068349" lon="8.9736792"><ele>428.0</ele><time>2026-04-18T05:41:51.999Z</time></trkpt><trkpt lat="44.5069127" lon="8.9737248"><ele>428.0</ele><time>2026-04-18T05:41:52.999Z</time></trkpt><trkpt lat="44.5069669" lon="8.9738012"><ele>427.99999999999994</ele><time>2026-04-18T05:41:53.999Z</time></trkpt><trkpt lat="44.507001" lon="8.9739003"><ele>428.0</ele><time>2026-04-18T05:41:55.108Z</time></trkpt><trkpt lat="44.5070608" lon="8.9741059"><ele>426.2</ele><time>2026-04-18T05:41:56.999Z</time></trkpt><trkpt lat="44.507125" lon="8.9741937"><ele>424.4</ele><time>2026-04-18T05:41:57.999Z</time></trkpt><trkpt lat="44.5071854" lon="8.9742393"><ele>422.59999999999997</ele><time>2026-04-18T05:41:58.999Z</time></trkpt><trkpt lat="44.5072943" lon="8.9742805"><ele>420.79999999999995</ele><time>2026-04-18T05:41:59.999Z</time></trkpt><trkpt lat="44.5073948" lon="8.9743037"><ele>419.0</ele><time>2026-04-18T05:42:00.999Z</time></trkpt><trkpt lat="44.5074932" lon="8.9743126"><ele>419.0</ele><time>2026-04-18T05:42:01.999Z</time></trkpt><trkpt lat="44.5075993" lon="8.9742833"><ele>419.0</ele><time>2026-04-18T05:42:02.999Z</time></trkpt><trkpt lat="44.5076909" lon="8.9742223"><ele>419.0</ele><time>2026-04-18T05:42:03.999Z</time></trkpt><trkpt lat="44.5077813" lon="8.9741601"><ele>419.0</ele><time>2026-04-18T05:42:04.999Z</time></trkpt><trkpt lat="44.5078587" lon="8.9740887"><ele>419.0</ele><time>2026-04-18T05:42:05.999Z</time></trkpt><trkpt lat="44.507922" lon="8.9739813"><ele>420.4</ele><time>2026-04-18T05:42:06.999Z</time></trkpt><trkpt lat="44.5079478" lon="8.9738625"><ele>421.79999999999995</ele><time>2026-04-18T05:42:07.999Z</time></trkpt><trkpt lat="44.5079778" lon="8.9737164"><ele>423.20000000000005</ele><time>2026-04-18T05:42:08.999Z</time></trkpt><trkpt lat="44.5080144" lon="8.9735754"><ele>424.6</ele><time>2026-04-18T05:42:09.999Z</time></trkpt><trkpt lat="44.5080493" lon="8.9734414"><ele>426.0</ele><time>2026-04-18T05:42:10.999Z</time></trkpt><trkpt lat="44.5080762" lon="8.9733172"><ele>430.20000000000005</ele><time>2026-04-18T05:42:11.999Z</time></trkpt><trkpt lat="44.5081074" lon="8.9732219"><ele>434.40000000000003</ele><time>2026-04-18T05:42:12.999Z</time></trkpt><trkpt lat="44.5081384" lon="8.9731331"><ele>438.6</ele><time>2026-04-18T05:42:13.999Z</time></trkpt><trkpt lat="44.5081874" lon="8.9730647"><ele>442.8</ele><time>2026-04-18T05:42:14.999Z</time></trkpt><trkpt lat="44.5083564" lon="8.9729846"><ele>447.0</ele><time>2026-04-18T05:42:16.999Z</time></trkpt><trkpt lat="44.5084737" lon="8.9730381"><ele>447.0</ele><time>2026-04-18T05:42:18.999Z</time></trkpt><trkpt lat="44.5086197" lon="8.9730956"><ele>447.00000000000006</ele><time>2026-04-18T05:42:19.999Z</time></trkpt><trkpt lat="44.5087134" lon="8.9731134"><ele>447.00000000000006</ele><time>2026-04-18T05:42:20.999Z</time></trkpt><trkpt lat="44.5088085" lon="8.9731046"><ele>447.0</ele><time>2026-04-18T05:42:21.999Z</time></trkpt><trkpt lat="44.5089096" lon="8.9730833"><ele>447.0</ele><time>2026-04-18T05:42:23Z</time></trkpt><trkpt lat="44.509007" lon="8.9730688"><ele>447.6666666666667</ele><time>2026-04-18T05:42:23.999Z</time></trkpt><trkpt lat="44.509097" lon="8.9730316"><ele>448.33333333333337</ele><time>2026-04-18T05:42:25Z</time></trkpt><trkpt lat="44.5091807" lon="8.9730223"><ele>449.0</ele><time>2026-04-18T05:42:25.999Z</time></trkpt><trkpt lat="44.5092599" lon="8.973038"><ele>449.6666666666667</ele><time>2026-04-18T05:42:26.999Z</time></trkpt><trkpt lat="44.5093393" lon="8.9730791"><ele>450.33333333333337</ele><time>2026-04-18T05:42:27.999Z</time></trkpt><trkpt lat="44.5094212" lon="8.9731325"><ele>451.0</ele><time>2026-04-18T05:42:28.999Z</time></trkpt><trkpt lat="44.5094916" lon="8.9732088"><ele>451.0</ele><time>2026-04-18T05:42:29.999Z</time></trkpt><trkpt lat="44.509558" lon="8.9732955"><ele>451.0</ele><time>2026-04-18T05:42:30.999Z</time></trkpt><trkpt lat="44.5096179" lon="8.9733999"><ele>451.0</ele><time>2026-04-18T05:42:31.999Z</time></trkpt><trkpt lat="44.5096827" lon="8.9735216"><ele>451.0</ele><time>2026-04-18T05:42:32.999Z</time></trkpt><trkpt lat="44.5097424" lon="8.9736177"><ele>451.0</ele><time>2026-04-18T05:42:33.999Z</time></trkpt><trkpt lat="44.5098067" lon="8.9736868"><ele>449.0</ele><time>2026-04-18T05:42:34.999Z</time></trkpt><trkpt lat="44.5098747" lon="8.9737498"><ele>447.0</ele><time>2026-04-18T05:42:35.999Z</time></trkpt><trkpt lat="44.5099679" lon="8.9737304"><ele>445.0</ele><time>2026-04-18T05:42:36.999Z</time></trkpt><trkpt lat="44.5100626" lon="8.9736895"><ele>443.0</ele><time>2026-04-18T05:42:37.999Z</time></trkpt><trkpt lat="44.5101507" lon="8.9736609"><ele>441.0</ele><time>2026-04-18T05:42:38.999Z</time></trkpt><trkpt lat="44.5102445" lon="8.973615"><ele>441.0</ele><time>2026-04-18T05:42:39.999Z</time></trkpt><trkpt lat="44.5103465" lon="8.9735475"><ele>441.0</ele><time>2026-04-18T05:42:40.999Z</time></trkpt><trkpt lat="44.5104221" lon="8.9734701"><ele>441.0</ele><time>2026-04-18T05:42:41.999Z</time></trkpt><trkpt lat="44.5105034" lon="8.9734022"><ele>441.0</ele><time>2026-04-18T05:42:42.999Z</time></trkpt><trkpt lat="44.5105883" lon="8.9733272"><ele>441.0</ele><time>2026-04-18T05:42:43.999Z</time></trkpt><trkpt lat="44.510691" lon="8.9732734"><ele>446.0</ele><time>2026-04-18T05:42:45Z</time></trkpt><trkpt lat="44.5107886" lon="8.9732165"><ele>451.0</ele><time>2026-04-18T05:42:45.999Z</time></trkpt><trkpt lat="44.5108855" lon="8.9731706"><ele>456.0</ele><time>2026-04-18T05:42:46.999Z</time></trkpt><trkpt lat="44.5109719" lon="8.9731641"><ele>461.0</ele><time>2026-04-18T05:42:47.999Z</time></trkpt><trkpt lat="44.5110637" lon="8.9731924"><ele>466.0</ele><time>2026-04-18T05:42:48.999Z</time></trkpt><trkpt lat="44.5111832" lon="8.9732418"><ele>464.6</ele><time>2026-04-18T05:42:49.999Z</time></trkpt><trkpt lat="44.511286" lon="8.9733039"><ele>463.20000000000005</ele><time>2026-04-18T05:42:50.999Z</time></trkpt><trkpt lat="44.5113688" lon="8.973372"><ele>461.79999999999995</ele><time>2026-04-18T05:42:51.999Z</time></trkpt><trkpt lat="44.5114616" lon="8.9734476"><ele>460.4</ele><time>2026-04-18T05:42:52.999Z</time></trkpt><trkpt lat="44.5115364" lon="8.9735511"><ele>459.0</ele><time>2026-04-18T05:42:53.999Z</time></trkpt><trkpt lat="44.5115928" lon="8.9736701"><ele>459.0</ele><time>2026-04-18T05:42:54.999Z</time></trkpt><trkpt lat="44.5116574" lon="8.9737901"><ele>459.0</ele><time>2026-04-18T05:42:55.999Z</time></trkpt><trkpt lat="44.5117394" lon="8.973891"><ele>459.0</ele><time>2026-04-18T05:42:56.999Z</time></trkpt><trkpt lat="44.5118374" lon="8.9739669"><ele>459.0</ele><time>2026-04-18T05:42:57.999Z</time></trkpt><trkpt lat="44.5119385" lon="8.9740225"><ele>459.0</ele><time>2026-04-18T05:42:58.999Z</time></trkpt><trkpt lat="44.5120875" lon="8.974062"><ele>462.5</ele><time>2026-04-18T05:42:59.999Z</time></trkpt><trkpt lat="44.5122054" lon="8.9740997"><ele>466.0</ele><time>2026-04-18T05:43:00.999Z</time></trkpt><trkpt lat="44.5123195" lon="8.974104"><ele>469.5</ele><time>2026-04-18T05:43:01.999Z</time></trkpt><trkpt lat="44.5124291" lon="8.9741312"><ele>473.0</ele><time>2026-04-18T05:43:03Z</time></trkpt><trkpt lat="44.5125275" lon="8.9741873"><ele>471.59999999999997</ele><time>2026-04-18T05:43:03.999Z</time></trkpt><trkpt lat="44.5126242" lon="8.9742682"><ele>470.19999999999993</ele><time>2026-04-18T05:43:04.999Z</time></trkpt><trkpt lat="44.5127179" lon="8.9743434"><ele>468.8</ele><time>2026-04-18T05:43:05.999Z</time></trkpt><trkpt lat="44.5128088" lon="8.9743777"><ele>467.4</ele><time>2026-04-18T05:43:06.999Z</time></trkpt><trkpt lat="44.512912" lon="8.974396"><ele>466.0</ele><time>2026-04-18T05:43:07.999Z</time></trkpt><trkpt lat="44.5130216" lon="8.9743798"><ele>466.0</ele><time>2026-04-18T05:43:08.999Z</time></trkpt><trkpt lat="44.5131297" lon="8.9743421"><ele>466.0</ele><time>2026-04-18T05:43:09.999Z</time></trkpt><trkpt lat="44.5132355" lon="8.974325"><ele>466.0</ele><time>2026-04-18T05:43:10.999Z</time></trkpt><trkpt lat="44.5133235" lon="8.9743383"><ele>466.0</ele><time>2026-04-18T05:43:11.999Z</time></trkpt><trkpt lat="44.5134011" lon="8.9743969"><ele>466.0</ele><time>2026-04-18T05:43:12.999Z</time></trkpt><trkpt lat="44.51348" lon="8.9744587"><ele>466.0</ele><time>2026-04-18T05:43:13.999Z</time></trkpt><trkpt lat="44.5135284" lon="8.9745387"><ele>466.0</ele><time>2026-04-18T05:43:14.999Z</time></trkpt><trkpt lat="44.5135759" lon="8.9746833"><ele>466.0</ele><time>2026-04-18T05:43:15.999Z</time></trkpt><trkpt lat="44.5136478" lon="8.9748049"><ele>466.0</ele><time>2026-04-18T05:43:16.999Z</time></trkpt><trkpt lat="44.5137351" lon="8.9749011"><ele>466.0</ele><time>2026-04-18T05:43:17.999Z</time></trkpt><trkpt lat="44.5138215" lon="8.9749726"><ele>465.25</ele><time>2026-04-18T05:43:18.999Z</time></trkpt><trkpt lat="44.5139326" lon="8.975052"><ele>464.5</ele><time>2026-04-18T05:43:19.999Z</time></trkpt><trkpt lat="44.5140463" lon="8.9751365"><ele>463.75</ele><time>2026-04-18T05:43:20.999Z</time></trkpt><trkpt lat="44.5141557" lon="8.9752318"><ele>463.0</ele><time>2026-04-18T05:43:21.999Z</time></trkpt><trkpt lat="44.5142627" lon="8.9753221"><ele>463.0</ele><time>2026-04-18T05:43:22.999Z</time></trkpt><trkpt lat="44.5143764" lon="8.975413"><ele>463.0</ele><time>2026-04-18T05:43:23.999Z</time></trkpt><trkpt lat="44.5144961" lon="8.9755266"><ele>463.0</ele><time>2026-04-18T05:43:24.999Z</time></trkpt><trkpt lat="44.5146143" lon="8.975627"><ele>463.0</ele><time>2026-04-18T05:43:25.999Z</time></trkpt><trkpt lat="44.5147272" lon="8.9757289"><ele>463.75</ele><time>2026-04-18T05:43:26.999Z</time></trkpt><trkpt lat="44.5148437" lon="8.975822"><ele>464.5</ele><time>2026-04-18T05:43:27.999Z</time></trkpt><trkpt lat="44.5149605" lon="8.9759148"><ele>465.25</ele><time>2026-04-18T05:43:28.999Z</time></trkpt><trkpt lat="44.5150771" lon="8.9760043"><ele>466.0</ele><time>2026-04-18T05:43:29.999Z</time></trkpt><trkpt lat="44.5151912" lon="8.9761062"><ele>466.0</ele><time>2026-04-18T05:43:30.999Z</time></trkpt><trkpt lat="44.5153026" lon="8.976196"><ele>466.0</ele><time>2026-04-18T05:43:31.999Z</time></trkpt><trkpt lat="44.5154121" lon="8.9762834"><ele>466.0</ele><time>2026-04-18T05:43:32.999Z</time></trkpt><trkpt lat="44.5155159" lon="8.9763698"><ele>466.0</ele><time>2026-04-18T05:43:33.999Z</time></trkpt><trkpt lat="44.515613" lon="8.9764674"><ele>466.5</ele><time>2026-04-18T05:43:34.999Z</time></trkpt><trkpt lat="44.5157056" lon="8.976574"><ele>467.0</ele><time>2026-04-18T05:43:35.999Z</time></trkpt><trkpt lat="44.5157932" lon="8.9766934"><ele>467.5</ele><time>2026-04-18T05:43:36.999Z</time></trkpt><trkpt lat="44.5158819" lon="8.9768133"><ele>468.0</ele><time>2026-04-18T05:43:37.999Z</time></trkpt><trkpt lat="44.5159664" lon="8.9769343"><ele>468.0</ele><time>2026-04-18T05:43:38.999Z</time></trkpt><trkpt lat="44.5160533" lon="8.9770559"><ele>468.0</ele><time>2026-04-18T05:43:39.999Z</time></trkpt><trkpt lat="44.5161414" lon="8.9771788"><ele>468.0</ele><time>2026-04-18T05:43:40.999Z</time></trkpt><trkpt lat="44.5162166" lon="8.9772896"><ele>468.0</ele><time>2026-04-18T05:43:41.999Z</time></trkpt><trkpt lat="44.5162863" lon="8.9774087"><ele>470.0</ele><time>2026-04-18T05:43:42.999Z</time></trkpt><trkpt lat="44.5163501" lon="8.977545"><ele>472.0</ele><time>2026-04-18T05:43:43.999Z</time></trkpt><trkpt lat="44.5164082" lon="8.9776992"><ele>474.0</ele><time>2026-04-18T05:43:44.999Z</time></trkpt><trkpt lat="44.5164376" lon="8.9778622"><ele>476.0</ele><time>2026-04-18T05:43:45.999Z</time></trkpt><trkpt lat="44.5164764" lon="8.9780194"><ele>476.0</ele><time>2026-04-18T05:43:46.999Z</time></trkpt><trkpt lat="44.5165235" lon="8.9781758"><ele>476.0</ele><time>2026-04-18T05:43:47.999Z</time></trkpt><trkpt lat="44.5165752" lon="8.9783278"><ele>476.0</ele><time>2026-04-18T05:43:48.999Z</time></trkpt><trkpt lat="44.5166503" lon="8.9784766"><ele>476.0</ele><time>2026-04-18T05:43:49.999Z</time></trkpt><trkpt lat="44.5167107" lon="8.9785976"><ele>474.4</ele><time>2026-04-18T05:43:50.999Z</time></trkpt><trkpt lat="44.5167521" lon="8.9787356"><ele>472.8</ele><time>2026-04-18T05:43:51.999Z</time></trkpt><trkpt lat="44.5167767" lon="8.9788841"><ele>471.19999999999993</ele><time>2026-04-18T05:43:52.999Z</time></trkpt><trkpt lat="44.5167831" lon="8.9790279"><ele>469.59999999999997</ele><time>2026-04-18T05:43:53.999Z</time></trkpt><trkpt lat="44.5167831" lon="8.9791741"><ele>468.0</ele><time>2026-04-18T05:43:54.999Z</time></trkpt><trkpt lat="44.5167958" lon="8.979313"><ele>467.5</ele><time>2026-04-18T05:43:55.999Z</time></trkpt><trkpt lat="44.5168301" lon="8.9794377"><ele>467.0</ele><time>2026-04-18T05:43:56.999Z</time></trkpt><trkpt lat="44.5168803" lon="8.9795457"><ele>466.5</ele><time>2026-04-18T05:43:57.999Z</time></trkpt><trkpt lat="44.5169392" lon="8.9796392"><ele>466.0</ele><time>2026-04-18T05:43:58.999Z</time></trkpt><trkpt lat="44.5169795" lon="8.979728"><ele>465.5</ele><time>2026-04-18T05:43:59.999Z</time></trkpt><trkpt lat="44.5170099" lon="8.9798194"><ele>465.0</ele><time>2026-04-18T05:44:00.999Z</time></trkpt><trkpt lat="44.516984" lon="8.9799013"><ele>465.0</ele><time>2026-04-18T05:44:01.999Z</time></trkpt><trkpt lat="44.5169472" lon="8.9800013"><ele>465.0</ele><time>2026-04-18T05:44:02.999Z</time></trkpt><trkpt lat="44.5168931" lon="8.9801061"><ele>465.0</ele><time>2026-04-18T05:44:03.999Z</time></trkpt><trkpt lat="44.5168554" lon="8.980232"><ele>465.0</ele><time>2026-04-18T05:44:04.999Z</time></trkpt><trkpt lat="44.5168239" lon="8.9803644"><ele>465.0</ele><time>2026-04-18T05:44:06Z</time></trkpt><trkpt lat="44.5168064" lon="8.9804977"><ele>463.8</ele><time>2026-04-18T05:44:06.999Z</time></trkpt><trkpt lat="44.5168179" lon="8.9806527"><ele>462.6</ele><time>2026-04-18T05:44:07.999Z</time></trkpt><trkpt lat="44.5168319" lon="8.9808035"><ele>461.4</ele><time>2026-04-18T05:44:08.999Z</time></trkpt><trkpt lat="44.5168532" lon="8.9809556"><ele>460.2</ele><time>2026-04-18T05:44:09.999Z</time></trkpt><trkpt lat="44.5168765" lon="8.9811168"><ele>459.0</ele><time>2026-04-18T05:44:10.999Z</time></trkpt><trkpt lat="44.516923" lon="8.9812655"><ele>460.75</ele><time>2026-04-18T05:44:11.999Z</time></trkpt><trkpt lat="44.5169687" lon="8.981421"><ele>462.5</ele><time>2026-04-18T05:44:12.999Z</time></trkpt><trkpt lat="44.5170385" lon="8.9815821"><ele>464.25</ele><time>2026-04-18T05:44:13.999Z</time></trkpt><trkpt lat="44.5171075" lon="8.9817375"><ele>466.0</ele><time>2026-04-18T05:44:14.999Z</time></trkpt><trkpt lat="44.5171863" lon="8.9818739"><ele>466.0</ele><time>2026-04-18T05:44:15.999Z</time></trkpt><trkpt lat="44.5172566" lon="8.9820239"><ele>466.0</ele><time>2026-04-18T05:44:16.999Z</time></trkpt><trkpt lat="44.5173187" lon="8.9821766"><ele>466.0</ele><time>2026-04-18T05:44:17.999Z</time></trkpt><trkpt lat="44.5173609" lon="8.9823146"><ele>466.0</ele><time>2026-04-18T05:44:18.999Z</time></trkpt><trkpt lat="44.5174013" lon="8.982452"><ele>461.6</ele><time>2026-04-18T05:44:19.999Z</time></trkpt><trkpt lat="44.5174401" lon="8.9825592"><ele>457.20000000000005</ele><time>2026-04-18T05:44:20.999Z</time></trkpt><trkpt lat="44.5175034" lon="8.9826623"><ele>452.79999999999995</ele><time>2026-04-18T05:44:21.999Z</time></trkpt><trkpt lat="44.5175757" lon="8.9827445"><ele>448.4</ele><time>2026-04-18T05:44:22.999Z</time></trkpt><trkpt lat="44.5176828" lon="8.9827427"><ele>444.0</ele><time>2026-04-18T05:44:23.999Z</time></trkpt><trkpt lat="44.5177731" lon="8.9827631"><ele>444.0</ele><time>2026-04-18T05:44:24.999Z</time></trkpt><trkpt lat="44.5178534" lon="8.9828092"><ele>444.0</ele><time>2026-04-18T05:44:25.999Z</time></trkpt><trkpt lat="44.517907" lon="8.9828989"><ele>444.0</ele><time>2026-04-18T05:44:27Z</time></trkpt><trkpt lat="44.5179185" lon="8.9830143"><ele>444.0</ele><time>2026-04-18T05:44:27.999Z</time></trkpt><trkpt lat="44.5179393" lon="8.9831265"><ele>444.0</ele><time>2026-04-18T05:44:28.999Z</time></trkpt><trkpt lat="44.5179236" lon="8.9832585"><ele>444.0</ele><time>2026-04-18T05:44:29.999Z</time></trkpt><trkpt lat="44.5179279" lon="8.9833845"><ele>446.79999999999995</ele><time>2026-04-18T05:44:30.999Z</time></trkpt><trkpt lat="44.5179821" lon="8.983526"><ele>449.59999999999997</ele><time>2026-04-18T05:44:31.999Z</time></trkpt><trkpt lat="44.5180222" lon="8.9836402"><ele>452.4</ele><time>2026-04-18T05:44:32.999Z</time></trkpt><trkpt lat="44.5180852" lon="8.9837422"><ele>455.2</ele><time>2026-04-18T05:44:33.999Z</time></trkpt><trkpt lat="44.5181689" lon="8.9838075"><ele>458.0</ele><time>2026-04-18T05:44:34.999Z</time></trkpt><trkpt lat="44.5182508" lon="8.9838593"><ele>458.0</ele><time>2026-04-18T05:44:35.999Z</time></trkpt><trkpt lat="44.5183286" lon="8.9839267"><ele>457.99999999999994</ele><time>2026-04-18T05:44:36.999Z</time></trkpt><trkpt lat="44.5184149" lon="8.9839589"><ele>457.99999999999994</ele><time>2026-04-18T05:44:37.999Z</time></trkpt><trkpt lat="44.5185147" lon="8.9839966"><ele>458.0</ele><time>2026-04-18T05:44:38.999Z</time></trkpt><trkpt lat="44.5186038" lon="8.9839516"><ele>458.0</ele><time>2026-04-18T05:44:39.999Z</time></trkpt><trkpt lat="44.518682" lon="8.9839289"><ele>459.4</ele><time>2026-04-18T05:44:40.999Z</time></trkpt><trkpt lat="44.518777" lon="8.9839363"><ele>460.79999999999995</ele><time>2026-04-18T05:44:41.999Z</time></trkpt><trkpt lat="44.5188677" lon="8.9839572"><ele>462.2</ele><time>2026-04-18T05:44:43Z</time></trkpt><trkpt lat="44.5189295" lon="8.9840393"><ele>463.6</ele><time>2026-04-18T05:44:43.999Z</time></trkpt><trkpt lat="44.5189794" lon="8.984206"><ele>465.0</ele><time>2026-04-18T05:44:44.999Z</time></trkpt><trkpt lat="44.5190028" lon="8.9843663"><ele>465.0</ele><time>2026-04-18T05:44:45.999Z</time></trkpt><trkpt lat="44.5190495" lon="8.9845175"><ele>465.0</ele><time>2026-04-18T05:44:46.999Z</time></trkpt><trkpt lat="44.5190888" lon="8.9846796"><ele>465.0</ele><time>2026-04-18T05:44:47.999Z</time></trkpt><trkpt lat="44.5191312" lon="8.9848327"><ele>465.0</ele><time>2026-04-18T05:44:48.999Z</time></trkpt><trkpt lat="44.5191713" lon="8.9849755"><ele>462.4</ele><time>2026-04-18T05:44:49.999Z</time></trkpt><trkpt lat="44.5192503" lon="8.9851099"><ele>459.8</ele><time>2026-04-18T05:44:50.999Z</time></trkpt><trkpt lat="44.5193319" lon="8.9852127"><ele>457.20000000000005</ele><time>2026-04-18T05:44:51.999Z</time></trkpt><trkpt lat="44.5194198" lon="8.9852944"><ele>454.6</ele><time>2026-04-18T05:44:52.999Z</time></trkpt><trkpt lat="44.5194972" lon="8.9853974"><ele>452.0</ele><time>2026-04-18T05:44:53.999Z</time></trkpt><trkpt lat="44.5195479" lon="8.9855159"><ele>458.0</ele><time>2026-04-18T05:44:54.999Z</time></trkpt><trkpt lat="44.5195793" lon="8.9856674"><ele>464.0</ele><time>2026-04-18T05:44:55.999Z</time></trkpt><trkpt lat="44.5195795" lon="8.985811"><ele>470.0</ele><time>2026-04-18T05:44:56.999Z</time></trkpt><trkpt lat="44.5195842" lon="8.9859751"><ele>476.0</ele><time>2026-04-18T05:44:57.999Z</time></trkpt><trkpt lat="44.5195903" lon="8.9861488"><ele>476.0</ele><time>2026-04-18T05:44:58.999Z</time></trkpt><trkpt lat="44.519589" lon="8.9863127"><ele>476.0</ele><time>2026-04-18T05:44:59.999Z</time></trkpt><trkpt lat="44.51959" lon="8.9864848"><ele>476.0</ele><time>2026-04-18T05:45:00.999Z</time></trkpt><trkpt lat="44.5195815" lon="8.9866415"><ele>476.0</ele><time>2026-04-18T05:45:01.999Z</time></trkpt><trkpt lat="44.5195755" lon="8.9868041"><ele>475.20000000000005</ele><time>2026-04-18T05:45:02.999Z</time></trkpt><trkpt lat="44.5195776" lon="8.9869543"><ele>474.40000000000003</ele><time>2026-04-18T05:45:03.999Z</time></trkpt><trkpt lat="44.5195884" lon="8.9871041"><ele>473.6</ele><time>2026-04-18T05:45:04.999Z</time></trkpt><trkpt lat="44.5196047" lon="8.987237"><ele>472.8</ele><time>2026-04-18T05:45:05.999Z</time></trkpt><trkpt lat="44.5196223" lon="8.9873473"><ele>472.0</ele><time>2026-04-18T05:45:06.999Z</time></trkpt><trkpt lat="44.5196424" lon="8.9874965"><ele>471.83333333333337</ele><time>2026-04-18T05:45:09Z</time></trkpt><trkpt lat="44.5196671" lon="8.9876172"><ele>471.6666666666667</ele><time>2026-04-18T05:45:10.999Z</time></trkpt><trkpt lat="44.5196922" lon="8.987729"><ele>471.5</ele><time>2026-04-18T05:45:12.999Z</time></trkpt><trkpt lat="44.5197234" lon="8.9878085"><ele>471.33333333333337</ele><time>2026-04-18T05:45:15.999Z</time></trkpt><trkpt lat="44.51979" lon="8.9878816"><ele>471.1666666666667</ele><time>2026-04-18T05:45:17.999Z</time></trkpt><trkpt lat="44.5199087" lon="8.9879087"><ele>471.0</ele><time>2026-04-18T05:45:19.999Z</time></trkpt><trkpt lat="44.5199779" lon="8.9878814"><ele>471.0</ele><time>2026-04-18T05:45:20.999Z</time></trkpt><trkpt lat="44.5200584" lon="8.9878512"><ele>471.0</ele><time>2026-04-18T05:45:21.999Z</time></trkpt><trkpt lat="44.5201575" lon="8.987827"><ele>471.0</ele><time>2026-04-18T05:45:22.999Z</time></trkpt><trkpt lat="44.5202543" lon="8.9877864"><ele>471.0</ele><time>2026-04-18T05:45:23.999Z</time></trkpt><trkpt lat="44.5203525" lon="8.9877656"><ele>471.0</ele><time>2026-04-18T05:45:24.999Z</time></trkpt><trkpt lat="44.520445" lon="8.9877419"><ele>469.6</ele><time>2026-04-18T05:45:25.999Z</time></trkpt><trkpt lat="44.5205443" lon="8.9877281"><ele>468.20000000000005</ele><time>2026-04-18T05:45:26.999Z</time></trkpt><trkpt lat="44.5206427" lon="8.9877136"><ele>466.79999999999995</ele><time>2026-04-18T05:45:27.999Z</time></trkpt><trkpt lat="44.5207447" lon="8.9877074"><ele>465.4</ele><time>2026-04-18T05:45:28.999Z</time></trkpt><trkpt lat="44.5208618" lon="8.9876817"><ele>464.0</ele><time>2026-04-18T05:45:29.999Z</time></trkpt><trkpt lat="44.5209639" lon="8.987667"><ele>464.0</ele><time>2026-04-18T05:45:30.999Z</time></trkpt><trkpt lat="44.5210813" lon="8.9876528"><ele>464.0</ele><time>2026-04-18T05:45:31.999Z</time></trkpt><trkpt lat="44.5212" lon="8.9876425"><ele>464.0</ele><time>2026-04-18T05:45:32.999Z</time></trkpt><trkpt lat="44.5213073" lon="8.9876269"><ele>464.0</ele><time>2026-04-18T05:45:33.999Z</time></trkpt><trkpt lat="44.5214242" lon="8.9876149"><ele>463.0</ele><time>2026-04-18T05:45:34.999Z</time></trkpt><trkpt lat="44.5215343" lon="8.9876176"><ele>462.0</ele><time>2026-04-18T05:45:36Z</time></trkpt><trkpt lat="44.5216513" lon="8.9876353"><ele>461.0</ele><time>2026-04-18T05:45:36.999Z</time></trkpt><trkpt lat="44.5217555" lon="8.9876623"><ele>460.0</ele><time>2026-04-18T05:45:37.999Z</time></trkpt><trkpt lat="44.5218572" lon="8.9877047"><ele>459.0</ele><time>2026-04-18T05:45:38.999Z</time></trkpt><trkpt lat="44.5219583" lon="8.9877555"><ele>459.0</ele><time>2026-04-18T05:45:39.999Z</time></trkpt><trkpt lat="44.5220506" lon="8.9878105"><ele>459.0</ele><time>2026-04-18T05:45:40.999Z</time></trkpt><trkpt lat="44.5221627" lon="8.9878587"><ele>459.0</ele><time>2026-04-18T05:45:41.999Z</time></trkpt><trkpt lat="44.5222571" lon="8.9879139"><ele>459.0</ele><time>2026-04-18T05:45:42.999Z</time></trkpt><trkpt lat="44.5223602" lon="8.9879751"><ele>459.0</ele><time>2026-04-18T05:45:43.999Z</time></trkpt><trkpt lat="44.5224575" lon="8.9880315"><ele>458.6666666666667</ele><time>2026-04-18T05:45:44.999Z</time></trkpt><trkpt lat="44.5225515" lon="8.9880811"><ele>458.33333333333337</ele><time>2026-04-18T05:45:45.999Z</time></trkpt><trkpt lat="44.5226005" lon="8.9881381"><ele>458.0</ele><time>2026-04-18T05:45:46.999Z</time></trkpt><trkpt lat="44.5226648" lon="8.988287"><ele>457.6666666666667</ele><time>2026-04-18T05:45:48.999Z</time></trkpt><trkpt lat="44.5227153" lon="8.988388"><ele>457.33333333333337</ele><time>2026-04-18T05:45:50.999Z</time></trkpt><trkpt lat="44.5227819" lon="8.9884254"><ele>457.0</ele><time>2026-04-18T05:45:52.999Z</time></trkpt><trkpt lat="44.5228515" lon="8.9884357"><ele>456.00000000000006</ele><time>2026-04-18T05:45:54.999Z</time></trkpt><trkpt lat="44.5229181" lon="8.9884711"><ele>455.0</ele><time>2026-04-18T05:45:56.999Z</time></trkpt><trkpt lat="44.5229983" lon="8.9884743"><ele>454.0</ele><time>2026-04-18T05:49:22.999Z</time></trkpt><trkpt lat="44.5230564" lon="8.9883876"><ele>453.0</ele><time>2026-04-18T05:49:25.999Z</time></trkpt><trkpt lat="44.5231296" lon="8.9883789"><ele>452.00000000000006</ele><time>2026-04-18T05:49:27.999Z</time></trkpt><trkpt lat="44.5232457" lon="8.9884105"><ele>451.0</ele><time>2026-04-18T05:49:29.999Z</time></trkpt><trkpt lat="44.5233245" lon="8.9884415"><ele>451.0</ele><time>2026-04-18T05:49:30.999Z</time></trkpt><trkpt lat="44.5234092" lon="8.9884785"><ele>451.0</ele><time>2026-04-18T05:49:31.999Z</time></trkpt><trkpt lat="44.5234858" lon="8.9885115"><ele>451.0</ele><time>2026-04-18T05:49:32.999Z</time></trkpt><trkpt lat="44.5235735" lon="8.9885479"><ele>451.0</ele><time>2026-04-18T05:49:33.999Z</time></trkpt><trkpt lat="44.5236637" lon="8.9885825"><ele>451.0</ele><time>2026-04-18T05:49:34.999Z</time></trkpt><trkpt lat="44.5237569" lon="8.9886277"><ele>451.0</ele><time>2026-04-18T05:49:35.999Z</time></trkpt><trkpt lat="44.523851" lon="8.9886806"><ele>451.0</ele><time>2026-04-18T05:49:36.999Z</time></trkpt><trkpt lat="44.5239529" lon="8.9887422"><ele>451.0</ele><time>2026-04-18T05:49:37.999Z</time></trkpt><trkpt lat="44.5240392" lon="8.9888272"><ele>451.0</ele><time>2026-04-18T05:49:38.999Z</time></trkpt><trkpt lat="44.5241252" lon="8.9889185"><ele>451.0</ele><time>2026-04-18T05:49:39.999Z</time></trkpt><trkpt lat="44.5242066" lon="8.9890154"><ele>451.0</ele><time>2026-04-18T05:49:40.999Z</time></trkpt><trkpt lat="44.524303" lon="8.9891129"><ele>451.0</ele><time>2026-04-18T05:49:41.999Z</time></trkpt><trkpt lat="44.5244121" lon="8.9892138"><ele>451.0</ele><time>2026-04-18T05:49:42.999Z</time></trkpt><trkpt lat="44.5245144" lon="8.9892993"><ele>451.0</ele><time>2026-04-18T05:49:43.999Z</time></trkpt><trkpt lat="44.5246208" lon="8.989391"><ele>448.75</ele><time>2026-04-18T05:49:44.999Z</time></trkpt><trkpt lat="44.524737" lon="8.9894781"><ele>446.5</ele><time>2026-04-18T05:49:45.999Z</time></trkpt><trkpt lat="44.5248568" lon="8.9895796"><ele>444.25</ele><time>2026-04-18T05:49:46.999Z</time></trkpt><trkpt lat="44.524984" lon="8.9896849"><ele>442.0</ele><time>2026-04-18T05:49:47.999Z</time></trkpt><trkpt lat="44.5250989" lon="8.989774"><ele>442.0</ele><time>2026-04-18T05:49:48.999Z</time></trkpt><trkpt lat="44.525212" lon="8.9898609"><ele>442.0</ele><time>2026-04-18T05:49:49.999Z</time></trkpt><trkpt lat="44.5253278" lon="8.9899438"><ele>442.0</ele><time>2026-04-18T05:49:50.999Z</time></trkpt><trkpt lat="44.5254428" lon="8.990026"><ele>442.0</ele><time>2026-04-18T05:49:51.999Z</time></trkpt><trkpt lat="44.5255517" lon="8.9901015"><ele>439.25</ele><time>2026-04-18T05:49:52.999Z</time></trkpt><trkpt lat="44.5256659" lon="8.9901763"><ele>436.5</ele><time>2026-04-18T05:49:53.999Z</time></trkpt><trkpt lat="44.5257834" lon="8.9902515"><ele>433.75</ele><time>2026-04-18T05:49:54.999Z</time></trkpt><trkpt lat="44.5259069" lon="8.9903152"><ele>431.0</ele><time>2026-04-18T05:49:55.999Z</time></trkpt><trkpt lat="44.5260265" lon="8.9903894"><ele>431.0</ele><time>2026-04-18T05:49:56.999Z</time></trkpt><trkpt lat="44.5261504" lon="8.9904714"><ele>431.0</ele><time>2026-04-18T05:49:57.999Z</time></trkpt><trkpt lat="44.5262654" lon="8.9905458"><ele>431.0</ele><time>2026-04-18T05:49:58.999Z</time></trkpt><trkpt lat="44.5263784" lon="8.9906079"><ele>431.0</ele><time>2026-04-18T05:49:59.999Z</time></trkpt><trkpt lat="44.5264785" lon="8.990687"><ele>431.0</ele><time>2026-04-18T05:50:00.999Z</time></trkpt><trkpt lat="44.5266112" lon="8.9907666"><ele>431.0</ele><time>2026-04-18T05:50:01.999Z</time></trkpt><trkpt lat="44.5267283" lon="8.9908419"><ele>431.0</ele><time>2026-04-18T05:50:02.999Z</time></trkpt><trkpt lat="44.5268419" lon="8.9909282"><ele>431.0</ele><time>2026-04-18T05:50:03.999Z</time></trkpt><trkpt lat="44.5269616" lon="8.9910118"><ele>430.0</ele><time>2026-04-18T05:50:04.999Z</time></trkpt><trkpt lat="44.5270952" lon="8.9910956"><ele>429.0</ele><time>2026-04-18T05:50:05.999Z</time></trkpt><trkpt lat="44.5272112" lon="8.9911856"><ele>428.0</ele><time>2026-04-18T05:50:06.999Z</time></trkpt><trkpt lat="44.5273356" lon="8.9912781"><ele>427.0</ele><time>2026-04-18T05:50:07.999Z</time></trkpt><trkpt lat="44.5274594" lon="8.9913509"><ele>427.0</ele><time>2026-04-18T05:50:08.999Z</time></trkpt><trkpt lat="44.5275764" lon="8.9914388"><ele>427.0</ele><time>2026-04-18T05:50:10Z</time></trkpt><trkpt lat="44.5277067" lon="8.9915357"><ele>427.0</ele><time>2026-04-18T05:50:10.999Z</time></trkpt><trkpt lat="44.5278134" lon="8.991624"><ele>427.0</ele><time>2026-04-18T05:50:11.999Z</time></trkpt><trkpt lat="44.5279318" lon="8.9917275"><ele>424.0</ele><time>2026-04-18T05:50:12.999Z</time></trkpt><trkpt lat="44.5280526" lon="8.9918446"><ele>421.0</ele><time>2026-04-18T05:50:13.999Z</time></trkpt><trkpt lat="44.5281686" lon="8.9919578"><ele>418.0</ele><time>2026-04-18T05:50:14.999Z</time></trkpt><trkpt lat="44.5282872" lon="8.9920696"><ele>415.0</ele><time>2026-04-18T05:50:15.999Z</time></trkpt><trkpt lat="44.5283844" lon="8.9921616"><ele>415.0</ele><time>2026-04-18T05:50:16.999Z</time></trkpt><trkpt lat="44.528488" lon="8.9922578"><ele>415.0</ele><time>2026-04-18T05:50:17.999Z</time></trkpt><trkpt lat="44.5285938" lon="8.9923523"><ele>415.0</ele><time>2026-04-18T05:50:18.999Z</time></trkpt><trkpt lat="44.5287074" lon="8.9924332"><ele>415.0</ele><time>2026-04-18T05:50:19.999Z</time></trkpt><trkpt lat="44.5288211" lon="8.9924846"><ele>414.5</ele><time>2026-04-18T05:50:20.999Z</time></trkpt><trkpt lat="44.5289326" lon="8.9925033"><ele>414.0</ele><time>2026-04-18T05:50:21.999Z</time></trkpt><trkpt lat="44.5290866" lon="8.9925187"><ele>413.5</ele><time>2026-04-18T05:50:22.999Z</time></trkpt><trkpt lat="44.5292206" lon="8.9925344"><ele>413.0</ele><time>2026-04-18T05:50:23.999Z</time></trkpt><trkpt lat="44.529354" lon="8.9925583"><ele>411.25</ele><time>2026-04-18T05:50:24.999Z</time></trkpt><trkpt lat="44.5294907" lon="8.9925801"><ele>409.5</ele><time>2026-04-18T05:50:25.999Z</time></trkpt><trkpt lat="44.5296318" lon="8.9925833"><ele>407.75</ele><time>2026-04-18T05:50:26.999Z</time></trkpt><trkpt lat="44.5297544" lon="8.9925933"><ele>406.0</ele><time>2026-04-18T05:50:27.999Z</time></trkpt><trkpt lat="44.5298952" lon="8.9926077"><ele>404.75</ele><time>2026-04-18T05:50:28.999Z</time></trkpt><trkpt lat="44.5300389" lon="8.9926244"><ele>403.5</ele><time>2026-04-18T05:50:29.999Z</time></trkpt><trkpt lat="44.5301749" lon="8.992661"><ele>402.25</ele><time>2026-04-18T05:50:30.999Z</time></trkpt><trkpt lat="44.5303094" lon="8.9927088"><ele>401.0</ele><time>2026-04-18T05:50:31.999Z</time></trkpt><trkpt lat="44.5304417" lon="8.9927587"><ele>399.25</ele><time>2026-04-18T05:50:32.999Z</time></trkpt><trkpt lat="44.530568" lon="8.9928174"><ele>397.5</ele><time>2026-04-18T05:50:33.999Z</time></trkpt><trkpt lat="44.5307031" lon="8.9928752"><ele>395.75</ele><time>2026-04-18T05:50:34.999Z</time></trkpt><trkpt lat="44.5308354" lon="8.9929315"><ele>394.0</ele><time>2026-04-18T05:50:35.999Z</time></trkpt><trkpt lat="44.530958" lon="8.9929856"><ele>394.0</ele><time>2026-04-18T05:50:36.999Z</time></trkpt><trkpt lat="44.5310864" lon="8.9930391"><ele>394.0</ele><time>2026-04-18T05:50:38Z</time></trkpt><trkpt lat="44.531219" lon="8.9930971"><ele>394.0</ele><time>2026-04-18T05:50:38.999Z</time></trkpt><trkpt lat="44.5313467" lon="8.9931533"><ele>394.0</ele><time>2026-04-18T05:50:39.999Z</time></trkpt><trkpt lat="44.5314652" lon="8.9932065"><ele>394.5</ele><time>2026-04-18T05:50:41.106Z</time></trkpt><trkpt lat="44.5316634" lon="8.9932901"><ele>395.0</ele><time>2026-04-18T05:50:42.999Z</time></trkpt><trkpt lat="44.5317358" lon="8.9933204"><ele>395.5</ele><time>2026-04-18T05:50:44.1Z</time></trkpt><trkpt lat="44.5318561" lon="8.9933609"><ele>396.0</ele><time>2026-04-18T05:50:45.999Z</time></trkpt><trkpt lat="44.5319302" lon="8.9934751"><ele>396.3333333333333</ele><time>2026-04-18T05:50:47.999Z</time></trkpt><trkpt lat="44.5319388" lon="8.9935645"><ele>396.66666666666663</ele><time>2026-04-18T05:50:48.999Z</time></trkpt><trkpt lat="44.5319378" lon="8.993676"><ele>397.0</ele><time>2026-04-18T05:50:49.999Z</time></trkpt><trkpt lat="44.5319328" lon="8.9937965"><ele>397.3333333333333</ele><time>2026-04-18T05:50:50.999Z</time></trkpt><trkpt lat="44.5319263" lon="8.9939391"><ele>397.66666666666663</ele><time>2026-04-18T05:50:51.999Z</time></trkpt><trkpt lat="44.5319195" lon="8.9941018"><ele>398.0</ele><time>2026-04-18T05:50:52.999Z</time></trkpt><trkpt lat="44.5319139" lon="8.9942733"><ele>398.0</ele><time>2026-04-18T05:50:54Z</time></trkpt><trkpt lat="44.5319082" lon="8.9944527"><ele>398.0</ele><time>2026-04-18T05:50:54.999Z</time></trkpt><trkpt lat="44.531903" lon="8.9946378"><ele>398.0</ele><time>2026-04-18T05:50:55.999Z</time></trkpt><trkpt lat="44.5318954" lon="8.9948388"><ele>398.0</ele><time>2026-04-18T05:50:56.999Z</time></trkpt><trkpt lat="44.531884" lon="8.9950432"><ele>398.0</ele><time>2026-04-18T05:50:57.999Z</time></trkpt><trkpt lat="44.5318796" lon="8.9952421"><ele>398.0</ele><time>2026-04-18T05:50:58.999Z</time></trkpt><trkpt lat="44.5318725" lon="8.9954503"><ele>398.0</ele><time>2026-04-18T05:50:59.999Z</time></trkpt><trkpt lat="44.5318625" lon="8.9956687"><ele>398.0</ele><time>2026-04-18T05:51:00.999Z</time></trkpt><trkpt lat="44.5318528" lon="8.9958948"><ele>397.66666666666663</ele><time>2026-04-18T05:51:01.999Z</time></trkpt><trkpt lat="44.5318437" lon="8.9961305"><ele>397.33333333333337</ele><time>2026-04-18T05:51:02.999Z</time></trkpt><trkpt lat="44.5318362" lon="8.9963678"><ele>397.0</ele><time>2026-04-18T05:51:03.999Z</time></trkpt><trkpt lat="44.5318274" lon="8.9966102"><ele>397.0</ele><time>2026-04-18T05:51:04.999Z</time></trkpt><trkpt lat="44.5318199" lon="8.9968619"><ele>397.0</ele><time>2026-04-18T05:51:05.999Z</time></trkpt><trkpt lat="44.5318067" lon="8.9971128"><ele>397.0</ele><time>2026-04-18T05:51:06.999Z</time></trkpt><trkpt lat="44.5317968" lon="8.9973682"><ele>398.0</ele><time>2026-04-18T05:51:07.999Z</time></trkpt><trkpt lat="44.5317855" lon="8.9976235"><ele>399.0</ele><time>2026-04-18T05:51:08.999Z</time></trkpt><trkpt lat="44.5317739" lon="8.997889"><ele>400.0</ele><time>2026-04-18T05:51:09.999Z</time></trkpt><trkpt lat="44.5317609" lon="8.9981248"><ele>399.33333333333337</ele><time>2026-04-18T05:51:10.999Z</time></trkpt><trkpt lat="44.5317498" lon="8.9983804"><ele>398.66666666666663</ele><time>2026-04-18T05:51:11.999Z</time></trkpt><trkpt lat="44.5317428" lon="8.9986281"><ele>398.0</ele><time>2026-04-18T05:51:12.999Z</time></trkpt><trkpt lat="44.5317338" lon="8.9988718"><ele>398.0</ele><time>2026-04-18T05:51:13.999Z</time></trkpt><trkpt lat="44.5317219" lon="8.9991181"><ele>398.0</ele><time>2026-04-18T05:51:14.999Z</time></trkpt><trkpt lat="44.5317108" lon="8.9993589"><ele>398.0</ele><time>2026-04-18T05:51:15.999Z</time></trkpt><trkpt lat="44.5316988" lon="8.9996056"><ele>397.66666666666663</ele><time>2026-04-18T05:51:16.999Z</time></trkpt><trkpt lat="44.5316887" lon="8.9998493"><ele>397.33333333333337</ele><time>2026-04-18T05:51:17.999Z</time></trkpt><trkpt lat="44.5316744" lon="9.000092"><ele>397.0</ele><time>2026-04-18T05:51:18.999Z</time></trkpt><trkpt lat="44.5316667" lon="9.000332"><ele>397.0</ele><time>2026-04-18T05:51:20Z</time></trkpt><trkpt lat="44.5316526" lon="9.0005816"><ele>397.0</ele><time>2026-04-18T05:51:20.999Z</time></trkpt><trkpt lat="44.5316424" lon="9.0008272"><ele>397.0</ele><time>2026-04-18T05:51:21.999Z</time></trkpt><trkpt lat="44.5316378" lon="9.001059"><ele>397.6666666666667</ele><time>2026-04-18T05:51:22.999Z</time></trkpt><trkpt lat="44.5316268" lon="9.0012908"><ele>398.33333333333337</ele><time>2026-04-18T05:51:23.999Z</time></trkpt><trkpt lat="44.5316209" lon="9.0015251"><ele>399.0</ele><time>2026-04-18T05:51:24.999Z</time></trkpt><trkpt lat="44.5316133" lon="9.0017603"><ele>399.33333333333337</ele><time>2026-04-18T05:51:25.999Z</time></trkpt><trkpt lat="44.5316034" lon="9.0019939"><ele>399.6666666666667</ele><time>2026-04-18T05:51:26.999Z</time></trkpt><trkpt lat="44.5315956" lon="9.0022311"><ele>400.0</ele><time>2026-04-18T05:51:27.999Z</time></trkpt><trkpt lat="44.531588" lon="9.0024793"><ele>400.33333333333337</ele><time>2026-04-18T05:51:28.999Z</time></trkpt><trkpt lat="44.5315765" lon="9.0027236"><ele>400.66666666666663</ele><time>2026-04-18T05:51:29.999Z</time></trkpt><trkpt lat="44.5315682" lon="9.0029602"><ele>401.0</ele><time>2026-04-18T05:51:30.999Z</time></trkpt><trkpt lat="44.5315542" lon="9.00321"><ele>401.0</ele><time>2026-04-18T05:51:31.999Z</time></trkpt><trkpt lat="44.5315471" lon="9.0034536"><ele>401.0</ele><time>2026-04-18T05:51:32.999Z</time></trkpt><trkpt lat="44.5315414" lon="9.0037012"><ele>401.0</ele><time>2026-04-18T05:51:33.999Z</time></trkpt><trkpt lat="44.5315305" lon="9.0039487"><ele>401.66666666666663</ele><time>2026-04-18T05:51:34.999Z</time></trkpt><trkpt lat="44.5315215" lon="9.0041882"><ele>402.33333333333337</ele><time>2026-04-18T05:51:35.999Z</time></trkpt><trkpt lat="44.5315145" lon="9.0044193"><ele>403.0</ele><time>2026-04-18T05:51:36.999Z</time></trkpt><trkpt lat="44.531507" lon="9.0046545"><ele>403.0</ele><time>2026-04-18T05:51:37.999Z</time></trkpt><trkpt lat="44.5314984" lon="9.0048842"><ele>403.0</ele><time>2026-04-18T05:51:38.999Z</time></trkpt><trkpt lat="44.5314894" lon="9.0051237"><ele>403.0</ele><time>2026-04-18T05:51:39.999Z</time></trkpt><trkpt lat="44.5314774" lon="9.0053538"><ele>403.5</ele><time>2026-04-18T05:51:40.999Z</time></trkpt><trkpt lat="44.5314728" lon="9.005577"><ele>404.0</ele><time>2026-04-18T05:51:41.999Z</time></trkpt><trkpt lat="44.5314685" lon="9.0057807"><ele>404.5</ele><time>2026-04-18T05:51:42.999Z</time></trkpt><trkpt lat="44.5314739" lon="9.0059831"><ele>405.0</ele><time>2026-04-18T05:51:43.999Z</time></trkpt><trkpt lat="44.5314894" lon="9.0061894"><ele>405.25</ele><time>2026-04-18T05:51:45Z</time></trkpt><trkpt lat="44.5315114" lon="9.0063712"><ele>405.5</ele><time>2026-04-18T05:51:45.999Z</time></trkpt><trkpt lat="44.5315404" lon="9.0065599"><ele>405.75</ele><time>2026-04-18T05:51:46.999Z</time></trkpt><trkpt lat="44.531586" lon="9.0067419"><ele>406.0</ele><time>2026-04-18T05:51:47.999Z</time></trkpt><trkpt lat="44.5316397" lon="9.0069134"><ele>406.0</ele><time>2026-04-18T05:51:48.999Z</time></trkpt><trkpt lat="44.5316908" lon="9.0070741"><ele>406.0</ele><time>2026-04-18T05:51:49.999Z</time></trkpt><trkpt lat="44.5317472" lon="9.0072484"><ele>406.0</ele><time>2026-04-18T05:51:50.999Z</time></trkpt><trkpt lat="44.5318064" lon="9.007425"><ele>406.0</ele><time>2026-04-18T05:51:51.999Z</time></trkpt><trkpt lat="44.5318605" lon="9.0075962"><ele>407.0</ele><time>2026-04-18T05:51:52.999Z</time></trkpt><trkpt lat="44.5319085" lon="9.0077739"><ele>408.0</ele><time>2026-04-18T05:51:53.999Z</time></trkpt><trkpt lat="44.5319681" lon="9.0079455"><ele>409.0</ele><time>2026-04-18T05:51:55Z</time></trkpt><trkpt lat="44.5320288" lon="9.008128"><ele>410.0</ele><time>2026-04-18T05:51:55.999Z</time></trkpt><trkpt lat="44.5320917" lon="9.0082985"><ele>414.5</ele><time>2026-04-18T05:51:56.999Z</time></trkpt><trkpt lat="44.5321521" lon="9.0084842"><ele>419.0</ele><time>2026-04-18T05:51:57.999Z</time></trkpt><trkpt lat="44.5322106" lon="9.0086616"><ele>423.5</ele><time>2026-04-18T05:51:58.999Z</time></trkpt><trkpt lat="44.5322657" lon="9.0088305"><ele>428.0</ele><time>2026-04-18T05:51:59.999Z</time></trkpt><trkpt lat="44.5323197" lon="9.0089952"><ele>427.75</ele><time>2026-04-18T05:52:00.999Z</time></trkpt><trkpt lat="44.5323747" lon="9.0091604"><ele>427.5</ele><time>2026-04-18T05:52:01.999Z</time></trkpt><trkpt lat="44.5324313" lon="9.0093231"><ele>427.25</ele><time>2026-04-18T05:52:02.999Z</time></trkpt><trkpt lat="44.5324846" lon="9.0094658"><ele>427.0</ele><time>2026-04-18T05:52:03.999Z</time></trkpt><trkpt lat="44.5325357" lon="9.0096072"><ele>427.0</ele><time>2026-04-18T05:52:04.999Z</time></trkpt><trkpt lat="44.5325859" lon="9.0097526"><ele>427.00000000000006</ele><time>2026-04-18T05:52:05.999Z</time></trkpt><trkpt lat="44.5326278" lon="9.0098876"><ele>427.00000000000006</ele><time>2026-04-18T05:52:06.999Z</time></trkpt><trkpt lat="44.5326563" lon="9.0100288"><ele>427.0</ele><time>2026-04-18T05:52:07.999Z</time></trkpt><trkpt lat="44.5326728" lon="9.0101721"><ele>427.0</ele><time>2026-04-18T05:52:08.999Z</time></trkpt><trkpt lat="44.5326729" lon="9.0103147"><ele>426.6</ele><time>2026-04-18T05:52:09.999Z</time></trkpt><trkpt lat="44.5326618" lon="9.0104574"><ele>426.20000000000005</ele><time>2026-04-18T05:52:10.999Z</time></trkpt><trkpt lat="44.5326476" lon="9.0106046"><ele>425.8</ele><time>2026-04-18T05:52:11.999Z</time></trkpt><trkpt lat="44.5326282" lon="9.0107502"><ele>425.4</ele><time>2026-04-18T05:52:13Z</time></trkpt><trkpt lat="44.5326083" lon="9.0108885"><ele>425.0</ele><time>2026-04-18T05:52:13.999Z</time></trkpt><trkpt lat="44.53259" lon="9.0110307"><ele>424.25</ele><time>2026-04-18T05:52:15.102Z</time></trkpt><trkpt lat="44.532546" lon="9.0113125"><ele>423.5</ele><time>2026-04-18T05:52:16.999Z</time></trkpt><trkpt lat="44.532531" lon="9.0114635"><ele>422.75</ele><time>2026-04-18T05:52:17.999Z</time></trkpt><trkpt lat="44.5325212" lon="9.0115935"><ele>422.0</ele><time>2026-04-18T05:52:18.999Z</time></trkpt><trkpt lat="44.5325284" lon="9.0117326"><ele>421.40000000000003</ele><time>2026-04-18T05:52:19.999Z</time></trkpt><trkpt lat="44.5325449" lon="9.0118655"><ele>420.8</ele><time>2026-04-18T05:52:20.999Z</time></trkpt><trkpt lat="44.5325729" lon="9.0120066"><ele>420.2</ele><time>2026-04-18T05:52:21.999Z</time></trkpt><trkpt lat="44.5326032" lon="9.0121403"><ele>419.6</ele><time>2026-04-18T05:52:22.999Z</time></trkpt><trkpt lat="44.5326373" lon="9.0122683"><ele>419.0</ele><time>2026-04-18T05:52:23.999Z</time></trkpt><trkpt lat="44.5326714" lon="9.0123685"><ele>418.99999999999994</ele><time>2026-04-18T05:52:24.999Z</time></trkpt><trkpt lat="44.5327008" lon="9.0124766"><ele>419.0</ele><time>2026-04-18T05:52:25.999Z</time></trkpt><trkpt lat="44.5327249" lon="9.0125816"><ele>419.0</ele><time>2026-04-18T05:52:26.999Z</time></trkpt><trkpt lat="44.5327365" lon="9.0126686"><ele>419.0</ele><time>2026-04-18T05:52:27.999Z</time></trkpt><trkpt lat="44.5327099" lon="9.0127855"><ele>418.99999999999994</ele><time>2026-04-18T05:52:28.999Z</time></trkpt><trkpt lat="44.5326741" lon="9.0128767"><ele>419.0</ele><time>2026-04-18T05:52:29.999Z</time></trkpt><trkpt lat="44.5326173" lon="9.0129483"><ele>418.8333333333333</ele><time>2026-04-18T05:52:30.999Z</time></trkpt><trkpt lat="44.532554" lon="9.0129993"><ele>418.66666666666663</ele><time>2026-04-18T05:52:31.999Z</time></trkpt><trkpt lat="44.5324952" lon="9.0130571"><ele>418.5</ele><time>2026-04-18T05:52:32.999Z</time></trkpt><trkpt lat="44.5324415" lon="9.0131068"><ele>418.33333333333337</ele><time>2026-04-18T05:52:33.999Z</time></trkpt><trkpt lat="44.5323513" lon="9.013209"><ele>418.1666666666667</ele><time>2026-04-18T05:52:35.999Z</time></trkpt><trkpt lat="44.5323" lon="9.0132617"><ele>418.0</ele><time>2026-04-18T05:52:36.999Z</time></trkpt><trkpt lat="44.5322361" lon="9.013309"><ele>418.75</ele><time>2026-04-18T05:52:37.999Z</time></trkpt><trkpt lat="44.5321637" lon="9.0133481"><ele>419.5</ele><time>2026-04-18T05:52:38.999Z</time></trkpt><trkpt lat="44.5320829" lon="9.0133769"><ele>420.25</ele><time>2026-04-18T05:52:40.102Z</time></trkpt><trkpt lat="44.5319776" lon="9.0133759"><ele>421.0</ele><time>2026-04-18T05:52:41.102Z</time></trkpt><trkpt lat="44.5317598" lon="9.01331"><ele>419.0</ele><time>2026-04-18T05:52:42.999Z</time></trkpt><trkpt lat="44.5316392" lon="9.0132726"><ele>417.0</ele><time>2026-04-18T05:52:44.108Z</time></trkpt><trkpt lat="44.5315105" lon="9.0132519"><ele>415.0</ele><time>2026-04-18T05:52:44.999Z</time></trkpt><trkpt lat="44.5313768" lon="9.0132278"><ele>413.0</ele><time>2026-04-18T05:52:45.999Z</time></trkpt><trkpt lat="44.5312303" lon="9.0132159"><ele>413.0</ele><time>2026-04-18T05:52:47Z</time></trkpt><trkpt lat="44.531104" lon="9.0131888"><ele>413.0</ele><time>2026-04-18T05:52:47.999Z</time></trkpt><trkpt lat="44.5309705" lon="9.013172"><ele>413.0</ele><time>2026-04-18T05:52:48.999Z</time></trkpt><trkpt lat="44.5308387" lon="9.013152"><ele>413.0</ele><time>2026-04-18T05:52:49.999Z</time></trkpt><trkpt lat="44.5307103" lon="9.0131166"><ele>413.0</ele><time>2026-04-18T05:52:51.101Z</time></trkpt><trkpt lat="44.5304789" lon="9.0130188"><ele>413.0</ele><time>2026-04-18T05:52:52.999Z</time></trkpt><trkpt lat="44.5303713" lon="9.0129514"><ele>413.0</ele><time>2026-04-18T05:52:53.999Z</time></trkpt><trkpt lat="44.5302662" lon="9.0128752"><ele>413.66666666666663</ele><time>2026-04-18T05:52:55.107Z</time></trkpt><trkpt lat="44.5301593" lon="9.0127976"><ele>414.33333333333337</ele><time>2026-04-18T05:52:56.105Z</time></trkpt><trkpt lat="44.5299499" lon="9.0126532"><ele>415.0</ele><time>2026-04-18T05:52:57.999Z</time></trkpt><trkpt lat="44.5298408" lon="9.0125946"><ele>415.0</ele><time>2026-04-18T05:52:58.999Z</time></trkpt><trkpt lat="44.5297296" lon="9.012574"><ele>415.0</ele><time>2026-04-18T05:52:59.999Z</time></trkpt><trkpt lat="44.5296096" lon="9.0125553"><ele>415.0</ele><time>2026-04-18T05:53:00.999Z</time></trkpt><trkpt lat="44.529483" lon="9.0125446"><ele>415.0</ele><time>2026-04-18T05:53:01.999Z</time></trkpt><trkpt lat="44.5293619" lon="9.0125312"><ele>414.25</ele><time>2026-04-18T05:53:02.999Z</time></trkpt><trkpt lat="44.529243" lon="9.0125127"><ele>413.5</ele><time>2026-04-18T05:53:03.999Z</time></trkpt><trkpt lat="44.529125" lon="9.0124716"><ele>412.75</ele><time>2026-04-18T05:53:05Z</time></trkpt><trkpt lat="44.5290087" lon="9.0124347"><ele>412.0</ele><time>2026-04-18T05:53:05.999Z</time></trkpt><trkpt lat="44.5288902" lon="9.0123762"><ele>412.0</ele><time>2026-04-18T05:53:06.999Z</time></trkpt><trkpt lat="44.5287802" lon="9.0123388"><ele>412.0</ele><time>2026-04-18T05:53:07.999Z</time></trkpt><trkpt lat="44.5286707" lon="9.0122993"><ele>412.0</ele><time>2026-04-18T05:53:08.999Z</time></trkpt><trkpt lat="44.5284391" lon="9.0122946"><ele>412.25</ele><time>2026-04-18T05:53:11.111Z</time></trkpt><trkpt lat="44.5282255" lon="9.0123777"><ele>412.5</ele><time>2026-04-18T05:53:12.999Z</time></trkpt><trkpt lat="44.5281402" lon="9.0124583"><ele>412.75</ele><time>2026-04-18T05:53:13.999Z</time></trkpt><trkpt lat="44.5280518" lon="9.0125419"><ele>413.0</ele><time>2026-04-18T05:53:14.999Z</time></trkpt><trkpt lat="44.5279616" lon="9.0126165"><ele>413.0</ele><time>2026-04-18T05:53:15.999Z</time></trkpt><trkpt lat="44.5278609" lon="9.0126894"><ele>413.0</ele><time>2026-04-18T05:53:16.999Z</time></trkpt><trkpt lat="44.527762" lon="9.0127696"><ele>413.0</ele><time>2026-04-18T05:53:17.999Z</time></trkpt><trkpt lat="44.5276704" lon="9.0128459"><ele>413.0</ele><time>2026-04-18T05:53:18.999Z</time></trkpt><trkpt lat="44.5275722" lon="9.0129306"><ele>413.0</ele><time>2026-04-18T05:53:19.999Z</time></trkpt><trkpt lat="44.5274776" lon="9.0130144"><ele>413.0</ele><time>2026-04-18T05:53:20.999Z</time></trkpt><trkpt lat="44.5273929" lon="9.0131028"><ele>413.0</ele><time>2026-04-18T05:53:21.999Z</time></trkpt><trkpt lat="44.5273097" lon="9.0132053"><ele>413.0</ele><time>2026-04-18T05:53:22.999Z</time></trkpt><trkpt lat="44.5272319" lon="9.0133108"><ele>413.0</ele><time>2026-04-18T05:53:23.999Z</time></trkpt><trkpt lat="44.5271524" lon="9.0134055"><ele>413.0</ele><time>2026-04-18T05:53:24.999Z</time></trkpt><trkpt lat="44.5270739" lon="9.013474"><ele>412.4</ele><time>2026-04-18T05:53:25.999Z</time></trkpt><trkpt lat="44.526991" lon="9.0135162"><ele>411.79999999999995</ele><time>2026-04-18T05:53:26.999Z</time></trkpt><trkpt lat="44.5269071" lon="9.013502"><ele>411.2</ele><time>2026-04-18T05:53:27.999Z</time></trkpt><trkpt lat="44.526829" lon="9.0134241"><ele>410.6</ele><time>2026-04-18T05:53:28.999Z</time></trkpt><trkpt lat="44.526749" lon="9.0133541"><ele>410.0</ele><time>2026-04-18T05:53:29.999Z</time></trkpt><trkpt lat="44.5266677" lon="9.0132815"><ele>410.0</ele><time>2026-04-18T05:53:30.999Z</time></trkpt><trkpt lat="44.5265828" lon="9.0132079"><ele>410.0</ele><time>2026-04-18T05:53:31.999Z</time></trkpt><trkpt lat="44.526496" lon="9.0131369"><ele>410.0</ele><time>2026-04-18T05:53:32.999Z</time></trkpt><trkpt lat="44.5264111" lon="9.0130643"><ele>410.0</ele><time>2026-04-18T05:53:33.999Z</time></trkpt><trkpt lat="44.5263213" lon="9.0129964"><ele>410.0</ele><time>2026-04-18T05:53:34.999Z</time></trkpt><trkpt lat="44.52623" lon="9.0129523"><ele>414.2</ele><time>2026-04-18T05:53:35.999Z</time></trkpt><trkpt lat="44.5261431" lon="9.012945"><ele>418.4</ele><time>2026-04-18T05:53:36.999Z</time></trkpt><trkpt lat="44.5260403" lon="9.0129521"><ele>422.6</ele><time>2026-04-18T05:53:37.999Z</time></trkpt><trkpt lat="44.5259481" lon="9.0129956"><ele>426.8</ele><time>2026-04-18T05:53:38.999Z</time></trkpt><trkpt lat="44.5258542" lon="9.0130593"><ele>431.0</ele><time>2026-04-18T05:53:39.999Z</time></trkpt><trkpt lat="44.5257644" lon="9.0131531"><ele>431.0</ele><time>2026-04-18T05:53:40.999Z</time></trkpt><trkpt lat="44.525667" lon="9.0132809"><ele>431.0</ele><time>2026-04-18T05:53:41.999Z</time></trkpt><trkpt lat="44.5255641" lon="9.0134131"><ele>431.0</ele><time>2026-04-18T05:53:42.999Z</time></trkpt><trkpt lat="44.5254678" lon="9.0135412"><ele>431.0</ele><time>2026-04-18T05:53:44.111Z</time></trkpt><trkpt lat="44.5252688" lon="9.0138038"><ele>430.0</ele><time>2026-04-18T05:53:46.1Z</time></trkpt><trkpt lat="44.5250637" lon="9.0140831"><ele>429.0</ele><time>2026-04-18T05:53:47.999Z</time></trkpt><trkpt lat="44.5249609" lon="9.0142225"><ele>428.0</ele><time>2026-04-18T05:53:49.106Z</time></trkpt><trkpt lat="44.5247514" lon="9.0144977"><ele>427.75</ele><time>2026-04-18T05:53:50.999Z</time></trkpt><trkpt lat="44.5246486" lon="9.0146272"><ele>427.5</ele><time>2026-04-18T05:53:51.999Z</time></trkpt><trkpt lat="44.5245458" lon="9.0147592"><ele>427.25</ele><time>2026-04-18T05:53:52.999Z</time></trkpt><trkpt lat="44.5244407" lon="9.0148783"><ele>427.0</ele><time>2026-04-18T05:53:53.999Z</time></trkpt><trkpt lat="44.5243288" lon="9.0149873"><ele>425.25</ele><time>2026-04-18T05:53:54.999Z</time></trkpt><trkpt lat="44.5242138" lon="9.0150779"><ele>423.5</ele><time>2026-04-18T05:53:55.999Z</time></trkpt><trkpt lat="44.5240966" lon="9.0151615"><ele>421.75</ele><time>2026-04-18T05:53:56.999Z</time></trkpt><trkpt lat="44.5239757" lon="9.0152451"><ele>420.0</ele><time>2026-04-18T05:53:57.999Z</time></trkpt><trkpt lat="44.5238544" lon="9.0153131"><ele>423.66666666666663</ele><time>2026-04-18T05:53:59.103Z</time></trkpt><trkpt lat="44.5235984" lon="9.0154573"><ele>427.3333333333333</ele><time>2026-04-18T05:54:00.999Z</time></trkpt><trkpt lat="44.5234727" lon="9.0155355"><ele>431.0</ele><time>2026-04-18T05:54:01.999Z</time></trkpt><trkpt lat="44.5233418" lon="9.015606"><ele>431.0</ele><time>2026-04-18T05:54:02.999Z</time></trkpt><trkpt lat="44.5232095" lon="9.0156795"><ele>431.0</ele><time>2026-04-18T05:54:03.999Z</time></trkpt><trkpt lat="44.5230823" lon="9.0157534"><ele>431.0</ele><time>2026-04-18T05:54:04.999Z</time></trkpt><trkpt lat="44.5229589" lon="9.0158425"><ele>431.0</ele><time>2026-04-18T05:54:05.999Z</time></trkpt><trkpt lat="44.5228391" lon="9.015949"><ele>429.0</ele><time>2026-04-18T05:54:06.999Z</time></trkpt><trkpt lat="44.5227228" lon="9.0160868"><ele>427.0</ele><time>2026-04-18T05:54:07.999Z</time></trkpt><trkpt lat="44.5226044" lon="9.0162408"><ele>425.0</ele><time>2026-04-18T05:54:09Z</time></trkpt><trkpt lat="44.5224696" lon="9.0163935"><ele>425.0</ele><time>2026-04-18T05:54:09.999Z</time></trkpt><trkpt lat="44.5223284" lon="9.0165506"><ele>425.0</ele><time>2026-04-18T05:54:10.999Z</time></trkpt><trkpt lat="44.5221854" lon="9.0167272"><ele>425.0</ele><time>2026-04-18T05:54:11.999Z</time></trkpt><trkpt lat="44.5220398" lon="9.0169048"><ele>424.3333333333333</ele><time>2026-04-18T05:54:12.999Z</time></trkpt><trkpt lat="44.5218927" lon="9.01711"><ele>423.66666666666663</ele><time>2026-04-18T05:54:13.999Z</time></trkpt><trkpt lat="44.5217544" lon="9.0173247"><ele>423.0</ele><time>2026-04-18T05:54:14.999Z</time></trkpt><trkpt lat="44.5216249" lon="9.0175403"><ele>423.0</ele><time>2026-04-18T05:54:15.999Z</time></trkpt><trkpt lat="44.5214924" lon="9.0177427"><ele>423.0</ele><time>2026-04-18T05:54:16.999Z</time></trkpt><trkpt lat="44.5213539" lon="9.0179169"><ele>423.0</ele><time>2026-04-18T05:54:17.999Z</time></trkpt><trkpt lat="44.5212141" lon="9.0180809"><ele>424.66666666666663</ele><time>2026-04-18T05:54:18.999Z</time></trkpt><trkpt lat="44.5210637" lon="9.0182227"><ele>426.3333333333333</ele><time>2026-04-18T05:54:19.999Z</time></trkpt><trkpt lat="44.5208953" lon="9.0183353"><ele>428.0</ele><time>2026-04-18T05:54:20.999Z</time></trkpt><trkpt lat="44.5207371" lon="9.0184564"><ele>428.0</ele><time>2026-04-18T05:54:21.999Z</time></trkpt><trkpt lat="44.520573" lon="9.0185801"><ele>428.0</ele><time>2026-04-18T05:54:22.999Z</time></trkpt><trkpt lat="44.5204212" lon="9.0187065"><ele>428.0</ele><time>2026-04-18T05:54:23.999Z</time></trkpt><trkpt lat="44.5202714" lon="9.0188412"><ele>428.66666666666663</ele><time>2026-04-18T05:54:24.999Z</time></trkpt><trkpt lat="44.5201325" lon="9.0189951"><ele>429.33333333333337</ele><time>2026-04-18T05:54:25.999Z</time></trkpt><trkpt lat="44.5200056" lon="9.0191566"><ele>430.0</ele><time>2026-04-18T05:54:26.999Z</time></trkpt><trkpt lat="44.5198936" lon="9.0193375"><ele>430.0</ele><time>2026-04-18T05:54:27.999Z</time></trkpt><trkpt lat="44.519764" lon="9.019536"><ele>430.0</ele><time>2026-04-18T05:54:28.999Z</time></trkpt><trkpt lat="44.5196389" lon="9.019713"><ele>430.0</ele><time>2026-04-18T05:54:30Z</time></trkpt><trkpt lat="44.5195084" lon="9.0198916"><ele>430.6666666666667</ele><time>2026-04-18T05:54:30.999Z</time></trkpt><trkpt lat="44.5193725" lon="9.0200455"><ele>431.33333333333337</ele><time>2026-04-18T05:54:31.999Z</time></trkpt><trkpt lat="44.5192335" lon="9.0201881"><ele>432.0</ele><time>2026-04-18T05:54:32.999Z</time></trkpt><trkpt lat="44.5190979" lon="9.0203143"><ele>432.0</ele><time>2026-04-18T05:54:33.999Z</time></trkpt><trkpt lat="44.5189676" lon="9.020424"><ele>432.0</ele><time>2026-04-18T05:54:34.999Z</time></trkpt><trkpt lat="44.5188441" lon="9.0205313"><ele>432.0</ele><time>2026-04-18T05:54:35.999Z</time></trkpt><trkpt lat="44.5187224" lon="9.0206336"><ele>432.0</ele><time>2026-04-18T05:54:36.999Z</time></trkpt><trkpt lat="44.518602" lon="9.020726"><ele>432.75</ele><time>2026-04-18T05:54:37.999Z</time></trkpt><trkpt lat="44.5184879" lon="9.0208059"><ele>433.5</ele><time>2026-04-18T05:54:38.999Z</time></trkpt><trkpt lat="44.5183679" lon="9.0208672"><ele>434.25</ele><time>2026-04-18T05:54:39.999Z</time></trkpt><trkpt lat="44.5182459" lon="9.0209261"><ele>435.0</ele><time>2026-04-18T05:54:40.999Z</time></trkpt><trkpt lat="44.5181327" lon="9.0209923"><ele>435.0</ele><time>2026-04-18T05:54:41.999Z</time></trkpt><trkpt lat="44.5180257" lon="9.0210691"><ele>435.0</ele><time>2026-04-18T05:54:42.999Z</time></trkpt><trkpt lat="44.5179231" lon="9.0211648"><ele>435.0</ele><time>2026-04-18T05:54:43.999Z</time></trkpt><trkpt lat="44.5178227" lon="9.0212739"><ele>435.0</ele><time>2026-04-18T05:54:44.999Z</time></trkpt><trkpt lat="44.5177237" lon="9.0214011"><ele>434.25</ele><time>2026-04-18T05:54:45.999Z</time></trkpt><trkpt lat="44.5176287" lon="9.0215152"><ele>433.5</ele><time>2026-04-18T05:54:46.999Z</time></trkpt><trkpt lat="44.5175341" lon="9.02163"><ele>432.75</ele><time>2026-04-18T05:54:47.999Z</time></trkpt><trkpt lat="44.5174381" lon="9.0217417"><ele>432.0</ele><time>2026-04-18T05:54:48.999Z</time></trkpt><trkpt lat="44.5173415" lon="9.0218548"><ele>432.0</ele><time>2026-04-18T05:54:49.999Z</time></trkpt><trkpt lat="44.5172541" lon="9.0219678"><ele>432.0</ele><time>2026-04-18T05:54:50.999Z</time></trkpt><trkpt lat="44.517166" lon="9.0220833"><ele>432.0</ele><time>2026-04-18T05:54:51.999Z</time></trkpt><trkpt lat="44.5170789" lon="9.0221971"><ele>432.0</ele><time>2026-04-18T05:54:52.999Z</time></trkpt><trkpt lat="44.5169997" lon="9.022325"><ele>432.25</ele><time>2026-04-18T05:54:53.999Z</time></trkpt><trkpt lat="44.5169166" lon="9.0224712"><ele>432.5</ele><time>2026-04-18T05:54:54.999Z</time></trkpt><trkpt lat="44.516835" lon="9.0226162"><ele>432.75</ele><time>2026-04-18T05:54:55.999Z</time></trkpt><trkpt lat="44.5167709" lon="9.0227556"><ele>433.0</ele><time>2026-04-18T05:54:56.999Z</time></trkpt><trkpt lat="44.5167144" lon="9.0228972"><ele>433.0</ele><time>2026-04-18T05:54:57.999Z</time></trkpt><trkpt lat="44.5166689" lon="9.0230526"><ele>433.0</ele><time>2026-04-18T05:54:58.999Z</time></trkpt><trkpt lat="44.5166369" lon="9.0232116"><ele>433.0</ele><time>2026-04-18T05:54:59.999Z</time></trkpt><trkpt lat="44.5166106" lon="9.0233746"><ele>433.0</ele><time>2026-04-18T05:55:01.105Z</time></trkpt><trkpt lat="44.5165491" lon="9.0236819"><ele>432.5</ele><time>2026-04-18T05:55:02.999Z</time></trkpt><trkpt lat="44.5164963" lon="9.0238331"><ele>432.0</ele><time>2026-04-18T05:55:03.999Z</time></trkpt><trkpt lat="44.5164256" lon="9.0239312"><ele>431.5</ele><time>2026-04-18T05:55:05Z</time></trkpt><trkpt lat="44.5163377" lon="9.0240332"><ele>431.0</ele><time>2026-04-18T05:55:05.999Z</time></trkpt><trkpt lat="44.5162408" lon="9.0241229"><ele>431.5</ele><time>2026-04-18T05:55:06.999Z</time></trkpt><trkpt lat="44.5161408" lon="9.0242092"><ele>432.0</ele><time>2026-04-18T05:55:07.999Z</time></trkpt><trkpt lat="44.5160429" lon="9.0242862"><ele>432.5</ele><time>2026-04-18T05:55:08.999Z</time></trkpt><trkpt lat="44.5159408" lon="9.0243768"><ele>433.0</ele><time>2026-04-18T05:55:09.999Z</time></trkpt><trkpt lat="44.5158399" lon="9.0244586"><ele>433.0</ele><time>2026-04-18T05:55:10.999Z</time></trkpt><trkpt lat="44.5157429" lon="9.0245343"><ele>433.0</ele><time>2026-04-18T05:55:11.999Z</time></trkpt><trkpt lat="44.5156559" lon="9.024656"><ele>433.0</ele><time>2026-04-18T05:55:12.999Z</time></trkpt><trkpt lat="44.515586" lon="9.0247967"><ele>433.0</ele><time>2026-04-18T05:55:13.999Z</time></trkpt><trkpt lat="44.515551" lon="9.0249535"><ele>431.0</ele><time>2026-04-18T05:55:15.104Z</time></trkpt><trkpt lat="44.5155305" lon="9.0253009"><ele>429.0</ele><time>2026-04-18T05:55:16.999Z</time></trkpt><trkpt lat="44.5155303" lon="9.0255038"><ele>427.0</ele><time>2026-04-18T05:55:17.999Z</time></trkpt><trkpt lat="44.515528" lon="9.0257187"><ele>427.33333333333337</ele><time>2026-04-18T05:55:18.999Z</time></trkpt><trkpt lat="44.5155202" lon="9.0259376"><ele>427.66666666666663</ele><time>2026-04-18T05:55:19.999Z</time></trkpt><trkpt lat="44.5155048" lon="9.0261637"><ele>428.0</ele><time>2026-04-18T05:55:21.107Z</time></trkpt><trkpt lat="44.5154331" lon="9.0266319"><ele>429.0</ele><time>2026-04-18T05:55:22.999Z</time></trkpt><trkpt lat="44.5153911" lon="9.02687"><ele>430.0</ele><time>2026-04-18T05:55:23.999Z</time></trkpt><trkpt lat="44.5153479" lon="9.0271093"><ele>431.0</ele><time>2026-04-18T05:55:24.999Z</time></trkpt><trkpt lat="44.5153078" lon="9.0273414"><ele>432.0</ele><time>2026-04-18T05:55:25.999Z</time></trkpt><trkpt lat="44.5152671" lon="9.0275861"><ele>433.0</ele><time>2026-04-18T05:55:26.999Z</time></trkpt><trkpt lat="44.5152222" lon="9.0278266"><ele>434.0</ele><time>2026-04-18T05:55:27.999Z</time></trkpt><trkpt lat="44.5151817" lon="9.0280687"><ele>433.66666666666663</ele><time>2026-04-18T05:55:28.999Z</time></trkpt><trkpt lat="44.5151419" lon="9.0283105"><ele>433.33333333333337</ele><time>2026-04-18T05:55:29.999Z</time></trkpt><trkpt lat="44.5151005" lon="9.0285552"><ele>433.0</ele><time>2026-04-18T05:55:30.999Z</time></trkpt><trkpt lat="44.5150565" lon="9.028804"><ele>433.0</ele><time>2026-04-18T05:55:31.999Z</time></trkpt><trkpt lat="44.5150119" lon="9.0290549"><ele>433.0</ele><time>2026-04-18T05:55:32.999Z</time></trkpt><trkpt lat="44.5149683" lon="9.0293034"><ele>433.0</ele><time>2026-04-18T05:55:33.999Z</time></trkpt><trkpt lat="44.5149274" lon="9.0295466"><ele>433.0</ele><time>2026-04-18T05:55:34.999Z</time></trkpt><trkpt lat="44.5148777" lon="9.029795"><ele>433.0</ele><time>2026-04-18T05:55:35.999Z</time></trkpt><trkpt lat="44.5148222" lon="9.0300333"><ele>433.0</ele><time>2026-04-18T05:55:36.999Z</time></trkpt><trkpt lat="44.5147644" lon="9.0302697"><ele>433.6666666666667</ele><time>2026-04-18T05:55:37.999Z</time></trkpt><trkpt lat="44.5147083" lon="9.0304988"><ele>434.33333333333337</ele><time>2026-04-18T05:55:38.999Z</time></trkpt><trkpt lat="44.5146385" lon="9.0307201"><ele>435.0</ele><time>2026-04-18T05:55:39.999Z</time></trkpt><trkpt lat="44.51457" lon="9.0309201"><ele>443.33333333333337</ele><time>2026-04-18T05:55:40.999Z</time></trkpt><trkpt lat="44.5144747" lon="9.0311098"><ele>451.6666666666667</ele><time>2026-04-18T05:55:41.999Z</time></trkpt><trkpt lat="44.5143674" lon="9.031306"><ele>460.0</ele><time>2026-04-18T05:55:42.999Z</time></trkpt><trkpt lat="44.5142427" lon="9.0314769"><ele>460.0</ele><time>2026-04-18T05:55:43.999Z</time></trkpt><trkpt lat="44.5141068" lon="9.0316252"><ele>460.0</ele><time>2026-04-18T05:55:44.999Z</time></trkpt><trkpt lat="44.5139806" lon="9.0317808"><ele>460.0</ele><time>2026-04-18T05:55:45.999Z</time></trkpt><trkpt lat="44.5138561" lon="9.0319465"><ele>464.6666666666667</ele><time>2026-04-18T05:55:46.999Z</time></trkpt><trkpt lat="44.5137309" lon="9.0321194"><ele>469.33333333333337</ele><time>2026-04-18T05:55:47.999Z</time></trkpt><trkpt lat="44.5136167" lon="9.0322891"><ele>474.0</ele><time>2026-04-18T05:55:48.999Z</time></trkpt><trkpt lat="44.5134926" lon="9.0324622"><ele>467.0</ele><time>2026-04-18T05:55:49.999Z</time></trkpt><trkpt lat="44.5133697" lon="9.032632"><ele>460.0</ele><time>2026-04-18T05:55:51.103Z</time></trkpt><trkpt lat="44.5131384" lon="9.0329514"><ele>460.0</ele><time>2026-04-18T05:55:52.999Z</time></trkpt><trkpt lat="44.513043" lon="9.0331001"><ele>460.0</ele><time>2026-04-18T05:55:53.999Z</time></trkpt><trkpt lat="44.5129752" lon="9.0332634"><ele>460.0</ele><time>2026-04-18T05:55:54.999Z</time></trkpt><trkpt lat="44.5129209" lon="9.033432"><ele>460.0</ele><time>2026-04-18T05:55:56Z</time></trkpt><trkpt lat="44.5128912" lon="9.0336083"><ele>463.0</ele><time>2026-04-18T05:55:56.999Z</time></trkpt><trkpt lat="44.5128823" lon="9.033776"><ele>466.0</ele><time>2026-04-18T05:55:57.999Z</time></trkpt><trkpt lat="44.5129052" lon="9.0339074"><ele>469.0</ele><time>2026-04-18T05:55:58.999Z</time></trkpt><trkpt lat="44.5129488" lon="9.034009"><ele>472.0</ele><time>2026-04-18T05:55:59.999Z</time></trkpt><trkpt lat="44.5130181" lon="9.0341206"><ele>475.0</ele><time>2026-04-18T05:56:00.999Z</time></trkpt><trkpt lat="44.5131164" lon="9.0342688"><ele>467.25</ele><time>2026-04-18T05:56:01.999Z</time></trkpt><trkpt lat="44.5131796" lon="9.0343999"><ele>459.5</ele><time>2026-04-18T05:56:02.999Z</time></trkpt><trkpt lat="44.5132774" lon="9.0345799"><ele>451.75</ele><time>2026-04-18T05:56:03.999Z</time></trkpt><trkpt lat="44.5133535" lon="9.0347425"><ele>444.0</ele><time>2026-04-18T05:56:04.999Z</time></trkpt><trkpt lat="44.5134186" lon="9.0349317"><ele>446.75</ele><time>2026-04-18T05:56:05.999Z</time></trkpt><trkpt lat="44.5134822" lon="9.0351223"><ele>449.5</ele><time>2026-04-18T05:56:06.999Z</time></trkpt><trkpt lat="44.5135328" lon="9.035311"><ele>452.25</ele><time>2026-04-18T05:56:07.999Z</time></trkpt><trkpt lat="44.5135763" lon="9.0355034"><ele>455.0</ele><time>2026-04-18T05:56:08.999Z</time></trkpt><trkpt lat="44.513615" lon="9.0356969"><ele>458.75</ele><time>2026-04-18T05:56:09.999Z</time></trkpt><trkpt lat="44.5136389" lon="9.035895"><ele>462.5</ele><time>2026-04-18T05:56:11.105Z</time></trkpt><trkpt lat="44.5136577" lon="9.0360835"><ele>466.25</ele><time>2026-04-18T05:56:11.999Z</time></trkpt><trkpt lat="44.5136647" lon="9.0362603"><ele>470.0</ele><time>2026-04-18T05:56:12.999Z</time></trkpt><trkpt lat="44.5136898" lon="9.0364232"><ele>470.0</ele><time>2026-04-18T05:56:13.999Z</time></trkpt><trkpt lat="44.5137278" lon="9.0365617"><ele>470.0</ele><time>2026-04-18T05:56:14.999Z</time></trkpt><trkpt lat="44.5137754" lon="9.0366913"><ele>470.0</ele><time>2026-04-18T05:56:15.999Z</time></trkpt><trkpt lat="44.513843" lon="9.0368115"><ele>470.0</ele><time>2026-04-18T05:56:16.999Z</time></trkpt><trkpt lat="44.513912" lon="9.0369486"><ele>470.0</ele><time>2026-04-18T05:56:17.999Z</time></trkpt><trkpt lat="44.5139765" lon="9.0370853"><ele>465.0</ele><time>2026-04-18T05:56:18.999Z</time></trkpt><trkpt lat="44.5140245" lon="9.0372291"><ele>460.0</ele><time>2026-04-18T05:56:19.999Z</time></trkpt><trkpt lat="44.5140448" lon="9.0373898"><ele>455.0</ele><time>2026-04-18T05:56:20.999Z</time></trkpt><trkpt lat="44.5140272" lon="9.0375501"><ele>450.0</ele><time>2026-04-18T05:56:21.999Z</time></trkpt><trkpt lat="44.5140071" lon="9.0377084"><ele>450.0</ele><time>2026-04-18T05:56:22.999Z</time></trkpt><trkpt lat="44.5139915" lon="9.0378583"><ele>450.0</ele><time>2026-04-18T05:56:23.999Z</time></trkpt><trkpt lat="44.5139382" lon="9.0379987"><ele>450.0</ele><time>2026-04-18T05:56:24.999Z</time></trkpt><trkpt lat="44.5138799" lon="9.0381303"><ele>450.0</ele><time>2026-04-18T05:56:25.999Z</time></trkpt><trkpt lat="44.5138098" lon="9.0382477"><ele>450.0</ele><time>2026-04-18T05:56:26.999Z</time></trkpt><trkpt lat="44.5137171" lon="9.03833"><ele>452.8</ele><time>2026-04-18T05:56:27.999Z</time></trkpt><trkpt lat="44.513632" lon="9.0383737"><ele>455.6</ele><time>2026-04-18T05:56:28.999Z</time></trkpt><trkpt lat="44.5135367" lon="9.03837"><ele>458.4</ele><time>2026-04-18T05:56:29.999Z</time></trkpt><trkpt lat="44.5134578" lon="9.0383304"><ele>461.2</ele><time>2026-04-18T05:56:30.999Z</time></trkpt><trkpt lat="44.5133708" lon="9.0382633"><ele>464.0</ele><time>2026-04-18T05:56:31.999Z</time></trkpt><trkpt lat="44.5132704" lon="9.0381766"><ele>468.75</ele><time>2026-04-18T05:56:32.999Z</time></trkpt><trkpt lat="44.5131756" lon="9.0381019"><ele>473.5</ele><time>2026-04-18T05:56:33.999Z</time></trkpt><trkpt lat="44.5130801" lon="9.0380486"><ele>478.25</ele><time>2026-04-18T05:56:35.102Z</time></trkpt><trkpt lat="44.5128979" lon="9.038038"><ele>483.0</ele><time>2026-04-18T05:56:36.999Z</time></trkpt><trkpt lat="44.5128231" lon="9.0380873"><ele>480.5</ele><time>2026-04-18T05:56:38.105Z</time></trkpt><trkpt lat="44.512699" lon="9.0383358"><ele>478.0</ele><time>2026-04-18T05:56:39.999Z</time></trkpt><trkpt lat="44.5126595" lon="9.0384793"><ele>475.5</ele><time>2026-04-18T05:56:40.999Z</time></trkpt><trkpt lat="44.5126476" lon="9.0386217"><ele>473.0</ele><time>2026-04-18T05:56:41.999Z</time></trkpt><trkpt lat="44.5126624" lon="9.0387516"><ele>473.0</ele><time>2026-04-18T05:56:42.999Z</time></trkpt><trkpt lat="44.5127275" lon="9.0389269"><ele>473.0</ele><time>2026-04-18T05:56:43.999Z</time></trkpt><trkpt lat="44.5127868" lon="9.039076"><ele>473.0</ele><time>2026-04-18T05:56:44.999Z</time></trkpt><trkpt lat="44.5128598" lon="9.0392041"><ele>473.0</ele><time>2026-04-18T05:56:45.999Z</time></trkpt><trkpt lat="44.5129437" lon="9.0393255"><ele>468.25</ele><time>2026-04-18T05:56:46.999Z</time></trkpt><trkpt lat="44.5130373" lon="9.0394737"><ele>463.5</ele><time>2026-04-18T05:56:47.999Z</time></trkpt><trkpt lat="44.513108" lon="9.0396343"><ele>458.75</ele><time>2026-04-18T05:56:49Z</time></trkpt><trkpt lat="44.513172" lon="9.0397978"><ele>454.0</ele><time>2026-04-18T05:56:49.999Z</time></trkpt><trkpt lat="44.5132381" lon="9.0399953"><ele>454.0</ele><time>2026-04-18T05:56:50.999Z</time></trkpt><trkpt lat="44.5132997" lon="9.0401938"><ele>454.0</ele><time>2026-04-18T05:56:51.999Z</time></trkpt><trkpt lat="44.513361" lon="9.0403894"><ele>454.0</ele><time>2026-04-18T05:56:52.999Z</time></trkpt><trkpt lat="44.513404" lon="9.0405775"><ele>454.0</ele><time>2026-04-18T05:56:53.999Z</time></trkpt><trkpt lat="44.5134288" lon="9.0407614"><ele>455.25</ele><time>2026-04-18T05:56:54.999Z</time></trkpt><trkpt lat="44.513426" lon="9.0409374"><ele>456.5</ele><time>2026-04-18T05:56:55.999Z</time></trkpt><trkpt lat="44.5134006" lon="9.0411157"><ele>457.75</ele><time>2026-04-18T05:56:56.999Z</time></trkpt><trkpt lat="44.5133343" lon="9.0412727"><ele>459.0</ele><time>2026-04-18T05:56:57.999Z</time></trkpt><trkpt lat="44.5132933" lon="9.0414428"><ele>459.0</ele><time>2026-04-18T05:56:58.999Z</time></trkpt><trkpt lat="44.513291" lon="9.0416273"><ele>459.0</ele><time>2026-04-18T05:56:59.999Z</time></trkpt><trkpt lat="44.5133101" lon="9.0418059"><ele>459.0</ele><time>2026-04-18T05:57:00.999Z</time></trkpt><trkpt lat="44.5133601" lon="9.0419665"><ele>459.0</ele><time>2026-04-18T05:57:01.999Z</time></trkpt><trkpt lat="44.5134134" lon="9.0421302"><ele>458.0</ele><time>2026-04-18T05:57:02.999Z</time></trkpt><trkpt lat="44.5134687" lon="9.0422829"><ele>457.0</ele><time>2026-04-18T05:57:03.999Z</time></trkpt><trkpt lat="44.5135242" lon="9.0424379"><ele>456.0</ele><time>2026-04-18T05:57:04.999Z</time></trkpt><trkpt lat="44.5135814" lon="9.042568"><ele>455.0</ele><time>2026-04-18T05:57:05.999Z</time></trkpt><trkpt lat="44.5136363" lon="9.0426968"><ele>455.0</ele><time>2026-04-18T05:57:06.999Z</time></trkpt><trkpt lat="44.5136824" lon="9.0428265"><ele>455.0</ele><time>2026-04-18T05:57:07.999Z</time></trkpt><trkpt lat="44.5137294" lon="9.0429522"><ele>455.0</ele><time>2026-04-18T05:57:08.999Z</time></trkpt><trkpt lat="44.5137669" lon="9.0430988"><ele>455.0</ele><time>2026-04-18T05:57:09.999Z</time></trkpt><trkpt lat="44.5137995" lon="9.0432453"><ele>455.0</ele><time>2026-04-18T05:57:10.999Z</time></trkpt><trkpt lat="44.5138158" lon="9.0433919"><ele>451.8</ele><time>2026-04-18T05:57:11.999Z</time></trkpt><trkpt lat="44.5138387" lon="9.0435476"><ele>448.6</ele><time>2026-04-18T05:57:12.999Z</time></trkpt><trkpt lat="44.5138523" lon="9.0436732"><ele>445.4</ele><time>2026-04-18T05:57:13.999Z</time></trkpt><trkpt lat="44.5138722" lon="9.043808"><ele>442.2</ele><time>2026-04-18T05:57:14.999Z</time></trkpt><trkpt lat="44.5138983" lon="9.0439328"><ele>439.0</ele><time>2026-04-18T05:57:15.999Z</time></trkpt><trkpt lat="44.5139419" lon="9.044055"><ele>439.6</ele><time>2026-04-18T05:57:16.999Z</time></trkpt><trkpt lat="44.5139754" lon="9.0441828"><ele>440.2</ele><time>2026-04-18T05:57:17.999Z</time></trkpt><trkpt lat="44.5140139" lon="9.0443177"><ele>440.80000000000007</ele><time>2026-04-18T05:57:18.999Z</time></trkpt><trkpt lat="44.5140465" lon="9.044448"><ele>441.40000000000003</ele><time>2026-04-18T05:57:19.999Z</time></trkpt><trkpt lat="44.5140866" lon="9.0445765"><ele>442.0</ele><time>2026-04-18T05:57:20.999Z</time></trkpt><trkpt lat="44.5141232" lon="9.0446992"><ele>442.0</ele><time>2026-04-18T05:57:21.999Z</time></trkpt><trkpt lat="44.5141402" lon="9.0448335"><ele>442.00000000000006</ele><time>2026-04-18T05:57:22.999Z</time></trkpt><trkpt lat="44.5141577" lon="9.0449769"><ele>442.00000000000006</ele><time>2026-04-18T05:57:23.999Z</time></trkpt><trkpt lat="44.5141776" lon="9.0451272"><ele>442.0</ele><time>2026-04-18T05:57:24.999Z</time></trkpt><trkpt lat="44.5141926" lon="9.0452784"><ele>442.0</ele><time>2026-04-18T05:57:25.999Z</time></trkpt><trkpt lat="44.5142092" lon="9.045424"><ele>442.25</ele><time>2026-04-18T05:57:26.999Z</time></trkpt><trkpt lat="44.5142328" lon="9.0455846"><ele>442.5</ele><time>2026-04-18T05:57:27.999Z</time></trkpt><trkpt lat="44.5142785" lon="9.0457521"><ele>442.75</ele><time>2026-04-18T05:57:28.999Z</time></trkpt><trkpt lat="44.5143138" lon="9.0459135"><ele>443.0</ele><time>2026-04-18T05:57:29.999Z</time></trkpt><trkpt lat="44.5143479" lon="9.0460641"><ele>443.25</ele><time>2026-04-18T05:57:30.999Z</time></trkpt><trkpt lat="44.5143651" lon="9.0462199"><ele>443.5</ele><time>2026-04-18T05:57:31.999Z</time></trkpt><trkpt lat="44.5143936" lon="9.046373"><ele>443.75</ele><time>2026-04-18T05:57:32.999Z</time></trkpt><trkpt lat="44.5144261" lon="9.046526"><ele>444.0</ele><time>2026-04-18T05:57:33.999Z</time></trkpt><trkpt lat="44.5144621" lon="9.0466798"><ele>444.5</ele><time>2026-04-18T05:57:34.999Z</time></trkpt><trkpt lat="44.5144988" lon="9.0468378"><ele>445.0</ele><time>2026-04-18T05:57:35.999Z</time></trkpt><trkpt lat="44.5145482" lon="9.0469916"><ele>445.5</ele><time>2026-04-18T05:57:36.999Z</time></trkpt><trkpt lat="44.514589" lon="9.0471387"><ele>446.0</ele><time>2026-04-18T05:57:37.999Z</time></trkpt><trkpt lat="44.5146275" lon="9.04728"><ele>445.20000000000005</ele><time>2026-04-18T05:57:38.999Z</time></trkpt><trkpt lat="44.514669" lon="9.047427"><ele>444.40000000000003</ele><time>2026-04-18T05:57:39.999Z</time></trkpt><trkpt lat="44.5147066" lon="9.047575"><ele>443.6</ele><time>2026-04-18T05:57:41Z</time></trkpt><trkpt lat="44.514756" lon="9.0477046"><ele>442.8</ele><time>2026-04-18T05:57:41.999Z</time></trkpt><trkpt lat="44.5148267" lon="9.047808"><ele>442.0</ele><time>2026-04-18T05:57:43.102Z</time></trkpt><trkpt lat="44.5148969" lon="9.0478827"><ele>442.0</ele><time>2026-04-18T05:57:44.103Z</time></trkpt><trkpt lat="44.5150796" lon="9.0479376"><ele>442.0</ele><time>2026-04-18T05:57:45.999Z</time></trkpt><trkpt lat="44.5151918" lon="9.0479149"><ele>442.0</ele><time>2026-04-18T05:57:46.999Z</time></trkpt><trkpt lat="44.5153086" lon="9.0478876"><ele>442.0</ele><time>2026-04-18T05:57:47.999Z</time></trkpt><trkpt lat="44.5154332" lon="9.0478573"><ele>441.5</ele><time>2026-04-18T05:57:48.999Z</time></trkpt><trkpt lat="44.5155616" lon="9.0478147"><ele>441.0</ele><time>2026-04-18T05:57:49.999Z</time></trkpt><trkpt lat="44.5156901" lon="9.0477681"><ele>440.5</ele><time>2026-04-18T05:57:50.999Z</time></trkpt><trkpt lat="44.5158196" lon="9.0477209"><ele>440.0</ele><time>2026-04-18T05:57:51.999Z</time></trkpt><trkpt lat="44.5159435" lon="9.0476812"><ele>440.0</ele><time>2026-04-18T05:57:52.999Z</time></trkpt><trkpt lat="44.5160638" lon="9.0476422"><ele>440.0</ele><time>2026-04-18T05:57:53.999Z</time></trkpt><trkpt lat="44.516184" lon="9.0476285"><ele>440.0</ele><time>2026-04-18T05:57:54.999Z</time></trkpt><trkpt lat="44.5162942" lon="9.0476479"><ele>440.0</ele><time>2026-04-18T05:57:56.1Z</time></trkpt><trkpt lat="44.5164946" lon="9.0477746"><ele>441.5</ele><time>2026-04-18T05:57:57.999Z</time></trkpt><trkpt lat="44.5165855" lon="9.0478705"><ele>443.0</ele><time>2026-04-18T05:57:58.999Z</time></trkpt><trkpt lat="44.5166617" lon="9.0479972"><ele>444.5</ele><time>2026-04-18T05:57:59.999Z</time></trkpt><trkpt lat="44.5167108" lon="9.0481409"><ele>446.0</ele><time>2026-04-18T05:58:00.999Z</time></trkpt><trkpt lat="44.5167655" lon="9.0482955"><ele>446.0</ele><time>2026-04-18T05:58:01.999Z</time></trkpt><trkpt lat="44.5168209" lon="9.0484554"><ele>446.0</ele><time>2026-04-18T05:58:02.999Z</time></trkpt><trkpt lat="44.5168863" lon="9.0486124"><ele>446.0</ele><time>2026-04-18T05:58:03.999Z</time></trkpt><trkpt lat="44.5169566" lon="9.048763"><ele>446.0</ele><time>2026-04-18T05:58:04.999Z</time></trkpt><trkpt lat="44.5170373" lon="9.0489188"><ele>447.0</ele><time>2026-04-18T05:58:05.999Z</time></trkpt><trkpt lat="44.5171132" lon="9.0490626"><ele>448.0</ele><time>2026-04-18T05:58:06.999Z</time></trkpt><trkpt lat="44.5171963" lon="9.0491886"><ele>449.0</ele><time>2026-04-18T05:58:07.999Z</time></trkpt><trkpt lat="44.5172849" lon="9.0492847"><ele>450.0</ele><time>2026-04-18T05:58:08.999Z</time></trkpt><trkpt lat="44.5173825" lon="9.0493716"><ele>450.0</ele><time>2026-04-18T05:58:09.999Z</time></trkpt><trkpt lat="44.5174613" lon="9.0494565"><ele>450.0</ele><time>2026-04-18T05:58:10.999Z</time></trkpt><trkpt lat="44.5174954" lon="9.0495752"><ele>450.0</ele><time>2026-04-18T05:58:11.999Z</time></trkpt><trkpt lat="44.5175491" lon="9.0496923"><ele>450.0</ele><time>2026-04-18T05:58:12.999Z</time></trkpt><trkpt lat="44.5175586" lon="9.0498469"><ele>450.0</ele><time>2026-04-18T05:58:13.999Z</time></trkpt><trkpt lat="44.517553" lon="9.0499904"><ele>449.0</ele><time>2026-04-18T05:58:14.999Z</time></trkpt><trkpt lat="44.5175484" lon="9.0501565"><ele>448.0</ele><time>2026-04-18T05:58:15.999Z</time></trkpt><trkpt lat="44.5175448" lon="9.0503317"><ele>447.0</ele><time>2026-04-18T05:58:16.999Z</time></trkpt><trkpt lat="44.51754" lon="9.0505115"><ele>446.0</ele><time>2026-04-18T05:58:17.999Z</time></trkpt><trkpt lat="44.5175355" lon="9.0506892"><ele>446.75</ele><time>2026-04-18T05:58:18.999Z</time></trkpt><trkpt lat="44.5175459" lon="9.050886"><ele>447.5</ele><time>2026-04-18T05:58:19.999Z</time></trkpt><trkpt lat="44.5175551" lon="9.0510813"><ele>448.25</ele><time>2026-04-18T05:58:20.999Z</time></trkpt><trkpt lat="44.5175761" lon="9.0512701"><ele>449.0</ele><time>2026-04-18T05:58:21.999Z</time></trkpt><trkpt lat="44.5176013" lon="9.0514519"><ele>449.0</ele><time>2026-04-18T05:58:22.999Z</time></trkpt><trkpt lat="44.5176345" lon="9.0516209"><ele>449.0</ele><time>2026-04-18T05:58:23.999Z</time></trkpt><trkpt lat="44.5176915" lon="9.0517773"><ele>449.0</ele><time>2026-04-18T05:58:24.999Z</time></trkpt><trkpt lat="44.5177622" lon="9.0519251"><ele>449.0</ele><time>2026-04-18T05:58:26.101Z</time></trkpt><trkpt lat="44.5179386" lon="9.0521955"><ele>450.25</ele><time>2026-04-18T05:58:27.999Z</time></trkpt><trkpt lat="44.5180282" lon="9.0523586"><ele>451.5</ele><time>2026-04-18T05:58:28.999Z</time></trkpt><trkpt lat="44.5181082" lon="9.0525239"><ele>452.75</ele><time>2026-04-18T05:58:29.999Z</time></trkpt><trkpt lat="44.5181875" lon="9.0526942"><ele>454.0</ele><time>2026-04-18T05:58:30.999Z</time></trkpt><trkpt lat="44.5182526" lon="9.0528658"><ele>454.0</ele><time>2026-04-18T05:58:31.999Z</time></trkpt><trkpt lat="44.5183146" lon="9.0530232"><ele>454.0</ele><time>2026-04-18T05:58:32.999Z</time></trkpt><trkpt lat="44.5183655" lon="9.0531899"><ele>454.0</ele><time>2026-04-18T05:58:33.999Z</time></trkpt><trkpt lat="44.5184196" lon="9.0533551"><ele>454.0</ele><time>2026-04-18T05:58:34.999Z</time></trkpt><trkpt lat="44.518435" lon="9.0535287"><ele>453.25</ele><time>2026-04-18T05:58:35.999Z</time></trkpt><trkpt lat="44.5184515" lon="9.0536896"><ele>452.5</ele><time>2026-04-18T05:58:36.999Z</time></trkpt><trkpt lat="44.5184826" lon="9.0538491"><ele>451.75</ele><time>2026-04-18T05:58:37.999Z</time></trkpt><trkpt lat="44.5185349" lon="9.0539994"><ele>451.0</ele><time>2026-04-18T05:58:39Z</time></trkpt><trkpt lat="44.5185961" lon="9.0541439"><ele>450.25</ele><time>2026-04-18T05:58:39.999Z</time></trkpt><trkpt lat="44.5186738" lon="9.0542867"><ele>449.5</ele><time>2026-04-18T05:58:40.999Z</time></trkpt><trkpt lat="44.5187517" lon="9.0544238"><ele>448.75</ele><time>2026-04-18T05:58:41.999Z</time></trkpt><trkpt lat="44.5188376" lon="9.0545585"><ele>448.0</ele><time>2026-04-18T05:58:42.999Z</time></trkpt><trkpt lat="44.5189207" lon="9.054695"><ele>450.6666666666667</ele><time>2026-04-18T05:58:43.999Z</time></trkpt><trkpt lat="44.5189999" lon="9.0548321"><ele>453.33333333333337</ele><time>2026-04-18T05:58:45.107Z</time></trkpt><trkpt lat="44.5190754" lon="9.0549846"><ele>456.0</ele><time>2026-04-18T05:58:46.105Z</time></trkpt><trkpt lat="44.5191922" lon="9.0553227"><ele>456.0</ele><time>2026-04-18T05:58:47.999Z</time></trkpt><trkpt lat="44.5192296" lon="9.0554966"><ele>456.0</ele><time>2026-04-18T05:58:48.999Z</time></trkpt><trkpt lat="44.5192522" lon="9.0556598"><ele>456.0</ele><time>2026-04-18T05:58:49.999Z</time></trkpt><trkpt lat="44.5192691" lon="9.0558237"><ele>456.0</ele><time>2026-04-18T05:58:50.999Z</time></trkpt><trkpt lat="44.5192723" lon="9.0559771"><ele>455.8</ele><time>2026-04-18T05:58:51.999Z</time></trkpt><trkpt lat="44.5192635" lon="9.0561076"><ele>455.6</ele><time>2026-04-18T05:58:52.999Z</time></trkpt><trkpt lat="44.5192402" lon="9.056233"><ele>455.4</ele><time>2026-04-18T05:58:53.999Z</time></trkpt><trkpt lat="44.5191814" lon="9.0563061"><ele>455.2</ele><time>2026-04-18T05:58:54.999Z</time></trkpt><trkpt lat="44.5191017" lon="9.0563634"><ele>455.0</ele><time>2026-04-18T05:58:55.999Z</time></trkpt><trkpt lat="44.5189838" lon="9.0563858"><ele>455.0</ele><time>2026-04-18T05:58:56.999Z</time></trkpt><trkpt lat="44.5188434" lon="9.0564134"><ele>455.0</ele><time>2026-04-18T05:58:57.999Z</time></trkpt><trkpt lat="44.5187244" lon="9.0564472"><ele>455.0</ele><time>2026-04-18T05:58:58.999Z</time></trkpt><trkpt lat="44.5185982" lon="9.056454"><ele>455.0</ele><time>2026-04-18T05:58:59.999Z</time></trkpt><trkpt lat="44.5184739" lon="9.056478"><ele>452.75</ele><time>2026-04-18T05:59:00.999Z</time></trkpt><trkpt lat="44.5183529" lon="9.0565031"><ele>450.5</ele><time>2026-04-18T05:59:01.999Z</time></trkpt><trkpt lat="44.518239" lon="9.0565262"><ele>448.25</ele><time>2026-04-18T05:59:02.999Z</time></trkpt><trkpt lat="44.5181182" lon="9.0565523"><ele>446.0</ele><time>2026-04-18T05:59:03.999Z</time></trkpt><trkpt lat="44.5180032" lon="9.056576"><ele>446.20000000000005</ele><time>2026-04-18T05:59:04.999Z</time></trkpt><trkpt lat="44.5178886" lon="9.0565956"><ele>446.40000000000003</ele><time>2026-04-18T05:59:05.999Z</time></trkpt><trkpt lat="44.5177693" lon="9.0566191"><ele>446.6</ele><time>2026-04-18T05:59:06.999Z</time></trkpt><trkpt lat="44.5176666" lon="9.0566474"><ele>446.8</ele><time>2026-04-18T05:59:07.999Z</time></trkpt><trkpt lat="44.5175685" lon="9.0567012"><ele>447.0</ele><time>2026-04-18T05:59:08.999Z</time></trkpt><trkpt lat="44.5174976" lon="9.0567661"><ele>448.20000000000005</ele><time>2026-04-18T05:59:09.999Z</time></trkpt><trkpt lat="44.5174342" lon="9.0568382"><ele>449.40000000000003</ele><time>2026-04-18T05:59:10.999Z</time></trkpt><trkpt lat="44.5173846" lon="9.0569626"><ele>450.59999999999997</ele><time>2026-04-18T05:59:11.999Z</time></trkpt><trkpt lat="44.5173367" lon="9.0570921"><ele>451.79999999999995</ele><time>2026-04-18T05:59:12.999Z</time></trkpt><trkpt lat="44.5173005" lon="9.0572205"><ele>453.0</ele><time>2026-04-18T05:59:13.999Z</time></trkpt><trkpt lat="44.5172728" lon="9.0573417"><ele>453.4</ele><time>2026-04-18T05:59:14.999Z</time></trkpt><trkpt lat="44.5172417" lon="9.0574803"><ele>453.79999999999995</ele><time>2026-04-18T05:59:15.999Z</time></trkpt><trkpt lat="44.517202" lon="9.0576024"><ele>454.2</ele><time>2026-04-18T05:59:16.999Z</time></trkpt><trkpt lat="44.5171563" lon="9.0577049"><ele>454.6</ele><time>2026-04-18T05:59:17.999Z</time></trkpt><trkpt lat="44.5171" lon="9.0577865"><ele>455.0</ele><time>2026-04-18T05:59:18.999Z</time></trkpt><trkpt lat="44.5170295" lon="9.057872"><ele>455.0</ele><time>2026-04-18T05:59:19.999Z</time></trkpt><trkpt lat="44.5169589" lon="9.0579605"><ele>455.0</ele><time>2026-04-18T05:59:20.999Z</time></trkpt><trkpt lat="44.5168903" lon="9.0580907"><ele>455.0</ele><time>2026-04-18T05:59:21.999Z</time></trkpt><trkpt lat="44.5168445" lon="9.0582203"><ele>455.0</ele><time>2026-04-18T05:59:22.999Z</time></trkpt><trkpt lat="44.5167992" lon="9.0583642"><ele>455.0</ele><time>2026-04-18T05:59:23.999Z</time></trkpt><trkpt lat="44.5167481" lon="9.0585219"><ele>455.0</ele><time>2026-04-18T05:59:24.999Z</time></trkpt><trkpt lat="44.5166992" lon="9.0586833"><ele>455.0</ele><time>2026-04-18T05:59:26.105Z</time></trkpt><trkpt lat="44.5166013" lon="9.0590174"><ele>455.0</ele><time>2026-04-18T05:59:27.999Z</time></trkpt><trkpt lat="44.5165445" lon="9.0591949"><ele>456.5</ele><time>2026-04-18T05:59:28.999Z</time></trkpt><trkpt lat="44.5164822" lon="9.0593469"><ele>458.0</ele><time>2026-04-18T05:59:29.999Z</time></trkpt><trkpt lat="44.5164096" lon="9.0595134"><ele>459.5</ele><time>2026-04-18T05:59:30.999Z</time></trkpt><trkpt lat="44.5163341" lon="9.0596651"><ele>461.0</ele><time>2026-04-18T05:59:31.999Z</time></trkpt><trkpt lat="44.5162562" lon="9.0598111"><ele>459.5</ele><time>2026-04-18T05:59:32.999Z</time></trkpt><trkpt lat="44.5161743" lon="9.0599385"><ele>458.0</ele><time>2026-04-18T05:59:33.999Z</time></trkpt><trkpt lat="44.5160776" lon="9.0600617"><ele>456.5</ele><time>2026-04-18T05:59:35.1Z</time></trkpt><trkpt lat="44.5159764" lon="9.0601568"><ele>455.0</ele><time>2026-04-18T05:59:36Z</time></trkpt><trkpt lat="44.5158669" lon="9.0602478"><ele>455.0</ele><time>2026-04-18T05:59:36.999Z</time></trkpt><trkpt lat="44.5157712" lon="9.0603606"><ele>455.0</ele><time>2026-04-18T05:59:37.999Z</time></trkpt><trkpt lat="44.5156913" lon="9.0605012"><ele>455.0</ele><time>2026-04-18T05:59:38.999Z</time></trkpt><trkpt lat="44.5156266" lon="9.0606466"><ele>455.0</ele><time>2026-04-18T05:59:40.105Z</time></trkpt><trkpt lat="44.5155625" lon="9.0608047"><ele>454.66666666666663</ele><time>2026-04-18T05:59:41.102Z</time></trkpt><trkpt lat="44.5154364" lon="9.0611214"><ele>454.33333333333337</ele><time>2026-04-18T05:59:42.999Z</time></trkpt><trkpt lat="44.5154021" lon="9.0612981"><ele>454.0</ele><time>2026-04-18T05:59:43.999Z</time></trkpt><trkpt lat="44.5153852" lon="9.0614887"><ele>454.75</ele><time>2026-04-18T05:59:44.999Z</time></trkpt><trkpt lat="44.5153749" lon="9.061678"><ele>455.5</ele><time>2026-04-18T05:59:45.999Z</time></trkpt><trkpt lat="44.5153661" lon="9.0618679"><ele>456.25</ele><time>2026-04-18T05:59:46.999Z</time></trkpt><trkpt lat="44.5153385" lon="9.0620656"><ele>457.0</ele><time>2026-04-18T05:59:47.999Z</time></trkpt><trkpt lat="44.5153169" lon="9.062259"><ele>457.75</ele><time>2026-04-18T05:59:48.999Z</time></trkpt><trkpt lat="44.5152907" lon="9.0624623"><ele>458.5</ele><time>2026-04-18T05:59:49.999Z</time></trkpt><trkpt lat="44.5152639" lon="9.0626696"><ele>459.25</ele><time>2026-04-18T05:59:50.999Z</time></trkpt><trkpt lat="44.5152385" lon="9.0628791"><ele>460.0</ele><time>2026-04-18T05:59:51.999Z</time></trkpt><trkpt lat="44.515208" lon="9.0630965"><ele>461.0</ele><time>2026-04-18T05:59:52.999Z</time></trkpt><trkpt lat="44.5151709" lon="9.0633136"><ele>462.0</ele><time>2026-04-18T05:59:53.999Z</time></trkpt><trkpt lat="44.5151295" lon="9.0635351"><ele>463.0</ele><time>2026-04-18T05:59:54.999Z</time></trkpt><trkpt lat="44.5150923" lon="9.0637589"><ele>463.0</ele><time>2026-04-18T05:59:55.999Z</time></trkpt><trkpt lat="44.5150559" lon="9.0639783"><ele>463.0</ele><time>2026-04-18T05:59:56.999Z</time></trkpt><trkpt lat="44.51502" lon="9.0641959"><ele>463.0</ele><time>2026-04-18T05:59:57.999Z</time></trkpt><trkpt lat="44.5149735" lon="9.0644158"><ele>465.33333333333337</ele><time>2026-04-18T05:59:58.999Z</time></trkpt><trkpt lat="44.5149181" lon="9.0646274"><ele>467.66666666666663</ele><time>2026-04-18T05:59:59.999Z</time></trkpt><trkpt lat="44.5148463" lon="9.0648269"><ele>470.0</ele><time>2026-04-18T06:00:00.999Z</time></trkpt><trkpt lat="44.5147698" lon="9.0650135"><ele>471.75</ele><time>2026-04-18T06:00:01.999Z</time></trkpt><trkpt lat="44.5146983" lon="9.0652015"><ele>473.5</ele><time>2026-04-18T06:00:02.999Z</time></trkpt><trkpt lat="44.5146344" lon="9.0653844"><ele>475.25</ele><time>2026-04-18T06:00:03.999Z</time></trkpt><trkpt lat="44.5145796" lon="9.0655663"><ele>477.0</ele><time>2026-04-18T06:00:05Z</time></trkpt><trkpt lat="44.5145311" lon="9.0657392"><ele>475.20000000000005</ele><time>2026-04-18T06:00:05.999Z</time></trkpt><trkpt lat="44.5144769" lon="9.065895"><ele>473.40000000000003</ele><time>2026-04-18T06:00:06.999Z</time></trkpt><trkpt lat="44.5144063" lon="9.0659924"><ele>471.59999999999997</ele><time>2026-04-18T06:00:07.999Z</time></trkpt><trkpt lat="44.5143252" lon="9.0660614"><ele>469.79999999999995</ele><time>2026-04-18T06:00:08.999Z</time></trkpt><trkpt lat="44.5142502" lon="9.0660745"><ele>468.0</ele><time>2026-04-18T06:00:09.999Z</time></trkpt><trkpt lat="44.5141248" lon="9.0660872"><ele>468.0</ele><time>2026-04-18T06:00:10.999Z</time></trkpt><trkpt lat="44.5139663" lon="9.066073"><ele>468.0</ele><time>2026-04-18T06:00:11.999Z</time></trkpt><trkpt lat="44.5138417" lon="9.0660564"><ele>468.0</ele><time>2026-04-18T06:00:12.999Z</time></trkpt><trkpt lat="44.5137022" lon="9.0660366"><ele>468.0</ele><time>2026-04-18T06:00:13.999Z</time></trkpt><trkpt lat="44.5135751" lon="9.066003"><ele>468.33333333333337</ele><time>2026-04-18T06:00:14.999Z</time></trkpt><trkpt lat="44.5134383" lon="9.0659815"><ele>468.6666666666667</ele><time>2026-04-18T06:00:16.1Z</time></trkpt><trkpt lat="44.5131582" lon="9.0659081"><ele>469.0</ele><time>2026-04-18T06:00:17.999Z</time></trkpt><trkpt lat="44.5130225" lon="9.0658617"><ele>469.0</ele><time>2026-04-18T06:00:18.999Z</time></trkpt><trkpt lat="44.5128852" lon="9.0658213"><ele>469.0</ele><time>2026-04-18T06:00:20.105Z</time></trkpt><trkpt lat="44.5126259" lon="9.0658751"><ele>469.0</ele><time>2026-04-18T06:00:21.999Z</time></trkpt><trkpt lat="44.5125051" lon="9.0659294"><ele>469.0</ele><time>2026-04-18T06:00:22.999Z</time></trkpt><trkpt lat="44.5124081" lon="9.066023"><ele>469.0</ele><time>2026-04-18T06:00:23.999Z</time></trkpt><trkpt lat="44.5123311" lon="9.0661455"><ele>469.0</ele><time>2026-04-18T06:00:24.999Z</time></trkpt><trkpt lat="44.5122711" lon="9.0663441"><ele>469.0</ele><time>2026-04-18T06:00:25.999Z</time></trkpt><trkpt lat="44.5122107" lon="9.0665206"><ele>470.0</ele><time>2026-04-18T06:00:26.999Z</time></trkpt><trkpt lat="44.512161" lon="9.0667051"><ele>471.0</ele><time>2026-04-18T06:00:27.999Z</time></trkpt><trkpt lat="44.5121051" lon="9.0668844"><ele>472.0</ele><time>2026-04-18T06:00:28.999Z</time></trkpt><trkpt lat="44.5120602" lon="9.0670637"><ele>473.0</ele><time>2026-04-18T06:00:29.999Z</time></trkpt><trkpt lat="44.5120394" lon="9.0672532"><ele>473.5</ele><time>2026-04-18T06:00:30.999Z</time></trkpt><trkpt lat="44.5120393" lon="9.0674519"><ele>474.0</ele><time>2026-04-18T06:00:31.999Z</time></trkpt><trkpt lat="44.5120594" lon="9.0676454"><ele>474.5</ele><time>2026-04-18T06:00:32.999Z</time></trkpt><trkpt lat="44.5120948" lon="9.0678381"><ele>475.0</ele><time>2026-04-18T06:00:33.999Z</time></trkpt><trkpt lat="44.5121396" lon="9.0680343"><ele>491.0</ele><time>2026-04-18T06:00:35.103Z</time></trkpt><trkpt lat="44.5122191" lon="9.0684443"><ele>507.0</ele><time>2026-04-18T06:00:36.999Z</time></trkpt><trkpt lat="44.5122555" lon="9.0686505"><ele>507.0</ele><time>2026-04-18T06:00:37.999Z</time></trkpt><trkpt lat="44.5122889" lon="9.0688811"><ele>507.0</ele><time>2026-04-18T06:00:38.999Z</time></trkpt><trkpt lat="44.5123256" lon="9.0691127"><ele>507.0</ele><time>2026-04-18T06:00:39.999Z</time></trkpt><trkpt lat="44.5123615" lon="9.0693465"><ele>502.5</ele><time>2026-04-18T06:00:41.104Z</time></trkpt><trkpt lat="44.5124326" lon="9.0697861"><ele>498.0</ele><time>2026-04-18T06:00:42.999Z</time></trkpt><trkpt lat="44.5124638" lon="9.0699994"><ele>493.5</ele><time>2026-04-18T06:00:44.101Z</time></trkpt><trkpt lat="44.5125016" lon="9.070415"><ele>489.0</ele><time>2026-04-18T06:00:45.999Z</time></trkpt><trkpt lat="44.5125082" lon="9.0706294"><ele>487.5</ele><time>2026-04-18T06:00:46.999Z</time></trkpt><trkpt lat="44.5125106" lon="9.0708288"><ele>486.0</ele><time>2026-04-18T06:00:47.999Z</time></trkpt><trkpt lat="44.5125064" lon="9.0710168"><ele>484.5</ele><time>2026-04-18T06:00:48.999Z</time></trkpt><trkpt lat="44.5124813" lon="9.0711925"><ele>483.0</ele><time>2026-04-18T06:00:50.103Z</time></trkpt><trkpt lat="44.5123695" lon="9.0715498"><ele>484.0</ele><time>2026-04-18T06:00:51.999Z</time></trkpt><trkpt lat="44.5123192" lon="9.0717322"><ele>485.0</ele><time>2026-04-18T06:00:52.999Z</time></trkpt><trkpt lat="44.5122859" lon="9.0719205"><ele>486.0</ele><time>2026-04-18T06:00:54.108Z</time></trkpt><trkpt lat="44.5123131" lon="9.0722898"><ele>486.0</ele><time>2026-04-18T06:00:55.999Z</time></trkpt><trkpt lat="44.512361" lon="9.0724579"><ele>486.0</ele><time>2026-04-18T06:00:56.999Z</time></trkpt><trkpt lat="44.5124552" lon="9.072614"><ele>486.0</ele><time>2026-04-18T06:00:57.999Z</time></trkpt><trkpt lat="44.5125396" lon="9.0727651"><ele>486.0</ele><time>2026-04-18T06:00:58.999Z</time></trkpt><trkpt lat="44.5126175" lon="9.0729364"><ele>484.66666666666663</ele><time>2026-04-18T06:01:00.1Z</time></trkpt><trkpt lat="44.5127179" lon="9.0733054"><ele>483.3333333333333</ele><time>2026-04-18T06:01:01.999Z</time></trkpt><trkpt lat="44.5127412" lon="9.0735039"><ele>482.0</ele><time>2026-04-18T06:01:02.999Z</time></trkpt><trkpt lat="44.5127337" lon="9.0737143"><ele>482.0</ele><time>2026-04-18T06:01:03.999Z</time></trkpt><trkpt lat="44.5127158" lon="9.0739224"><ele>482.0</ele><time>2026-04-18T06:01:04.999Z</time></trkpt><trkpt lat="44.5126894" lon="9.0741278"><ele>482.0</ele><time>2026-04-18T06:01:05.999Z</time></trkpt><trkpt lat="44.5126517" lon="9.0743305"><ele>482.0</ele><time>2026-04-18T06:01:06.999Z</time></trkpt><trkpt lat="44.5125992" lon="9.0745354"><ele>481.3333333333333</ele><time>2026-04-18T06:01:07.999Z</time></trkpt><trkpt lat="44.5125415" lon="9.0747341"><ele>480.66666666666663</ele><time>2026-04-18T06:01:08.999Z</time></trkpt><trkpt lat="44.5124831" lon="9.0749395"><ele>480.0</ele><time>2026-04-18T06:01:10.101Z</time></trkpt><trkpt lat="44.5123803" lon="9.0753513"><ele>483.0</ele><time>2026-04-18T06:01:11.999Z</time></trkpt><trkpt lat="44.5123279" lon="9.0755624"><ele>486.0</ele><time>2026-04-18T06:01:12.999Z</time></trkpt><trkpt lat="44.5122781" lon="9.0757544"><ele>489.0</ele><time>2026-04-18T06:01:13.999Z</time></trkpt><trkpt lat="44.5122345" lon="9.0759359"><ele>492.0</ele><time>2026-04-18T06:01:15.101Z</time></trkpt><trkpt lat="44.5121516" lon="9.0763071"><ele>496.33333333333337</ele><time>2026-04-18T06:01:16.999Z</time></trkpt><trkpt lat="44.5120992" lon="9.0764771"><ele>500.6666666666667</ele><time>2026-04-18T06:01:17.999Z</time></trkpt><trkpt lat="44.5120456" lon="9.0766339"><ele>505.0</ele><time>2026-04-18T06:01:19.11Z</time></trkpt><trkpt lat="44.5119353" lon="9.0769269"><ele>500.75</ele><time>2026-04-18T06:01:20.999Z</time></trkpt><trkpt lat="44.5118759" lon="9.0770514"><ele>496.5</ele><time>2026-04-18T06:01:21.999Z</time></trkpt><trkpt lat="44.5118009" lon="9.0771683"><ele>492.25</ele><time>2026-04-18T06:01:22.999Z</time></trkpt><trkpt lat="44.5117183" lon="9.0773007"><ele>488.0</ele><time>2026-04-18T06:01:23.999Z</time></trkpt><trkpt lat="44.5116482" lon="9.0774384"><ele>488.0</ele><time>2026-04-18T06:01:24.999Z</time></trkpt><trkpt lat="44.5115821" lon="9.0775992"><ele>488.0</ele><time>2026-04-18T06:01:26.101Z</time></trkpt><trkpt lat="44.5115223" lon="9.077767"><ele>488.0</ele><time>2026-04-18T06:01:26.999Z</time></trkpt><trkpt lat="44.5114619" lon="9.0779431"><ele>488.0</ele><time>2026-04-18T06:01:27.999Z</time></trkpt><trkpt lat="44.5114003" lon="9.0781314"><ele>489.3333333333333</ele><time>2026-04-18T06:01:29.107Z</time></trkpt><trkpt lat="44.5112577" lon="9.0784783"><ele>490.66666666666663</ele><time>2026-04-18T06:01:30.999Z</time></trkpt><trkpt lat="44.5111793" lon="9.0786552"><ele>492.0</ele><time>2026-04-18T06:01:31.999Z</time></trkpt><trkpt lat="44.5111049" lon="9.0788236"><ele>492.0</ele><time>2026-04-18T06:01:32.999Z</time></trkpt><trkpt lat="44.511036" lon="9.0789957"><ele>492.0</ele><time>2026-04-18T06:01:33.999Z</time></trkpt><trkpt lat="44.5109657" lon="9.079162"><ele>492.0</ele><time>2026-04-18T06:01:34.999Z</time></trkpt><trkpt lat="44.5109174" lon="9.0793418"><ele>492.0</ele><time>2026-04-18T06:01:35.999Z</time></trkpt><trkpt lat="44.5108724" lon="9.0795221"><ele>492.0</ele><time>2026-04-18T06:01:36.999Z</time></trkpt><trkpt lat="44.5108428" lon="9.0797034"><ele>492.0</ele><time>2026-04-18T06:01:37.999Z</time></trkpt><trkpt lat="44.5108161" lon="9.0798793"><ele>492.0</ele><time>2026-04-18T06:01:38.999Z</time></trkpt><trkpt lat="44.5107886" lon="9.0800375"><ele>492.0</ele><time>2026-04-18T06:01:39.999Z</time></trkpt><trkpt lat="44.5107498" lon="9.0801719"><ele>491.0</ele><time>2026-04-18T06:01:40.999Z</time></trkpt><trkpt lat="44.5106729" lon="9.0802828"><ele>490.0</ele><time>2026-04-18T06:01:41.999Z</time></trkpt><trkpt lat="44.510583" lon="9.0803833"><ele>489.0</ele><time>2026-04-18T06:01:42.999Z</time></trkpt><trkpt lat="44.5104854" lon="9.0804869"><ele>488.0</ele><time>2026-04-18T06:01:44.101Z</time></trkpt><trkpt lat="44.5102667" lon="9.080754"><ele>488.25</ele><time>2026-04-18T06:01:45.999Z</time></trkpt><trkpt lat="44.5101552" lon="9.0809074"><ele>488.5</ele><time>2026-04-18T06:01:46.999Z</time></trkpt><trkpt lat="44.5100551" lon="9.0810641"><ele>488.75</ele><time>2026-04-18T06:01:47.999Z</time></trkpt><trkpt lat="44.5099619" lon="9.081213"><ele>489.0</ele><time>2026-04-18T06:01:48.999Z</time></trkpt><trkpt lat="44.5098793" lon="9.0813736"><ele>489.0</ele><time>2026-04-18T06:01:49.999Z</time></trkpt><trkpt lat="44.5098145" lon="9.0815362"><ele>489.0</ele><time>2026-04-18T06:01:50.999Z</time></trkpt><trkpt lat="44.5097726" lon="9.0817176"><ele>489.0</ele><time>2026-04-18T06:01:51.999Z</time></trkpt><trkpt lat="44.5097418" lon="9.0819087"><ele>489.0</ele><time>2026-04-18T06:01:52.999Z</time></trkpt><trkpt lat="44.5097163" lon="9.0820919"><ele>487.0</ele><time>2026-04-18T06:01:54.101Z</time></trkpt><trkpt lat="44.5096673" lon="9.0824519"><ele>485.0</ele><time>2026-04-18T06:01:55.999Z</time></trkpt><trkpt lat="44.5096312" lon="9.082625"><ele>483.0</ele><time>2026-04-18T06:01:56.999Z</time></trkpt><trkpt lat="44.5095656" lon="9.0827652"><ele>483.0</ele><time>2026-04-18T06:01:57.999Z</time></trkpt><trkpt lat="44.5094962" lon="9.0828938"><ele>483.0</ele><time>2026-04-18T06:01:58.999Z</time></trkpt><trkpt lat="44.5094266" lon="9.0830301"><ele>483.0</ele><time>2026-04-18T06:01:59.999Z</time></trkpt><trkpt lat="44.5093695" lon="9.0831775"><ele>483.0</ele><time>2026-04-18T06:02:00.999Z</time></trkpt><trkpt lat="44.5093382" lon="9.0833422"><ele>484.4</ele><time>2026-04-18T06:02:01.999Z</time></trkpt><trkpt lat="44.5093584" lon="9.0834999"><ele>485.79999999999995</ele><time>2026-04-18T06:02:02.999Z</time></trkpt><trkpt lat="44.5094082" lon="9.0836226"><ele>487.2</ele><time>2026-04-18T06:02:03.999Z</time></trkpt><trkpt lat="44.5094522" lon="9.0837571"><ele>488.6</ele><time>2026-04-18T06:02:04.999Z</time></trkpt><trkpt lat="44.5095396" lon="9.0838626"><ele>490.0</ele><time>2026-04-18T06:02:05.999Z</time></trkpt><trkpt lat="44.5096437" lon="9.0839188"><ele>492.25</ele><time>2026-04-18T06:02:06.999Z</time></trkpt><trkpt lat="44.5097587" lon="9.0839577"><ele>494.5</ele><time>2026-04-18T06:02:07.999Z</time></trkpt><trkpt lat="44.5098796" lon="9.084023"><ele>496.75</ele><time>2026-04-18T06:02:09Z</time></trkpt><trkpt lat="44.5099818" lon="9.0841172"><ele>499.0</ele><time>2026-04-18T06:02:09.999Z</time></trkpt><trkpt lat="44.5100954" lon="9.0842083"><ele>499.0</ele><time>2026-04-18T06:02:10.999Z</time></trkpt><trkpt lat="44.5102029" lon="9.0843036"><ele>499.0</ele><time>2026-04-18T06:02:11.999Z</time></trkpt><trkpt lat="44.5103015" lon="9.0844047"><ele>499.0</ele><time>2026-04-18T06:02:12.999Z</time></trkpt><trkpt lat="44.5103713" lon="9.0845129"><ele>499.0</ele><time>2026-04-18T06:02:13.999Z</time></trkpt><trkpt lat="44.5104268" lon="9.0846322"><ele>500.5</ele><time>2026-04-18T06:02:15.102Z</time></trkpt><trkpt lat="44.5104346" lon="9.0849467"><ele>502.0</ele><time>2026-04-18T06:02:16.999Z</time></trkpt><trkpt lat="44.5104155" lon="9.0850992"><ele>503.5</ele><time>2026-04-18T06:02:17.999Z</time></trkpt><trkpt lat="44.5104116" lon="9.0852466"><ele>505.0</ele><time>2026-04-18T06:02:18.999Z</time></trkpt><trkpt lat="44.5104124" lon="9.0853821"><ele>505.00000000000006</ele><time>2026-04-18T06:02:19.999Z</time></trkpt><trkpt lat="44.5104268" lon="9.0855115"><ele>505.0</ele><time>2026-04-18T06:02:20.999Z</time></trkpt><trkpt lat="44.5104753" lon="9.0856178"><ele>505.0</ele><time>2026-04-18T06:02:21.999Z</time></trkpt><trkpt lat="44.5105538" lon="9.0856895"><ele>505.0</ele><time>2026-04-18T06:02:22.999Z</time></trkpt><trkpt lat="44.5106331" lon="9.0857338"><ele>505.00000000000006</ele><time>2026-04-18T06:02:23.999Z</time></trkpt><trkpt lat="44.5107163" lon="9.0857657"><ele>505.0</ele><time>2026-04-18T06:02:24.999Z</time></trkpt><trkpt lat="44.5108658" lon="9.0858157"><ele>505.75</ele><time>2026-04-18T06:02:25.999Z</time></trkpt><trkpt lat="44.5109811" lon="9.0858423"><ele>506.5</ele><time>2026-04-18T06:02:26.999Z</time></trkpt><trkpt lat="44.5110937" lon="9.0858605"><ele>507.25</ele><time>2026-04-18T06:02:27.999Z</time></trkpt><trkpt lat="44.5112114" lon="9.0858577"><ele>508.0</ele><time>2026-04-18T06:02:28.999Z</time></trkpt><trkpt lat="44.5113165" lon="9.085864"><ele>508.00000000000006</ele><time>2026-04-18T06:02:29.999Z</time></trkpt><trkpt lat="44.511402" lon="9.0858451"><ele>508.0</ele><time>2026-04-18T06:02:30.999Z</time></trkpt><trkpt lat="44.5114751" lon="9.0858759"><ele>508.0</ele><time>2026-04-18T06:02:31.999Z</time></trkpt><trkpt lat="44.5115354" lon="9.0859298"><ele>508.0</ele><time>2026-04-18T06:02:32.999Z</time></trkpt><trkpt lat="44.5115875" lon="9.086023"><ele>508.00000000000006</ele><time>2026-04-18T06:02:33.999Z</time></trkpt><trkpt lat="44.5116345" lon="9.086139"><ele>508.0</ele><time>2026-04-18T06:02:35.114Z</time></trkpt><trkpt lat="44.5116067" lon="9.0863322"><ele>508.0</ele><time>2026-04-18T06:02:36.999Z</time></trkpt><trkpt lat="44.5115536" lon="9.086424"><ele>507.99999999999994</ele><time>2026-04-18T06:02:37.999Z</time></trkpt><trkpt lat="44.5115094" lon="9.0865612"><ele>507.99999999999994</ele><time>2026-04-18T06:02:38.999Z</time></trkpt><trkpt lat="44.5114813" lon="9.0867124"><ele>508.0</ele><time>2026-04-18T06:02:39.999Z</time></trkpt><trkpt lat="44.5114704" lon="9.0868656"><ele>508.0</ele><time>2026-04-18T06:02:40.999Z</time></trkpt><trkpt lat="44.5114682" lon="9.0870285"><ele>509.75</ele><time>2026-04-18T06:02:41.999Z</time></trkpt><trkpt lat="44.5114626" lon="9.0872108"><ele>511.5</ele><time>2026-04-18T06:02:42.999Z</time></trkpt><trkpt lat="44.5114395" lon="9.0873731"><ele>513.25</ele><time>2026-04-18T06:02:43.999Z</time></trkpt><trkpt lat="44.5114201" lon="9.0875302"><ele>515.0</ele><time>2026-04-18T06:02:45.102Z</time></trkpt><trkpt lat="44.5113772" lon="9.0876723"><ele>510.0</ele><time>2026-04-18T06:02:46.105Z</time></trkpt><trkpt lat="44.511224" lon="9.0878493"><ele>505.0</ele><time>2026-04-18T06:02:47.999Z</time></trkpt><trkpt lat="44.5111023" lon="9.087946"><ele>500.0</ele><time>2026-04-18T06:02:48.999Z</time></trkpt><trkpt lat="44.5109912" lon="9.0880339"><ele>500.0</ele><time>2026-04-18T06:02:49.999Z</time></trkpt><trkpt lat="44.5108651" lon="9.0880698"><ele>500.0</ele><time>2026-04-18T06:02:50.999Z</time></trkpt><trkpt lat="44.5107401" lon="9.0880962"><ele>500.0</ele><time>2026-04-18T06:02:51.999Z</time></trkpt><trkpt lat="44.5106079" lon="9.0881259"><ele>500.0</ele><time>2026-04-18T06:02:52.999Z</time></trkpt><trkpt lat="44.510473" lon="9.0881586"><ele>501.25</ele><time>2026-04-18T06:02:53.999Z</time></trkpt><trkpt lat="44.5103317" lon="9.0882049"><ele>502.5</ele><time>2026-04-18T06:02:54.999Z</time></trkpt><trkpt lat="44.5101846" lon="9.0882438"><ele>503.75</ele><time>2026-04-18T06:02:55.999Z</time></trkpt><trkpt lat="44.5100417" lon="9.0883084"><ele>505.0</ele><time>2026-04-18T06:02:56.999Z</time></trkpt><trkpt lat="44.5099155" lon="9.0883608"><ele>504.25</ele><time>2026-04-18T06:02:57.999Z</time></trkpt><trkpt lat="44.5097975" lon="9.0884084"><ele>503.5</ele><time>2026-04-18T06:02:58.999Z</time></trkpt><trkpt lat="44.5096861" lon="9.0884707"><ele>502.75</ele><time>2026-04-18T06:02:59.999Z</time></trkpt><trkpt lat="44.5095653" lon="9.0885318"><ele>502.0</ele><time>2026-04-18T06:03:00.999Z</time></trkpt><trkpt lat="44.509484" lon="9.0886236"><ele>502.00000000000006</ele><time>2026-04-18T06:03:01.999Z</time></trkpt><trkpt lat="44.5094608" lon="9.088719"><ele>502.0</ele><time>2026-04-18T06:03:02.999Z</time></trkpt><trkpt lat="44.5094305" lon="9.0888355"><ele>502.0</ele><time>2026-04-18T06:03:03.999Z</time></trkpt><trkpt lat="44.50944" lon="9.0889392"><ele>502.0</ele><time>2026-04-18T06:03:04.999Z</time></trkpt><trkpt lat="44.5094887" lon="9.0890239"><ele>502.00000000000006</ele><time>2026-04-18T06:03:05.999Z</time></trkpt><trkpt lat="44.5095634" lon="9.0890724"><ele>502.0</ele><time>2026-04-18T06:03:06.999Z</time></trkpt><trkpt lat="44.5096556" lon="9.0890901"><ele>504.0</ele><time>2026-04-18T06:03:07.999Z</time></trkpt><trkpt lat="44.5097557" lon="9.0890968"><ele>506.00000000000006</ele><time>2026-04-18T06:03:08.999Z</time></trkpt><trkpt lat="44.5098617" lon="9.0890876"><ele>508.00000000000006</ele><time>2026-04-18T06:03:09.999Z</time></trkpt><trkpt lat="44.509958" lon="9.0890718"><ele>510.0</ele><time>2026-04-18T06:03:10.999Z</time></trkpt><trkpt lat="44.5100738" lon="9.0890966"><ele>512.0</ele><time>2026-04-18T06:03:11.999Z</time></trkpt><trkpt lat="44.5101873" lon="9.0891541"><ele>512.0</ele><time>2026-04-18T06:03:12.999Z</time></trkpt><trkpt lat="44.5102918" lon="9.0892204"><ele>512.0</ele><time>2026-04-18T06:03:13.999Z</time></trkpt><trkpt lat="44.5103748" lon="9.0893307"><ele>512.0</ele><time>2026-04-18T06:03:15.1Z</time></trkpt><trkpt lat="44.5104964" lon="9.0896018"><ele>518.75</ele><time>2026-04-18T06:03:16.999Z</time></trkpt><trkpt lat="44.5105213" lon="9.0897483"><ele>525.5</ele><time>2026-04-18T06:03:17.999Z</time></trkpt><trkpt lat="44.5105305" lon="9.0899084"><ele>532.25</ele><time>2026-04-18T06:03:18.999Z</time></trkpt><trkpt lat="44.5105196" lon="9.0900828"><ele>539.0</ele><time>2026-04-18T06:03:19.999Z</time></trkpt><trkpt lat="44.5105125" lon="9.0902578"><ele>539.0</ele><time>2026-04-18T06:03:20.999Z</time></trkpt><trkpt lat="44.5105091" lon="9.0904311"><ele>539.0</ele><time>2026-04-18T06:03:21.999Z</time></trkpt><trkpt lat="44.5105207" lon="9.0906056"><ele>539.0</ele><time>2026-04-18T06:03:22.999Z</time></trkpt><trkpt lat="44.5105449" lon="9.0907683"><ele>539.0</ele><time>2026-04-18T06:03:23.999Z</time></trkpt><trkpt lat="44.5105824" lon="9.090936"><ele>538.0</ele><time>2026-04-18T06:03:24.999Z</time></trkpt><trkpt lat="44.5106124" lon="9.0911057"><ele>537.0</ele><time>2026-04-18T06:03:25.999Z</time></trkpt><trkpt lat="44.510626" lon="9.0912633"><ele>536.0</ele><time>2026-04-18T06:03:26.999Z</time></trkpt><trkpt lat="44.5106033" lon="9.0914056"><ele>535.0</ele><time>2026-04-18T06:03:27.999Z</time></trkpt><trkpt lat="44.51057" lon="9.0915412"><ele>534.0</ele><time>2026-04-18T06:03:28.999Z</time></trkpt><trkpt lat="44.5104972" lon="9.0915845"><ele>532.3333333333334</ele><time>2026-04-18T06:03:29.999Z</time></trkpt><trkpt lat="44.5104236" lon="9.0916134"><ele>530.6666666666666</ele><time>2026-04-18T06:03:30.999Z</time></trkpt><trkpt lat="44.5103494" lon="9.0916673"><ele>529.0</ele><time>2026-04-18T06:03:31.999Z</time></trkpt><trkpt lat="44.5102909" lon="9.0917703"><ele>527.3333333333333</ele><time>2026-04-18T06:03:32.999Z</time></trkpt><trkpt lat="44.5102597" lon="9.0918778"><ele>525.6666666666666</ele><time>2026-04-18T06:03:33.999Z</time></trkpt><trkpt lat="44.5102446" lon="9.0920218"><ele>524.0</ele><time>2026-04-18T06:03:34.999Z</time></trkpt><trkpt lat="44.5102276" lon="9.09218"><ele>522.25</ele><time>2026-04-18T06:03:35.999Z</time></trkpt><trkpt lat="44.5102283" lon="9.0923992"><ele>520.5</ele><time>2026-04-18T06:03:36.999Z</time></trkpt><trkpt lat="44.5102327" lon="9.0925453"><ele>518.75</ele><time>2026-04-18T06:03:37.999Z</time></trkpt><trkpt lat="44.5102509" lon="9.0927147"><ele>517.0</ele><time>2026-04-18T06:03:38.999Z</time></trkpt><trkpt lat="44.5102385" lon="9.0928673"><ele>517.0</ele><time>2026-04-18T06:03:40.105Z</time></trkpt><trkpt lat="44.5101884" lon="9.0931804"><ele>517.0</ele><time>2026-04-18T06:03:41.999Z</time></trkpt><trkpt lat="44.5101705" lon="9.0933256"><ele>517.0</ele><time>2026-04-18T06:03:42.999Z</time></trkpt><trkpt lat="44.510136" lon="9.0934664"><ele>517.0</ele><time>2026-04-18T06:03:44Z</time></trkpt><trkpt lat="44.5100842" lon="9.0935663"><ele>518.2</ele><time>2026-04-18T06:03:44.999Z</time></trkpt><trkpt lat="44.5100165" lon="9.093678"><ele>519.4000000000001</ele><time>2026-04-18T06:03:45.999Z</time></trkpt><trkpt lat="44.5099284" lon="9.0937734"><ele>520.5999999999999</ele><time>2026-04-18T06:03:46.999Z</time></trkpt><trkpt lat="44.5098329" lon="9.093859"><ele>521.8</ele><time>2026-04-18T06:03:47.999Z</time></trkpt><trkpt lat="44.5097429" lon="9.0939216"><ele>523.0</ele><time>2026-04-18T06:03:48.999Z</time></trkpt><trkpt lat="44.5096503" lon="9.0939732"><ele>519.75</ele><time>2026-04-18T06:03:49.999Z</time></trkpt><trkpt lat="44.5095339" lon="9.093991"><ele>516.5</ele><time>2026-04-18T06:03:50.999Z</time></trkpt><trkpt lat="44.509417" lon="9.0939999"><ele>513.25</ele><time>2026-04-18T06:03:51.999Z</time></trkpt><trkpt lat="44.509305" lon="9.0939984"><ele>510.0</ele><time>2026-04-18T06:03:52.999Z</time></trkpt><trkpt lat="44.5091708" lon="9.0939919"><ele>510.0</ele><time>2026-04-18T06:03:54Z</time></trkpt><trkpt lat="44.5090553" lon="9.0939657"><ele>510.0</ele><time>2026-04-18T06:03:54.999Z</time></trkpt><trkpt lat="44.5089447" lon="9.0939203"><ele>510.0</ele><time>2026-04-18T06:03:55.999Z</time></trkpt><trkpt lat="44.5088228" lon="9.0938854"><ele>510.0</ele><time>2026-04-18T06:03:56.999Z</time></trkpt><trkpt lat="44.5087148" lon="9.0938336"><ele>509.25</ele><time>2026-04-18T06:03:57.999Z</time></trkpt><trkpt lat="44.5085929" lon="9.0937933"><ele>508.5</ele><time>2026-04-18T06:03:58.999Z</time></trkpt><trkpt lat="44.5084721" lon="9.09378"><ele>507.75</ele><time>2026-04-18T06:03:59.999Z</time></trkpt><trkpt lat="44.5083444" lon="9.0938025"><ele>507.0</ele><time>2026-04-18T06:04:00.999Z</time></trkpt><trkpt lat="44.5082198" lon="9.0938397"><ele>507.0</ele><time>2026-04-18T06:04:01.999Z</time></trkpt><trkpt lat="44.5081135" lon="9.0939221"><ele>507.0</ele><time>2026-04-18T06:04:02.999Z</time></trkpt><trkpt lat="44.507999" lon="9.0940429"><ele>507.0</ele><time>2026-04-18T06:04:04.102Z</time></trkpt><trkpt lat="44.5077893" lon="9.0942897"><ele>508.5</ele><time>2026-04-18T06:04:05.999Z</time></trkpt><trkpt lat="44.5076752" lon="9.0944284"><ele>510.0</ele><time>2026-04-18T06:04:06.999Z</time></trkpt><trkpt lat="44.5075724" lon="9.09455"><ele>511.5</ele><time>2026-04-18T06:04:07.999Z</time></trkpt><trkpt lat="44.5074703" lon="9.0946754"><ele>513.0</ele><time>2026-04-18T06:04:08.999Z</time></trkpt><trkpt lat="44.5073808" lon="9.094795"><ele>513.0</ele><time>2026-04-18T06:04:09.999Z</time></trkpt><trkpt lat="44.507295" lon="9.0949054"><ele>513.0</ele><time>2026-04-18T06:04:10.999Z</time></trkpt><trkpt lat="44.5072101" lon="9.095024"><ele>513.0</ele><time>2026-04-18T06:04:11.999Z</time></trkpt><trkpt lat="44.5071612" lon="9.0951584"><ele>513.0</ele><time>2026-04-18T06:04:12.999Z</time></trkpt><trkpt lat="44.5071498" lon="9.0953261"><ele>515.5</ele><time>2026-04-18T06:04:13.999Z</time></trkpt><trkpt lat="44.5071447" lon="9.0955153"><ele>518.0</ele><time>2026-04-18T06:04:15Z</time></trkpt><trkpt lat="44.5071393" lon="9.0957029"><ele>520.5</ele><time>2026-04-18T06:04:15.999Z</time></trkpt><trkpt lat="44.5071222" lon="9.0958859"><ele>523.0</ele><time>2026-04-18T06:04:16.999Z</time></trkpt><trkpt lat="44.5070979" lon="9.0960665"><ele>522.6666666666667</ele><time>2026-04-18T06:04:17.999Z</time></trkpt><trkpt lat="44.5070574" lon="9.096235"><ele>522.3333333333334</ele><time>2026-04-18T06:04:19.102Z</time></trkpt><trkpt lat="44.5069315" lon="9.0965717"><ele>522.0</ele><time>2026-04-18T06:04:20.999Z</time></trkpt><trkpt lat="44.5068709" lon="9.0967333"><ele>522.75</ele><time>2026-04-18T06:04:21.999Z</time></trkpt><trkpt lat="44.5068182" lon="9.096917"><ele>523.5</ele><time>2026-04-18T06:04:22.999Z</time></trkpt><trkpt lat="44.5067785" lon="9.0971135"><ele>524.25</ele><time>2026-04-18T06:04:23.999Z</time></trkpt><trkpt lat="44.506731" lon="9.0973029"><ele>525.0</ele><time>2026-04-18T06:04:24.999Z</time></trkpt><trkpt lat="44.5066737" lon="9.0974845"><ele>525.0</ele><time>2026-04-18T06:04:25.999Z</time></trkpt><trkpt lat="44.506601" lon="9.0976351"><ele>525.0</ele><time>2026-04-18T06:04:26.999Z</time></trkpt><trkpt lat="44.5065183" lon="9.0977793"><ele>525.0</ele><time>2026-04-18T06:04:27.999Z</time></trkpt><trkpt lat="44.5064044" lon="9.0979025"><ele>525.0</ele><time>2026-04-18T06:04:28.999Z</time></trkpt><trkpt lat="44.5062826" lon="9.0980083"><ele>524.0</ele><time>2026-04-18T06:04:30.1Z</time></trkpt><trkpt lat="44.5061434" lon="9.098109"><ele>523.0</ele><time>2026-04-18T06:04:31.106Z</time></trkpt><trkpt lat="44.5058866" lon="9.0982708"><ele>522.0</ele><time>2026-04-18T06:04:32.999Z</time></trkpt><trkpt lat="44.5057525" lon="9.0983182"><ele>522.0</ele><time>2026-04-18T06:04:33.999Z</time></trkpt><trkpt lat="44.5056183" lon="9.0983404"><ele>522.0</ele><time>2026-04-18T06:04:34.999Z</time></trkpt><trkpt lat="44.5054838" lon="9.098349"><ele>522.0</ele><time>2026-04-18T06:04:35.999Z</time></trkpt><trkpt lat="44.5053675" lon="9.0983664"><ele>522.0</ele><time>2026-04-18T06:04:36.999Z</time></trkpt><trkpt lat="44.5052427" lon="9.0984139"><ele>520.25</ele><time>2026-04-18T06:04:37.999Z</time></trkpt><trkpt lat="44.5051512" lon="9.0984865"><ele>518.5</ele><time>2026-04-18T06:04:38.999Z</time></trkpt><trkpt lat="44.5050581" lon="9.0986077"><ele>516.75</ele><time>2026-04-18T06:04:39.999Z</time></trkpt><trkpt lat="44.5049662" lon="9.0987121"><ele>515.0</ele><time>2026-04-18T06:04:40.999Z</time></trkpt><trkpt lat="44.5048724" lon="9.0988213"><ele>515.0</ele><time>2026-04-18T06:04:41.999Z</time></trkpt><trkpt lat="44.5047828" lon="9.0989247"><ele>515.0</ele><time>2026-04-18T06:04:42.999Z</time></trkpt><trkpt lat="44.5047273" lon="9.0990463"><ele>515.0</ele><time>2026-04-18T06:04:43.999Z</time></trkpt><trkpt lat="44.5046732" lon="9.0992161"><ele>515.0</ele><time>2026-04-18T06:04:44.999Z</time></trkpt><trkpt lat="44.5046583" lon="9.0993962"><ele>517.75</ele><time>2026-04-18T06:04:45.999Z</time></trkpt><trkpt lat="44.5046406" lon="9.0995783"><ele>520.5</ele><time>2026-04-18T06:04:46.999Z</time></trkpt><trkpt lat="44.5046237" lon="9.0997651"><ele>523.25</ele><time>2026-04-18T06:04:47.999Z</time></trkpt><trkpt lat="44.5046105" lon="9.0999584"><ele>526.0</ele><time>2026-04-18T06:04:48.999Z</time></trkpt><trkpt lat="44.5045946" lon="9.1001578"><ele>525.25</ele><time>2026-04-18T06:04:49.999Z</time></trkpt><trkpt lat="44.504581" lon="9.1003576"><ele>524.5</ele><time>2026-04-18T06:04:50.999Z</time></trkpt><trkpt lat="44.5045667" lon="9.1005594"><ele>523.75</ele><time>2026-04-18T06:04:51.999Z</time></trkpt><trkpt lat="44.5045464" lon="9.1007693"><ele>523.0</ele><time>2026-04-18T06:04:52.999Z</time></trkpt><trkpt lat="44.5045402" lon="9.1009813"><ele>524.75</ele><time>2026-04-18T06:04:53.999Z</time></trkpt><trkpt lat="44.5045455" lon="9.1011917"><ele>526.5</ele><time>2026-04-18T06:04:54.999Z</time></trkpt><trkpt lat="44.504555" lon="9.1013964"><ele>528.25</ele><time>2026-04-18T06:04:55.999Z</time></trkpt><trkpt lat="44.5045703" lon="9.1016091"><ele>530.0</ele><time>2026-04-18T06:04:56.999Z</time></trkpt><trkpt lat="44.5045946" lon="9.1018037"><ele>536.0</ele><time>2026-04-18T06:04:57.999Z</time></trkpt><trkpt lat="44.5046151" lon="9.1020023"><ele>542.0</ele><time>2026-04-18T06:04:58.999Z</time></trkpt><trkpt lat="44.5046355" lon="9.1021894"><ele>548.0</ele><time>2026-04-18T06:04:59.999Z</time></trkpt><trkpt lat="44.5046529" lon="9.1023706"><ele>554.0</ele><time>2026-04-18T06:05:00.999Z</time></trkpt><trkpt lat="44.5046692" lon="9.1025603"><ele>555.25</ele><time>2026-04-18T06:05:01.999Z</time></trkpt><trkpt lat="44.5046505" lon="9.1026853"><ele>556.5</ele><time>2026-04-18T06:05:02.999Z</time></trkpt><trkpt lat="44.504615" lon="9.102847"><ele>557.75</ele><time>2026-04-18T06:05:03.999Z</time></trkpt><trkpt lat="44.5045471" lon="9.1030198"><ele>559.0</ele><time>2026-04-18T06:05:04.999Z</time></trkpt><trkpt lat="44.5044713" lon="9.1031739"><ele>551.75</ele><time>2026-04-18T06:05:05.999Z</time></trkpt><trkpt lat="44.5043908" lon="9.1033297"><ele>544.5</ele><time>2026-04-18T06:05:06.999Z</time></trkpt><trkpt lat="44.5043076" lon="9.1034395"><ele>537.25</ele><time>2026-04-18T06:05:07.999Z</time></trkpt><trkpt lat="44.5041943" lon="9.103456"><ele>530.0</ele><time>2026-04-18T06:05:08.999Z</time></trkpt><trkpt lat="44.5040855" lon="9.1034781"><ele>530.0</ele><time>2026-04-18T06:05:09.999Z</time></trkpt><trkpt lat="44.5039411" lon="9.1034923"><ele>530.0</ele><time>2026-04-18T06:05:10.999Z</time></trkpt><trkpt lat="44.5037997" lon="9.1034905"><ele>530.0</ele><time>2026-04-18T06:05:11.999Z</time></trkpt><trkpt lat="44.5036601" lon="9.1035062"><ele>530.0</ele><time>2026-04-18T06:05:12.999Z</time></trkpt><trkpt lat="44.5035148" lon="9.103519"><ele>529.0</ele><time>2026-04-18T06:05:13.999Z</time></trkpt><trkpt lat="44.5033577" lon="9.1035327"><ele>528.0</ele><time>2026-04-18T06:05:14.999Z</time></trkpt><trkpt lat="44.5032099" lon="9.1035502"><ele>527.0</ele><time>2026-04-18T06:05:15.999Z</time></trkpt><trkpt lat="44.5030622" lon="9.1035549"><ele>527.0</ele><time>2026-04-18T06:05:16.999Z</time></trkpt><trkpt lat="44.5029236" lon="9.1035571"><ele>527.0</ele><time>2026-04-18T06:05:17.999Z</time></trkpt><trkpt lat="44.5027772" lon="9.1035797"><ele>527.0</ele><time>2026-04-18T06:05:18.999Z</time></trkpt><trkpt lat="44.5026425" lon="9.103617"><ele>527.0</ele><time>2026-04-18T06:05:19.999Z</time></trkpt><trkpt lat="44.5025182" lon="9.1036939"><ele>527.5</ele><time>2026-04-18T06:05:20.999Z</time></trkpt><trkpt lat="44.5024137" lon="9.1038067"><ele>528.0</ele><time>2026-04-18T06:05:21.999Z</time></trkpt><trkpt lat="44.5023123" lon="9.1039518"><ele>528.5</ele><time>2026-04-18T06:05:22.999Z</time></trkpt><trkpt lat="44.5022202" lon="9.1041022"><ele>529.0</ele><time>2026-04-18T06:05:23.999Z</time></trkpt><trkpt lat="44.502134" lon="9.1042648"><ele>530.75</ele><time>2026-04-18T06:05:24.999Z</time></trkpt><trkpt lat="44.5020907" lon="9.1044301"><ele>532.5</ele><time>2026-04-18T06:05:25.999Z</time></trkpt><trkpt lat="44.5020531" lon="9.1045924"><ele>534.25</ele><time>2026-04-18T06:05:26.999Z</time></trkpt><trkpt lat="44.5019894" lon="9.1047421"><ele>536.0</ele><time>2026-04-18T06:05:27.999Z</time></trkpt><trkpt lat="44.5019194" lon="9.1048676"><ele>538.3333333333333</ele><time>2026-04-18T06:05:28.999Z</time></trkpt><trkpt lat="44.5018239" lon="9.1049841"><ele>540.6666666666666</ele><time>2026-04-18T06:05:30.109Z</time></trkpt><trkpt lat="44.5016084" lon="9.1051952"><ele>543.0</ele><time>2026-04-18T06:05:31.999Z</time></trkpt><trkpt lat="44.5014946" lon="9.1052747"><ele>543.0</ele><time>2026-04-18T06:05:32.999Z</time></trkpt><trkpt lat="44.501368" lon="9.1053134"><ele>543.0</ele><time>2026-04-18T06:05:34.106Z</time></trkpt><trkpt lat="44.5011199" lon="9.1053325"><ele>543.0</ele><time>2026-04-18T06:05:35.999Z</time></trkpt><trkpt lat="44.5009863" lon="9.1053405"><ele>541.0</ele><time>2026-04-18T06:05:36.999Z</time></trkpt><trkpt lat="44.5008542" lon="9.1053534"><ele>539.0</ele><time>2026-04-18T06:05:37.999Z</time></trkpt><trkpt lat="44.5007318" lon="9.1053936"><ele>537.0</ele><time>2026-04-18T06:05:38.999Z</time></trkpt><trkpt lat="44.5006315" lon="9.1054346"><ele>535.0</ele><time>2026-04-18T06:05:39.999Z</time></trkpt><trkpt lat="44.500553" lon="9.1055118"><ele>535.0</ele><time>2026-04-18T06:05:40.999Z</time></trkpt><trkpt lat="44.5004891" lon="9.1055899"><ele>535.0</ele><time>2026-04-18T06:05:41.999Z</time></trkpt><trkpt lat="44.5004779" lon="9.10569"><ele>535.0</ele><time>2026-04-18T06:05:42.999Z</time></trkpt><trkpt lat="44.5004823" lon="9.1058072"><ele>535.0</ele><time>2026-04-18T06:05:43.999Z</time></trkpt><trkpt lat="44.5004831" lon="9.1060357"><ele>535.0</ele><time>2026-04-18T06:05:44.999Z</time></trkpt><trkpt lat="44.5004852" lon="9.1061933"><ele>541.0</ele><time>2026-04-18T06:05:45.999Z</time></trkpt><trkpt lat="44.5004866" lon="9.1063811"><ele>547.0</ele><time>2026-04-18T06:05:46.999Z</time></trkpt><trkpt lat="44.5004886" lon="9.1065718"><ele>553.0</ele><time>2026-04-18T06:05:48Z</time></trkpt><trkpt lat="44.5004967" lon="9.1067471"><ele>559.0</ele><time>2026-04-18T06:05:48.999Z</time></trkpt><trkpt lat="44.5005081" lon="9.1069309"><ele>562.5</ele><time>2026-04-18T06:05:49.999Z</time></trkpt><trkpt lat="44.5005232" lon="9.1070991"><ele>566.0</ele><time>2026-04-18T06:05:50.999Z</time></trkpt><trkpt lat="44.5005338" lon="9.1072493"><ele>569.5</ele><time>2026-04-18T06:05:51.998Z</time></trkpt><trkpt lat="44.500522" lon="9.1074015"><ele>573.0</ele><time>2026-04-18T06:05:52.999Z</time></trkpt><trkpt lat="44.5004783" lon="9.1075661"><ele>575.75</ele><time>2026-04-18T06:05:53.999Z</time></trkpt><trkpt lat="44.5004262" lon="9.1077044"><ele>578.5</ele><time>2026-04-18T06:05:55.111Z</time></trkpt><trkpt lat="44.5003021" lon="9.107964"><ele>581.25</ele><time>2026-04-18T06:05:56.999Z</time></trkpt><trkpt lat="44.5002271" lon="9.1080394"><ele>584.0</ele><time>2026-04-18T06:05:57.999Z</time></trkpt><trkpt lat="44.5001461" lon="9.1081048"><ele>575.0</ele><time>2026-04-18T06:05:58.999Z</time></trkpt><trkpt lat="44.5000387" lon="9.1081458"><ele>566.0</ele><time>2026-04-18T06:05:59.999Z</time></trkpt><trkpt lat="44.4999343" lon="9.1081423"><ele>557.0</ele><time>2026-04-18T06:06:00.999Z</time></trkpt><trkpt lat="44.499806" lon="9.1081553"><ele>548.0</ele><time>2026-04-18T06:06:01.999Z</time></trkpt><trkpt lat="44.4997066" lon="9.1081762"><ele>539.0</ele><time>2026-04-18T06:06:02.999Z</time></trkpt><trkpt lat="44.4996101" lon="9.1082193"><ele>539.0</ele><time>2026-04-18T06:06:03.999Z</time></trkpt><trkpt lat="44.4995435" lon="9.1083014"><ele>539.0</ele><time>2026-04-18T06:06:04.999Z</time></trkpt><trkpt lat="44.4994869" lon="9.1084144"><ele>539.0</ele><time>2026-04-18T06:06:05.999Z</time></trkpt><trkpt lat="44.4994623" lon="9.1085618"><ele>539.0</ele><time>2026-04-18T06:06:06.999Z</time></trkpt><trkpt lat="44.499423" lon="9.1087152"><ele>539.0</ele><time>2026-04-18T06:06:07.999Z</time></trkpt><trkpt lat="44.4993844" lon="9.1088657"><ele>539.0</ele><time>2026-04-18T06:06:08.999Z</time></trkpt><trkpt lat="44.4993415" lon="9.1089964"><ele>539.0</ele><time>2026-04-18T06:06:09.999Z</time></trkpt><trkpt lat="44.4992956" lon="9.1091225"><ele>539.0</ele><time>2026-04-18T06:06:10.999Z</time></trkpt><trkpt lat="44.4992567" lon="9.1092485"><ele>539.0</ele><time>2026-04-18T06:06:11.999Z</time></trkpt><trkpt lat="44.4992396" lon="9.1093985"><ele>539.0</ele><time>2026-04-18T06:06:13Z</time></trkpt><trkpt lat="44.4992322" lon="9.1095365"><ele>544.5</ele><time>2026-04-18T06:06:13.999Z</time></trkpt><trkpt lat="44.4992556" lon="9.1096811"><ele>550.0</ele><time>2026-04-18T06:06:15.108Z</time></trkpt><trkpt lat="44.4993117" lon="9.1099373"><ele>555.5</ele><time>2026-04-18T06:06:16.999Z</time></trkpt><trkpt lat="44.4993046" lon="9.1100485"><ele>561.0</ele><time>2026-04-18T06:06:17.999Z</time></trkpt><trkpt lat="44.4992713" lon="9.1101617"><ele>561.8</ele><time>2026-04-18T06:06:18.999Z</time></trkpt><trkpt lat="44.4992303" lon="9.1102628"><ele>562.6</ele><time>2026-04-18T06:06:19.999Z</time></trkpt><trkpt lat="44.4991481" lon="9.1103502"><ele>563.4</ele><time>2026-04-18T06:06:20.999Z</time></trkpt><trkpt lat="44.4990824" lon="9.1104346"><ele>564.2</ele><time>2026-04-18T06:06:21.999Z</time></trkpt><trkpt lat="44.4990275" lon="9.1105293"><ele>565.0</ele><time>2026-04-18T06:06:22.999Z</time></trkpt><trkpt lat="44.4989898" lon="9.1106479"><ele>565.2</ele><time>2026-04-18T06:06:23.999Z</time></trkpt><trkpt lat="44.4989856" lon="9.1107693"><ele>565.4</ele><time>2026-04-18T06:06:24.999Z</time></trkpt><trkpt lat="44.499018" lon="9.1109102"><ele>565.6</ele><time>2026-04-18T06:06:25.999Z</time></trkpt><trkpt lat="44.4990508" lon="9.1110469"><ele>565.8</ele><time>2026-04-18T06:06:26.999Z</time></trkpt><trkpt lat="44.4990973" lon="9.1111994"><ele>566.0</ele><time>2026-04-18T06:06:27.999Z</time></trkpt><trkpt lat="44.4991379" lon="9.1113407"><ele>566.0</ele><time>2026-04-18T06:06:28.999Z</time></trkpt><trkpt lat="44.4991742" lon="9.1114875"><ele>566.0</ele><time>2026-04-18T06:06:29.999Z</time></trkpt><trkpt lat="44.4991822" lon="9.1116522"><ele>566.0</ele><time>2026-04-18T06:06:30.999Z</time></trkpt><trkpt lat="44.4991828" lon="9.1118168"><ele>566.0</ele><time>2026-04-18T06:06:31.999Z</time></trkpt><trkpt lat="44.4991979" lon="9.1119827"><ele>566.25</ele><time>2026-04-18T06:06:32.999Z</time></trkpt><trkpt lat="44.4992119" lon="9.1121307"><ele>566.5</ele><time>2026-04-18T06:06:33.999Z</time></trkpt><trkpt lat="44.499214" lon="9.1123262"><ele>566.75</ele><time>2026-04-18T06:06:34.999Z</time></trkpt><trkpt lat="44.4991882" lon="9.1124983"><ele>567.0</ele><time>2026-04-18T06:06:36Z</time></trkpt><trkpt lat="44.4991348" lon="9.1126746"><ele>570.25</ele><time>2026-04-18T06:06:36.999Z</time></trkpt><trkpt lat="44.499074" lon="9.1128291"><ele>573.5</ele><time>2026-04-18T06:06:37.999Z</time></trkpt><trkpt lat="44.4989959" lon="9.1129599"><ele>576.75</ele><time>2026-04-18T06:06:38.999Z</time></trkpt><trkpt lat="44.4989121" lon="9.1130893"><ele>580.0</ele><time>2026-04-18T06:06:39.999Z</time></trkpt><trkpt lat="44.498818" lon="9.1131809"><ele>574.6</ele><time>2026-04-18T06:06:40.999Z</time></trkpt><trkpt lat="44.498731" lon="9.1132554"><ele>569.2</ele><time>2026-04-18T06:06:41.999Z</time></trkpt><trkpt lat="44.4986587" lon="9.1133415"><ele>563.8</ele><time>2026-04-18T06:06:42.999Z</time></trkpt><trkpt lat="44.4985977" lon="9.1134408"><ele>558.4</ele><time>2026-04-18T06:06:43.999Z</time></trkpt><trkpt lat="44.4985993" lon="9.1135731"><ele>553.0</ele><time>2026-04-18T06:06:44.999Z</time></trkpt><trkpt lat="44.4985974" lon="9.1136992"><ele>553.0</ele><time>2026-04-18T06:06:45.999Z</time></trkpt><trkpt lat="44.4986346" lon="9.1138502"><ele>553.0</ele><time>2026-04-18T06:06:46.999Z</time></trkpt><trkpt lat="44.4986281" lon="9.1139913"><ele>553.0</ele><time>2026-04-18T06:06:47.999Z</time></trkpt><trkpt lat="44.4985973" lon="9.1141443"><ele>553.0</ele><time>2026-04-18T06:06:48.999Z</time></trkpt><trkpt lat="44.4985638" lon="9.114313"><ele>554.5</ele><time>2026-04-18T06:06:49.999Z</time></trkpt><trkpt lat="44.4985427" lon="9.114491"><ele>556.0</ele><time>2026-04-18T06:06:50.999Z</time></trkpt><trkpt lat="44.4985389" lon="9.1146585"><ele>557.5</ele><time>2026-04-18T06:06:51.999Z</time></trkpt><trkpt lat="44.4985392" lon="9.1148209"><ele>559.0</ele><time>2026-04-18T06:06:52.999Z</time></trkpt><trkpt lat="44.4985471" lon="9.1150014"><ele>560.0</ele><time>2026-04-18T06:06:53.999Z</time></trkpt><trkpt lat="44.4985473" lon="9.1151824"><ele>561.0</ele><time>2026-04-18T06:06:54.999Z</time></trkpt><trkpt lat="44.498534" lon="9.115343"><ele>562.0</ele><time>2026-04-18T06:06:56Z</time></trkpt><trkpt lat="44.4985234" lon="9.1154936"><ele>563.0</ele><time>2026-04-18T06:06:56.999Z</time></trkpt><trkpt lat="44.4984957" lon="9.1156385"><ele>565.5</ele><time>2026-04-18T06:06:57.999Z</time></trkpt><trkpt lat="44.4984481" lon="9.115786"><ele>568.0</ele><time>2026-04-18T06:06:58.999Z</time></trkpt><trkpt lat="44.4984034" lon="9.1159525"><ele>570.5</ele><time>2026-04-18T06:07:00Z</time></trkpt><trkpt lat="44.4983655" lon="9.1161171"><ele>573.0</ele><time>2026-04-18T06:07:00.999Z</time></trkpt><trkpt lat="44.4983284" lon="9.1162829"><ele>573.0</ele><time>2026-04-18T06:07:01.999Z</time></trkpt><trkpt lat="44.4982917" lon="9.116446"><ele>573.0</ele><time>2026-04-18T06:07:02.999Z</time></trkpt><trkpt lat="44.4982501" lon="9.1166193"><ele>573.0</ele><time>2026-04-18T06:07:03.999Z</time></trkpt><trkpt lat="44.4981928" lon="9.1167836"><ele>573.0</ele><time>2026-04-18T06:07:05.103Z</time></trkpt><trkpt lat="44.4980552" lon="9.1170948"><ele>574.8</ele><time>2026-04-18T06:07:06.999Z</time></trkpt><trkpt lat="44.4979981" lon="9.117236"><ele>576.5999999999999</ele><time>2026-04-18T06:07:07.999Z</time></trkpt><trkpt lat="44.497934" lon="9.1173546"><ele>578.4000000000001</ele><time>2026-04-18T06:07:08.999Z</time></trkpt><trkpt lat="44.497852" lon="9.1174518"><ele>580.2</ele><time>2026-04-18T06:07:09.999Z</time></trkpt><trkpt lat="44.4977599" lon="9.1175409"><ele>582.0</ele><time>2026-04-18T06:07:10.999Z</time></trkpt><trkpt lat="44.4976554" lon="9.1176056"><ele>582.0</ele><time>2026-04-18T06:07:11.999Z</time></trkpt><trkpt lat="44.4975551" lon="9.1176576"><ele>582.0</ele><time>2026-04-18T06:07:12.999Z</time></trkpt><trkpt lat="44.4974393" lon="9.1177228"><ele>582.0</ele><time>2026-04-18T06:07:13.999Z</time></trkpt><trkpt lat="44.4973381" lon="9.1177609"><ele>582.0</ele><time>2026-04-18T06:07:15.105Z</time></trkpt><trkpt lat="44.4971497" lon="9.1179169"><ele>578.75</ele><time>2026-04-18T06:07:16.999Z</time></trkpt><trkpt lat="44.4970677" lon="9.1180355"><ele>575.5</ele><time>2026-04-18T06:07:17.999Z</time></trkpt><trkpt lat="44.4970199" lon="9.1181699"><ele>572.25</ele><time>2026-04-18T06:07:18.999Z</time></trkpt><trkpt lat="44.4969817" lon="9.1183194"><ele>569.0</ele><time>2026-04-18T06:07:20.107Z</time></trkpt><trkpt lat="44.4969259" lon="9.1185727"><ele>569.0</ele><time>2026-04-18T06:07:21.999Z</time></trkpt><trkpt lat="44.4969414" lon="9.1186954"><ele>569.0</ele><time>2026-04-18T06:07:22.999Z</time></trkpt><trkpt lat="44.4969817" lon="9.1188062"><ele>569.0</ele><time>2026-04-18T06:07:23.999Z</time></trkpt><trkpt lat="44.4970259" lon="9.1188875"><ele>569.0</ele><time>2026-04-18T06:07:24.999Z</time></trkpt><trkpt lat="44.4970995" lon="9.1189206"><ele>569.0</ele><time>2026-04-18T06:07:25.999Z</time></trkpt><trkpt lat="44.4972071" lon="9.1189536"><ele>569.0</ele><time>2026-04-18T06:07:26.999Z</time></trkpt><trkpt lat="44.4972998" lon="9.1190008"><ele>575.6</ele><time>2026-04-18T06:07:27.999Z</time></trkpt><trkpt lat="44.4973914" lon="9.1190558"><ele>582.2</ele><time>2026-04-18T06:07:28.999Z</time></trkpt><trkpt lat="44.4974643" lon="9.1191264"><ele>588.8000000000001</ele><time>2026-04-18T06:07:29.999Z</time></trkpt><trkpt lat="44.4975154" lon="9.1192345"><ele>595.4</ele><time>2026-04-18T06:07:30.999Z</time></trkpt><trkpt lat="44.4975388" lon="9.1193637"><ele>602.0</ele><time>2026-04-18T06:07:31.999Z</time></trkpt><trkpt lat="44.4975466" lon="9.1195112"><ele>602.0</ele><time>2026-04-18T06:07:32.999Z</time></trkpt><trkpt lat="44.4975331" lon="9.1196814"><ele>602.0</ele><time>2026-04-18T06:07:33.999Z</time></trkpt><trkpt lat="44.4975193" lon="9.1198595"><ele>602.0</ele><time>2026-04-18T06:07:34.999Z</time></trkpt><trkpt lat="44.4975043" lon="9.1200288"><ele>602.0</ele><time>2026-04-18T06:07:35.999Z</time></trkpt><trkpt lat="44.4974926" lon="9.12018"><ele>602.4</ele><time>2026-04-18T06:07:36.999Z</time></trkpt><trkpt lat="44.4974718" lon="9.1203112"><ele>602.8000000000001</ele><time>2026-04-18T06:07:37.999Z</time></trkpt><trkpt lat="44.4974255" lon="9.1204129"><ele>603.2</ele><time>2026-04-18T06:07:38.999Z</time></trkpt><trkpt lat="44.4973673" lon="9.120507"><ele>603.6</ele><time>2026-04-18T06:07:39.999Z</time></trkpt><trkpt lat="44.4972917" lon="9.1205762"><ele>604.0</ele><time>2026-04-18T06:07:40.999Z</time></trkpt><trkpt lat="44.4972032" lon="9.1206402"><ele>604.0</ele><time>2026-04-18T06:07:41.999Z</time></trkpt><trkpt lat="44.4971243" lon="9.1207284"><ele>604.0</ele><time>2026-04-18T06:07:42.999Z</time></trkpt><trkpt lat="44.4970637" lon="9.1208476"><ele>604.0</ele><time>2026-04-18T06:07:43.999Z</time></trkpt><trkpt lat="44.4970299" lon="9.1209673"><ele>604.0</ele><time>2026-04-18T06:07:44.999Z</time></trkpt><trkpt lat="44.4970285" lon="9.1211285"><ele>604.0</ele><time>2026-04-18T06:07:45.999Z</time></trkpt><trkpt lat="44.4970389" lon="9.1212849"><ele>605.5</ele><time>2026-04-18T06:07:46.999Z</time></trkpt><trkpt lat="44.4970714" lon="9.1214307"><ele>607.0</ele><time>2026-04-18T06:07:47.999Z</time></trkpt><trkpt lat="44.4971081" lon="9.1215818"><ele>608.5</ele><time>2026-04-18T06:07:48.999Z</time></trkpt><trkpt lat="44.4971654" lon="9.1217169"><ele>610.0</ele><time>2026-04-18T06:07:49.999Z</time></trkpt><trkpt lat="44.4972497" lon="9.1218476"><ele>610.0</ele><time>2026-04-18T06:07:50.999Z</time></trkpt><trkpt lat="44.4973429" lon="9.1219812"><ele>610.0</ele><time>2026-04-18T06:07:51.999Z</time></trkpt><trkpt lat="44.4974416" lon="9.1221244"><ele>610.0</ele><time>2026-04-18T06:07:52.999Z</time></trkpt><trkpt lat="44.497536" lon="9.122263"><ele>610.0</ele><time>2026-04-18T06:07:53.999Z</time></trkpt><trkpt lat="44.4976338" lon="9.1223992"><ele>613.3333333333334</ele><time>2026-04-18T06:07:55.1Z</time></trkpt><trkpt lat="44.4978062" lon="9.1226894"><ele>616.6666666666666</ele><time>2026-04-18T06:07:56.999Z</time></trkpt><trkpt lat="44.4978836" lon="9.1228278"><ele>620.0</ele><time>2026-04-18T06:07:57.999Z</time></trkpt><trkpt lat="44.4979685" lon="9.1229759"><ele>620.0</ele><time>2026-04-18T06:07:58.999Z</time></trkpt><trkpt lat="44.4980609" lon="9.123119"><ele>620.0</ele><time>2026-04-18T06:07:59.999Z</time></trkpt><trkpt lat="44.4981597" lon="9.1232323"><ele>620.0</ele><time>2026-04-18T06:08:00.999Z</time></trkpt><trkpt lat="44.4982505" lon="9.1233336"><ele>620.0</ele><time>2026-04-18T06:08:01.999Z</time></trkpt><trkpt lat="44.4983269" lon="9.1234552"><ele>615.25</ele><time>2026-04-18T06:08:02.999Z</time></trkpt><trkpt lat="44.498389" lon="9.1235942"><ele>610.5</ele><time>2026-04-18T06:08:04Z</time></trkpt><trkpt lat="44.498448" lon="9.1237442"><ele>605.75</ele><time>2026-04-18T06:08:04.999Z</time></trkpt><trkpt lat="44.4984891" lon="9.1239111"><ele>601.0</ele><time>2026-04-18T06:08:06.101Z</time></trkpt><trkpt lat="44.4985423" lon="9.1242269"><ele>598.25</ele><time>2026-04-18T06:08:07.999Z</time></trkpt><trkpt lat="44.4985565" lon="9.1243906"><ele>595.5</ele><time>2026-04-18T06:08:08.999Z</time></trkpt><trkpt lat="44.4985569" lon="9.1245536"><ele>592.75</ele><time>2026-04-18T06:08:09.999Z</time></trkpt><trkpt lat="44.4985478" lon="9.1247292"><ele>590.0</ele><time>2026-04-18T06:08:10.999Z</time></trkpt><trkpt lat="44.4985144" lon="9.1248925"><ele>589.5</ele><time>2026-04-18T06:08:11.999Z</time></trkpt><trkpt lat="44.4984677" lon="9.125044"><ele>589.0</ele><time>2026-04-18T06:08:12.999Z</time></trkpt><trkpt lat="44.4984312" lon="9.1252083"><ele>588.5</ele><time>2026-04-18T06:08:13.999Z</time></trkpt><trkpt lat="44.498395" lon="9.1253537"><ele>588.0</ele><time>2026-04-18T06:08:14.999Z</time></trkpt><trkpt lat="44.4983474" lon="9.1254908"><ele>588.0</ele><time>2026-04-18T06:08:15.999Z</time></trkpt><trkpt lat="44.4982785" lon="9.1256144"><ele>588.0</ele><time>2026-04-18T06:08:16.999Z</time></trkpt><trkpt lat="44.498201" lon="9.1257074"><ele>588.0</ele><time>2026-04-18T06:08:17.999Z</time></trkpt><trkpt lat="44.4981242" lon="9.1257842"><ele>588.0</ele><time>2026-04-18T06:08:18.999Z</time></trkpt><trkpt lat="44.4980307" lon="9.1258303"><ele>588.0</ele><time>2026-04-18T06:08:19.999Z</time></trkpt><trkpt lat="44.4979305" lon="9.1258226"><ele>588.75</ele><time>2026-04-18T06:08:20.999Z</time></trkpt><trkpt lat="44.4978135" lon="9.1257594"><ele>589.5</ele><time>2026-04-18T06:08:21.999Z</time></trkpt><trkpt lat="44.4976967" lon="9.1256822"><ele>590.25</ele><time>2026-04-18T06:08:22.999Z</time></trkpt><trkpt lat="44.4975959" lon="9.1255834"><ele>591.0</ele><time>2026-04-18T06:08:23.999Z</time></trkpt><trkpt lat="44.4975158" lon="9.1254558"><ele>591.0</ele><time>2026-04-18T06:08:24.999Z</time></trkpt><trkpt lat="44.4974482" lon="9.1253192"><ele>591.0</ele><time>2026-04-18T06:08:25.999Z</time></trkpt><trkpt lat="44.4974179" lon="9.1251397"><ele>591.0</ele><time>2026-04-18T06:08:26.999Z</time></trkpt><trkpt lat="44.4974058" lon="9.1249621"><ele>591.0</ele><time>2026-04-18T06:08:27.999Z</time></trkpt><trkpt lat="44.4973924" lon="9.1247861"><ele>589.5</ele><time>2026-04-18T06:08:28.999Z</time></trkpt><trkpt lat="44.4973507" lon="9.1246323"><ele>588.0</ele><time>2026-04-18T06:08:29.999Z</time></trkpt><trkpt lat="44.4972924" lon="9.1244868"><ele>586.5</ele><time>2026-04-18T06:08:30.999Z</time></trkpt><trkpt lat="44.4972131" lon="9.1243232"><ele>585.0</ele><time>2026-04-18T06:08:31.999Z</time></trkpt><trkpt lat="44.4971398" lon="9.124201"><ele>585.25</ele><time>2026-04-18T06:08:32.999Z</time></trkpt><trkpt lat="44.4970663" lon="9.124053"><ele>585.5</ele><time>2026-04-18T06:08:33.999Z</time></trkpt><trkpt lat="44.4969952" lon="9.1239209"><ele>585.75</ele><time>2026-04-18T06:08:34.999Z</time></trkpt><trkpt lat="44.4969145" lon="9.1238029"><ele>586.0</ele><time>2026-04-18T06:08:35.999Z</time></trkpt><trkpt lat="44.4968128" lon="9.1237046"><ele>586.0</ele><time>2026-04-18T06:08:36.999Z</time></trkpt><trkpt lat="44.496712" lon="9.1236438"><ele>586.0</ele><time>2026-04-18T06:08:37.999Z</time></trkpt><trkpt lat="44.4966077" lon="9.1236087"><ele>586.0</ele><time>2026-04-18T06:08:38.999Z</time></trkpt><trkpt lat="44.4964868" lon="9.1236151"><ele>586.0</ele><time>2026-04-18T06:08:39.999Z</time></trkpt><trkpt lat="44.4963691" lon="9.1236188"><ele>586.0</ele><time>2026-04-18T06:08:40.999Z</time></trkpt><trkpt lat="44.496273" lon="9.123658"><ele>586.0</ele><time>2026-04-18T06:08:41.999Z</time></trkpt><trkpt lat="44.4961785" lon="9.1237237"><ele>586.0</ele><time>2026-04-18T06:08:42.999Z</time></trkpt><trkpt lat="44.4960929" lon="9.1238109"><ele>586.0</ele><time>2026-04-18T06:08:43.999Z</time></trkpt><trkpt lat="44.4960013" lon="9.123975"><ele>588.5</ele><time>2026-04-18T06:08:44.999Z</time></trkpt><trkpt lat="44.4959221" lon="9.1241534"><ele>591.0</ele><time>2026-04-18T06:08:45.999Z</time></trkpt><trkpt lat="44.4958484" lon="9.1242964"><ele>593.5</ele><time>2026-04-18T06:08:46.999Z</time></trkpt><trkpt lat="44.495777" lon="9.1244329"><ele>596.0</ele><time>2026-04-18T06:08:47.999Z</time></trkpt><trkpt lat="44.495715" lon="9.1245592"><ele>596.0</ele><time>2026-04-18T06:08:48.999Z</time></trkpt><trkpt lat="44.4956478" lon="9.1246588"><ele>596.0</ele><time>2026-04-18T06:08:49.999Z</time></trkpt><trkpt lat="44.4955508" lon="9.1247439"><ele>596.0</ele><time>2026-04-18T06:08:50.999Z</time></trkpt><trkpt lat="44.4954522" lon="9.1248189"><ele>596.0</ele><time>2026-04-18T06:08:51.999Z</time></trkpt><trkpt lat="44.4953638" lon="9.1248897"><ele>596.0</ele><time>2026-04-18T06:08:52.999Z</time></trkpt><trkpt lat="44.4952851" lon="9.1249727"><ele>596.0</ele><time>2026-04-18T06:08:53.999Z</time></trkpt><trkpt lat="44.4952688" lon="9.1250845"><ele>596.0</ele><time>2026-04-18T06:08:54.999Z</time></trkpt><trkpt lat="44.4952699" lon="9.1252034"><ele>596.0</ele><time>2026-04-18T06:08:55.999Z</time></trkpt><trkpt lat="44.4952832" lon="9.125304"><ele>596.0</ele><time>2026-04-18T06:08:56.999Z</time></trkpt><trkpt lat="44.4953247" lon="9.1253794"><ele>596.0</ele><time>2026-04-18T06:08:57.999Z</time></trkpt><trkpt lat="44.4954422" lon="9.1254642"><ele>596.0</ele><time>2026-04-18T06:08:58.999Z</time></trkpt><trkpt lat="44.4955504" lon="9.1255421"><ele>600.5</ele><time>2026-04-18T06:08:59.999Z</time></trkpt><trkpt lat="44.4956461" lon="9.1256196"><ele>605.0</ele><time>2026-04-18T06:09:00.999Z</time></trkpt><trkpt lat="44.4957274" lon="9.1257019"><ele>609.5</ele><time>2026-04-18T06:09:01.999Z</time></trkpt><trkpt lat="44.4958277" lon="9.1258029"><ele>614.0</ele><time>2026-04-18T06:09:02.999Z</time></trkpt><trkpt lat="44.4959204" lon="9.1259401"><ele>614.0</ele><time>2026-04-18T06:09:03.999Z</time></trkpt><trkpt lat="44.4959693" lon="9.1260878"><ele>614.0</ele><time>2026-04-18T06:09:04.999Z</time></trkpt><trkpt lat="44.4959984" lon="9.1262417"><ele>614.0</ele><time>2026-04-18T06:09:05.999Z</time></trkpt><trkpt lat="44.4959913" lon="9.126398"><ele>614.0</ele><time>2026-04-18T06:09:06.999Z</time></trkpt><trkpt lat="44.4959563" lon="9.1265422"><ele>613.0</ele><time>2026-04-18T06:09:07.999Z</time></trkpt><trkpt lat="44.4958719" lon="9.1267087"><ele>612.0</ele><time>2026-04-18T06:09:08.999Z</time></trkpt><trkpt lat="44.4957937" lon="9.1268367"><ele>611.0</ele><time>2026-04-18T06:09:09.999Z</time></trkpt><trkpt lat="44.4957228" lon="9.1269594"><ele>610.0</ele><time>2026-04-18T06:09:10.999Z</time></trkpt><trkpt lat="44.4956575" lon="9.1270882"><ele>610.0</ele><time>2026-04-18T06:09:11.999Z</time></trkpt><trkpt lat="44.4955911" lon="9.1272417"><ele>610.0</ele><time>2026-04-18T06:09:12.999Z</time></trkpt><trkpt lat="44.4955489" lon="9.1273915"><ele>610.0</ele><time>2026-04-18T06:09:13.999Z</time></trkpt><trkpt lat="44.4955198" lon="9.1275624"><ele>610.0</ele><time>2026-04-18T06:09:14.999Z</time></trkpt><trkpt lat="44.4955071" lon="9.1277336"><ele>611.0</ele><time>2026-04-18T06:09:15.999Z</time></trkpt><trkpt lat="44.4954934" lon="9.1279023"><ele>612.0</ele><time>2026-04-18T06:09:16.999Z</time></trkpt><trkpt lat="44.4954734" lon="9.1280724"><ele>613.0</ele><time>2026-04-18T06:09:17.999Z</time></trkpt><trkpt lat="44.4954411" lon="9.1282388"><ele>614.0</ele><time>2026-04-18T06:09:19Z</time></trkpt><trkpt lat="44.4954027" lon="9.1284032"><ele>614.0</ele><time>2026-04-18T06:09:19.999Z</time></trkpt><trkpt lat="44.4953428" lon="9.1285396"><ele>614.0</ele><time>2026-04-18T06:09:20.999Z</time></trkpt><trkpt lat="44.4952568" lon="9.1286647"><ele>614.0</ele><time>2026-04-18T06:09:21.999Z</time></trkpt><trkpt lat="44.4951669" lon="9.1288012"><ele>614.0</ele><time>2026-04-18T06:09:22.999Z</time></trkpt><trkpt lat="44.4950761" lon="9.1289318"><ele>614.0</ele><time>2026-04-18T06:09:23.999Z</time></trkpt><trkpt lat="44.4949919" lon="9.1290537"><ele>614.0</ele><time>2026-04-18T06:09:24.999Z</time></trkpt><trkpt lat="44.4948962" lon="9.1291702"><ele>614.0</ele><time>2026-04-18T06:09:25.999Z</time></trkpt><trkpt lat="44.4947885" lon="9.1292504"><ele>614.0</ele><time>2026-04-18T06:09:26.999Z</time></trkpt><trkpt lat="44.494686" lon="9.1293417"><ele>611.0</ele><time>2026-04-18T06:09:27.999Z</time></trkpt><trkpt lat="44.4945857" lon="9.1294447"><ele>608.0</ele><time>2026-04-18T06:09:28.999Z</time></trkpt><trkpt lat="44.4944896" lon="9.129565"><ele>605.0</ele><time>2026-04-18T06:09:29.999Z</time></trkpt><trkpt lat="44.4944059" lon="9.129694"><ele>602.0</ele><time>2026-04-18T06:09:30.999Z</time></trkpt><trkpt lat="44.4943262" lon="9.129817"><ele>605.25</ele><time>2026-04-18T06:09:31.999Z</time></trkpt><trkpt lat="44.4942441" lon="9.129933"><ele>608.5</ele><time>2026-04-18T06:09:32.999Z</time></trkpt><trkpt lat="44.4941592" lon="9.1300399"><ele>611.75</ele><time>2026-04-18T06:09:33.999Z</time></trkpt><trkpt lat="44.494074" lon="9.1301424"><ele>615.0</ele><time>2026-04-18T06:09:34.999Z</time></trkpt><trkpt lat="44.4939837" lon="9.1302341"><ele>615.0</ele><time>2026-04-18T06:09:35.999Z</time></trkpt><trkpt lat="44.493891" lon="9.130314"><ele>615.0</ele><time>2026-04-18T06:09:36.999Z</time></trkpt><trkpt lat="44.4937906" lon="9.1303752"><ele>615.0</ele><time>2026-04-18T06:09:37.999Z</time></trkpt><trkpt lat="44.4936797" lon="9.1304226"><ele>615.0</ele><time>2026-04-18T06:09:38.999Z</time></trkpt><trkpt lat="44.493575" lon="9.1304517"><ele>615.0</ele><time>2026-04-18T06:09:39.999Z</time></trkpt><trkpt lat="44.4934662" lon="9.130479"><ele>612.2</ele><time>2026-04-18T06:09:40.999Z</time></trkpt><trkpt lat="44.4933571" lon="9.1304948"><ele>609.4</ele><time>2026-04-18T06:09:41.999Z</time></trkpt><trkpt lat="44.4932491" lon="9.1305138"><ele>606.6</ele><time>2026-04-18T06:09:42.999Z</time></trkpt><trkpt lat="44.4931326" lon="9.1305324"><ele>603.8</ele><time>2026-04-18T06:09:43.999Z</time></trkpt><trkpt lat="44.4930245" lon="9.1305462"><ele>601.0</ele><time>2026-04-18T06:09:44.999Z</time></trkpt><trkpt lat="44.4929266" lon="9.1305584"><ele>599.0</ele><time>2026-04-18T06:09:46Z</time></trkpt><trkpt lat="44.4928364" lon="9.1305658"><ele>597.0</ele><time>2026-04-18T06:09:46.999Z</time></trkpt><trkpt lat="44.4927545" lon="9.1305558"><ele>595.0</ele><time>2026-04-18T06:09:47.999Z</time></trkpt><trkpt lat="44.49268" lon="9.1305132"><ele>593.0</ele><time>2026-04-18T06:09:48.999Z</time></trkpt><trkpt lat="44.4926189" lon="9.1304515"><ele>591.0</ele><time>2026-04-18T06:09:49.999Z</time></trkpt><trkpt lat="44.4925789" lon="9.1303671"><ele>589.0</ele><time>2026-04-18T06:09:50.999Z</time></trkpt><trkpt lat="44.4925589" lon="9.1302617"><ele>589.0</ele><time>2026-04-18T06:09:51.999Z</time></trkpt><trkpt lat="44.4925676" lon="9.1301625"><ele>589.0</ele><time>2026-04-18T06:09:52.999Z</time></trkpt><trkpt lat="44.492602" lon="9.130071"><ele>589.0</ele><time>2026-04-18T06:09:54Z</time></trkpt><trkpt lat="44.4926667" lon="9.1300001"><ele>589.0</ele><time>2026-04-18T06:09:54.999Z</time></trkpt><trkpt lat="44.4927335" lon="9.1299625"><ele>589.0</ele><time>2026-04-18T06:09:55.999Z</time></trkpt><trkpt lat="44.4928171" lon="9.1299461"><ele>589.0</ele><time>2026-04-18T06:09:56.999Z</time></trkpt><trkpt lat="44.4929034" lon="9.1299722"><ele>591.4</ele><time>2026-04-18T06:09:57.999Z</time></trkpt><trkpt lat="44.4929846" lon="9.1300411"><ele>593.8</ele><time>2026-04-18T06:09:58.999Z</time></trkpt><trkpt lat="44.4930503" lon="9.1301473"><ele>596.2</ele><time>2026-04-18T06:09:59.999Z</time></trkpt><trkpt lat="44.493108" lon="9.1302816"><ele>598.6</ele><time>2026-04-18T06:10:00.999Z</time></trkpt><trkpt lat="44.4931494" lon="9.1304224"><ele>601.0</ele><time>2026-04-18T06:10:01.999Z</time></trkpt><trkpt lat="44.4931897" lon="9.1305772"><ele>604.0</ele><time>2026-04-18T06:10:02.999Z</time></trkpt><trkpt lat="44.4932377" lon="9.1307258"><ele>607.0</ele><time>2026-04-18T06:10:03.999Z</time></trkpt><trkpt lat="44.4932853" lon="9.1308682"><ele>610.0</ele><time>2026-04-18T06:10:04.999Z</time></trkpt><trkpt lat="44.4933301" lon="9.1309853"><ele>613.0</ele><time>2026-04-18T06:10:05.999Z</time></trkpt><trkpt lat="44.493375" lon="9.1310897"><ele>616.0</ele><time>2026-04-18T06:10:06.999Z</time></trkpt><trkpt lat="44.4934195" lon="9.1311641"><ele>616.0</ele><time>2026-04-18T06:10:07.999Z</time></trkpt><trkpt lat="44.4934701" lon="9.131228"><ele>616.0</ele><time>2026-04-18T06:10:08.999Z</time></trkpt><trkpt lat="44.4935439" lon="9.1313045"><ele>616.0</ele><time>2026-04-18T06:10:09.999Z</time></trkpt><trkpt lat="44.493601" lon="9.1313605"><ele>616.0</ele><time>2026-04-18T06:10:10.999Z</time></trkpt><trkpt lat="44.493692" lon="9.1314491"><ele>616.0</ele><time>2026-04-18T06:10:11.999Z</time></trkpt><trkpt lat="44.4937847" lon="9.1315422"><ele>620.5</ele><time>2026-04-18T06:10:12.999Z</time></trkpt><trkpt lat="44.4938839" lon="9.1316351"><ele>625.0</ele><time>2026-04-18T06:10:13.999Z</time></trkpt><trkpt lat="44.4939894" lon="9.1317339"><ele>629.5</ele><time>2026-04-18T06:10:14.999Z</time></trkpt><trkpt lat="44.4941349" lon="9.1318443"><ele>634.0</ele><time>2026-04-18T06:10:15.999Z</time></trkpt><trkpt lat="44.4942478" lon="9.1319469"><ele>634.0</ele><time>2026-04-18T06:10:17Z</time></trkpt><trkpt lat="44.4943632" lon="9.1320514"><ele>634.0</ele><time>2026-04-18T06:10:17.999Z</time></trkpt><trkpt lat="44.4944783" lon="9.1321568"><ele>634.0</ele><time>2026-04-18T06:10:19.1Z</time></trkpt><trkpt lat="44.4974427" lon="9.1351083"><ele>639.0</ele><time>2026-04-18T06:10:39.999Z</time></trkpt><trkpt lat="44.4976012" lon="9.1352871"><ele>644.0</ele><time>2026-04-18T06:10:40.999Z</time></trkpt><trkpt lat="44.4977544" lon="9.1354735"><ele>649.0</ele><time>2026-04-18T06:10:42.111Z</time></trkpt><trkpt lat="44.4978989" lon="9.1356618"><ele>652.5</ele><time>2026-04-18T06:10:43.104Z</time></trkpt><trkpt lat="44.4981745" lon="9.1360052"><ele>656.0</ele><time>2026-04-18T06:10:44.999Z</time></trkpt><trkpt lat="44.4983042" lon="9.136179"><ele>656.0</ele><time>2026-04-18T06:10:45.999Z</time></trkpt><trkpt lat="44.4984506" lon="9.1363576"><ele>656.0</ele><time>2026-04-18T06:10:46.999Z</time></trkpt><trkpt lat="44.4985777" lon="9.1365232"><ele>656.0</ele><time>2026-04-18T06:10:47.999Z</time></trkpt><trkpt lat="44.4987148" lon="9.1367101"><ele>658.0</ele><time>2026-04-18T06:10:49Z</time></trkpt><trkpt lat="44.4988377" lon="9.1368955"><ele>660.0</ele><time>2026-04-18T06:10:49.999Z</time></trkpt><trkpt lat="44.4989699" lon="9.1370681"><ele>662.0</ele><time>2026-04-18T06:10:50.999Z</time></trkpt><trkpt lat="44.4990888" lon="9.1372464"><ele>666.0</ele><time>2026-04-18T06:10:51.999Z</time></trkpt><trkpt lat="44.4991999" lon="9.1374118"><ele>670.0</ele><time>2026-04-18T06:10:52.999Z</time></trkpt><trkpt lat="44.4993179" lon="9.137589"><ele>674.0</ele><time>2026-04-18T06:10:53.999Z</time></trkpt><trkpt lat="44.4994451" lon="9.1377864"><ele>674.0</ele><time>2026-04-18T06:10:54.999Z</time></trkpt><trkpt lat="44.4995624" lon="9.1379788"><ele>674.0</ele><time>2026-04-18T06:10:55.999Z</time></trkpt><trkpt lat="44.4996859" lon="9.1381717"><ele>674.0</ele><time>2026-04-18T06:10:56.999Z</time></trkpt><trkpt lat="44.4997974" lon="9.1383555"><ele>674.6666666666666</ele><time>2026-04-18T06:10:57.999Z</time></trkpt><trkpt lat="44.4999066" lon="9.1385502"><ele>675.3333333333334</ele><time>2026-04-18T06:10:58.999Z</time></trkpt><trkpt lat="44.5000535" lon="9.138764"><ele>676.0</ele><time>2026-04-18T06:10:59.999Z</time></trkpt><trkpt lat="44.5001649" lon="9.1389624"><ele>679.6666666666667</ele><time>2026-04-18T06:11:00.999Z</time></trkpt><trkpt lat="44.5002744" lon="9.1391566"><ele>683.3333333333334</ele><time>2026-04-18T06:11:01.999Z</time></trkpt><trkpt lat="44.5003822" lon="9.1393604"><ele>687.0</ele><time>2026-04-18T06:11:02.999Z</time></trkpt><trkpt lat="44.5004829" lon="9.139567"><ele>687.0</ele><time>2026-04-18T06:11:03.999Z</time></trkpt><trkpt lat="44.500604" lon="9.1398218"><ele>687.0</ele><time>2026-04-18T06:11:04.999Z</time></trkpt><trkpt lat="44.50071" lon="9.1400479"><ele>687.0</ele><time>2026-04-18T06:11:05.999Z</time></trkpt><trkpt lat="44.5008106" lon="9.1402692"><ele>707.0</ele><time>2026-04-18T06:11:06.999Z</time></trkpt><trkpt lat="44.5027977" lon="9.1463156"><ele>704.6666666666666</ele><time>2026-04-18T06:11:32.999Z</time></trkpt><trkpt lat="44.5028509" lon="9.1465485"><ele>702.3333333333334</ele><time>2026-04-18T06:11:33.999Z</time></trkpt><trkpt lat="44.5029262" lon="9.1467986"><ele>700.0</ele><time>2026-04-18T06:11:34.999Z</time></trkpt><trkpt lat="44.5030047" lon="9.1470389"><ele>705.0</ele><time>2026-04-18T06:11:35.999Z</time></trkpt><trkpt lat="44.50309" lon="9.1472823"><ele>710.0</ele><time>2026-04-18T06:11:36.999Z</time></trkpt><trkpt lat="44.5031854" lon="9.1475075"><ele>715.0</ele><time>2026-04-18T06:11:37.999Z</time></trkpt><trkpt lat="44.5032824" lon="9.1477165"><ele>715.0</ele><time>2026-04-18T06:11:38.999Z</time></trkpt><trkpt lat="44.5033875" lon="9.1479342"><ele>715.0</ele><time>2026-04-18T06:11:39.999Z</time></trkpt><trkpt lat="44.5034935" lon="9.1481533"><ele>715.0</ele><time>2026-04-18T06:11:40.999Z</time></trkpt><trkpt lat="44.5036044" lon="9.1483445"><ele>714.0</ele><time>2026-04-18T06:11:41.999Z</time></trkpt><trkpt lat="44.5037239" lon="9.1485346"><ele>713.0</ele><time>2026-04-18T06:11:43Z</time></trkpt><trkpt lat="44.5038431" lon="9.1487153"><ele>712.0</ele><time>2026-04-18T06:11:44.103Z</time></trkpt><trkpt lat="44.5040971" lon="9.1490553"><ele>712.0</ele><time>2026-04-18T06:11:46.101Z</time></trkpt><trkpt lat="44.5043849" lon="9.1493892"><ele>712.0</ele><time>2026-04-18T06:11:47.999Z</time></trkpt><trkpt lat="44.504531" lon="9.1495402"><ele>717.0</ele><time>2026-04-18T06:11:48.999Z</time></trkpt><trkpt lat="44.5046902" lon="9.1497198"><ele>722.0</ele><time>2026-04-18T06:11:50Z</time></trkpt><trkpt lat="44.5048416" lon="9.149868"><ele>727.0</ele><time>2026-04-18T06:11:50.999Z</time></trkpt><trkpt lat="44.5070174" lon="9.1519514"><ele>727.3333333333334</ele><time>2026-04-18T06:12:05.999Z</time></trkpt><trkpt lat="44.507171" lon="9.1521023"><ele>727.6666666666666</ele><time>2026-04-18T06:12:06.999Z</time></trkpt><trkpt lat="44.5073225" lon="9.1522463"><ele>728.0</ele><time>2026-04-18T06:12:07.999Z</time></trkpt><trkpt lat="44.5074639" lon="9.152376"><ele>730.5</ele><time>2026-04-18T06:12:08.999Z</time></trkpt><trkpt lat="44.5076972" lon="9.1525908"><ele>733.0</ele><time>2026-04-18T06:12:09.999Z</time></trkpt><trkpt lat="44.5078513" lon="9.1527258"><ele>735.0</ele><time>2026-04-18T06:12:10.999Z</time></trkpt><trkpt lat="44.5080067" lon="9.1528507"><ele>737.0</ele><time>2026-04-18T06:12:11.999Z</time></trkpt><trkpt lat="44.509167" lon="9.153595"><ele>737.0</ele><time>2026-04-18T06:12:18.999Z</time></trkpt><trkpt lat="44.5093515" lon="9.1536727"><ele>737.0</ele><time>2026-04-18T06:12:19.999Z</time></trkpt><trkpt lat="44.5095261" lon="9.1537437"><ele>737.0</ele><time>2026-04-18T06:12:20.999Z</time></trkpt><trkpt lat="44.5097063" lon="9.1538152"><ele>738.0</ele><time>2026-04-18T06:12:21.999Z</time></trkpt><trkpt lat="44.5098822" lon="9.1538784"><ele>739.0</ele><time>2026-04-18T06:12:22.999Z</time></trkpt><trkpt lat="44.5100651" lon="9.1539435"><ele>740.0</ele><time>2026-04-18T06:12:23.999Z</time></trkpt><trkpt lat="44.510256" lon="9.1540182"><ele>738.3333333333333</ele><time>2026-04-18T06:12:24.999Z</time></trkpt><trkpt lat="44.5104257" lon="9.1540841"><ele>736.6666666666666</ele><time>2026-04-18T06:12:25.999Z</time></trkpt><trkpt lat="44.5105987" lon="9.1541571"><ele>735.0</ele><time>2026-04-18T06:12:26.999Z</time></trkpt><trkpt lat="44.5107813" lon="9.1542233"><ele>735.0</ele><time>2026-04-18T06:12:28Z</time></trkpt><trkpt lat="44.5109753" lon="9.1542971"><ele>735.0</ele><time>2026-04-18T06:12:28.999Z</time></trkpt><trkpt lat="44.5111608" lon="9.1543781"><ele>735.0</ele><time>2026-04-18T06:12:29.999Z</time></trkpt><trkpt lat="44.511329" lon="9.1544635"><ele>740.6666666666666</ele><time>2026-04-18T06:12:30.999Z</time></trkpt><trkpt lat="44.51149" lon="9.1545596"><ele>746.3333333333333</ele><time>2026-04-18T06:12:31.999Z</time></trkpt><trkpt lat="44.5116642" lon="9.1546701"><ele>752.0</ele><time>2026-04-18T06:12:32.999Z</time></trkpt><trkpt lat="44.5118269" lon="9.1547932"><ele>750.6666666666666</ele><time>2026-04-18T06:12:33.999Z</time></trkpt><trkpt lat="44.5119917" lon="9.1549277"><ele>749.3333333333334</ele><time>2026-04-18T06:12:34.999Z</time></trkpt><trkpt lat="44.5121412" lon="9.1550686"><ele>748.0</ele><time>2026-04-18T06:12:35.999Z</time></trkpt><trkpt lat="44.5122977" lon="9.1552161"><ele>748.0</ele><time>2026-04-18T06:12:36.999Z</time></trkpt><trkpt lat="44.5124381" lon="9.1553638"><ele>748.0</ele><time>2026-04-18T06:12:37.999Z</time></trkpt><trkpt lat="44.512569" lon="9.155527"><ele>748.0</ele><time>2026-04-18T06:12:38.999Z</time></trkpt><trkpt lat="44.5126877" lon="9.1556973"><ele>746.6666666666667</ele><time>2026-04-18T06:12:39.999Z</time></trkpt><trkpt lat="44.5128194" lon="9.1558739"><ele>745.3333333333334</ele><time>2026-04-18T06:12:40.999Z</time></trkpt><trkpt lat="44.5129491" lon="9.1560604"><ele>744.0</ele><time>2026-04-18T06:12:41.999Z</time></trkpt><trkpt lat="44.5130506" lon="9.1562494"><ele>744.0</ele><time>2026-04-18T06:12:42.999Z</time></trkpt><trkpt lat="44.5131661" lon="9.156439"><ele>744.0</ele><time>2026-04-18T06:12:43.999Z</time></trkpt><trkpt lat="44.5132729" lon="9.1566492"><ele>744.0</ele><time>2026-04-18T06:12:44.999Z</time></trkpt><trkpt lat="44.5133717" lon="9.1568647"><ele>754.0</ele><time>2026-04-18T06:12:45.999Z</time></trkpt><trkpt lat="44.5137465" lon="9.1580279"><ele>750.6666666666667</ele><time>2026-04-18T06:12:50.999Z</time></trkpt><trkpt lat="44.5138021" lon="9.1582956"><ele>747.3333333333334</ele><time>2026-04-18T06:12:51.999Z</time></trkpt><trkpt lat="44.5138415" lon="9.1585548"><ele>744.0</ele><time>2026-04-18T06:12:52.999Z</time></trkpt><trkpt lat="44.5138848" lon="9.1588087"><ele>739.6666666666666</ele><time>2026-04-18T06:12:53.999Z</time></trkpt><trkpt lat="44.5139098" lon="9.1590753"><ele>735.3333333333333</ele><time>2026-04-18T06:12:54.999Z</time></trkpt><trkpt lat="44.5139306" lon="9.1593422"><ele>731.0</ele><time>2026-04-18T06:12:56Z</time></trkpt><trkpt lat="44.513945" lon="9.1595953"><ele>731.0</ele><time>2026-04-18T06:12:56.999Z</time></trkpt><trkpt lat="44.5139445" lon="9.1598523"><ele>731.0</ele><time>2026-04-18T06:12:57.999Z</time></trkpt><trkpt lat="44.5139462" lon="9.1601139"><ele>731.0</ele><time>2026-04-18T06:12:58.999Z</time></trkpt><trkpt lat="44.5139395" lon="9.1603865"><ele>728.3333333333333</ele><time>2026-04-18T06:12:59.999Z</time></trkpt><trkpt lat="44.5139282" lon="9.1606593"><ele>725.6666666666666</ele><time>2026-04-18T06:13:00.999Z</time></trkpt><trkpt lat="44.5139023" lon="9.1609112"><ele>723.0</ele><time>2026-04-18T06:13:01.999Z</time></trkpt><trkpt lat="44.5138701" lon="9.1611748"><ele>723.0</ele><time>2026-04-18T06:13:02.999Z</time></trkpt><trkpt lat="44.5138293" lon="9.1614349"><ele>723.0</ele><time>2026-04-18T06:13:03.999Z</time></trkpt><trkpt lat="44.513785" lon="9.1616858"><ele>723.0</ele><time>2026-04-18T06:13:04.999Z</time></trkpt><trkpt lat="44.5137368" lon="9.1619407"><ele>732.0</ele><time>2026-04-18T06:13:05.999Z</time></trkpt><trkpt lat="44.5136805" lon="9.1622011"><ele>741.0</ele><time>2026-04-18T06:13:06.999Z</time></trkpt><trkpt lat="44.5136287" lon="9.1624673"><ele>750.0</ele><time>2026-04-18T06:13:07.999Z</time></trkpt><trkpt lat="44.513568" lon="9.1627177"><ele>759.5</ele><time>2026-04-18T06:13:08.999Z</time></trkpt><trkpt lat="44.5135076" lon="9.1629657"><ele>769.0</ele><time>2026-04-18T06:13:09.999Z</time></trkpt><trkpt lat="44.5089682" lon="9.1830947"><ele>778.6666666666666</ele><time>2026-04-18T06:14:44.999Z</time></trkpt><trkpt lat="44.5089235" lon="9.1833177"><ele>788.3333333333333</ele><time>2026-04-18T06:14:45.999Z</time></trkpt><trkpt lat="44.5088882" lon="9.1835993"><ele>798.0</ele><time>2026-04-18T06:14:46.999Z</time></trkpt><trkpt lat="44.5088561" lon="9.1838922"><ele>796.3333333333333</ele><time>2026-04-18T06:14:47.999Z</time></trkpt><trkpt lat="44.5088246" lon="9.1841618"><ele>794.6666666666666</ele><time>2026-04-18T06:14:48.999Z</time></trkpt><trkpt lat="44.5087953" lon="9.1844042"><ele>793.0</ele><time>2026-04-18T06:14:49.999Z</time></trkpt><trkpt lat="44.5087648" lon="9.1846614"><ele>800.0</ele><time>2026-04-18T06:14:50.999Z</time></trkpt><trkpt lat="44.5087338" lon="9.1849094"><ele>807.0</ele><time>2026-04-18T06:14:51.999Z</time></trkpt><trkpt lat="44.508703" lon="9.1851396"><ele>814.0</ele><time>2026-04-18T06:14:52.999Z</time></trkpt><trkpt lat="44.5086718" lon="9.1853791"><ele>814.0</ele><time>2026-04-18T06:14:53.999Z</time></trkpt><trkpt lat="44.5086448" lon="9.1856069"><ele>814.0</ele><time>2026-04-18T06:14:54.999Z</time></trkpt><trkpt lat="44.5086158" lon="9.1857941"><ele>814.0</ele><time>2026-04-18T06:14:55.999Z</time></trkpt><trkpt lat="44.5085868" lon="9.1859961"><ele>814.0</ele><time>2026-04-18T06:14:56.999Z</time></trkpt><trkpt lat="44.5085574" lon="9.1862026"><ele>815.3333333333333</ele><time>2026-04-18T06:14:57.999Z</time></trkpt><trkpt lat="44.5085265" lon="9.1864248"><ele>816.6666666666667</ele><time>2026-04-18T06:14:58.999Z</time></trkpt><trkpt lat="44.5084934" lon="9.1866422"><ele>818.0</ele><time>2026-04-18T06:14:59.999Z</time></trkpt><trkpt lat="44.5084564" lon="9.186848"><ele>815.25</ele><time>2026-04-18T06:15:00.999Z</time></trkpt><trkpt lat="44.5084273" lon="9.1870413"><ele>812.5</ele><time>2026-04-18T06:15:01.999Z</time></trkpt><trkpt lat="44.5084155" lon="9.1872381"><ele>809.75</ele><time>2026-04-18T06:15:02.999Z</time></trkpt><trkpt lat="44.5084167" lon="9.1874293"><ele>807.0</ele><time>2026-04-18T06:15:03.999Z</time></trkpt><trkpt lat="44.5084311" lon="9.1876262"><ele>807.25</ele><time>2026-04-18T06:15:04.999Z</time></trkpt><trkpt lat="44.5084615" lon="9.1878267"><ele>807.5</ele><time>2026-04-18T06:15:05.999Z</time></trkpt><trkpt lat="44.5085074" lon="9.1880228"><ele>807.75</ele><time>2026-04-18T06:15:06.999Z</time></trkpt><trkpt lat="44.5085643" lon="9.1882098"><ele>808.0</ele><time>2026-04-18T06:15:07.999Z</time></trkpt><trkpt lat="44.5086366" lon="9.1883885"><ele>808.0</ele><time>2026-04-18T06:15:08.999Z</time></trkpt><trkpt lat="44.508726" lon="9.1885446"><ele>808.0</ele><time>2026-04-18T06:15:09.999Z</time></trkpt><trkpt lat="44.5088308" lon="9.1887075"><ele>808.0</ele><time>2026-04-18T06:15:10.999Z</time></trkpt><trkpt lat="44.5089478" lon="9.1888407"><ele>802.3333333333333</ele><time>2026-04-18T06:15:11.999Z</time></trkpt><trkpt lat="44.5090716" lon="9.1890162"><ele>796.6666666666667</ele><time>2026-04-18T06:15:12.999Z</time></trkpt><trkpt lat="44.5091884" lon="9.1891399"><ele>791.0</ele><time>2026-04-18T06:15:13.999Z</time></trkpt><trkpt lat="44.5093014" lon="9.189243"><ele>791.0</ele><time>2026-04-18T06:15:14.999Z</time></trkpt><trkpt lat="44.5094163" lon="9.1893662"><ele>791.0</ele><time>2026-04-18T06:15:15.999Z</time></trkpt><trkpt lat="44.5095172" lon="9.1894866"><ele>791.0</ele><time>2026-04-18T06:15:16.999Z</time></trkpt><trkpt lat="44.5095928" lon="9.1896214"><ele>791.0</ele><time>2026-04-18T06:15:17.999Z</time></trkpt><trkpt lat="44.5096674" lon="9.189765"><ele>787.5</ele><time>2026-04-18T06:15:18.999Z</time></trkpt><trkpt lat="44.509737" lon="9.1899274"><ele>784.0</ele><time>2026-04-18T06:15:19.999Z</time></trkpt><trkpt lat="44.5097933" lon="9.1901006"><ele>780.5</ele><time>2026-04-18T06:15:20.999Z</time></trkpt><trkpt lat="44.5098329" lon="9.1902852"><ele>777.0</ele><time>2026-04-18T06:15:21.999Z</time></trkpt><trkpt lat="44.5098679" lon="9.1904762"><ele>777.0</ele><time>2026-04-18T06:15:22.999Z</time></trkpt><trkpt lat="44.509889" lon="9.190674"><ele>777.0</ele><time>2026-04-18T06:15:23.999Z</time></trkpt><trkpt lat="44.5098882" lon="9.1908663"><ele>777.0</ele><time>2026-04-18T06:15:24.999Z</time></trkpt><trkpt lat="44.509874" lon="9.1910549"><ele>777.0</ele><time>2026-04-18T06:15:25.999Z</time></trkpt><trkpt lat="44.5098518" lon="9.1912507"><ele>777.0</ele><time>2026-04-18T06:15:26.999Z</time></trkpt><trkpt lat="44.5098167" lon="9.1914313"><ele>777.0</ele><time>2026-04-18T06:15:27.999Z</time></trkpt><trkpt lat="44.509782" lon="9.1916118"><ele>777.0</ele><time>2026-04-18T06:15:28.999Z</time></trkpt><trkpt lat="44.5096652" lon="9.193365"><ele>776.0</ele><time>2026-04-18T06:15:37.999Z</time></trkpt><trkpt lat="44.5096494" lon="9.1935722"><ele>775.0</ele><time>2026-04-18T06:15:38.999Z</time></trkpt><trkpt lat="44.509619" lon="9.1937653"><ele>774.0</ele><time>2026-04-18T06:15:39.999Z</time></trkpt><trkpt lat="44.5095849" lon="9.1939545"><ele>773.0</ele><time>2026-04-18T06:15:40.999Z</time></trkpt><trkpt lat="44.5095352" lon="9.1941246"><ele>776.5</ele><time>2026-04-18T06:15:41.999Z</time></trkpt><trkpt lat="44.5094656" lon="9.19428"><ele>780.0</ele><time>2026-04-18T06:15:42.999Z</time></trkpt><trkpt lat="44.5093849" lon="9.1944449"><ele>783.5</ele><time>2026-04-18T06:15:43.999Z</time></trkpt><trkpt lat="44.5092956" lon="9.1945717"><ele>787.0</ele><time>2026-04-18T06:15:44.999Z</time></trkpt><trkpt lat="44.5092002" lon="9.1946734"><ele>787.0</ele><time>2026-04-18T06:15:45.999Z</time></trkpt><trkpt lat="44.5090995" lon="9.1947399"><ele>787.0</ele><time>2026-04-18T06:15:46.999Z</time></trkpt><trkpt lat="44.5090064" lon="9.1948206"><ele>787.0</ele><time>2026-04-18T06:15:47.999Z</time></trkpt><trkpt lat="44.5089363" lon="9.1949147"><ele>787.0</ele><time>2026-04-18T06:15:48.999Z</time></trkpt><trkpt lat="44.5088881" lon="9.1950422"><ele>787.0</ele><time>2026-04-18T06:15:49.999Z</time></trkpt><trkpt lat="44.5088695" lon="9.195171"><ele>783.8</ele><time>2026-04-18T06:15:50.999Z</time></trkpt><trkpt lat="44.5088826" lon="9.1952991"><ele>780.6</ele><time>2026-04-18T06:15:51.999Z</time></trkpt><trkpt lat="44.5089088" lon="9.1954048"><ele>777.4</ele><time>2026-04-18T06:15:52.999Z</time></trkpt><trkpt lat="44.5089391" lon="9.1955303"><ele>774.1999999999999</ele><time>2026-04-18T06:15:53.999Z</time></trkpt><trkpt lat="44.5089743" lon="9.195675"><ele>771.0</ele><time>2026-04-18T06:15:54.999Z</time></trkpt><trkpt lat="44.5090099" lon="9.1958098"><ele>771.0</ele><time>2026-04-18T06:15:55.999Z</time></trkpt><trkpt lat="44.5090393" lon="9.1959464"><ele>771.0</ele><time>2026-04-18T06:15:56.999Z</time></trkpt><trkpt lat="44.5090469" lon="9.1960748"><ele>771.0</ele><time>2026-04-18T06:15:57.999Z</time></trkpt><trkpt lat="44.509038" lon="9.1961784"><ele>771.0</ele><time>2026-04-18T06:15:58.999Z</time></trkpt><trkpt lat="44.50902" lon="9.1963178"><ele>771.0</ele><time>2026-04-18T06:16:00.999Z</time></trkpt><trkpt lat="44.5090058" lon="9.1964253"><ele>771.0</ele><time>2026-04-18T06:16:03.999Z</time></trkpt><trkpt lat="44.5090137" lon="9.1965139"><ele>771.1666666666666</ele><time>2026-04-18T06:16:46.999Z</time></trkpt><trkpt lat="44.5090277" lon="9.1966132"><ele>771.3333333333333</ele><time>2026-04-18T06:16:48.999Z</time></trkpt><trkpt lat="44.5090518" lon="9.1967185"><ele>771.5</ele><time>2026-04-18T06:16:50.999Z</time></trkpt><trkpt lat="44.5091063" lon="9.1968261"><ele>771.6666666666666</ele><time>2026-04-18T06:16:52.999Z</time></trkpt><trkpt lat="44.5091927" lon="9.1968613"><ele>771.8333333333333</ele><time>2026-04-18T06:16:54.999Z</time></trkpt><trkpt lat="44.5093019" lon="9.1968916"><ele>772.0</ele><time>2026-04-18T06:16:56.999Z</time></trkpt><trkpt lat="44.5093985" lon="9.1969675"><ele>772.0</ele><time>2026-04-18T06:16:58.999Z</time></trkpt><trkpt lat="44.5094298" lon="9.1971207"><ele>772.0</ele><time>2026-04-18T06:17:00.999Z</time></trkpt><trkpt lat="44.5093924" lon="9.1972866"><ele>772.0</ele><time>2026-04-18T06:17:02.999Z</time></trkpt><trkpt lat="44.5093068" lon="9.1973376"><ele>772.0</ele><time>2026-04-18T06:17:04.999Z</time></trkpt><trkpt lat="44.5091978" lon="9.1973665"><ele>772.0</ele><time>2026-04-18T06:17:06.999Z</time></trkpt><trkpt lat="44.5091319" lon="9.197392"><ele>772.6666666666666</ele><time>2026-04-18T06:17:07.999Z</time></trkpt><trkpt lat="44.5090016" lon="9.1974162"><ele>773.3333333333333</ele><time>2026-04-18T06:17:09.999Z</time></trkpt><trkpt lat="44.5089381" lon="9.1974415"><ele>774.0</ele><time>2026-04-18T06:17:10.999Z</time></trkpt><trkpt lat="44.5088768" lon="9.1974822"><ele>774.6666666666667</ele><time>2026-04-18T06:17:11.999Z</time></trkpt><trkpt lat="44.5088452" lon="9.1975657"><ele>775.3333333333334</ele><time>2026-04-18T06:17:12.999Z</time></trkpt><trkpt lat="44.5088301" lon="9.1976626"><ele>776.0</ele><time>2026-04-18T06:17:13.999Z</time></trkpt><trkpt lat="44.5088339" lon="9.1977726"><ele>776.0000000000001</ele><time>2026-04-18T06:17:14.999Z</time></trkpt><trkpt lat="44.5088437" lon="9.1978891"><ele>776.0</ele><time>2026-04-18T06:17:15.999Z</time></trkpt><trkpt lat="44.5088516" lon="9.198004"><ele>776.0</ele><time>2026-04-18T06:17:16.999Z</time></trkpt><trkpt lat="44.5088654" lon="9.1981088"><ele>776.0</ele><time>2026-04-18T06:17:17.999Z</time></trkpt><trkpt lat="44.5088844" lon="9.1982148"><ele>776.0000000000001</ele><time>2026-04-18T06:17:18.999Z</time></trkpt><trkpt lat="44.5088966" lon="9.1983143"><ele>776.0</ele><time>2026-04-18T06:17:19.999Z</time></trkpt><trkpt lat="44.5089043" lon="9.1984132"><ele>776.6666666666667</ele><time>2026-04-18T06:17:21.112Z</time></trkpt><trkpt lat="44.5089595" lon="9.1985934"><ele>777.3333333333334</ele><time>2026-04-18T06:17:22.999Z</time></trkpt><trkpt lat="44.5090072" lon="9.1986555"><ele>778.0</ele><time>2026-04-18T06:17:23.999Z</time></trkpt><trkpt lat="44.5090712" lon="9.1987052"><ele>778.6666666666667</ele><time>2026-04-18T06:17:24.999Z</time></trkpt><trkpt lat="44.5091381" lon="9.1987303"><ele>779.3333333333334</ele><time>2026-04-18T06:17:25.999Z</time></trkpt><trkpt lat="44.5092097" lon="9.198736"><ele>780.0</ele><time>2026-04-18T06:17:26.999Z</time></trkpt><trkpt lat="44.5092936" lon="9.19874"><ele>780.0</ele><time>2026-04-18T06:17:28Z</time></trkpt><trkpt lat="44.5093712" lon="9.1987447"><ele>780.0</ele><time>2026-04-18T06:17:28.999Z</time></trkpt><trkpt lat="44.5094477" lon="9.1987514"><ele>780.0</ele><time>2026-04-18T06:17:30.105Z</time></trkpt><trkpt lat="44.5095231" lon="9.1987677"><ele>780.0</ele><time>2026-04-18T06:17:31.108Z</time></trkpt><trkpt lat="44.5096946" lon="9.1987914"><ele>780.0</ele><time>2026-04-18T06:17:32.999Z</time></trkpt><trkpt lat="44.5097763" lon="9.1988173"><ele>781.0</ele><time>2026-04-18T06:17:34.106Z</time></trkpt><trkpt lat="44.5098565" lon="9.1988665"><ele>782.0</ele><time>2026-04-18T06:17:35.111Z</time></trkpt><trkpt lat="44.5099791" lon="9.1990563"><ele>783.0</ele><time>2026-04-18T06:17:36.999Z</time></trkpt><trkpt lat="44.5100339" lon="9.1991582"><ele>784.0</ele><time>2026-04-18T06:17:37.999Z</time></trkpt><trkpt lat="44.5100955" lon="9.1992699"><ele>784.0</ele><time>2026-04-18T06:17:38.999Z</time></trkpt><trkpt lat="44.5101609" lon="9.1993782"><ele>784.0</ele><time>2026-04-18T06:17:40.111Z</time></trkpt><trkpt lat="44.510283" lon="9.1995898"><ele>784.0</ele><time>2026-04-18T06:17:41.999Z</time></trkpt><trkpt lat="44.5103489" lon="9.1996993"><ele>784.0</ele><time>2026-04-18T06:17:42.999Z</time></trkpt><trkpt lat="44.5103932" lon="9.1998224"><ele>789.25</ele><time>2026-04-18T06:17:43.999Z</time></trkpt><trkpt lat="44.5104238" lon="9.1999659"><ele>794.5</ele><time>2026-04-18T06:17:45.11Z</time></trkpt><trkpt lat="44.5104581" lon="9.2002659"><ele>799.75</ele><time>2026-04-18T06:17:46.999Z</time></trkpt><trkpt lat="44.5104615" lon="9.2004134"><ele>805.0</ele><time>2026-04-18T06:17:47.999Z</time></trkpt><trkpt lat="44.5104656" lon="9.2005619"><ele>806.5</ele><time>2026-04-18T06:17:48.999Z</time></trkpt><trkpt lat="44.5104506" lon="9.2006896"><ele>808.0</ele><time>2026-04-18T06:17:49.999Z</time></trkpt><trkpt lat="44.5104095" lon="9.2008447"><ele>809.5</ele><time>2026-04-18T06:17:51.114Z</time></trkpt><trkpt lat="44.5103141" lon="9.2011344"><ele>811.0</ele><time>2026-04-18T06:17:52.999Z</time></trkpt><trkpt lat="44.5102552" lon="9.2012786"><ele>797.0</ele><time>2026-04-18T06:17:53.999Z</time></trkpt><trkpt lat="44.510197" lon="9.2014285"><ele>783.0</ele><time>2026-04-18T06:17:55.115Z</time></trkpt><trkpt lat="44.5101435" lon="9.2015736"><ele>769.0</ele><time>2026-04-18T06:17:56.102Z</time></trkpt><trkpt lat="44.5100316" lon="9.2018748"><ele>769.0</ele><time>2026-04-18T06:17:57.999Z</time></trkpt><trkpt lat="44.5099769" lon="9.2020083"><ele>769.0</ele><time>2026-04-18T06:17:58.999Z</time></trkpt><trkpt lat="44.5099188" lon="9.2021445"><ele>769.0</ele><time>2026-04-18T06:17:59.999Z</time></trkpt><trkpt lat="44.5098597" lon="9.202285"><ele>769.0</ele><time>2026-04-18T06:18:00.999Z</time></trkpt><trkpt lat="44.5098062" lon="9.2024166"><ele>769.0</ele><time>2026-04-18T06:18:01.999Z</time></trkpt><trkpt lat="44.5097466" lon="9.2025421"><ele>769.0</ele><time>2026-04-18T06:18:02.999Z</time></trkpt><trkpt lat="44.509685" lon="9.2026591"><ele>769.0</ele><time>2026-04-18T06:18:03.999Z</time></trkpt><trkpt lat="44.5096275" lon="9.2027923"><ele>769.0</ele><time>2026-04-18T06:18:04.999Z</time></trkpt><trkpt lat="44.5095921" lon="9.2029243"><ele>769.0</ele><time>2026-04-18T06:18:05.999Z</time></trkpt><trkpt lat="44.5095708" lon="9.2030648"><ele>769.0</ele><time>2026-04-18T06:18:06.999Z</time></trkpt><trkpt lat="44.509567" lon="9.2032166"><ele>769.0</ele><time>2026-04-18T06:18:07.999Z</time></trkpt><trkpt lat="44.5095802" lon="9.2033603"><ele>769.0</ele><time>2026-04-18T06:18:08.999Z</time></trkpt><trkpt lat="44.5095781" lon="9.2035213"><ele>769.0</ele><time>2026-04-18T06:18:09.999Z</time></trkpt><trkpt lat="44.5095706" lon="9.2036847"><ele>769.0</ele><time>2026-04-18T06:18:10.999Z</time></trkpt><trkpt lat="44.5095619" lon="9.2038381"><ele>769.0</ele><time>2026-04-18T06:18:11.999Z</time></trkpt><trkpt lat="44.5095444" lon="9.2039932"><ele>769.4000000000001</ele><time>2026-04-18T06:18:12.999Z</time></trkpt><trkpt lat="44.5095249" lon="9.2041636"><ele>769.8</ele><time>2026-04-18T06:18:13.999Z</time></trkpt><trkpt lat="44.5095162" lon="9.2043104"><ele>770.2</ele><time>2026-04-18T06:18:14.999Z</time></trkpt><trkpt lat="44.5094999" lon="9.2044508"><ele>770.5999999999999</ele><time>2026-04-18T06:18:15.999Z</time></trkpt><trkpt lat="44.5094807" lon="9.2045847"><ele>771.0</ele><time>2026-04-18T06:18:16.999Z</time></trkpt><trkpt lat="44.5094397" lon="9.2047272"><ele>774.5</ele><time>2026-04-18T06:18:17.999Z</time></trkpt><trkpt lat="44.5093836" lon="9.2048659"><ele>778.0</ele><time>2026-04-18T06:18:18.999Z</time></trkpt><trkpt lat="44.5093091" lon="9.2050129"><ele>781.5</ele><time>2026-04-18T06:18:19.999Z</time></trkpt><trkpt lat="44.5092309" lon="9.2051731"><ele>785.0</ele><time>2026-04-18T06:18:20.999Z</time></trkpt><trkpt lat="44.5091542" lon="9.2053164"><ele>785.0</ele><time>2026-04-18T06:18:21.999Z</time></trkpt><trkpt lat="44.5090791" lon="9.2054543"><ele>785.0</ele><time>2026-04-18T06:18:22.999Z</time></trkpt><trkpt lat="44.5090014" lon="9.2055931"><ele>785.0</ele><time>2026-04-18T06:18:23.999Z</time></trkpt><trkpt lat="44.5089219" lon="9.2057338"><ele>785.0</ele><time>2026-04-18T06:18:24.999Z</time></trkpt><trkpt lat="44.5088521" lon="9.2058688"><ele>783.0</ele><time>2026-04-18T06:18:25.999Z</time></trkpt><trkpt lat="44.5087869" lon="9.2059972"><ele>781.0</ele><time>2026-04-18T06:18:26.999Z</time></trkpt><trkpt lat="44.5087309" lon="9.2061317"><ele>779.0</ele><time>2026-04-18T06:18:27.999Z</time></trkpt><trkpt lat="44.5086749" lon="9.2062648"><ele>777.0</ele><time>2026-04-18T06:18:28.999Z</time></trkpt><trkpt lat="44.5086256" lon="9.2064"><ele>775.0</ele><time>2026-04-18T06:18:29.999Z</time></trkpt><trkpt lat="44.5085724" lon="9.2065219"><ele>775.0</ele><time>2026-04-18T06:18:30.999Z</time></trkpt><trkpt lat="44.5085373" lon="9.2066474"><ele>775.0</ele><time>2026-04-18T06:18:31.999Z</time></trkpt><trkpt lat="44.5085145" lon="9.2067746"><ele>775.0</ele><time>2026-04-18T06:18:32.999Z</time></trkpt><trkpt lat="44.5085465" lon="9.2070547"><ele>775.0</ele><time>2026-04-18T06:18:34.999Z</time></trkpt><trkpt lat="44.5085858" lon="9.2071775"><ele>775.0</ele><time>2026-04-18T06:18:35.999Z</time></trkpt><trkpt lat="44.5086403" lon="9.2072983"><ele>775.0</ele><time>2026-04-18T06:18:36.999Z</time></trkpt><trkpt lat="44.5087062" lon="9.2073949"><ele>775.0</ele><time>2026-04-18T06:18:37.999Z</time></trkpt><trkpt lat="44.5087889" lon="9.2074721"><ele>775.0</ele><time>2026-04-18T06:18:38.999Z</time></trkpt><trkpt lat="44.5088813" lon="9.2075425"><ele>775.0</ele><time>2026-04-18T06:18:39.999Z</time></trkpt><trkpt lat="44.5089878" lon="9.207604"><ele>780.0</ele><time>2026-04-18T06:18:40.999Z</time></trkpt><trkpt lat="44.509088" lon="9.2076508"><ele>785.0</ele><time>2026-04-18T06:18:41.999Z</time></trkpt><trkpt lat="44.5091903" lon="9.2076843"><ele>790.0</ele><time>2026-04-18T06:18:42.999Z</time></trkpt><trkpt lat="44.509289" lon="9.2076963"><ele>795.0</ele><time>2026-04-18T06:18:43.999Z</time></trkpt><trkpt lat="44.509387" lon="9.2076955"><ele>800.0</ele><time>2026-04-18T06:18:44.999Z</time></trkpt><trkpt lat="44.5094772" lon="9.2076992"><ele>800.0000000000001</ele><time>2026-04-18T06:18:45.999Z</time></trkpt><trkpt lat="44.5095473" lon="9.2077067"><ele>800.0</ele><time>2026-04-18T06:18:46.999Z</time></trkpt><trkpt lat="44.5096315" lon="9.2078203"><ele>800.0</ele><time>2026-04-18T06:18:48.999Z</time></trkpt><trkpt lat="44.5096525" lon="9.2079142"><ele>800.0</ele><time>2026-04-18T06:18:49.999Z</time></trkpt><trkpt lat="44.50965" lon="9.2080104"><ele>800.0000000000001</ele><time>2026-04-18T06:18:50.999Z</time></trkpt><trkpt lat="44.5095756" lon="9.2081311"><ele>800.0</ele><time>2026-04-18T06:18:52.999Z</time></trkpt><trkpt lat="44.5094767" lon="9.2082485"><ele>796.6666666666667</ele><time>2026-04-18T06:18:53.999Z</time></trkpt><trkpt lat="44.509408" lon="9.2083423"><ele>793.3333333333334</ele><time>2026-04-18T06:18:54.999Z</time></trkpt><trkpt lat="44.5093555" lon="9.2084381"><ele>790.0</ele><time>2026-04-18T06:18:55.999Z</time></trkpt><trkpt lat="44.509326" lon="9.2085454"><ele>786.6666666666667</ele><time>2026-04-18T06:18:56.999Z</time></trkpt><trkpt lat="44.5093196" lon="9.2086546"><ele>783.3333333333334</ele><time>2026-04-18T06:18:57.999Z</time></trkpt><trkpt lat="44.5093362" lon="9.208764"><ele>780.0</ele><time>2026-04-18T06:18:58.999Z</time></trkpt><trkpt lat="44.5093805" lon="9.2088619"><ele>780.0</ele><time>2026-04-18T06:18:59.999Z</time></trkpt><trkpt lat="44.5094276" lon="9.2089414"><ele>780.0</ele><time>2026-04-18T06:19:00.999Z</time></trkpt><trkpt lat="44.5094844" lon="9.2089932"><ele>780.0</ele><time>2026-04-18T06:19:01.999Z</time></trkpt><trkpt lat="44.5095461" lon="9.2090171"><ele>780.0</ele><time>2026-04-18T06:19:02.999Z</time></trkpt><trkpt lat="44.5096457" lon="9.2089816"><ele>780.0</ele><time>2026-04-18T06:19:03.999Z</time></trkpt><trkpt lat="44.509774" lon="9.2088516"><ele>783.6</ele><time>2026-04-18T06:19:05.999Z</time></trkpt><trkpt lat="44.5098515" lon="9.208765"><ele>787.2</ele><time>2026-04-18T06:19:06.999Z</time></trkpt><trkpt lat="44.5099327" lon="9.2086684"><ele>790.8</ele><time>2026-04-18T06:19:07.999Z</time></trkpt><trkpt lat="44.5100235" lon="9.2085829"><ele>794.4</ele><time>2026-04-18T06:19:08.999Z</time></trkpt><trkpt lat="44.5101156" lon="9.2084836"><ele>798.0</ele><time>2026-04-18T06:19:09.999Z</time></trkpt><trkpt lat="44.5102093" lon="9.2083974"><ele>798.0</ele><time>2026-04-18T06:19:10.999Z</time></trkpt><trkpt lat="44.5103123" lon="9.2083138"><ele>798.0</ele><time>2026-04-18T06:19:11.999Z</time></trkpt><trkpt lat="44.5104272" lon="9.2082534"><ele>798.0</ele><time>2026-04-18T06:19:12.999Z</time></trkpt><trkpt lat="44.5105464" lon="9.2082001"><ele>798.0</ele><time>2026-04-18T06:19:13.999Z</time></trkpt><trkpt lat="44.5106687" lon="9.2081552"><ele>803.5</ele><time>2026-04-18T06:19:14.999Z</time></trkpt><trkpt lat="44.5107813" lon="9.2081141"><ele>809.0</ele><time>2026-04-18T06:19:15.999Z</time></trkpt><trkpt lat="44.5109032" lon="9.2080979"><ele>814.5</ele><time>2026-04-18T06:19:16.999Z</time></trkpt><trkpt lat="44.5110332" lon="9.2081002"><ele>820.0</ele><time>2026-04-18T06:19:17.999Z</time></trkpt><trkpt lat="44.5111656" lon="9.2080955"><ele>820.75</ele><time>2026-04-18T06:19:18.999Z</time></trkpt><trkpt lat="44.5112956" lon="9.2080971"><ele>821.5</ele><time>2026-04-18T06:19:19.999Z</time></trkpt><trkpt lat="44.5114174" lon="9.2080926"><ele>822.25</ele><time>2026-04-18T06:19:20.999Z</time></trkpt><trkpt lat="44.5115277" lon="9.2080934"><ele>823.0</ele><time>2026-04-18T06:19:21.999Z</time></trkpt><trkpt lat="44.5116235" lon="9.2081072"><ele>823.0</ele><time>2026-04-18T06:19:22.999Z</time></trkpt><trkpt lat="44.5117161" lon="9.2081503"><ele>823.0</ele><time>2026-04-18T06:19:23.999Z</time></trkpt><trkpt lat="44.5118012" lon="9.2082207"><ele>823.0</ele><time>2026-04-18T06:19:24.999Z</time></trkpt><trkpt lat="44.5118788" lon="9.2083457"><ele>823.0</ele><time>2026-04-18T06:19:25.999Z</time></trkpt><trkpt lat="44.5119633" lon="9.2084747"><ele>823.0</ele><time>2026-04-18T06:19:26.999Z</time></trkpt><trkpt lat="44.5120572" lon="9.2086005"><ele>820.5</ele><time>2026-04-18T06:19:27.999Z</time></trkpt><trkpt lat="44.5121424" lon="9.2087394"><ele>818.0</ele><time>2026-04-18T06:19:28.999Z</time></trkpt><trkpt lat="44.5122202" lon="9.2088849"><ele>815.5</ele><time>2026-04-18T06:19:29.999Z</time></trkpt><trkpt lat="44.512276" lon="9.2090388"><ele>813.0</ele><time>2026-04-18T06:19:30.999Z</time></trkpt><trkpt lat="44.5123354" lon="9.2091919"><ele>807.2</ele><time>2026-04-18T06:19:31.999Z</time></trkpt><trkpt lat="44.5123749" lon="9.2093454"><ele>801.4</ele><time>2026-04-18T06:19:32.999Z</time></trkpt><trkpt lat="44.5124156" lon="9.2094935"><ele>795.6</ele><time>2026-04-18T06:19:33.999Z</time></trkpt><trkpt lat="44.5124639" lon="9.2096035"><ele>789.8000000000001</ele><time>2026-04-18T06:19:34.999Z</time></trkpt><trkpt lat="44.5125218" lon="9.2096891"><ele>784.0</ele><time>2026-04-18T06:19:35.999Z</time></trkpt><trkpt lat="44.5125879" lon="9.2097478"><ele>784.0</ele><time>2026-04-18T06:19:36.999Z</time></trkpt><trkpt lat="44.5126554" lon="9.2097631"><ele>784.0</ele><time>2026-04-18T06:19:37.999Z</time></trkpt><trkpt lat="44.5127375" lon="9.2097431"><ele>784.0</ele><time>2026-04-18T06:19:40.083Z</time></trkpt><trkpt lat="44.5128669" lon="9.2096008"><ele>784.0</ele><time>2026-04-18T06:19:40.999Z</time></trkpt><trkpt lat="44.5129232" lon="9.209509"><ele>784.0</ele><time>2026-04-18T06:19:41.999Z</time></trkpt><trkpt lat="44.5129865" lon="9.2094372"><ele>785.4999999999999</ele><time>2026-04-18T06:19:42.999Z</time></trkpt><trkpt lat="44.5130516" lon="9.2094108"><ele>787.0</ele><time>2026-04-18T06:19:43.999Z</time></trkpt><trkpt lat="44.5131179" lon="9.2094277"><ele>788.5</ele><time>2026-04-18T06:19:44.999Z</time></trkpt><trkpt lat="44.5131618" lon="9.2095759"><ele>790.0</ele><time>2026-04-18T06:19:46.999Z</time></trkpt><trkpt lat="44.5131623" lon="9.2096924"><ele>791.4999999999999</ele><time>2026-04-18T06:19:47.999Z</time></trkpt><trkpt lat="44.5131542" lon="9.2098114"><ele>793.0</ele><time>2026-04-18T06:19:48.999Z</time></trkpt><trkpt lat="44.5131401" lon="9.209935"><ele>793.0</ele><time>2026-04-18T06:19:49.999Z</time></trkpt><trkpt lat="44.5131194" lon="9.2100711"><ele>793.0</ele><time>2026-04-18T06:19:50.999Z</time></trkpt><trkpt lat="44.5130948" lon="9.2102233"><ele>793.0</ele><time>2026-04-18T06:19:51.999Z</time></trkpt><trkpt lat="44.5130702" lon="9.2103767"><ele>793.0</ele><time>2026-04-18T06:19:52.999Z</time></trkpt><trkpt lat="44.5130411" lon="9.2105463"><ele>793.0</ele><time>2026-04-18T06:19:53.999Z</time></trkpt><trkpt lat="44.5130151" lon="9.210716"><ele>792.75</ele><time>2026-04-18T06:19:54.999Z</time></trkpt><trkpt lat="44.5129935" lon="9.2108854"><ele>792.5</ele><time>2026-04-18T06:19:55.999Z</time></trkpt><trkpt lat="44.5129715" lon="9.2110575"><ele>792.25</ele><time>2026-04-18T06:19:56.999Z</time></trkpt><trkpt lat="44.5129501" lon="9.2112223"><ele>792.0</ele><time>2026-04-18T06:19:57.999Z</time></trkpt><trkpt lat="44.5129347" lon="9.2113909"><ele>779.0</ele><time>2026-04-18T06:19:58.999Z</time></trkpt><trkpt lat="44.5128991" lon="9.2115634"><ele>766.0</ele><time>2026-04-18T06:20:00.108Z</time></trkpt><trkpt lat="44.5128435" lon="9.211901"><ele>753.0</ele><time>2026-04-18T06:20:01.999Z</time></trkpt><trkpt lat="44.5128085" lon="9.212087"><ele>753.0</ele><time>2026-04-18T06:20:02.999Z</time></trkpt><trkpt lat="44.5127654" lon="9.2122254"><ele>753.0</ele><time>2026-04-18T06:20:03.999Z</time></trkpt><trkpt lat="44.512716" lon="9.2123519"><ele>753.0</ele><time>2026-04-18T06:20:05.11Z</time></trkpt><trkpt lat="44.512651" lon="9.2125127"><ele>753.0</ele><time>2026-04-18T06:20:06.107Z</time></trkpt><trkpt lat="44.5124907" lon="9.2127503"><ele>754.2</ele><time>2026-04-18T06:20:07.999Z</time></trkpt><trkpt lat="44.512408" lon="9.2128545"><ele>755.4</ele><time>2026-04-18T06:20:08.999Z</time></trkpt><trkpt lat="44.5123564" lon="9.2129645"><ele>756.6</ele><time>2026-04-18T06:20:09.999Z</time></trkpt><trkpt lat="44.5123333" lon="9.2131068"><ele>757.8000000000001</ele><time>2026-04-18T06:20:10.999Z</time></trkpt><trkpt lat="44.51232" lon="9.2132659"><ele>759.0</ele><time>2026-04-18T06:20:11.999Z</time></trkpt><trkpt lat="44.5123057" lon="9.2134282"><ele>758.2</ele><time>2026-04-18T06:20:12.999Z</time></trkpt><trkpt lat="44.5123004" lon="9.2135916"><ele>757.4000000000001</ele><time>2026-04-18T06:20:13.999Z</time></trkpt><trkpt lat="44.5122911" lon="9.2137598"><ele>756.6</ele><time>2026-04-18T06:20:14.999Z</time></trkpt><trkpt lat="44.5122847" lon="9.2139171"><ele>755.8</ele><time>2026-04-18T06:20:15.999Z</time></trkpt><trkpt lat="44.5122762" lon="9.2140507"><ele>755.0</ele><time>2026-04-18T06:20:16.999Z</time></trkpt><trkpt lat="44.512278" lon="9.214185"><ele>755.0</ele><time>2026-04-18T06:20:17.999Z</time></trkpt><trkpt lat="44.5123009" lon="9.2143022"><ele>755.0</ele><time>2026-04-18T06:20:18.999Z</time></trkpt><trkpt lat="44.5123459" lon="9.2143945"><ele>755.0</ele><time>2026-04-18T06:20:19.999Z</time></trkpt><trkpt lat="44.5124048" lon="9.2144582"><ele>755.0</ele><time>2026-04-18T06:20:21.102Z</time></trkpt><trkpt lat="44.5125616" lon="9.2145006"><ele>755.0</ele><time>2026-04-18T06:20:22.999Z</time></trkpt><trkpt lat="44.512656" lon="9.214415"><ele>755.0</ele><time>2026-04-18T06:20:23.999Z</time></trkpt><trkpt lat="44.512735" lon="9.2143305"><ele>755.0</ele><time>2026-04-18T06:20:24.999Z</time></trkpt><trkpt lat="44.5128137" lon="9.2142489"><ele>755.0</ele><time>2026-04-18T06:20:25.999Z</time></trkpt><trkpt lat="44.5128975" lon="9.2141653"><ele>755.0</ele><time>2026-04-18T06:20:26.999Z</time></trkpt><trkpt lat="44.5130052" lon="9.2140908"><ele>755.0</ele><time>2026-04-18T06:20:27.999Z</time></trkpt><trkpt lat="44.5131082" lon="9.2140147"><ele>760.75</ele><time>2026-04-18T06:20:28.999Z</time></trkpt><trkpt lat="44.5132119" lon="9.2139397"><ele>766.5</ele><time>2026-04-18T06:20:29.999Z</time></trkpt><trkpt lat="44.5133332" lon="9.2138724"><ele>772.25</ele><time>2026-04-18T06:20:30.999Z</time></trkpt><trkpt lat="44.5134511" lon="9.2138117"><ele>778.0</ele><time>2026-04-18T06:20:31.999Z</time></trkpt><trkpt lat="44.5135773" lon="9.2137315"><ele>778.0</ele><time>2026-04-18T06:20:32.999Z</time></trkpt><trkpt lat="44.5137105" lon="9.2136414"><ele>778.0</ele><time>2026-04-18T06:20:33.999Z</time></trkpt><trkpt lat="44.5138488" lon="9.2135536"><ele>778.0</ele><time>2026-04-18T06:20:34.999Z</time></trkpt><trkpt lat="44.513965" lon="9.2134545"><ele>778.0</ele><time>2026-04-18T06:20:35.999Z</time></trkpt><trkpt lat="44.5140628" lon="9.213362"><ele>780.6666666666666</ele><time>2026-04-18T06:20:36.999Z</time></trkpt><trkpt lat="44.5141458" lon="9.2132789"><ele>783.3333333333333</ele><time>2026-04-18T06:20:37.999Z</time></trkpt><trkpt lat="44.5141717" lon="9.2131892"><ele>786.0</ele><time>2026-04-18T06:20:38.999Z</time></trkpt><trkpt lat="44.5142436" lon="9.2131096"><ele>788.6666666666667</ele><time>2026-04-18T06:20:39.999Z</time></trkpt><trkpt lat="44.5143386" lon="9.2130898"><ele>791.3333333333334</ele><time>2026-04-18T06:20:40.999Z</time></trkpt><trkpt lat="44.5144177" lon="9.2130842"><ele>794.0</ele><time>2026-04-18T06:20:41.999Z</time></trkpt><trkpt lat="44.5145094" lon="9.2131632"><ele>788.5000000000001</ele><time>2026-04-18T06:20:42.999Z</time></trkpt><trkpt lat="44.5145542" lon="9.2132501"><ele>783.0</ele><time>2026-04-18T06:20:43.999Z</time></trkpt><trkpt lat="44.5145936" lon="9.2133604"><ele>777.5</ele><time>2026-04-18T06:20:45Z</time></trkpt><trkpt lat="44.5146224" lon="9.2134655"><ele>772.0</ele><time>2026-04-18T06:20:45.999Z</time></trkpt><trkpt lat="44.5146127" lon="9.2135901"><ele>766.5</ele><time>2026-04-18T06:20:46.999Z</time></trkpt><trkpt lat="44.5145703" lon="9.213701"><ele>761.0</ele><time>2026-04-18T06:20:47.999Z</time></trkpt><trkpt lat="44.5145076" lon="9.2138127"><ele>759.5</ele><time>2026-04-18T06:20:48.999Z</time></trkpt><trkpt lat="44.5144511" lon="9.2139344"><ele>758.0</ele><time>2026-04-18T06:20:49.999Z</time></trkpt><trkpt lat="44.514371" lon="9.2140761"><ele>756.5</ele><time>2026-04-18T06:20:50.999Z</time></trkpt><trkpt lat="44.5142929" lon="9.2141905"><ele>755.0</ele><time>2026-04-18T06:20:51.999Z</time></trkpt><trkpt lat="44.5141787" lon="9.2143176"><ele>753.75</ele><time>2026-04-18T06:20:52.999Z</time></trkpt><trkpt lat="44.5141017" lon="9.2144025"><ele>752.5</ele><time>2026-04-18T06:20:53.999Z</time></trkpt><trkpt lat="44.513985" lon="9.2145086"><ele>751.25</ele><time>2026-04-18T06:20:54.999Z</time></trkpt><trkpt lat="44.5138875" lon="9.2146061"><ele>750.0</ele><time>2026-04-18T06:20:55.999Z</time></trkpt><trkpt lat="44.5137771" lon="9.2147202"><ele>750.4</ele><time>2026-04-18T06:20:56.999Z</time></trkpt><trkpt lat="44.5136751" lon="9.2147977"><ele>750.8</ele><time>2026-04-18T06:20:57.999Z</time></trkpt><trkpt lat="44.5135819" lon="9.2148921"><ele>751.2</ele><time>2026-04-18T06:20:58.999Z</time></trkpt><trkpt lat="44.5135054" lon="9.2149874"><ele>751.6</ele><time>2026-04-18T06:20:59.999Z</time></trkpt><trkpt lat="44.5134455" lon="9.2150852"><ele>752.0</ele><time>2026-04-18T06:21:00.999Z</time></trkpt><trkpt lat="44.5133997" lon="9.2151924"><ele>751.1666666666666</ele><time>2026-04-18T06:21:01.999Z</time></trkpt><trkpt lat="44.5134084" lon="9.2153013"><ele>750.3333333333333</ele><time>2026-04-18T06:21:02.999Z</time></trkpt><trkpt lat="44.5134324" lon="9.2154012"><ele>749.5</ele><time>2026-04-18T06:21:03.999Z</time></trkpt><trkpt lat="44.5134676" lon="9.2154925"><ele>748.6666666666666</ele><time>2026-04-18T06:21:04.999Z</time></trkpt><trkpt lat="44.5135353" lon="9.2155681"><ele>747.8333333333334</ele><time>2026-04-18T06:21:05.999Z</time></trkpt><trkpt lat="44.513616" lon="9.2156479"><ele>747.0</ele><time>2026-04-18T06:21:06.999Z</time></trkpt><trkpt lat="44.5136913" lon="9.2157209"><ele>749.1666666666666</ele><time>2026-04-18T06:21:07.999Z</time></trkpt><trkpt lat="44.5137648" lon="9.2157921"><ele>751.3333333333334</ele><time>2026-04-18T06:21:08.999Z</time></trkpt><trkpt lat="44.513842" lon="9.2158463"><ele>753.5</ele><time>2026-04-18T06:21:09.999Z</time></trkpt><trkpt lat="44.5139179" lon="9.2158813"><ele>755.6666666666667</ele><time>2026-04-18T06:21:10.999Z</time></trkpt><trkpt lat="44.5139948" lon="9.2158743"><ele>757.8333333333334</ele><time>2026-04-18T06:21:11.999Z</time></trkpt><trkpt lat="44.5140962" lon="9.2158408"><ele>760.0</ele><time>2026-04-18T06:21:12.999Z</time></trkpt><trkpt lat="44.5141892" lon="9.2158158"><ele>760.0</ele><time>2026-04-18T06:21:13.999Z</time></trkpt><trkpt lat="44.5142746" lon="9.2158021"><ele>760.0</ele><time>2026-04-18T06:21:15Z</time></trkpt><trkpt lat="44.5143936" lon="9.215772"><ele>760.0</ele><time>2026-04-18T06:21:15.999Z</time></trkpt><trkpt lat="44.5144879" lon="9.2157501"><ele>760.0</ele><time>2026-04-18T06:21:16.999Z</time></trkpt><trkpt lat="44.5146208" lon="9.2156741"><ele>760.0</ele><time>2026-04-18T06:21:17.999Z</time></trkpt><trkpt lat="44.5147273" lon="9.2156117"><ele>760.8333333333334</ele><time>2026-04-18T06:21:18.999Z</time></trkpt><trkpt lat="44.5148059" lon="9.2155467"><ele>761.6666666666667</ele><time>2026-04-18T06:21:19.999Z</time></trkpt><trkpt lat="44.5148673" lon="9.215518"><ele>762.5</ele><time>2026-04-18T06:21:20.999Z</time></trkpt><trkpt lat="44.5149851" lon="9.2155812"><ele>763.3333333333334</ele><time>2026-04-18T06:21:22.999Z</time></trkpt><trkpt lat="44.5150206" lon="9.2156632"><ele>764.1666666666666</ele><time>2026-04-18T06:21:23.999Z</time></trkpt><trkpt lat="44.5150249" lon="9.2157901"><ele>765.0</ele><time>2026-04-18T06:21:25.999Z</time></trkpt><trkpt lat="44.5149134" lon="9.2159596"><ele>765.0</ele><time>2026-04-18T06:21:27.999Z</time></trkpt><trkpt lat="44.514849" lon="9.2160837"><ele>765.0</ele><time>2026-04-18T06:21:28.999Z</time></trkpt><trkpt lat="44.5148088" lon="9.2161728"><ele>765.0</ele><time>2026-04-18T06:21:29.999Z</time></trkpt><trkpt lat="44.5147642" lon="9.2162526"><ele>765.0</ele><time>2026-04-18T06:21:30.999Z</time></trkpt><trkpt lat="44.514698" lon="9.2164643"><ele>765.0</ele><time>2026-04-18T06:21:32.999Z</time></trkpt><trkpt lat="44.5146403" lon="9.2165955"><ele>768.6</ele><time>2026-04-18T06:21:33.999Z</time></trkpt><trkpt lat="44.5145855" lon="9.2167101"><ele>772.2</ele><time>2026-04-18T06:21:34.999Z</time></trkpt><trkpt lat="44.5145243" lon="9.2168413"><ele>775.8</ele><time>2026-04-18T06:21:35.999Z</time></trkpt><trkpt lat="44.5144969" lon="9.2169737"><ele>779.4</ele><time>2026-04-18T06:21:36.999Z</time></trkpt><trkpt lat="44.5144914" lon="9.2171322"><ele>783.0</ele><time>2026-04-18T06:21:37.999Z</time></trkpt><trkpt lat="44.5144977" lon="9.2172871"><ele>773.8</ele><time>2026-04-18T06:21:38.999Z</time></trkpt><trkpt lat="44.5145095" lon="9.2174214"><ele>764.5999999999999</ele><time>2026-04-18T06:21:39.999Z</time></trkpt><trkpt lat="44.5145227" lon="9.2175512"><ele>755.4000000000001</ele><time>2026-04-18T06:21:40.999Z</time></trkpt><trkpt lat="44.5145339" lon="9.2176816"><ele>746.2</ele><time>2026-04-18T06:21:41.999Z</time></trkpt><trkpt lat="44.5145352" lon="9.2178102"><ele>737.0</ele><time>2026-04-18T06:21:42.999Z</time></trkpt><trkpt lat="44.514513" lon="9.2179364"><ele>737.0</ele><time>2026-04-18T06:21:43.999Z</time></trkpt><trkpt lat="44.5144835" lon="9.2180584"><ele>737.0</ele><time>2026-04-18T06:21:44.999Z</time></trkpt><trkpt lat="44.5144529" lon="9.2181788"><ele>737.0</ele><time>2026-04-18T06:21:45.999Z</time></trkpt><trkpt lat="44.5144127" lon="9.218315"><ele>737.0</ele><time>2026-04-18T06:21:46.999Z</time></trkpt><trkpt lat="44.5143671" lon="9.2184141"><ele>737.0</ele><time>2026-04-18T06:21:47.999Z</time></trkpt><trkpt lat="44.5143073" lon="9.218512"><ele>739.2</ele><time>2026-04-18T06:21:48.999Z</time></trkpt><trkpt lat="44.5142359" lon="9.2186064"><ele>741.4000000000001</ele><time>2026-04-18T06:21:49.999Z</time></trkpt><trkpt lat="44.5141317" lon="9.2186901"><ele>743.5999999999999</ele><time>2026-04-18T06:21:50.999Z</time></trkpt><trkpt lat="44.5140524" lon="9.2187624"><ele>745.8</ele><time>2026-04-18T06:21:51.999Z</time></trkpt><trkpt lat="44.5139572" lon="9.2188531"><ele>748.0</ele><time>2026-04-18T06:21:52.999Z</time></trkpt><trkpt lat="44.5138788" lon="9.2189422"><ele>751.0</ele><time>2026-04-18T06:21:53.999Z</time></trkpt><trkpt lat="44.5137895" lon="9.2190113"><ele>754.0</ele><time>2026-04-18T06:21:54.999Z</time></trkpt><trkpt lat="44.5136926" lon="9.2190753"><ele>757.0</ele><time>2026-04-18T06:21:55.999Z</time></trkpt><trkpt lat="44.513583" lon="9.2191364"><ele>760.0</ele><time>2026-04-18T06:21:56.999Z</time></trkpt><trkpt lat="44.5134741" lon="9.2191887"><ele>763.0</ele><time>2026-04-18T06:21:57.999Z</time></trkpt><trkpt lat="44.5133595" lon="9.21923"><ele>763.0</ele><time>2026-04-18T06:21:58.999Z</time></trkpt><trkpt lat="44.5132374" lon="9.2192509"><ele>763.0</ele><time>2026-04-18T06:21:59.999Z</time></trkpt><trkpt lat="44.5131245" lon="9.2192465"><ele>763.0</ele><time>2026-04-18T06:22:00.999Z</time></trkpt><trkpt lat="44.5130001" lon="9.21925"><ele>763.0</ele><time>2026-04-18T06:22:01.999Z</time></trkpt><trkpt lat="44.512878" lon="9.2192382"><ele>761.5</ele><time>2026-04-18T06:22:02.999Z</time></trkpt><trkpt lat="44.5127601" lon="9.2192482"><ele>760.0</ele><time>2026-04-18T06:22:03.999Z</time></trkpt><trkpt lat="44.5126442" lon="9.2192639"><ele>758.5</ele><time>2026-04-18T06:22:04.999Z</time></trkpt><trkpt lat="44.5125226" lon="9.2192693"><ele>757.0</ele><time>2026-04-18T06:22:06.111Z</time></trkpt><trkpt lat="44.5123236" lon="9.2192884"><ele>757.0</ele><time>2026-04-18T06:22:07.999Z</time></trkpt><trkpt lat="44.5122418" lon="9.2193201"><ele>757.0</ele><time>2026-04-18T06:22:08.999Z</time></trkpt><trkpt lat="44.5121652" lon="9.2193489"><ele>757.0</ele><time>2026-04-18T06:22:09.999Z</time></trkpt><trkpt lat="44.5120844" lon="9.2193938"><ele>757.0</ele><time>2026-04-18T06:22:10.999Z</time></trkpt><trkpt lat="44.5119652" lon="9.219464"><ele>757.0</ele><time>2026-04-18T06:22:12.999Z</time></trkpt><trkpt lat="44.5118724" lon="9.2195165"><ele>755.6</ele><time>2026-04-18T06:22:14Z</time></trkpt><trkpt lat="44.5117915" lon="9.2195614"><ele>754.2</ele><time>2026-04-18T06:22:14.999Z</time></trkpt><trkpt lat="44.5116963" lon="9.2196053"><ele>752.8</ele><time>2026-04-18T06:22:16Z</time></trkpt><trkpt lat="44.5116198" lon="9.2196554"><ele>751.4</ele><time>2026-04-18T06:22:16.999Z</time></trkpt><trkpt lat="44.5115319" lon="9.2197171"><ele>750.0</ele><time>2026-04-18T06:22:17.999Z</time></trkpt><trkpt lat="44.5114479" lon="9.2197794"><ele>749.0</ele><time>2026-04-18T06:22:18.999Z</time></trkpt><trkpt lat="44.5113617" lon="9.2198364"><ele>748.0</ele><time>2026-04-18T06:22:19.999Z</time></trkpt><trkpt lat="44.5112878" lon="9.2198928"><ele>747.0</ele><time>2026-04-18T06:22:21Z</time></trkpt><trkpt lat="44.5112296" lon="9.2199506"><ele>746.0</ele><time>2026-04-18T06:22:21.999Z</time></trkpt><trkpt lat="44.511213" lon="9.2200465"><ele>745.0</ele><time>2026-04-18T06:22:22.999Z</time></trkpt><trkpt lat="44.5112088" lon="9.2201453"><ele>744.0</ele><time>2026-04-18T06:22:23.999Z</time></trkpt><trkpt lat="44.5112476" lon="9.2202485"><ele>748.4000000000001</ele><time>2026-04-18T06:22:24.999Z</time></trkpt><trkpt lat="44.5113003" lon="9.2203499"><ele>752.8</ele><time>2026-04-18T06:22:25.999Z</time></trkpt><trkpt lat="44.5113715" lon="9.2204479"><ele>757.2</ele><time>2026-04-18T06:22:26.999Z</time></trkpt><trkpt lat="44.5114462" lon="9.2205423"><ele>761.5999999999999</ele><time>2026-04-18T06:22:27.999Z</time></trkpt><trkpt lat="44.5115213" lon="9.220649"><ele>766.0</ele><time>2026-04-18T06:22:28.999Z</time></trkpt><trkpt lat="44.511605" lon="9.220765"><ele>766.0</ele><time>2026-04-18T06:22:30.106Z</time></trkpt><trkpt lat="44.511753" lon="9.2210005"><ele>766.0</ele><time>2026-04-18T06:22:32.107Z</time></trkpt><trkpt lat="44.5118828" lon="9.2212732"><ele>766.0</ele><time>2026-04-18T06:22:33.999Z</time></trkpt><trkpt lat="44.5119554" lon="9.22141"><ele>766.0</ele><time>2026-04-18T06:22:34.999Z</time></trkpt><trkpt lat="44.5120386" lon="9.2215311"><ele>766.0</ele><time>2026-04-18T06:22:36Z</time></trkpt><trkpt lat="44.5121267" lon="9.221651"><ele>766.0</ele><time>2026-04-18T06:22:36.999Z</time></trkpt><trkpt lat="44.5122143" lon="9.2217722"><ele>769.5999999999999</ele><time>2026-04-18T06:22:37.999Z</time></trkpt><trkpt lat="44.5122872" lon="9.221889"><ele>773.2</ele><time>2026-04-18T06:22:38.999Z</time></trkpt><trkpt lat="44.5123614" lon="9.2220088"><ele>776.8</ele><time>2026-04-18T06:22:39.999Z</time></trkpt><trkpt lat="44.5124393" lon="9.2221079"><ele>780.4000000000001</ele><time>2026-04-18T06:22:41Z</time></trkpt><trkpt lat="44.5125229" lon="9.2221853"><ele>784.0</ele><time>2026-04-18T06:22:41.999Z</time></trkpt><trkpt lat="44.5126084" lon="9.2222287"><ele>784.0</ele><time>2026-04-18T06:22:42.999Z</time></trkpt><trkpt lat="44.5126888" lon="9.2222316"><ele>784.0</ele><time>2026-04-18T06:22:43.999Z</time></trkpt><trkpt lat="44.5127873" lon="9.2222261"><ele>784.0</ele><time>2026-04-18T06:22:44.999Z</time></trkpt><trkpt lat="44.5128714" lon="9.2222065"><ele>784.0</ele><time>2026-04-18T06:22:45.999Z</time></trkpt><trkpt lat="44.5130511" lon="9.2221638"><ele>784.0</ele><time>2026-04-18T06:22:46.999Z</time></trkpt><trkpt lat="44.5131802" lon="9.2221501"><ele>787.5</ele><time>2026-04-18T06:22:47.999Z</time></trkpt><trkpt lat="44.5133148" lon="9.2221408"><ele>791.0</ele><time>2026-04-18T06:22:48.999Z</time></trkpt><trkpt lat="44.5134366" lon="9.2221634"><ele>794.5</ele><time>2026-04-18T06:22:49.999Z</time></trkpt><trkpt lat="44.5135615" lon="9.2221872"><ele>798.0</ele><time>2026-04-18T06:22:50.999Z</time></trkpt><trkpt lat="44.513657" lon="9.222209"><ele>797.5</ele><time>2026-04-18T06:22:51.999Z</time></trkpt><trkpt lat="44.513786" lon="9.2222201"><ele>797.0</ele><time>2026-04-18T06:22:52.999Z</time></trkpt><trkpt lat="44.5139082" lon="9.2222292"><ele>796.5</ele><time>2026-04-18T06:22:53.999Z</time></trkpt><trkpt lat="44.5140258" lon="9.2222341"><ele>796.0</ele><time>2026-04-18T06:22:54.999Z</time></trkpt><trkpt lat="44.5141488" lon="9.2222368"><ele>796.0</ele><time>2026-04-18T06:22:55.999Z</time></trkpt><trkpt lat="44.5142617" lon="9.2222378"><ele>796.0</ele><time>2026-04-18T06:22:56.999Z</time></trkpt><trkpt lat="44.5143728" lon="9.2222449"><ele>796.0</ele><time>2026-04-18T06:22:57.999Z</time></trkpt><trkpt lat="44.5144811" lon="9.2222447"><ele>796.0</ele><time>2026-04-18T06:22:58.999Z</time></trkpt><trkpt lat="44.5146036" lon="9.2222278"><ele>795.5</ele><time>2026-04-18T06:22:59.999Z</time></trkpt><trkpt lat="44.5147126" lon="9.2222012"><ele>795.0</ele><time>2026-04-18T06:23:00.999Z</time></trkpt><trkpt lat="44.5148345" lon="9.222162"><ele>794.5</ele><time>2026-04-18T06:23:01.999Z</time></trkpt><trkpt lat="44.5149575" lon="9.2221523"><ele>794.0</ele><time>2026-04-18T06:23:02.999Z</time></trkpt><trkpt lat="44.5150814" lon="9.2221521"><ele>794.0</ele><time>2026-04-18T06:23:03.999Z</time></trkpt><trkpt lat="44.5152022" lon="9.222169"><ele>794.0</ele><time>2026-04-18T06:23:04.999Z</time></trkpt><trkpt lat="44.5153225" lon="9.2221763"><ele>794.0</ele><time>2026-04-18T06:23:05.999Z</time></trkpt><trkpt lat="44.5154315" lon="9.2221761"><ele>794.0</ele><time>2026-04-18T06:23:06.999Z</time></trkpt><trkpt lat="44.515541" lon="9.2221581"><ele>796.0</ele><time>2026-04-18T06:23:07.999Z</time></trkpt><trkpt lat="44.5156284" lon="9.2221427"><ele>798.0</ele><time>2026-04-18T06:23:08.999Z</time></trkpt><trkpt lat="44.5157203" lon="9.222145"><ele>800.0</ele><time>2026-04-18T06:23:09.999Z</time></trkpt><trkpt lat="44.5158011" lon="9.2221814"><ele>802.0</ele><time>2026-04-18T06:23:11.103Z</time></trkpt><trkpt lat="44.5158804" lon="9.2223341"><ele>804.0</ele><time>2026-04-18T06:23:12.999Z</time></trkpt><trkpt lat="44.5158794" lon="9.2224359"><ele>797.8000000000001</ele><time>2026-04-18T06:23:13.999Z</time></trkpt><trkpt lat="44.5158419" lon="9.2225261"><ele>791.6</ele><time>2026-04-18T06:23:14.999Z</time></trkpt><trkpt lat="44.515779" lon="9.2226384"><ele>785.4</ele><time>2026-04-18T06:23:15.999Z</time></trkpt><trkpt lat="44.5157027" lon="9.2227131"><ele>779.2</ele><time>2026-04-18T06:23:16.999Z</time></trkpt><trkpt lat="44.5156158" lon="9.2227873"><ele>773.0</ele><time>2026-04-18T06:23:17.999Z</time></trkpt><trkpt lat="44.515542" lon="9.2228757"><ele>773.0000000000001</ele><time>2026-04-18T06:23:18.999Z</time></trkpt><trkpt lat="44.5154778" lon="9.2229468"><ele>773.0</ele><time>2026-04-18T06:23:19.999Z</time></trkpt><trkpt lat="44.5154383" lon="9.2230244"><ele>773.0</ele><time>2026-04-18T06:23:21.107Z</time></trkpt><trkpt lat="44.5154179" lon="9.2231156"><ele>773.0</ele><time>2026-04-18T06:23:22.107Z</time></trkpt><trkpt lat="44.5154541" lon="9.2232898"><ele>773.0000000000001</ele><time>2026-04-18T06:23:23.999Z</time></trkpt><trkpt lat="44.5155024" lon="9.2233603"><ele>773.0</ele><time>2026-04-18T06:23:24.999Z</time></trkpt><trkpt lat="44.5155724" lon="9.22342"><ele>773.1666666666667</ele><time>2026-04-18T06:23:25.999Z</time></trkpt><trkpt lat="44.5156455" lon="9.2234735"><ele>773.3333333333334</ele><time>2026-04-18T06:23:26.999Z</time></trkpt><trkpt lat="44.5157079" lon="9.2235131"><ele>773.5</ele><time>2026-04-18T06:23:27.999Z</time></trkpt><trkpt lat="44.515761" lon="9.2235798"><ele>773.6666666666667</ele><time>2026-04-18T06:23:28.999Z</time></trkpt><trkpt lat="44.5157996" lon="9.2236746"><ele>773.8333333333334</ele><time>2026-04-18T06:23:29.999Z</time></trkpt><trkpt lat="44.5158098" lon="9.2237827"><ele>774.0</ele><time>2026-04-18T06:23:30.999Z</time></trkpt><trkpt lat="44.5157945" lon="9.2239094"><ele>770.6</ele><time>2026-04-18T06:23:31.999Z</time></trkpt><trkpt lat="44.5157823" lon="9.2240522"><ele>767.2</ele><time>2026-04-18T06:23:32.999Z</time></trkpt><trkpt lat="44.515789" lon="9.2241969"><ele>763.8000000000001</ele><time>2026-04-18T06:23:33.999Z</time></trkpt><trkpt lat="44.5158127" lon="9.2243264"><ele>760.4000000000001</ele><time>2026-04-18T06:23:34.999Z</time></trkpt><trkpt lat="44.5158551" lon="9.2244399"><ele>757.0</ele><time>2026-04-18T06:23:35.999Z</time></trkpt><trkpt lat="44.515906" lon="9.2245463"><ele>757.0</ele><time>2026-04-18T06:23:36.999Z</time></trkpt><trkpt lat="44.5159841" lon="9.2246317"><ele>757.0</ele><time>2026-04-18T06:23:37.999Z</time></trkpt><trkpt lat="44.5160789" lon="9.2246973"><ele>757.0</ele><time>2026-04-18T06:23:38.999Z</time></trkpt><trkpt lat="44.5161793" lon="9.2247576"><ele>757.0</ele><time>2026-04-18T06:23:39.999Z</time></trkpt><trkpt lat="44.5162684" lon="9.2247835"><ele>757.0</ele><time>2026-04-18T06:23:40.999Z</time></trkpt><trkpt lat="44.5163706" lon="9.2247776"><ele>760.6666666666667</ele><time>2026-04-18T06:23:41.999Z</time></trkpt><trkpt lat="44.5164516" lon="9.2247661"><ele>764.3333333333334</ele><time>2026-04-18T06:23:42.999Z</time></trkpt><trkpt lat="44.5165343" lon="9.2247989"><ele>768.0</ele><time>2026-04-18T06:23:43.999Z</time></trkpt><trkpt lat="44.5165919" lon="9.2248671"><ele>771.6666666666667</ele><time>2026-04-18T06:23:44.999Z</time></trkpt><trkpt lat="44.5166111" lon="9.224977"><ele>775.3333333333334</ele><time>2026-04-18T06:23:45.999Z</time></trkpt><trkpt lat="44.5166164" lon="9.2250816"><ele>779.0</ele><time>2026-04-18T06:23:46.999Z</time></trkpt><trkpt lat="44.5166055" lon="9.2251898"><ele>779.0</ele><time>2026-04-18T06:23:47.999Z</time></trkpt><trkpt lat="44.5165696" lon="9.2252981"><ele>779.0</ele><time>2026-04-18T06:23:48.999Z</time></trkpt><trkpt lat="44.516526" lon="9.2254101"><ele>779.0</ele><time>2026-04-18T06:23:49.999Z</time></trkpt><trkpt lat="44.5164654" lon="9.225564"><ele>779.0</ele><time>2026-04-18T06:23:50.999Z</time></trkpt><trkpt lat="44.5164031" lon="9.2256644"><ele>779.0</ele><time>2026-04-18T06:23:51.999Z</time></trkpt><trkpt lat="44.516352" lon="9.2257411"><ele>778.3333333333334</ele><time>2026-04-18T06:23:52.999Z</time></trkpt><trkpt lat="44.5163133" lon="9.2258215"><ele>777.6666666666667</ele><time>2026-04-18T06:23:53.999Z</time></trkpt><trkpt lat="44.5162814" lon="9.2258995"><ele>777.0</ele><time>2026-04-18T06:23:54.999Z</time></trkpt><trkpt lat="44.5162481" lon="9.2260027"><ele>776.3333333333333</ele><time>2026-04-18T06:23:56.999Z</time></trkpt><trkpt lat="44.5162098" lon="9.2260793"><ele>775.6666666666666</ele><time>2026-04-18T06:26:10.999Z</time></trkpt><trkpt lat="44.5162557" lon="9.2261807"><ele>775.0</ele><time>2026-04-18T06:26:43.999Z</time></trkpt><trkpt lat="44.5163043" lon="9.2263586"><ele>775.0</ele><time>2026-04-18T06:26:45.999Z</time></trkpt><trkpt lat="44.5163221" lon="9.2264766"><ele>775.0</ele><time>2026-04-18T06:26:46.999Z</time></trkpt><trkpt lat="44.5163277" lon="9.2266097"><ele>775.0</ele><time>2026-04-18T06:26:47.999Z</time></trkpt><trkpt lat="44.5163121" lon="9.2267526"><ele>775.0</ele><time>2026-04-18T06:26:48.999Z</time></trkpt><trkpt lat="44.5162664" lon="9.226885"><ele>775.0</ele><time>2026-04-18T06:26:49.999Z</time></trkpt><trkpt lat="44.5162147" lon="9.2270667"><ele>765.0</ele><time>2026-04-18T06:26:50.999Z</time></trkpt><trkpt lat="44.5161563" lon="9.227222"><ele>755.0</ele><time>2026-04-18T06:26:51.999Z</time></trkpt><trkpt lat="44.5160974" lon="9.227439"><ele>745.0</ele><time>2026-04-18T06:26:52.999Z</time></trkpt><trkpt lat="44.5160459" lon="9.2276442"><ele>735.0</ele><time>2026-04-18T06:26:53.999Z</time></trkpt><trkpt lat="44.5159945" lon="9.2278609"><ele>735.0</ele><time>2026-04-18T06:26:54.999Z</time></trkpt><trkpt lat="44.5159488" lon="9.2280686"><ele>735.0</ele><time>2026-04-18T06:26:55.999Z</time></trkpt><trkpt lat="44.5159104" lon="9.2282652"><ele>735.0</ele><time>2026-04-18T06:26:56.999Z</time></trkpt><trkpt lat="44.5158731" lon="9.2284445"><ele>735.0</ele><time>2026-04-18T06:26:57.999Z</time></trkpt><trkpt lat="44.5158442" lon="9.2286114"><ele>734.75</ele><time>2026-04-18T06:26:58.999Z</time></trkpt><trkpt lat="44.5158412" lon="9.2287762"><ele>734.5</ele><time>2026-04-18T06:26:59.999Z</time></trkpt><trkpt lat="44.5158691" lon="9.2289518"><ele>734.25</ele><time>2026-04-18T06:27:00.999Z</time></trkpt><trkpt lat="44.5159125" lon="9.2291097"><ele>734.0</ele><time>2026-04-18T06:27:01.999Z</time></trkpt><trkpt lat="44.5159616" lon="9.2292676"><ele>734.0</ele><time>2026-04-18T06:27:02.999Z</time></trkpt><trkpt lat="44.5160179" lon="9.2294134"><ele>734.0</ele><time>2026-04-18T06:27:03.999Z</time></trkpt><trkpt lat="44.5160964" lon="9.2295405"><ele>734.0</ele><time>2026-04-18T06:27:04.999Z</time></trkpt><trkpt lat="44.5161984" lon="9.2296405"><ele>734.0</ele><time>2026-04-18T06:27:05.999Z</time></trkpt><trkpt lat="44.516303" lon="9.2297057"><ele>740.75</ele><time>2026-04-18T06:27:06.999Z</time></trkpt><trkpt lat="44.5164451" lon="9.2297092"><ele>747.5</ele><time>2026-04-18T06:27:07.999Z</time></trkpt><trkpt lat="44.5165707" lon="9.2297048"><ele>754.25</ele><time>2026-04-18T06:27:08.999Z</time></trkpt><trkpt lat="44.5167156" lon="9.2296376"><ele>761.0</ele><time>2026-04-18T06:27:09.999Z</time></trkpt><trkpt lat="44.5168529" lon="9.2295861"><ele>761.0</ele><time>2026-04-18T06:27:10.999Z</time></trkpt><trkpt lat="44.5170009" lon="9.2295446"><ele>761.0</ele><time>2026-04-18T06:27:11.999Z</time></trkpt><trkpt lat="44.5171564" lon="9.2295371"><ele>761.0</ele><time>2026-04-18T06:27:12.999Z</time></trkpt><trkpt lat="44.5173248" lon="9.2295335"><ele>759.0</ele><time>2026-04-18T06:27:13.999Z</time></trkpt><trkpt lat="44.5174858" lon="9.2295346"><ele>757.0</ele><time>2026-04-18T06:27:14.999Z</time></trkpt><trkpt lat="44.5176661" lon="9.2295084"><ele>755.0</ele><time>2026-04-18T06:27:15.999Z</time></trkpt><trkpt lat="44.5178357" lon="9.2294885"><ele>749.6666666666666</ele><time>2026-04-18T06:27:16.999Z</time></trkpt><trkpt lat="44.5180152" lon="9.2294829"><ele>744.3333333333334</ele><time>2026-04-18T06:27:17.999Z</time></trkpt><trkpt lat="44.5181904" lon="9.2295091"><ele>739.0</ele><time>2026-04-18T06:27:18.999Z</time></trkpt><trkpt lat="44.5183713" lon="9.2295709"><ele>739.0</ele><time>2026-04-18T06:27:19.999Z</time></trkpt><trkpt lat="44.518553" lon="9.2296515"><ele>739.0</ele><time>2026-04-18T06:27:20.999Z</time></trkpt><trkpt lat="44.5187237" lon="9.2297406"><ele>739.0</ele><time>2026-04-18T06:27:21.999Z</time></trkpt><trkpt lat="44.5188987" lon="9.2298288"><ele>733.6666666666667</ele><time>2026-04-18T06:27:22.999Z</time></trkpt><trkpt lat="44.5190815" lon="9.2299125"><ele>728.3333333333334</ele><time>2026-04-18T06:27:23.999Z</time></trkpt><trkpt lat="44.5192633" lon="9.2299952"><ele>723.0</ele><time>2026-04-18T06:27:24.999Z</time></trkpt><trkpt lat="44.5194381" lon="9.230079"><ele>731.0</ele><time>2026-04-18T06:27:25.999Z</time></trkpt><trkpt lat="44.5196055" lon="9.2301743"><ele>739.0</ele><time>2026-04-18T06:27:26.999Z</time></trkpt><trkpt lat="44.5197615" lon="9.2302825"><ele>747.0</ele><time>2026-04-18T06:27:27.999Z</time></trkpt><trkpt lat="44.5198961" lon="9.2304184"><ele>747.0</ele><time>2026-04-18T06:27:28.999Z</time></trkpt><trkpt lat="44.5200177" lon="9.2305784"><ele>747.0</ele><time>2026-04-18T06:27:29.999Z</time></trkpt><trkpt lat="44.5201425" lon="9.230747"><ele>747.0</ele><time>2026-04-18T06:27:30.999Z</time></trkpt><trkpt lat="44.5202663" lon="9.2309163"><ele>745.0</ele><time>2026-04-18T06:27:31.999Z</time></trkpt><trkpt lat="44.5203888" lon="9.2310861"><ele>743.0</ele><time>2026-04-18T06:27:32.999Z</time></trkpt><trkpt lat="44.5205105" lon="9.2312469"><ele>741.0</ele><time>2026-04-18T06:27:34.103Z</time></trkpt><trkpt lat="44.5206404" lon="9.2313927"><ele>725.5</ele><time>2026-04-18T06:27:35.105Z</time></trkpt><trkpt lat="44.5207808" lon="9.231524"><ele>710.0</ele><time>2026-04-18T06:27:36.104Z</time></trkpt><trkpt lat="44.5210793" lon="9.2317478"><ele>710.0</ele><time>2026-04-18T06:27:37.999Z</time></trkpt><trkpt lat="44.52122" lon="9.2318835"><ele>710.0</ele><time>2026-04-18T06:27:38.999Z</time></trkpt><trkpt lat="44.5213462" lon="9.2320307"><ele>710.0</ele><time>2026-04-18T06:27:39.999Z</time></trkpt><trkpt lat="44.5214643" lon="9.2321903"><ele>708.5</ele><time>2026-04-18T06:27:41.103Z</time></trkpt><trkpt lat="44.5216424" lon="9.2325484"><ele>707.0</ele><time>2026-04-18T06:27:42.999Z</time></trkpt><trkpt lat="44.5216953" lon="9.2327525"><ele>707.0</ele><time>2026-04-18T06:27:43.999Z</time></trkpt><trkpt lat="44.5217334" lon="9.2329638"><ele>707.0</ele><time>2026-04-18T06:27:45.103Z</time></trkpt><trkpt lat="44.5217897" lon="9.2333989"><ele>705.0</ele><time>2026-04-18T06:27:46.999Z</time></trkpt><trkpt lat="44.5218062" lon="9.23362"><ele>703.0</ele><time>2026-04-18T06:27:47.999Z</time></trkpt><trkpt lat="44.5218199" lon="9.2338295"><ele>701.0</ele><time>2026-04-18T06:27:48.999Z</time></trkpt><trkpt lat="44.5218503" lon="9.2340316"><ele>704.5</ele><time>2026-04-18T06:27:50.108Z</time></trkpt><trkpt lat="44.521983" lon="9.2343928"><ele>708.0</ele><time>2026-04-18T06:27:52.102Z</time></trkpt><trkpt lat="44.5222004" lon="9.2346878"><ele>701.6666666666666</ele><time>2026-04-18T06:27:53.999Z</time></trkpt><trkpt lat="44.5223208" lon="9.2348345"><ele>695.3333333333333</ele><time>2026-04-18T06:27:54.999Z</time></trkpt><trkpt lat="44.5224439" lon="9.2349799"><ele>689.0</ele><time>2026-04-18T06:27:56.115Z</time></trkpt><trkpt lat="44.522575" lon="9.2351206"><ele>689.0</ele><time>2026-04-18T06:27:57.109Z</time></trkpt><trkpt lat="44.5228514" lon="9.2353439"><ele>689.0</ele><time>2026-04-18T06:27:58.999Z</time></trkpt><trkpt lat="44.5230046" lon="9.2354435"><ele>686.3333333333333</ele><time>2026-04-18T06:27:59.999Z</time></trkpt><trkpt lat="44.5231697" lon="9.2355312"><ele>683.6666666666666</ele><time>2026-04-18T06:28:00.999Z</time></trkpt><trkpt lat="44.5233338" lon="9.2356072"><ele>681.0</ele><time>2026-04-18T06:28:01.999Z</time></trkpt><trkpt lat="44.5235093" lon="9.235668"><ele>681.0</ele><time>2026-04-18T06:28:02.999Z</time></trkpt><trkpt lat="44.5236899" lon="9.2357265"><ele>681.0</ele><time>2026-04-18T06:28:03.999Z</time></trkpt><trkpt lat="44.523876" lon="9.2357974"><ele>681.0</ele><time>2026-04-18T06:28:04.999Z</time></trkpt><trkpt lat="44.5240592" lon="9.2358677"><ele>684.3333333333334</ele><time>2026-04-18T06:28:05.999Z</time></trkpt><trkpt lat="44.5242447" lon="9.2359394"><ele>687.6666666666667</ele><time>2026-04-18T06:28:06.999Z</time></trkpt><trkpt lat="44.5244298" lon="9.2360138"><ele>691.0</ele><time>2026-04-18T06:28:07.999Z</time></trkpt><trkpt lat="44.5246049" lon="9.2360781"><ele>694.3333333333334</ele><time>2026-04-18T06:28:08.999Z</time></trkpt><trkpt lat="44.5247692" lon="9.2361482"><ele>697.6666666666666</ele><time>2026-04-18T06:28:09.999Z</time></trkpt><trkpt lat="44.5249214" lon="9.2362341"><ele>701.0</ele><time>2026-04-18T06:28:10.999Z</time></trkpt><trkpt lat="44.5250534" lon="9.2363464"><ele>693.0</ele><time>2026-04-18T06:28:11.999Z</time></trkpt><trkpt lat="44.525167" lon="9.2364914"><ele>685.0</ele><time>2026-04-18T06:28:12.999Z</time></trkpt><trkpt lat="44.5252397" lon="9.2366613"><ele>677.0</ele><time>2026-04-18T06:28:13.999Z</time></trkpt><trkpt lat="44.5253327" lon="9.2368477"><ele>675.0</ele><time>2026-04-18T06:28:14.999Z</time></trkpt><trkpt lat="44.5254424" lon="9.2370231"><ele>673.0</ele><time>2026-04-18T06:28:15.999Z</time></trkpt><trkpt lat="44.5255741" lon="9.2371787"><ele>671.0</ele><time>2026-04-18T06:28:16.999Z</time></trkpt><trkpt lat="44.5257187" lon="9.2373066"><ele>671.0</ele><time>2026-04-18T06:28:18Z</time></trkpt><trkpt lat="44.525855" lon="9.2374443"><ele>671.0</ele><time>2026-04-18T06:28:18.999Z</time></trkpt><trkpt lat="44.5259853" lon="9.2375817"><ele>671.0</ele><time>2026-04-18T06:28:19.999Z</time></trkpt><trkpt lat="44.5260944" lon="9.237743"><ele>671.0</ele><time>2026-04-18T06:28:20.999Z</time></trkpt><trkpt lat="44.526197" lon="9.2379005"><ele>671.0</ele><time>2026-04-18T06:28:21.999Z</time></trkpt><trkpt lat="44.5262881" lon="9.2380676"><ele>671.0</ele><time>2026-04-18T06:28:22.999Z</time></trkpt><trkpt lat="44.5263576" lon="9.238258"><ele>674.75</ele><time>2026-04-18T06:28:23.999Z</time></trkpt><trkpt lat="44.5263872" lon="9.2384367"><ele>678.5</ele><time>2026-04-18T06:28:24.999Z</time></trkpt><trkpt lat="44.5263969" lon="9.2386298"><ele>682.25</ele><time>2026-04-18T06:28:25.999Z</time></trkpt><trkpt lat="44.526392" lon="9.2388296"><ele>686.0</ele><time>2026-04-18T06:28:26.999Z</time></trkpt><trkpt lat="44.5263567" lon="9.239015"><ele>686.0</ele><time>2026-04-18T06:28:27.999Z</time></trkpt><trkpt lat="44.5262816" lon="9.2391541"><ele>686.0</ele><time>2026-04-18T06:28:28.999Z</time></trkpt><trkpt lat="44.5262149" lon="9.23935"><ele>686.0</ele><time>2026-04-18T06:28:30.101Z</time></trkpt><trkpt lat="44.5260829" lon="9.2397109"><ele>679.6666666666666</ele><time>2026-04-18T06:28:32.113Z</time></trkpt><trkpt lat="44.5260326" lon="9.2400488"><ele>673.3333333333334</ele><time>2026-04-18T06:28:34.11Z</time></trkpt><trkpt lat="44.5260452" lon="9.2402289"><ele>667.0</ele><time>2026-04-18T06:28:35.109Z</time></trkpt><trkpt lat="44.52612" lon="9.2406119"><ele>667.3333333333334</ele><time>2026-04-18T06:28:37.1Z</time></trkpt><trkpt lat="44.5262198" lon="9.2410043"><ele>667.6666666666666</ele><time>2026-04-18T06:28:38.999Z</time></trkpt><trkpt lat="44.5262605" lon="9.241194"><ele>668.0</ele><time>2026-04-18T06:28:39.999Z</time></trkpt><trkpt lat="44.5262909" lon="9.2413796"><ele>670.5</ele><time>2026-04-18T06:28:40.999Z</time></trkpt><trkpt lat="44.5263013" lon="9.2415725"><ele>673.0</ele><time>2026-04-18T06:28:41.999Z</time></trkpt><trkpt lat="44.5262918" lon="9.2417736"><ele>675.5</ele><time>2026-04-18T06:28:42.999Z</time></trkpt><trkpt lat="44.5262765" lon="9.2419902"><ele>678.0</ele><time>2026-04-18T06:28:43.999Z</time></trkpt><trkpt lat="44.5262569" lon="9.2421867"><ele>673.3333333333334</ele><time>2026-04-18T06:28:45.105Z</time></trkpt><trkpt lat="44.526203" lon="9.242601"><ele>668.6666666666667</ele><time>2026-04-18T06:28:46.999Z</time></trkpt><trkpt lat="44.5261786" lon="9.2427943"><ele>664.0</ele><time>2026-04-18T06:28:47.999Z</time></trkpt><trkpt lat="44.5261262" lon="9.2429488"><ele>664.0</ele><time>2026-04-18T06:28:48.999Z</time></trkpt><trkpt lat="44.5260695" lon="9.2431007"><ele>664.0</ele><time>2026-04-18T06:28:49.999Z</time></trkpt><trkpt lat="44.5259902" lon="9.2432525"><ele>664.0</ele><time>2026-04-18T06:28:50.999Z</time></trkpt><trkpt lat="44.5259118" lon="9.2434064"><ele>664.0</ele><time>2026-04-18T06:28:51.999Z</time></trkpt><trkpt lat="44.5258402" lon="9.2435623"><ele>665.25</ele><time>2026-04-18T06:28:52.999Z</time></trkpt><trkpt lat="44.5257896" lon="9.2437378"><ele>666.5</ele><time>2026-04-18T06:28:53.999Z</time></trkpt><trkpt lat="44.5257435" lon="9.243902"><ele>667.75</ele><time>2026-04-18T06:28:54.999Z</time></trkpt><trkpt lat="44.5256942" lon="9.2440787"><ele>669.0</ele><time>2026-04-18T06:28:55.999Z</time></trkpt><trkpt lat="44.5256427" lon="9.24425"><ele>670.75</ele><time>2026-04-18T06:28:56.999Z</time></trkpt><trkpt lat="44.5255985" lon="9.2444099"><ele>672.5</ele><time>2026-04-18T06:28:57.999Z</time></trkpt><trkpt lat="44.5255509" lon="9.2445703"><ele>674.25</ele><time>2026-04-18T06:28:58.999Z</time></trkpt><trkpt lat="44.525503" lon="9.2447272"><ele>676.0</ele><time>2026-04-18T06:28:59.999Z</time></trkpt><trkpt lat="44.5254599" lon="9.2448875"><ele>677.6666666666667</ele><time>2026-04-18T06:29:01.114Z</time></trkpt><trkpt lat="44.5254229" lon="9.2450401"><ele>679.3333333333334</ele><time>2026-04-18T06:29:02.12Z</time></trkpt><trkpt lat="44.5253541" lon="9.2453639"><ele>681.0</ele><time>2026-04-18T06:29:03.999Z</time></trkpt><trkpt lat="44.5253303" lon="9.2455324"><ele>675.5</ele><time>2026-04-18T06:29:04.999Z</time></trkpt><trkpt lat="44.5253128" lon="9.2457128"><ele>670.0</ele><time>2026-04-18T06:29:05.999Z</time></trkpt><trkpt lat="44.5252943" lon="9.2458867"><ele>664.5</ele><time>2026-04-18T06:29:06.999Z</time></trkpt><trkpt lat="44.5252696" lon="9.2460483"><ele>659.0</ele><time>2026-04-18T06:29:07.999Z</time></trkpt><trkpt lat="44.5252392" lon="9.2462022"><ele>659.0</ele><time>2026-04-18T06:29:08.999Z</time></trkpt><trkpt lat="44.5252104" lon="9.2463467"><ele>659.0</ele><time>2026-04-18T06:29:09.999Z</time></trkpt><trkpt lat="44.5251924" lon="9.2464819"><ele>659.0</ele><time>2026-04-18T06:29:10.999Z</time></trkpt><trkpt lat="44.5251928" lon="9.2466239"><ele>659.0</ele><time>2026-04-18T06:29:11.999Z</time></trkpt><trkpt lat="44.5252123" lon="9.246752"><ele>659.0</ele><time>2026-04-18T06:29:12.999Z</time></trkpt><trkpt lat="44.5252436" lon="9.2468721"><ele>659.4000000000001</ele><time>2026-04-18T06:29:13.999Z</time></trkpt><trkpt lat="44.5252894" lon="9.2469921"><ele>659.8</ele><time>2026-04-18T06:29:14.999Z</time></trkpt><trkpt lat="44.5253377" lon="9.2471076"><ele>660.2</ele><time>2026-04-18T06:29:15.999Z</time></trkpt><trkpt lat="44.5254012" lon="9.2472208"><ele>660.5999999999999</ele><time>2026-04-18T06:29:16.999Z</time></trkpt><trkpt lat="44.5254612" lon="9.2473225"><ele>661.0</ele><time>2026-04-18T06:29:17.999Z</time></trkpt><trkpt lat="44.5255243" lon="9.2474299"><ele>662.1999999999999</ele><time>2026-04-18T06:29:18.999Z</time></trkpt><trkpt lat="44.5255923" lon="9.2475478"><ele>663.4</ele><time>2026-04-18T06:29:19.999Z</time></trkpt><trkpt lat="44.525659" lon="9.2476563"><ele>664.6</ele><time>2026-04-18T06:29:20.999Z</time></trkpt><trkpt lat="44.5257185" lon="9.2477657"><ele>665.8</ele><time>2026-04-18T06:29:21.999Z</time></trkpt><trkpt lat="44.5257638" lon="9.2478716"><ele>667.0</ele><time>2026-04-18T06:29:22.999Z</time></trkpt><trkpt lat="44.5258141" lon="9.2479749"><ele>667.0</ele><time>2026-04-18T06:29:23.999Z</time></trkpt><trkpt lat="44.5258616" lon="9.2480726"><ele>667.0</ele><time>2026-04-18T06:29:24.999Z</time></trkpt><trkpt lat="44.5259061" lon="9.2481743"><ele>667.0</ele><time>2026-04-18T06:29:25.999Z</time></trkpt><trkpt lat="44.5259476" lon="9.2482663"><ele>667.0</ele><time>2026-04-18T06:29:27.105Z</time></trkpt><trkpt lat="44.5260122" lon="9.2484063"><ele>667.0</ele><time>2026-04-18T06:29:28.999Z</time></trkpt><trkpt lat="44.5260764" lon="9.2485456"><ele>667.3333333333334</ele><time>2026-04-18T06:29:30.999Z</time></trkpt><trkpt lat="44.5261126" lon="9.2486257"><ele>667.6666666666667</ele><time>2026-04-18T06:29:31.999Z</time></trkpt><trkpt lat="44.5261632" lon="9.2487085"><ele>668.0</ele><time>2026-04-18T06:29:32.999Z</time></trkpt><trkpt lat="44.5262186" lon="9.2488181"><ele>668.3333333333334</ele><time>2026-04-18T06:29:33.999Z</time></trkpt><trkpt lat="44.5262666" lon="9.2489366"><ele>668.6666666666666</ele><time>2026-04-18T06:29:34.999Z</time></trkpt><trkpt lat="44.5263235" lon="9.2490608"><ele>669.0</ele><time>2026-04-18T06:29:36.102Z</time></trkpt><trkpt lat="44.5264739" lon="9.2493165"><ele>668.0</ele><time>2026-04-18T06:29:37.999Z</time></trkpt><trkpt lat="44.5265598" lon="9.2494423"><ele>667.0</ele><time>2026-04-18T06:29:38.999Z</time></trkpt><trkpt lat="44.5266494" lon="9.2495717"><ele>666.0</ele><time>2026-04-18T06:29:39.999Z</time></trkpt><trkpt lat="44.5267378" lon="9.2497032"><ele>665.0</ele><time>2026-04-18T06:29:40.999Z</time></trkpt><trkpt lat="44.5268252" lon="9.249836"><ele>665.3333333333333</ele><time>2026-04-18T06:29:42.103Z</time></trkpt><trkpt lat="44.5269983" lon="9.2500769"><ele>665.6666666666666</ele><time>2026-04-18T06:29:43.999Z</time></trkpt><trkpt lat="44.5270829" lon="9.2502105"><ele>666.0</ele><time>2026-04-18T06:29:44.999Z</time></trkpt><trkpt lat="44.5271544" lon="9.2503308"><ele>666.0</ele><time>2026-04-18T06:29:45.999Z</time></trkpt><trkpt lat="44.5272387" lon="9.2504517"><ele>666.0</ele><time>2026-04-18T06:29:46.999Z</time></trkpt><trkpt lat="44.5273218" lon="9.2505689"><ele>666.0</ele><time>2026-04-18T06:29:47.999Z</time></trkpt><trkpt lat="44.5274075" lon="9.2506796"><ele>666.0</ele><time>2026-04-18T06:29:48.999Z</time></trkpt><trkpt lat="44.5274999" lon="9.2507953"><ele>662.6666666666666</ele><time>2026-04-18T06:29:49.999Z</time></trkpt><trkpt lat="44.5275963" lon="9.2508852"><ele>659.3333333333333</ele><time>2026-04-18T06:29:50.999Z</time></trkpt><trkpt lat="44.5276985" lon="9.2509731"><ele>656.0</ele><time>2026-04-18T06:29:52.112Z</time></trkpt><trkpt lat="44.5279018" lon="9.2511745"><ele>662.0</ele><time>2026-04-18T06:29:53.999Z</time></trkpt><trkpt lat="44.5279983" lon="9.2512984"><ele>668.0</ele><time>2026-04-18T06:29:55.114Z</time></trkpt><trkpt lat="44.5281564" lon="9.2516071"><ele>674.0</ele><time>2026-04-18T06:29:56.999Z</time></trkpt><trkpt lat="44.5282201" lon="9.2517813"><ele>674.0</ele><time>2026-04-18T06:29:57.999Z</time></trkpt><trkpt lat="44.5282713" lon="9.2519626"><ele>674.0</ele><time>2026-04-18T06:29:58.999Z</time></trkpt><trkpt lat="44.528299" lon="9.252159"><ele>674.0</ele><time>2026-04-18T06:30:00.112Z</time></trkpt><trkpt lat="44.5283081" lon="9.2523534"><ele>674.0</ele><time>2026-04-18T06:30:01.112Z</time></trkpt><trkpt lat="44.5283096" lon="9.252543"><ele>673.3333333333333</ele><time>2026-04-18T06:30:02.126Z</time></trkpt><trkpt lat="44.5282662" lon="9.2529118"><ele>672.6666666666666</ele><time>2026-04-18T06:30:03.999Z</time></trkpt><trkpt lat="44.5282087" lon="9.2530799"><ele>672.0</ele><time>2026-04-18T06:30:04.999Z</time></trkpt><trkpt lat="44.5281201" lon="9.2532473"><ele>674.0</ele><time>2026-04-18T06:30:06.112Z</time></trkpt><trkpt lat="44.5279292" lon="9.2535952"><ele>676.0</ele><time>2026-04-18T06:30:07.999Z</time></trkpt><trkpt lat="44.5278255" lon="9.2537675"><ele>669.6666666666667</ele><time>2026-04-18T06:30:08.999Z</time></trkpt><trkpt lat="44.5277275" lon="9.2539491"><ele>663.3333333333334</ele><time>2026-04-18T06:30:09.999Z</time></trkpt><trkpt lat="44.527629" lon="9.2541334"><ele>657.0</ele><time>2026-04-18T06:30:10.999Z</time></trkpt><trkpt lat="44.5275253" lon="9.2543194"><ele>657.0</ele><time>2026-04-18T06:30:11.999Z</time></trkpt><trkpt lat="44.5274151" lon="9.2544991"><ele>657.0</ele><time>2026-04-18T06:30:12.999Z</time></trkpt><trkpt lat="44.5273078" lon="9.2546875"><ele>657.0</ele><time>2026-04-18T06:30:13.999Z</time></trkpt><trkpt lat="44.5272012" lon="9.2548824"><ele>656.0</ele><time>2026-04-18T06:30:14.999Z</time></trkpt><trkpt lat="44.5270947" lon="9.2550725"><ele>655.0</ele><time>2026-04-18T06:30:15.999Z</time></trkpt><trkpt lat="44.5269981" lon="9.2552606"><ele>654.0</ele><time>2026-04-18T06:30:16.999Z</time></trkpt><trkpt lat="44.526921" lon="9.2554302"><ele>654.0</ele><time>2026-04-18T06:30:17.999Z</time></trkpt><trkpt lat="44.5268468" lon="9.2555845"><ele>654.0</ele><time>2026-04-18T06:30:19Z</time></trkpt><trkpt lat="44.5267698" lon="9.2557516"><ele>654.0</ele><time>2026-04-18T06:30:19.999Z</time></trkpt><trkpt lat="44.5266835" lon="9.2559257"><ele>654.0</ele><time>2026-04-18T06:30:20.999Z</time></trkpt><trkpt lat="44.5266073" lon="9.2560967"><ele>656.0</ele><time>2026-04-18T06:30:21.999Z</time></trkpt><trkpt lat="44.5265375" lon="9.2562827"><ele>658.0</ele><time>2026-04-18T06:30:22.999Z</time></trkpt><trkpt lat="44.5264705" lon="9.2564834"><ele>660.0</ele><time>2026-04-18T06:30:23.999Z</time></trkpt><trkpt lat="44.5264229" lon="9.2566983"><ele>662.3333333333334</ele><time>2026-04-18T06:30:24.999Z</time></trkpt><trkpt lat="44.5263913" lon="9.2569171"><ele>664.6666666666667</ele><time>2026-04-18T06:30:25.999Z</time></trkpt><trkpt lat="44.5263832" lon="9.2571291"><ele>667.0</ele><time>2026-04-18T06:30:26.999Z</time></trkpt><trkpt lat="44.5263943" lon="9.2573557"><ele>668.0</ele><time>2026-04-18T06:30:27.999Z</time></trkpt><trkpt lat="44.5264278" lon="9.2575722"><ele>669.0</ele><time>2026-04-18T06:30:28.999Z</time></trkpt><trkpt lat="44.5264809" lon="9.2577817"><ele>670.0</ele><time>2026-04-18T06:30:29.999Z</time></trkpt><trkpt lat="44.5265555" lon="9.2579886"><ele>666.0</ele><time>2026-04-18T06:30:30.999Z</time></trkpt><trkpt lat="44.5266455" lon="9.2581806"><ele>662.0</ele><time>2026-04-18T06:30:31.999Z</time></trkpt><trkpt lat="44.5267536" lon="9.2583596"><ele>658.0</ele><time>2026-04-18T06:30:32.999Z</time></trkpt><trkpt lat="44.5268723" lon="9.2585146"><ele>658.0</ele><time>2026-04-18T06:30:33.999Z</time></trkpt><trkpt lat="44.5270066" lon="9.2586564"><ele>658.0</ele><time>2026-04-18T06:30:34.999Z</time></trkpt><trkpt lat="44.5271558" lon="9.2587694"><ele>658.0</ele><time>2026-04-18T06:30:35.999Z</time></trkpt><trkpt lat="44.5273093" lon="9.2588745"><ele>658.0</ele><time>2026-04-18T06:30:36.999Z</time></trkpt><trkpt lat="44.5274693" lon="9.2589944"><ele>658.0</ele><time>2026-04-18T06:30:37.999Z</time></trkpt><trkpt lat="44.5276272" lon="9.2591077"><ele>658.0</ele><time>2026-04-18T06:30:38.999Z</time></trkpt><trkpt lat="44.527774" lon="9.2592413"><ele>666.3333333333334</ele><time>2026-04-18T06:30:39.999Z</time></trkpt><trkpt lat="44.5279131" lon="9.2593892"><ele>674.6666666666666</ele><time>2026-04-18T06:30:40.999Z</time></trkpt><trkpt lat="44.5280414" lon="9.2595399"><ele>683.0</ele><time>2026-04-18T06:30:41.999Z</time></trkpt><trkpt lat="44.5281534" lon="9.2596814"><ele>672.6666666666666</ele><time>2026-04-18T06:30:42.999Z</time></trkpt><trkpt lat="44.5282782" lon="9.2598299"><ele>662.3333333333334</ele><time>2026-04-18T06:30:43.999Z</time></trkpt><trkpt lat="44.5284128" lon="9.2599557"><ele>652.0</ele><time>2026-04-18T06:30:44.999Z</time></trkpt><trkpt lat="44.5285557" lon="9.260052"><ele>652.0</ele><time>2026-04-18T06:30:45.999Z</time></trkpt><trkpt lat="44.5286986" lon="9.2601178"><ele>652.0</ele><time>2026-04-18T06:30:46.999Z</time></trkpt><trkpt lat="44.5288422" lon="9.2601273"><ele>652.0</ele><time>2026-04-18T06:30:47.999Z</time></trkpt><trkpt lat="44.5290002" lon="9.2601697"><ele>656.0</ele><time>2026-04-18T06:30:48.999Z</time></trkpt><trkpt lat="44.5291473" lon="9.2602236"><ele>660.0</ele><time>2026-04-18T06:30:49.999Z</time></trkpt><trkpt lat="44.5292924" lon="9.2603006"><ele>664.0</ele><time>2026-04-18T06:30:50.999Z</time></trkpt><trkpt lat="44.529432" lon="9.2603827"><ele>660.0</ele><time>2026-04-18T06:30:51.999Z</time></trkpt><trkpt lat="44.5295704" lon="9.260429"><ele>656.0</ele><time>2026-04-18T06:30:52.999Z</time></trkpt><trkpt lat="44.5297183" lon="9.2604636"><ele>652.0</ele><time>2026-04-18T06:30:53.999Z</time></trkpt><trkpt lat="44.5298709" lon="9.2604713"><ele>648.0</ele><time>2026-04-18T06:30:54.999Z</time></trkpt><trkpt lat="44.5300157" lon="9.260435"><ele>648.0</ele><time>2026-04-18T06:30:55.999Z</time></trkpt><trkpt lat="44.5301445" lon="9.2603578"><ele>648.0</ele><time>2026-04-18T06:30:56.999Z</time></trkpt><trkpt lat="44.5302519" lon="9.2602533"><ele>648.0</ele><time>2026-04-18T06:30:57.999Z</time></trkpt><trkpt lat="44.5303506" lon="9.2601123"><ele>648.0</ele><time>2026-04-18T06:30:58.999Z</time></trkpt><trkpt lat="44.530429" lon="9.2599526"><ele>647.75</ele><time>2026-04-18T06:30:59.999Z</time></trkpt><trkpt lat="44.5304579" lon="9.2597606"><ele>647.5</ele><time>2026-04-18T06:31:00.999Z</time></trkpt><trkpt lat="44.5304775" lon="9.2595513"><ele>647.25</ele><time>2026-04-18T06:31:01.999Z</time></trkpt><trkpt lat="44.5304834" lon="9.2593392"><ele>647.0</ele><time>2026-04-18T06:31:02.999Z</time></trkpt><trkpt lat="44.5304753" lon="9.2591215"><ele>646.6666666666666</ele><time>2026-04-18T06:31:03.999Z</time></trkpt><trkpt lat="44.530468" lon="9.2588952"><ele>646.3333333333334</ele><time>2026-04-18T06:31:04.999Z</time></trkpt><trkpt lat="44.5304538" lon="9.2586676"><ele>646.0</ele><time>2026-04-18T06:31:05.999Z</time></trkpt><trkpt lat="44.5304441" lon="9.2584499"><ele>646.0</ele><time>2026-04-18T06:31:06.999Z</time></trkpt><trkpt lat="44.5304359" lon="9.2582296"><ele>646.0</ele><time>2026-04-18T06:31:07.999Z</time></trkpt><trkpt lat="44.5304334" lon="9.2580081"><ele>646.0</ele><time>2026-04-18T06:31:08.999Z</time></trkpt><trkpt lat="44.5304294" lon="9.2577859"><ele>645.75</ele><time>2026-04-18T06:31:09.999Z</time></trkpt><trkpt lat="44.5304355" lon="9.2575742"><ele>645.5</ele><time>2026-04-18T06:31:10.999Z</time></trkpt><trkpt lat="44.5304373" lon="9.2573549"><ele>645.25</ele><time>2026-04-18T06:31:11.999Z</time></trkpt><trkpt lat="44.5304471" lon="9.2571703"><ele>645.0</ele><time>2026-04-18T06:31:12.999Z</time></trkpt><trkpt lat="44.5304604" lon="9.2570131"><ele>644.75</ele><time>2026-04-18T06:31:13.999Z</time></trkpt><trkpt lat="44.5304714" lon="9.2568162"><ele>644.5</ele><time>2026-04-18T06:31:14.999Z</time></trkpt><trkpt lat="44.5305085" lon="9.2566315"><ele>644.25</ele><time>2026-04-18T06:31:15.999Z</time></trkpt><trkpt lat="44.5305537" lon="9.2564544"><ele>644.0</ele><time>2026-04-18T06:31:16.999Z</time></trkpt><trkpt lat="44.5306148" lon="9.2562606"><ele>645.6666666666666</ele><time>2026-04-18T06:31:17.999Z</time></trkpt><trkpt lat="44.5306746" lon="9.2560582"><ele>647.3333333333334</ele><time>2026-04-18T06:31:18.999Z</time></trkpt><trkpt lat="44.5307467" lon="9.255873"><ele>649.0</ele><time>2026-04-18T06:31:19.999Z</time></trkpt><trkpt lat="44.5308333" lon="9.2556945"><ele>655.0</ele><time>2026-04-18T06:31:20.999Z</time></trkpt><trkpt lat="44.5309195" lon="9.2554979"><ele>661.0</ele><time>2026-04-18T06:31:21.999Z</time></trkpt><trkpt lat="44.5310163" lon="9.2553175"><ele>667.0</ele><time>2026-04-18T06:31:22.999Z</time></trkpt><trkpt lat="44.5311226" lon="9.2551458"><ele>665.6666666666667</ele><time>2026-04-18T06:31:23.999Z</time></trkpt><trkpt lat="44.5312324" lon="9.2549744"><ele>664.3333333333334</ele><time>2026-04-18T06:31:24.999Z</time></trkpt><trkpt lat="44.5313459" lon="9.2548172"><ele>663.0</ele><time>2026-04-18T06:31:25.999Z</time></trkpt><trkpt lat="44.5314608" lon="9.2546547"><ele>663.0</ele><time>2026-04-18T06:31:26.999Z</time></trkpt><trkpt lat="44.531585" lon="9.254508"><ele>663.0</ele><time>2026-04-18T06:31:27.999Z</time></trkpt><trkpt lat="44.5317286" lon="9.2544046"><ele>663.0</ele><time>2026-04-18T06:31:28.999Z</time></trkpt><trkpt lat="44.5318678" lon="9.2543022"><ele>663.0</ele><time>2026-04-18T06:31:29.999Z</time></trkpt><trkpt lat="44.5320117" lon="9.2542312"><ele>663.0</ele><time>2026-04-18T06:31:30.999Z</time></trkpt><trkpt lat="44.5321562" lon="9.2541846"><ele>663.0</ele><time>2026-04-18T06:31:31.999Z</time></trkpt><trkpt lat="44.532314" lon="9.2541752"><ele>658.3333333333334</ele><time>2026-04-18T06:31:32.999Z</time></trkpt><trkpt lat="44.5324638" lon="9.2541833"><ele>653.6666666666667</ele><time>2026-04-18T06:31:33.999Z</time></trkpt><trkpt lat="44.5326143" lon="9.2541976"><ele>649.0</ele><time>2026-04-18T06:31:34.999Z</time></trkpt><trkpt lat="44.5327582" lon="9.2542514"><ele>649.0</ele><time>2026-04-18T06:31:35.999Z</time></trkpt><trkpt lat="44.5328891" lon="9.2543406"><ele>649.0</ele><time>2026-04-18T06:31:36.999Z</time></trkpt><trkpt lat="44.5330162" lon="9.2544557"><ele>649.0</ele><time>2026-04-18T06:31:37.999Z</time></trkpt><trkpt lat="44.5331436" lon="9.2545703"><ele>649.0</ele><time>2026-04-18T06:31:38.999Z</time></trkpt><trkpt lat="44.5332696" lon="9.2546885"><ele>647.3333333333334</ele><time>2026-04-18T06:31:39.999Z</time></trkpt><trkpt lat="44.5333984" lon="9.2548157"><ele>645.6666666666666</ele><time>2026-04-18T06:31:40.999Z</time></trkpt><trkpt lat="44.5335318" lon="9.2549509"><ele>644.0</ele><time>2026-04-18T06:31:41.999Z</time></trkpt><trkpt lat="44.533653" lon="9.255099"><ele>652.3333333333333</ele><time>2026-04-18T06:31:42.999Z</time></trkpt><trkpt lat="44.5337598" lon="9.2552675"><ele>660.6666666666666</ele><time>2026-04-18T06:31:43.999Z</time></trkpt><trkpt lat="44.5338556" lon="9.2554344"><ele>669.0</ele><time>2026-04-18T06:31:44.999Z</time></trkpt><trkpt lat="44.5339425" lon="9.255588"><ele>666.5</ele><time>2026-04-18T06:31:45.999Z</time></trkpt><trkpt lat="44.5340026" lon="9.2557482"><ele>664.0</ele><time>2026-04-18T06:31:46.999Z</time></trkpt><trkpt lat="44.534033" lon="9.2559255"><ele>661.5</ele><time>2026-04-18T06:31:47.999Z</time></trkpt><trkpt lat="44.5340186" lon="9.2561055"><ele>659.0</ele><time>2026-04-18T06:31:48.999Z</time></trkpt><trkpt lat="44.533998" lon="9.2562967"><ele>659.0</ele><time>2026-04-18T06:31:49.999Z</time></trkpt><trkpt lat="44.5339771" lon="9.2565017"><ele>659.0</ele><time>2026-04-18T06:31:50.999Z</time></trkpt><trkpt lat="44.533958" lon="9.2567126"><ele>659.0</ele><time>2026-04-18T06:31:51.999Z</time></trkpt><trkpt lat="44.5339375" lon="9.2569364"><ele>659.0</ele><time>2026-04-18T06:31:52.999Z</time></trkpt><trkpt lat="44.533907" lon="9.2571531"><ele>659.0</ele><time>2026-04-18T06:31:53.999Z</time></trkpt><trkpt lat="44.5338801" lon="9.2573661"><ele>659.0</ele><time>2026-04-18T06:31:54.999Z</time></trkpt><trkpt lat="44.5338526" lon="9.2575883"><ele>659.0</ele><time>2026-04-18T06:31:55.999Z</time></trkpt><trkpt lat="44.5338333" lon="9.2578168"><ele>659.0</ele><time>2026-04-18T06:31:56.999Z</time></trkpt><trkpt lat="44.5338206" lon="9.2580498"><ele>659.0</ele><time>2026-04-18T06:31:57.999Z</time></trkpt><trkpt lat="44.5338242" lon="9.2582889"><ele>659.0</ele><time>2026-04-18T06:31:58.999Z</time></trkpt><trkpt lat="44.5338345" lon="9.25853"><ele>659.0</ele><time>2026-04-18T06:31:59.999Z</time></trkpt><trkpt lat="44.5338466" lon="9.2587669"><ele>659.0</ele><time>2026-04-18T06:32:00.999Z</time></trkpt><trkpt lat="44.5338547" lon="9.2590056"><ele>659.0</ele><time>2026-04-18T06:32:01.999Z</time></trkpt><trkpt lat="44.5338528" lon="9.2592458"><ele>659.0</ele><time>2026-04-18T06:32:02.999Z</time></trkpt><trkpt lat="44.5338336" lon="9.2594837"><ele>659.0</ele><time>2026-04-18T06:32:03.999Z</time></trkpt><trkpt lat="44.5338178" lon="9.2597213"><ele>658.6666666666666</ele><time>2026-04-18T06:32:04.999Z</time></trkpt><trkpt lat="44.5338145" lon="9.2599503"><ele>658.3333333333334</ele><time>2026-04-18T06:32:05.999Z</time></trkpt><trkpt lat="44.5338184" lon="9.2601736"><ele>658.0</ele><time>2026-04-18T06:32:06.999Z</time></trkpt><trkpt lat="44.5338223" lon="9.2603804"><ele>658.0</ele><time>2026-04-18T06:32:07.999Z</time></trkpt><trkpt lat="44.5338264" lon="9.2605801"><ele>658.0</ele><time>2026-04-18T06:32:08.999Z</time></trkpt><trkpt lat="44.5338264" lon="9.2607814"><ele>658.0</ele><time>2026-04-18T06:32:10Z</time></trkpt><trkpt lat="44.5338121" lon="9.2609778"><ele>658.0</ele><time>2026-04-18T06:32:10.999Z</time></trkpt><trkpt lat="44.5337994" lon="9.2611646"><ele>656.25</ele><time>2026-04-18T06:32:11.999Z</time></trkpt><trkpt lat="44.5337953" lon="9.26135"><ele>654.5</ele><time>2026-04-18T06:32:12.999Z</time></trkpt><trkpt lat="44.5338131" lon="9.2615226"><ele>652.75</ele><time>2026-04-18T06:32:13.999Z</time></trkpt><trkpt lat="44.5338469" lon="9.2616831"><ele>651.0</ele><time>2026-04-18T06:32:14.999Z</time></trkpt><trkpt lat="44.5339023" lon="9.2618302"><ele>648.4</ele><time>2026-04-18T06:32:15.999Z</time></trkpt><trkpt lat="44.5339732" lon="9.2619439"><ele>645.8</ele><time>2026-04-18T06:32:16.999Z</time></trkpt><trkpt lat="44.5340587" lon="9.2620007"><ele>643.1999999999999</ele><time>2026-04-18T06:32:17.999Z</time></trkpt><trkpt lat="44.5341761" lon="9.2620456"><ele>640.5999999999999</ele><time>2026-04-18T06:32:18.999Z</time></trkpt><trkpt lat="44.5342879" lon="9.2620391"><ele>638.0</ele><time>2026-04-18T06:32:19.999Z</time></trkpt><trkpt lat="44.534454" lon="9.2619612"><ele>638.0</ele><time>2026-04-18T06:32:20.999Z</time></trkpt><trkpt lat="44.5346" lon="9.2618816"><ele>638.0</ele><time>2026-04-18T06:32:22Z</time></trkpt><trkpt lat="44.5347477" lon="9.2617816"><ele>638.0</ele><time>2026-04-18T06:32:23Z</time></trkpt><trkpt lat="44.5348997" lon="9.2616684"><ele>638.0</ele><time>2026-04-18T06:32:23.999Z</time></trkpt><trkpt lat="44.535048" lon="9.2615497"><ele>638.0</ele><time>2026-04-18T06:32:24.999Z</time></trkpt><trkpt lat="44.5351941" lon="9.2614233"><ele>638.0</ele><time>2026-04-18T06:32:25.999Z</time></trkpt><trkpt lat="44.5353378" lon="9.26131"><ele>645.0</ele><time>2026-04-18T06:32:26.999Z</time></trkpt><trkpt lat="44.5354752" lon="9.261221"><ele>652.0</ele><time>2026-04-18T06:32:27.999Z</time></trkpt><trkpt lat="44.5356213" lon="9.2611686"><ele>659.0</ele><time>2026-04-18T06:32:28.999Z</time></trkpt><trkpt lat="44.5357866" lon="9.2611694"><ele>659.0</ele><time>2026-04-18T06:32:29.999Z</time></trkpt><trkpt lat="44.5359639" lon="9.2611864"><ele>659.0</ele><time>2026-04-18T06:32:30.999Z</time></trkpt><trkpt lat="44.5361384" lon="9.2611779"><ele>659.0</ele><time>2026-04-18T06:32:31.999Z</time></trkpt><trkpt lat="44.5363396" lon="9.2611498"><ele>652.3333333333333</ele><time>2026-04-18T06:32:32.999Z</time></trkpt><trkpt lat="44.5364917" lon="9.2611281"><ele>645.6666666666666</ele><time>2026-04-18T06:32:33.999Z</time></trkpt><trkpt lat="44.536675" lon="9.2610946"><ele>639.0</ele><time>2026-04-18T06:32:34.999Z</time></trkpt><trkpt lat="44.5368619" lon="9.2610666"><ele>639.0</ele><time>2026-04-18T06:32:35.999Z</time></trkpt><trkpt lat="44.5370462" lon="9.2610425"><ele>639.0</ele><time>2026-04-18T06:32:36.999Z</time></trkpt><trkpt lat="44.5372351" lon="9.2610293"><ele>639.0</ele><time>2026-04-18T06:32:38Z</time></trkpt><trkpt lat="44.5374193" lon="9.2610268"><ele>639.0</ele><time>2026-04-18T06:32:38.999Z</time></trkpt><trkpt lat="44.5376048" lon="9.2610264"><ele>639.0</ele><time>2026-04-18T06:32:39.999Z</time></trkpt><trkpt lat="44.5377955" lon="9.2610223"><ele>639.0</ele><time>2026-04-18T06:32:41Z</time></trkpt><trkpt lat="44.5379833" lon="9.2610199"><ele>639.0</ele><time>2026-04-18T06:32:41.999Z</time></trkpt><trkpt lat="44.5381749" lon="9.2610125"><ele>639.0</ele><time>2026-04-18T06:32:42.999Z</time></trkpt><trkpt lat="44.538364" lon="9.2610123"><ele>639.0</ele><time>2026-04-18T06:32:43.999Z</time></trkpt><trkpt lat="44.5385517" lon="9.2610037"><ele>642.0</ele><time>2026-04-18T06:32:44.999Z</time></trkpt><trkpt lat="44.5387391" lon="9.2610015"><ele>645.0</ele><time>2026-04-18T06:32:45.999Z</time></trkpt><trkpt lat="44.5389265" lon="9.2609928"><ele>648.0</ele><time>2026-04-18T06:32:46.999Z</time></trkpt><trkpt lat="44.5391128" lon="9.2609904"><ele>648.0</ele><time>2026-04-18T06:32:48Z</time></trkpt><trkpt lat="44.5392993" lon="9.2609857"><ele>648.0</ele><time>2026-04-18T06:32:48.999Z</time></trkpt><trkpt lat="44.5394838" lon="9.2609796"><ele>648.0</ele><time>2026-04-18T06:32:49.999Z</time></trkpt><trkpt lat="44.5396647" lon="9.2609737"><ele>646.0</ele><time>2026-04-18T06:32:50.999Z</time></trkpt><trkpt lat="44.5398474" lon="9.2609671"><ele>644.0</ele><time>2026-04-18T06:32:51.999Z</time></trkpt><trkpt lat="44.5400222" lon="9.2609577"><ele>642.0</ele><time>2026-04-18T06:32:52.999Z</time></trkpt><trkpt lat="44.5402177" lon="9.2609425"><ele>642.0</ele><time>2026-04-18T06:32:53.999Z</time></trkpt><trkpt lat="44.540377" lon="9.2609257"><ele>642.0</ele><time>2026-04-18T06:32:54.999Z</time></trkpt><trkpt lat="44.5405335" lon="9.2609175"><ele>642.0</ele><time>2026-04-18T06:32:55.999Z</time></trkpt><trkpt lat="44.540674" lon="9.2609055"><ele>639.5</ele><time>2026-04-18T06:32:56.999Z</time></trkpt><trkpt lat="44.5408062" lon="9.2608965"><ele>637.0</ele><time>2026-04-18T06:32:57.999Z</time></trkpt><trkpt lat="44.5409241" lon="9.2608745"><ele>634.5</ele><time>2026-04-18T06:32:58.999Z</time></trkpt><trkpt lat="44.5410485" lon="9.26084"><ele>632.0</ele><time>2026-04-18T06:32:59.999Z</time></trkpt><trkpt lat="44.541171" lon="9.2607913"><ele>630.75</ele><time>2026-04-18T06:33:00.999Z</time></trkpt><trkpt lat="44.54129" lon="9.2607135"><ele>629.5</ele><time>2026-04-18T06:33:01.999Z</time></trkpt><trkpt lat="44.5414183" lon="9.2606158"><ele>628.25</ele><time>2026-04-18T06:33:02.999Z</time></trkpt><trkpt lat="44.5415278" lon="9.260505"><ele>627.0</ele><time>2026-04-18T06:33:03.999Z</time></trkpt><trkpt lat="44.541635" lon="9.2603726"><ele>627.0</ele><time>2026-04-18T06:33:04.999Z</time></trkpt><trkpt lat="44.541728" lon="9.2602341"><ele>627.0</ele><time>2026-04-18T06:33:05.999Z</time></trkpt><trkpt lat="44.5418201" lon="9.2600923"><ele>627.0</ele><time>2026-04-18T06:33:06.999Z</time></trkpt><trkpt lat="44.5419112" lon="9.2599665"><ele>627.0</ele><time>2026-04-18T06:33:07.999Z</time></trkpt><trkpt lat="44.5420053" lon="9.2598584"><ele>626.25</ele><time>2026-04-18T06:33:08.999Z</time></trkpt><trkpt lat="44.542115" lon="9.2597946"><ele>625.5</ele><time>2026-04-18T06:33:10Z</time></trkpt><trkpt lat="44.5422244" lon="9.2597405"><ele>624.75</ele><time>2026-04-18T06:33:10.999Z</time></trkpt><trkpt lat="44.5423432" lon="9.2597526"><ele>624.0</ele><time>2026-04-18T06:33:11.999Z</time></trkpt><trkpt lat="44.5424711" lon="9.2597835"><ele>623.5</ele><time>2026-04-18T06:33:12.999Z</time></trkpt><trkpt lat="44.5426122" lon="9.2598251"><ele>623.0</ele><time>2026-04-18T06:33:13.999Z</time></trkpt><trkpt lat="44.5427588" lon="9.259878"><ele>622.5</ele><time>2026-04-18T06:33:14.999Z</time></trkpt><trkpt lat="44.5429034" lon="9.2599421"><ele>622.0</ele><time>2026-04-18T06:33:15.999Z</time></trkpt><trkpt lat="44.543042" lon="9.2599928"><ele>622.0</ele><time>2026-04-18T06:33:16.999Z</time></trkpt><trkpt lat="44.5431823" lon="9.2600412"><ele>622.0</ele><time>2026-04-18T06:33:17.999Z</time></trkpt><trkpt lat="44.5433158" lon="9.2600895"><ele>622.0</ele><time>2026-04-18T06:33:18.999Z</time></trkpt><trkpt lat="44.5434557" lon="9.2601411"><ele>622.0</ele><time>2026-04-18T06:33:19.999Z</time></trkpt><trkpt lat="44.5435909" lon="9.260192"><ele>624.5</ele><time>2026-04-18T06:33:20.999Z</time></trkpt><trkpt lat="44.543717" lon="9.2602428"><ele>627.0</ele><time>2026-04-18T06:33:21.999Z</time></trkpt><trkpt lat="44.5438481" lon="9.2603005"><ele>629.5</ele><time>2026-04-18T06:33:22.999Z</time></trkpt><trkpt lat="44.5439713" lon="9.2603468"><ele>632.0</ele><time>2026-04-18T06:33:23.999Z</time></trkpt><trkpt lat="44.5440693" lon="9.2603983"><ele>632.0</ele><time>2026-04-18T06:33:24.999Z</time></trkpt><trkpt lat="44.544154" lon="9.260462"><ele>632.0</ele><time>2026-04-18T06:33:25.999Z</time></trkpt><trkpt lat="44.5442243" lon="9.2605495"><ele>632.0</ele><time>2026-04-18T06:33:26.999Z</time></trkpt><trkpt lat="44.5442669" lon="9.2606822"><ele>632.0</ele><time>2026-04-18T06:33:27.999Z</time></trkpt><trkpt lat="44.5443078" lon="9.2608399"><ele>632.0</ele><time>2026-04-18T06:33:28.999Z</time></trkpt><trkpt lat="44.5443266" lon="9.261008"><ele>630.0</ele><time>2026-04-18T06:33:29.999Z</time></trkpt><trkpt lat="44.5443583" lon="9.2611848"><ele>628.0</ele><time>2026-04-18T06:33:30.999Z</time></trkpt><trkpt lat="44.5443942" lon="9.2613652"><ele>626.0</ele><time>2026-04-18T06:33:31.999Z</time></trkpt><trkpt lat="44.5444317" lon="9.2615495"><ele>624.0</ele><time>2026-04-18T06:33:32.999Z</time></trkpt><trkpt lat="44.5444758" lon="9.2617365"><ele>622.3333333333334</ele><time>2026-04-18T06:33:34Z</time></trkpt><trkpt lat="44.5445209" lon="9.2619294"><ele>620.6666666666667</ele><time>2026-04-18T06:33:34.999Z</time></trkpt><trkpt lat="44.5445728" lon="9.2621237"><ele>619.0</ele><time>2026-04-18T06:33:35.999Z</time></trkpt><trkpt lat="44.5446397" lon="9.262324"><ele>629.0</ele><time>2026-04-18T06:33:36.999Z</time></trkpt><trkpt lat="44.5447046" lon="9.2625221"><ele>639.0</ele><time>2026-04-18T06:33:37.999Z</time></trkpt><trkpt lat="44.5447716" lon="9.2627303"><ele>649.0</ele><time>2026-04-18T06:33:38.999Z</time></trkpt><trkpt lat="44.5448396" lon="9.2629383"><ele>644.0</ele><time>2026-04-18T06:33:39.999Z</time></trkpt><trkpt lat="44.5449085" lon="9.2631531"><ele>639.0</ele><time>2026-04-18T06:33:40.999Z</time></trkpt><trkpt lat="44.5449808" lon="9.2633651"><ele>634.0</ele><time>2026-04-18T06:33:41.999Z</time></trkpt><trkpt lat="44.54505" lon="9.2635706"><ele>634.0</ele><time>2026-04-18T06:33:42.999Z</time></trkpt><trkpt lat="44.5451168" lon="9.263776"><ele>634.0</ele><time>2026-04-18T06:33:43.999Z</time></trkpt><trkpt lat="44.5451858" lon="9.263986"><ele>634.0</ele><time>2026-04-18T06:33:44.999Z</time></trkpt><trkpt lat="44.5452581" lon="9.2641972"><ele>634.0</ele><time>2026-04-18T06:33:45.999Z</time></trkpt><trkpt lat="44.5453252" lon="9.2644136"><ele>634.0</ele><time>2026-04-18T06:33:46.999Z</time></trkpt><trkpt lat="44.5453914" lon="9.2646332"><ele>634.0</ele><time>2026-04-18T06:33:47.999Z</time></trkpt><trkpt lat="44.5454477" lon="9.2648444"><ele>634.0</ele><time>2026-04-18T06:33:48.999Z</time></trkpt><trkpt lat="44.545507" lon="9.2650735"><ele>634.0</ele><time>2026-04-18T06:33:49.999Z</time></trkpt><trkpt lat="44.5455664" lon="9.2652928"><ele>634.0</ele><time>2026-04-18T06:33:50.999Z</time></trkpt><trkpt lat="44.5456189" lon="9.2655104"><ele>631.3333333333334</ele><time>2026-04-18T06:33:51.999Z</time></trkpt><trkpt lat="44.5456764" lon="9.2657446"><ele>628.6666666666666</ele><time>2026-04-18T06:33:52.999Z</time></trkpt><trkpt lat="44.5457291" lon="9.2659777"><ele>626.0</ele><time>2026-04-18T06:33:53.999Z</time></trkpt><trkpt lat="44.5457652" lon="9.2662019"><ele>626.0</ele><time>2026-04-18T06:33:54.999Z</time></trkpt><trkpt lat="44.5457887" lon="9.2664212"><ele>626.0</ele><time>2026-04-18T06:33:55.999Z</time></trkpt><trkpt lat="44.5458092" lon="9.2666391"><ele>626.0</ele><time>2026-04-18T06:33:56.999Z</time></trkpt><trkpt lat="44.545836" lon="9.266857"><ele>624.0</ele><time>2026-04-18T06:33:57.999Z</time></trkpt><trkpt lat="44.5458782" lon="9.2670738"><ele>622.0</ele><time>2026-04-18T06:33:58.999Z</time></trkpt><trkpt lat="44.5459514" lon="9.2672737"><ele>620.0</ele><time>2026-04-18T06:33:59.999Z</time></trkpt><trkpt lat="44.5460405" lon="9.2674603"><ele>621.6666666666666</ele><time>2026-04-18T06:34:00.999Z</time></trkpt><trkpt lat="44.5461706" lon="9.2676243"><ele>623.3333333333334</ele><time>2026-04-18T06:34:01.999Z</time></trkpt><trkpt lat="44.5463016" lon="9.2677813"><ele>625.0</ele><time>2026-04-18T06:34:02.999Z</time></trkpt><trkpt lat="44.5464381" lon="9.2679365"><ele>625.0</ele><time>2026-04-18T06:34:03.999Z</time></trkpt><trkpt lat="44.5465739" lon="9.2681029"><ele>625.0</ele><time>2026-04-18T06:34:04.999Z</time></trkpt><trkpt lat="44.5467092" lon="9.2682756"><ele>625.0</ele><time>2026-04-18T06:34:05.999Z</time></trkpt><trkpt lat="44.5468461" lon="9.2684463"><ele>625.3333333333334</ele><time>2026-04-18T06:34:06.999Z</time></trkpt><trkpt lat="44.5469734" lon="9.268618"><ele>625.6666666666666</ele><time>2026-04-18T06:34:07.999Z</time></trkpt><trkpt lat="44.5470776" lon="9.2688045"><ele>626.0</ele><time>2026-04-18T06:34:08.999Z</time></trkpt><trkpt lat="44.5471612" lon="9.2690161"><ele>626.0</ele><time>2026-04-18T06:34:09.999Z</time></trkpt><trkpt lat="44.5472313" lon="9.2692337"><ele>626.0</ele><time>2026-04-18T06:34:10.999Z</time></trkpt><trkpt lat="44.5473029" lon="9.2694523"><ele>626.0</ele><time>2026-04-18T06:34:11.999Z</time></trkpt><trkpt lat="44.5473725" lon="9.2696579"><ele>622.3333333333333</ele><time>2026-04-18T06:34:12.999Z</time></trkpt><trkpt lat="44.5474537" lon="9.2698695"><ele>618.6666666666666</ele><time>2026-04-18T06:34:13.999Z</time></trkpt><trkpt lat="44.5475453" lon="9.2700641"><ele>615.0</ele><time>2026-04-18T06:34:14.999Z</time></trkpt><trkpt lat="44.5476484" lon="9.2702323"><ele>615.0</ele><time>2026-04-18T06:34:15.999Z</time></trkpt><trkpt lat="44.5477734" lon="9.2703992"><ele>615.0</ele><time>2026-04-18T06:34:16.999Z</time></trkpt><trkpt lat="44.5479107" lon="9.2705388"><ele>615.0</ele><time>2026-04-18T06:34:17.999Z</time></trkpt><trkpt lat="44.5480603" lon="9.2706712"><ele>615.6666666666666</ele><time>2026-04-18T06:34:18.999Z</time></trkpt><trkpt lat="44.548219" lon="9.2707913"><ele>616.3333333333333</ele><time>2026-04-18T06:34:19.999Z</time></trkpt><trkpt lat="44.5483795" lon="9.2709033"><ele>617.0</ele><time>2026-04-18T06:34:20.999Z</time></trkpt><trkpt lat="44.5485432" lon="9.2709881"><ele>617.0</ele><time>2026-04-18T06:34:21.999Z</time></trkpt><trkpt lat="44.5487091" lon="9.2710678"><ele>617.0</ele><time>2026-04-18T06:34:22.999Z</time></trkpt><trkpt lat="44.5488808" lon="9.2711481"><ele>617.0</ele><time>2026-04-18T06:34:23.999Z</time></trkpt><trkpt lat="44.5490463" lon="9.2712337"><ele>615.3333333333333</ele><time>2026-04-18T06:34:24.999Z</time></trkpt><trkpt lat="44.5492081" lon="9.271324"><ele>613.6666666666666</ele><time>2026-04-18T06:34:25.999Z</time></trkpt><trkpt lat="44.5493725" lon="9.2714263"><ele>612.0</ele><time>2026-04-18T06:34:26.999Z</time></trkpt><trkpt lat="44.5495298" lon="9.2715329"><ele>619.6666666666666</ele><time>2026-04-18T06:34:27.999Z</time></trkpt><trkpt lat="44.5496861" lon="9.2716399"><ele>627.3333333333333</ele><time>2026-04-18T06:34:28.999Z</time></trkpt><trkpt lat="44.5498394" lon="9.2717475"><ele>635.0</ele><time>2026-04-18T06:34:29.999Z</time></trkpt><trkpt lat="44.5499852" lon="9.2718483"><ele>635.0</ele><time>2026-04-18T06:34:30.999Z</time></trkpt><trkpt lat="44.5501275" lon="9.2719439"><ele>635.0</ele><time>2026-04-18T06:34:31.999Z</time></trkpt><trkpt lat="44.5502622" lon="9.2720348"><ele>635.0</ele><time>2026-04-18T06:34:32.999Z</time></trkpt><trkpt lat="44.5503865" lon="9.2721393"><ele>635.6666666666666</ele><time>2026-04-18T06:34:33.999Z</time></trkpt><trkpt lat="44.5505064" lon="9.2722723"><ele>636.3333333333334</ele><time>2026-04-18T06:34:34.999Z</time></trkpt><trkpt lat="44.5506166" lon="9.2724244"><ele>637.0</ele><time>2026-04-18T06:34:35.999Z</time></trkpt><trkpt lat="44.5507272" lon="9.272591"><ele>637.0</ele><time>2026-04-18T06:34:37Z</time></trkpt><trkpt lat="44.5508327" lon="9.2727506"><ele>637.0</ele><time>2026-04-18T06:34:37.999Z</time></trkpt><trkpt lat="44.550933" lon="9.2729248"><ele>637.0</ele><time>2026-04-18T06:34:38.999Z</time></trkpt><trkpt lat="44.5510259" lon="9.2730961"><ele>644.0</ele><time>2026-04-18T06:34:39.999Z</time></trkpt><trkpt lat="44.5511238" lon="9.2732663"><ele>651.0</ele><time>2026-04-18T06:34:40.999Z</time></trkpt><trkpt lat="44.5512195" lon="9.2734529"><ele>658.0</ele><time>2026-04-18T06:34:41.999Z</time></trkpt><trkpt lat="44.5512975" lon="9.2736468"><ele>658.0</ele><time>2026-04-18T06:34:42.999Z</time></trkpt><trkpt lat="44.5513661" lon="9.2738494"><ele>658.0</ele><time>2026-04-18T06:34:43.999Z</time></trkpt><trkpt lat="44.5514169" lon="9.2740512"><ele>658.0</ele><time>2026-04-18T06:34:44.999Z</time></trkpt><trkpt lat="44.5514534" lon="9.2742359"><ele>658.0</ele><time>2026-04-18T06:34:45.999Z</time></trkpt><trkpt lat="44.5514976" lon="9.2744148"><ele>651.25</ele><time>2026-04-18T06:34:46.999Z</time></trkpt><trkpt lat="44.5515681" lon="9.2745898"><ele>644.5</ele><time>2026-04-18T06:34:47.999Z</time></trkpt><trkpt lat="44.5516597" lon="9.2747412"><ele>637.75</ele><time>2026-04-18T06:34:48.999Z</time></trkpt><trkpt lat="44.5517527" lon="9.2748844"><ele>631.0</ele><time>2026-04-18T06:34:49.999Z</time></trkpt><trkpt lat="44.5518288" lon="9.275021"><ele>627.5</ele><time>2026-04-18T06:34:50.999Z</time></trkpt><trkpt lat="44.5518785" lon="9.2751679"><ele>624.0</ele><time>2026-04-18T06:34:51.999Z</time></trkpt><trkpt lat="44.5518895" lon="9.2753252"><ele>620.5</ele><time>2026-04-18T06:34:52.999Z</time></trkpt><trkpt lat="44.5518668" lon="9.2754948"><ele>617.0</ele><time>2026-04-18T06:34:53.999Z</time></trkpt><trkpt lat="44.5518308" lon="9.275666"><ele>615.75</ele><time>2026-04-18T06:34:54.999Z</time></trkpt><trkpt lat="44.551793" lon="9.2758427"><ele>614.5</ele><time>2026-04-18T06:34:55.999Z</time></trkpt><trkpt lat="44.5517496" lon="9.2760256"><ele>613.25</ele><time>2026-04-18T06:34:56.999Z</time></trkpt><trkpt lat="44.5517094" lon="9.276216"><ele>612.0</ele><time>2026-04-18T06:34:57.999Z</time></trkpt><trkpt lat="44.5516653" lon="9.2764254"><ele>615.0</ele><time>2026-04-18T06:34:58.999Z</time></trkpt><trkpt lat="44.5516192" lon="9.2766182"><ele>618.0</ele><time>2026-04-18T06:34:59.999Z</time></trkpt><trkpt lat="44.5515714" lon="9.2768178"><ele>621.0</ele><time>2026-04-18T06:35:00.999Z</time></trkpt><trkpt lat="44.5515292" lon="9.2770289"><ele>622.0</ele><time>2026-04-18T06:35:02.136Z</time></trkpt><trkpt lat="44.5514688" lon="9.2774618"><ele>623.0</ele><time>2026-04-18T06:35:03.999Z</time></trkpt><trkpt lat="44.5514427" lon="9.2776878"><ele>623.0</ele><time>2026-04-18T06:35:04.999Z</time></trkpt><trkpt lat="44.5514255" lon="9.2779096"><ele>623.0</ele><time>2026-04-18T06:35:05.999Z</time></trkpt><trkpt lat="44.5514129" lon="9.2781393"><ele>623.0</ele><time>2026-04-18T06:35:06.999Z</time></trkpt><trkpt lat="44.5514009" lon="9.2783498"><ele>621.0</ele><time>2026-04-18T06:35:07.999Z</time></trkpt><trkpt lat="44.5514012" lon="9.2785581"><ele>619.0</ele><time>2026-04-18T06:35:08.999Z</time></trkpt><trkpt lat="44.5514193" lon="9.2787584"><ele>617.0</ele><time>2026-04-18T06:35:09.999Z</time></trkpt><trkpt lat="44.5514588" lon="9.2789394"><ele>615.0</ele><time>2026-04-18T06:35:10.999Z</time></trkpt><trkpt lat="44.5515269" lon="9.2790876"><ele>613.5</ele><time>2026-04-18T06:35:11.999Z</time></trkpt><trkpt lat="44.551613" lon="9.2792034"><ele>612.0</ele><time>2026-04-18T06:35:12.999Z</time></trkpt><trkpt lat="44.551709" lon="9.2792967"><ele>610.5</ele><time>2026-04-18T06:35:13.999Z</time></trkpt><trkpt lat="44.5518102" lon="9.2793773"><ele>609.0</ele><time>2026-04-18T06:35:14.999Z</time></trkpt><trkpt lat="44.5519094" lon="9.279438"><ele>609.0</ele><time>2026-04-18T06:35:15.999Z</time></trkpt><trkpt lat="44.5520037" lon="9.2795072"><ele>609.0</ele><time>2026-04-18T06:35:16.999Z</time></trkpt><trkpt lat="44.5521014" lon="9.2795877"><ele>609.0</ele><time>2026-04-18T06:35:17.999Z</time></trkpt><trkpt lat="44.5521978" lon="9.279652"><ele>609.0</ele><time>2026-04-18T06:35:18.999Z</time></trkpt><trkpt lat="44.5522979" lon="9.2797276"><ele>609.0</ele><time>2026-04-18T06:35:19.999Z</time></trkpt><trkpt lat="44.552397" lon="9.2798007"><ele>609.75</ele><time>2026-04-18T06:35:20.999Z</time></trkpt><trkpt lat="44.5524943" lon="9.2798796"><ele>610.5</ele><time>2026-04-18T06:35:22Z</time></trkpt><trkpt lat="44.5525889" lon="9.2799615"><ele>611.25</ele><time>2026-04-18T06:35:22.999Z</time></trkpt><trkpt lat="44.5526877" lon="9.280045"><ele>612.0</ele><time>2026-04-18T06:35:23.999Z</time></trkpt><trkpt lat="44.5527911" lon="9.2801215"><ele>613.75</ele><time>2026-04-18T06:35:24.999Z</time></trkpt><trkpt lat="44.5528964" lon="9.2801806"><ele>615.5</ele><time>2026-04-18T06:35:25.999Z</time></trkpt><trkpt lat="44.5530064" lon="9.2802595"><ele>617.25</ele><time>2026-04-18T06:35:26.999Z</time></trkpt><trkpt lat="44.5531222" lon="9.2803371"><ele>619.0</ele><time>2026-04-18T06:35:27.999Z</time></trkpt><trkpt lat="44.5532273" lon="9.2804083"><ele>619.0</ele><time>2026-04-18T06:35:28.999Z</time></trkpt><trkpt lat="44.55334" lon="9.2804693"><ele>619.0</ele><time>2026-04-18T06:35:29.999Z</time></trkpt><trkpt lat="44.5534535" lon="9.2805388"><ele>619.0</ele><time>2026-04-18T06:35:30.999Z</time></trkpt><trkpt lat="44.5535735" lon="9.2806166"><ele>619.0</ele><time>2026-04-18T06:35:31.999Z</time></trkpt><trkpt lat="44.5536875" lon="9.2806788"><ele>620.75</ele><time>2026-04-18T06:35:32.999Z</time></trkpt><trkpt lat="44.5537987" lon="9.280752"><ele>622.5</ele><time>2026-04-18T06:35:33.999Z</time></trkpt><trkpt lat="44.5539126" lon="9.2808291"><ele>624.25</ele><time>2026-04-18T06:35:34.999Z</time></trkpt><trkpt lat="44.5540247" lon="9.2809042"><ele>626.0</ele><time>2026-04-18T06:35:35.999Z</time></trkpt><trkpt lat="44.5541386" lon="9.2809881"><ele>626.0</ele><time>2026-04-18T06:35:36.999Z</time></trkpt><trkpt lat="44.5542456" lon="9.2810848"><ele>626.0</ele><time>2026-04-18T06:35:37.999Z</time></trkpt><trkpt lat="44.5543323" lon="9.2811961"><ele>626.0</ele><time>2026-04-18T06:35:38.999Z</time></trkpt><trkpt lat="44.5544006" lon="9.28133"><ele>626.0</ele><time>2026-04-18T06:35:39.999Z</time></trkpt><trkpt lat="44.5544732" lon="9.281474"><ele>625.5</ele><time>2026-04-18T06:35:40.999Z</time></trkpt><trkpt lat="44.554556" lon="9.2816108"><ele>625.0</ele><time>2026-04-18T06:35:41.999Z</time></trkpt><trkpt lat="44.5546462" lon="9.2817468"><ele>624.5</ele><time>2026-04-18T06:35:42.999Z</time></trkpt><trkpt lat="44.5547432" lon="9.2818733"><ele>624.0</ele><time>2026-04-18T06:35:43.999Z</time></trkpt><trkpt lat="44.5548392" lon="9.2820029"><ele>624.0</ele><time>2026-04-18T06:35:44.999Z</time></trkpt><trkpt lat="44.5549364" lon="9.2821384"><ele>624.0</ele><time>2026-04-18T06:35:45.999Z</time></trkpt><trkpt lat="44.5550214" lon="9.2822687"><ele>624.0</ele><time>2026-04-18T06:35:46.999Z</time></trkpt><trkpt lat="44.5550852" lon="9.2824043"><ele>624.0</ele><time>2026-04-18T06:35:47.999Z</time></trkpt><trkpt lat="44.5551519" lon="9.282566"><ele>620.6</ele><time>2026-04-18T06:35:48.999Z</time></trkpt><trkpt lat="44.5551986" lon="9.2827129"><ele>617.2</ele><time>2026-04-18T06:35:49.999Z</time></trkpt><trkpt lat="44.5552388" lon="9.2828622"><ele>613.8000000000001</ele><time>2026-04-18T06:35:50.999Z</time></trkpt><trkpt lat="44.5552795" lon="9.2830088"><ele>610.4</ele><time>2026-04-18T06:35:51.999Z</time></trkpt><trkpt lat="44.555326" lon="9.2831464"><ele>607.0</ele><time>2026-04-18T06:35:52.999Z</time></trkpt><trkpt lat="44.5553738" lon="9.2832716"><ele>607.0</ele><time>2026-04-18T06:35:53.999Z</time></trkpt><trkpt lat="44.5554422" lon="9.2833807"><ele>607.0</ele><time>2026-04-18T06:35:54.999Z</time></trkpt><trkpt lat="44.5555198" lon="9.2834709"><ele>607.0</ele><time>2026-04-18T06:35:55.999Z</time></trkpt><trkpt lat="44.5556146" lon="9.2835318"><ele>607.0</ele><time>2026-04-18T06:35:56.999Z</time></trkpt><trkpt lat="44.5557095" lon="9.2835601"><ele>607.0</ele><time>2026-04-18T06:35:57.999Z</time></trkpt><trkpt lat="44.5558093" lon="9.2835579"><ele>607.0</ele><time>2026-04-18T06:35:58.999Z</time></trkpt><trkpt lat="44.5559046" lon="9.283543"><ele>607.0</ele><time>2026-04-18T06:35:59.999Z</time></trkpt><trkpt lat="44.555999" lon="9.2834843"><ele>607.0</ele><time>2026-04-18T06:36:00.999Z</time></trkpt><trkpt lat="44.5561002" lon="9.283423"><ele>607.0</ele><time>2026-04-18T06:36:01.999Z</time></trkpt><trkpt lat="44.5562014" lon="9.2833578"><ele>607.0</ele><time>2026-04-18T06:36:02.999Z</time></trkpt><trkpt lat="44.5563082" lon="9.2832849"><ele>606.0</ele><time>2026-04-18T06:36:03.999Z</time></trkpt><trkpt lat="44.5564211" lon="9.2832149"><ele>605.0</ele><time>2026-04-18T06:36:04.999Z</time></trkpt><trkpt lat="44.5565364" lon="9.2831432"><ele>604.0</ele><time>2026-04-18T06:36:05.999Z</time></trkpt><trkpt lat="44.5566536" lon="9.2830746"><ele>603.0</ele><time>2026-04-18T06:36:06.999Z</time></trkpt><trkpt lat="44.556773" lon="9.282999"><ele>603.0</ele><time>2026-04-18T06:36:07.999Z</time></trkpt><trkpt lat="44.5568957" lon="9.2829121"><ele>603.0</ele><time>2026-04-18T06:36:08.999Z</time></trkpt><trkpt lat="44.5570178" lon="9.2828369"><ele>603.0</ele><time>2026-04-18T06:36:09.999Z</time></trkpt><trkpt lat="44.5571338" lon="9.2827656"><ele>603.0</ele><time>2026-04-18T06:36:11Z</time></trkpt><trkpt lat="44.5572592" lon="9.2826923"><ele>602.0</ele><time>2026-04-18T06:36:11.999Z</time></trkpt><trkpt lat="44.557386" lon="9.2826137"><ele>601.0</ele><time>2026-04-18T06:36:12.999Z</time></trkpt><trkpt lat="44.557509" lon="9.282532"><ele>600.0</ele><time>2026-04-18T06:36:13.999Z</time></trkpt><trkpt lat="44.5576296" lon="9.2824496"><ele>599.0</ele><time>2026-04-18T06:36:14.999Z</time></trkpt><trkpt lat="44.5577465" lon="9.2823724"><ele>599.0</ele><time>2026-04-18T06:36:15.999Z</time></trkpt><trkpt lat="44.5578645" lon="9.2822959"><ele>599.0</ele><time>2026-04-18T06:36:16.999Z</time></trkpt><trkpt lat="44.5579872" lon="9.2822152"><ele>599.0</ele><time>2026-04-18T06:36:17.999Z</time></trkpt><trkpt lat="44.5580953" lon="9.2821417"><ele>599.0</ele><time>2026-04-18T06:36:18.999Z</time></trkpt><trkpt lat="44.5582069" lon="9.2820722"><ele>600.75</ele><time>2026-04-18T06:36:19.999Z</time></trkpt><trkpt lat="44.5583177" lon="9.2820127"><ele>602.5</ele><time>2026-04-18T06:36:20.999Z</time></trkpt><trkpt lat="44.5584274" lon="9.2819683"><ele>604.25</ele><time>2026-04-18T06:36:21.999Z</time></trkpt><trkpt lat="44.5585484" lon="9.2819576"><ele>606.0</ele><time>2026-04-18T06:36:22.999Z</time></trkpt><trkpt lat="44.5586741" lon="9.2819739"><ele>607.75</ele><time>2026-04-18T06:36:23.999Z</time></trkpt><trkpt lat="44.5587928" lon="9.2820292"><ele>609.5</ele><time>2026-04-18T06:36:24.999Z</time></trkpt><trkpt lat="44.5589163" lon="9.2821134"><ele>611.25</ele><time>2026-04-18T06:36:25.999Z</time></trkpt><trkpt lat="44.5590275" lon="9.2822289"><ele>613.0</ele><time>2026-04-18T06:36:26.999Z</time></trkpt><trkpt lat="44.559119" lon="9.2823825"><ele>613.0</ele><time>2026-04-18T06:36:27.999Z</time></trkpt><trkpt lat="44.5591813" lon="9.2825647"><ele>613.0</ele><time>2026-04-18T06:36:28.999Z</time></trkpt><trkpt lat="44.559215" lon="9.2827615"><ele>613.0</ele><time>2026-04-18T06:36:29.999Z</time></trkpt><trkpt lat="44.5592237" lon="9.2829667"><ele>613.0</ele><time>2026-04-18T06:36:30.999Z</time></trkpt><trkpt lat="44.5592301" lon="9.2831672"><ele>610.0</ele><time>2026-04-18T06:36:31.999Z</time></trkpt><trkpt lat="44.5592665" lon="9.2833569"><ele>607.0</ele><time>2026-04-18T06:36:32.999Z</time></trkpt><trkpt lat="44.5593339" lon="9.2835244"><ele>604.0</ele><time>2026-04-18T06:36:33.999Z</time></trkpt><trkpt lat="44.559432" lon="9.2836435"><ele>601.0</ele><time>2026-04-18T06:36:34.999Z</time></trkpt><trkpt lat="44.5595532" lon="9.2837279"><ele>607.75</ele><time>2026-04-18T06:36:35.999Z</time></trkpt><trkpt lat="44.5596828" lon="9.2837827"><ele>614.5</ele><time>2026-04-18T06:36:36.999Z</time></trkpt><trkpt lat="44.5598259" lon="9.2838162"><ele>621.25</ele><time>2026-04-18T06:36:37.999Z</time></trkpt><trkpt lat="44.5599744" lon="9.2838389"><ele>628.0</ele><time>2026-04-18T06:36:38.999Z</time></trkpt><trkpt lat="44.5601196" lon="9.2838619"><ele>628.0</ele><time>2026-04-18T06:36:39.999Z</time></trkpt><trkpt lat="44.5602835" lon="9.2838771"><ele>628.0</ele><time>2026-04-18T06:36:40.999Z</time></trkpt><trkpt lat="44.5604513" lon="9.2838812"><ele>628.0</ele><time>2026-04-18T06:36:41.999Z</time></trkpt><trkpt lat="44.5606187" lon="9.2838728"><ele>628.0</ele><time>2026-04-18T06:36:42.999Z</time></trkpt><trkpt lat="44.5607845" lon="9.2838487"><ele>628.0</ele><time>2026-04-18T06:36:43.999Z</time></trkpt><trkpt lat="44.5609511" lon="9.2838463"><ele>628.0</ele><time>2026-04-18T06:36:44.999Z</time></trkpt><trkpt lat="44.5611113" lon="9.2838263"><ele>623.6666666666667</ele><time>2026-04-18T06:36:45.999Z</time></trkpt><trkpt lat="44.5612558" lon="9.2838051"><ele>619.3333333333334</ele><time>2026-04-18T06:36:46.999Z</time></trkpt><trkpt lat="44.5614184" lon="9.2837705"><ele>615.0</ele><time>2026-04-18T06:36:47.999Z</time></trkpt><trkpt lat="44.5615925" lon="9.2836984"><ele>615.0</ele><time>2026-04-18T06:36:48.999Z</time></trkpt><trkpt lat="44.5617478" lon="9.283638"><ele>615.0</ele><time>2026-04-18T06:36:49.999Z</time></trkpt><trkpt lat="44.5619076" lon="9.2835532"><ele>615.0</ele><time>2026-04-18T06:36:50.999Z</time></trkpt><trkpt lat="44.562076" lon="9.2834552"><ele>611.3333333333334</ele><time>2026-04-18T06:36:51.999Z</time></trkpt><trkpt lat="44.5622473" lon="9.2833345"><ele>607.6666666666667</ele><time>2026-04-18T06:36:52.999Z</time></trkpt><trkpt lat="44.5624152" lon="9.2832076"><ele>604.0</ele><time>2026-04-18T06:36:53.999Z</time></trkpt><trkpt lat="44.5625826" lon="9.2830625"><ele>604.0</ele><time>2026-04-18T06:36:54.999Z</time></trkpt><trkpt lat="44.5627467" lon="9.2829139"><ele>604.0</ele><time>2026-04-18T06:36:55.999Z</time></trkpt><trkpt lat="44.5629198" lon="9.2827618"><ele>604.0</ele><time>2026-04-18T06:36:56.999Z</time></trkpt><trkpt lat="44.5630833" lon="9.2826037"><ele>606.0</ele><time>2026-04-18T06:36:57.999Z</time></trkpt><trkpt lat="44.5632607" lon="9.2824325"><ele>608.0</ele><time>2026-04-18T06:36:58.999Z</time></trkpt><trkpt lat="44.5634246" lon="9.2822681"><ele>610.0</ele><time>2026-04-18T06:36:59.999Z</time></trkpt><trkpt lat="44.5635885" lon="9.2821114"><ele>603.3333333333334</ele><time>2026-04-18T06:37:00.999Z</time></trkpt><trkpt lat="44.5637436" lon="9.2819602"><ele>596.6666666666666</ele><time>2026-04-18T06:37:01.999Z</time></trkpt><trkpt lat="44.5638894" lon="9.2818244"><ele>590.0</ele><time>2026-04-18T06:37:02.999Z</time></trkpt><trkpt lat="44.5640365" lon="9.2816814"><ele>590.0</ele><time>2026-04-18T06:37:03.999Z</time></trkpt><trkpt lat="44.5641842" lon="9.2815402"><ele>590.0</ele><time>2026-04-18T06:37:04.999Z</time></trkpt><trkpt lat="44.5643179" lon="9.2814079"><ele>590.0</ele><time>2026-04-18T06:37:05.999Z</time></trkpt><trkpt lat="44.564447" lon="9.2812719"><ele>590.25</ele><time>2026-04-18T06:37:06.999Z</time></trkpt><trkpt lat="44.5645537" lon="9.2811461"><ele>590.5</ele><time>2026-04-18T06:37:07.999Z</time></trkpt><trkpt lat="44.5646633" lon="9.2810106"><ele>590.75</ele><time>2026-04-18T06:37:08.999Z</time></trkpt><trkpt lat="44.5647614" lon="9.2809048"><ele>591.0</ele><time>2026-04-18T06:37:09.999Z</time></trkpt><trkpt lat="44.5648523" lon="9.2808293"><ele>591.0</ele><time>2026-04-18T06:37:10.999Z</time></trkpt><trkpt lat="44.5649397" lon="9.2808224"><ele>591.0</ele><time>2026-04-18T06:37:11.999Z</time></trkpt><trkpt lat="44.5650367" lon="9.2808337"><ele>591.0</ele><time>2026-04-18T06:37:12.999Z</time></trkpt><trkpt lat="44.5651357" lon="9.2808935"><ele>591.0</ele><time>2026-04-18T06:37:13.999Z</time></trkpt><trkpt lat="44.5652352" lon="9.2809749"><ele>591.0</ele><time>2026-04-18T06:37:14.999Z</time></trkpt><trkpt lat="44.565331" lon="9.2810569"><ele>591.6</ele><time>2026-04-18T06:37:15.999Z</time></trkpt><trkpt lat="44.5654177" lon="9.2811363"><ele>592.2</ele><time>2026-04-18T06:37:16.999Z</time></trkpt><trkpt lat="44.5655193" lon="9.2811737"><ele>592.8</ele><time>2026-04-18T06:37:17.999Z</time></trkpt><trkpt lat="44.5656118" lon="9.2811896"><ele>593.4</ele><time>2026-04-18T06:37:18.999Z</time></trkpt><trkpt lat="44.5657038" lon="9.2811558"><ele>594.0</ele><time>2026-04-18T06:37:19.999Z</time></trkpt><trkpt lat="44.5657964" lon="9.2810927"><ele>594.0</ele><time>2026-04-18T06:37:21Z</time></trkpt><trkpt lat="44.5658812" lon="9.2809921"><ele>594.0</ele><time>2026-04-18T06:37:21.999Z</time></trkpt><trkpt lat="44.5659758" lon="9.2808532"><ele>594.0</ele><time>2026-04-18T06:37:22.999Z</time></trkpt><trkpt lat="44.5660471" lon="9.2807089"><ele>594.0</ele><time>2026-04-18T06:37:23.999Z</time></trkpt><trkpt lat="44.5661338" lon="9.2805312"><ele>595.5</ele><time>2026-04-18T06:37:24.999Z</time></trkpt><trkpt lat="44.5662061" lon="9.2803744"><ele>597.0</ele><time>2026-04-18T06:37:26Z</time></trkpt><trkpt lat="44.5662836" lon="9.2801886"><ele>598.5</ele><time>2026-04-18T06:37:26.999Z</time></trkpt><trkpt lat="44.5663676" lon="9.2800269"><ele>600.0</ele><time>2026-04-18T06:37:27.999Z</time></trkpt><trkpt lat="44.5664542" lon="9.2798571"><ele>596.0</ele><time>2026-04-18T06:37:28.999Z</time></trkpt><trkpt lat="44.5665658" lon="9.279716"><ele>592.0</ele><time>2026-04-18T06:37:29.999Z</time></trkpt><trkpt lat="44.5666975" lon="9.2795993"><ele>588.0</ele><time>2026-04-18T06:37:30.999Z</time></trkpt><trkpt lat="44.5668325" lon="9.2794841"><ele>588.0</ele><time>2026-04-18T06:37:31.999Z</time></trkpt><trkpt lat="44.5669714" lon="9.2793581"><ele>588.0</ele><time>2026-04-18T06:37:32.999Z</time></trkpt><trkpt lat="44.5671261" lon="9.2792338"><ele>588.0</ele><time>2026-04-18T06:37:34Z</time></trkpt><trkpt lat="44.5672753" lon="9.2791082"><ele>587.3333333333334</ele><time>2026-04-18T06:37:34.999Z</time></trkpt><trkpt lat="44.5674243" lon="9.278995"><ele>586.6666666666667</ele><time>2026-04-18T06:37:35.999Z</time></trkpt><trkpt lat="44.5675456" lon="9.2788697"><ele>586.0</ele><time>2026-04-18T06:37:36.999Z</time></trkpt><trkpt lat="44.567682" lon="9.2787443"><ele>586.0</ele><time>2026-04-18T06:37:37.999Z</time></trkpt><trkpt lat="44.5678286" lon="9.2786138"><ele>586.0</ele><time>2026-04-18T06:37:38.999Z</time></trkpt><trkpt lat="44.5679727" lon="9.278469"><ele>586.0</ele><time>2026-04-18T06:37:39.999Z</time></trkpt><trkpt lat="44.5680998" lon="9.2783224"><ele>584.6666666666667</ele><time>2026-04-18T06:37:40.999Z</time></trkpt><trkpt lat="44.5682421" lon="9.2781771"><ele>583.3333333333334</ele><time>2026-04-18T06:37:41.999Z</time></trkpt><trkpt lat="44.5683742" lon="9.2780311"><ele>582.0</ele><time>2026-04-18T06:37:42.999Z</time></trkpt><trkpt lat="44.5685066" lon="9.2778876"><ele>582.0</ele><time>2026-04-18T06:37:43.999Z</time></trkpt><trkpt lat="44.568638" lon="9.2777483"><ele>582.0</ele><time>2026-04-18T06:37:44.999Z</time></trkpt><trkpt lat="44.5687629" lon="9.2776083"><ele>582.0</ele><time>2026-04-18T06:37:45.999Z</time></trkpt><trkpt lat="44.5688817" lon="9.2774926"><ele>582.0</ele><time>2026-04-18T06:37:46.999Z</time></trkpt><trkpt lat="44.5689867" lon="9.2773597"><ele>582.0</ele><time>2026-04-18T06:37:48Z</time></trkpt><trkpt lat="44.5690679" lon="9.2772128"><ele>582.0</ele><time>2026-04-18T06:37:48.999Z</time></trkpt><trkpt lat="44.5691345" lon="9.2770458"><ele>582.0</ele><time>2026-04-18T06:37:49.999Z</time></trkpt><trkpt lat="44.5691895" lon="9.2768751"><ele>582.0</ele><time>2026-04-18T06:37:50.999Z</time></trkpt><trkpt lat="44.5692438" lon="9.2766721"><ele>582.0</ele><time>2026-04-18T06:37:51.999Z</time></trkpt><trkpt lat="44.569306" lon="9.2764755"><ele>582.0</ele><time>2026-04-18T06:37:52.999Z</time></trkpt><trkpt lat="44.5693971" lon="9.276329"><ele>582.0</ele><time>2026-04-18T06:37:53.999Z</time></trkpt><trkpt lat="44.56951" lon="9.2761996"><ele>582.6666666666666</ele><time>2026-04-18T06:37:54.999Z</time></trkpt><trkpt lat="44.5696326" lon="9.276086"><ele>583.3333333333333</ele><time>2026-04-18T06:37:55.999Z</time></trkpt><trkpt lat="44.5697687" lon="9.2759996"><ele>584.0</ele><time>2026-04-18T06:37:56.999Z</time></trkpt><trkpt lat="44.5699072" lon="9.2758844"><ele>584.0</ele><time>2026-04-18T06:37:57.999Z</time></trkpt><trkpt lat="44.5700672" lon="9.27583"><ele>584.0</ele><time>2026-04-18T06:37:58.999Z</time></trkpt><trkpt lat="44.57024" lon="9.2758345"><ele>584.0</ele><time>2026-04-18T06:37:59.999Z</time></trkpt><trkpt lat="44.5703979" lon="9.2758404"><ele>585.6666666666666</ele><time>2026-04-18T06:38:00.999Z</time></trkpt><trkpt lat="44.570551" lon="9.2758736"><ele>587.3333333333334</ele><time>2026-04-18T06:38:01.999Z</time></trkpt><trkpt lat="44.5706995" lon="9.2759425"><ele>589.0</ele><time>2026-04-18T06:38:02.999Z</time></trkpt><trkpt lat="44.5708422" lon="9.2760233"><ele>589.0</ele><time>2026-04-18T06:38:03.999Z</time></trkpt><trkpt lat="44.5709681" lon="9.2761144"><ele>589.0</ele><time>2026-04-18T06:38:04.999Z</time></trkpt><trkpt lat="44.5710899" lon="9.2761724"><ele>589.0</ele><time>2026-04-18T06:38:05.999Z</time></trkpt><trkpt lat="44.5712069" lon="9.276188"><ele>589.0</ele><time>2026-04-18T06:38:06.999Z</time></trkpt><trkpt lat="44.5713239" lon="9.2761744"><ele>589.0</ele><time>2026-04-18T06:38:07.999Z</time></trkpt><trkpt lat="44.5714313" lon="9.2761053"><ele>589.0</ele><time>2026-04-18T06:38:08.999Z</time></trkpt><trkpt lat="44.5715496" lon="9.2759961"><ele>589.0</ele><time>2026-04-18T06:38:09.999Z</time></trkpt><trkpt lat="44.5716751" lon="9.2758977"><ele>589.0</ele><time>2026-04-18T06:38:10.999Z</time></trkpt><trkpt lat="44.5718299" lon="9.2757771"><ele>589.0</ele><time>2026-04-18T06:38:11.999Z</time></trkpt><trkpt lat="44.5719622" lon="9.2756779"><ele>589.0</ele><time>2026-04-18T06:38:12.999Z</time></trkpt><trkpt lat="44.572111" lon="9.2755862"><ele>589.0</ele><time>2026-04-18T06:38:13.999Z</time></trkpt><trkpt lat="44.5722647" lon="9.2754457"><ele>588.3333333333334</ele><time>2026-04-18T06:38:14.999Z</time></trkpt><trkpt lat="44.5724059" lon="9.2753219"><ele>587.6666666666666</ele><time>2026-04-18T06:38:15.999Z</time></trkpt><trkpt lat="44.5725625" lon="9.2752169"><ele>587.0</ele><time>2026-04-18T06:38:16.999Z</time></trkpt><trkpt lat="44.572705" lon="9.2750993"><ele>587.0</ele><time>2026-04-18T06:38:17.999Z</time></trkpt><trkpt lat="44.5728421" lon="9.2749796"><ele>587.0</ele><time>2026-04-18T06:38:18.999Z</time></trkpt><trkpt lat="44.5729764" lon="9.2748509"><ele>587.0</ele><time>2026-04-18T06:38:19.999Z</time></trkpt><trkpt lat="44.5731086" lon="9.2747232"><ele>586.3333333333333</ele><time>2026-04-18T06:38:20.999Z</time></trkpt><trkpt lat="44.5732342" lon="9.2745881"><ele>585.6666666666666</ele><time>2026-04-18T06:38:21.999Z</time></trkpt><trkpt lat="44.5733632" lon="9.2744393"><ele>585.0</ele><time>2026-04-18T06:38:22.999Z</time></trkpt><trkpt lat="44.5734855" lon="9.2742821"><ele>585.0</ele><time>2026-04-18T06:38:23.999Z</time></trkpt><trkpt lat="44.5736049" lon="9.2741197"><ele>585.0</ele><time>2026-04-18T06:38:24.999Z</time></trkpt><trkpt lat="44.5737355" lon="9.2739802"><ele>585.0</ele><time>2026-04-18T06:38:25.999Z</time></trkpt><trkpt lat="44.5738459" lon="9.2738403"><ele>585.6666666666666</ele><time>2026-04-18T06:38:26.999Z</time></trkpt><trkpt lat="44.5739466" lon="9.2737061"><ele>586.3333333333333</ele><time>2026-04-18T06:38:28.143Z</time></trkpt><trkpt lat="44.5741369" lon="9.2734694"><ele>587.0</ele><time>2026-04-18T06:38:29.999Z</time></trkpt><trkpt lat="44.5742194" lon="9.273354"><ele>587.0</ele><time>2026-04-18T06:38:30.999Z</time></trkpt><trkpt lat="44.5743305" lon="9.2732431"><ele>587.0</ele><time>2026-04-18T06:38:31.999Z</time></trkpt><trkpt lat="44.5744172" lon="9.2731237"><ele>587.0</ele><time>2026-04-18T06:38:32.999Z</time></trkpt><trkpt lat="44.5744815" lon="9.2729905"><ele>587.0</ele><time>2026-04-18T06:38:33.999Z</time></trkpt><trkpt lat="44.5745373" lon="9.2728682"><ele>587.0</ele><time>2026-04-18T06:38:34.999Z</time></trkpt><trkpt lat="44.5745796" lon="9.2727313"><ele>587.0</ele><time>2026-04-18T06:38:35.999Z</time></trkpt><trkpt lat="44.5746161" lon="9.272584"><ele>587.0</ele><time>2026-04-18T06:38:36.999Z</time></trkpt><trkpt lat="44.5746534" lon="9.272454"><ele>587.0</ele><time>2026-04-18T06:38:37.999Z</time></trkpt><trkpt lat="44.5746929" lon="9.2723181"><ele>587.0</ele><time>2026-04-18T06:38:38.999Z</time></trkpt><trkpt lat="44.5747389" lon="9.272175"><ele>587.0</ele><time>2026-04-18T06:38:39.999Z</time></trkpt><trkpt lat="44.574793" lon="9.2720381"><ele>587.0</ele><time>2026-04-18T06:38:40.999Z</time></trkpt><trkpt lat="44.5748519" lon="9.2719006"><ele>587.0</ele><time>2026-04-18T06:38:41.999Z</time></trkpt><trkpt lat="44.574908" lon="9.2717695"><ele>587.0</ele><time>2026-04-18T06:38:42.999Z</time></trkpt><trkpt lat="44.5749715" lon="9.2715999"><ele>587.0</ele><time>2026-04-18T06:38:43.999Z</time></trkpt><trkpt lat="44.5750388" lon="9.2714484"><ele>587.0</ele><time>2026-04-18T06:38:44.999Z</time></trkpt><trkpt lat="44.5751051" lon="9.2713084"><ele>587.0</ele><time>2026-04-18T06:38:45.999Z</time></trkpt><trkpt lat="44.5751724" lon="9.2711778"><ele>587.0</ele><time>2026-04-18T06:38:46.999Z</time></trkpt><trkpt lat="44.5752477" lon="9.271054"><ele>586.8000000000001</ele><time>2026-04-18T06:38:47.999Z</time></trkpt><trkpt lat="44.5753234" lon="9.2709367"><ele>586.6</ele><time>2026-04-18T06:38:48.999Z</time></trkpt><trkpt lat="44.5754007" lon="9.2708293"><ele>586.4000000000001</ele><time>2026-04-18T06:38:49.999Z</time></trkpt><trkpt lat="44.5754859" lon="9.2707463"><ele>586.2</ele><time>2026-04-18T06:38:50.999Z</time></trkpt><trkpt lat="44.5755589" lon="9.2706687"><ele>586.0</ele><time>2026-04-18T06:38:51.999Z</time></trkpt><trkpt lat="44.575637" lon="9.2706023"><ele>584.6</ele><time>2026-04-18T06:38:52.999Z</time></trkpt><trkpt lat="44.5757228" lon="9.2705418"><ele>583.2</ele><time>2026-04-18T06:38:53.999Z</time></trkpt><trkpt lat="44.5758057" lon="9.2705123"><ele>581.8</ele><time>2026-04-18T06:38:54.999Z</time></trkpt><trkpt lat="44.5759036" lon="9.2704885"><ele>580.4</ele><time>2026-04-18T06:38:55.999Z</time></trkpt><trkpt lat="44.5760151" lon="9.2704674"><ele>579.0</ele><time>2026-04-18T06:38:56.999Z</time></trkpt><trkpt lat="44.5761193" lon="9.2704382"><ele>578.5</ele><time>2026-04-18T06:38:57.999Z</time></trkpt><trkpt lat="44.5762171" lon="9.2704044"><ele>578.0</ele><time>2026-04-18T06:38:58.999Z</time></trkpt><trkpt lat="44.5763359" lon="9.2703685"><ele>577.5</ele><time>2026-04-18T06:38:59.999Z</time></trkpt><trkpt lat="44.5764538" lon="9.2703291"><ele>577.0</ele><time>2026-04-18T06:39:00.999Z</time></trkpt><trkpt lat="44.5765814" lon="9.2702898"><ele>577.0</ele><time>2026-04-18T06:39:01.999Z</time></trkpt><trkpt lat="44.5767039" lon="9.2702552"><ele>577.0</ele><time>2026-04-18T06:39:02.999Z</time></trkpt><trkpt lat="44.5768275" lon="9.2702288"><ele>577.0</ele><time>2026-04-18T06:39:03.999Z</time></trkpt><trkpt lat="44.5769533" lon="9.2702047"><ele>577.0</ele><time>2026-04-18T06:39:04.999Z</time></trkpt><trkpt lat="44.5770856" lon="9.270214"><ele>576.5</ele><time>2026-04-18T06:39:05.999Z</time></trkpt><trkpt lat="44.5772208" lon="9.2702331"><ele>576.0</ele><time>2026-04-18T06:39:06.999Z</time></trkpt><trkpt lat="44.5773522" lon="9.2702498"><ele>575.5</ele><time>2026-04-18T06:39:07.999Z</time></trkpt><trkpt lat="44.5774881" lon="9.270268"><ele>575.0</ele><time>2026-04-18T06:39:08.999Z</time></trkpt><trkpt lat="44.5776309" lon="9.2702768"><ele>575.0</ele><time>2026-04-18T06:39:09.999Z</time></trkpt><trkpt lat="44.5777846" lon="9.2702627"><ele>575.0</ele><time>2026-04-18T06:39:10.999Z</time></trkpt><trkpt lat="44.5779369" lon="9.2702379"><ele>575.0</ele><time>2026-04-18T06:39:11.999Z</time></trkpt><trkpt lat="44.5780954" lon="9.2702074"><ele>575.0</ele><time>2026-04-18T06:39:12.999Z</time></trkpt><trkpt lat="44.5782435" lon="9.2701698"><ele>575.0</ele><time>2026-04-18T06:39:13.999Z</time></trkpt><trkpt lat="44.5783807" lon="9.2701305"><ele>575.0</ele><time>2026-04-18T06:39:14.999Z</time></trkpt><trkpt lat="44.5785188" lon="9.2700887"><ele>575.0</ele><time>2026-04-18T06:39:15.999Z</time></trkpt><trkpt lat="44.5786661" lon="9.2700494"><ele>575.3333333333333</ele><time>2026-04-18T06:39:16.999Z</time></trkpt><trkpt lat="44.5788179" lon="9.2700193"><ele>575.6666666666666</ele><time>2026-04-18T06:39:17.999Z</time></trkpt><trkpt lat="44.5789835" lon="9.2700124"><ele>576.0</ele><time>2026-04-18T06:39:18.999Z</time></trkpt><trkpt lat="44.5791458" lon="9.2700047"><ele>576.0</ele><time>2026-04-18T06:39:19.999Z</time></trkpt><trkpt lat="44.5792971" lon="9.2700177"><ele>576.0</ele><time>2026-04-18T06:39:20.999Z</time></trkpt><trkpt lat="44.5794529" lon="9.2700295"><ele>576.0</ele><time>2026-04-18T06:39:21.999Z</time></trkpt><trkpt lat="44.5796094" lon="9.2700383"><ele>576.0</ele><time>2026-04-18T06:39:22.999Z</time></trkpt><trkpt lat="44.579784" lon="9.2700582"><ele>576.0</ele><time>2026-04-18T06:39:23.999Z</time></trkpt><trkpt lat="44.5799438" lon="9.2700797"><ele>576.0</ele><time>2026-04-18T06:39:24.999Z</time></trkpt><trkpt lat="44.5801065" lon="9.2700995"><ele>576.0</ele><time>2026-04-18T06:39:25.999Z</time></trkpt><trkpt lat="44.5802747" lon="9.270119"><ele>576.0</ele><time>2026-04-18T06:39:26.999Z</time></trkpt><trkpt lat="44.5804397" lon="9.2701409"><ele>576.0</ele><time>2026-04-18T06:39:27.999Z</time></trkpt><trkpt lat="44.5806063" lon="9.2701606"><ele>575.0</ele><time>2026-04-18T06:39:28.999Z</time></trkpt><trkpt lat="44.5807853" lon="9.2701841"><ele>574.0</ele><time>2026-04-18T06:39:29.999Z</time></trkpt><trkpt lat="44.580959" lon="9.2702213"><ele>573.0</ele><time>2026-04-18T06:39:30.999Z</time></trkpt><trkpt lat="44.5811191" lon="9.2702657"><ele>571.0</ele><time>2026-04-18T06:39:31.999Z</time></trkpt><trkpt lat="44.5812884" lon="9.2703344"><ele>569.0</ele><time>2026-04-18T06:39:32.999Z</time></trkpt><trkpt lat="44.5814469" lon="9.2704159"><ele>567.0</ele><time>2026-04-18T06:39:33.999Z</time></trkpt><trkpt lat="44.5816035" lon="9.2705165"><ele>567.3333333333334</ele><time>2026-04-18T06:39:34.999Z</time></trkpt><trkpt lat="44.5817578" lon="9.2706301"><ele>567.6666666666667</ele><time>2026-04-18T06:39:35.999Z</time></trkpt><trkpt lat="44.5819164" lon="9.2707333"><ele>568.0</ele><time>2026-04-18T06:39:37Z</time></trkpt><trkpt lat="44.5820705" lon="9.270852"><ele>568.0</ele><time>2026-04-18T06:39:37.999Z</time></trkpt><trkpt lat="44.582223" lon="9.2709643"><ele>568.0</ele><time>2026-04-18T06:39:38.999Z</time></trkpt><trkpt lat="44.5823859" lon="9.271072"><ele>568.0</ele><time>2026-04-18T06:39:39.999Z</time></trkpt><trkpt lat="44.5825387" lon="9.2711832"><ele>568.0</ele><time>2026-04-18T06:39:40.999Z</time></trkpt><trkpt lat="44.5826965" lon="9.2712891"><ele>568.0</ele><time>2026-04-18T06:39:41.999Z</time></trkpt><trkpt lat="44.5828581" lon="9.2713998"><ele>568.0</ele><time>2026-04-18T06:39:42.999Z</time></trkpt><trkpt lat="44.583006" lon="9.2715048"><ele>569.3333333333334</ele><time>2026-04-18T06:39:43.999Z</time></trkpt><trkpt lat="44.5831579" lon="9.2716191"><ele>570.6666666666666</ele><time>2026-04-18T06:39:44.999Z</time></trkpt><trkpt lat="44.5833014" lon="9.2717473"><ele>572.0</ele><time>2026-04-18T06:39:45.999Z</time></trkpt><trkpt lat="44.5834259" lon="9.2718858"><ele>572.0</ele><time>2026-04-18T06:39:46.999Z</time></trkpt><trkpt lat="44.58356" lon="9.2720255"><ele>572.0</ele><time>2026-04-18T06:39:47.999Z</time></trkpt><trkpt lat="44.5836726" lon="9.2722046"><ele>572.0</ele><time>2026-04-18T06:39:48.999Z</time></trkpt><trkpt lat="44.5837684" lon="9.2723962"><ele>571.0</ele><time>2026-04-18T06:39:49.999Z</time></trkpt><trkpt lat="44.5838707" lon="9.272595"><ele>570.0</ele><time>2026-04-18T06:39:50.999Z</time></trkpt><trkpt lat="44.5839752" lon="9.2727908"><ele>569.0</ele><time>2026-04-18T06:39:51.999Z</time></trkpt><trkpt lat="44.5840933" lon="9.2729783"><ele>571.3333333333333</ele><time>2026-04-18T06:39:52.999Z</time></trkpt><trkpt lat="44.5841994" lon="9.2731661"><ele>573.6666666666666</ele><time>2026-04-18T06:39:53.999Z</time></trkpt><trkpt lat="44.5843111" lon="9.2733531"><ele>576.0</ele><time>2026-04-18T06:39:54.999Z</time></trkpt><trkpt lat="44.5844206" lon="9.2735429"><ele>572.0</ele><time>2026-04-18T06:39:55.999Z</time></trkpt><trkpt lat="44.584531" lon="9.2737371"><ele>568.0</ele><time>2026-04-18T06:39:56.999Z</time></trkpt><trkpt lat="44.5846264" lon="9.2739439"><ele>564.0</ele><time>2026-04-18T06:39:57.999Z</time></trkpt><trkpt lat="44.5846999" lon="9.2741722"><ele>564.0</ele><time>2026-04-18T06:39:58.999Z</time></trkpt><trkpt lat="44.5847685" lon="9.2744093"><ele>564.0</ele><time>2026-04-18T06:39:59.999Z</time></trkpt><trkpt lat="44.5848499" lon="9.2746373"><ele>564.0</ele><time>2026-04-18T06:40:00.999Z</time></trkpt><trkpt lat="44.5849368" lon="9.274856"><ele>565.3333333333334</ele><time>2026-04-18T06:40:01.999Z</time></trkpt><trkpt lat="44.5850153" lon="9.2750639"><ele>566.6666666666667</ele><time>2026-04-18T06:40:02.999Z</time></trkpt><trkpt lat="44.5850852" lon="9.2752582"><ele>568.0</ele><time>2026-04-18T06:40:03.999Z</time></trkpt><trkpt lat="44.5851528" lon="9.2754484"><ele>570.6666666666667</ele><time>2026-04-18T06:40:04.999Z</time></trkpt><trkpt lat="44.5852094" lon="9.2756442"><ele>573.3333333333334</ele><time>2026-04-18T06:40:05.999Z</time></trkpt><trkpt lat="44.5852496" lon="9.2758473"><ele>576.0</ele><time>2026-04-18T06:40:06.999Z</time></trkpt><trkpt lat="44.5852619" lon="9.2760722"><ele>576.0</ele><time>2026-04-18T06:40:07.999Z</time></trkpt><trkpt lat="44.5852723" lon="9.2762909"><ele>576.0</ele><time>2026-04-18T06:40:08.999Z</time></trkpt><trkpt lat="44.5852771" lon="9.276517"><ele>576.0</ele><time>2026-04-18T06:40:09.999Z</time></trkpt><trkpt lat="44.585275" lon="9.2767239"><ele>575.0</ele><time>2026-04-18T06:40:10.999Z</time></trkpt><trkpt lat="44.585281" lon="9.2769263"><ele>574.0</ele><time>2026-04-18T06:40:11.999Z</time></trkpt><trkpt lat="44.5853086" lon="9.2771551"><ele>573.0</ele><time>2026-04-18T06:40:12.999Z</time></trkpt><trkpt lat="44.5853611" lon="9.277371"><ele>568.0</ele><time>2026-04-18T06:40:13.999Z</time></trkpt><trkpt lat="44.5854412" lon="9.2775697"><ele>563.0</ele><time>2026-04-18T06:40:14.999Z</time></trkpt><trkpt lat="44.5855301" lon="9.2777557"><ele>558.0</ele><time>2026-04-18T06:40:15.999Z</time></trkpt><trkpt lat="44.5856157" lon="9.2779494"><ele>560.0</ele><time>2026-04-18T06:40:16.999Z</time></trkpt><trkpt lat="44.5857062" lon="9.2781336"><ele>562.0</ele><time>2026-04-18T06:40:17.999Z</time></trkpt><trkpt lat="44.585798" lon="9.2783122"><ele>564.0</ele><time>2026-04-18T06:40:18.999Z</time></trkpt><trkpt lat="44.585884" lon="9.2784965"><ele>564.0</ele><time>2026-04-18T06:40:19.999Z</time></trkpt><trkpt lat="44.5859611" lon="9.278702"><ele>564.0</ele><time>2026-04-18T06:40:20.999Z</time></trkpt><trkpt lat="44.5860272" lon="9.2789263"><ele>564.0</ele><time>2026-04-18T06:40:21.999Z</time></trkpt><trkpt lat="44.5860888" lon="9.2791779"><ele>567.6666666666666</ele><time>2026-04-18T06:40:22.999Z</time></trkpt><trkpt lat="44.5861557" lon="9.2794266"><ele>571.3333333333333</ele><time>2026-04-18T06:40:23.999Z</time></trkpt><trkpt lat="44.5862365" lon="9.2796705"><ele>575.0</ele><time>2026-04-18T06:40:24.999Z</time></trkpt><trkpt lat="44.5863305" lon="9.279911"><ele>570.6666666666666</ele><time>2026-04-18T06:40:25.999Z</time></trkpt><trkpt lat="44.5864237" lon="9.2801487"><ele>566.3333333333334</ele><time>2026-04-18T06:40:26.999Z</time></trkpt><trkpt lat="44.5865153" lon="9.2803908"><ele>562.0</ele><time>2026-04-18T06:40:27.999Z</time></trkpt><trkpt lat="44.5866038" lon="9.2806371"><ele>562.0</ele><time>2026-04-18T06:40:28.999Z</time></trkpt><trkpt lat="44.5866879" lon="9.2808659"><ele>562.0</ele><time>2026-04-18T06:40:29.999Z</time></trkpt><trkpt lat="44.5867663" lon="9.2810775"><ele>562.0</ele><time>2026-04-18T06:40:30.999Z</time></trkpt><trkpt lat="44.5868583" lon="9.2812645"><ele>562.0</ele><time>2026-04-18T06:40:31.999Z</time></trkpt><trkpt lat="44.5869728" lon="9.281431"><ele>562.0</ele><time>2026-04-18T06:40:32.999Z</time></trkpt><trkpt lat="44.5870895" lon="9.281583"><ele>562.0</ele><time>2026-04-18T06:40:33.999Z</time></trkpt><trkpt lat="44.5872042" lon="9.281687"><ele>561.5</ele><time>2026-04-18T06:40:34.999Z</time></trkpt><trkpt lat="44.5873312" lon="9.281792"><ele>561.0</ele><time>2026-04-18T06:40:35.999Z</time></trkpt><trkpt lat="44.5874512" lon="9.2818983"><ele>560.5</ele><time>2026-04-18T06:40:36.999Z</time></trkpt><trkpt lat="44.5875686" lon="9.2820018"><ele>560.0</ele><time>2026-04-18T06:40:37.999Z</time></trkpt><trkpt lat="44.5876766" lon="9.2820705"><ele>560.0</ele><time>2026-04-18T06:40:38.999Z</time></trkpt><trkpt lat="44.5877843" lon="9.2821134"><ele>560.0</ele><time>2026-04-18T06:40:39.999Z</time></trkpt><trkpt lat="44.5879062" lon="9.2821104"><ele>560.0</ele><time>2026-04-18T06:40:40.999Z</time></trkpt><trkpt lat="44.5880248" lon="9.2820764"><ele>560.0</ele><time>2026-04-18T06:40:41.999Z</time></trkpt><trkpt lat="44.5881343" lon="9.2820014"><ele>560.0</ele><time>2026-04-18T06:40:42.999Z</time></trkpt><trkpt lat="44.5882431" lon="9.2819284"><ele>560.0</ele><time>2026-04-18T06:40:43.999Z</time></trkpt><trkpt lat="44.5883512" lon="9.281851"><ele>560.0</ele><time>2026-04-18T06:40:44.999Z</time></trkpt><trkpt lat="44.5884515" lon="9.281795"><ele>560.0</ele><time>2026-04-18T06:40:45.999Z</time></trkpt><trkpt lat="44.5885558" lon="9.28177"><ele>560.0</ele><time>2026-04-18T06:40:46.999Z</time></trkpt><trkpt lat="44.5886589" lon="9.2817807"><ele>560.0</ele><time>2026-04-18T06:40:47.999Z</time></trkpt><trkpt lat="44.5887635" lon="9.2818285"><ele>560.0</ele><time>2026-04-18T06:40:48.999Z</time></trkpt><trkpt lat="44.5888538" lon="9.2819157"><ele>560.0</ele><time>2026-04-18T06:40:49.999Z</time></trkpt><trkpt lat="44.5889412" lon="9.2820226"><ele>560.0</ele><time>2026-04-18T06:40:50.999Z</time></trkpt><trkpt lat="44.5890011" lon="9.2822"><ele>560.0</ele><time>2026-04-18T06:40:51.999Z</time></trkpt><trkpt lat="44.5890629" lon="9.2823691"><ele>560.0</ele><time>2026-04-18T06:40:52.999Z</time></trkpt><trkpt lat="44.5891224" lon="9.2825467"><ele>560.0</ele><time>2026-04-18T06:40:53.999Z</time></trkpt><trkpt lat="44.5891798" lon="9.282733"><ele>560.0</ele><time>2026-04-18T06:40:54.999Z</time></trkpt><trkpt lat="44.5892265" lon="9.2829272"><ele>562.0</ele><time>2026-04-18T06:40:55.999Z</time></trkpt><trkpt lat="44.5892553" lon="9.2831309"><ele>564.0</ele><time>2026-04-18T06:40:56.999Z</time></trkpt><trkpt lat="44.5892693" lon="9.2833403"><ele>566.0</ele><time>2026-04-18T06:40:57.999Z</time></trkpt><trkpt lat="44.5892681" lon="9.2835499"><ele>568.0</ele><time>2026-04-18T06:40:58.999Z</time></trkpt><trkpt lat="44.5892564" lon="9.2837553"><ele>568.0</ele><time>2026-04-18T06:40:59.999Z</time></trkpt><trkpt lat="44.5892595" lon="9.2839573"><ele>568.0</ele><time>2026-04-18T06:41:00.999Z</time></trkpt><trkpt lat="44.5892912" lon="9.2841581"><ele>568.0</ele><time>2026-04-18T06:41:01.999Z</time></trkpt><trkpt lat="44.5893491" lon="9.2843483"><ele>568.0</ele><time>2026-04-18T06:41:02.999Z</time></trkpt><trkpt lat="44.5894165" lon="9.2845396"><ele>568.0</ele><time>2026-04-18T06:41:03.999Z</time></trkpt><trkpt lat="44.5894879" lon="9.2847267"><ele>568.0</ele><time>2026-04-18T06:41:04.999Z</time></trkpt><trkpt lat="44.5895541" lon="9.2849155"><ele>568.0</ele><time>2026-04-18T06:41:05.999Z</time></trkpt><trkpt lat="44.5896178" lon="9.2850991"><ele>568.0</ele><time>2026-04-18T06:41:06.999Z</time></trkpt><trkpt lat="44.5896768" lon="9.2852704"><ele>565.75</ele><time>2026-04-18T06:41:07.999Z</time></trkpt><trkpt lat="44.5897454" lon="9.285424"><ele>563.5</ele><time>2026-04-18T06:41:08.999Z</time></trkpt><trkpt lat="44.5898288" lon="9.2855574"><ele>561.25</ele><time>2026-04-18T06:41:09.999Z</time></trkpt><trkpt lat="44.5899235" lon="9.2856784"><ele>559.0</ele><time>2026-04-18T06:41:10.999Z</time></trkpt><trkpt lat="44.5900201" lon="9.2857877"><ele>559.0</ele><time>2026-04-18T06:41:11.999Z</time></trkpt><trkpt lat="44.5901179" lon="9.28591"><ele>559.0</ele><time>2026-04-18T06:41:12.999Z</time></trkpt><trkpt lat="44.5902029" lon="9.2860538"><ele>559.0</ele><time>2026-04-18T06:41:13.999Z</time></trkpt><trkpt lat="44.5902745" lon="9.2862121"><ele>559.0</ele><time>2026-04-18T06:41:14.999Z</time></trkpt><trkpt lat="44.5903465" lon="9.2863696"><ele>556.0</ele><time>2026-04-18T06:41:15.999Z</time></trkpt><trkpt lat="44.590402" lon="9.2865257"><ele>553.0</ele><time>2026-04-18T06:41:16.999Z</time></trkpt><trkpt lat="44.5904712" lon="9.2866676"><ele>550.0</ele><time>2026-04-18T06:41:17.999Z</time></trkpt><trkpt lat="44.5905278" lon="9.2868236"><ele>547.0</ele><time>2026-04-18T06:41:18.999Z</time></trkpt><trkpt lat="44.590572" lon="9.286976"><ele>547.0</ele><time>2026-04-18T06:41:19.999Z</time></trkpt><trkpt lat="44.5906177" lon="9.2871113"><ele>547.0</ele><time>2026-04-18T06:41:20.999Z</time></trkpt><trkpt lat="44.5906647" lon="9.2872505"><ele>547.0</ele><time>2026-04-18T06:41:22Z</time></trkpt><trkpt lat="44.5907096" lon="9.2873873"><ele>547.0</ele><time>2026-04-18T06:41:22.999Z</time></trkpt><trkpt lat="44.5907543" lon="9.2875245"><ele>547.0</ele><time>2026-04-18T06:41:23.999Z</time></trkpt><trkpt lat="44.5907984" lon="9.2876631"><ele>548.2</ele><time>2026-04-18T06:41:25Z</time></trkpt><trkpt lat="44.5908322" lon="9.2878008"><ele>549.4000000000001</ele><time>2026-04-18T06:41:25.999Z</time></trkpt><trkpt lat="44.5908775" lon="9.2879353"><ele>550.5999999999999</ele><time>2026-04-18T06:41:26.999Z</time></trkpt><trkpt lat="44.5909205" lon="9.2880693"><ele>551.8</ele><time>2026-04-18T06:41:27.999Z</time></trkpt><trkpt lat="44.5909735" lon="9.2881968"><ele>553.0</ele><time>2026-04-18T06:41:28.999Z</time></trkpt><trkpt lat="44.591049" lon="9.2882878"><ele>552.25</ele><time>2026-04-18T06:41:29.999Z</time></trkpt><trkpt lat="44.5911313" lon="9.2883736"><ele>551.5</ele><time>2026-04-18T06:41:30.999Z</time></trkpt><trkpt lat="44.591238" lon="9.2884562"><ele>550.75</ele><time>2026-04-18T06:41:31.999Z</time></trkpt><trkpt lat="44.5913441" lon="9.288519"><ele>550.0</ele><time>2026-04-18T06:41:32.999Z</time></trkpt><trkpt lat="44.5914562" lon="9.2885905"><ele>550.0</ele><time>2026-04-18T06:41:33.999Z</time></trkpt><trkpt lat="44.5915693" lon="9.2886663"><ele>550.0</ele><time>2026-04-18T06:41:34.999Z</time></trkpt><trkpt lat="44.5916733" lon="9.2887229"><ele>550.0</ele><time>2026-04-18T06:41:35.999Z</time></trkpt><trkpt lat="44.5917906" lon="9.2887774"><ele>550.0</ele><time>2026-04-18T06:41:36.999Z</time></trkpt><trkpt lat="44.5919052" lon="9.2888007"><ele>548.6</ele><time>2026-04-18T06:41:37.999Z</time></trkpt><trkpt lat="44.5920195" lon="9.2887909"><ele>547.2</ele><time>2026-04-18T06:41:38.999Z</time></trkpt><trkpt lat="44.5921224" lon="9.2887582"><ele>545.8</ele><time>2026-04-18T06:41:39.999Z</time></trkpt><trkpt lat="44.5922248" lon="9.2887217"><ele>544.4</ele><time>2026-04-18T06:41:40.999Z</time></trkpt><trkpt lat="44.5923408" lon="9.2887001"><ele>543.0</ele><time>2026-04-18T06:41:41.999Z</time></trkpt><trkpt lat="44.5924602" lon="9.288684"><ele>543.0</ele><time>2026-04-18T06:41:42.999Z</time></trkpt><trkpt lat="44.5925629" lon="9.2886829"><ele>543.0</ele><time>2026-04-18T06:41:43.999Z</time></trkpt><trkpt lat="44.5926704" lon="9.2887412"><ele>543.0</ele><time>2026-04-18T06:41:44.999Z</time></trkpt><trkpt lat="44.5927743" lon="9.2888027"><ele>543.0</ele><time>2026-04-18T06:41:45.999Z</time></trkpt><trkpt lat="44.5928481" lon="9.288906"><ele>543.0</ele><time>2026-04-18T06:41:46.999Z</time></trkpt><trkpt lat="44.5929227" lon="9.2890298"><ele>544.0</ele><time>2026-04-18T06:41:47.999Z</time></trkpt><trkpt lat="44.593003" lon="9.2891719"><ele>545.0</ele><time>2026-04-18T06:41:48.999Z</time></trkpt><trkpt lat="44.5930874" lon="9.2893338"><ele>546.0</ele><time>2026-04-18T06:41:49.999Z</time></trkpt><trkpt lat="44.5931873" lon="9.2895269"><ele>547.0</ele><time>2026-04-18T06:41:50.999Z</time></trkpt><trkpt lat="44.5932916" lon="9.2897496"><ele>552.3333333333334</ele><time>2026-04-18T06:41:51.999Z</time></trkpt><trkpt lat="44.5934044" lon="9.2899717"><ele>557.6666666666666</ele><time>2026-04-18T06:41:52.999Z</time></trkpt><trkpt lat="44.5935151" lon="9.2901854"><ele>563.0</ele><time>2026-04-18T06:41:53.999Z</time></trkpt><trkpt lat="44.5936321" lon="9.2903892"><ele>555.0</ele><time>2026-04-18T06:41:54.999Z</time></trkpt><trkpt lat="44.5937371" lon="9.2906172"><ele>547.0</ele><time>2026-04-18T06:41:55.999Z</time></trkpt><trkpt lat="44.5938236" lon="9.2908274"><ele>539.0</ele><time>2026-04-18T06:41:56.999Z</time></trkpt><trkpt lat="44.5938889" lon="9.2910483"><ele>539.0</ele><time>2026-04-18T06:41:57.999Z</time></trkpt><trkpt lat="44.5939523" lon="9.2912663"><ele>539.0</ele><time>2026-04-18T06:41:58.999Z</time></trkpt><trkpt lat="44.5940072" lon="9.2914747"><ele>539.0</ele><time>2026-04-18T06:41:59.999Z</time></trkpt><trkpt lat="44.5940617" lon="9.2916661"><ele>542.75</ele><time>2026-04-18T06:42:00.999Z</time></trkpt><trkpt lat="44.594133" lon="9.2918414"><ele>546.5</ele><time>2026-04-18T06:42:01.999Z</time></trkpt><trkpt lat="44.5942162" lon="9.2920093"><ele>550.25</ele><time>2026-04-18T06:42:02.999Z</time></trkpt><trkpt lat="44.5943169" lon="9.2921132"><ele>554.0</ele><time>2026-04-18T06:42:03.999Z</time></trkpt><trkpt lat="44.5944259" lon="9.2922108"><ele>554.25</ele><time>2026-04-18T06:42:04.999Z</time></trkpt><trkpt lat="44.5945516" lon="9.2922572"><ele>554.5</ele><time>2026-04-18T06:42:05.999Z</time></trkpt><trkpt lat="44.5946887" lon="9.29229"><ele>554.75</ele><time>2026-04-18T06:42:06.999Z</time></trkpt><trkpt lat="44.5948222" lon="9.2923491"><ele>555.0</ele><time>2026-04-18T06:42:07.999Z</time></trkpt><trkpt lat="44.5949471" lon="9.2924257"><ele>555.0</ele><time>2026-04-18T06:42:08.999Z</time></trkpt><trkpt lat="44.5950587" lon="9.2925432"><ele>555.0</ele><time>2026-04-18T06:42:09.999Z</time></trkpt><trkpt lat="44.595162" lon="9.2926304"><ele>555.0</ele><time>2026-04-18T06:42:10.999Z</time></trkpt><trkpt lat="44.5952816" lon="9.292703"><ele>555.0</ele><time>2026-04-18T06:42:11.999Z</time></trkpt><trkpt lat="44.5954111" lon="9.2927359"><ele>548.6666666666666</ele><time>2026-04-18T06:42:12.999Z</time></trkpt><trkpt lat="44.5955732" lon="9.2927849"><ele>542.3333333333333</ele><time>2026-04-18T06:42:13.999Z</time></trkpt><trkpt lat="44.5957397" lon="9.2928315"><ele>536.0</ele><time>2026-04-18T06:42:14.999Z</time></trkpt><trkpt lat="44.5958943" lon="9.2928825"><ele>536.0</ele><time>2026-04-18T06:42:15.999Z</time></trkpt><trkpt lat="44.5960606" lon="9.2929301"><ele>536.0</ele><time>2026-04-18T06:42:16.999Z</time></trkpt><trkpt lat="44.596222" lon="9.2929711"><ele>536.0</ele><time>2026-04-18T06:42:17.999Z</time></trkpt><trkpt lat="44.5963859" lon="9.2930132"><ele>535.3333333333333</ele><time>2026-04-18T06:42:18.999Z</time></trkpt><trkpt lat="44.5965577" lon="9.2930809"><ele>534.6666666666666</ele><time>2026-04-18T06:42:19.999Z</time></trkpt><trkpt lat="44.5967245" lon="9.293145"><ele>534.0</ele><time>2026-04-18T06:42:20.999Z</time></trkpt><trkpt lat="44.5968991" lon="9.2932186"><ele>537.3333333333334</ele><time>2026-04-18T06:42:21.999Z</time></trkpt><trkpt lat="44.5970571" lon="9.2933122"><ele>540.6666666666667</ele><time>2026-04-18T06:42:22.999Z</time></trkpt><trkpt lat="44.5972139" lon="9.2934091"><ele>544.0</ele><time>2026-04-18T06:42:23.999Z</time></trkpt><trkpt lat="44.5973718" lon="9.2935049"><ele>544.0</ele><time>2026-04-18T06:42:24.999Z</time></trkpt><trkpt lat="44.5975193" lon="9.2935907"><ele>544.0</ele><time>2026-04-18T06:42:25.999Z</time></trkpt><trkpt lat="44.5976736" lon="9.2936373"><ele>544.0</ele><time>2026-04-18T06:42:26.999Z</time></trkpt><trkpt lat="44.5978228" lon="9.2936619"><ele>544.6666666666667</ele><time>2026-04-18T06:42:27.999Z</time></trkpt><trkpt lat="44.5979831" lon="9.2936468"><ele>545.3333333333334</ele><time>2026-04-18T06:42:28.999Z</time></trkpt><trkpt lat="44.5981436" lon="9.2935961"><ele>546.0</ele><time>2026-04-18T06:42:29.999Z</time></trkpt><trkpt lat="44.5983135" lon="9.2935164"><ele>546.0</ele><time>2026-04-18T06:42:30.999Z</time></trkpt><trkpt lat="44.5984755" lon="9.2934266"><ele>546.0</ele><time>2026-04-18T06:42:31.999Z</time></trkpt><trkpt lat="44.5986476" lon="9.2933303"><ele>546.0</ele><time>2026-04-18T06:42:32.999Z</time></trkpt><trkpt lat="44.5988033" lon="9.2932402"><ele>548.6666666666666</ele><time>2026-04-18T06:42:33.999Z</time></trkpt><trkpt lat="44.5989691" lon="9.2931517"><ele>551.3333333333333</ele><time>2026-04-18T06:42:34.999Z</time></trkpt><trkpt lat="44.5991195" lon="9.2930622"><ele>554.0</ele><time>2026-04-18T06:42:35.999Z</time></trkpt><trkpt lat="44.5992703" lon="9.2929772"><ele>556.75</ele><time>2026-04-18T06:42:36.999Z</time></trkpt><trkpt lat="44.5993984" lon="9.2928864"><ele>559.5</ele><time>2026-04-18T06:42:37.999Z</time></trkpt><trkpt lat="44.5994844" lon="9.2927626"><ele>562.25</ele><time>2026-04-18T06:42:38.999Z</time></trkpt><trkpt lat="44.599562" lon="9.2926202"><ele>565.0</ele><time>2026-04-18T06:42:39.999Z</time></trkpt><trkpt lat="44.5996346" lon="9.2924511"><ele>558.0</ele><time>2026-04-18T06:42:40.999Z</time></trkpt><trkpt lat="44.5997093" lon="9.2922521"><ele>551.0</ele><time>2026-04-18T06:42:41.999Z</time></trkpt><trkpt lat="44.5997827" lon="9.2920402"><ele>544.0</ele><time>2026-04-18T06:42:42.999Z</time></trkpt><trkpt lat="44.5998641" lon="9.291855"><ele>544.0</ele><time>2026-04-18T06:42:43.999Z</time></trkpt><trkpt lat="44.5999533" lon="9.2916617"><ele>544.0</ele><time>2026-04-18T06:42:44.999Z</time></trkpt><trkpt lat="44.6000431" lon="9.2914724"><ele>544.0</ele><time>2026-04-18T06:42:45.999Z</time></trkpt><trkpt lat="44.6001334" lon="9.291284"><ele>544.6666666666667</ele><time>2026-04-18T06:42:46.999Z</time></trkpt><trkpt lat="44.6002145" lon="9.2910981"><ele>545.3333333333334</ele><time>2026-04-18T06:42:47.999Z</time></trkpt><trkpt lat="44.6003151" lon="9.2909295"><ele>546.0</ele><time>2026-04-18T06:42:48.999Z</time></trkpt><trkpt lat="44.6004202" lon="9.2907533"><ele>546.0</ele><time>2026-04-18T06:42:49.999Z</time></trkpt><trkpt lat="44.6005663" lon="9.2906568"><ele>546.0</ele><time>2026-04-18T06:42:50.999Z</time></trkpt><trkpt lat="44.6007032" lon="9.2905559"><ele>546.0</ele><time>2026-04-18T06:42:51.999Z</time></trkpt><trkpt lat="44.6008576" lon="9.2905032"><ele>541.0</ele><time>2026-04-18T06:42:52.999Z</time></trkpt><trkpt lat="44.6010095" lon="9.2904451"><ele>536.0</ele><time>2026-04-18T06:42:53.999Z</time></trkpt><trkpt lat="44.6011545" lon="9.2903895"><ele>531.0</ele><time>2026-04-18T06:42:54.999Z</time></trkpt><trkpt lat="44.6013035" lon="9.2903608"><ele>531.0</ele><time>2026-04-18T06:42:55.999Z</time></trkpt><trkpt lat="44.6014553" lon="9.2903393"><ele>531.0</ele><time>2026-04-18T06:42:56.999Z</time></trkpt><trkpt lat="44.6016091" lon="9.2903736"><ele>531.0</ele><time>2026-04-18T06:42:57.999Z</time></trkpt><trkpt lat="44.6017704" lon="9.2904278"><ele>531.0</ele><time>2026-04-18T06:42:58.999Z</time></trkpt><trkpt lat="44.6019156" lon="9.2904899"><ele>531.0</ele><time>2026-04-18T06:42:59.999Z</time></trkpt><trkpt lat="44.6020591" lon="9.2905437"><ele>531.0</ele><time>2026-04-18T06:43:00.999Z</time></trkpt><trkpt lat="44.6022043" lon="9.2906121"><ele>531.0</ele><time>2026-04-18T06:43:01.999Z</time></trkpt><trkpt lat="44.6023483" lon="9.2906883"><ele>531.0</ele><time>2026-04-18T06:43:02.999Z</time></trkpt><trkpt lat="44.6025008" lon="9.2907606"><ele>531.0</ele><time>2026-04-18T06:43:03.999Z</time></trkpt><trkpt lat="44.6026489" lon="9.2908262"><ele>531.0</ele><time>2026-04-18T06:43:04.999Z</time></trkpt><trkpt lat="44.6027992" lon="9.2909094"><ele>531.0</ele><time>2026-04-18T06:43:05.999Z</time></trkpt><trkpt lat="44.6029596" lon="9.2909884"><ele>531.0</ele><time>2026-04-18T06:43:06.999Z</time></trkpt><trkpt lat="44.6031107" lon="9.2910681"><ele>528.0</ele><time>2026-04-18T06:43:08Z</time></trkpt><trkpt lat="44.6032678" lon="9.2911453"><ele>525.0</ele><time>2026-04-18T06:43:08.999Z</time></trkpt><trkpt lat="44.6034258" lon="9.2912272"><ele>522.0</ele><time>2026-04-18T06:43:09.999Z</time></trkpt><trkpt lat="44.6035816" lon="9.2913064"><ele>523.0</ele><time>2026-04-18T06:43:10.999Z</time></trkpt><trkpt lat="44.6037357" lon="9.2913836"><ele>524.0</ele><time>2026-04-18T06:43:11.999Z</time></trkpt><trkpt lat="44.603887" lon="9.2914598"><ele>525.0</ele><time>2026-04-18T06:43:12.999Z</time></trkpt><trkpt lat="44.6040332" lon="9.2915337"><ele>525.0</ele><time>2026-04-18T06:43:13.999Z</time></trkpt><trkpt lat="44.6041787" lon="9.2916053"><ele>525.0</ele><time>2026-04-18T06:43:14.999Z</time></trkpt><trkpt lat="44.6043131" lon="9.2916692"><ele>525.0</ele><time>2026-04-18T06:43:15.999Z</time></trkpt><trkpt lat="44.6044267" lon="9.2917345"><ele>525.0</ele><time>2026-04-18T06:43:16.999Z</time></trkpt><trkpt lat="44.6045353" lon="9.291807"><ele>525.0</ele><time>2026-04-18T06:43:17.999Z</time></trkpt><trkpt lat="44.6046473" lon="9.2918947"><ele>525.0</ele><time>2026-04-18T06:43:18.999Z</time></trkpt><trkpt lat="44.6047538" lon="9.2920026"><ele>525.0</ele><time>2026-04-18T06:43:19.999Z</time></trkpt><trkpt lat="44.6048458" lon="9.2921299"><ele>525.0</ele><time>2026-04-18T06:43:20.999Z</time></trkpt><trkpt lat="44.604928" lon="9.2922669"><ele>525.0</ele><time>2026-04-18T06:43:21.999Z</time></trkpt><trkpt lat="44.6050095" lon="9.2924164"><ele>525.0</ele><time>2026-04-18T06:43:22.999Z</time></trkpt><trkpt lat="44.6050808" lon="9.2925688"><ele>525.0</ele><time>2026-04-18T06:43:23.999Z</time></trkpt><trkpt lat="44.6051554" lon="9.2927275"><ele>525.0</ele><time>2026-04-18T06:43:24.999Z</time></trkpt><trkpt lat="44.6052271" lon="9.2928803"><ele>525.0</ele><time>2026-04-18T06:43:25.999Z</time></trkpt><trkpt lat="44.6053028" lon="9.2930445"><ele>525.0</ele><time>2026-04-18T06:43:26.999Z</time></trkpt><trkpt lat="44.6053874" lon="9.2932089"><ele>525.0</ele><time>2026-04-18T06:43:27.999Z</time></trkpt><trkpt lat="44.6054654" lon="9.2933733"><ele>525.0</ele><time>2026-04-18T06:43:28.999Z</time></trkpt><trkpt lat="44.6055413" lon="9.2935399"><ele>524.6666666666666</ele><time>2026-04-18T06:43:29.999Z</time></trkpt><trkpt lat="44.6056266" lon="9.2937185"><ele>524.3333333333333</ele><time>2026-04-18T06:43:30.999Z</time></trkpt><trkpt lat="44.6057133" lon="9.2938978"><ele>524.0</ele><time>2026-04-18T06:43:31.999Z</time></trkpt><trkpt lat="44.6058008" lon="9.2940789"><ele>524.0</ele><time>2026-04-18T06:43:32.999Z</time></trkpt><trkpt lat="44.6058865" lon="9.2942671"><ele>524.0</ele><time>2026-04-18T06:43:33.999Z</time></trkpt><trkpt lat="44.6059777" lon="9.2944543"><ele>524.0</ele><time>2026-04-18T06:43:34.999Z</time></trkpt><trkpt lat="44.6060713" lon="9.2946586"><ele>525.6666666666666</ele><time>2026-04-18T06:43:35.999Z</time></trkpt><trkpt lat="44.6061664" lon="9.294856"><ele>527.3333333333334</ele><time>2026-04-18T06:43:36.999Z</time></trkpt><trkpt lat="44.60626" lon="9.2950527"><ele>529.0</ele><time>2026-04-18T06:43:37.999Z</time></trkpt><trkpt lat="44.606352" lon="9.2952462"><ele>529.0</ele><time>2026-04-18T06:43:38.999Z</time></trkpt><trkpt lat="44.6064463" lon="9.2954388"><ele>529.0</ele><time>2026-04-18T06:43:39.999Z</time></trkpt><trkpt lat="44.606543" lon="9.2956366"><ele>529.0</ele><time>2026-04-18T06:43:40.999Z</time></trkpt><trkpt lat="44.6066367" lon="9.2958176"><ele>529.25</ele><time>2026-04-18T06:43:41.999Z</time></trkpt><trkpt lat="44.6067243" lon="9.2959991"><ele>529.5</ele><time>2026-04-18T06:43:42.999Z</time></trkpt><trkpt lat="44.6067957" lon="9.2961759"><ele>529.75</ele><time>2026-04-18T06:43:43.999Z</time></trkpt><trkpt lat="44.6068378" lon="9.2963638"><ele>530.0</ele><time>2026-04-18T06:43:44.999Z</time></trkpt><trkpt lat="44.6068595" lon="9.2965622"><ele>529.0</ele><time>2026-04-18T06:43:45.999Z</time></trkpt><trkpt lat="44.6069044" lon="9.2967549"><ele>528.0</ele><time>2026-04-18T06:43:46.999Z</time></trkpt><trkpt lat="44.606967" lon="9.2969338"><ele>527.0</ele><time>2026-04-18T06:43:47.999Z</time></trkpt><trkpt lat="44.6070488" lon="9.2971142"><ele>526.0</ele><time>2026-04-18T06:43:48.999Z</time></trkpt><trkpt lat="44.6071392" lon="9.2972858"><ele>528.0</ele><time>2026-04-18T06:43:49.999Z</time></trkpt><trkpt lat="44.6072312" lon="9.2974576"><ele>530.0</ele><time>2026-04-18T06:43:50.999Z</time></trkpt><trkpt lat="44.6073206" lon="9.2976173"><ele>532.0</ele><time>2026-04-18T06:43:51.999Z</time></trkpt><trkpt lat="44.6074115" lon="9.2977669"><ele>534.0</ele><time>2026-04-18T06:43:52.999Z</time></trkpt><trkpt lat="44.6075156" lon="9.2978843"><ele>534.0</ele><time>2026-04-18T06:43:53.999Z</time></trkpt><trkpt lat="44.6076287" lon="9.2979857"><ele>534.0</ele><time>2026-04-18T06:43:54.999Z</time></trkpt><trkpt lat="44.6077558" lon="9.298025"><ele>534.0</ele><time>2026-04-18T06:43:55.999Z</time></trkpt><trkpt lat="44.6078643" lon="9.298093"><ele>534.0</ele><time>2026-04-18T06:43:56.999Z</time></trkpt><trkpt lat="44.6079555" lon="9.2981749"><ele>538.75</ele><time>2026-04-18T06:43:57.999Z</time></trkpt><trkpt lat="44.6080298" lon="9.2983027"><ele>543.5</ele><time>2026-04-18T06:43:58.999Z</time></trkpt><trkpt lat="44.6080822" lon="9.2984717"><ele>548.25</ele><time>2026-04-18T06:43:59.999Z</time></trkpt><trkpt lat="44.6081132" lon="9.2986669"><ele>553.0</ele><time>2026-04-18T06:44:00.999Z</time></trkpt><trkpt lat="44.608144" lon="9.2988729"><ele>551.5</ele><time>2026-04-18T06:44:01.999Z</time></trkpt><trkpt lat="44.6081746" lon="9.2990724"><ele>550.0</ele><time>2026-04-18T06:44:02.999Z</time></trkpt><trkpt lat="44.6082016" lon="9.2992795"><ele>548.5</ele><time>2026-04-18T06:44:03.999Z</time></trkpt><trkpt lat="44.6082298" lon="9.2994901"><ele>547.0</ele><time>2026-04-18T06:44:04.999Z</time></trkpt><trkpt lat="44.6082582" lon="9.2996987"><ele>545.0</ele><time>2026-04-18T06:44:05.999Z</time></trkpt><trkpt lat="44.6082843" lon="9.2999148"><ele>543.0</ele><time>2026-04-18T06:44:06.999Z</time></trkpt><trkpt lat="44.6083035" lon="9.3001208"><ele>541.0</ele><time>2026-04-18T06:44:07.999Z</time></trkpt><trkpt lat="44.6083152" lon="9.3003422"><ele>541.0</ele><time>2026-04-18T06:44:08.999Z</time></trkpt><trkpt lat="44.608325" lon="9.3005616"><ele>541.0</ele><time>2026-04-18T06:44:09.999Z</time></trkpt><trkpt lat="44.6083282" lon="9.3007867"><ele>541.0</ele><time>2026-04-18T06:44:10.999Z</time></trkpt><trkpt lat="44.6083357" lon="9.3010126"><ele>538.3333333333334</ele><time>2026-04-18T06:44:11.999Z</time></trkpt><trkpt lat="44.6083501" lon="9.3012385"><ele>535.6666666666666</ele><time>2026-04-18T06:44:12.999Z</time></trkpt><trkpt lat="44.6083718" lon="9.3014659"><ele>533.0</ele><time>2026-04-18T06:44:14Z</time></trkpt><trkpt lat="44.6083943" lon="9.3016873"><ele>532.6666666666666</ele><time>2026-04-18T06:44:14.999Z</time></trkpt><trkpt lat="44.6084216" lon="9.3019076"><ele>532.3333333333334</ele><time>2026-04-18T06:44:15.999Z</time></trkpt><trkpt lat="44.6084501" lon="9.3021223"><ele>532.0</ele><time>2026-04-18T06:44:16.999Z</time></trkpt><trkpt lat="44.6084736" lon="9.3023243"><ele>532.0</ele><time>2026-04-18T06:44:17.999Z</time></trkpt><trkpt lat="44.6084875" lon="9.3025061"><ele>532.0</ele><time>2026-04-18T06:44:18.999Z</time></trkpt><trkpt lat="44.6084707" lon="9.3026751"><ele>532.0</ele><time>2026-04-18T06:44:19.999Z</time></trkpt><trkpt lat="44.6084308" lon="9.3028509"><ele>532.0</ele><time>2026-04-18T06:44:20.999Z</time></trkpt><trkpt lat="44.6083599" lon="9.3029974"><ele>532.5</ele><time>2026-04-18T06:44:21.999Z</time></trkpt><trkpt lat="44.6082916" lon="9.3031729"><ele>533.0</ele><time>2026-04-18T06:44:22.999Z</time></trkpt><trkpt lat="44.6082137" lon="9.3033493"><ele>533.5</ele><time>2026-04-18T06:44:23.999Z</time></trkpt><trkpt lat="44.6081264" lon="9.3035266"><ele>534.0</ele><time>2026-04-18T06:44:24.999Z</time></trkpt><trkpt lat="44.6080104" lon="9.3036704"><ele>534.0</ele><time>2026-04-18T06:44:25.999Z</time></trkpt><trkpt lat="44.6078893" lon="9.3038221"><ele>534.0</ele><time>2026-04-18T06:44:26.999Z</time></trkpt><trkpt lat="44.6077643" lon="9.3039417"><ele>534.0</ele><time>2026-04-18T06:44:27.999Z</time></trkpt><trkpt lat="44.6076438" lon="9.3040593"><ele>533.6666666666666</ele><time>2026-04-18T06:44:28.999Z</time></trkpt><trkpt lat="44.6074961" lon="9.3041662"><ele>533.3333333333333</ele><time>2026-04-18T06:44:29.999Z</time></trkpt><trkpt lat="44.6073392" lon="9.3042577"><ele>533.0</ele><time>2026-04-18T06:44:30.999Z</time></trkpt><trkpt lat="44.6071928" lon="9.3042769"><ele>533.0</ele><time>2026-04-18T06:44:31.999Z</time></trkpt><trkpt lat="44.607052" lon="9.3042819"><ele>533.0</ele><time>2026-04-18T06:44:32.999Z</time></trkpt><trkpt lat="44.6069262" lon="9.3042915"><ele>533.0</ele><time>2026-04-18T06:44:33.999Z</time></trkpt><trkpt lat="44.6068213" lon="9.304329"><ele>533.0</ele><time>2026-04-18T06:44:34.999Z</time></trkpt><trkpt lat="44.6067242" lon="9.3044239"><ele>531.5</ele><time>2026-04-18T06:44:35.999Z</time></trkpt><trkpt lat="44.606657" lon="9.3045478"><ele>530.0</ele><time>2026-04-18T06:44:37Z</time></trkpt><trkpt lat="44.6066459" lon="9.3047111"><ele>528.5</ele><time>2026-04-18T06:44:37.999Z</time></trkpt><trkpt lat="44.6066454" lon="9.3048955"><ele>527.0</ele><time>2026-04-18T06:44:38.999Z</time></trkpt><trkpt lat="44.6066619" lon="9.3050766"><ele>527.0</ele><time>2026-04-18T06:44:39.999Z</time></trkpt><trkpt lat="44.606685" lon="9.3052688"><ele>527.0</ele><time>2026-04-18T06:44:40.999Z</time></trkpt><trkpt lat="44.606717" lon="9.3054871"><ele>527.0</ele><time>2026-04-18T06:44:41.999Z</time></trkpt><trkpt lat="44.6067472" lon="9.3056846"><ele>527.0</ele><time>2026-04-18T06:44:42.999Z</time></trkpt><trkpt lat="44.6067811" lon="9.3058811"><ele>527.0</ele><time>2026-04-18T06:44:43.999Z</time></trkpt><trkpt lat="44.6068241" lon="9.3060829"><ele>527.0</ele><time>2026-04-18T06:44:44.999Z</time></trkpt><trkpt lat="44.6068757" lon="9.306255"><ele>527.0</ele><time>2026-04-18T06:44:45.999Z</time></trkpt><trkpt lat="44.6069528" lon="9.3064166"><ele>527.0</ele><time>2026-04-18T06:44:46.999Z</time></trkpt><trkpt lat="44.6070433" lon="9.3065638"><ele>526.75</ele><time>2026-04-18T06:44:47.999Z</time></trkpt><trkpt lat="44.6071645" lon="9.3067086"><ele>526.5</ele><time>2026-04-18T06:44:48.999Z</time></trkpt><trkpt lat="44.6072854" lon="9.3068388"><ele>526.25</ele><time>2026-04-18T06:44:49.999Z</time></trkpt><trkpt lat="44.6073976" lon="9.3068926"><ele>526.0</ele><time>2026-04-18T06:44:50.999Z</time></trkpt><trkpt lat="44.6075228" lon="9.3069635"><ele>526.0</ele><time>2026-04-18T06:44:51.999Z</time></trkpt><trkpt lat="44.6077033" lon="9.3069688"><ele>526.0</ele><time>2026-04-18T06:44:52.999Z</time></trkpt><trkpt lat="44.6078633" lon="9.306979"><ele>526.0</ele><time>2026-04-18T06:44:53.999Z</time></trkpt><trkpt lat="44.6080282" lon="9.3069828"><ele>526.6666666666667</ele><time>2026-04-18T06:44:54.999Z</time></trkpt><trkpt lat="44.608189" lon="9.3070015"><ele>527.3333333333334</ele><time>2026-04-18T06:44:55.999Z</time></trkpt><trkpt lat="44.6083517" lon="9.3070317"><ele>528.0</ele><time>2026-04-18T06:44:56.999Z</time></trkpt><trkpt lat="44.6085142" lon="9.3070624"><ele>528.0</ele><time>2026-04-18T06:44:57.999Z</time></trkpt><trkpt lat="44.6086557" lon="9.3070498"><ele>528.0</ele><time>2026-04-18T06:44:58.999Z</time></trkpt><trkpt lat="44.6088044" lon="9.3070087"><ele>528.0</ele><time>2026-04-18T06:44:59.999Z</time></trkpt><trkpt lat="44.6089472" lon="9.3069588"><ele>528.0</ele><time>2026-04-18T06:45:00.999Z</time></trkpt><trkpt lat="44.6090931" lon="9.3069027"><ele>528.6666666666666</ele><time>2026-04-18T06:45:01.999Z</time></trkpt><trkpt lat="44.6092424" lon="9.306861"><ele>529.3333333333333</ele><time>2026-04-18T06:45:02.999Z</time></trkpt><trkpt lat="44.6093952" lon="9.3068139"><ele>530.0</ele><time>2026-04-18T06:45:03.999Z</time></trkpt><trkpt lat="44.6095396" lon="9.3067827"><ele>531.25</ele><time>2026-04-18T06:45:04.999Z</time></trkpt><trkpt lat="44.6096922" lon="9.3067416"><ele>532.5</ele><time>2026-04-18T06:45:05.999Z</time></trkpt><trkpt lat="44.6098353" lon="9.3067167"><ele>533.75</ele><time>2026-04-18T06:45:06.999Z</time></trkpt><trkpt lat="44.6099756" lon="9.3066931"><ele>535.0</ele><time>2026-04-18T06:45:07.999Z</time></trkpt><trkpt lat="44.6100965" lon="9.3066858"><ele>535.0</ele><time>2026-04-18T06:45:08.999Z</time></trkpt><trkpt lat="44.6102237" lon="9.3067016"><ele>535.0</ele><time>2026-04-18T06:45:09.999Z</time></trkpt><trkpt lat="44.6103317" lon="9.3067568"><ele>535.0</ele><time>2026-04-18T06:45:10.999Z</time></trkpt><trkpt lat="44.6104304" lon="9.3068235"><ele>535.0</ele><time>2026-04-18T06:45:11.999Z</time></trkpt><trkpt lat="44.6105132" lon="9.3069069"><ele>532.6</ele><time>2026-04-18T06:45:12.999Z</time></trkpt><trkpt lat="44.6105796" lon="9.3070058"><ele>530.2</ele><time>2026-04-18T06:45:13.999Z</time></trkpt><trkpt lat="44.6106044" lon="9.3071232"><ele>527.8</ele><time>2026-04-18T06:45:14.999Z</time></trkpt><trkpt lat="44.610614" lon="9.3072552"><ele>525.4</ele><time>2026-04-18T06:45:15.999Z</time></trkpt><trkpt lat="44.6106157" lon="9.3073831"><ele>523.0</ele><time>2026-04-18T06:45:16.999Z</time></trkpt><trkpt lat="44.6106178" lon="9.3075063"><ele>523.0</ele><time>2026-04-18T06:45:17.999Z</time></trkpt><trkpt lat="44.6106397" lon="9.3076357"><ele>523.0</ele><time>2026-04-18T06:45:18.999Z</time></trkpt><trkpt lat="44.6106802" lon="9.3077544"><ele>523.0</ele><time>2026-04-18T06:45:19.999Z</time></trkpt><trkpt lat="44.6107321" lon="9.3078623"><ele>523.0</ele><time>2026-04-18T06:45:20.999Z</time></trkpt><trkpt lat="44.6107916" lon="9.3079617"><ele>523.0</ele><time>2026-04-18T06:45:21.999Z</time></trkpt><trkpt lat="44.6108577" lon="9.3080641"><ele>524.6</ele><time>2026-04-18T06:45:22.999Z</time></trkpt><trkpt lat="44.6109265" lon="9.3081838"><ele>526.1999999999999</ele><time>2026-04-18T06:45:23.999Z</time></trkpt><trkpt lat="44.6109961" lon="9.3083042"><ele>527.8</ele><time>2026-04-18T06:45:24.999Z</time></trkpt><trkpt lat="44.6110617" lon="9.3084197"><ele>529.4</ele><time>2026-04-18T06:45:25.999Z</time></trkpt><trkpt lat="44.6111174" lon="9.3085177"><ele>531.0</ele><time>2026-04-18T06:45:26.999Z</time></trkpt><trkpt lat="44.6111749" lon="9.3086141"><ele>531.0</ele><time>2026-04-18T06:45:27.999Z</time></trkpt><trkpt lat="44.6112257" lon="9.3087151"><ele>531.0</ele><time>2026-04-18T06:45:28.999Z</time></trkpt><trkpt lat="44.6112457" lon="9.308824"><ele>531.0</ele><time>2026-04-18T06:45:29.999Z</time></trkpt><trkpt lat="44.6112435" lon="9.3089484"><ele>531.0</ele><time>2026-04-18T06:45:30.999Z</time></trkpt><trkpt lat="44.611221" lon="9.3090695"><ele>531.0</ele><time>2026-04-18T06:45:31.999Z</time></trkpt><trkpt lat="44.6111913" lon="9.3092021"><ele>531.0</ele><time>2026-04-18T06:45:32.999Z</time></trkpt><trkpt lat="44.6111666" lon="9.3093369"><ele>527.8</ele><time>2026-04-18T06:45:33.999Z</time></trkpt><trkpt lat="44.6111502" lon="9.3094762"><ele>524.6</ele><time>2026-04-18T06:45:34.999Z</time></trkpt><trkpt lat="44.611138" lon="9.3096252"><ele>521.4</ele><time>2026-04-18T06:45:35.999Z</time></trkpt><trkpt lat="44.6111241" lon="9.309772"><ele>518.2</ele><time>2026-04-18T06:45:36.999Z</time></trkpt><trkpt lat="44.6110959" lon="9.3099019"><ele>515.0</ele><time>2026-04-18T06:45:37.999Z</time></trkpt><trkpt lat="44.6110393" lon="9.3100619"><ele>515.0</ele><time>2026-04-18T06:45:38.999Z</time></trkpt><trkpt lat="44.6109678" lon="9.3102131"><ele>515.0</ele><time>2026-04-18T06:45:39.999Z</time></trkpt><trkpt lat="44.6108822" lon="9.3103861"><ele>515.0</ele><time>2026-04-18T06:45:40.999Z</time></trkpt><trkpt lat="44.610773" lon="9.3105587"><ele>515.0</ele><time>2026-04-18T06:45:41.999Z</time></trkpt><trkpt lat="44.6106583" lon="9.3107071"><ele>513.5</ele><time>2026-04-18T06:45:42.999Z</time></trkpt><trkpt lat="44.6105557" lon="9.3108563"><ele>512.0</ele><time>2026-04-18T06:45:43.999Z</time></trkpt><trkpt lat="44.6104589" lon="9.3110059"><ele>510.5</ele><time>2026-04-18T06:45:44.999Z</time></trkpt><trkpt lat="44.6103641" lon="9.3111425"><ele>509.0</ele><time>2026-04-18T06:45:45.999Z</time></trkpt><trkpt lat="44.6102708" lon="9.3112799"><ele>509.5</ele><time>2026-04-18T06:45:46.999Z</time></trkpt><trkpt lat="44.61019" lon="9.311416"><ele>510.0</ele><time>2026-04-18T06:45:47.999Z</time></trkpt><trkpt lat="44.6101374" lon="9.3115501"><ele>510.5</ele><time>2026-04-18T06:45:48.999Z</time></trkpt><trkpt lat="44.6101113" lon="9.3117074"><ele>511.0</ele><time>2026-04-18T06:45:49.999Z</time></trkpt><trkpt lat="44.6101098" lon="9.3118836"><ele>511.0</ele><time>2026-04-18T06:45:50.999Z</time></trkpt><trkpt lat="44.6101379" lon="9.312049"><ele>511.0</ele><time>2026-04-18T06:45:51.999Z</time></trkpt><trkpt lat="44.6101886" lon="9.3122189"><ele>511.0</ele><time>2026-04-18T06:45:52.999Z</time></trkpt><trkpt lat="44.6102487" lon="9.3123989"><ele>511.0</ele><time>2026-04-18T06:45:53.999Z</time></trkpt><trkpt lat="44.6103074" lon="9.3125979"><ele>516.3333333333334</ele><time>2026-04-18T06:45:54.999Z</time></trkpt><trkpt lat="44.6103645" lon="9.3128079"><ele>521.6666666666666</ele><time>2026-04-18T06:45:55.999Z</time></trkpt><trkpt lat="44.610414" lon="9.3130281"><ele>527.0</ele><time>2026-04-18T06:45:56.999Z</time></trkpt><trkpt lat="44.6104547" lon="9.3132393"><ele>527.0</ele><time>2026-04-18T06:45:57.999Z</time></trkpt><trkpt lat="44.6104864" lon="9.3134535"><ele>527.0</ele><time>2026-04-18T06:45:58.999Z</time></trkpt><trkpt lat="44.6105016" lon="9.3136767"><ele>527.0</ele><time>2026-04-18T06:45:59.999Z</time></trkpt><trkpt lat="44.6105102" lon="9.3138961"><ele>527.0</ele><time>2026-04-18T06:46:00.999Z</time></trkpt><trkpt lat="44.610515" lon="9.3141205"><ele>527.0</ele><time>2026-04-18T06:46:01.999Z</time></trkpt><trkpt lat="44.6105177" lon="9.314339"><ele>527.0</ele><time>2026-04-18T06:46:02.999Z</time></trkpt><trkpt lat="44.6105292" lon="9.3145473"><ele>524.3333333333333</ele><time>2026-04-18T06:46:03.999Z</time></trkpt><trkpt lat="44.6105595" lon="9.314762"><ele>521.6666666666666</ele><time>2026-04-18T06:46:04.999Z</time></trkpt><trkpt lat="44.6106073" lon="9.3149892"><ele>519.0</ele><time>2026-04-18T06:46:05.999Z</time></trkpt><trkpt lat="44.6106557" lon="9.3152182"><ele>519.0</ele><time>2026-04-18T06:46:06.999Z</time></trkpt><trkpt lat="44.6107083" lon="9.3154299"><ele>519.0</ele><time>2026-04-18T06:46:07.999Z</time></trkpt><trkpt lat="44.6107604" lon="9.3156479"><ele>519.0</ele><time>2026-04-18T06:46:08.999Z</time></trkpt><trkpt lat="44.6108024" lon="9.3158703"><ele>518.75</ele><time>2026-04-18T06:46:09.999Z</time></trkpt><trkpt lat="44.6108255" lon="9.3160759"><ele>518.5</ele><time>2026-04-18T06:46:10.999Z</time></trkpt><trkpt lat="44.6108345" lon="9.3162674"><ele>518.25</ele><time>2026-04-18T06:46:11.999Z</time></trkpt><trkpt lat="44.6108204" lon="9.3164446"><ele>518.0</ele><time>2026-04-18T06:46:12.999Z</time></trkpt><trkpt lat="44.6107664" lon="9.3165953"><ele>517.75</ele><time>2026-04-18T06:46:13.999Z</time></trkpt><trkpt lat="44.6107444" lon="9.3167724"><ele>517.5</ele><time>2026-04-18T06:46:14.999Z</time></trkpt><trkpt lat="44.6107461" lon="9.3169514"><ele>517.25</ele><time>2026-04-18T06:46:15.999Z</time></trkpt><trkpt lat="44.6107608" lon="9.3171229"><ele>517.0</ele><time>2026-04-18T06:46:16.999Z</time></trkpt><trkpt lat="44.6107708" lon="9.3173"><ele>515.75</ele><time>2026-04-18T06:46:17.999Z</time></trkpt><trkpt lat="44.6107679" lon="9.3174851"><ele>514.5</ele><time>2026-04-18T06:46:18.999Z</time></trkpt><trkpt lat="44.6107628" lon="9.3176556"><ele>513.25</ele><time>2026-04-18T06:46:19.999Z</time></trkpt><trkpt lat="44.610757" lon="9.3178122"><ele>512.0</ele><time>2026-04-18T06:46:20.999Z</time></trkpt><trkpt lat="44.6107821" lon="9.317952"><ele>510.0</ele><time>2026-04-18T06:46:21.999Z</time></trkpt><trkpt lat="44.6108356" lon="9.3180723"><ele>508.0</ele><time>2026-04-18T06:46:22.999Z</time></trkpt><trkpt lat="44.6109141" lon="9.3181334"><ele>506.0</ele><time>2026-04-18T06:46:23.999Z</time></trkpt><trkpt lat="44.6110369" lon="9.3181995"><ele>504.0</ele><time>2026-04-18T06:46:24.999Z</time></trkpt><trkpt lat="44.6111616" lon="9.3182746"><ele>511.25</ele><time>2026-04-18T06:46:25.999Z</time></trkpt><trkpt lat="44.6112869" lon="9.3183672"><ele>518.5</ele><time>2026-04-18T06:46:26.999Z</time></trkpt><trkpt lat="44.6114094" lon="9.3184755"><ele>525.75</ele><time>2026-04-18T06:46:27.999Z</time></trkpt><trkpt lat="44.6115334" lon="9.318579"><ele>533.0</ele><time>2026-04-18T06:46:28.999Z</time></trkpt><trkpt lat="44.6116424" lon="9.3186855"><ele>533.0</ele><time>2026-04-18T06:46:29.999Z</time></trkpt><trkpt lat="44.611747" lon="9.3187795"><ele>533.0</ele><time>2026-04-18T06:46:30.999Z</time></trkpt><trkpt lat="44.6118325" lon="9.3188852"><ele>533.0</ele><time>2026-04-18T06:46:31.999Z</time></trkpt><trkpt lat="44.611881" lon="9.3190154"><ele>533.0</ele><time>2026-04-18T06:46:32.999Z</time></trkpt><trkpt lat="44.6118928" lon="9.3191655"><ele>531.0</ele><time>2026-04-18T06:46:33.999Z</time></trkpt><trkpt lat="44.6118891" lon="9.3193261"><ele>529.0</ele><time>2026-04-18T06:46:35Z</time></trkpt><trkpt lat="44.6118882" lon="9.3194788"><ele>527.0</ele><time>2026-04-18T06:46:35.999Z</time></trkpt><trkpt lat="44.6118934" lon="9.3196157"><ele>525.0</ele><time>2026-04-18T06:46:36.999Z</time></trkpt><trkpt lat="44.6119311" lon="9.3197495"><ele>523.0</ele><time>2026-04-18T06:46:37.999Z</time></trkpt><trkpt lat="44.6119851" lon="9.3198665"><ele>518.5</ele><time>2026-04-18T06:46:38.999Z</time></trkpt><trkpt lat="44.6120574" lon="9.3199601"><ele>514.0</ele><time>2026-04-18T06:46:39.999Z</time></trkpt><trkpt lat="44.6121937" lon="9.3200328"><ele>509.5</ele><time>2026-04-18T06:46:41Z</time></trkpt><trkpt lat="44.6123165" lon="9.3201353"><ele>505.0</ele><time>2026-04-18T06:46:41.999Z</time></trkpt><trkpt lat="44.6124446" lon="9.3202435"><ele>505.0</ele><time>2026-04-18T06:46:42.999Z</time></trkpt><trkpt lat="44.6125726" lon="9.3203349"><ele>505.0</ele><time>2026-04-18T06:46:43.999Z</time></trkpt><trkpt lat="44.6126872" lon="9.3204496"><ele>505.0</ele><time>2026-04-18T06:46:44.999Z</time></trkpt><trkpt lat="44.6127876" lon="9.320581"><ele>505.0</ele><time>2026-04-18T06:46:45.999Z</time></trkpt><trkpt lat="44.6128451" lon="9.3207488"><ele>504.25</ele><time>2026-04-18T06:46:46.999Z</time></trkpt><trkpt lat="44.6128902" lon="9.3209348"><ele>503.5</ele><time>2026-04-18T06:46:47.999Z</time></trkpt><trkpt lat="44.6129325" lon="9.3211193"><ele>502.75</ele><time>2026-04-18T06:46:48.999Z</time></trkpt><trkpt lat="44.612969" lon="9.3212838"><ele>502.0</ele><time>2026-04-18T06:46:49.999Z</time></trkpt><trkpt lat="44.612995" lon="9.3214195"><ele>505.0</ele><time>2026-04-18T06:46:50.999Z</time></trkpt><trkpt lat="44.6130382" lon="9.3215428"><ele>508.00000000000006</ele><time>2026-04-18T06:46:51.999Z</time></trkpt><trkpt lat="44.6131006" lon="9.3216412"><ele>511.00000000000006</ele><time>2026-04-18T06:46:52.999Z</time></trkpt><trkpt lat="44.6131688" lon="9.3217029"><ele>514.0</ele><time>2026-04-18T06:46:53.999Z</time></trkpt><trkpt lat="44.6132366" lon="9.3217165"><ele>517.0</ele><time>2026-04-18T06:46:54.999Z</time></trkpt><trkpt lat="44.6133922" lon="9.3216858"><ele>517.0</ele><time>2026-04-18T06:46:55.999Z</time></trkpt><trkpt lat="44.6135276" lon="9.321664"><ele>517.0</ele><time>2026-04-18T06:46:56.999Z</time></trkpt><trkpt lat="44.6136969" lon="9.3216159"><ele>517.0</ele><time>2026-04-18T06:46:57.999Z</time></trkpt><trkpt lat="44.6138423" lon="9.3215705"><ele>518.0</ele><time>2026-04-18T06:46:58.999Z</time></trkpt><trkpt lat="44.6139985" lon="9.3215317"><ele>519.0</ele><time>2026-04-18T06:46:59.999Z</time></trkpt><trkpt lat="44.6141451" lon="9.3215041"><ele>520.0</ele><time>2026-04-18T06:47:00.999Z</time></trkpt><trkpt lat="44.6142749" lon="9.3214616"><ele>521.0</ele><time>2026-04-18T06:47:01.999Z</time></trkpt><trkpt lat="44.6144017" lon="9.3214266"><ele>518.5</ele><time>2026-04-18T06:47:02.999Z</time></trkpt><trkpt lat="44.6145268" lon="9.3214084"><ele>516.0</ele><time>2026-04-18T06:47:03.999Z</time></trkpt><trkpt lat="44.6146534" lon="9.3214326"><ele>513.5</ele><time>2026-04-18T06:47:04.999Z</time></trkpt><trkpt lat="44.6147783" lon="9.3214638"><ele>511.0</ele><time>2026-04-18T06:47:05.999Z</time></trkpt><trkpt lat="44.6148952" lon="9.3215798"><ele>511.0</ele><time>2026-04-18T06:47:06.999Z</time></trkpt><trkpt lat="44.6150184" lon="9.3216861"><ele>511.0</ele><time>2026-04-18T06:47:07.999Z</time></trkpt><trkpt lat="44.6151494" lon="9.3217638"><ele>511.0</ele><time>2026-04-18T06:47:08.999Z</time></trkpt><trkpt lat="44.615296" lon="9.3218189"><ele>511.0</ele><time>2026-04-18T06:47:09.999Z</time></trkpt><trkpt lat="44.6154397" lon="9.3218462"><ele>510.33333333333337</ele><time>2026-04-18T06:47:10.999Z</time></trkpt><trkpt lat="44.6156074" lon="9.3218413"><ele>509.66666666666663</ele><time>2026-04-18T06:47:11.999Z</time></trkpt><trkpt lat="44.6157677" lon="9.3218375"><ele>509.0</ele><time>2026-04-18T06:47:12.999Z</time></trkpt><trkpt lat="44.6159326" lon="9.3218281"><ele>509.0</ele><time>2026-04-18T06:47:13.999Z</time></trkpt><trkpt lat="44.6160939" lon="9.3218135"><ele>509.0</ele><time>2026-04-18T06:47:14.999Z</time></trkpt><trkpt lat="44.6162739" lon="9.3218106"><ele>509.0</ele><time>2026-04-18T06:47:15.999Z</time></trkpt><trkpt lat="44.6164317" lon="9.3218074"><ele>507.25</ele><time>2026-04-18T06:47:16.999Z</time></trkpt><trkpt lat="44.6165763" lon="9.3218203"><ele>505.5</ele><time>2026-04-18T06:47:17.999Z</time></trkpt><trkpt lat="44.6167101" lon="9.3218538"><ele>503.75</ele><time>2026-04-18T06:47:18.999Z</time></trkpt><trkpt lat="44.6168464" lon="9.3218994"><ele>502.0</ele><time>2026-04-18T06:47:19.999Z</time></trkpt><trkpt lat="44.6169827" lon="9.3219624"><ele>499.0</ele><time>2026-04-18T06:47:20.999Z</time></trkpt><trkpt lat="44.6171074" lon="9.322045"><ele>496.0</ele><time>2026-04-18T06:47:21.999Z</time></trkpt><trkpt lat="44.6172312" lon="9.3221704"><ele>493.0</ele><time>2026-04-18T06:47:22.999Z</time></trkpt><trkpt lat="44.6173431" lon="9.3223118"><ele>490.0</ele><time>2026-04-18T06:47:23.999Z</time></trkpt><trkpt lat="44.617463" lon="9.3224671"><ele>490.0</ele><time>2026-04-18T06:47:24.999Z</time></trkpt><trkpt lat="44.6175832" lon="9.3226319"><ele>490.0</ele><time>2026-04-18T06:47:25.999Z</time></trkpt><trkpt lat="44.6177068" lon="9.3228006"><ele>490.0</ele><time>2026-04-18T06:47:26.999Z</time></trkpt><trkpt lat="44.617835" lon="9.3229761"><ele>493.0</ele><time>2026-04-18T06:47:27.999Z</time></trkpt><trkpt lat="44.617964" lon="9.3231532"><ele>496.0</ele><time>2026-04-18T06:47:28.999Z</time></trkpt><trkpt lat="44.6180951" lon="9.323329"><ele>499.0</ele><time>2026-04-18T06:47:29.999Z</time></trkpt><trkpt lat="44.6182261" lon="9.3235042"><ele>499.0</ele><time>2026-04-18T06:47:30.999Z</time></trkpt><trkpt lat="44.6183635" lon="9.3236777"><ele>499.0</ele><time>2026-04-18T06:47:31.999Z</time></trkpt><trkpt lat="44.6184968" lon="9.3238551"><ele>499.0</ele><time>2026-04-18T06:47:32.999Z</time></trkpt><trkpt lat="44.6186264" lon="9.3240314"><ele>500.6666666666667</ele><time>2026-04-18T06:47:33.999Z</time></trkpt><trkpt lat="44.6187545" lon="9.3242049"><ele>502.33333333333337</ele><time>2026-04-18T06:47:34.999Z</time></trkpt><trkpt lat="44.6188869" lon="9.3243804"><ele>504.0</ele><time>2026-04-18T06:47:35.999Z</time></trkpt><trkpt lat="44.619019" lon="9.3245574"><ele>500.0</ele><time>2026-04-18T06:47:36.999Z</time></trkpt><trkpt lat="44.619147" lon="9.324738"><ele>496.0</ele><time>2026-04-18T06:47:37.999Z</time></trkpt><trkpt lat="44.6192755" lon="9.3249155"><ele>492.0</ele><time>2026-04-18T06:47:38.999Z</time></trkpt><trkpt lat="44.6194019" lon="9.3250892"><ele>490.66666666666663</ele><time>2026-04-18T06:47:39.999Z</time></trkpt><trkpt lat="44.6195283" lon="9.3252657"><ele>489.3333333333333</ele><time>2026-04-18T06:47:40.999Z</time></trkpt><trkpt lat="44.6196533" lon="9.3254324"><ele>488.0</ele><time>2026-04-18T06:47:41.999Z</time></trkpt><trkpt lat="44.6197824" lon="9.3255946"><ele>488.0</ele><time>2026-04-18T06:47:42.999Z</time></trkpt><trkpt lat="44.6199067" lon="9.3257594"><ele>488.0</ele><time>2026-04-18T06:47:43.999Z</time></trkpt><trkpt lat="44.6200233" lon="9.3259242"><ele>488.0</ele><time>2026-04-18T06:47:44.999Z</time></trkpt><trkpt lat="44.6201463" lon="9.3260893"><ele>488.0</ele><time>2026-04-18T06:47:45.999Z</time></trkpt><trkpt lat="44.620264" lon="9.3262641"><ele>488.0</ele><time>2026-04-18T06:47:46.999Z</time></trkpt><trkpt lat="44.6203765" lon="9.3264472"><ele>488.0</ele><time>2026-04-18T06:47:47.999Z</time></trkpt><trkpt lat="44.6204868" lon="9.3266394"><ele>486.66666666666663</ele><time>2026-04-18T06:47:48.999Z</time></trkpt><trkpt lat="44.620592" lon="9.3268353"><ele>485.33333333333337</ele><time>2026-04-18T06:47:49.999Z</time></trkpt><trkpt lat="44.6206913" lon="9.3270381"><ele>484.0</ele><time>2026-04-18T06:47:50.999Z</time></trkpt><trkpt lat="44.6207867" lon="9.3272556"><ele>483.6666666666667</ele><time>2026-04-18T06:47:51.999Z</time></trkpt><trkpt lat="44.6208816" lon="9.3274731"><ele>483.33333333333337</ele><time>2026-04-18T06:47:52.999Z</time></trkpt><trkpt lat="44.6209748" lon="9.3276878"><ele>483.0</ele><time>2026-04-18T06:47:53.999Z</time></trkpt><trkpt lat="44.6210655" lon="9.3279034"><ele>485.33333333333337</ele><time>2026-04-18T06:47:54.999Z</time></trkpt><trkpt lat="44.6211549" lon="9.3281171"><ele>487.6666666666667</ele><time>2026-04-18T06:47:55.999Z</time></trkpt><trkpt lat="44.6212433" lon="9.3283338"><ele>490.0</ele><time>2026-04-18T06:47:56.999Z</time></trkpt><trkpt lat="44.6213298" lon="9.3285454"><ele>490.0</ele><time>2026-04-18T06:47:57.999Z</time></trkpt><trkpt lat="44.6214129" lon="9.3287555"><ele>490.0</ele><time>2026-04-18T06:47:58.999Z</time></trkpt><trkpt lat="44.6214997" lon="9.3289595"><ele>490.0</ele><time>2026-04-18T06:47:59.999Z</time></trkpt><trkpt lat="44.621595" lon="9.3291527"><ele>488.6666666666667</ele><time>2026-04-18T06:48:00.999Z</time></trkpt><trkpt lat="44.6216912" lon="9.3293487"><ele>487.33333333333337</ele><time>2026-04-18T06:48:01.999Z</time></trkpt><trkpt lat="44.6217943" lon="9.3295254"><ele>486.0</ele><time>2026-04-18T06:48:02.999Z</time></trkpt><trkpt lat="44.6219061" lon="9.3297039"><ele>485.0</ele><time>2026-04-18T06:48:03.999Z</time></trkpt><trkpt lat="44.6220267" lon="9.3298777"><ele>484.0</ele><time>2026-04-18T06:48:04.999Z</time></trkpt><trkpt lat="44.6221539" lon="9.330047"><ele>483.0</ele><time>2026-04-18T06:48:05.999Z</time></trkpt><trkpt lat="44.6222866" lon="9.3302075"><ele>483.0</ele><time>2026-04-18T06:48:06.999Z</time></trkpt><trkpt lat="44.6224256" lon="9.3303531"><ele>483.0</ele><time>2026-04-18T06:48:08Z</time></trkpt><trkpt lat="44.6225738" lon="9.3304921"><ele>483.0</ele><time>2026-04-18T06:48:08.999Z</time></trkpt><trkpt lat="44.6227271" lon="9.3306232"><ele>481.33333333333337</ele><time>2026-04-18T06:48:09.999Z</time></trkpt><trkpt lat="44.6228825" lon="9.3307456"><ele>479.6666666666667</ele><time>2026-04-18T06:48:10.999Z</time></trkpt><trkpt lat="44.6230455" lon="9.3308553"><ele>478.0</ele><time>2026-04-18T06:48:11.999Z</time></trkpt><trkpt lat="44.6232113" lon="9.3309595"><ele>478.0</ele><time>2026-04-18T06:48:12.999Z</time></trkpt><trkpt lat="44.6233765" lon="9.3310581"><ele>478.0</ele><time>2026-04-18T06:48:13.999Z</time></trkpt><trkpt lat="44.6235416" lon="9.3311513"><ele>478.0</ele><time>2026-04-18T06:48:14.999Z</time></trkpt><trkpt lat="44.6237056" lon="9.331245"><ele>478.33333333333337</ele><time>2026-04-18T06:48:15.999Z</time></trkpt><trkpt lat="44.6238749" lon="9.3313422"><ele>478.66666666666663</ele><time>2026-04-18T06:48:16.999Z</time></trkpt><trkpt lat="44.6240413" lon="9.3314406"><ele>479.0</ele><time>2026-04-18T06:48:17.999Z</time></trkpt><trkpt lat="44.6242147" lon="9.3315436"><ele>479.3333333333333</ele><time>2026-04-18T06:48:18.999Z</time></trkpt><trkpt lat="44.6243862" lon="9.3316382"><ele>479.66666666666663</ele><time>2026-04-18T06:48:19.999Z</time></trkpt><trkpt lat="44.6245573" lon="9.3317164"><ele>480.0</ele><time>2026-04-18T06:48:20.999Z</time></trkpt><trkpt lat="44.6247301" lon="9.3318026"><ele>480.0</ele><time>2026-04-18T06:48:21.999Z</time></trkpt><trkpt lat="44.6249017" lon="9.3318946"><ele>480.0</ele><time>2026-04-18T06:48:22.999Z</time></trkpt><trkpt lat="44.6250738" lon="9.3319886"><ele>480.0</ele><time>2026-04-18T06:48:24Z</time></trkpt><trkpt lat="44.6252435" lon="9.3320912"><ele>478.0</ele><time>2026-04-18T06:48:24.999Z</time></trkpt><trkpt lat="44.6254141" lon="9.3321781"><ele>476.0</ele><time>2026-04-18T06:48:25.999Z</time></trkpt><trkpt lat="44.6255877" lon="9.3322651"><ele>474.0</ele><time>2026-04-18T06:48:26.999Z</time></trkpt><trkpt lat="44.625764" lon="9.3323653"><ele>474.0</ele><time>2026-04-18T06:48:27.999Z</time></trkpt><trkpt lat="44.625943" lon="9.3324544"><ele>474.0</ele><time>2026-04-18T06:48:28.999Z</time></trkpt><trkpt lat="44.6261257" lon="9.3325317"><ele>474.0</ele><time>2026-04-18T06:48:29.999Z</time></trkpt><trkpt lat="44.6263194" lon="9.3326147"><ele>475.66666666666663</ele><time>2026-04-18T06:48:30.999Z</time></trkpt><trkpt lat="44.6265072" lon="9.3326987"><ele>477.3333333333333</ele><time>2026-04-18T06:48:31.999Z</time></trkpt><trkpt lat="44.6266979" lon="9.3327647"><ele>479.0</ele><time>2026-04-18T06:48:32.999Z</time></trkpt><trkpt lat="44.6268928" lon="9.3328209"><ele>477.0</ele><time>2026-04-18T06:48:33.999Z</time></trkpt><trkpt lat="44.627087" lon="9.3328701"><ele>475.0</ele><time>2026-04-18T06:48:34.999Z</time></trkpt><trkpt lat="44.627292" lon="9.3329157"><ele>473.0</ele><time>2026-04-18T06:48:35.999Z</time></trkpt><trkpt lat="44.6274952" lon="9.3329522"><ele>473.0</ele><time>2026-04-18T06:48:36.999Z</time></trkpt><trkpt lat="44.6276958" lon="9.3329761"><ele>473.0</ele><time>2026-04-18T06:48:37.999Z</time></trkpt><trkpt lat="44.6278991" lon="9.3329912"><ele>473.0</ele><time>2026-04-18T06:48:38.999Z</time></trkpt><trkpt lat="44.6280918" lon="9.3330072"><ele>473.0</ele><time>2026-04-18T06:48:39.999Z</time></trkpt><trkpt lat="44.6282771" lon="9.3330293"><ele>473.0</ele><time>2026-04-18T06:48:40.999Z</time></trkpt><trkpt lat="44.6284724" lon="9.3330466"><ele>473.0</ele><time>2026-04-18T06:48:41.999Z</time></trkpt><trkpt lat="44.6286562" lon="9.3330624"><ele>475.3333333333333</ele><time>2026-04-18T06:48:42.999Z</time></trkpt><trkpt lat="44.6288427" lon="9.3330733"><ele>477.66666666666663</ele><time>2026-04-18T06:48:43.999Z</time></trkpt><trkpt lat="44.6290348" lon="9.3330763"><ele>480.0</ele><time>2026-04-18T06:48:44.999Z</time></trkpt><trkpt lat="44.6292148" lon="9.3330729"><ele>480.0</ele><time>2026-04-18T06:48:45.999Z</time></trkpt><trkpt lat="44.6293986" lon="9.3330568"><ele>480.0</ele><time>2026-04-18T06:48:46.999Z</time></trkpt><trkpt lat="44.6295776" lon="9.3330195"><ele>480.0</ele><time>2026-04-18T06:48:47.999Z</time></trkpt><trkpt lat="44.6297578" lon="9.3329624"><ele>477.0</ele><time>2026-04-18T06:48:48.999Z</time></trkpt><trkpt lat="44.6299408" lon="9.3328837"><ele>474.0</ele><time>2026-04-18T06:48:49.999Z</time></trkpt><trkpt lat="44.6301168" lon="9.3327944"><ele>471.0</ele><time>2026-04-18T06:48:50.999Z</time></trkpt><trkpt lat="44.6302914" lon="9.3326893"><ele>475.66666666666663</ele><time>2026-04-18T06:48:51.999Z</time></trkpt><trkpt lat="44.6304735" lon="9.332571"><ele>480.3333333333333</ele><time>2026-04-18T06:48:52.999Z</time></trkpt><trkpt lat="44.6306542" lon="9.33245"><ele>485.0</ele><time>2026-04-18T06:48:53.999Z</time></trkpt><trkpt lat="44.6308334" lon="9.3323248"><ele>483.3333333333333</ele><time>2026-04-18T06:48:54.999Z</time></trkpt><trkpt lat="44.6310033" lon="9.332199"><ele>481.66666666666663</ele><time>2026-04-18T06:48:55.999Z</time></trkpt><trkpt lat="44.6311693" lon="9.332073"><ele>480.0</ele><time>2026-04-18T06:48:56.999Z</time></trkpt><trkpt lat="44.6313369" lon="9.3319438"><ele>480.0</ele><time>2026-04-18T06:48:57.999Z</time></trkpt><trkpt lat="44.6314968" lon="9.3318057"><ele>480.0</ele><time>2026-04-18T06:48:58.999Z</time></trkpt><trkpt lat="44.6316543" lon="9.3316577"><ele>480.0</ele><time>2026-04-18T06:48:59.999Z</time></trkpt><trkpt lat="44.6318096" lon="9.3315074"><ele>478.66666666666663</ele><time>2026-04-18T06:49:00.999Z</time></trkpt><trkpt lat="44.6319667" lon="9.3313533"><ele>477.3333333333333</ele><time>2026-04-18T06:49:01.999Z</time></trkpt><trkpt lat="44.6321256" lon="9.331193"><ele>476.0</ele><time>2026-04-18T06:49:02.999Z</time></trkpt><trkpt lat="44.6322819" lon="9.331027"><ele>476.0</ele><time>2026-04-18T06:49:03.999Z</time></trkpt><trkpt lat="44.6324387" lon="9.3308675"><ele>476.0</ele><time>2026-04-18T06:49:04.999Z</time></trkpt><trkpt lat="44.6326063" lon="9.3307088"><ele>476.0</ele><time>2026-04-18T06:49:05.999Z</time></trkpt><trkpt lat="44.632773" lon="9.3305577"><ele>474.66666666666663</ele><time>2026-04-18T06:49:06.999Z</time></trkpt><trkpt lat="44.6329437" lon="9.3304258"><ele>473.33333333333337</ele><time>2026-04-18T06:49:07.999Z</time></trkpt><trkpt lat="44.6331092" lon="9.3302851"><ele>472.0</ele><time>2026-04-18T06:49:08.999Z</time></trkpt><trkpt lat="44.6332871" lon="9.3301682"><ele>472.0</ele><time>2026-04-18T06:49:09.999Z</time></trkpt><trkpt lat="44.6334578" lon="9.3300436"><ele>472.0</ele><time>2026-04-18T06:49:10.999Z</time></trkpt><trkpt lat="44.6336191" lon="9.3299127"><ele>472.0</ele><time>2026-04-18T06:49:11.999Z</time></trkpt><trkpt lat="44.6337913" lon="9.32979"><ele>471.0</ele><time>2026-04-18T06:49:12.999Z</time></trkpt><trkpt lat="44.6339629" lon="9.3296735"><ele>470.0</ele><time>2026-04-18T06:49:13.999Z</time></trkpt><trkpt lat="44.6341457" lon="9.3295643"><ele>469.0</ele><time>2026-04-18T06:49:14.999Z</time></trkpt><trkpt lat="44.6343172" lon="9.3294421"><ele>471.6666666666667</ele><time>2026-04-18T06:49:15.999Z</time></trkpt><trkpt lat="44.6344961" lon="9.3293277"><ele>474.33333333333337</ele><time>2026-04-18T06:49:16.999Z</time></trkpt><trkpt lat="44.6346684" lon="9.3292099"><ele>477.0</ele><time>2026-04-18T06:49:17.999Z</time></trkpt><trkpt lat="44.6348306" lon="9.3290914"><ele>477.0</ele><time>2026-04-18T06:49:18.999Z</time></trkpt><trkpt lat="44.6349908" lon="9.3289799"><ele>477.0</ele><time>2026-04-18T06:49:19.999Z</time></trkpt><trkpt lat="44.6351528" lon="9.3288778"><ele>477.0</ele><time>2026-04-18T06:49:20.999Z</time></trkpt><trkpt lat="44.635304" lon="9.3287771"><ele>473.66666666666663</ele><time>2026-04-18T06:49:21.999Z</time></trkpt><trkpt lat="44.635446" lon="9.3286847"><ele>470.3333333333333</ele><time>2026-04-18T06:49:22.999Z</time></trkpt><trkpt lat="44.6355917" lon="9.3286031"><ele>467.0</ele><time>2026-04-18T06:49:23.999Z</time></trkpt><trkpt lat="44.6357587" lon="9.328547"><ele>467.0</ele><time>2026-04-18T06:49:24.999Z</time></trkpt><trkpt lat="44.635926" lon="9.3285082"><ele>467.0</ele><time>2026-04-18T06:49:25.999Z</time></trkpt><trkpt lat="44.6360947" lon="9.3285079"><ele>467.0</ele><time>2026-04-18T06:49:26.999Z</time></trkpt><trkpt lat="44.6362773" lon="9.3285127"><ele>465.66666666666663</ele><time>2026-04-18T06:49:27.999Z</time></trkpt><trkpt lat="44.6364284" lon="9.3285345"><ele>464.33333333333337</ele><time>2026-04-18T06:49:28.999Z</time></trkpt><trkpt lat="44.636595" lon="9.3285796"><ele>463.0</ele><time>2026-04-18T06:49:29.999Z</time></trkpt><trkpt lat="44.6367197" lon="9.3286543"><ele>463.0</ele><time>2026-04-18T06:49:30.999Z</time></trkpt><trkpt lat="44.6368629" lon="9.3287273"><ele>463.0</ele><time>2026-04-18T06:49:31.999Z</time></trkpt><trkpt lat="44.6370022" lon="9.3288161"><ele>463.0</ele><time>2026-04-18T06:49:32.999Z</time></trkpt><trkpt lat="44.637133" lon="9.3289291"><ele>464.6666666666667</ele><time>2026-04-18T06:49:33.999Z</time></trkpt><trkpt lat="44.6372692" lon="9.3290405"><ele>466.33333333333337</ele><time>2026-04-18T06:49:34.999Z</time></trkpt><trkpt lat="44.6374164" lon="9.3291568"><ele>468.0</ele><time>2026-04-18T06:49:36Z</time></trkpt><trkpt lat="44.6375684" lon="9.3292681"><ele>468.0</ele><time>2026-04-18T06:49:36.999Z</time></trkpt><trkpt lat="44.6377164" lon="9.3293855"><ele>468.0</ele><time>2026-04-18T06:49:37.999Z</time></trkpt><trkpt lat="44.6378649" lon="9.3294981"><ele>468.0</ele><time>2026-04-18T06:49:38.999Z</time></trkpt><trkpt lat="44.6380223" lon="9.3296109"><ele>469.66666666666663</ele><time>2026-04-18T06:49:39.999Z</time></trkpt><trkpt lat="44.6381768" lon="9.3297238"><ele>471.3333333333333</ele><time>2026-04-18T06:49:40.999Z</time></trkpt><trkpt lat="44.6383319" lon="9.3298218"><ele>473.0</ele><time>2026-04-18T06:49:41.999Z</time></trkpt><trkpt lat="44.638502" lon="9.329912"><ele>469.0</ele><time>2026-04-18T06:49:42.999Z</time></trkpt><trkpt lat="44.638675" lon="9.3299807"><ele>465.0</ele><time>2026-04-18T06:49:43.999Z</time></trkpt><trkpt lat="44.6388599" lon="9.3300281"><ele>461.0</ele><time>2026-04-18T06:49:44.999Z</time></trkpt><trkpt lat="44.6390452" lon="9.3300533"><ele>461.0</ele><time>2026-04-18T06:49:45.999Z</time></trkpt><trkpt lat="44.6392316" lon="9.3300416"><ele>461.0</ele><time>2026-04-18T06:49:46.999Z</time></trkpt><trkpt lat="44.6394085" lon="9.3300167"><ele>461.0</ele><time>2026-04-18T06:49:47.999Z</time></trkpt><trkpt lat="44.6395861" lon="9.3299775"><ele>460.3333333333333</ele><time>2026-04-18T06:49:48.999Z</time></trkpt><trkpt lat="44.6397622" lon="9.3299251"><ele>459.66666666666663</ele><time>2026-04-18T06:49:50Z</time></trkpt><trkpt lat="44.6399378" lon="9.3298746"><ele>459.0</ele><time>2026-04-18T06:49:50.999Z</time></trkpt><trkpt lat="44.6401072" lon="9.3298258"><ele>459.0</ele><time>2026-04-18T06:49:51.999Z</time></trkpt><trkpt lat="44.6402747" lon="9.3297777"><ele>459.0</ele><time>2026-04-18T06:49:52.999Z</time></trkpt><trkpt lat="44.6404499" lon="9.3297267"><ele>459.0</ele><time>2026-04-18T06:49:53.999Z</time></trkpt><trkpt lat="44.6406267" lon="9.3296825"><ele>461.5</ele><time>2026-04-18T06:49:54.999Z</time></trkpt><trkpt lat="44.6408" lon="9.3296373"><ele>464.0</ele><time>2026-04-18T06:49:56.104Z</time></trkpt><trkpt lat="44.6411661" lon="9.329545"><ele>464.0</ele><time>2026-04-18T06:49:57.999Z</time></trkpt><trkpt lat="44.6413497" lon="9.329498"><ele>464.0</ele><time>2026-04-18T06:49:58.999Z</time></trkpt><trkpt lat="44.6415325" lon="9.3294463"><ele>464.0</ele><time>2026-04-18T06:49:59.999Z</time></trkpt><trkpt lat="44.6417184" lon="9.3293955"><ele>462.5</ele><time>2026-04-18T06:50:01.105Z</time></trkpt><trkpt lat="44.6420996" lon="9.3292948"><ele>461.0</ele><time>2026-04-18T06:50:02.999Z</time></trkpt><trkpt lat="44.6422917" lon="9.3292419"><ele>461.0</ele><time>2026-04-18T06:50:03.999Z</time></trkpt><trkpt lat="44.6424822" lon="9.3291889"><ele>461.0</ele><time>2026-04-18T06:50:04.999Z</time></trkpt><trkpt lat="44.642667" lon="9.329138"><ele>461.0</ele><time>2026-04-18T06:50:05.999Z</time></trkpt><trkpt lat="44.6428481" lon="9.3290906"><ele>460.0</ele><time>2026-04-18T06:50:07.109Z</time></trkpt><trkpt lat="44.6431974" lon="9.3290025"><ele>459.0</ele><time>2026-04-18T06:50:08.999Z</time></trkpt><trkpt lat="44.6433756" lon="9.3289603"><ele>459.0</ele><time>2026-04-18T06:50:09.999Z</time></trkpt><trkpt lat="44.6435545" lon="9.3289155"><ele>459.0</ele><time>2026-04-18T06:50:10.999Z</time></trkpt><trkpt lat="44.6437319" lon="9.3288677"><ele>459.0</ele><time>2026-04-18T06:50:11.999Z</time></trkpt><trkpt lat="44.6439099" lon="9.3288176"><ele>462.33333333333337</ele><time>2026-04-18T06:50:12.999Z</time></trkpt><trkpt lat="44.6440928" lon="9.3287666"><ele>465.6666666666667</ele><time>2026-04-18T06:50:13.999Z</time></trkpt><trkpt lat="44.6442741" lon="9.3287207"><ele>469.0</ele><time>2026-04-18T06:50:14.999Z</time></trkpt><trkpt lat="44.6444531" lon="9.3286712"><ele>468.33333333333337</ele><time>2026-04-18T06:50:15.999Z</time></trkpt><trkpt lat="44.6446266" lon="9.3286241"><ele>467.66666666666663</ele><time>2026-04-18T06:50:16.999Z</time></trkpt><trkpt lat="44.644803" lon="9.3285747"><ele>467.0</ele><time>2026-04-18T06:50:17.999Z</time></trkpt><trkpt lat="44.6449812" lon="9.3285129"><ele>467.0</ele><time>2026-04-18T06:50:18.999Z</time></trkpt><trkpt lat="44.6451563" lon="9.328439"><ele>467.0</ele><time>2026-04-18T06:50:20Z</time></trkpt><trkpt lat="44.6453313" lon="9.3283491"><ele>467.0</ele><time>2026-04-18T06:50:20.999Z</time></trkpt><trkpt lat="44.6455038" lon="9.3282399"><ele>467.66666666666663</ele><time>2026-04-18T06:50:21.999Z</time></trkpt><trkpt lat="44.6456757" lon="9.3281212"><ele>468.33333333333337</ele><time>2026-04-18T06:50:22.999Z</time></trkpt><trkpt lat="44.6458495" lon="9.3280017"><ele>469.0</ele><time>2026-04-18T06:50:23.999Z</time></trkpt><trkpt lat="44.646031" lon="9.3278918"><ele>463.33333333333337</ele><time>2026-04-18T06:50:24.999Z</time></trkpt><trkpt lat="44.6461961" lon="9.3277705"><ele>457.66666666666663</ele><time>2026-04-18T06:50:25.999Z</time></trkpt><trkpt lat="44.6463652" lon="9.3276472"><ele>452.0</ele><time>2026-04-18T06:50:26.999Z</time></trkpt><trkpt lat="44.6465275" lon="9.3275163"><ele>452.0</ele><time>2026-04-18T06:50:27.999Z</time></trkpt><trkpt lat="44.6466914" lon="9.3273846"><ele>452.0</ele><time>2026-04-18T06:50:28.999Z</time></trkpt><trkpt lat="44.6468447" lon="9.3272474"><ele>452.0</ele><time>2026-04-18T06:50:29.999Z</time></trkpt><trkpt lat="44.6469881" lon="9.3271011"><ele>451.0</ele><time>2026-04-18T06:50:30.999Z</time></trkpt><trkpt lat="44.6471305" lon="9.3269298"><ele>450.0</ele><time>2026-04-18T06:50:31.999Z</time></trkpt><trkpt lat="44.6472686" lon="9.3267455"><ele>449.0</ele><time>2026-04-18T06:50:32.999Z</time></trkpt><trkpt lat="44.6473914" lon="9.3265455"><ele>449.0</ele><time>2026-04-18T06:50:33.999Z</time></trkpt><trkpt lat="44.647497" lon="9.3263234"><ele>449.0</ele><time>2026-04-18T06:50:34.999Z</time></trkpt><trkpt lat="44.6475594" lon="9.3260916"><ele>449.0</ele><time>2026-04-18T06:50:35.999Z</time></trkpt><trkpt lat="44.6476364" lon="9.3258548"><ele>449.0</ele><time>2026-04-18T06:50:36.999Z</time></trkpt><trkpt lat="44.6477213" lon="9.3256166"><ele>449.0</ele><time>2026-04-18T06:50:37.999Z</time></trkpt><trkpt lat="44.6478031" lon="9.3253708"><ele>449.0</ele><time>2026-04-18T06:50:38.999Z</time></trkpt><trkpt lat="44.6478697" lon="9.3251185"><ele>450.66666666666663</ele><time>2026-04-18T06:50:39.999Z</time></trkpt><trkpt lat="44.6479452" lon="9.3248703"><ele>452.33333333333337</ele><time>2026-04-18T06:50:40.999Z</time></trkpt><trkpt lat="44.6480141" lon="9.3246265"><ele>454.0</ele><time>2026-04-18T06:50:41.999Z</time></trkpt><trkpt lat="44.6480842" lon="9.3243909"><ele>454.0</ele><time>2026-04-18T06:50:42.999Z</time></trkpt><trkpt lat="44.648155" lon="9.3241413"><ele>454.0</ele><time>2026-04-18T06:50:43.999Z</time></trkpt><trkpt lat="44.6482302" lon="9.3238992"><ele>454.0</ele><time>2026-04-18T06:50:44.999Z</time></trkpt><trkpt lat="44.6483037" lon="9.3236622"><ele>449.5</ele><time>2026-04-18T06:50:46.101Z</time></trkpt><trkpt lat="44.6484472" lon="9.3231783"><ele>445.0</ele><time>2026-04-18T06:50:47.999Z</time></trkpt><trkpt lat="44.6485167" lon="9.3229342"><ele>444.6666666666667</ele><time>2026-04-18T06:50:48.999Z</time></trkpt><trkpt lat="44.6485859" lon="9.322692"><ele>444.33333333333337</ele><time>2026-04-18T06:50:49.999Z</time></trkpt><trkpt lat="44.648658" lon="9.3224542"><ele>444.0</ele><time>2026-04-18T06:50:50.999Z</time></trkpt><trkpt lat="44.6487349" lon="9.3222421"><ele>450.33333333333337</ele><time>2026-04-18T06:50:51.999Z</time></trkpt><trkpt lat="44.6488213" lon="9.322043"><ele>456.6666666666667</ele><time>2026-04-18T06:50:52.999Z</time></trkpt><trkpt lat="44.6489127" lon="9.3218404"><ele>463.0</ele><time>2026-04-18T06:50:53.999Z</time></trkpt><trkpt lat="44.6490076" lon="9.3216419"><ele>463.0</ele><time>2026-04-18T06:50:54.999Z</time></trkpt><trkpt lat="44.6490931" lon="9.3214628"><ele>463.0</ele><time>2026-04-18T06:50:55.999Z</time></trkpt><trkpt lat="44.6491725" lon="9.3212978"><ele>463.0</ele><time>2026-04-18T06:50:57Z</time></trkpt><trkpt lat="44.6492435" lon="9.3211536"><ele>463.0</ele><time>2026-04-18T06:50:57.999Z</time></trkpt><trkpt lat="44.6493186" lon="9.3210202"><ele>462.5</ele><time>2026-04-18T06:50:58.999Z</time></trkpt><trkpt lat="44.6494043" lon="9.3209007"><ele>462.0</ele><time>2026-04-18T06:50:59.999Z</time></trkpt><trkpt lat="44.6495075" lon="9.320806"><ele>461.5</ele><time>2026-04-18T06:51:00.999Z</time></trkpt><trkpt lat="44.6496173" lon="9.3207194"><ele>461.0</ele><time>2026-04-18T06:51:01.999Z</time></trkpt><trkpt lat="44.6497331" lon="9.320636"><ele>458.20000000000005</ele><time>2026-04-18T06:51:02.999Z</time></trkpt><trkpt lat="44.6498426" lon="9.320551"><ele>455.40000000000003</ele><time>2026-04-18T06:51:03.999Z</time></trkpt><trkpt lat="44.6499478" lon="9.3204729"><ele>452.6</ele><time>2026-04-18T06:51:04.999Z</time></trkpt><trkpt lat="44.650054" lon="9.3204476"><ele>449.8</ele><time>2026-04-18T06:51:05.999Z</time></trkpt><trkpt lat="44.6501485" lon="9.3204678"><ele>447.0</ele><time>2026-04-18T06:51:06.999Z</time></trkpt><trkpt lat="44.6502259" lon="9.3205285"><ele>449.3333333333333</ele><time>2026-04-18T06:51:07.999Z</time></trkpt><trkpt lat="44.6502731" lon="9.3206202"><ele>451.66666666666663</ele><time>2026-04-18T06:51:08.999Z</time></trkpt><trkpt lat="44.6502939" lon="9.3207436"><ele>454.0</ele><time>2026-04-18T06:51:09.999Z</time></trkpt><trkpt lat="44.6503151" lon="9.3208622"><ele>456.3333333333333</ele><time>2026-04-18T06:51:10.999Z</time></trkpt><trkpt lat="44.6503634" lon="9.3209672"><ele>458.66666666666663</ele><time>2026-04-18T06:51:11.999Z</time></trkpt><trkpt lat="44.6504205" lon="9.3210611"><ele>461.0</ele><time>2026-04-18T06:51:12.999Z</time></trkpt><trkpt lat="44.6505148" lon="9.3211287"><ele>462.6</ele><time>2026-04-18T06:51:13.999Z</time></trkpt><trkpt lat="44.6506293" lon="9.321193"><ele>464.20000000000005</ele><time>2026-04-18T06:51:14.999Z</time></trkpt><trkpt lat="44.6507308" lon="9.3212442"><ele>465.79999999999995</ele><time>2026-04-18T06:51:15.999Z</time></trkpt><trkpt lat="44.6508313" lon="9.3212747"><ele>467.4</ele><time>2026-04-18T06:51:16.999Z</time></trkpt><trkpt lat="44.6509192" lon="9.3213192"><ele>469.0</ele><time>2026-04-18T06:51:17.999Z</time></trkpt><trkpt lat="44.6509939" lon="9.3213843"><ele>470.00000000000006</ele><time>2026-04-18T06:51:18.999Z</time></trkpt><trkpt lat="44.6510575" lon="9.3214799"><ele>471.0</ele><time>2026-04-18T06:51:19.999Z</time></trkpt><trkpt lat="44.6511128" lon="9.3215841"><ele>472.0</ele><time>2026-04-18T06:51:20.999Z</time></trkpt><trkpt lat="44.6511672" lon="9.3216541"><ele>473.0</ele><time>2026-04-18T06:51:21.999Z</time></trkpt><trkpt lat="44.6512341" lon="9.3217004"><ele>474.00000000000006</ele><time>2026-04-18T06:51:22.999Z</time></trkpt><trkpt lat="44.651298" lon="9.3217226"><ele>475.0</ele><time>2026-04-18T06:51:23.999Z</time></trkpt><trkpt lat="44.6513611" lon="9.3216914"><ele>475.6</ele><time>2026-04-18T06:51:24.999Z</time></trkpt><trkpt lat="44.6514302" lon="9.3216332"><ele>476.2</ele><time>2026-04-18T06:51:25.999Z</time></trkpt><trkpt lat="44.651516" lon="9.3215083"><ele>476.79999999999995</ele><time>2026-04-18T06:51:26.999Z</time></trkpt><trkpt lat="44.6515761" lon="9.3214047"><ele>477.4</ele><time>2026-04-18T06:51:27.999Z</time></trkpt><trkpt lat="44.6516322" lon="9.3213023"><ele>478.0</ele><time>2026-04-18T06:51:28.999Z</time></trkpt><trkpt lat="44.6516572" lon="9.3212038"><ele>478.00000000000006</ele><time>2026-04-18T06:51:29.999Z</time></trkpt><trkpt lat="44.6516605" lon="9.321085"><ele>478.0</ele><time>2026-04-18T06:51:30.999Z</time></trkpt><trkpt lat="44.6516521" lon="9.3209842"><ele>478.0</ele><time>2026-04-18T06:51:31.999Z</time></trkpt><trkpt lat="44.6516057" lon="9.3208774"><ele>478.0</ele><time>2026-04-18T06:51:32.999Z</time></trkpt><trkpt lat="44.651545" lon="9.3207747"><ele>478.00000000000006</ele><time>2026-04-18T06:51:33.999Z</time></trkpt><trkpt lat="44.6514642" lon="9.3206945"><ele>478.0</ele><time>2026-04-18T06:51:34.999Z</time></trkpt><trkpt lat="44.6513759" lon="9.3206237"><ele>480.83333333333337</ele><time>2026-04-18T06:51:35.999Z</time></trkpt><trkpt lat="44.651318" lon="9.3205455"><ele>483.6666666666667</ele><time>2026-04-18T06:51:36.999Z</time></trkpt><trkpt lat="44.6512725" lon="9.3204649"><ele>486.5</ele><time>2026-04-18T06:51:37.999Z</time></trkpt><trkpt lat="44.6512729" lon="9.3203751"><ele>489.33333333333337</ele><time>2026-04-18T06:51:38.999Z</time></trkpt><trkpt lat="44.6513017" lon="9.3202858"><ele>492.1666666666667</ele><time>2026-04-18T06:51:39.999Z</time></trkpt><trkpt lat="44.6513546" lon="9.3201986"><ele>495.0</ele><time>2026-04-18T06:51:40.999Z</time></trkpt><trkpt lat="44.6514019" lon="9.3200862"><ele>495.0</ele><time>2026-04-18T06:51:41.999Z</time></trkpt><trkpt lat="44.6513852" lon="9.31996"><ele>495.0</ele><time>2026-04-18T06:51:42.999Z</time></trkpt><trkpt lat="44.6513468" lon="9.3198198"><ele>495.0</ele><time>2026-04-18T06:51:43.999Z</time></trkpt><trkpt lat="44.6513149" lon="9.3196752"><ele>495.0</ele><time>2026-04-18T06:51:44.999Z</time></trkpt><trkpt lat="44.6512989" lon="9.319521"><ele>495.0</ele><time>2026-04-18T06:51:45.999Z</time></trkpt><trkpt lat="44.6512819" lon="9.3193061"><ele>499.25</ele><time>2026-04-18T06:51:46.999Z</time></trkpt><trkpt lat="44.6512733" lon="9.3191251"><ele>503.5</ele><time>2026-04-18T06:51:47.999Z</time></trkpt><trkpt lat="44.6512621" lon="9.3189471"><ele>507.75</ele><time>2026-04-18T06:51:48.999Z</time></trkpt><trkpt lat="44.6512577" lon="9.3187644"><ele>512.0</ele><time>2026-04-18T06:51:49.999Z</time></trkpt><trkpt lat="44.6512508" lon="9.318578"><ele>512.0</ele><time>2026-04-18T06:51:50.999Z</time></trkpt><trkpt lat="44.6512672" lon="9.3184102"><ele>512.0</ele><time>2026-04-18T06:51:51.999Z</time></trkpt><trkpt lat="44.6512978" lon="9.3182476"><ele>512.0</ele><time>2026-04-18T06:51:52.999Z</time></trkpt><trkpt lat="44.6513436" lon="9.3180925"><ele>512.0</ele><time>2026-04-18T06:51:53.999Z</time></trkpt><trkpt lat="44.6513779" lon="9.3179155"><ele>509.0</ele><time>2026-04-18T06:51:54.999Z</time></trkpt><trkpt lat="44.6513945" lon="9.317746"><ele>506.00000000000006</ele><time>2026-04-18T06:51:55.999Z</time></trkpt><trkpt lat="44.6514021" lon="9.3175974"><ele>503.00000000000006</ele><time>2026-04-18T06:51:56.999Z</time></trkpt><trkpt lat="44.6514219" lon="9.3174597"><ele>500.0</ele><time>2026-04-18T06:51:57.999Z</time></trkpt><trkpt lat="44.6514594" lon="9.3173278"><ele>497.0</ele><time>2026-04-18T06:51:58.999Z</time></trkpt><trkpt lat="44.651558" lon="9.317251"><ele>495.20000000000005</ele><time>2026-04-18T06:51:59.999Z</time></trkpt><trkpt lat="44.6516583" lon="9.3171989"><ele>493.40000000000003</ele><time>2026-04-18T06:52:00.999Z</time></trkpt><trkpt lat="44.6517406" lon="9.3171286"><ele>491.59999999999997</ele><time>2026-04-18T06:52:01.999Z</time></trkpt><trkpt lat="44.6517992" lon="9.3170151"><ele>489.79999999999995</ele><time>2026-04-18T06:52:02.999Z</time></trkpt><trkpt lat="44.6518416" lon="9.3168807"><ele>488.0</ele><time>2026-04-18T06:52:03.999Z</time></trkpt><trkpt lat="44.6519061" lon="9.3167662"><ele>494.25</ele><time>2026-04-18T06:52:04.999Z</time></trkpt><trkpt lat="44.6519852" lon="9.3166729"><ele>500.5</ele><time>2026-04-18T06:52:05.999Z</time></trkpt><trkpt lat="44.6520978" lon="9.3166023"><ele>506.75</ele><time>2026-04-18T06:52:06.999Z</time></trkpt><trkpt lat="44.6521989" lon="9.31655"><ele>513.0</ele><time>2026-04-18T06:52:07.999Z</time></trkpt><trkpt lat="44.6523058" lon="9.3164863"><ele>508.75</ele><time>2026-04-18T06:52:08.999Z</time></trkpt><trkpt lat="44.6524008" lon="9.3163803"><ele>504.5</ele><time>2026-04-18T06:52:09.999Z</time></trkpt><trkpt lat="44.6524607" lon="9.316247"><ele>500.25</ele><time>2026-04-18T06:52:10.999Z</time></trkpt><trkpt lat="44.6525187" lon="9.3161045"><ele>496.0</ele><time>2026-04-18T06:52:11.999Z</time></trkpt><trkpt lat="44.6526033" lon="9.3159903"><ele>496.0</ele><time>2026-04-18T06:52:12.999Z</time></trkpt><trkpt lat="44.6527119" lon="9.31593"><ele>496.0</ele><time>2026-04-18T06:52:13.999Z</time></trkpt><trkpt lat="44.6528135" lon="9.3158926"><ele>496.0</ele><time>2026-04-18T06:52:14.999Z</time></trkpt><trkpt lat="44.6529529" lon="9.3159054"><ele>496.0</ele><time>2026-04-18T06:52:15.999Z</time></trkpt><trkpt lat="44.6530854" lon="9.3158925"><ele>500.0</ele><time>2026-04-18T06:52:16.999Z</time></trkpt><trkpt lat="44.653205" lon="9.3158553"><ele>504.0</ele><time>2026-04-18T06:52:17.999Z</time></trkpt><trkpt lat="44.6533125" lon="9.3157811"><ele>508.0</ele><time>2026-04-18T06:52:18.999Z</time></trkpt><trkpt lat="44.6534176" lon="9.3156874"><ele>512.0</ele><time>2026-04-18T06:52:19.999Z</time></trkpt><trkpt lat="44.6534773" lon="9.3155707"><ele>513.0</ele><time>2026-04-18T06:52:20.999Z</time></trkpt><trkpt lat="44.653533" lon="9.3154179"><ele>514.0</ele><time>2026-04-18T06:52:21.999Z</time></trkpt><trkpt lat="44.6536074" lon="9.3152892"><ele>515.0</ele><time>2026-04-18T06:52:22.999Z</time></trkpt><trkpt lat="44.6536883" lon="9.315192"><ele>516.0</ele><time>2026-04-18T06:52:23.999Z</time></trkpt><trkpt lat="44.6537939" lon="9.3151409"><ele>516.0</ele><time>2026-04-18T06:52:24.999Z</time></trkpt><trkpt lat="44.6539059" lon="9.3150911"><ele>516.0</ele><time>2026-04-18T06:52:25.999Z</time></trkpt><trkpt lat="44.6540302" lon="9.3150379"><ele>516.0</ele><time>2026-04-18T06:52:26.999Z</time></trkpt><trkpt lat="44.6541442" lon="9.3150083"><ele>516.0</ele><time>2026-04-18T06:52:28Z</time></trkpt><trkpt lat="44.6542566" lon="9.3149596"><ele>516.0</ele><time>2026-04-18T06:52:28.999Z</time></trkpt><trkpt lat="44.6543621" lon="9.3148858"><ele>516.0</ele><time>2026-04-18T06:52:29.999Z</time></trkpt><trkpt lat="44.6544245" lon="9.3147787"><ele>516.0</ele><time>2026-04-18T06:52:30.999Z</time></trkpt><trkpt lat="44.6544742" lon="9.3146632"><ele>516.0</ele><time>2026-04-18T06:52:31.999Z</time></trkpt><trkpt lat="44.6545044" lon="9.3145392"><ele>516.0</ele><time>2026-04-18T06:52:32.999Z</time></trkpt><trkpt lat="44.6544789" lon="9.3144118"><ele>515.5</ele><time>2026-04-18T06:52:33.999Z</time></trkpt><trkpt lat="44.6544207" lon="9.3142657"><ele>515.0</ele><time>2026-04-18T06:52:35Z</time></trkpt><trkpt lat="44.6543469" lon="9.3141338"><ele>514.5</ele><time>2026-04-18T06:52:35.999Z</time></trkpt><trkpt lat="44.6542551" lon="9.314006"><ele>514.0</ele><time>2026-04-18T06:52:36.999Z</time></trkpt><trkpt lat="44.6541778" lon="9.313883"><ele>515.2</ele><time>2026-04-18T06:52:37.999Z</time></trkpt><trkpt lat="44.6540929" lon="9.3137798"><ele>516.4</ele><time>2026-04-18T06:52:38.999Z</time></trkpt><trkpt lat="44.6540229" lon="9.3136719"><ele>517.6</ele><time>2026-04-18T06:52:39.999Z</time></trkpt><trkpt lat="44.6539776" lon="9.3135634"><ele>518.8</ele><time>2026-04-18T06:52:40.999Z</time></trkpt><trkpt lat="44.653975" lon="9.3134608"><ele>520.0</ele><time>2026-04-18T06:52:42Z</time></trkpt><trkpt lat="44.654081" lon="9.3132586"><ele>520.0</ele><time>2026-04-18T06:52:43.999Z</time></trkpt><trkpt lat="44.6541524" lon="9.3131378"><ele>520.0</ele><time>2026-04-18T06:52:44.999Z</time></trkpt><trkpt lat="44.6542369" lon="9.3129867"><ele>520.0</ele><time>2026-04-18T06:52:45.999Z</time></trkpt><trkpt lat="44.6542969" lon="9.3128412"><ele>520.0</ele><time>2026-04-18T06:52:46.999Z</time></trkpt><trkpt lat="44.6543553" lon="9.3126894"><ele>518.75</ele><time>2026-04-18T06:52:47.999Z</time></trkpt><trkpt lat="44.6544216" lon="9.3125518"><ele>517.5</ele><time>2026-04-18T06:52:48.999Z</time></trkpt><trkpt lat="44.6545087" lon="9.3124272"><ele>516.25</ele><time>2026-04-18T06:52:49.999Z</time></trkpt><trkpt lat="44.6546011" lon="9.3123137"><ele>515.0</ele><time>2026-04-18T06:52:50.999Z</time></trkpt><trkpt lat="44.6547062" lon="9.312253"><ele>513.6</ele><time>2026-04-18T06:52:51.999Z</time></trkpt><trkpt lat="44.6548109" lon="9.3122321"><ele>512.2</ele><time>2026-04-18T06:52:52.999Z</time></trkpt><trkpt lat="44.6549012" lon="9.3122663"><ele>510.79999999999995</ele><time>2026-04-18T06:52:53.999Z</time></trkpt><trkpt lat="44.6549929" lon="9.3123317"><ele>509.4</ele><time>2026-04-18T06:52:54.999Z</time></trkpt><trkpt lat="44.6550941" lon="9.3123965"><ele>508.0</ele><time>2026-04-18T06:52:55.999Z</time></trkpt><trkpt lat="44.6552033" lon="9.3124693"><ele>513.0</ele><time>2026-04-18T06:52:56.999Z</time></trkpt><trkpt lat="44.6553176" lon="9.3125265"><ele>518.0</ele><time>2026-04-18T06:52:57.999Z</time></trkpt><trkpt lat="44.6554291" lon="9.3125402"><ele>523.0</ele><time>2026-04-18T06:52:58.999Z</time></trkpt><trkpt lat="44.6555674" lon="9.3125405"><ele>528.0</ele><time>2026-04-18T06:52:59.999Z</time></trkpt><trkpt lat="44.6556991" lon="9.3125282"><ele>528.0</ele><time>2026-04-18T06:53:00.999Z</time></trkpt><trkpt lat="44.6558068" lon="9.312481"><ele>528.0</ele><time>2026-04-18T06:53:02Z</time></trkpt><trkpt lat="44.655916" lon="9.3123961"><ele>528.0</ele><time>2026-04-18T06:53:02.999Z</time></trkpt><trkpt lat="44.6560077" lon="9.3123102"><ele>528.0</ele><time>2026-04-18T06:53:03.999Z</time></trkpt><trkpt lat="44.6561043" lon="9.3122682"><ele>528.0</ele><time>2026-04-18T06:53:04.999Z</time></trkpt><trkpt lat="44.6562001" lon="9.3122583"><ele>528.0</ele><time>2026-04-18T06:53:05.999Z</time></trkpt><trkpt lat="44.6562951" lon="9.3122902"><ele>528.0</ele><time>2026-04-18T06:53:06.999Z</time></trkpt><trkpt lat="44.6563888" lon="9.3123725"><ele>528.0</ele><time>2026-04-18T06:53:07.999Z</time></trkpt><trkpt lat="44.656484" lon="9.3124846"><ele>528.0</ele><time>2026-04-18T06:53:08.999Z</time></trkpt><trkpt lat="44.6565721" lon="9.3126058"><ele>528.0</ele><time>2026-04-18T06:53:09.999Z</time></trkpt><trkpt lat="44.6566584" lon="9.312726"><ele>528.0</ele><time>2026-04-18T06:53:10.999Z</time></trkpt><trkpt lat="44.6567423" lon="9.3128397"><ele>528.0</ele><time>2026-04-18T06:53:11.999Z</time></trkpt><trkpt lat="44.6568375" lon="9.312919"><ele>528.0</ele><time>2026-04-18T06:53:12.999Z</time></trkpt><trkpt lat="44.6569211" lon="9.3129398"><ele>528.0</ele><time>2026-04-18T06:53:13.999Z</time></trkpt><trkpt lat="44.6570432" lon="9.3129276"><ele>527.25</ele><time>2026-04-18T06:53:14.999Z</time></trkpt><trkpt lat="44.657166" lon="9.3128821"><ele>526.5</ele><time>2026-04-18T06:53:15.999Z</time></trkpt><trkpt lat="44.6572915" lon="9.3128223"><ele>525.75</ele><time>2026-04-18T06:53:16.999Z</time></trkpt><trkpt lat="44.6574376" lon="9.3127537"><ele>525.0</ele><time>2026-04-18T06:53:17.999Z</time></trkpt><trkpt lat="44.6575905" lon="9.3126856"><ele>525.0</ele><time>2026-04-18T06:53:18.999Z</time></trkpt><trkpt lat="44.6577556" lon="9.3126058"><ele>525.0</ele><time>2026-04-18T06:53:19.999Z</time></trkpt><trkpt lat="44.6579157" lon="9.3125345"><ele>525.0</ele><time>2026-04-18T06:53:20.999Z</time></trkpt><trkpt lat="44.6580615" lon="9.3124375"><ele>522.0</ele><time>2026-04-18T06:53:21.999Z</time></trkpt><trkpt lat="44.6582072" lon="9.3123325"><ele>519.0</ele><time>2026-04-18T06:53:22.999Z</time></trkpt><trkpt lat="44.6583645" lon="9.3122291"><ele>516.0</ele><time>2026-04-18T06:53:23.999Z</time></trkpt><trkpt lat="44.65852" lon="9.3121252"><ele>522.0</ele><time>2026-04-18T06:53:24.999Z</time></trkpt><trkpt lat="44.6586718" lon="9.3120213"><ele>528.0</ele><time>2026-04-18T06:53:25.999Z</time></trkpt><trkpt lat="44.6588243" lon="9.3119192"><ele>534.0</ele><time>2026-04-18T06:53:26.999Z</time></trkpt><trkpt lat="44.6589788" lon="9.3118204"><ele>534.0</ele><time>2026-04-18T06:53:27.999Z</time></trkpt><trkpt lat="44.6591286" lon="9.3117341"><ele>534.0</ele><time>2026-04-18T06:53:28.999Z</time></trkpt><trkpt lat="44.6592875" lon="9.3116587"><ele>534.0</ele><time>2026-04-18T06:53:29.999Z</time></trkpt><trkpt lat="44.6594281" lon="9.3115716"><ele>534.0</ele><time>2026-04-18T06:53:30.999Z</time></trkpt><trkpt lat="44.6595583" lon="9.3114552"><ele>534.0</ele><time>2026-04-18T06:53:31.999Z</time></trkpt><trkpt lat="44.659683" lon="9.3113331"><ele>534.0</ele><time>2026-04-18T06:53:32.999Z</time></trkpt><trkpt lat="44.6598044" lon="9.3111891"><ele>534.0</ele><time>2026-04-18T06:53:33.999Z</time></trkpt><trkpt lat="44.6599222" lon="9.3110404"><ele>534.0</ele><time>2026-04-18T06:53:34.999Z</time></trkpt><trkpt lat="44.6600406" lon="9.3109235"><ele>534.0</ele><time>2026-04-18T06:53:35.999Z</time></trkpt><trkpt lat="44.6601547" lon="9.3108338"><ele>534.0</ele><time>2026-04-18T06:53:36.999Z</time></trkpt><trkpt lat="44.6602709" lon="9.31076"><ele>534.0</ele><time>2026-04-18T06:53:37.999Z</time></trkpt><trkpt lat="44.6603809" lon="9.310685"><ele>534.0</ele><time>2026-04-18T06:53:38.999Z</time></trkpt><trkpt lat="44.6604657" lon="9.3105898"><ele>534.0</ele><time>2026-04-18T06:53:39.999Z</time></trkpt><trkpt lat="44.6605258" lon="9.3104578"><ele>534.0</ele><time>2026-04-18T06:53:40.999Z</time></trkpt><trkpt lat="44.6605715" lon="9.3103153"><ele>534.0</ele><time>2026-04-18T06:53:42.108Z</time></trkpt><trkpt lat="44.6607027" lon="9.3100832"><ele>534.0</ele><time>2026-04-18T06:53:43.999Z</time></trkpt><trkpt lat="44.6607816" lon="9.310038"><ele>534.0</ele><time>2026-04-18T06:53:44.999Z</time></trkpt><trkpt lat="44.6608593" lon="9.3100103"><ele>534.0</ele><time>2026-04-18T06:53:45.999Z</time></trkpt><trkpt lat="44.660935" lon="9.3100487"><ele>534.0</ele><time>2026-04-18T06:53:47.101Z</time></trkpt><trkpt lat="44.6610309" lon="9.3103081"><ele>534.0</ele><time>2026-04-18T06:53:48.999Z</time></trkpt><trkpt lat="44.6610654" lon="9.3104504"><ele>534.0</ele><time>2026-04-18T06:53:50.102Z</time></trkpt><trkpt lat="44.6611171" lon="9.310777"><ele>533.75</ele><time>2026-04-18T06:53:51.999Z</time></trkpt><trkpt lat="44.6611373" lon="9.3109457"><ele>533.5</ele><time>2026-04-18T06:53:52.999Z</time></trkpt><trkpt lat="44.6611505" lon="9.3111243"><ele>533.25</ele><time>2026-04-18T06:53:53.999Z</time></trkpt><trkpt lat="44.6611738" lon="9.3113053"><ele>533.0</ele><time>2026-04-18T06:53:54.999Z</time></trkpt><trkpt lat="44.6612069" lon="9.3114846"><ele>534.0</ele><time>2026-04-18T06:53:55.999Z</time></trkpt><trkpt lat="44.6612566" lon="9.3116745"><ele>535.0</ele><time>2026-04-18T06:53:56.999Z</time></trkpt><trkpt lat="44.6613212" lon="9.3118615"><ele>536.0</ele><time>2026-04-18T06:53:57.999Z</time></trkpt><trkpt lat="44.6613874" lon="9.3120498"><ele>537.0</ele><time>2026-04-18T06:53:58.999Z</time></trkpt><trkpt lat="44.6614548" lon="9.3122403"><ele>540.0</ele><time>2026-04-18T06:53:59.999Z</time></trkpt><trkpt lat="44.6615183" lon="9.312437"><ele>543.0</ele><time>2026-04-18T06:54:01.106Z</time></trkpt><trkpt lat="44.6615887" lon="9.312628"><ele>546.0</ele><time>2026-04-18T06:54:02.107Z</time></trkpt><trkpt lat="44.6617083" lon="9.3129839"><ele>549.0</ele><time>2026-04-18T06:54:03.999Z</time></trkpt><trkpt lat="44.6617509" lon="9.3131423"><ele>552.0</ele><time>2026-04-18T06:54:04.999Z</time></trkpt><trkpt lat="44.6618012" lon="9.3132552"><ele>555.0</ele><time>2026-04-18T06:54:05.999Z</time></trkpt><trkpt lat="44.6618615" lon="9.3133577"><ele>558.0</ele><time>2026-04-18T06:54:06.999Z</time></trkpt><trkpt lat="44.6619267" lon="9.3134459"><ele>561.0</ele><time>2026-04-18T06:54:07.999Z</time></trkpt><trkpt lat="44.6619984" lon="9.3134602"><ele>561.0</ele><time>2026-04-18T06:54:08.999Z</time></trkpt><trkpt lat="44.6620909" lon="9.3134484"><ele>561.0</ele><time>2026-04-18T06:54:09.999Z</time></trkpt><trkpt lat="44.6622225" lon="9.313421"><ele>561.0</ele><time>2026-04-18T06:54:10.999Z</time></trkpt><trkpt lat="44.6623268" lon="9.3133612"><ele>561.0</ele><time>2026-04-18T06:54:11.999Z</time></trkpt><trkpt lat="44.662451" lon="9.3132887"><ele>561.0</ele><time>2026-04-18T06:54:12.999Z</time></trkpt><trkpt lat="44.6625722" lon="9.3131897"><ele>561.0</ele><time>2026-04-18T06:54:13.999Z</time></trkpt><trkpt lat="44.6626198" lon="9.3130728"><ele>561.0</ele><time>2026-04-18T06:54:14.999Z</time></trkpt><trkpt lat="44.6626619" lon="9.312936"><ele>561.0</ele><time>2026-04-18T06:54:15.999Z</time></trkpt><trkpt lat="44.6627474" lon="9.3128279"><ele>563.25</ele><time>2026-04-18T06:54:16.999Z</time></trkpt><trkpt lat="44.6628217" lon="9.3127081"><ele>565.5</ele><time>2026-04-18T06:54:17.999Z</time></trkpt><trkpt lat="44.6629124" lon="9.3125938"><ele>567.75</ele><time>2026-04-18T06:54:18.999Z</time></trkpt><trkpt lat="44.663015" lon="9.3124826"><ele>570.0</ele><time>2026-04-18T06:54:19.999Z</time></trkpt><trkpt lat="44.6631321" lon="9.3123864"><ele>570.0</ele><time>2026-04-18T06:54:20.999Z</time></trkpt><trkpt lat="44.6632558" lon="9.3122705"><ele>570.0</ele><time>2026-04-18T06:54:21.999Z</time></trkpt><trkpt lat="44.663381" lon="9.3121814"><ele>570.0</ele><time>2026-04-18T06:54:22.999Z</time></trkpt><trkpt lat="44.6635087" lon="9.3120894"><ele>570.0</ele><time>2026-04-18T06:54:23.999Z</time></trkpt><trkpt lat="44.6636403" lon="9.3120089"><ele>570.0</ele><time>2026-04-18T06:54:24.999Z</time></trkpt><trkpt lat="44.6637433" lon="9.3119083"><ele>570.0</ele><time>2026-04-18T06:54:25.999Z</time></trkpt><trkpt lat="44.6638397" lon="9.3117956"><ele>570.0</ele><time>2026-04-18T06:54:26.999Z</time></trkpt><trkpt lat="44.6639396" lon="9.3116615"><ele>570.0</ele><time>2026-04-18T06:54:27.999Z</time></trkpt><trkpt lat="44.6640511" lon="9.311555"><ele>570.0</ele><time>2026-04-18T06:54:28.999Z</time></trkpt><trkpt lat="44.6641667" lon="9.3114796"><ele>570.0</ele><time>2026-04-18T06:54:29.999Z</time></trkpt><trkpt lat="44.6642925" lon="9.3114165"><ele>570.0</ele><time>2026-04-18T06:54:30.999Z</time></trkpt><trkpt lat="44.6644268" lon="9.3113614"><ele>570.0</ele><time>2026-04-18T06:54:31.999Z</time></trkpt><trkpt lat="44.6645545" lon="9.3113185"><ele>568.25</ele><time>2026-04-18T06:54:32.999Z</time></trkpt><trkpt lat="44.6646728" lon="9.3112984"><ele>566.5</ele><time>2026-04-18T06:54:33.999Z</time></trkpt><trkpt lat="44.6647841" lon="9.3113086"><ele>564.75</ele><time>2026-04-18T06:54:34.999Z</time></trkpt><trkpt lat="44.6649201" lon="9.3113483"><ele>563.0</ele><time>2026-04-18T06:54:35.999Z</time></trkpt><trkpt lat="44.6650414" lon="9.3114303"><ele>563.0</ele><time>2026-04-18T06:54:36.999Z</time></trkpt><trkpt lat="44.6651569" lon="9.311515"><ele>563.0</ele><time>2026-04-18T06:54:37.999Z</time></trkpt><trkpt lat="44.6652698" lon="9.311639"><ele>563.0</ele><time>2026-04-18T06:54:38.999Z</time></trkpt><trkpt lat="44.6653735" lon="9.311765"><ele>563.0</ele><time>2026-04-18T06:54:39.999Z</time></trkpt><trkpt lat="44.6654585" lon="9.3119018"><ele>561.75</ele><time>2026-04-18T06:54:40.999Z</time></trkpt><trkpt lat="44.6655185" lon="9.3120554"><ele>560.5</ele><time>2026-04-18T06:54:41.999Z</time></trkpt><trkpt lat="44.6655746" lon="9.3122066"><ele>559.25</ele><time>2026-04-18T06:54:42.999Z</time></trkpt><trkpt lat="44.6656437" lon="9.31236"><ele>558.0</ele><time>2026-04-18T06:54:43.999Z</time></trkpt><trkpt lat="44.6657352" lon="9.3124555"><ele>558.0</ele><time>2026-04-18T06:54:44.999Z</time></trkpt><trkpt lat="44.6658396" lon="9.3125198"><ele>558.0</ele><time>2026-04-18T06:54:46.105Z</time></trkpt><trkpt lat="44.6660506" lon="9.3126816"><ele>558.0</ele><time>2026-04-18T06:54:47.999Z</time></trkpt><trkpt lat="44.6661219" lon="9.3127998"><ele>561.25</ele><time>2026-04-18T06:54:48.999Z</time></trkpt><trkpt lat="44.6661709" lon="9.3129121"><ele>564.5</ele><time>2026-04-18T06:54:50.108Z</time></trkpt><trkpt lat="44.6663113" lon="9.3130751"><ele>567.75</ele><time>2026-04-18T06:54:51.999Z</time></trkpt><trkpt lat="44.6664183" lon="9.3130626"><ele>571.0</ele><time>2026-04-18T06:54:52.999Z</time></trkpt><trkpt lat="44.6665314" lon="9.3130368"><ele>566.6666666666667</ele><time>2026-04-18T06:54:53.999Z</time></trkpt><trkpt lat="44.6666429" lon="9.3130047"><ele>562.3333333333334</ele><time>2026-04-18T06:54:54.999Z</time></trkpt><trkpt lat="44.6667619" lon="9.3129658"><ele>558.0</ele><time>2026-04-18T06:54:56.107Z</time></trkpt><trkpt lat="44.6670105" lon="9.3128976"><ele>558.0</ele><time>2026-04-18T06:54:57.999Z</time></trkpt><trkpt lat="44.6671312" lon="9.3128593"><ele>558.0</ele><time>2026-04-18T06:54:58.999Z</time></trkpt><trkpt lat="44.6672478" lon="9.3127981"><ele>558.0</ele><time>2026-04-18T06:54:59.999Z</time></trkpt><trkpt lat="44.6673489" lon="9.3126879"><ele>558.0</ele><time>2026-04-18T06:55:00.999Z</time></trkpt><trkpt lat="44.6674316" lon="9.3125432"><ele>558.0</ele><time>2026-04-18T06:55:01.999Z</time></trkpt><trkpt lat="44.6675172" lon="9.3124022"><ele>558.0</ele><time>2026-04-18T06:55:03Z</time></trkpt><trkpt lat="44.6676003" lon="9.3122405"><ele>558.0</ele><time>2026-04-18T06:55:03.999Z</time></trkpt><trkpt lat="44.6676711" lon="9.3120877"><ele>558.0</ele><time>2026-04-18T06:55:04.999Z</time></trkpt><trkpt lat="44.6677428" lon="9.3119642"><ele>555.1999999999999</ele><time>2026-04-18T06:55:05.999Z</time></trkpt><trkpt lat="44.6678123" lon="9.3118843"><ele>552.4</ele><time>2026-04-18T06:55:06.999Z</time></trkpt><trkpt lat="44.6678853" lon="9.3118174"><ele>549.5999999999999</ele><time>2026-04-18T06:55:07.999Z</time></trkpt><trkpt lat="44.6679851" lon="9.3118587"><ele>546.8</ele><time>2026-04-18T06:55:08.999Z</time></trkpt><trkpt lat="44.6680704" lon="9.3119213"><ele>544.0</ele><time>2026-04-18T06:55:09.999Z</time></trkpt><trkpt lat="44.6681624" lon="9.3120073"><ele>544.0</ele><time>2026-04-18T06:55:10.999Z</time></trkpt><trkpt lat="44.6682403" lon="9.312065"><ele>544.0</ele><time>2026-04-18T06:55:11.999Z</time></trkpt><trkpt lat="44.6683481" lon="9.3121107"><ele>544.0</ele><time>2026-04-18T06:55:12.999Z</time></trkpt><trkpt lat="44.6684584" lon="9.3121268"><ele>544.0</ele><time>2026-04-18T06:55:13.999Z</time></trkpt><trkpt lat="44.6685711" lon="9.3121227"><ele>544.0</ele><time>2026-04-18T06:55:14.999Z</time></trkpt><trkpt lat="44.6687003" lon="9.3121003"><ele>549.0</ele><time>2026-04-18T06:55:15.999Z</time></trkpt><trkpt lat="44.6688029" lon="9.3120403"><ele>554.0</ele><time>2026-04-18T06:55:16.999Z</time></trkpt><trkpt lat="44.6688815" lon="9.3119107"><ele>559.0</ele><time>2026-04-18T06:55:17.999Z</time></trkpt><trkpt lat="44.6689087" lon="9.3117532"><ele>564.0</ele><time>2026-04-18T06:55:18.999Z</time></trkpt><trkpt lat="44.668943" lon="9.3115795"><ele>564.0</ele><time>2026-04-18T06:55:19.999Z</time></trkpt><trkpt lat="44.6689691" lon="9.3114093"><ele>564.0</ele><time>2026-04-18T06:55:20.999Z</time></trkpt><trkpt lat="44.6689899" lon="9.3112482"><ele>564.0</ele><time>2026-04-18T06:55:21.999Z</time></trkpt><trkpt lat="44.6690241" lon="9.311113"><ele>564.0</ele><time>2026-04-18T06:55:22.999Z</time></trkpt><trkpt lat="44.6690798" lon="9.3109938"><ele>564.0</ele><time>2026-04-18T06:55:23.999Z</time></trkpt><trkpt lat="44.6691447" lon="9.3109151"><ele>566.8</ele><time>2026-04-18T06:55:24.999Z</time></trkpt><trkpt lat="44.6692666" lon="9.3108915"><ele>569.5999999999999</ele><time>2026-04-18T06:55:25.999Z</time></trkpt><trkpt lat="44.6693738" lon="9.310862"><ele>572.4</ele><time>2026-04-18T06:55:26.999Z</time></trkpt><trkpt lat="44.6694899" lon="9.3108322"><ele>575.1999999999999</ele><time>2026-04-18T06:55:27.999Z</time></trkpt><trkpt lat="44.669583" lon="9.3107919"><ele>578.0</ele><time>2026-04-18T06:55:28.999Z</time></trkpt><trkpt lat="44.6696635" lon="9.3107242"><ele>578.0</ele><time>2026-04-18T06:55:29.999Z</time></trkpt><trkpt lat="44.6697219" lon="9.3106175"><ele>578.0</ele><time>2026-04-18T06:55:30.999Z</time></trkpt><trkpt lat="44.6697401" lon="9.3104839"><ele>578.0</ele><time>2026-04-18T06:55:32Z</time></trkpt><trkpt lat="44.6697211" lon="9.3103404"><ele>578.0</ele><time>2026-04-18T06:55:32.999Z</time></trkpt><trkpt lat="44.6696981" lon="9.3101921"><ele>578.0</ele><time>2026-04-18T06:55:33.999Z</time></trkpt><trkpt lat="44.6696858" lon="9.3100422"><ele>573.1999999999999</ele><time>2026-04-18T06:55:34.999Z</time></trkpt><trkpt lat="44.6697066" lon="9.3098928"><ele>568.4</ele><time>2026-04-18T06:55:35.999Z</time></trkpt><trkpt lat="44.6697385" lon="9.3097535"><ele>563.5999999999999</ele><time>2026-04-18T06:55:36.999Z</time></trkpt><trkpt lat="44.6697888" lon="9.3096322"><ele>558.8</ele><time>2026-04-18T06:55:37.999Z</time></trkpt><trkpt lat="44.6698678" lon="9.3095487"><ele>554.0</ele><time>2026-04-18T06:55:38.999Z</time></trkpt><trkpt lat="44.6699528" lon="9.3094698"><ele>549.6</ele><time>2026-04-18T06:55:39.999Z</time></trkpt><trkpt lat="44.670056" lon="9.3094823"><ele>545.2</ele><time>2026-04-18T06:55:40.999Z</time></trkpt><trkpt lat="44.6701539" lon="9.3095207"><ele>540.8000000000001</ele><time>2026-04-18T06:55:41.999Z</time></trkpt><trkpt lat="44.6702618" lon="9.3095839"><ele>536.4</ele><time>2026-04-18T06:55:42.999Z</time></trkpt><trkpt lat="44.670382" lon="9.3096349"><ele>532.0</ele><time>2026-04-18T06:55:43.999Z</time></trkpt><trkpt lat="44.6705019" lon="9.3096621"><ele>532.0</ele><time>2026-04-18T06:55:44.999Z</time></trkpt><trkpt lat="44.6706349" lon="9.3096539"><ele>532.0</ele><time>2026-04-18T06:55:45.999Z</time></trkpt><trkpt lat="44.6707547" lon="9.3096248"><ele>532.0</ele><time>2026-04-18T06:55:46.999Z</time></trkpt><trkpt lat="44.6708686" lon="9.3095592"><ele>532.0</ele><time>2026-04-18T06:55:47.999Z</time></trkpt><trkpt lat="44.6709747" lon="9.3094902"><ele>532.0</ele><time>2026-04-18T06:55:48.999Z</time></trkpt><trkpt lat="44.6710807" lon="9.3094616"><ele>532.0</ele><time>2026-04-18T06:55:49.999Z</time></trkpt><trkpt lat="44.6711842" lon="9.3094958"><ele>532.0</ele><time>2026-04-18T06:55:50.999Z</time></trkpt><trkpt lat="44.6712934" lon="9.3095642"><ele>532.0</ele><time>2026-04-18T06:55:51.999Z</time></trkpt><trkpt lat="44.671394" lon="9.3096404"><ele>532.0</ele><time>2026-04-18T06:55:52.999Z</time></trkpt><trkpt lat="44.6715032" lon="9.3096986"><ele>531.0</ele><time>2026-04-18T06:55:53.999Z</time></trkpt><trkpt lat="44.6716134" lon="9.3097265"><ele>530.0</ele><time>2026-04-18T06:55:54.999Z</time></trkpt><trkpt lat="44.6717338" lon="9.3097022"><ele>529.0</ele><time>2026-04-18T06:55:56.115Z</time></trkpt><trkpt lat="44.6719725" lon="9.3096942"><ele>532.0</ele><time>2026-04-18T06:55:57.999Z</time></trkpt><trkpt lat="44.6720942" lon="9.3096954"><ele>535.0</ele><time>2026-04-18T06:55:58.999Z</time></trkpt><trkpt lat="44.672215" lon="9.3096661"><ele>538.0</ele><time>2026-04-18T06:55:59.999Z</time></trkpt><trkpt lat="44.6723376" lon="9.3095774"><ele>541.0</ele><time>2026-04-18T06:56:00.999Z</time></trkpt><trkpt lat="44.6724587" lon="9.3094925"><ele>541.0</ele><time>2026-04-18T06:56:01.999Z</time></trkpt><trkpt lat="44.6725677" lon="9.3094089"><ele>541.0</ele><time>2026-04-18T06:56:02.999Z</time></trkpt><trkpt lat="44.6726716" lon="9.3093309"><ele>541.0</ele><time>2026-04-18T06:56:03.999Z</time></trkpt><trkpt lat="44.6727761" lon="9.3092499"><ele>541.0</ele><time>2026-04-18T06:56:04.999Z</time></trkpt><trkpt lat="44.6728575" lon="9.3091384"><ele>538.5</ele><time>2026-04-18T06:56:05.999Z</time></trkpt><trkpt lat="44.6729263" lon="9.3090147"><ele>536.0</ele><time>2026-04-18T06:56:06.999Z</time></trkpt><trkpt lat="44.6730021" lon="9.3088876"><ele>533.5</ele><time>2026-04-18T06:56:07.999Z</time></trkpt><trkpt lat="44.6730778" lon="9.308759"><ele>531.0</ele><time>2026-04-18T06:56:08.999Z</time></trkpt><trkpt lat="44.673151" lon="9.3086445"><ele>531.0</ele><time>2026-04-18T06:56:09.999Z</time></trkpt><trkpt lat="44.6732423" lon="9.3085602"><ele>531.0</ele><time>2026-04-18T06:56:10.999Z</time></trkpt><trkpt lat="44.6733424" lon="9.3085649"><ele>531.0</ele><time>2026-04-18T06:56:11.999Z</time></trkpt><trkpt lat="44.6734534" lon="9.3085788"><ele>531.0</ele><time>2026-04-18T06:56:12.999Z</time></trkpt><trkpt lat="44.6735697" lon="9.3086309"><ele>531.0</ele><time>2026-04-18T06:56:13.999Z</time></trkpt><trkpt lat="44.6736839" lon="9.3087188"><ele>530.0</ele><time>2026-04-18T06:56:14.999Z</time></trkpt><trkpt lat="44.6737874" lon="9.3088313"><ele>529.0</ele><time>2026-04-18T06:56:16Z</time></trkpt><trkpt lat="44.6738838" lon="9.3089356"><ele>528.0</ele><time>2026-04-18T06:56:16.999Z</time></trkpt><trkpt lat="44.6739766" lon="9.3090155"><ele>527.0</ele><time>2026-04-18T06:56:17.999Z</time></trkpt><trkpt lat="44.6740925" lon="9.3090527"><ele>532.5</ele><time>2026-04-18T06:56:18.999Z</time></trkpt><trkpt lat="44.6742149" lon="9.3090684"><ele>538.0</ele><time>2026-04-18T06:56:19.999Z</time></trkpt><trkpt lat="44.6743314" lon="9.3090348"><ele>543.5</ele><time>2026-04-18T06:56:20.999Z</time></trkpt><trkpt lat="44.6744499" lon="9.3090087"><ele>549.0</ele><time>2026-04-18T06:56:22Z</time></trkpt><trkpt lat="44.6745389" lon="9.309049"><ele>549.0</ele><time>2026-04-18T06:56:22.999Z</time></trkpt><trkpt lat="44.6746207" lon="9.3091238"><ele>549.0</ele><time>2026-04-18T06:56:23.999Z</time></trkpt><trkpt lat="44.6746798" lon="9.3092232"><ele>549.0</ele><time>2026-04-18T06:56:24.999Z</time></trkpt><trkpt lat="44.6747499" lon="9.3092893"><ele>549.0</ele><time>2026-04-18T06:56:25.999Z</time></trkpt><trkpt lat="44.6748327" lon="9.3093227"><ele>549.0</ele><time>2026-04-18T06:56:26.999Z</time></trkpt><trkpt lat="44.6749123" lon="9.3093198"><ele>549.0</ele><time>2026-04-18T06:56:27.999Z</time></trkpt><trkpt lat="44.6749868" lon="9.309298"><ele>549.0</ele><time>2026-04-18T06:56:28.999Z</time></trkpt><trkpt lat="44.675088" lon="9.3092523"><ele>549.0</ele><time>2026-04-18T06:56:30.999Z</time></trkpt><trkpt lat="44.6751958" lon="9.3091556"><ele>549.0</ele><time>2026-04-18T06:56:32.999Z</time></trkpt><trkpt lat="44.6752634" lon="9.3091"><ele>549.0</ele><time>2026-04-18T06:56:33.999Z</time></trkpt><trkpt lat="44.6753375" lon="9.309043"><ele>549.0</ele><time>2026-04-18T06:56:34.999Z</time></trkpt><trkpt lat="44.6754133" lon="9.3089789"><ele>551.1666666666666</ele><time>2026-04-18T06:56:35.999Z</time></trkpt><trkpt lat="44.6754774" lon="9.3089149"><ele>553.3333333333334</ele><time>2026-04-18T06:56:36.999Z</time></trkpt><trkpt lat="44.6755068" lon="9.3088222"><ele>555.5</ele><time>2026-04-18T06:56:37.999Z</time></trkpt><trkpt lat="44.6755237" lon="9.3087285"><ele>557.6666666666667</ele><time>2026-04-18T06:56:38.999Z</time></trkpt><trkpt lat="44.6755132" lon="9.3086388"><ele>559.8333333333334</ele><time>2026-04-18T06:56:39.999Z</time></trkpt><trkpt lat="44.6754473" lon="9.3084502"><ele>562.0</ele><time>2026-04-18T06:56:40.999Z</time></trkpt><trkpt lat="44.6753965" lon="9.3083074"><ele>562.0</ele><time>2026-04-18T06:56:41.999Z</time></trkpt><trkpt lat="44.6753481" lon="9.3081679"><ele>562.0</ele><time>2026-04-18T06:56:42.999Z</time></trkpt><trkpt lat="44.6753099" lon="9.3080125"><ele>562.0</ele><time>2026-04-18T06:56:43.999Z</time></trkpt><trkpt lat="44.6752748" lon="9.3078685"><ele>562.0</ele><time>2026-04-18T06:56:44.999Z</time></trkpt><trkpt lat="44.6752518" lon="9.307717"><ele>562.0</ele><time>2026-04-18T06:56:45.999Z</time></trkpt><trkpt lat="44.6752356" lon="9.3075694"><ele>561.6</ele><time>2026-04-18T06:56:46.999Z</time></trkpt><trkpt lat="44.6752449" lon="9.3074516"><ele>561.2</ele><time>2026-04-18T06:56:47.999Z</time></trkpt><trkpt lat="44.6752736" lon="9.3073243"><ele>560.8</ele><time>2026-04-18T06:56:48.999Z</time></trkpt><trkpt lat="44.6753139" lon="9.3072055"><ele>560.4</ele><time>2026-04-18T06:56:49.999Z</time></trkpt><trkpt lat="44.6753834" lon="9.3071206"><ele>560.0</ele><time>2026-04-18T06:56:50.999Z</time></trkpt><trkpt lat="44.6754602" lon="9.3070622"><ele>558.4</ele><time>2026-04-18T06:56:51.999Z</time></trkpt><trkpt lat="44.6755291" lon="9.3069817"><ele>556.8</ele><time>2026-04-18T06:56:52.999Z</time></trkpt><trkpt lat="44.6755785" lon="9.3068861"><ele>555.2</ele><time>2026-04-18T06:56:53.999Z</time></trkpt><trkpt lat="44.6756148" lon="9.3067856"><ele>553.6</ele><time>2026-04-18T06:56:54.999Z</time></trkpt><trkpt lat="44.6756122" lon="9.3066535"><ele>552.0</ele><time>2026-04-18T06:56:55.999Z</time></trkpt><trkpt lat="44.675615" lon="9.3064656"><ele>548.5</ele><time>2026-04-18T06:56:56.999Z</time></trkpt><trkpt lat="44.6756252" lon="9.3062895"><ele>545.0</ele><time>2026-04-18T06:56:57.999Z</time></trkpt><trkpt lat="44.6756628" lon="9.3061285"><ele>541.5</ele><time>2026-04-18T06:56:58.999Z</time></trkpt><trkpt lat="44.6757322" lon="9.3059747"><ele>538.0</ele><time>2026-04-18T06:56:59.999Z</time></trkpt><trkpt lat="44.6757995" lon="9.3058226"><ele>538.0</ele><time>2026-04-18T06:57:00.999Z</time></trkpt><trkpt lat="44.6758806" lon="9.3056834"><ele>538.0</ele><time>2026-04-18T06:57:01.999Z</time></trkpt><trkpt lat="44.6759768" lon="9.3055538"><ele>538.0</ele><time>2026-04-18T06:57:02.999Z</time></trkpt><trkpt lat="44.6760859" lon="9.305454"><ele>538.0</ele><time>2026-04-18T06:57:03.999Z</time></trkpt><trkpt lat="44.6762366" lon="9.3054176"><ele>536.0</ele><time>2026-04-18T06:57:04.999Z</time></trkpt><trkpt lat="44.676361" lon="9.3053752"><ele>534.0</ele><time>2026-04-18T06:57:05.999Z</time></trkpt><trkpt lat="44.6764935" lon="9.3053545"><ele>532.0</ele><time>2026-04-18T06:57:06.999Z</time></trkpt><trkpt lat="44.6766121" lon="9.3053369"><ele>530.0</ele><time>2026-04-18T06:57:07.999Z</time></trkpt><trkpt lat="44.6766972" lon="9.3053252"><ele>530.0</ele><time>2026-04-18T06:57:08.999Z</time></trkpt><trkpt lat="44.6767627" lon="9.3053219"><ele>530.0</ele><time>2026-04-18T06:57:09.999Z</time></trkpt><trkpt lat="44.6768555" lon="9.3053216"><ele>530.0</ele><time>2026-04-18T06:57:11.999Z</time></trkpt><trkpt lat="44.6769301" lon="9.3053513"><ele>530.0</ele><time>2026-04-18T06:58:54.999Z</time></trkpt><trkpt lat="44.6769904" lon="9.3053139"><ele>530.0</ele><time>2026-04-18T06:58:57.999Z</time></trkpt><trkpt lat="44.6771616" lon="9.3052639"><ele>530.25</ele><time>2026-04-18T06:58:59.999Z</time></trkpt><trkpt lat="44.6773053" lon="9.3052146"><ele>530.5</ele><time>2026-04-18T06:59:00.999Z</time></trkpt><trkpt lat="44.6774132" lon="9.3051682"><ele>530.75</ele><time>2026-04-18T06:59:01.999Z</time></trkpt><trkpt lat="44.6775925" lon="9.3051811"><ele>531.0</ele><time>2026-04-18T06:59:03Z</time></trkpt><trkpt lat="44.6776791" lon="9.3051002"><ele>536.25</ele><time>2026-04-18T06:59:03.999Z</time></trkpt><trkpt lat="44.6777723" lon="9.3050122"><ele>541.5</ele><time>2026-04-18T06:59:04.999Z</time></trkpt><trkpt lat="44.6778592" lon="9.3049033"><ele>546.75</ele><time>2026-04-18T06:59:05.999Z</time></trkpt><trkpt lat="44.6779679" lon="9.3048542"><ele>552.0</ele><time>2026-04-18T06:59:06.999Z</time></trkpt><trkpt lat="44.6780714" lon="9.3048103"><ele>552.0</ele><time>2026-04-18T06:59:07.999Z</time></trkpt><trkpt lat="44.6781686" lon="9.3047646"><ele>552.0</ele><time>2026-04-18T06:59:08.999Z</time></trkpt><trkpt lat="44.6782612" lon="9.3046762"><ele>552.0</ele><time>2026-04-18T06:59:09.999Z</time></trkpt><trkpt lat="44.6782994" lon="9.3045227"><ele>552.0</ele><time>2026-04-18T06:59:10.999Z</time></trkpt><trkpt lat="44.6783649" lon="9.3044059"><ele>552.0</ele><time>2026-04-18T06:59:11.999Z</time></trkpt><trkpt lat="44.6784334" lon="9.3042683"><ele>550.5</ele><time>2026-04-18T06:59:12.999Z</time></trkpt><trkpt lat="44.6785187" lon="9.3041418"><ele>549.0</ele><time>2026-04-18T06:59:13.999Z</time></trkpt><trkpt lat="44.6786293" lon="9.3040584"><ele>547.5</ele><time>2026-04-18T06:59:14.999Z</time></trkpt><trkpt lat="44.6787533" lon="9.3039834"><ele>546.0</ele><time>2026-04-18T06:59:16.108Z</time></trkpt><trkpt lat="44.6790182" lon="9.3038956"><ele>539.0</ele><time>2026-04-18T06:59:17.999Z</time></trkpt><trkpt lat="44.6791529" lon="9.3038668"><ele>532.0</ele><time>2026-04-18T06:59:18.999Z</time></trkpt><trkpt lat="44.6792891" lon="9.3038519"><ele>525.0</ele><time>2026-04-18T06:59:19.999Z</time></trkpt><trkpt lat="44.6794236" lon="9.3038341"><ele>518.0</ele><time>2026-04-18T06:59:20.999Z</time></trkpt><trkpt lat="44.6795384" lon="9.3037587"><ele>518.0</ele><time>2026-04-18T06:59:21.999Z</time></trkpt><trkpt lat="44.6796567" lon="9.3036816"><ele>518.0</ele><time>2026-04-18T06:59:22.999Z</time></trkpt><trkpt lat="44.6797676" lon="9.3035812"><ele>518.0</ele><time>2026-04-18T06:59:23.999Z</time></trkpt><trkpt lat="44.6798771" lon="9.3034987"><ele>518.0</ele><time>2026-04-18T06:59:24.999Z</time></trkpt><trkpt lat="44.6799807" lon="9.3034222"><ele>518.0</ele><time>2026-04-18T06:59:25.999Z</time></trkpt><trkpt lat="44.6800774" lon="9.3033783"><ele>518.0</ele><time>2026-04-18T06:59:26.999Z</time></trkpt><trkpt lat="44.6801745" lon="9.303349"><ele>518.0</ele><time>2026-04-18T06:59:27.999Z</time></trkpt><trkpt lat="44.6802731" lon="9.3033972"><ele>518.0</ele><time>2026-04-18T06:59:28.999Z</time></trkpt><trkpt lat="44.6803781" lon="9.3034531"><ele>518.0</ele><time>2026-04-18T06:59:29.999Z</time></trkpt><trkpt lat="44.6804834" lon="9.3035741"><ele>519.6666666666666</ele><time>2026-04-18T06:59:31.109Z</time></trkpt><trkpt lat="44.6807111" lon="9.3038421"><ele>521.3333333333334</ele><time>2026-04-18T06:59:32.999Z</time></trkpt><trkpt lat="44.6808258" lon="9.3039714"><ele>523.0</ele><time>2026-04-18T06:59:33.999Z</time></trkpt><trkpt lat="44.6809403" lon="9.3040788"><ele>523.0</ele><time>2026-04-18T06:59:34.999Z</time></trkpt><trkpt lat="44.6810649" lon="9.3041633"><ele>523.0</ele><time>2026-04-18T06:59:35.999Z</time></trkpt><trkpt lat="44.6811871" lon="9.304199"><ele>523.0</ele><time>2026-04-18T06:59:36.999Z</time></trkpt><trkpt lat="44.6813057" lon="9.30422"><ele>523.0</ele><time>2026-04-18T06:59:37.999Z</time></trkpt><trkpt lat="44.6814355" lon="9.3042219"><ele>517.3333333333334</ele><time>2026-04-18T06:59:38.999Z</time></trkpt><trkpt lat="44.681584" lon="9.3041951"><ele>511.66666666666663</ele><time>2026-04-18T06:59:40.107Z</time></trkpt><trkpt lat="44.6818645" lon="9.3041304"><ele>506.0</ele><time>2026-04-18T06:59:41.999Z</time></trkpt><trkpt lat="44.6820014" lon="9.3040873"><ele>504.75</ele><time>2026-04-18T06:59:42.999Z</time></trkpt><trkpt lat="44.6821277" lon="9.3040433"><ele>503.5</ele><time>2026-04-18T06:59:43.999Z</time></trkpt><trkpt lat="44.6822573" lon="9.3040105"><ele>502.25</ele><time>2026-04-18T06:59:44.999Z</time></trkpt><trkpt lat="44.6823682" lon="9.303973"><ele>501.0</ele><time>2026-04-18T06:59:45.999Z</time></trkpt><trkpt lat="44.6824792" lon="9.30396"><ele>501.0</ele><time>2026-04-18T06:59:47Z</time></trkpt><trkpt lat="44.6825966" lon="9.3039755"><ele>501.0</ele><time>2026-04-18T06:59:47.999Z</time></trkpt><trkpt lat="44.6826902" lon="9.3040148"><ele>501.0</ele><time>2026-04-18T06:59:48.999Z</time></trkpt><trkpt lat="44.6827452" lon="9.3041363"><ele>501.0</ele><time>2026-04-18T06:59:49.999Z</time></trkpt><trkpt lat="44.6828075" lon="9.3042805"><ele>501.0</ele><time>2026-04-18T06:59:50.999Z</time></trkpt><trkpt lat="44.6828615" lon="9.3044453"><ele>498.5</ele><time>2026-04-18T06:59:51.999Z</time></trkpt><trkpt lat="44.6829276" lon="9.3046199"><ele>496.0</ele><time>2026-04-18T06:59:52.999Z</time></trkpt><trkpt lat="44.6829947" lon="9.304797"><ele>493.5</ele><time>2026-04-18T06:59:53.999Z</time></trkpt><trkpt lat="44.6830622" lon="9.3049697"><ele>491.0</ele><time>2026-04-18T06:59:54.999Z</time></trkpt><trkpt lat="44.6831043" lon="9.3051316"><ele>490.6</ele><time>2026-04-18T06:59:55.999Z</time></trkpt><trkpt lat="44.6831264" lon="9.3052929"><ele>490.20000000000005</ele><time>2026-04-18T06:59:56.999Z</time></trkpt><trkpt lat="44.6831117" lon="9.305448"><ele>489.79999999999995</ele><time>2026-04-18T06:59:57.999Z</time></trkpt><trkpt lat="44.6831312" lon="9.3055932"><ele>489.4</ele><time>2026-04-18T06:59:58.999Z</time></trkpt><trkpt lat="44.6831884" lon="9.3057267"><ele>489.0</ele><time>2026-04-18T06:59:59.999Z</time></trkpt><trkpt lat="44.6832559" lon="9.3057847"><ele>491.25</ele><time>2026-04-18T07:00:00.999Z</time></trkpt><trkpt lat="44.6833693" lon="9.3058682"><ele>493.5</ele><time>2026-04-18T07:00:01.999Z</time></trkpt><trkpt lat="44.6834778" lon="9.3059304"><ele>495.75</ele><time>2026-04-18T07:00:02.999Z</time></trkpt><trkpt lat="44.6835783" lon="9.3059742"><ele>498.0</ele><time>2026-04-18T07:00:03.999Z</time></trkpt><trkpt lat="44.6836748" lon="9.3060518"><ele>493.75</ele><time>2026-04-18T07:00:04.999Z</time></trkpt><trkpt lat="44.6837378" lon="9.3061702"><ele>489.5</ele><time>2026-04-18T07:00:05.999Z</time></trkpt><trkpt lat="44.6837887" lon="9.3063154"><ele>485.25</ele><time>2026-04-18T07:00:06.999Z</time></trkpt><trkpt lat="44.6838158" lon="9.3064735"><ele>481.0</ele><time>2026-04-18T07:00:07.999Z</time></trkpt><trkpt lat="44.6838261" lon="9.3066353"><ele>481.0</ele><time>2026-04-18T07:00:09Z</time></trkpt><trkpt lat="44.6838163" lon="9.3067941"><ele>481.0</ele><time>2026-04-18T07:00:09.999Z</time></trkpt><trkpt lat="44.6837869" lon="9.306955"><ele>481.0</ele><time>2026-04-18T07:00:10.999Z</time></trkpt><trkpt lat="44.6837394" lon="9.3071194"><ele>481.0</ele><time>2026-04-18T07:00:11.999Z</time></trkpt><trkpt lat="44.6837105" lon="9.3072905"><ele>481.25</ele><time>2026-04-18T07:00:12.999Z</time></trkpt><trkpt lat="44.6836697" lon="9.3074416"><ele>481.5</ele><time>2026-04-18T07:00:13.999Z</time></trkpt><trkpt lat="44.6836021" lon="9.3075736"><ele>481.75</ele><time>2026-04-18T07:00:14.999Z</time></trkpt><trkpt lat="44.6835377" lon="9.3077067"><ele>482.0</ele><time>2026-04-18T07:00:15.999Z</time></trkpt><trkpt lat="44.6834472" lon="9.3078223"><ele>483.16666666666663</ele><time>2026-04-18T07:00:16.999Z</time></trkpt><trkpt lat="44.6833642" lon="9.3079373"><ele>484.3333333333333</ele><time>2026-04-18T07:00:17.999Z</time></trkpt><trkpt lat="44.6833141" lon="9.3080445"><ele>485.5</ele><time>2026-04-18T07:00:18.999Z</time></trkpt><trkpt lat="44.683292" lon="9.3081428"><ele>486.66666666666663</ele><time>2026-04-18T07:00:19.999Z</time></trkpt><trkpt lat="44.6833077" lon="9.3082529"><ele>487.8333333333333</ele><time>2026-04-18T07:00:20.999Z</time></trkpt><trkpt lat="44.6833564" lon="9.3083553"><ele>489.0</ele><time>2026-04-18T07:00:21.999Z</time></trkpt><trkpt lat="44.683439" lon="9.308425"><ele>489.0</ele><time>2026-04-18T07:00:22.999Z</time></trkpt><trkpt lat="44.6835315" lon="9.3084819"><ele>489.0</ele><time>2026-04-18T07:00:23.999Z</time></trkpt><trkpt lat="44.6836341" lon="9.3085427"><ele>489.0</ele><time>2026-04-18T07:00:24.999Z</time></trkpt><trkpt lat="44.6837179" lon="9.308637"><ele>489.0</ele><time>2026-04-18T07:00:25.999Z</time></trkpt><trkpt lat="44.6837889" lon="9.3087544"><ele>489.0</ele><time>2026-04-18T07:00:26.999Z</time></trkpt><trkpt lat="44.6838471" lon="9.3088831"><ele>489.4</ele><time>2026-04-18T07:00:27.999Z</time></trkpt><trkpt lat="44.683912" lon="9.3090002"><ele>489.79999999999995</ele><time>2026-04-18T07:00:28.999Z</time></trkpt><trkpt lat="44.6839774" lon="9.3090691"><ele>490.20000000000005</ele><time>2026-04-18T07:00:29.999Z</time></trkpt><trkpt lat="44.6840693" lon="9.3091125"><ele>490.6</ele><time>2026-04-18T07:00:30.999Z</time></trkpt><trkpt lat="44.6841776" lon="9.3091296"><ele>491.0</ele><time>2026-04-18T07:00:31.999Z</time></trkpt><trkpt lat="44.6843013" lon="9.3091375"><ele>491.0</ele><time>2026-04-18T07:00:32.999Z</time></trkpt><trkpt lat="44.6844224" lon="9.3091427"><ele>491.0</ele><time>2026-04-18T07:00:33.999Z</time></trkpt><trkpt lat="44.6845422" lon="9.3091432"><ele>491.0</ele><time>2026-04-18T07:00:34.999Z</time></trkpt><trkpt lat="44.6846571" lon="9.3091152"><ele>491.0</ele><time>2026-04-18T07:00:36Z</time></trkpt><trkpt lat="44.6847711" lon="9.309029"><ele>490.75</ele><time>2026-04-18T07:00:36.999Z</time></trkpt><trkpt lat="44.6848851" lon="9.3089622"><ele>490.5</ele><time>2026-04-18T07:00:37.999Z</time></trkpt><trkpt lat="44.685012" lon="9.3089131"><ele>490.25</ele><time>2026-04-18T07:00:38.999Z</time></trkpt><trkpt lat="44.6851511" lon="9.3088818"><ele>490.0</ele><time>2026-04-18T07:00:39.999Z</time></trkpt><trkpt lat="44.6852932" lon="9.3088693"><ele>480.5</ele><time>2026-04-18T07:00:40.999Z</time></trkpt><trkpt lat="44.6854376" lon="9.3088747"><ele>471.0</ele><time>2026-04-18T07:00:41.999Z</time></trkpt><trkpt lat="44.6855737" lon="9.3088827"><ele>461.5</ele><time>2026-04-18T07:00:42.999Z</time></trkpt><trkpt lat="44.6857043" lon="9.3088887"><ele>452.0</ele><time>2026-04-18T07:00:43.999Z</time></trkpt><trkpt lat="44.6858276" lon="9.3088806"><ele>452.0</ele><time>2026-04-18T07:00:44.999Z</time></trkpt><trkpt lat="44.6859554" lon="9.3088613"><ele>452.0</ele><time>2026-04-18T07:00:45.999Z</time></trkpt><trkpt lat="44.6860818" lon="9.308842"><ele>452.0</ele><time>2026-04-18T07:00:46.999Z</time></trkpt><trkpt lat="44.6862065" lon="9.3088415"><ele>452.0</ele><time>2026-04-18T07:00:47.999Z</time></trkpt><trkpt lat="44.6863296" lon="9.3088682"><ele>455.20000000000005</ele><time>2026-04-18T07:00:48.999Z</time></trkpt><trkpt lat="44.686429" lon="9.3089353"><ele>458.40000000000003</ele><time>2026-04-18T07:00:49.999Z</time></trkpt><trkpt lat="44.686552" lon="9.3089767"><ele>461.59999999999997</ele><time>2026-04-18T07:00:50.999Z</time></trkpt><trkpt lat="44.6866478" lon="9.3090152"><ele>464.79999999999995</ele><time>2026-04-18T07:00:51.999Z</time></trkpt><trkpt lat="44.6867507" lon="9.3090736"><ele>468.0</ele><time>2026-04-18T07:00:52.999Z</time></trkpt><trkpt lat="44.6868266" lon="9.3091678"><ele>468.0</ele><time>2026-04-18T07:00:53.999Z</time></trkpt><trkpt lat="44.6869007" lon="9.309283"><ele>468.0</ele><time>2026-04-18T07:00:54.999Z</time></trkpt><trkpt lat="44.6869467" lon="9.3094373"><ele>468.0</ele><time>2026-04-18T07:00:55.999Z</time></trkpt><trkpt lat="44.6869613" lon="9.3095986"><ele>468.0</ele><time>2026-04-18T07:00:56.999Z</time></trkpt><trkpt lat="44.6869466" lon="9.3097688"><ele>468.5</ele><time>2026-04-18T07:00:57.999Z</time></trkpt><trkpt lat="44.6869004" lon="9.3099218"><ele>469.0</ele><time>2026-04-18T07:00:58.999Z</time></trkpt><trkpt lat="44.6868245" lon="9.3100492"><ele>469.5</ele><time>2026-04-18T07:00:59.999Z</time></trkpt><trkpt lat="44.6867116" lon="9.3101299"><ele>470.0</ele><time>2026-04-18T07:01:00.999Z</time></trkpt><trkpt lat="44.6866049" lon="9.3101789"><ele>470.0</ele><time>2026-04-18T07:01:01.999Z</time></trkpt><trkpt lat="44.6864921" lon="9.3102061"><ele>470.0</ele><time>2026-04-18T07:01:02.999Z</time></trkpt><trkpt lat="44.6864021" lon="9.3102692"><ele>470.0</ele><time>2026-04-18T07:01:03.999Z</time></trkpt><trkpt lat="44.6863338" lon="9.3103927"><ele>470.0</ele><time>2026-04-18T07:01:04.999Z</time></trkpt><trkpt lat="44.686278" lon="9.3105337"><ele>470.0</ele><time>2026-04-18T07:01:05.999Z</time></trkpt><trkpt lat="44.6862407" lon="9.3107088"><ele>464.5</ele><time>2026-04-18T07:01:06.999Z</time></trkpt><trkpt lat="44.6862088" lon="9.3108615"><ele>459.0</ele><time>2026-04-18T07:01:07.999Z</time></trkpt><trkpt lat="44.6861994" lon="9.3110345"><ele>453.5</ele><time>2026-04-18T07:01:08.999Z</time></trkpt><trkpt lat="44.6862135" lon="9.3112184"><ele>448.0</ele><time>2026-04-18T07:01:09.999Z</time></trkpt><trkpt lat="44.6862532" lon="9.3113934"><ele>450.0</ele><time>2026-04-18T07:01:10.999Z</time></trkpt><trkpt lat="44.686325" lon="9.3115384"><ele>452.0</ele><time>2026-04-18T07:01:11.999Z</time></trkpt><trkpt lat="44.6864317" lon="9.3115597"><ele>454.0</ele><time>2026-04-18T07:01:12.999Z</time></trkpt><trkpt lat="44.6865316" lon="9.3116482"><ele>456.0</ele><time>2026-04-18T07:01:13.999Z</time></trkpt><trkpt lat="44.6866343" lon="9.3117693"><ele>456.0</ele><time>2026-04-18T07:01:14.999Z</time></trkpt><trkpt lat="44.6867213" lon="9.3119142"><ele>456.0</ele><time>2026-04-18T07:01:16.113Z</time></trkpt><trkpt lat="44.6868816" lon="9.3122243"><ele>456.0</ele><time>2026-04-18T07:01:17.999Z</time></trkpt><trkpt lat="44.6869504" lon="9.312398"><ele>452.5</ele><time>2026-04-18T07:01:18.999Z</time></trkpt><trkpt lat="44.6870057" lon="9.3125735"><ele>449.0</ele><time>2026-04-18T07:01:19.999Z</time></trkpt><trkpt lat="44.6870578" lon="9.3127407"><ele>445.5</ele><time>2026-04-18T07:01:20.999Z</time></trkpt><trkpt lat="44.687107" lon="9.3129102"><ele>442.0</ele><time>2026-04-18T07:01:21.999Z</time></trkpt><trkpt lat="44.687143" lon="9.3130733"><ele>442.0</ele><time>2026-04-18T07:01:22.999Z</time></trkpt><trkpt lat="44.687182" lon="9.3132134"><ele>442.0</ele><time>2026-04-18T07:01:23.999Z</time></trkpt><trkpt lat="44.6872341" lon="9.3133502"><ele>442.0</ele><time>2026-04-18T07:01:25.106Z</time></trkpt><trkpt lat="44.6874108" lon="9.3135249"><ele>442.0</ele><time>2026-04-18T07:01:26.999Z</time></trkpt><trkpt lat="44.687518" lon="9.3135772"><ele>442.0</ele><time>2026-04-18T07:01:27.999Z</time></trkpt><trkpt lat="44.6876027" lon="9.3136599"><ele>442.00000000000006</ele><time>2026-04-18T07:01:28.999Z</time></trkpt><trkpt lat="44.6876622" lon="9.3137727"><ele>442.00000000000006</ele><time>2026-04-18T07:01:29.999Z</time></trkpt><trkpt lat="44.6876873" lon="9.313928"><ele>442.0</ele><time>2026-04-18T07:01:31.106Z</time></trkpt><trkpt lat="44.6876977" lon="9.3140994"><ele>442.0</ele><time>2026-04-18T07:01:32.109Z</time></trkpt><trkpt lat="44.6876595" lon="9.3144573"><ele>443.0</ele><time>2026-04-18T07:01:33.999Z</time></trkpt><trkpt lat="44.6876141" lon="9.3146341"><ele>444.0</ele><time>2026-04-18T07:01:34.999Z</time></trkpt><trkpt lat="44.6875578" lon="9.3148082"><ele>445.0</ele><time>2026-04-18T07:01:36.113Z</time></trkpt><trkpt lat="44.687421" lon="9.3150948"><ele>445.0</ele><time>2026-04-18T07:01:37.999Z</time></trkpt><trkpt lat="44.6873552" lon="9.3152062"><ele>445.0</ele><time>2026-04-18T07:01:38.999Z</time></trkpt><trkpt lat="44.6873234" lon="9.315347"><ele>445.0</ele><time>2026-04-18T07:01:39.999Z</time></trkpt><trkpt lat="44.6873245" lon="9.3154892"><ele>445.0</ele><time>2026-04-18T07:01:40.999Z</time></trkpt><trkpt lat="44.6873525" lon="9.3156363"><ele>445.0</ele><time>2026-04-18T07:01:42Z</time></trkpt><trkpt lat="44.6873606" lon="9.315795"><ele>441.75</ele><time>2026-04-18T07:01:42.999Z</time></trkpt><trkpt lat="44.6873427" lon="9.3159583"><ele>438.5</ele><time>2026-04-18T07:01:43.999Z</time></trkpt><trkpt lat="44.6873207" lon="9.3161253"><ele>435.25</ele><time>2026-04-18T07:01:45.125Z</time></trkpt><trkpt lat="44.6872941" lon="9.3163005"><ele>432.0</ele><time>2026-04-18T07:01:46.111Z</time></trkpt><trkpt lat="44.6872669" lon="9.3164825"><ele>428.66666666666663</ele><time>2026-04-18T07:01:47.11Z</time></trkpt><trkpt lat="44.6872293" lon="9.3168466"><ele>425.3333333333333</ele><time>2026-04-18T07:01:48.999Z</time></trkpt><trkpt lat="44.6872361" lon="9.3170151"><ele>422.0</ele><time>2026-04-18T07:01:49.999Z</time></trkpt><trkpt lat="44.6872561" lon="9.3171704"><ele>419.6</ele><time>2026-04-18T07:01:50.999Z</time></trkpt><trkpt lat="44.6872724" lon="9.3172954"><ele>417.20000000000005</ele><time>2026-04-18T07:01:51.999Z</time></trkpt><trkpt lat="44.6872679" lon="9.3174314"><ele>414.8</ele><time>2026-04-18T07:01:52.999Z</time></trkpt><trkpt lat="44.6872458" lon="9.3175745"><ele>412.4</ele><time>2026-04-18T07:01:53.999Z</time></trkpt><trkpt lat="44.6871978" lon="9.3176985"><ele>410.0</ele><time>2026-04-18T07:01:54.999Z</time></trkpt><trkpt lat="44.6871281" lon="9.3178048"><ele>410.0</ele><time>2026-04-18T07:01:55.999Z</time></trkpt><trkpt lat="44.6870412" lon="9.317932"><ele>410.0</ele><time>2026-04-18T07:01:56.999Z</time></trkpt><trkpt lat="44.6869663" lon="9.3180584"><ele>410.0</ele><time>2026-04-18T07:01:57.999Z</time></trkpt><trkpt lat="44.6869112" lon="9.3182064"><ele>410.0</ele><time>2026-04-18T07:01:58.999Z</time></trkpt><trkpt lat="44.6868641" lon="9.3183622"><ele>412.25</ele><time>2026-04-18T07:01:59.999Z</time></trkpt><trkpt lat="44.6868458" lon="9.3185307"><ele>414.5</ele><time>2026-04-18T07:02:00.999Z</time></trkpt><trkpt lat="44.6868544" lon="9.3187139"><ele>416.75</ele><time>2026-04-18T07:02:01.999Z</time></trkpt><trkpt lat="44.6868918" lon="9.3188979"><ele>419.0</ele><time>2026-04-18T07:02:02.999Z</time></trkpt><trkpt lat="44.6869454" lon="9.3190698"><ele>419.0</ele><time>2026-04-18T07:02:03.999Z</time></trkpt><trkpt lat="44.6869916" lon="9.3192466"><ele>419.0</ele><time>2026-04-18T07:02:05.101Z</time></trkpt><trkpt lat="44.6870989" lon="9.3195367"><ele>419.0</ele><time>2026-04-18T07:02:06.999Z</time></trkpt><trkpt lat="44.6871768" lon="9.3195375"><ele>419.0</ele><time>2026-04-18T07:02:07.999Z</time></trkpt><trkpt lat="44.6872604" lon="9.3195859"><ele>419.0</ele><time>2026-04-18T07:02:08.999Z</time></trkpt><trkpt lat="44.6873757" lon="9.3195638"><ele>419.0</ele><time>2026-04-18T07:02:09.999Z</time></trkpt><trkpt lat="44.6874891" lon="9.3195081"><ele>419.0</ele><time>2026-04-18T07:02:10.999Z</time></trkpt><trkpt lat="44.6876006" lon="9.3193939"><ele>419.0</ele><time>2026-04-18T07:02:11.999Z</time></trkpt><trkpt lat="44.6877035" lon="9.3193323"><ele>412.79999999999995</ele><time>2026-04-18T07:02:12.999Z</time></trkpt><trkpt lat="44.6877874" lon="9.3193173"><ele>406.59999999999997</ele><time>2026-04-18T07:02:13.999Z</time></trkpt><trkpt lat="44.6878801" lon="9.3193445"><ele>400.4</ele><time>2026-04-18T07:02:14.999Z</time></trkpt><trkpt lat="44.6879667" lon="9.3194311"><ele>394.2</ele><time>2026-04-18T07:02:15.999Z</time></trkpt><trkpt lat="44.6880286" lon="9.3195443"><ele>388.0</ele><time>2026-04-18T07:02:16.999Z</time></trkpt><trkpt lat="44.6880542" lon="9.3196972"><ele>389.5</ele><time>2026-04-18T07:02:17.999Z</time></trkpt><trkpt lat="44.6880704" lon="9.3198673"><ele>391.0</ele><time>2026-04-18T07:02:18.999Z</time></trkpt><trkpt lat="44.688072" lon="9.3200567"><ele>392.5</ele><time>2026-04-18T07:02:19.999Z</time></trkpt><trkpt lat="44.6880672" lon="9.3202553"><ele>394.0</ele><time>2026-04-18T07:02:20.999Z</time></trkpt><trkpt lat="44.6880628" lon="9.3204615"><ele>396.0</ele><time>2026-04-18T07:02:21.999Z</time></trkpt><trkpt lat="44.6880565" lon="9.3206814"><ele>398.0</ele><time>2026-04-18T07:02:22.999Z</time></trkpt><trkpt lat="44.6880488" lon="9.3208911"><ele>400.0</ele><time>2026-04-18T07:02:23.999Z</time></trkpt><trkpt lat="44.6880382" lon="9.3211047"><ele>400.0</ele><time>2026-04-18T07:02:24.999Z</time></trkpt><trkpt lat="44.68803" lon="9.3212915"><ele>400.0</ele><time>2026-04-18T07:02:25.999Z</time></trkpt><trkpt lat="44.6880294" lon="9.3214842"><ele>400.0</ele><time>2026-04-18T07:02:26.999Z</time></trkpt><trkpt lat="44.6880497" lon="9.3216744"><ele>400.0</ele><time>2026-04-18T07:02:27.999Z</time></trkpt><trkpt lat="44.6880913" lon="9.3218606"><ele>401.0</ele><time>2026-04-18T07:02:28.999Z</time></trkpt><trkpt lat="44.6881505" lon="9.3220428"><ele>402.0</ele><time>2026-04-18T07:02:29.999Z</time></trkpt><trkpt lat="44.6881913" lon="9.3222241"><ele>403.0</ele><time>2026-04-18T07:02:30.999Z</time></trkpt><trkpt lat="44.6881991" lon="9.3224051"><ele>404.0</ele><time>2026-04-18T07:02:31.999Z</time></trkpt><trkpt lat="44.6882007" lon="9.3225784"><ele>404.0</ele><time>2026-04-18T07:02:32.999Z</time></trkpt><trkpt lat="44.6882111" lon="9.3227523"><ele>404.0</ele><time>2026-04-18T07:02:33.999Z</time></trkpt><trkpt lat="44.6882511" lon="9.3229006"><ele>404.0</ele><time>2026-04-18T07:02:34.999Z</time></trkpt><trkpt lat="44.6883929" lon="9.3229998"><ele>404.0</ele><time>2026-04-18T07:02:36.999Z</time></trkpt><trkpt lat="44.6885002" lon="9.3230525"><ele>400.75</ele><time>2026-04-18T07:02:37.999Z</time></trkpt><trkpt lat="44.6886089" lon="9.3230846"><ele>397.5</ele><time>2026-04-18T07:02:38.999Z</time></trkpt><trkpt lat="44.6887125" lon="9.3231203"><ele>394.25</ele><time>2026-04-18T07:02:39.999Z</time></trkpt><trkpt lat="44.6888276" lon="9.3231684"><ele>391.0</ele><time>2026-04-18T07:02:41.105Z</time></trkpt><trkpt lat="44.6889875" lon="9.3233521"><ele>391.0</ele><time>2026-04-18T07:02:42.999Z</time></trkpt><trkpt lat="44.6890636" lon="9.3234762"><ele>391.0</ele><time>2026-04-18T07:02:43.999Z</time></trkpt><trkpt lat="44.689135" lon="9.3236025"><ele>391.0</ele><time>2026-04-18T07:02:44.999Z</time></trkpt><trkpt lat="44.6892005" lon="9.3237231"><ele>391.0</ele><time>2026-04-18T07:02:45.999Z</time></trkpt><trkpt lat="44.6892491" lon="9.3238613"><ele>391.0</ele><time>2026-04-18T07:02:47.105Z</time></trkpt><trkpt lat="44.6892734" lon="9.3241483"><ele>391.20000000000005</ele><time>2026-04-18T07:02:48.999Z</time></trkpt><trkpt lat="44.6892757" lon="9.3242702"><ele>391.40000000000003</ele><time>2026-04-18T07:02:49.999Z</time></trkpt><trkpt lat="44.6892813" lon="9.3243602"><ele>391.6</ele><time>2026-04-18T07:02:51.11Z</time></trkpt><trkpt lat="44.68929" lon="9.3245006"><ele>391.8</ele><time>2026-04-18T07:02:52.999Z</time></trkpt><trkpt lat="44.6893019" lon="9.3246044"><ele>392.0</ele><time>2026-04-18T07:02:55.999Z</time></trkpt><trkpt lat="44.6893308" lon="9.3248688"><ele>392.0</ele><time>2026-04-18T07:03:29.999Z</time></trkpt><trkpt lat="44.6893338" lon="9.3250644"><ele>392.0</ele><time>2026-04-18T07:03:31.999Z</time></trkpt><trkpt lat="44.6893395" lon="9.3251875"><ele>392.0</ele><time>2026-04-18T07:03:32.999Z</time></trkpt><trkpt lat="44.6893458" lon="9.3253131"><ele>392.0</ele><time>2026-04-18T07:03:33.999Z</time></trkpt><trkpt lat="44.6893505" lon="9.3254435"><ele>392.0</ele><time>2026-04-18T07:03:34.999Z</time></trkpt><trkpt lat="44.6893508" lon="9.3255874"><ele>391.40000000000003</ele><time>2026-04-18T07:03:35.999Z</time></trkpt><trkpt lat="44.6893376" lon="9.3257031"><ele>390.8</ele><time>2026-04-18T07:03:36.999Z</time></trkpt><trkpt lat="44.6893283" lon="9.3258714"><ele>390.2</ele><time>2026-04-18T07:03:37.999Z</time></trkpt><trkpt lat="44.6893119" lon="9.3260351"><ele>389.6</ele><time>2026-04-18T07:03:38.999Z</time></trkpt><trkpt lat="44.6892952" lon="9.3262001"><ele>389.0</ele><time>2026-04-18T07:03:39.999Z</time></trkpt><trkpt lat="44.6892686" lon="9.3263681"><ele>387.66666666666663</ele><time>2026-04-18T07:03:41.11Z</time></trkpt><trkpt lat="44.6892077" lon="9.3267091"><ele>386.33333333333337</ele><time>2026-04-18T07:03:42.999Z</time></trkpt><trkpt lat="44.6891888" lon="9.3268847"><ele>385.0</ele><time>2026-04-18T07:03:43.999Z</time></trkpt><trkpt lat="44.6891754" lon="9.3270632"><ele>385.0</ele><time>2026-04-18T07:03:44.999Z</time></trkpt><trkpt lat="44.689154" lon="9.3272171"><ele>385.0</ele><time>2026-04-18T07:03:45.999Z</time></trkpt><trkpt lat="44.6891386" lon="9.3273933"><ele>385.0</ele><time>2026-04-18T07:03:46.999Z</time></trkpt><trkpt lat="44.6891236" lon="9.3275604"><ele>385.0</ele><time>2026-04-18T07:03:47.999Z</time></trkpt><trkpt lat="44.6891082" lon="9.3277223"><ele>383.6</ele><time>2026-04-18T07:03:48.999Z</time></trkpt><trkpt lat="44.6890798" lon="9.3278456"><ele>382.2</ele><time>2026-04-18T07:03:49.999Z</time></trkpt><trkpt lat="44.6890464" lon="9.3279975"><ele>380.79999999999995</ele><time>2026-04-18T07:03:50.999Z</time></trkpt><trkpt lat="44.6889995" lon="9.3281233"><ele>379.4</ele><time>2026-04-18T07:03:51.999Z</time></trkpt><trkpt lat="44.6889648" lon="9.3282766"><ele>378.0</ele><time>2026-04-18T07:03:52.999Z</time></trkpt><trkpt lat="44.6889319" lon="9.3284138"><ele>376.75</ele><time>2026-04-18T07:03:53.999Z</time></trkpt><trkpt lat="44.6888792" lon="9.3286658"><ele>375.5</ele><time>2026-04-18T07:03:55.999Z</time></trkpt><trkpt lat="44.6888803" lon="9.3287779"><ele>374.25</ele><time>2026-04-18T07:03:57.108Z</time></trkpt><trkpt lat="44.6889689" lon="9.328949"><ele>373.0</ele><time>2026-04-18T07:03:58.999Z</time></trkpt><trkpt lat="44.6890315" lon="9.3289947"><ele>373.5</ele><time>2026-04-18T07:04:00Z</time></trkpt><trkpt lat="44.6891063" lon="9.3290446"><ele>374.0</ele><time>2026-04-18T07:04:01.11Z</time></trkpt><trkpt lat="44.6892757" lon="9.3291507"><ele>374.5</ele><time>2026-04-18T07:04:02.999Z</time></trkpt><trkpt lat="44.6893778" lon="9.3292103"><ele>375.0</ele><time>2026-04-18T07:04:03.999Z</time></trkpt><trkpt lat="44.6894757" lon="9.3292699"><ele>375.0</ele><time>2026-04-18T07:04:04.999Z</time></trkpt><trkpt lat="44.6895782" lon="9.3293334"><ele>375.0</ele><time>2026-04-18T07:04:06.112Z</time></trkpt><trkpt lat="44.6897804" lon="9.3294587"><ele>375.0</ele><time>2026-04-18T07:04:07.999Z</time></trkpt><trkpt lat="44.6898735" lon="9.3295184"><ele>375.0</ele><time>2026-04-18T07:04:08.999Z</time></trkpt><trkpt lat="44.6899632" lon="9.3295721"><ele>375.0</ele><time>2026-04-18T07:04:09.999Z</time></trkpt><trkpt lat="44.6900523" lon="9.3296305"><ele>375.0</ele><time>2026-04-18T07:04:11.115Z</time></trkpt><trkpt lat="44.6901252" lon="9.3297083"><ele>375.0</ele><time>2026-04-18T07:04:12.12Z</time></trkpt><trkpt lat="44.6902032" lon="9.3299447"><ele>375.0</ele><time>2026-04-18T07:04:13.999Z</time></trkpt><trkpt lat="44.6902037" lon="9.3300843"><ele>375.0</ele><time>2026-04-18T07:04:14.999Z</time></trkpt><trkpt lat="44.6901984" lon="9.3302295"><ele>375.0</ele><time>2026-04-18T07:04:16.101Z</time></trkpt><trkpt lat="44.6901951" lon="9.3303792"><ele>375.0</ele><time>2026-04-18T07:04:17.11Z</time></trkpt><trkpt lat="44.6901628" lon="9.3306636"><ele>375.0</ele><time>2026-04-18T07:04:18.999Z</time></trkpt><trkpt lat="44.69015" lon="9.3308072"><ele>375.0</ele><time>2026-04-18T07:04:19.999Z</time></trkpt><trkpt lat="44.6901436" lon="9.3309439"><ele>375.0</ele><time>2026-04-18T07:04:21Z</time></trkpt><trkpt lat="44.6901499" lon="9.3310879"><ele>375.0</ele><time>2026-04-18T07:04:21.999Z</time></trkpt><trkpt lat="44.6901623" lon="9.3312243"><ele>375.0</ele><time>2026-04-18T07:04:22.999Z</time></trkpt><trkpt lat="44.6901852" lon="9.3313648"><ele>375.0</ele><time>2026-04-18T07:04:23.999Z</time></trkpt><trkpt lat="44.6902144" lon="9.3315012"><ele>380.8</ele><time>2026-04-18T07:04:24.999Z</time></trkpt><trkpt lat="44.690269" lon="9.331629"><ele>386.6</ele><time>2026-04-18T07:04:25.999Z</time></trkpt><trkpt lat="44.6903353" lon="9.3317462"><ele>392.4</ele><time>2026-04-18T07:04:26.999Z</time></trkpt><trkpt lat="44.6904064" lon="9.3318572"><ele>398.2</ele><time>2026-04-18T07:04:27.999Z</time></trkpt><trkpt lat="44.6904724" lon="9.3319733"><ele>404.0</ele><time>2026-04-18T07:04:28.999Z</time></trkpt><trkpt lat="44.6905419" lon="9.3320821"><ele>404.0</ele><time>2026-04-18T07:04:30.116Z</time></trkpt><trkpt lat="44.6906177" lon="9.3321824"><ele>404.0</ele><time>2026-04-18T07:04:31.116Z</time></trkpt><trkpt lat="44.6907205" lon="9.3322435"><ele>404.0</ele><time>2026-04-18T07:04:32.105Z</time></trkpt><trkpt lat="44.6909147" lon="9.3323024"><ele>404.0</ele><time>2026-04-18T07:04:33.999Z</time></trkpt><trkpt lat="44.6909734" lon="9.3323591"><ele>402.6</ele><time>2026-04-18T07:04:35.104Z</time></trkpt><trkpt lat="44.6910255" lon="9.3325313"><ele>401.2</ele><time>2026-04-18T07:04:36.999Z</time></trkpt><trkpt lat="44.6909967" lon="9.3326626"><ele>399.8</ele><time>2026-04-18T07:04:38.999Z</time></trkpt><trkpt lat="44.6909297" lon="9.3327119"><ele>398.40000000000003</ele><time>2026-04-18T07:04:39.999Z</time></trkpt><trkpt lat="44.6907973" lon="9.3327101"><ele>397.0</ele><time>2026-04-18T07:04:41.1Z</time></trkpt><trkpt lat="44.6905824" lon="9.3327258"><ele>397.0</ele><time>2026-04-18T07:04:42.999Z</time></trkpt><trkpt lat="44.6904765" lon="9.3327432"><ele>397.0</ele><time>2026-04-18T07:04:43.999Z</time></trkpt><trkpt lat="44.6903747" lon="9.3327933"><ele>397.0</ele><time>2026-04-18T07:04:44.999Z</time></trkpt><trkpt lat="44.6902801" lon="9.3328517"><ele>397.0</ele><time>2026-04-18T07:04:45.999Z</time></trkpt><trkpt lat="44.6901945" lon="9.3329374"><ele>397.0</ele><time>2026-04-18T07:04:46.999Z</time></trkpt><trkpt lat="44.6901294" lon="9.3330294"><ele>396.6</ele><time>2026-04-18T07:04:47.999Z</time></trkpt><trkpt lat="44.6901032" lon="9.3331684"><ele>396.20000000000005</ele><time>2026-04-18T07:04:48.999Z</time></trkpt><trkpt lat="44.6901078" lon="9.3333108"><ele>395.8</ele><time>2026-04-18T07:04:49.999Z</time></trkpt><trkpt lat="44.6901193" lon="9.3334625"><ele>395.4</ele><time>2026-04-18T07:04:50.999Z</time></trkpt><trkpt lat="44.6901326" lon="9.33361"><ele>395.0</ele><time>2026-04-18T07:04:51.999Z</time></trkpt><trkpt lat="44.6901386" lon="9.3337809"><ele>395.5</ele><time>2026-04-18T07:04:52.999Z</time></trkpt><trkpt lat="44.6901401" lon="9.3339587"><ele>396.0</ele><time>2026-04-18T07:04:53.999Z</time></trkpt><trkpt lat="44.6901451" lon="9.3341273"><ele>396.5</ele><time>2026-04-18T07:04:54.999Z</time></trkpt><trkpt lat="44.6901606" lon="9.3342818"><ele>397.0</ele><time>2026-04-18T07:04:55.999Z</time></trkpt><trkpt lat="44.6902117" lon="9.3344367"><ele>402.0</ele><time>2026-04-18T07:04:56.999Z</time></trkpt><trkpt lat="44.6902785" lon="9.3345793"><ele>407.0</ele><time>2026-04-18T07:04:57.999Z</time></trkpt><trkpt lat="44.6903606" lon="9.3347261"><ele>412.0</ele><time>2026-04-18T07:04:58.999Z</time></trkpt><trkpt lat="44.690437" lon="9.3348723"><ele>417.0</ele><time>2026-04-18T07:04:59.999Z</time></trkpt><trkpt lat="44.6905002" lon="9.335024"><ele>418.25</ele><time>2026-04-18T07:05:00.999Z</time></trkpt><trkpt lat="44.6905398" lon="9.3351872"><ele>419.5</ele><time>2026-04-18T07:05:01.999Z</time></trkpt><trkpt lat="44.6905519" lon="9.3353671"><ele>420.75</ele><time>2026-04-18T07:05:02.999Z</time></trkpt><trkpt lat="44.6905558" lon="9.3355577"><ele>422.0</ele><time>2026-04-18T07:05:03.999Z</time></trkpt><trkpt lat="44.6905559" lon="9.3357444"><ele>422.25</ele><time>2026-04-18T07:05:04.999Z</time></trkpt><trkpt lat="44.6905563" lon="9.3359319"><ele>422.5</ele><time>2026-04-18T07:05:06.12Z</time></trkpt><trkpt lat="44.6905564" lon="9.3361189"><ele>422.75</ele><time>2026-04-18T07:05:06.999Z</time></trkpt><trkpt lat="44.6905562" lon="9.3363067"><ele>423.0</ele><time>2026-04-18T07:05:07.999Z</time></trkpt><trkpt lat="44.6905498" lon="9.3364992"><ele>423.0</ele><time>2026-04-18T07:05:08.999Z</time></trkpt><trkpt lat="44.6905291" lon="9.3366753"><ele>423.0</ele><time>2026-04-18T07:05:09.999Z</time></trkpt><trkpt lat="44.690504" lon="9.3368347"><ele>423.0</ele><time>2026-04-18T07:05:10.999Z</time></trkpt><trkpt lat="44.6904933" lon="9.3369809"><ele>423.0</ele><time>2026-04-18T07:05:11.999Z</time></trkpt><trkpt lat="44.6905115" lon="9.3371232"><ele>422.25</ele><time>2026-04-18T07:05:12.999Z</time></trkpt><trkpt lat="44.6905653" lon="9.3372546"><ele>421.5</ele><time>2026-04-18T07:05:13.999Z</time></trkpt><trkpt lat="44.6906354" lon="9.337375"><ele>420.75</ele><time>2026-04-18T07:05:15.108Z</time></trkpt><trkpt lat="44.690787" lon="9.3376024"><ele>420.0</ele><time>2026-04-18T07:05:16.999Z</time></trkpt><trkpt lat="44.690873" lon="9.3377004"><ele>420.0</ele><time>2026-04-18T07:05:17.999Z</time></trkpt><trkpt lat="44.6909742" lon="9.3377645"><ele>420.0</ele><time>2026-04-18T07:05:18.999Z</time></trkpt><trkpt lat="44.6910833" lon="9.337815"><ele>420.0</ele><time>2026-04-18T07:05:19.999Z</time></trkpt><trkpt lat="44.6912028" lon="9.3378551"><ele>420.0</ele><time>2026-04-18T07:05:20.999Z</time></trkpt><trkpt lat="44.6913285" lon="9.3378904"><ele>420.0</ele><time>2026-04-18T07:05:21.999Z</time></trkpt><trkpt lat="44.6914533" lon="9.3379228"><ele>420.0</ele><time>2026-04-18T07:05:22.999Z</time></trkpt><trkpt lat="44.6915644" lon="9.3379746"><ele>420.0</ele><time>2026-04-18T07:05:23.999Z</time></trkpt><trkpt lat="44.6916575" lon="9.3380504"><ele>420.0</ele><time>2026-04-18T07:05:24.999Z</time></trkpt><trkpt lat="44.6917281" lon="9.3381691"><ele>420.0</ele><time>2026-04-18T07:05:25.999Z</time></trkpt><trkpt lat="44.6917785" lon="9.3383016"><ele>420.0</ele><time>2026-04-18T07:05:26.999Z</time></trkpt><trkpt lat="44.6917916" lon="9.3384434"><ele>420.0</ele><time>2026-04-18T07:05:27.999Z</time></trkpt><trkpt lat="44.6917724" lon="9.3385871"><ele>420.0</ele><time>2026-04-18T07:05:28.999Z</time></trkpt><trkpt lat="44.691711" lon="9.3387111"><ele>420.0</ele><time>2026-04-18T07:05:30Z</time></trkpt><trkpt lat="44.6916422" lon="9.3388397"><ele>420.2</ele><time>2026-04-18T07:05:30.999Z</time></trkpt><trkpt lat="44.691569" lon="9.3389729"><ele>420.4</ele><time>2026-04-18T07:05:31.999Z</time></trkpt><trkpt lat="44.6914937" lon="9.3391006"><ele>420.6</ele><time>2026-04-18T07:05:32.999Z</time></trkpt><trkpt lat="44.6914363" lon="9.3392306"><ele>420.8</ele><time>2026-04-18T07:05:34.112Z</time></trkpt><trkpt lat="44.6914109" lon="9.3393577"><ele>421.0</ele><time>2026-04-18T07:05:35.125Z</time></trkpt><trkpt lat="44.6914667" lon="9.3396072"><ele>421.4</ele><time>2026-04-18T07:05:37.123Z</time></trkpt><trkpt lat="44.6915245" lon="9.3397215"><ele>421.8</ele><time>2026-04-18T07:05:37.999Z</time></trkpt><trkpt lat="44.6915566" lon="9.3398599"><ele>422.2</ele><time>2026-04-18T07:05:38.999Z</time></trkpt><trkpt lat="44.6915589" lon="9.3400172"><ele>422.59999999999997</ele><time>2026-04-18T07:05:39.999Z</time></trkpt><trkpt lat="44.6915267" lon="9.3401968"><ele>423.0</ele><time>2026-04-18T07:05:40.999Z</time></trkpt><trkpt lat="44.6914816" lon="9.3403748"><ele>423.0</ele><time>2026-04-18T07:05:41.999Z</time></trkpt><trkpt lat="44.6914344" lon="9.3405466"><ele>423.0</ele><time>2026-04-18T07:05:42.999Z</time></trkpt><trkpt lat="44.691395" lon="9.3407066"><ele>423.0</ele><time>2026-04-18T07:05:43.999Z</time></trkpt><trkpt lat="44.6913933" lon="9.3408728"><ele>423.0</ele><time>2026-04-18T07:05:44.999Z</time></trkpt><trkpt lat="44.6914041" lon="9.3410399"><ele>422.75</ele><time>2026-04-18T07:05:45.999Z</time></trkpt><trkpt lat="44.6914455" lon="9.3412377"><ele>422.5</ele><time>2026-04-18T07:05:46.999Z</time></trkpt><trkpt lat="44.6914802" lon="9.3414221"><ele>422.25</ele><time>2026-04-18T07:05:47.999Z</time></trkpt><trkpt lat="44.6914942" lon="9.3416077"><ele>422.0</ele><time>2026-04-18T07:05:48.999Z</time></trkpt><trkpt lat="44.6914865" lon="9.3417838"><ele>420.75</ele><time>2026-04-18T07:05:49.999Z</time></trkpt><trkpt lat="44.6914535" lon="9.341937"><ele>419.5</ele><time>2026-04-18T07:05:50.999Z</time></trkpt><trkpt lat="44.6914517" lon="9.3420608"><ele>418.25</ele><time>2026-04-18T07:05:52.108Z</time></trkpt><trkpt lat="44.6915158" lon="9.3422981"><ele>417.0</ele><time>2026-04-18T07:05:53.999Z</time></trkpt><trkpt lat="44.6915731" lon="9.3423619"><ele>411.0</ele><time>2026-04-18T07:05:55.101Z</time></trkpt><trkpt lat="44.6917967" lon="9.3423385"><ele>405.0</ele><time>2026-04-18T07:05:56.999Z</time></trkpt><trkpt lat="44.6919109" lon="9.3423004"><ele>399.0</ele><time>2026-04-18T07:05:57.999Z</time></trkpt><trkpt lat="44.6920225" lon="9.3422506"><ele>403.66666666666663</ele><time>2026-04-18T07:05:58.999Z</time></trkpt><trkpt lat="44.6920971" lon="9.3421563"><ele>408.3333333333333</ele><time>2026-04-18T07:05:59.999Z</time></trkpt><trkpt lat="44.6921794" lon="9.3420316"><ele>413.0</ele><time>2026-04-18T07:06:01.106Z</time></trkpt><trkpt lat="44.6923595" lon="9.3417799"><ele>413.0</ele><time>2026-04-18T07:06:02.999Z</time></trkpt><trkpt lat="44.6924551" lon="9.3416448"><ele>413.0</ele><time>2026-04-18T07:06:03.999Z</time></trkpt><trkpt lat="44.6925442" lon="9.3415119"><ele>413.0</ele><time>2026-04-18T07:06:05.111Z</time></trkpt><trkpt lat="44.6927047" lon="9.3412803"><ele>420.25</ele><time>2026-04-18T07:06:06.999Z</time></trkpt><trkpt lat="44.692818" lon="9.3412055"><ele>427.5</ele><time>2026-04-18T07:06:07.999Z</time></trkpt><trkpt lat="44.6929605" lon="9.3411607"><ele>434.75</ele><time>2026-04-18T07:06:08.999Z</time></trkpt><trkpt lat="44.6931096" lon="9.341172"><ele>442.0</ele><time>2026-04-18T07:06:09.999Z</time></trkpt><trkpt lat="44.6932332" lon="9.3411982"><ele>442.0</ele><time>2026-04-18T07:06:11.114Z</time></trkpt><trkpt lat="44.6933451" lon="9.3412391"><ele>442.00000000000006</ele><time>2026-04-18T07:06:11.999Z</time></trkpt><trkpt lat="44.6934159" lon="9.3413008"><ele>442.00000000000006</ele><time>2026-04-18T07:06:12.999Z</time></trkpt><trkpt lat="44.693454" lon="9.3414039"><ele>442.0</ele><time>2026-04-18T07:06:13.999Z</time></trkpt><trkpt lat="44.6934839" lon="9.3415127"><ele>442.0</ele><time>2026-04-18T07:06:14.999Z</time></trkpt><trkpt lat="44.6934589" lon="9.3416519"><ele>434.5</ele><time>2026-04-18T07:06:15.999Z</time></trkpt><trkpt lat="44.6934505" lon="9.3417851"><ele>427.0</ele><time>2026-04-18T07:06:17.133Z</time></trkpt><trkpt lat="44.6933429" lon="9.3419899"><ele>419.5</ele><time>2026-04-18T07:06:18.999Z</time></trkpt><trkpt lat="44.6932661" lon="9.3420991"><ele>412.0</ele><time>2026-04-18T07:06:19.999Z</time></trkpt><trkpt lat="44.6931876" lon="9.3422117"><ele>415.0</ele><time>2026-04-18T07:06:20.999Z</time></trkpt><trkpt lat="44.6931129" lon="9.342341"><ele>418.0</ele><time>2026-04-18T07:06:21.999Z</time></trkpt><trkpt lat="44.6930259" lon="9.3424692"><ele>421.0</ele><time>2026-04-18T07:06:22.999Z</time></trkpt><trkpt lat="44.6929453" lon="9.3426145"><ele>424.0</ele><time>2026-04-18T07:06:23.999Z</time></trkpt><trkpt lat="44.6928796" lon="9.3427717"><ele>424.0</ele><time>2026-04-18T07:06:24.999Z</time></trkpt><trkpt lat="44.6928326" lon="9.3429453"><ele>424.0</ele><time>2026-04-18T07:06:25.999Z</time></trkpt><trkpt lat="44.6927868" lon="9.3431252"><ele>424.0</ele><time>2026-04-18T07:06:26.999Z</time></trkpt><trkpt lat="44.6927304" lon="9.3432881"><ele>424.0</ele><time>2026-04-18T07:06:27.999Z</time></trkpt><trkpt lat="44.6926436" lon="9.3434518"><ele>418.33333333333337</ele><time>2026-04-18T07:06:28.999Z</time></trkpt><trkpt lat="44.6925473" lon="9.3435977"><ele>412.66666666666663</ele><time>2026-04-18T07:06:29.999Z</time></trkpt><trkpt lat="44.6924444" lon="9.3437467"><ele>407.0</ele><time>2026-04-18T07:06:30.999Z</time></trkpt><trkpt lat="44.6921002" lon="9.344114"><ele>409.0</ele><time>2026-04-18T07:06:33.999Z</time></trkpt><trkpt lat="44.6919703" lon="9.3442197"><ele>411.0</ele><time>2026-04-18T07:06:34.999Z</time></trkpt><trkpt lat="44.6918408" lon="9.3443422"><ele>413.0</ele><time>2026-04-18T07:06:35.999Z</time></trkpt><trkpt lat="44.6917297" lon="9.3444722"><ele>413.0</ele><time>2026-04-18T07:06:36.999Z</time></trkpt><trkpt lat="44.6916224" lon="9.3445772"><ele>413.0</ele><time>2026-04-18T07:06:37.999Z</time></trkpt><trkpt lat="44.6915122" lon="9.3446486"><ele>413.0</ele><time>2026-04-18T07:06:38.999Z</time></trkpt><trkpt lat="44.6914126" lon="9.3446927"><ele>413.0</ele><time>2026-04-18T07:06:39.999Z</time></trkpt><trkpt lat="44.6913187" lon="9.3447532"><ele>421.0</ele><time>2026-04-18T07:06:40.999Z</time></trkpt><trkpt lat="44.6912374" lon="9.344831"><ele>429.0</ele><time>2026-04-18T07:06:41.999Z</time></trkpt><trkpt lat="44.6911738" lon="9.344927"><ele>437.0</ele><time>2026-04-18T07:06:43Z</time></trkpt><trkpt lat="44.6911427" lon="9.3451281"><ele>445.0</ele><time>2026-04-18T07:06:43.999Z</time></trkpt><trkpt lat="44.6911296" lon="9.3453041"><ele>445.0</ele><time>2026-04-18T07:06:44.999Z</time></trkpt><trkpt lat="44.6911165" lon="9.3454905"><ele>445.0</ele><time>2026-04-18T07:06:45.999Z</time></trkpt><trkpt lat="44.6911033" lon="9.3456659"><ele>445.0</ele><time>2026-04-18T07:06:46.999Z</time></trkpt><trkpt lat="44.691113" lon="9.3458355"><ele>445.0</ele><time>2026-04-18T07:06:47.999Z</time></trkpt><trkpt lat="44.6911556" lon="9.3459838"><ele>445.0</ele><time>2026-04-18T07:06:48.999Z</time></trkpt><trkpt lat="44.6912299" lon="9.3461139"><ele>445.0</ele><time>2026-04-18T07:06:49.999Z</time></trkpt><trkpt lat="44.6913218" lon="9.3462404"><ele>445.0</ele><time>2026-04-18T07:06:50.999Z</time></trkpt><trkpt lat="44.6914245" lon="9.3463243"><ele>445.0</ele><time>2026-04-18T07:06:51.999Z</time></trkpt><trkpt lat="44.6915036" lon="9.3464133"><ele>445.0</ele><time>2026-04-18T07:06:52.999Z</time></trkpt><trkpt lat="44.6915614" lon="9.3465264"><ele>445.0</ele><time>2026-04-18T07:06:53.999Z</time></trkpt><trkpt lat="44.6915763" lon="9.34665"><ele>445.0</ele><time>2026-04-18T07:06:55.105Z</time></trkpt><trkpt lat="44.6915154" lon="9.3467692"><ele>445.0</ele><time>2026-04-18T07:06:56.113Z</time></trkpt><trkpt lat="44.6914208" lon="9.347014"><ele>445.0</ele><time>2026-04-18T07:06:57.999Z</time></trkpt><trkpt lat="44.6914253" lon="9.3471688"><ele>445.0</ele><time>2026-04-18T07:06:58.999Z</time></trkpt><trkpt lat="44.6914392" lon="9.3473117"><ele>445.0</ele><time>2026-04-18T07:06:59.999Z</time></trkpt><trkpt lat="44.6914785" lon="9.3474441"><ele>445.0</ele><time>2026-04-18T07:07:00.999Z</time></trkpt><trkpt lat="44.6915465" lon="9.347575"><ele>445.0</ele><time>2026-04-18T07:07:01.999Z</time></trkpt><trkpt lat="44.6916175" lon="9.3476804"><ele>444.4</ele><time>2026-04-18T07:07:02.999Z</time></trkpt><trkpt lat="44.691696" lon="9.3477321"><ele>443.8</ele><time>2026-04-18T07:07:03.999Z</time></trkpt><trkpt lat="44.6917696" lon="9.3477996"><ele>443.20000000000005</ele><time>2026-04-18T07:07:04.999Z</time></trkpt><trkpt lat="44.6917981" lon="9.3479035"><ele>442.6</ele><time>2026-04-18T07:07:06.105Z</time></trkpt><trkpt lat="44.6917778" lon="9.3481656"><ele>442.0</ele><time>2026-04-18T07:07:07.999Z</time></trkpt><trkpt lat="44.6917457" lon="9.3483133"><ele>440.6</ele><time>2026-04-18T07:07:08.999Z</time></trkpt><trkpt lat="44.6916968" lon="9.3484506"><ele>439.20000000000005</ele><time>2026-04-18T07:07:09.999Z</time></trkpt><trkpt lat="44.6916378" lon="9.3485814"><ele>437.8</ele><time>2026-04-18T07:07:10.999Z</time></trkpt><trkpt lat="44.6915723" lon="9.3487075"><ele>436.4</ele><time>2026-04-18T07:07:11.999Z</time></trkpt><trkpt lat="44.6915173" lon="9.3488485"><ele>435.0</ele><time>2026-04-18T07:07:13Z</time></trkpt><trkpt lat="44.691498" lon="9.3489979"><ele>434.2</ele><time>2026-04-18T07:07:13.999Z</time></trkpt><trkpt lat="44.6915231" lon="9.3491448"><ele>433.4</ele><time>2026-04-18T07:07:14.999Z</time></trkpt><trkpt lat="44.6915885" lon="9.3492719"><ele>432.6</ele><time>2026-04-18T07:07:15.999Z</time></trkpt><trkpt lat="44.6916856" lon="9.3493592"><ele>431.8</ele><time>2026-04-18T07:07:16.999Z</time></trkpt><trkpt lat="44.6917842" lon="9.3494337"><ele>431.0</ele><time>2026-04-18T07:07:17.999Z</time></trkpt><trkpt lat="44.6918862" lon="9.3494807"><ele>440.25</ele><time>2026-04-18T07:07:19.112Z</time></trkpt><trkpt lat="44.6919908" lon="9.3497105"><ele>449.5</ele><time>2026-04-18T07:07:20.999Z</time></trkpt><trkpt lat="44.6920402" lon="9.3498506"><ele>458.75</ele><time>2026-04-18T07:07:21.999Z</time></trkpt><trkpt lat="44.6921219" lon="9.3499582"><ele>468.0</ele><time>2026-04-18T07:07:22.999Z</time></trkpt><trkpt lat="44.6922174" lon="9.3500724"><ele>468.0</ele><time>2026-04-18T07:07:23.999Z</time></trkpt><trkpt lat="44.6922954" lon="9.3502064"><ele>468.0</ele><time>2026-04-18T07:07:24.999Z</time></trkpt><trkpt lat="44.6923415" lon="9.3503583"><ele>468.0</ele><time>2026-04-18T07:07:25.999Z</time></trkpt><trkpt lat="44.6923962" lon="9.3505099"><ele>468.0</ele><time>2026-04-18T07:07:26.999Z</time></trkpt><trkpt lat="44.6924776" lon="9.3506313"><ele>471.75</ele><time>2026-04-18T07:07:27.999Z</time></trkpt><trkpt lat="44.6925781" lon="9.3507527"><ele>475.5</ele><time>2026-04-18T07:07:28.999Z</time></trkpt><trkpt lat="44.6926808" lon="9.3508708"><ele>479.25</ele><time>2026-04-18T07:07:29.999Z</time></trkpt><trkpt lat="44.692765" lon="9.3509792"><ele>483.0</ele><time>2026-04-18T07:07:30.999Z</time></trkpt><trkpt lat="44.6928293" lon="9.3510941"><ele>483.0</ele><time>2026-04-18T07:07:31.999Z</time></trkpt><trkpt lat="44.6928691" lon="9.3512155"><ele>482.99999999999994</ele><time>2026-04-18T07:07:32.999Z</time></trkpt><trkpt lat="44.6928984" lon="9.3513591"><ele>482.99999999999994</ele><time>2026-04-18T07:07:33.999Z</time></trkpt><trkpt lat="44.6929468" lon="9.3515031"><ele>483.0</ele><time>2026-04-18T07:07:35.137Z</time></trkpt><trkpt lat="44.6930127" lon="9.3516646"><ele>483.0</ele><time>2026-04-18T07:07:36.115Z</time></trkpt><trkpt lat="44.6930852" lon="9.3518044"><ele>477.66666666666663</ele><time>2026-04-18T07:07:37.117Z</time></trkpt><trkpt lat="44.6932318" lon="9.3521221"><ele>472.3333333333333</ele><time>2026-04-18T07:07:38.999Z</time></trkpt><trkpt lat="44.6932824" lon="9.3522731"><ele>467.0</ele><time>2026-04-18T07:07:39.999Z</time></trkpt><trkpt lat="44.6932943" lon="9.352433"><ele>461.0</ele><time>2026-04-18T07:07:41.117Z</time></trkpt><trkpt lat="44.693286" lon="9.3525813"><ele>455.0</ele><time>2026-04-18T07:07:42.106Z</time></trkpt><trkpt lat="44.6932592" lon="9.3528658"><ele>449.0</ele><time>2026-04-18T07:07:43.999Z</time></trkpt><trkpt lat="44.6932621" lon="9.3529971"><ele>443.0</ele><time>2026-04-18T07:07:44.999Z</time></trkpt><trkpt lat="44.6933358" lon="9.3531182"><ele>448.0</ele><time>2026-04-18T07:07:45.999Z</time></trkpt><trkpt lat="44.6934241" lon="9.3531956"><ele>453.0</ele><time>2026-04-18T07:07:47.112Z</time></trkpt><trkpt lat="44.6936291" lon="9.3531911"><ele>458.0</ele><time>2026-04-18T07:07:48.999Z</time></trkpt><trkpt lat="44.6937313" lon="9.3531972"><ele>463.0</ele><time>2026-04-18T07:07:49.999Z</time></trkpt><trkpt lat="44.6938122" lon="9.3532402"><ele>463.0</ele><time>2026-04-18T07:07:50.999Z</time></trkpt><trkpt lat="44.6938776" lon="9.353338"><ele>462.99999999999994</ele><time>2026-04-18T07:07:51.999Z</time></trkpt><trkpt lat="44.6939512" lon="9.3534273"><ele>462.99999999999994</ele><time>2026-04-18T07:07:52.999Z</time></trkpt><trkpt lat="44.6940478" lon="9.3534701"><ele>463.0</ele><time>2026-04-18T07:07:53.999Z</time></trkpt><trkpt lat="44.6941516" lon="9.353456"><ele>463.0</ele><time>2026-04-18T07:07:55.104Z</time></trkpt><trkpt lat="44.6943901" lon="9.3534159"><ele>465.50000000000006</ele><time>2026-04-18T07:07:56.999Z</time></trkpt><trkpt lat="44.6944948" lon="9.353406"><ele>468.0</ele><time>2026-04-18T07:07:57.999Z</time></trkpt><trkpt lat="44.6945784" lon="9.3534359"><ele>470.5</ele><time>2026-04-18T07:07:58.999Z</time></trkpt><trkpt lat="44.694644" lon="9.353489"><ele>473.0</ele><time>2026-04-18T07:08:00Z</time></trkpt><trkpt lat="44.6946531" lon="9.3536208"><ele>475.50000000000006</ele><time>2026-04-18T07:08:00.999Z</time></trkpt><trkpt lat="44.6946631" lon="9.3537365"><ele>478.0</ele><time>2026-04-18T07:08:01.999Z</time></trkpt><trkpt lat="44.6946487" lon="9.3538904"><ele>478.0</ele><time>2026-04-18T07:08:02.999Z</time></trkpt><trkpt lat="44.6946547" lon="9.3540313"><ele>477.99999999999994</ele><time>2026-04-18T07:08:03.999Z</time></trkpt><trkpt lat="44.6946979" lon="9.3541852"><ele>477.99999999999994</ele><time>2026-04-18T07:08:04.999Z</time></trkpt><trkpt lat="44.6947591" lon="9.3543147"><ele>478.0</ele><time>2026-04-18T07:08:05.999Z</time></trkpt><trkpt lat="44.6948078" lon="9.3544349"><ele>478.0</ele><time>2026-04-18T07:08:06.999Z</time></trkpt><trkpt lat="44.6948352" lon="9.3545754"><ele>475.25</ele><time>2026-04-18T07:08:07.999Z</time></trkpt><trkpt lat="44.6948369" lon="9.3547275"><ele>472.5</ele><time>2026-04-18T07:08:08.999Z</time></trkpt><trkpt lat="44.6948255" lon="9.35489"><ele>469.75</ele><time>2026-04-18T07:08:09.999Z</time></trkpt><trkpt lat="44.6947945" lon="9.3550543"><ele>467.0</ele><time>2026-04-18T07:08:10.999Z</time></trkpt><trkpt lat="44.6947644" lon="9.3551988"><ele>467.0</ele><time>2026-04-18T07:08:11.999Z</time></trkpt><trkpt lat="44.6947409" lon="9.3553393"><ele>467.00000000000006</ele><time>2026-04-18T07:08:12.999Z</time></trkpt><trkpt lat="44.6947285" lon="9.3554902"><ele>467.00000000000006</ele><time>2026-04-18T07:08:13.999Z</time></trkpt><trkpt lat="44.6947353" lon="9.3556317"><ele>467.0</ele><time>2026-04-18T07:08:14.999Z</time></trkpt><trkpt lat="44.6947687" lon="9.3557517"><ele>467.0</ele><time>2026-04-18T07:08:16.102Z</time></trkpt><trkpt lat="44.694876" lon="9.3559767"><ele>467.75</ele><time>2026-04-18T07:08:17.999Z</time></trkpt><trkpt lat="44.6948921" lon="9.3561172"><ele>468.5</ele><time>2026-04-18T07:08:18.999Z</time></trkpt><trkpt lat="44.6948623" lon="9.3562828"><ele>469.25</ele><time>2026-04-18T07:08:20.1Z</time></trkpt><trkpt lat="44.694836" lon="9.3564508"><ele>470.0</ele><time>2026-04-18T07:08:20.999Z</time></trkpt><trkpt lat="44.6948021" lon="9.3566273"><ele>470.75</ele><time>2026-04-18T07:08:21.999Z</time></trkpt><trkpt lat="44.6947587" lon="9.3568128"><ele>471.5</ele><time>2026-04-18T07:08:22.999Z</time></trkpt><trkpt lat="44.6947137" lon="9.3569955"><ele>472.25</ele><time>2026-04-18T07:08:23.999Z</time></trkpt><trkpt lat="44.6946688" lon="9.3571628"><ele>473.0</ele><time>2026-04-18T07:08:24.999Z</time></trkpt><trkpt lat="44.6946093" lon="9.3573034"><ele>477.3333333333333</ele><time>2026-04-18T07:08:26.113Z</time></trkpt><trkpt lat="44.6945351" lon="9.3574285"><ele>481.66666666666663</ele><time>2026-04-18T07:08:27.103Z</time></trkpt><trkpt lat="44.6943282" lon="9.3576009"><ele>486.0</ele><time>2026-04-18T07:08:28.999Z</time></trkpt><trkpt lat="44.6942269" lon="9.357675"><ele>479.66666666666663</ele><time>2026-04-18T07:08:29.999Z</time></trkpt><trkpt lat="44.694138" lon="9.3577666"><ele>473.3333333333333</ele><time>2026-04-18T07:08:31.116Z</time></trkpt><trkpt lat="44.6939768" lon="9.3580067"><ele>467.0</ele><time>2026-04-18T07:08:32.999Z</time></trkpt><trkpt lat="44.6939055" lon="9.3581517"><ele>467.0</ele><time>2026-04-18T07:08:33.999Z</time></trkpt><trkpt lat="44.6938792" lon="9.3583012"><ele>467.0</ele><time>2026-04-18T07:08:35.119Z</time></trkpt><trkpt lat="44.6938741" lon="9.3584364"><ele>467.0</ele><time>2026-04-18T07:08:36.116Z</time></trkpt><trkpt lat="44.694029" lon="9.3586841"><ele>467.0</ele><time>2026-04-18T07:08:37.999Z</time></trkpt><trkpt lat="44.6941132" lon="9.3588041"><ele>468.5</ele><time>2026-04-18T07:08:38.999Z</time></trkpt><trkpt lat="44.6942002" lon="9.3589412"><ele>470.0</ele><time>2026-04-18T07:08:39.999Z</time></trkpt><trkpt lat="44.6942797" lon="9.3590806"><ele>471.5</ele><time>2026-04-18T07:08:41.101Z</time></trkpt><trkpt lat="44.6943557" lon="9.3592058"><ele>473.0</ele><time>2026-04-18T07:08:42.101Z</time></trkpt><trkpt lat="44.694524" lon="9.359337"><ele>473.0</ele><time>2026-04-18T07:08:43.999Z</time></trkpt><trkpt lat="44.6946075" lon="9.3593359"><ele>473.0</ele><time>2026-04-18T07:08:44.999Z</time></trkpt><trkpt lat="44.694728" lon="9.3593201"><ele>473.0</ele><time>2026-04-18T07:08:46.103Z</time></trkpt><trkpt lat="44.6950132" lon="9.3592268"><ele>473.0</ele><time>2026-04-18T07:08:47.999Z</time></trkpt><trkpt lat="44.695141" lon="9.3591814"><ele>473.0</ele><time>2026-04-18T07:08:48.999Z</time></trkpt><trkpt lat="44.6952623" lon="9.359152"><ele>473.0</ele><time>2026-04-18T07:08:49.999Z</time></trkpt><trkpt lat="44.695365" lon="9.3591794"><ele>473.0</ele><time>2026-04-18T07:08:51.102Z</time></trkpt><trkpt lat="44.6955226" lon="9.3593642"><ele>474.75</ele><time>2026-04-18T07:08:52.999Z</time></trkpt><trkpt lat="44.6955678" lon="9.3595103"><ele>476.5</ele><time>2026-04-18T07:08:53.999Z</time></trkpt><trkpt lat="44.6955921" lon="9.3596661"><ele>478.25</ele><time>2026-04-18T07:08:55.1Z</time></trkpt><trkpt lat="44.695526" lon="9.3599653"><ele>480.0</ele><time>2026-04-18T07:08:56.999Z</time></trkpt><trkpt lat="44.695481" lon="9.3601227"><ele>480.0</ele><time>2026-04-18T07:08:57.999Z</time></trkpt><trkpt lat="44.6954329" lon="9.3602872"><ele>480.0</ele><time>2026-04-18T07:08:58.999Z</time></trkpt><trkpt lat="44.6953908" lon="9.3604596"><ele>480.0</ele><time>2026-04-18T07:09:00.11Z</time></trkpt><trkpt lat="44.6953551" lon="9.3606359"><ele>480.0</ele><time>2026-04-18T07:09:01.115Z</time></trkpt><trkpt lat="44.6953042" lon="9.3609902"><ele>479.5</ele><time>2026-04-18T07:09:02.999Z</time></trkpt><trkpt lat="44.6953274" lon="9.3611647"><ele>479.0</ele><time>2026-04-18T07:09:03.999Z</time></trkpt><trkpt lat="44.6953529" lon="9.3613353"><ele>478.5</ele><time>2026-04-18T07:09:05.112Z</time></trkpt><trkpt lat="44.6953747" lon="9.3614965"><ele>478.0</ele><time>2026-04-18T07:09:06.104Z</time></trkpt><trkpt lat="44.6953743" lon="9.3618126"><ele>479.2</ele><time>2026-04-18T07:09:08Z</time></trkpt><trkpt lat="44.6953372" lon="9.3619511"><ele>480.4</ele><time>2026-04-18T07:09:08.999Z</time></trkpt><trkpt lat="44.6952848" lon="9.3620724"><ele>481.59999999999997</ele><time>2026-04-18T07:09:09.999Z</time></trkpt><trkpt lat="44.6952003" lon="9.3621442"><ele>482.79999999999995</ele><time>2026-04-18T07:09:10.999Z</time></trkpt><trkpt lat="44.6950827" lon="9.3622115"><ele>484.0</ele><time>2026-04-18T07:09:12.113Z</time></trkpt><trkpt lat="44.6948946" lon="9.3623205"><ele>478.25</ele><time>2026-04-18T07:09:13.999Z</time></trkpt><trkpt lat="44.6948077" lon="9.3624289"><ele>472.5</ele><time>2026-04-18T07:09:14.999Z</time></trkpt><trkpt lat="44.6947233" lon="9.3625482"><ele>466.75</ele><time>2026-04-18T07:09:15.999Z</time></trkpt><trkpt lat="44.6946621" lon="9.3626799"><ele>461.0</ele><time>2026-04-18T07:09:16.999Z</time></trkpt><trkpt lat="44.6946187" lon="9.3628174"><ele>461.0</ele><time>2026-04-18T07:09:17.999Z</time></trkpt><trkpt lat="44.6945968" lon="9.3629684"><ele>461.0</ele><time>2026-04-18T07:09:18.999Z</time></trkpt><trkpt lat="44.6945993" lon="9.3631137"><ele>461.0</ele><time>2026-04-18T07:09:19.999Z</time></trkpt><trkpt lat="44.6946132" lon="9.3632596"><ele>461.0</ele><time>2026-04-18T07:09:20.999Z</time></trkpt><trkpt lat="44.6946144" lon="9.3633688"><ele>461.0</ele><time>2026-04-18T07:09:22.112Z</time></trkpt><trkpt lat="44.6945356" lon="9.363566"><ele>462.49999999999994</ele><time>2026-04-18T07:09:23.999Z</time></trkpt><trkpt lat="44.6944676" lon="9.3636379"><ele>464.0</ele><time>2026-04-18T07:09:24.999Z</time></trkpt><trkpt lat="44.6943958" lon="9.363682"><ele>465.5</ele><time>2026-04-18T07:09:25.999Z</time></trkpt><trkpt lat="44.6943178" lon="9.3637282"><ele>467.0</ele><time>2026-04-18T07:09:26.999Z</time></trkpt><trkpt lat="44.6942647" lon="9.3637927"><ele>468.49999999999994</ele><time>2026-04-18T07:09:27.999Z</time></trkpt><trkpt lat="44.6942775" lon="9.3639701"><ele>470.0</ele><time>2026-04-18T07:09:29.999Z</time></trkpt><trkpt lat="44.6943343" lon="9.3640213"><ele>464.0</ele><time>2026-04-18T07:09:30.999Z</time></trkpt><trkpt lat="44.6944605" lon="9.3640611"><ele>458.0</ele><time>2026-04-18T07:09:32.999Z</time></trkpt><trkpt lat="44.6945579" lon="9.364062"><ele>452.0</ele><time>2026-04-18T07:09:33.999Z</time></trkpt><trkpt lat="44.6946659" lon="9.3640611"><ele>446.0</ele><time>2026-04-18T07:09:34.999Z</time></trkpt><trkpt lat="44.6948263" lon="9.3640533"><ele>446.0</ele><time>2026-04-18T07:09:35.999Z</time></trkpt><trkpt lat="44.694946" lon="9.3639877"><ele>446.0</ele><time>2026-04-18T07:09:36.999Z</time></trkpt><trkpt lat="44.6950734" lon="9.3639544"><ele>446.0</ele><time>2026-04-18T07:09:37.999Z</time></trkpt><trkpt lat="44.6952017" lon="9.3639354"><ele>446.0</ele><time>2026-04-18T07:09:38.999Z</time></trkpt><trkpt lat="44.6953398" lon="9.3639058"><ele>444.0</ele><time>2026-04-18T07:09:39.999Z</time></trkpt><trkpt lat="44.6954695" lon="9.3638761"><ele>442.0</ele><time>2026-04-18T07:09:40.999Z</time></trkpt><trkpt lat="44.6955907" lon="9.3638597"><ele>440.0</ele><time>2026-04-18T07:09:41.999Z</time></trkpt><trkpt lat="44.6957202" lon="9.3638486"><ele>438.0</ele><time>2026-04-18T07:09:42.999Z</time></trkpt><trkpt lat="44.6958579" lon="9.3638807"><ele>438.0</ele><time>2026-04-18T07:09:43.999Z</time></trkpt><trkpt lat="44.6959796" lon="9.363941"><ele>438.0</ele><time>2026-04-18T07:09:44.999Z</time></trkpt><trkpt lat="44.6961169" lon="9.3639837"><ele>438.0</ele><time>2026-04-18T07:09:46.111Z</time></trkpt><trkpt lat="44.6964028" lon="9.3640307"><ele>437.25</ele><time>2026-04-18T07:09:47.999Z</time></trkpt><trkpt lat="44.6965407" lon="9.3640542"><ele>436.5</ele><time>2026-04-18T07:09:48.999Z</time></trkpt><trkpt lat="44.6966733" lon="9.3640747"><ele>435.75</ele><time>2026-04-18T07:09:49.999Z</time></trkpt><trkpt lat="44.6968032" lon="9.3640811"><ele>435.0</ele><time>2026-04-18T07:09:50.999Z</time></trkpt><trkpt lat="44.6969284" lon="9.3640683"><ele>435.0</ele><time>2026-04-18T07:09:52.106Z</time></trkpt><trkpt lat="44.6971682" lon="9.3640042"><ele>435.0</ele><time>2026-04-18T07:09:54Z</time></trkpt><trkpt lat="44.6972972" lon="9.3640248"><ele>435.0</ele><time>2026-04-18T07:09:54.999Z</time></trkpt><trkpt lat="44.6974259" lon="9.3640457"><ele>435.0</ele><time>2026-04-18T07:09:55.999Z</time></trkpt><trkpt lat="44.6975563" lon="9.3640684"><ele>435.0</ele><time>2026-04-18T07:09:56.999Z</time></trkpt><trkpt lat="44.6976695" lon="9.3640718"><ele>435.0</ele><time>2026-04-18T07:09:57.999Z</time></trkpt><trkpt lat="44.6977675" lon="9.36409"><ele>435.0</ele><time>2026-04-18T07:09:58.999Z</time></trkpt><trkpt lat="44.6978412" lon="9.3641583"><ele>435.0</ele><time>2026-04-18T07:09:59.999Z</time></trkpt><trkpt lat="44.6978968" lon="9.3642702"><ele>430.5</ele><time>2026-04-18T07:10:00.999Z</time></trkpt><trkpt lat="44.6979544" lon="9.364411"><ele>426.0</ele><time>2026-04-18T07:10:01.999Z</time></trkpt><trkpt lat="44.6980171" lon="9.3645475"><ele>421.5</ele><time>2026-04-18T07:10:02.999Z</time></trkpt><trkpt lat="44.6980884" lon="9.3646697"><ele>417.0</ele><time>2026-04-18T07:10:03.999Z</time></trkpt><trkpt lat="44.698178" lon="9.3647562"><ele>417.0</ele><time>2026-04-18T07:10:05.111Z</time></trkpt><trkpt lat="44.6982795" lon="9.3648144"><ele>417.0</ele><time>2026-04-18T07:10:06.103Z</time></trkpt><trkpt lat="44.6985123" lon="9.3648456"><ele>417.0</ele><time>2026-04-18T07:10:07.999Z</time></trkpt><trkpt lat="44.6986142" lon="9.3649041"><ele>418.5</ele><time>2026-04-18T07:10:08.999Z</time></trkpt><trkpt lat="44.6986915" lon="9.3650154"><ele>420.0</ele><time>2026-04-18T07:10:09.999Z</time></trkpt><trkpt lat="44.6987572" lon="9.3651539"><ele>421.5</ele><time>2026-04-18T07:10:10.999Z</time></trkpt><trkpt lat="44.6988174" lon="9.3653063"><ele>423.0</ele><time>2026-04-18T07:10:12.102Z</time></trkpt><trkpt lat="44.6988775" lon="9.3655962"><ele>423.0</ele><time>2026-04-18T07:10:13.999Z</time></trkpt><trkpt lat="44.6988696" lon="9.3657251"><ele>423.0</ele><time>2026-04-18T07:10:14.999Z</time></trkpt><trkpt lat="44.6988628" lon="9.3658469"><ele>423.0</ele><time>2026-04-18T07:10:16.108Z</time></trkpt><trkpt lat="44.6988895" lon="9.3659502"><ele>423.0</ele><time>2026-04-18T07:10:17.125Z</time></trkpt><trkpt lat="44.6990256" lon="9.3660993"><ele>423.0</ele><time>2026-04-18T07:10:18.999Z</time></trkpt><trkpt lat="44.6991203" lon="9.3661556"><ele>423.0</ele><time>2026-04-18T07:10:19.999Z</time></trkpt><trkpt lat="44.6992103" lon="9.366242"><ele>423.0</ele><time>2026-04-18T07:10:21.122Z</time></trkpt><trkpt lat="44.6992949" lon="9.3663272"><ele>423.0</ele><time>2026-04-18T07:10:22.13Z</time></trkpt><trkpt lat="44.6995009" lon="9.366361"><ele>423.0</ele><time>2026-04-18T07:10:24Z</time></trkpt><trkpt lat="44.6996134" lon="9.3663287"><ele>427.5</ele><time>2026-04-18T07:10:24.999Z</time></trkpt><trkpt lat="44.6997312" lon="9.3662973"><ele>432.0</ele><time>2026-04-18T07:10:25.999Z</time></trkpt><trkpt lat="44.6998575" lon="9.3662679"><ele>436.5</ele><time>2026-04-18T07:10:26.999Z</time></trkpt><trkpt lat="44.6999742" lon="9.366232"><ele>441.0</ele><time>2026-04-18T07:10:27.999Z</time></trkpt><trkpt lat="44.7001011" lon="9.3661894"><ele>441.0</ele><time>2026-04-18T07:10:28.999Z</time></trkpt><trkpt lat="44.7002169" lon="9.3661695"><ele>441.0</ele><time>2026-04-18T07:10:29.999Z</time></trkpt><trkpt lat="44.700321" lon="9.3661872"><ele>441.0</ele><time>2026-04-18T07:10:30.999Z</time></trkpt><trkpt lat="44.7004169" lon="9.3662281"><ele>441.0</ele><time>2026-04-18T07:10:31.999Z</time></trkpt><trkpt lat="44.7004784" lon="9.366332"><ele>441.0</ele><time>2026-04-18T07:10:32.999Z</time></trkpt><trkpt lat="44.7005192" lon="9.3664619"><ele>439.8</ele><time>2026-04-18T07:10:34Z</time></trkpt><trkpt lat="44.7005094" lon="9.3665935"><ele>438.6</ele><time>2026-04-18T07:10:34.999Z</time></trkpt><trkpt lat="44.700465" lon="9.3667292"><ele>437.4</ele><time>2026-04-18T07:10:35.999Z</time></trkpt><trkpt lat="44.7004306" lon="9.3668685"><ele>436.2</ele><time>2026-04-18T07:10:36.999Z</time></trkpt><trkpt lat="44.7004329" lon="9.3670208"><ele>435.0</ele><time>2026-04-18T07:10:37.999Z</time></trkpt><trkpt lat="44.7004738" lon="9.3671733"><ele>430.0</ele><time>2026-04-18T07:10:38.999Z</time></trkpt><trkpt lat="44.7005455" lon="9.3673064"><ele>425.0</ele><time>2026-04-18T07:10:39.999Z</time></trkpt><trkpt lat="44.7006412" lon="9.36743"><ele>420.0</ele><time>2026-04-18T07:10:40.999Z</time></trkpt><trkpt lat="44.7007535" lon="9.3675471"><ele>415.0</ele><time>2026-04-18T07:10:41.999Z</time></trkpt><trkpt lat="44.7008691" lon="9.3676634"><ele>415.0</ele><time>2026-04-18T07:10:42.999Z</time></trkpt><trkpt lat="44.700977" lon="9.3677781"><ele>415.0</ele><time>2026-04-18T07:10:43.999Z</time></trkpt><trkpt lat="44.7010792" lon="9.3678964"><ele>415.0</ele><time>2026-04-18T07:10:44.999Z</time></trkpt><trkpt lat="44.7011599" lon="9.3680427"><ele>415.0</ele><time>2026-04-18T07:10:45.999Z</time></trkpt><trkpt lat="44.7012247" lon="9.3682149"><ele>418.5</ele><time>2026-04-18T07:10:46.999Z</time></trkpt><trkpt lat="44.7012788" lon="9.3683921"><ele>422.0</ele><time>2026-04-18T07:10:47.999Z</time></trkpt><trkpt lat="44.7013468" lon="9.3685559"><ele>425.5</ele><time>2026-04-18T07:10:48.999Z</time></trkpt><trkpt lat="44.7014354" lon="9.368682"><ele>429.0</ele><time>2026-04-18T07:10:49.999Z</time></trkpt><trkpt lat="44.7015259" lon="9.3687966"><ele>424.6</ele><time>2026-04-18T07:10:50.999Z</time></trkpt><trkpt lat="44.7016037" lon="9.368908"><ele>420.2</ele><time>2026-04-18T07:10:51.999Z</time></trkpt><trkpt lat="44.7016489" lon="9.3690329"><ele>415.8</ele><time>2026-04-18T07:10:52.999Z</time></trkpt><trkpt lat="44.7016789" lon="9.3691909"><ele>411.40000000000003</ele><time>2026-04-18T07:10:53.999Z</time></trkpt><trkpt lat="44.7017073" lon="9.3693537"><ele>407.0</ele><time>2026-04-18T07:10:54.999Z</time></trkpt><trkpt lat="44.7017494" lon="9.3695072"><ele>402.25</ele><time>2026-04-18T07:10:56.11Z</time></trkpt><trkpt lat="44.7018661" lon="9.3697855"><ele>397.5</ele><time>2026-04-18T07:10:57.999Z</time></trkpt><trkpt lat="44.7018968" lon="9.3699005"><ele>392.75</ele><time>2026-04-18T07:10:58.999Z</time></trkpt><trkpt lat="44.7018927" lon="9.3700193"><ele>388.0</ele><time>2026-04-18T07:10:59.999Z</time></trkpt><trkpt lat="44.701866" lon="9.3701254"><ele>388.0</ele><time>2026-04-18T07:11:00.999Z</time></trkpt><trkpt lat="44.7018061" lon="9.3702725"><ele>388.0</ele><time>2026-04-18T07:11:01.999Z</time></trkpt><trkpt lat="44.7017666" lon="9.3704225"><ele>388.0</ele><time>2026-04-18T07:11:02.999Z</time></trkpt><trkpt lat="44.7017461" lon="9.3705793"><ele>388.0</ele><time>2026-04-18T07:11:03.999Z</time></trkpt><trkpt lat="44.7017792" lon="9.37074"><ele>391.0</ele><time>2026-04-18T07:11:04.999Z</time></trkpt><trkpt lat="44.7018391" lon="9.3708807"><ele>394.0</ele><time>2026-04-18T07:11:05.999Z</time></trkpt><trkpt lat="44.7019262" lon="9.3710095"><ele>397.0</ele><time>2026-04-18T07:11:06.999Z</time></trkpt><trkpt lat="44.702031" lon="9.3711205"><ele>400.0</ele><time>2026-04-18T07:11:07.999Z</time></trkpt><trkpt lat="44.702157" lon="9.3711961"><ele>400.0</ele><time>2026-04-18T07:11:08.999Z</time></trkpt><trkpt lat="44.7022926" lon="9.3712527"><ele>400.0</ele><time>2026-04-18T07:11:09.999Z</time></trkpt><trkpt lat="44.7024309" lon="9.3713004"><ele>400.0</ele><time>2026-04-18T07:11:10.999Z</time></trkpt><trkpt lat="44.7025676" lon="9.3713549"><ele>400.0</ele><time>2026-04-18T07:11:11.999Z</time></trkpt><trkpt lat="44.7027094" lon="9.3714054"><ele>397.0</ele><time>2026-04-18T07:11:12.999Z</time></trkpt><trkpt lat="44.7028564" lon="9.3714512"><ele>394.0</ele><time>2026-04-18T07:11:13.999Z</time></trkpt><trkpt lat="44.7029916" lon="9.3714991"><ele>391.0</ele><time>2026-04-18T07:11:14.999Z</time></trkpt><trkpt lat="44.7031169" lon="9.3715625"><ele>388.0</ele><time>2026-04-18T07:11:15.999Z</time></trkpt><trkpt lat="44.7032112" lon="9.3716757"><ele>388.0</ele><time>2026-04-18T07:11:16.999Z</time></trkpt><trkpt lat="44.7033042" lon="9.3718052"><ele>388.0</ele><time>2026-04-18T07:11:17.999Z</time></trkpt><trkpt lat="44.7033918" lon="9.3719589"><ele>388.0</ele><time>2026-04-18T07:11:18.999Z</time></trkpt><trkpt lat="44.7034734" lon="9.3721307"><ele>388.0</ele><time>2026-04-18T07:11:19.999Z</time></trkpt><trkpt lat="44.7035516" lon="9.3722823"><ele>387.5</ele><time>2026-04-18T07:11:20.999Z</time></trkpt><trkpt lat="44.7036343" lon="9.3724255"><ele>387.0</ele><time>2026-04-18T07:11:21.999Z</time></trkpt><trkpt lat="44.7037358" lon="9.372563"><ele>386.5</ele><time>2026-04-18T07:11:22.999Z</time></trkpt><trkpt lat="44.7038489" lon="9.3726801"><ele>386.0</ele><time>2026-04-18T07:11:23.999Z</time></trkpt><trkpt lat="44.7039618" lon="9.3727626"><ele>386.0</ele><time>2026-04-18T07:11:24.999Z</time></trkpt><trkpt lat="44.7040727" lon="9.3728272"><ele>386.0</ele><time>2026-04-18T07:11:25.999Z</time></trkpt><trkpt lat="44.7041863" lon="9.3728506"><ele>386.0</ele><time>2026-04-18T07:11:26.999Z</time></trkpt><trkpt lat="44.7043121" lon="9.3728484"><ele>386.0</ele><time>2026-04-18T07:11:27.999Z</time></trkpt><trkpt lat="44.7044428" lon="9.3728221"><ele>387.5</ele><time>2026-04-18T07:11:28.999Z</time></trkpt><trkpt lat="44.7045647" lon="9.3728074"><ele>389.0</ele><time>2026-04-18T07:11:29.999Z</time></trkpt><trkpt lat="44.7046874" lon="9.3728247"><ele>390.5</ele><time>2026-04-18T07:11:30.999Z</time></trkpt><trkpt lat="44.7048003" lon="9.3728829"><ele>392.0</ele><time>2026-04-18T07:11:31.999Z</time></trkpt><trkpt lat="44.7049214" lon="9.3729511"><ele>392.0</ele><time>2026-04-18T07:11:32.999Z</time></trkpt><trkpt lat="44.7050477" lon="9.3730045"><ele>392.0</ele><time>2026-04-18T07:11:33.999Z</time></trkpt><trkpt lat="44.7051636" lon="9.373026"><ele>392.0</ele><time>2026-04-18T07:11:34.999Z</time></trkpt><trkpt lat="44.7052564" lon="9.373063"><ele>392.0</ele><time>2026-04-18T07:11:35.999Z</time></trkpt><trkpt lat="44.7053418" lon="9.3731446"><ele>392.0</ele><time>2026-04-18T07:11:36.999Z</time></trkpt><trkpt lat="44.7054328" lon="9.3732822"><ele>388.75</ele><time>2026-04-18T07:11:37.999Z</time></trkpt><trkpt lat="44.705506" lon="9.3734083"><ele>385.5</ele><time>2026-04-18T07:11:38.999Z</time></trkpt><trkpt lat="44.705591" lon="9.3735408"><ele>382.25</ele><time>2026-04-18T07:11:39.999Z</time></trkpt><trkpt lat="44.7056746" lon="9.3736759"><ele>379.0</ele><time>2026-04-18T07:11:40.999Z</time></trkpt><trkpt lat="44.7057547" lon="9.373813"><ele>374.5</ele><time>2026-04-18T07:11:41.999Z</time></trkpt><trkpt lat="44.7058184" lon="9.373964"><ele>370.0</ele><time>2026-04-18T07:11:42.999Z</time></trkpt><trkpt lat="44.7058374" lon="9.3741276"><ele>365.5</ele><time>2026-04-18T07:11:43.999Z</time></trkpt><trkpt lat="44.7058212" lon="9.3743063"><ele>361.0</ele><time>2026-04-18T07:11:44.999Z</time></trkpt><trkpt lat="44.7057757" lon="9.3744849"><ele>361.0</ele><time>2026-04-18T07:11:45.999Z</time></trkpt><trkpt lat="44.7057278" lon="9.3746872"><ele>361.0</ele><time>2026-04-18T07:11:46.999Z</time></trkpt><trkpt lat="44.7056676" lon="9.3748748"><ele>361.0</ele><time>2026-04-18T07:11:47.999Z</time></trkpt><trkpt lat="44.7056124" lon="9.3750641"><ele>361.0</ele><time>2026-04-18T07:11:48.999Z</time></trkpt><trkpt lat="44.7055637" lon="9.3752526"><ele>358.3333333333333</ele><time>2026-04-18T07:11:50.103Z</time></trkpt><trkpt lat="44.7055199" lon="9.3755833"><ele>355.6666666666667</ele><time>2026-04-18T07:11:51.999Z</time></trkpt><trkpt lat="44.7055397" lon="9.3757537"><ele>353.0</ele><time>2026-04-18T07:11:52.999Z</time></trkpt><trkpt lat="44.7055845" lon="9.3759188"><ele>353.0</ele><time>2026-04-18T07:11:53.999Z</time></trkpt><trkpt lat="44.705643" lon="9.376089"><ele>353.0</ele><time>2026-04-18T07:11:54.999Z</time></trkpt><trkpt lat="44.7057064" lon="9.3762511"><ele>353.0</ele><time>2026-04-18T07:11:55.999Z</time></trkpt><trkpt lat="44.7057697" lon="9.3764137"><ele>353.0</ele><time>2026-04-18T07:11:56.999Z</time></trkpt><trkpt lat="44.7058435" lon="9.3765682"><ele>352.2</ele><time>2026-04-18T07:11:57.999Z</time></trkpt><trkpt lat="44.7059292" lon="9.3766805"><ele>351.4</ele><time>2026-04-18T07:11:58.999Z</time></trkpt><trkpt lat="44.7060127" lon="9.3767797"><ele>350.59999999999997</ele><time>2026-04-18T07:11:59.999Z</time></trkpt><trkpt lat="44.7060806" lon="9.3768534"><ele>349.79999999999995</ele><time>2026-04-18T07:12:00.999Z</time></trkpt><trkpt lat="44.7061451" lon="9.3769264"><ele>349.0</ele><time>2026-04-18T07:12:01.999Z</time></trkpt><trkpt lat="44.7061965" lon="9.3769885"><ele>349.0</ele><time>2026-04-18T07:12:02.999Z</time></trkpt><trkpt lat="44.7062844" lon="9.3770871"><ele>349.0</ele><time>2026-04-18T07:12:04.999Z</time></trkpt><trkpt lat="44.7063519" lon="9.3771423"><ele>349.0</ele><time>2026-04-18T07:12:06.999Z</time></trkpt><trkpt lat="44.7064594" lon="9.3772509"><ele>349.0</ele><time>2026-04-18T07:13:24.999Z</time></trkpt><trkpt lat="44.7065258" lon="9.3772896"><ele>349.0</ele><time>2026-04-18T07:13:25.999Z</time></trkpt><trkpt lat="44.7065975" lon="9.3773201"><ele>348.3333333333333</ele><time>2026-04-18T07:13:26.999Z</time></trkpt><trkpt lat="44.706682" lon="9.3773457"><ele>347.66666666666663</ele><time>2026-04-18T07:13:27.999Z</time></trkpt><trkpt lat="44.706762" lon="9.3773317"><ele>347.0</ele><time>2026-04-18T07:13:28.999Z</time></trkpt><trkpt lat="44.7068427" lon="9.3772935"><ele>346.3333333333333</ele><time>2026-04-18T07:13:29.999Z</time></trkpt><trkpt lat="44.7069074" lon="9.3772223"><ele>345.6666666666667</ele><time>2026-04-18T07:13:30.999Z</time></trkpt><trkpt lat="44.7069697" lon="9.3771358"><ele>345.0</ele><time>2026-04-18T07:13:32Z</time></trkpt><trkpt lat="44.7070497" lon="9.3770499"><ele>345.0</ele><time>2026-04-18T07:13:32.999Z</time></trkpt><trkpt lat="44.707123" lon="9.3769652"><ele>345.0</ele><time>2026-04-18T07:13:33.999Z</time></trkpt><trkpt lat="44.7072077" lon="9.3769142"><ele>345.0</ele><time>2026-04-18T07:13:34.999Z</time></trkpt><trkpt lat="44.7072971" lon="9.3768878"><ele>345.0</ele><time>2026-04-18T07:13:35.999Z</time></trkpt><trkpt lat="44.7073911" lon="9.3768751"><ele>345.0</ele><time>2026-04-18T07:13:36.999Z</time></trkpt><trkpt lat="44.7074881" lon="9.3768583"><ele>345.0</ele><time>2026-04-18T07:13:37.999Z</time></trkpt><trkpt lat="44.7075876" lon="9.3768482"><ele>345.0</ele><time>2026-04-18T07:13:38.999Z</time></trkpt><trkpt lat="44.707682" lon="9.3768384"><ele>345.0</ele><time>2026-04-18T07:13:40.11Z</time></trkpt><trkpt lat="44.7078646" lon="9.3768778"><ele>345.0</ele><time>2026-04-18T07:13:42.108Z</time></trkpt><trkpt lat="44.7080086" lon="9.3770308"><ele>343.0</ele><time>2026-04-18T07:13:43.999Z</time></trkpt><trkpt lat="44.7080478" lon="9.377154"><ele>341.0</ele><time>2026-04-18T07:13:44.999Z</time></trkpt><trkpt lat="44.708055" lon="9.3772774"><ele>339.0</ele><time>2026-04-18T07:13:45.999Z</time></trkpt><trkpt lat="44.7080774" lon="9.3774134"><ele>337.0</ele><time>2026-04-18T07:13:46.999Z</time></trkpt><trkpt lat="44.7081006" lon="9.3775403"><ele>335.0</ele><time>2026-04-18T07:13:47.999Z</time></trkpt><trkpt lat="44.7081514" lon="9.3776536"><ele>335.0</ele><time>2026-04-18T07:13:48.999Z</time></trkpt><trkpt lat="44.708223" lon="9.3777618"><ele>335.0</ele><time>2026-04-18T07:13:50.11Z</time></trkpt><trkpt lat="44.7083087" lon="9.3778457"><ele>335.0</ele><time>2026-04-18T07:13:51.106Z</time></trkpt><trkpt lat="44.7085175" lon="9.3779617"><ele>335.0</ele><time>2026-04-18T07:13:52.999Z</time></trkpt><trkpt lat="44.708631" lon="9.3780171"><ele>331.25</ele><time>2026-04-18T07:13:53.999Z</time></trkpt><trkpt lat="44.7087465" lon="9.3780683"><ele>327.5</ele><time>2026-04-18T07:13:54.999Z</time></trkpt><trkpt lat="44.7088633" lon="9.3781146"><ele>323.75</ele><time>2026-04-18T07:13:55.999Z</time></trkpt><trkpt lat="44.7089777" lon="9.378139"><ele>320.0</ele><time>2026-04-18T07:13:57.117Z</time></trkpt><trkpt lat="44.7091963" lon="9.3781005"><ele>320.0</ele><time>2026-04-18T07:13:58.999Z</time></trkpt><trkpt lat="44.7093093" lon="9.3780556"><ele>320.0</ele><time>2026-04-18T07:14:00.103Z</time></trkpt><trkpt lat="44.7094263" lon="9.3780048"><ele>320.0</ele><time>2026-04-18T07:14:01.122Z</time></trkpt><trkpt lat="44.7095369" lon="9.3779395"><ele>320.0</ele><time>2026-04-18T07:14:02.116Z</time></trkpt><trkpt lat="44.7097564" lon="9.3777713"><ele>322.75</ele><time>2026-04-18T07:14:03.999Z</time></trkpt><trkpt lat="44.7098546" lon="9.377675"><ele>325.5</ele><time>2026-04-18T07:14:05Z</time></trkpt><trkpt lat="44.7099495" lon="9.3775863"><ele>328.25</ele><time>2026-04-18T07:14:05.999Z</time></trkpt><trkpt lat="44.7100586" lon="9.377514"><ele>331.0</ele><time>2026-04-18T07:14:06.999Z</time></trkpt><trkpt lat="44.710185" lon="9.3774957"><ele>329.25</ele><time>2026-04-18T07:14:07.999Z</time></trkpt><trkpt lat="44.7103077" lon="9.3774832"><ele>327.5</ele><time>2026-04-18T07:14:08.999Z</time></trkpt><trkpt lat="44.7104259" lon="9.3775215"><ele>325.75</ele><time>2026-04-18T07:14:09.999Z</time></trkpt><trkpt lat="44.7105272" lon="9.3775784"><ele>324.0</ele><time>2026-04-18T07:14:11.121Z</time></trkpt><trkpt lat="44.7106815" lon="9.3778521"><ele>324.0</ele><time>2026-04-18T07:14:12.999Z</time></trkpt><trkpt lat="44.7107524" lon="9.3780102"><ele>324.0</ele><time>2026-04-18T07:14:13.999Z</time></trkpt><trkpt lat="44.7108215" lon="9.3781843"><ele>324.0</ele><time>2026-04-18T07:14:15.12Z</time></trkpt><trkpt lat="44.7108935" lon="9.3783482"><ele>324.0</ele><time>2026-04-18T07:14:16.106Z</time></trkpt><trkpt lat="44.7110521" lon="9.3786692"><ele>321.25</ele><time>2026-04-18T07:14:17.999Z</time></trkpt><trkpt lat="44.7111303" lon="9.3788344"><ele>318.5</ele><time>2026-04-18T07:14:18.999Z</time></trkpt><trkpt lat="44.7112035" lon="9.3789971"><ele>315.75</ele><time>2026-04-18T07:14:19.999Z</time></trkpt><trkpt lat="44.7112809" lon="9.3791653"><ele>313.0</ele><time>2026-04-18T07:14:21Z</time></trkpt><trkpt lat="44.7113564" lon="9.3793274"><ele>313.0</ele><time>2026-04-18T07:14:21.999Z</time></trkpt><trkpt lat="44.7114284" lon="9.3794774"><ele>313.0</ele><time>2026-04-18T07:14:23Z</time></trkpt><trkpt lat="44.7114934" lon="9.3796149"><ele>313.0</ele><time>2026-04-18T07:14:23.999Z</time></trkpt><trkpt lat="44.7115675" lon="9.3797488"><ele>313.0</ele><time>2026-04-18T07:14:24.999Z</time></trkpt><trkpt lat="44.7116547" lon="9.3798393"><ele>314.0</ele><time>2026-04-18T07:14:26Z</time></trkpt><trkpt lat="44.7117534" lon="9.3799078"><ele>315.0</ele><time>2026-04-18T07:14:26.999Z</time></trkpt><trkpt lat="44.7118614" lon="9.3799692"><ele>316.0</ele><time>2026-04-18T07:14:27.999Z</time></trkpt><trkpt lat="44.7119725" lon="9.3799995"><ele>317.0</ele><time>2026-04-18T07:14:28.999Z</time></trkpt><trkpt lat="44.7120816" lon="9.380016"><ele>318.0</ele><time>2026-04-18T07:14:30.104Z</time></trkpt><trkpt lat="44.7123119" lon="9.3800462"><ele>318.25</ele><time>2026-04-18T07:14:31.999Z</time></trkpt><trkpt lat="44.7124278" lon="9.3800624"><ele>318.5</ele><time>2026-04-18T07:14:32.999Z</time></trkpt><trkpt lat="44.71254" lon="9.3800784"><ele>318.75</ele><time>2026-04-18T07:14:33.999Z</time></trkpt><trkpt lat="44.7126488" lon="9.3801009"><ele>319.0</ele><time>2026-04-18T07:14:35.104Z</time></trkpt><trkpt lat="44.7128666" lon="9.3801348"><ele>319.0</ele><time>2026-04-18T07:14:37.121Z</time></trkpt><trkpt lat="44.7130745" lon="9.3802055"><ele>319.0</ele><time>2026-04-18T07:14:38.999Z</time></trkpt><trkpt lat="44.7131771" lon="9.3802574"><ele>319.0</ele><time>2026-04-18T07:14:39.999Z</time></trkpt><trkpt lat="44.7132742" lon="9.3803282"><ele>319.0</ele><time>2026-04-18T07:14:41.11Z</time></trkpt><trkpt lat="44.7133568" lon="9.3804179"><ele>320.0</ele><time>2026-04-18T07:14:42.112Z</time></trkpt><trkpt lat="44.7135041" lon="9.3806276"><ele>321.0</ele><time>2026-04-18T07:14:43.999Z</time></trkpt><trkpt lat="44.7135732" lon="9.3807415"><ele>322.0</ele><time>2026-04-18T07:14:44.999Z</time></trkpt><trkpt lat="44.7136365" lon="9.3808533"><ele>323.0</ele><time>2026-04-18T07:14:46.112Z</time></trkpt><trkpt lat="44.7137655" lon="9.3811003"><ele>321.2</ele><time>2026-04-18T07:14:47.999Z</time></trkpt><trkpt lat="44.713811" lon="9.3812353"><ele>319.4</ele><time>2026-04-18T07:14:48.999Z</time></trkpt><trkpt lat="44.7138369" lon="9.3813782"><ele>317.59999999999997</ele><time>2026-04-18T07:14:49.999Z</time></trkpt><trkpt lat="44.7138466" lon="9.3815163"><ele>315.79999999999995</ele><time>2026-04-18T07:14:50.999Z</time></trkpt><trkpt lat="44.7138589" lon="9.38166"><ele>314.0</ele><time>2026-04-18T07:14:51.999Z</time></trkpt><trkpt lat="44.7138687" lon="9.3818099"><ele>314.0</ele><time>2026-04-18T07:14:52.999Z</time></trkpt><trkpt lat="44.7138802" lon="9.3819634"><ele>314.0</ele><time>2026-04-18T07:14:53.999Z</time></trkpt><trkpt lat="44.713892" lon="9.382122"><ele>314.0</ele><time>2026-04-18T07:14:55.127Z</time></trkpt><trkpt lat="44.7139527" lon="9.3824408"><ele>315.0</ele><time>2026-04-18T07:14:57.106Z</time></trkpt><trkpt lat="44.714092" lon="9.3827302"><ele>316.0</ele><time>2026-04-18T07:14:58.999Z</time></trkpt><trkpt lat="44.7141797" lon="9.3828576"><ele>317.0</ele><time>2026-04-18T07:14:59.999Z</time></trkpt><trkpt lat="44.7142631" lon="9.3829876"><ele>315.75</ele><time>2026-04-18T07:15:00.999Z</time></trkpt><trkpt lat="44.7143452" lon="9.3831154"><ele>314.5</ele><time>2026-04-18T07:15:01.999Z</time></trkpt><trkpt lat="44.7144166" lon="9.3832462"><ele>313.25</ele><time>2026-04-18T07:15:02.999Z</time></trkpt><trkpt lat="44.7144705" lon="9.3833852"><ele>312.0</ele><time>2026-04-18T07:15:03.999Z</time></trkpt><trkpt lat="44.7144924" lon="9.3835345"><ele>312.0</ele><time>2026-04-18T07:15:04.999Z</time></trkpt><trkpt lat="44.7144946" lon="9.3837039"><ele>312.0</ele><time>2026-04-18T07:15:06.126Z</time></trkpt><trkpt lat="44.7144645" lon="9.3840471"><ele>312.0</ele><time>2026-04-18T07:15:07.999Z</time></trkpt><trkpt lat="44.7144454" lon="9.3842237"><ele>311.0</ele><time>2026-04-18T07:15:08.999Z</time></trkpt><trkpt lat="44.7144313" lon="9.3844072"><ele>310.0</ele><time>2026-04-18T07:15:09.999Z</time></trkpt><trkpt lat="44.7144131" lon="9.3845894"><ele>309.0</ele><time>2026-04-18T07:15:10.999Z</time></trkpt><trkpt lat="44.7144007" lon="9.3847725"><ele>308.0</ele><time>2026-04-18T07:15:11.999Z</time></trkpt><trkpt lat="44.7144049" lon="9.3849604"><ele>308.0</ele><time>2026-04-18T07:15:12.999Z</time></trkpt><trkpt lat="44.7144425" lon="9.385146"><ele>308.0</ele><time>2026-04-18T07:15:13.999Z</time></trkpt><trkpt lat="44.7144947" lon="9.3853317"><ele>308.0</ele><time>2026-04-18T07:15:14.999Z</time></trkpt><trkpt lat="44.7145629" lon="9.3855262"><ele>308.0</ele><time>2026-04-18T07:15:15.999Z</time></trkpt><trkpt lat="44.7146345" lon="9.3857319"><ele>309.75</ele><time>2026-04-18T07:15:16.999Z</time></trkpt><trkpt lat="44.7147048" lon="9.3859274"><ele>311.5</ele><time>2026-04-18T07:15:17.999Z</time></trkpt><trkpt lat="44.7147773" lon="9.3861234"><ele>313.25</ele><time>2026-04-18T07:15:18.999Z</time></trkpt><trkpt lat="44.7148525" lon="9.3862842"><ele>315.0</ele><time>2026-04-18T07:15:19.999Z</time></trkpt><trkpt lat="44.7149218" lon="9.3864835"><ele>317.75</ele><time>2026-04-18T07:15:20.999Z</time></trkpt><trkpt lat="44.7149973" lon="9.386673"><ele>320.5</ele><time>2026-04-18T07:15:21.999Z</time></trkpt><trkpt lat="44.7150751" lon="9.3868478"><ele>323.25</ele><time>2026-04-18T07:15:22.999Z</time></trkpt><trkpt lat="44.7151368" lon="9.3870041"><ele>326.0</ele><time>2026-04-18T07:15:23.999Z</time></trkpt><trkpt lat="44.7151775" lon="9.3871766"><ele>322.25</ele><time>2026-04-18T07:15:24.999Z</time></trkpt><trkpt lat="44.7152237" lon="9.387343"><ele>318.5</ele><time>2026-04-18T07:15:25.999Z</time></trkpt><trkpt lat="44.7152956" lon="9.3874909"><ele>314.75</ele><time>2026-04-18T07:15:26.999Z</time></trkpt><trkpt lat="44.7153917" lon="9.3876381"><ele>311.0</ele><time>2026-04-18T07:15:27.999Z</time></trkpt><trkpt lat="44.7154898" lon="9.3877567"><ele>311.0</ele><time>2026-04-18T07:15:28.999Z</time></trkpt><trkpt lat="44.715583" lon="9.3878896"><ele>311.0</ele><time>2026-04-18T07:15:30.102Z</time></trkpt><trkpt lat="44.7157264" lon="9.3882257"><ele>311.0</ele><time>2026-04-18T07:15:31.999Z</time></trkpt><trkpt lat="44.7157928" lon="9.3884166"><ele>314.25</ele><time>2026-04-18T07:15:32.999Z</time></trkpt><trkpt lat="44.7158503" lon="9.3886121"><ele>317.5</ele><time>2026-04-18T07:15:33.999Z</time></trkpt><trkpt lat="44.7159041" lon="9.3887958"><ele>320.75</ele><time>2026-04-18T07:15:34.999Z</time></trkpt><trkpt lat="44.7159567" lon="9.3889774"><ele>324.0</ele><time>2026-04-18T07:15:35.999Z</time></trkpt><trkpt lat="44.7160258" lon="9.3891409"><ele>321.0</ele><time>2026-04-18T07:15:36.999Z</time></trkpt><trkpt lat="44.7161235" lon="9.3892569"><ele>318.0</ele><time>2026-04-18T07:15:37.999Z</time></trkpt><trkpt lat="44.7162368" lon="9.389367"><ele>315.0</ele><time>2026-04-18T07:15:38.999Z</time></trkpt><trkpt lat="44.7163734" lon="9.389485"><ele>312.0</ele><time>2026-04-18T07:15:39.999Z</time></trkpt><trkpt lat="44.7165201" lon="9.3896063"><ele>318.6666666666667</ele><time>2026-04-18T07:15:41.103Z</time></trkpt><trkpt lat="44.7166557" lon="9.3897132"><ele>325.33333333333337</ele><time>2026-04-18T07:15:41.999Z</time></trkpt><trkpt lat="44.7167979" lon="9.3898043"><ele>332.0</ele><time>2026-04-18T07:15:42.999Z</time></trkpt><trkpt lat="44.7169568" lon="9.3899076"><ele>332.0</ele><time>2026-04-18T07:15:43.999Z</time></trkpt><trkpt lat="44.7171009" lon="9.3899875"><ele>332.0</ele><time>2026-04-18T07:15:45.114Z</time></trkpt><trkpt lat="44.7173826" lon="9.3901255"><ele>332.0</ele><time>2026-04-18T07:15:46.999Z</time></trkpt><trkpt lat="44.7175299" lon="9.3901627"><ele>332.0</ele><time>2026-04-18T07:15:47.999Z</time></trkpt><trkpt lat="44.7176763" lon="9.3901649"><ele>332.0</ele><time>2026-04-18T07:15:48.999Z</time></trkpt><trkpt lat="44.7178288" lon="9.3901766"><ele>332.0</ele><time>2026-04-18T07:15:50.101Z</time></trkpt><trkpt lat="44.7179747" lon="9.3901944"><ele>329.6666666666667</ele><time>2026-04-18T07:15:51.117Z</time></trkpt><trkpt lat="44.718121" lon="9.3902195"><ele>327.3333333333333</ele><time>2026-04-18T07:15:52.128Z</time></trkpt><trkpt lat="44.7184066" lon="9.3902573"><ele>325.0</ele><time>2026-04-18T07:15:53.999Z</time></trkpt><trkpt lat="44.7185468" lon="9.3902698"><ele>324.3333333333333</ele><time>2026-04-18T07:15:54.999Z</time></trkpt><trkpt lat="44.7186855" lon="9.3902579"><ele>323.6666666666667</ele><time>2026-04-18T07:15:55.999Z</time></trkpt><trkpt lat="44.7188207" lon="9.3902226"><ele>323.0</ele><time>2026-04-18T07:15:57.118Z</time></trkpt><trkpt lat="44.7190598" lon="9.3900889"><ele>323.0</ele><time>2026-04-18T07:15:58.999Z</time></trkpt><trkpt lat="44.719179" lon="9.3900219"><ele>323.0</ele><time>2026-04-18T07:15:59.999Z</time></trkpt><trkpt lat="44.7193168" lon="9.3899999"><ele>323.0</ele><time>2026-04-18T07:16:01.109Z</time></trkpt><trkpt lat="44.7194686" lon="9.3900091"><ele>323.0</ele><time>2026-04-18T07:16:01.999Z</time></trkpt><trkpt lat="44.7196259" lon="9.3900223"><ele>322.0</ele><time>2026-04-18T07:16:02.999Z</time></trkpt><trkpt lat="44.7197747" lon="9.3900538"><ele>321.0</ele><time>2026-04-18T07:16:03.999Z</time></trkpt><trkpt lat="44.7198905" lon="9.390091"><ele>320.0</ele><time>2026-04-18T07:16:04.999Z</time></trkpt><trkpt lat="44.7199947" lon="9.3901569"><ele>319.0</ele><time>2026-04-18T07:16:05.999Z</time></trkpt><trkpt lat="44.7200777" lon="9.3902468"><ele>327.66666666666663</ele><time>2026-04-18T07:16:07.123Z</time></trkpt><trkpt lat="44.7201726" lon="9.3905132"><ele>336.3333333333333</ele><time>2026-04-18T07:16:08.999Z</time></trkpt><trkpt lat="44.7201902" lon="9.3906862"><ele>345.0</ele><time>2026-04-18T07:16:09.999Z</time></trkpt><trkpt lat="44.7202097" lon="9.3908709"><ele>345.0</ele><time>2026-04-18T07:16:10.999Z</time></trkpt><trkpt lat="44.7202208" lon="9.3910684"><ele>345.0</ele><time>2026-04-18T07:16:11.999Z</time></trkpt><trkpt lat="44.7202403" lon="9.3912609"><ele>345.0</ele><time>2026-04-18T07:16:12.999Z</time></trkpt><trkpt lat="44.7202501" lon="9.3914643"><ele>345.0</ele><time>2026-04-18T07:16:13.999Z</time></trkpt><trkpt lat="44.7202581" lon="9.3916544"><ele>339.25</ele><time>2026-04-18T07:16:15Z</time></trkpt><trkpt lat="44.7202718" lon="9.3918452"><ele>333.5</ele><time>2026-04-18T07:16:15.999Z</time></trkpt><trkpt lat="44.7203074" lon="9.3920417"><ele>327.75</ele><time>2026-04-18T07:16:16.999Z</time></trkpt><trkpt lat="44.7203533" lon="9.3922487"><ele>322.0</ele><time>2026-04-18T07:16:17.999Z</time></trkpt><trkpt lat="44.7204101" lon="9.3924589"><ele>322.0</ele><time>2026-04-18T07:16:18.999Z</time></trkpt><trkpt lat="44.7204848" lon="9.3926455"><ele>322.0</ele><time>2026-04-18T07:16:19.999Z</time></trkpt><trkpt lat="44.7205777" lon="9.3927982"><ele>322.0</ele><time>2026-04-18T07:16:20.999Z</time></trkpt><trkpt lat="44.7206662" lon="9.3929155"><ele>322.0</ele><time>2026-04-18T07:16:22.106Z</time></trkpt><trkpt lat="44.720772" lon="9.3931947"><ele>323.66666666666663</ele><time>2026-04-18T07:16:23.999Z</time></trkpt><trkpt lat="44.7207754" lon="9.3933602"><ele>325.3333333333333</ele><time>2026-04-18T07:16:24.999Z</time></trkpt><trkpt lat="44.7207664" lon="9.393508"><ele>327.0</ele><time>2026-04-18T07:16:26.116Z</time></trkpt><trkpt lat="44.7206339" lon="9.393814"><ele>326.3333333333333</ele><time>2026-04-18T07:16:27.999Z</time></trkpt><trkpt lat="44.7205578" lon="9.3939583"><ele>325.66666666666663</ele><time>2026-04-18T07:16:28.999Z</time></trkpt><trkpt lat="44.7204994" lon="9.3940976"><ele>325.0</ele><time>2026-04-18T07:16:30.102Z</time></trkpt><trkpt lat="44.7204426" lon="9.3944289"><ele>325.0</ele><time>2026-04-18T07:16:31.999Z</time></trkpt><trkpt lat="44.7204315" lon="9.3946002"><ele>325.0</ele><time>2026-04-18T07:16:32.999Z</time></trkpt><trkpt lat="44.7204404" lon="9.3947521"><ele>325.0</ele><time>2026-04-18T07:16:33.999Z</time></trkpt><trkpt lat="44.7204525" lon="9.3948882"><ele>325.0</ele><time>2026-04-18T07:16:34.998Z</time></trkpt><trkpt lat="44.7205001" lon="9.3949983"><ele>325.0</ele><time>2026-04-18T07:16:35.999Z</time></trkpt><trkpt lat="44.7205641" lon="9.3950375"><ele>331.0</ele><time>2026-04-18T07:16:36.999Z</time></trkpt><trkpt lat="44.7206784" lon="9.3950687"><ele>337.0</ele><time>2026-04-18T07:16:37.999Z</time></trkpt><trkpt lat="44.7207942" lon="9.3950643"><ele>343.0</ele><time>2026-04-18T07:16:38.999Z</time></trkpt><trkpt lat="44.7209098" lon="9.3950197"><ele>349.0</ele><time>2026-04-18T07:16:39.999Z</time></trkpt><trkpt lat="44.7210125" lon="9.3949419"><ele>346.0</ele><time>2026-04-18T07:16:40.999Z</time></trkpt><trkpt lat="44.72112" lon="9.3948447"><ele>343.0</ele><time>2026-04-18T07:16:41.999Z</time></trkpt><trkpt lat="44.7212177" lon="9.3947596"><ele>340.0</ele><time>2026-04-18T07:16:42.999Z</time></trkpt><trkpt lat="44.7213214" lon="9.3946624"><ele>337.0</ele><time>2026-04-18T07:16:43.999Z</time></trkpt><trkpt lat="44.7213782" lon="9.3945005"><ele>337.0</ele><time>2026-04-18T07:16:44.999Z</time></trkpt><trkpt lat="44.7214272" lon="9.3943482"><ele>337.0</ele><time>2026-04-18T07:16:45.999Z</time></trkpt><trkpt lat="44.721461" lon="9.3941983"><ele>337.0</ele><time>2026-04-18T07:16:46.999Z</time></trkpt><trkpt lat="44.7215073" lon="9.3940834"><ele>337.0</ele><time>2026-04-18T07:16:47.999Z</time></trkpt><trkpt lat="44.7215814" lon="9.39399"><ele>337.0</ele><time>2026-04-18T07:16:48.999Z</time></trkpt><trkpt lat="44.7216626" lon="9.3939288"><ele>337.0</ele><time>2026-04-18T07:16:49.999Z</time></trkpt><trkpt lat="44.7217309" lon="9.3938972"><ele>337.0</ele><time>2026-04-18T07:16:50.999Z</time></trkpt><trkpt lat="44.7218476" lon="9.393945"><ele>337.0</ele><time>2026-04-18T07:16:51.999Z</time></trkpt><trkpt lat="44.7219603" lon="9.3940181"><ele>337.0</ele><time>2026-04-18T07:16:52.999Z</time></trkpt><trkpt lat="44.7220645" lon="9.3941115"><ele>337.0</ele><time>2026-04-18T07:16:53.999Z</time></trkpt><trkpt lat="44.722152" lon="9.3942308"><ele>337.6</ele><time>2026-04-18T07:16:54.999Z</time></trkpt><trkpt lat="44.7222221" lon="9.3943361"><ele>338.20000000000005</ele><time>2026-04-18T07:16:55.999Z</time></trkpt><trkpt lat="44.7223028" lon="9.3944545"><ele>338.8</ele><time>2026-04-18T07:16:56.999Z</time></trkpt><trkpt lat="44.7223777" lon="9.3945594"><ele>339.4</ele><time>2026-04-18T07:16:57.999Z</time></trkpt><trkpt lat="44.7224457" lon="9.3946163"><ele>340.0</ele><time>2026-04-18T07:16:59Z</time></trkpt><trkpt lat="44.7225238" lon="9.3946516"><ele>340.0</ele><time>2026-04-18T07:17:00Z</time></trkpt><trkpt lat="44.7225889" lon="9.3946391"><ele>340.0</ele><time>2026-04-18T07:17:00.999Z</time></trkpt><trkpt lat="44.7226768" lon="9.3945782"><ele>340.0</ele><time>2026-04-18T07:17:01.999Z</time></trkpt><trkpt lat="44.7227083" lon="9.39445"><ele>340.0</ele><time>2026-04-18T07:17:02.999Z</time></trkpt><trkpt lat="44.7227506" lon="9.3943628"><ele>340.0</ele><time>2026-04-18T07:17:03.999Z</time></trkpt><trkpt lat="44.7227996" lon="9.3942767"><ele>340.0</ele><time>2026-04-18T07:17:04.999Z</time></trkpt><trkpt lat="44.7228736" lon="9.3942194"><ele>345.6</ele><time>2026-04-18T07:17:05.999Z</time></trkpt><trkpt lat="44.7229585" lon="9.3941755"><ele>351.2</ele><time>2026-04-18T07:17:06.999Z</time></trkpt><trkpt lat="44.7230578" lon="9.3941292"><ele>356.79999999999995</ele><time>2026-04-18T07:17:07.999Z</time></trkpt><trkpt lat="44.72315" lon="9.3940767"><ele>362.4</ele><time>2026-04-18T07:17:08.999Z</time></trkpt><trkpt lat="44.7232447" lon="9.3940228"><ele>368.0</ele><time>2026-04-18T07:17:10Z</time></trkpt><trkpt lat="44.72334" lon="9.3939748"><ele>368.0</ele><time>2026-04-18T07:17:10.999Z</time></trkpt><trkpt lat="44.7234334" lon="9.3939189"><ele>368.0</ele><time>2026-04-18T07:17:12.103Z</time></trkpt><trkpt lat="44.7236294" lon="9.3938126"><ele>368.0</ele><time>2026-04-18T07:17:14Z</time></trkpt><trkpt lat="44.7237167" lon="9.3937715"><ele>368.0</ele><time>2026-04-18T07:17:15.104Z</time></trkpt><trkpt lat="44.7238791" lon="9.3936176"><ele>367.5</ele><time>2026-04-18T07:17:16.999Z</time></trkpt><trkpt lat="44.7239561" lon="9.3935108"><ele>367.0</ele><time>2026-04-18T07:17:17.999Z</time></trkpt><trkpt lat="44.7240341" lon="9.3933909"><ele>366.5</ele><time>2026-04-18T07:17:18.999Z</time></trkpt><trkpt lat="44.7241014" lon="9.3932578"><ele>366.0</ele><time>2026-04-18T07:17:19.999Z</time></trkpt><trkpt lat="44.7241772" lon="9.3931375"><ele>366.0</ele><time>2026-04-18T07:17:20.999Z</time></trkpt><trkpt lat="44.7242601" lon="9.3930064"><ele>366.0</ele><time>2026-04-18T07:17:21.999Z</time></trkpt><trkpt lat="44.7243396" lon="9.3928667"><ele>366.0</ele><time>2026-04-18T07:17:22.999Z</time></trkpt><trkpt lat="44.7244171" lon="9.3927258"><ele>366.0</ele><time>2026-04-18T07:17:23.999Z</time></trkpt><trkpt lat="44.7244925" lon="9.3925729"><ele>365.0</ele><time>2026-04-18T07:17:24.999Z</time></trkpt><trkpt lat="44.7245578" lon="9.3924152"><ele>364.0</ele><time>2026-04-18T07:17:25.999Z</time></trkpt><trkpt lat="44.7246093" lon="9.3922336"><ele>363.0</ele><time>2026-04-18T07:17:26.999Z</time></trkpt><trkpt lat="44.7246507" lon="9.3920456"><ele>362.0</ele><time>2026-04-18T07:17:27.999Z</time></trkpt><trkpt lat="44.7246985" lon="9.391857"><ele>362.0</ele><time>2026-04-18T07:17:28.999Z</time></trkpt><trkpt lat="44.7247452" lon="9.3916663"><ele>362.0</ele><time>2026-04-18T07:17:29.999Z</time></trkpt><trkpt lat="44.7247862" lon="9.3914781"><ele>362.0</ele><time>2026-04-18T07:17:30.999Z</time></trkpt><trkpt lat="44.7248588" lon="9.3911134"><ele>361.0</ele><time>2026-04-18T07:17:32.999Z</time></trkpt><trkpt lat="44.7248967" lon="9.3909486"><ele>360.0</ele><time>2026-04-18T07:17:33.999Z</time></trkpt><trkpt lat="44.7249281" lon="9.3907889"><ele>359.0</ele><time>2026-04-18T07:17:35.103Z</time></trkpt><trkpt lat="44.7249531" lon="9.390487"><ele>359.0</ele><time>2026-04-18T07:17:36.999Z</time></trkpt><trkpt lat="44.7249207" lon="9.3903698"><ele>359.0</ele><time>2026-04-18T07:17:37.999Z</time></trkpt><trkpt lat="44.7248705" lon="9.3902587"><ele>359.0</ele><time>2026-04-18T07:17:38.999Z</time></trkpt><trkpt lat="44.7248177" lon="9.3901156"><ele>359.0</ele><time>2026-04-18T07:17:40.128Z</time></trkpt><trkpt lat="44.7248157" lon="9.3898173"><ele>358.5</ele><time>2026-04-18T07:17:41.999Z</time></trkpt><trkpt lat="44.7248591" lon="9.3896705"><ele>358.0</ele><time>2026-04-18T07:17:42.999Z</time></trkpt><trkpt lat="44.7249073" lon="9.3895001"><ele>357.5</ele><time>2026-04-18T07:17:43.999Z</time></trkpt><trkpt lat="44.7249567" lon="9.3893457"><ele>357.0</ele><time>2026-04-18T07:17:44.999Z</time></trkpt><trkpt lat="44.7250166" lon="9.3892026"><ele>357.0</ele><time>2026-04-18T07:17:46.124Z</time></trkpt><trkpt lat="44.7252007" lon="9.388996"><ele>357.0</ele><time>2026-04-18T07:17:47.999Z</time></trkpt><trkpt lat="44.7253055" lon="9.3889116"><ele>357.0</ele><time>2026-04-18T07:17:48.999Z</time></trkpt><trkpt lat="44.7254029" lon="9.3888237"><ele>360.0</ele><time>2026-04-18T07:17:49.999Z</time></trkpt><trkpt lat="44.7255077" lon="9.3887195"><ele>363.0</ele><time>2026-04-18T07:17:50.999Z</time></trkpt><trkpt lat="44.7256119" lon="9.3886192"><ele>366.0</ele><time>2026-04-18T07:17:51.999Z</time></trkpt><trkpt lat="44.7257146" lon="9.3885115"><ele>369.0</ele><time>2026-04-18T07:17:52.999Z</time></trkpt><trkpt lat="44.7258158" lon="9.3883906"><ele>369.0</ele><time>2026-04-18T07:17:53.999Z</time></trkpt><trkpt lat="44.7259117" lon="9.3882674"><ele>369.0</ele><time>2026-04-18T07:17:54.999Z</time></trkpt><trkpt lat="44.7259951" lon="9.3881156"><ele>369.0</ele><time>2026-04-18T07:17:55.999Z</time></trkpt><trkpt lat="44.7260811" lon="9.3879694"><ele>369.0</ele><time>2026-04-18T07:17:57.113Z</time></trkpt><trkpt lat="44.726237" lon="9.3876467"><ele>371.3333333333333</ele><time>2026-04-18T07:17:58.999Z</time></trkpt><trkpt lat="44.7263089" lon="9.3874721"><ele>373.66666666666663</ele><time>2026-04-18T07:18:00.11Z</time></trkpt><trkpt lat="44.7264168" lon="9.3871343"><ele>376.0</ele><time>2026-04-18T07:18:02Z</time></trkpt><trkpt lat="44.7264576" lon="9.3869739"><ele>376.0</ele><time>2026-04-18T07:18:02.999Z</time></trkpt><trkpt lat="44.7264651" lon="9.3867832"><ele>376.0</ele><time>2026-04-18T07:18:03.999Z</time></trkpt><trkpt lat="44.7264463" lon="9.3865943"><ele>376.0</ele><time>2026-04-18T07:18:05.103Z</time></trkpt><trkpt lat="44.7263767" lon="9.3862114"><ele>371.25</ele><time>2026-04-18T07:18:06.999Z</time></trkpt><trkpt lat="44.7263396" lon="9.3860185"><ele>366.5</ele><time>2026-04-18T07:18:07.999Z</time></trkpt><trkpt lat="44.7263119" lon="9.3858533"><ele>361.75</ele><time>2026-04-18T07:18:08.999Z</time></trkpt><trkpt lat="44.7262785" lon="9.3857066"><ele>357.0</ele><time>2026-04-18T07:18:10.101Z</time></trkpt><trkpt lat="44.7262336" lon="9.3854777"><ele>347.0</ele><time>2026-04-18T07:18:11.999Z</time></trkpt><trkpt lat="44.7262845" lon="9.3853402"><ele>337.0</ele><time>2026-04-18T07:18:13.999Z</time></trkpt><trkpt lat="44.7263537" lon="9.3853359"><ele>327.0</ele><time>2026-04-18T07:18:15.12Z</time></trkpt><trkpt lat="44.7265224" lon="9.3853695"><ele>317.0</ele><time>2026-04-18T07:18:17.106Z</time></trkpt><trkpt lat="44.7267352" lon="9.3854779"><ele>321.0</ele><time>2026-04-18T07:18:19Z</time></trkpt><trkpt lat="44.7268365" lon="9.3855578"><ele>325.0</ele><time>2026-04-18T07:18:19.999Z</time></trkpt><trkpt lat="44.7269115" lon="9.3856712"><ele>329.0</ele><time>2026-04-18T07:18:20.999Z</time></trkpt><trkpt lat="44.7270017" lon="9.3857835"><ele>333.0</ele><time>2026-04-18T07:18:22.105Z</time></trkpt><trkpt lat="44.7272208" lon="9.3859814"><ele>333.0</ele><time>2026-04-18T07:18:23.999Z</time></trkpt><trkpt lat="44.7273429" lon="9.3860848"><ele>333.0</ele><time>2026-04-18T07:18:24.999Z</time></trkpt><trkpt lat="44.7274581" lon="9.3861882"><ele>333.0</ele><time>2026-04-18T07:18:25.999Z</time></trkpt><trkpt lat="44.7275853" lon="9.3862833"><ele>333.0</ele><time>2026-04-18T07:18:26.999Z</time></trkpt><trkpt lat="44.7277128" lon="9.3863782"><ele>339.75</ele><time>2026-04-18T07:18:27.999Z</time></trkpt><trkpt lat="44.7278427" lon="9.3864541"><ele>346.5</ele><time>2026-04-18T07:18:28.999Z</time></trkpt><trkpt lat="44.7279885" lon="9.3865314"><ele>353.25</ele><time>2026-04-18T07:18:29.999Z</time></trkpt><trkpt lat="44.7281242" lon="9.386581"><ele>360.0</ele><time>2026-04-18T07:18:30.999Z</time></trkpt><trkpt lat="44.7282561" lon="9.386625"><ele>360.0</ele><time>2026-04-18T07:18:32.122Z</time></trkpt><trkpt lat="44.7284822" lon="9.3866736"><ele>360.0</ele><time>2026-04-18T07:18:33.999Z</time></trkpt><trkpt lat="44.7285864" lon="9.3867059"><ele>360.0</ele><time>2026-04-18T07:18:34.999Z</time></trkpt><trkpt lat="44.7286615" lon="9.3867415"><ele>360.0</ele><time>2026-04-18T07:18:35.999Z</time></trkpt><trkpt lat="44.7287294" lon="9.3868266"><ele>363.75</ele><time>2026-04-18T07:18:37.123Z</time></trkpt><trkpt lat="44.7288064" lon="9.3870393"><ele>367.5</ele><time>2026-04-18T07:18:38.999Z</time></trkpt><trkpt lat="44.7288593" lon="9.3871644"><ele>371.25</ele><time>2026-04-18T07:18:40.119Z</time></trkpt><trkpt lat="44.7289277" lon="9.3872727"><ele>375.0</ele><time>2026-04-18T07:18:41.109Z</time></trkpt><trkpt lat="44.7290147" lon="9.3873334"><ele>375.0</ele><time>2026-04-18T07:18:42.114Z</time></trkpt><trkpt lat="44.7292222" lon="9.3873711"><ele>375.0</ele><time>2026-04-18T07:18:43.999Z</time></trkpt><trkpt lat="44.7293345" lon="9.3873657"><ele>375.0</ele><time>2026-04-18T07:18:44.999Z</time></trkpt><trkpt lat="44.7294407" lon="9.3873706"><ele>375.0</ele><time>2026-04-18T07:18:45.999Z</time></trkpt><trkpt lat="44.7295502" lon="9.3874165"><ele>367.2</ele><time>2026-04-18T07:18:46.999Z</time></trkpt><trkpt lat="44.729656" lon="9.3875031"><ele>359.4</ele><time>2026-04-18T07:18:47.999Z</time></trkpt><trkpt lat="44.7297369" lon="9.3876193"><ele>351.6</ele><time>2026-04-18T07:18:48.999Z</time></trkpt><trkpt lat="44.7298263" lon="9.3877008"><ele>343.8</ele><time>2026-04-18T07:18:49.999Z</time></trkpt><trkpt lat="44.7299127" lon="9.3877563"><ele>336.0</ele><time>2026-04-18T07:18:50.999Z</time></trkpt><trkpt lat="44.7300108" lon="9.3877927"><ele>336.0</ele><time>2026-04-18T07:18:51.999Z</time></trkpt><trkpt lat="44.7301096" lon="9.3878454"><ele>336.0</ele><time>2026-04-18T07:18:52.999Z</time></trkpt><trkpt lat="44.7302169" lon="9.3879095"><ele>336.0</ele><time>2026-04-18T07:18:54.122Z</time></trkpt><trkpt lat="44.730318" lon="9.3879749"><ele>336.0</ele><time>2026-04-18T07:18:55.103Z</time></trkpt><trkpt lat="44.7305191" lon="9.3880533"><ele>340.8</ele><time>2026-04-18T07:18:56.999Z</time></trkpt><trkpt lat="44.7306136" lon="9.388055"><ele>345.6</ele><time>2026-04-18T07:18:57.999Z</time></trkpt><trkpt lat="44.7307013" lon="9.3880612"><ele>350.4</ele><time>2026-04-18T07:18:58.999Z</time></trkpt><trkpt lat="44.7307961" lon="9.3880886"><ele>355.2</ele><time>2026-04-18T07:18:59.999Z</time></trkpt><trkpt lat="44.7308715" lon="9.3881468"><ele>360.0</ele><time>2026-04-18T07:19:00.999Z</time></trkpt><trkpt lat="44.7309327" lon="9.3882377"><ele>360.0</ele><time>2026-04-18T07:19:01.999Z</time></trkpt><trkpt lat="44.7309784" lon="9.3883375"><ele>360.0</ele><time>2026-04-18T07:19:02.999Z</time></trkpt><trkpt lat="44.731083" lon="9.388455"><ele>360.0</ele><time>2026-04-18T07:19:04.999Z</time></trkpt><trkpt lat="44.7311855" lon="9.3884705"><ele>360.0</ele><time>2026-04-18T07:19:06.108Z</time></trkpt><trkpt lat="44.7314186" lon="9.3884381"><ele>355.25</ele><time>2026-04-18T07:19:07.999Z</time></trkpt><trkpt lat="44.7315409" lon="9.3884127"><ele>350.5</ele><time>2026-04-18T07:19:08.999Z</time></trkpt><trkpt lat="44.731663" lon="9.3884071"><ele>345.75</ele><time>2026-04-18T07:19:10.107Z</time></trkpt><trkpt lat="44.7317735" lon="9.3884158"><ele>341.0</ele><time>2026-04-18T07:19:11.105Z</time></trkpt><trkpt lat="44.7320205" lon="9.3885083"><ele>335.25</ele><time>2026-04-18T07:19:12.999Z</time></trkpt><trkpt lat="44.7321311" lon="9.388588"><ele>329.5</ele><time>2026-04-18T07:19:13.999Z</time></trkpt><trkpt lat="44.7322314" lon="9.3886884"><ele>323.75</ele><time>2026-04-18T07:19:14.999Z</time></trkpt><trkpt lat="44.7323139" lon="9.3888067"><ele>318.0</ele><time>2026-04-18T07:19:16.118Z</time></trkpt><trkpt lat="44.7325209" lon="9.3889822"><ele>325.5</ele><time>2026-04-18T07:19:17.999Z</time></trkpt><trkpt lat="44.7326398" lon="9.3890076"><ele>333.0</ele><time>2026-04-18T07:19:18.999Z</time></trkpt><trkpt lat="44.7327875" lon="9.3890207"><ele>340.5</ele><time>2026-04-18T07:19:20.119Z</time></trkpt><trkpt lat="44.7329195" lon="9.3890284"><ele>348.0</ele><time>2026-04-18T07:19:21.109Z</time></trkpt><trkpt lat="44.7331764" lon="9.3890691"><ele>348.0</ele><time>2026-04-18T07:19:22.999Z</time></trkpt><trkpt lat="44.7333002" lon="9.3891096"><ele>348.0</ele><time>2026-04-18T07:19:23.999Z</time></trkpt><trkpt lat="44.7334261" lon="9.3891291"><ele>348.0</ele><time>2026-04-18T07:19:24.999Z</time></trkpt><trkpt lat="44.7335529" lon="9.3891278"><ele>348.0</ele><time>2026-04-18T07:19:25.999Z</time></trkpt><trkpt lat="44.7336732" lon="9.3891018"><ele>347.25</ele><time>2026-04-18T07:19:26.999Z</time></trkpt><trkpt lat="44.7338016" lon="9.3890832"><ele>346.5</ele><time>2026-04-18T07:19:27.999Z</time></trkpt><trkpt lat="44.7339338" lon="9.3890806"><ele>345.75</ele><time>2026-04-18T07:19:28.999Z</time></trkpt><trkpt lat="44.7340707" lon="9.3890829"><ele>345.0</ele><time>2026-04-18T07:19:29.999Z</time></trkpt><trkpt lat="44.7342031" lon="9.3890977"><ele>340.0</ele><time>2026-04-18T07:19:31.106Z</time></trkpt><trkpt lat="44.7344699" lon="9.3891983"><ele>335.0</ele><time>2026-04-18T07:19:32.999Z</time></trkpt><trkpt lat="44.7345918" lon="9.3892726"><ele>330.0</ele><time>2026-04-18T07:19:33.999Z</time></trkpt><trkpt lat="44.7347054" lon="9.3893618"><ele>330.0</ele><time>2026-04-18T07:19:34.999Z</time></trkpt><trkpt lat="44.7348272" lon="9.3894371"><ele>330.0</ele><time>2026-04-18T07:19:35.999Z</time></trkpt><trkpt lat="44.7349624" lon="9.3895058"><ele>330.0</ele><time>2026-04-18T07:19:37.122Z</time></trkpt><trkpt lat="44.7352289" lon="9.3896221"><ele>340.0</ele><time>2026-04-18T07:19:39Z</time></trkpt><trkpt lat="44.7353715" lon="9.3896803"><ele>350.0</ele><time>2026-04-18T07:19:39.999Z</time></trkpt><trkpt lat="44.7355242" lon="9.3897069"><ele>360.0</ele><time>2026-04-18T07:19:41.115Z</time></trkpt><trkpt lat="44.7356779" lon="9.389719"><ele>360.0</ele><time>2026-04-18T07:19:41.999Z</time></trkpt><trkpt lat="44.7358287" lon="9.3897184"><ele>360.0</ele><time>2026-04-18T07:19:42.999Z</time></trkpt><trkpt lat="44.7359707" lon="9.3897146"><ele>360.0</ele><time>2026-04-18T07:19:43.999Z</time></trkpt><trkpt lat="44.7361068" lon="9.3897084"><ele>360.0</ele><time>2026-04-18T07:19:44.999Z</time></trkpt><trkpt lat="44.7362644" lon="9.3897103"><ele>361.3333333333333</ele><time>2026-04-18T07:19:46.125Z</time></trkpt><trkpt lat="44.7365612" lon="9.3897099"><ele>362.66666666666663</ele><time>2026-04-18T07:19:47.999Z</time></trkpt><trkpt lat="44.7367124" lon="9.3896889"><ele>364.0</ele><time>2026-04-18T07:19:48.999Z</time></trkpt><trkpt lat="44.7368528" lon="9.3896509"><ele>353.66666666666663</ele><time>2026-04-18T07:19:49.999Z</time></trkpt><trkpt lat="44.7370072" lon="9.3895986"><ele>343.3333333333333</ele><time>2026-04-18T07:19:50.999Z</time></trkpt><trkpt lat="44.7371574" lon="9.3895256"><ele>333.0</ele><time>2026-04-18T07:19:51.999Z</time></trkpt><trkpt lat="44.737303" lon="9.3894319"><ele>333.0</ele><time>2026-04-18T07:19:52.999Z</time></trkpt><trkpt lat="44.7374421" lon="9.389327"><ele>333.0</ele><time>2026-04-18T07:19:53.999Z</time></trkpt><trkpt lat="44.7375748" lon="9.3892162"><ele>333.0</ele><time>2026-04-18T07:19:55.104Z</time></trkpt><trkpt lat="44.7378204" lon="9.3889727"><ele>333.25</ele><time>2026-04-18T07:19:56.999Z</time></trkpt><trkpt lat="44.737932" lon="9.3888548"><ele>333.5</ele><time>2026-04-18T07:19:57.999Z</time></trkpt><trkpt lat="44.7380359" lon="9.3887435"><ele>333.75</ele><time>2026-04-18T07:19:58.999Z</time></trkpt><trkpt lat="44.7381364" lon="9.3886341"><ele>334.0</ele><time>2026-04-18T07:20:00.112Z</time></trkpt><trkpt lat="44.738235" lon="9.388528"><ele>331.3333333333333</ele><time>2026-04-18T07:20:01.106Z</time></trkpt><trkpt lat="44.7383205" lon="9.3884317"><ele>328.6666666666667</ele><time>2026-04-18T07:20:02.117Z</time></trkpt><trkpt lat="44.7384628" lon="9.3882522"><ele>326.0</ele><time>2026-04-18T07:20:04.112Z</time></trkpt><trkpt lat="44.7385767" lon="9.3880984"><ele>326.33333333333337</ele><time>2026-04-18T07:20:05.999Z</time></trkpt><trkpt lat="44.7386246" lon="9.3880318"><ele>326.6666666666667</ele><time>2026-04-18T07:20:06.999Z</time></trkpt><trkpt lat="44.7387136" lon="9.387916"><ele>327.0</ele><time>2026-04-18T07:20:08.999Z</time></trkpt><trkpt lat="44.7387885" lon="9.3878356"><ele>327.3333333333333</ele><time>2026-04-18T07:20:10.999Z</time></trkpt><trkpt lat="44.7388435" lon="9.3877757"><ele>327.66666666666663</ele><time>2026-04-18T07:20:13.999Z</time></trkpt><trkpt lat="44.7389287" lon="9.3877291"><ele>328.0</ele><time>2026-04-18T07:21:15.999Z</time></trkpt><trkpt lat="44.739011" lon="9.3876351"><ele>328.0</ele><time>2026-04-18T07:22:16.999Z</time></trkpt><trkpt lat="44.7390792" lon="9.3875623"><ele>328.0</ele><time>2026-04-18T07:22:17.999Z</time></trkpt><trkpt lat="44.7391508" lon="9.387427"><ele>328.0</ele><time>2026-04-18T07:22:19.999Z</time></trkpt><trkpt lat="44.7392373" lon="9.3873878"><ele>328.0</ele><time>2026-04-18T07:22:21.116Z</time></trkpt><trkpt lat="44.7394124" lon="9.3872852"><ele>325.59999999999997</ele><time>2026-04-18T07:22:22.999Z</time></trkpt><trkpt lat="44.7395217" lon="9.3872423"><ele>323.2</ele><time>2026-04-18T07:22:23.999Z</time></trkpt><trkpt lat="44.7396297" lon="9.3872044"><ele>320.8</ele><time>2026-04-18T07:22:24.999Z</time></trkpt><trkpt lat="44.7397508" lon="9.3871888"><ele>318.4</ele><time>2026-04-18T07:22:26.102Z</time></trkpt><trkpt lat="44.7398486" lon="9.3871885"><ele>316.0</ele><time>2026-04-18T07:22:27.11Z</time></trkpt><trkpt lat="44.740098" lon="9.3871969"><ele>329.3333333333333</ele><time>2026-04-18T07:22:29.109Z</time></trkpt><trkpt lat="44.740329" lon="9.3872621"><ele>342.6666666666667</ele><time>2026-04-18T07:22:30.999Z</time></trkpt><trkpt lat="44.7404546" lon="9.3873149"><ele>356.0</ele><time>2026-04-18T07:22:31.999Z</time></trkpt><trkpt lat="44.7405695" lon="9.3873822"><ele>356.0</ele><time>2026-04-18T07:22:32.999Z</time></trkpt><trkpt lat="44.7406824" lon="9.3874517"><ele>356.0</ele><time>2026-04-18T07:22:34.114Z</time></trkpt><trkpt lat="44.7431896" lon="9.3889484"><ele>353.0</ele><time>2026-04-18T07:22:51.999Z</time></trkpt><trkpt lat="44.743324" lon="9.3889725"><ele>350.0</ele><time>2026-04-18T07:22:52.999Z</time></trkpt><trkpt lat="44.7435127" lon="9.3889794"><ele>347.0</ele><time>2026-04-18T07:22:53.999Z</time></trkpt><trkpt lat="44.7436926" lon="9.3889729"><ele>341.33333333333337</ele><time>2026-04-18T07:22:54.999Z</time></trkpt><trkpt lat="44.7438456" lon="9.3889716"><ele>335.6666666666667</ele><time>2026-04-18T07:22:55.999Z</time></trkpt><trkpt lat="44.7440338" lon="9.3889787"><ele>330.0</ele><time>2026-04-18T07:22:56.999Z</time></trkpt><trkpt lat="44.7442202" lon="9.3889922"><ele>324.6666666666667</ele><time>2026-04-18T07:22:57.999Z</time></trkpt><trkpt lat="44.7443923" lon="9.3890161"><ele>319.33333333333337</ele><time>2026-04-18T07:22:58.999Z</time></trkpt><trkpt lat="44.7445572" lon="9.3890557"><ele>314.0</ele><time>2026-04-18T07:23:00Z</time></trkpt><trkpt lat="44.7447191" lon="9.3891405"><ele>314.0</ele><time>2026-04-18T07:23:00.999Z</time></trkpt><trkpt lat="44.7448673" lon="9.3892292"><ele>314.0</ele><time>2026-04-18T07:23:02.116Z</time></trkpt><trkpt lat="44.7451808" lon="9.3894749"><ele>316.6666666666667</ele><time>2026-04-18T07:23:03.999Z</time></trkpt><trkpt lat="44.7453428" lon="9.3895965"><ele>319.3333333333333</ele><time>2026-04-18T07:23:04.999Z</time></trkpt><trkpt lat="44.7454842" lon="9.3897147"><ele>322.0</ele><time>2026-04-18T07:23:05.999Z</time></trkpt><trkpt lat="44.745645" lon="9.3898213"><ele>322.0</ele><time>2026-04-18T07:23:06.999Z</time></trkpt><trkpt lat="44.7458212" lon="9.3899167"><ele>322.0</ele><time>2026-04-18T07:23:07.999Z</time></trkpt><trkpt lat="44.7459956" lon="9.3899948"><ele>322.0</ele><time>2026-04-18T07:23:08.999Z</time></trkpt><trkpt lat="44.7461695" lon="9.3900539"><ele>316.66666666666663</ele><time>2026-04-18T07:23:09.999Z</time></trkpt><trkpt lat="44.7463349" lon="9.3900991"><ele>311.3333333333333</ele><time>2026-04-18T07:23:10.999Z</time></trkpt><trkpt lat="44.7465061" lon="9.3901271"><ele>306.0</ele><time>2026-04-18T07:23:12.109Z</time></trkpt><trkpt lat="44.7468664" lon="9.390111"><ele>315.0</ele><time>2026-04-18T07:23:14.124Z</time></trkpt><trkpt lat="44.7472274" lon="9.3900016"><ele>324.0</ele><time>2026-04-18T07:23:15.999Z</time></trkpt><trkpt lat="44.7473972" lon="9.3899077"><ele>324.0</ele><time>2026-04-18T07:23:16.999Z</time></trkpt><trkpt lat="44.747549" lon="9.389795"><ele>324.0</ele><time>2026-04-18T07:23:17.999Z</time></trkpt><trkpt lat="44.7476961" lon="9.3896673"><ele>324.0</ele><time>2026-04-18T07:23:18.999Z</time></trkpt><trkpt lat="44.7478315" lon="9.3895178"><ele>328.3333333333333</ele><time>2026-04-18T07:23:19.999Z</time></trkpt><trkpt lat="44.7479561" lon="9.3893502"><ele>332.66666666666663</ele><time>2026-04-18T07:23:21.101Z</time></trkpt><trkpt lat="44.7480718" lon="9.3891589"><ele>337.0</ele><time>2026-04-18T07:23:22.11Z</time></trkpt><trkpt lat="44.7481831" lon="9.3889474"><ele>322.0</ele><time>2026-04-18T07:23:23.114Z</time></trkpt><trkpt lat="44.7482877" lon="9.3887213"><ele>307.0</ele><time>2026-04-18T07:23:24.108Z</time></trkpt><trkpt lat="44.7484816" lon="9.388254"><ele>320.3333333333333</ele><time>2026-04-18T07:23:25.999Z</time></trkpt><trkpt lat="44.7485757" lon="9.3880099"><ele>333.6666666666667</ele><time>2026-04-18T07:23:26.999Z</time></trkpt><trkpt lat="44.7486732" lon="9.3877604"><ele>347.0</ele><time>2026-04-18T07:23:27.999Z</time></trkpt><trkpt lat="44.7487607" lon="9.3875031"><ele>347.0</ele><time>2026-04-18T07:23:28.999Z</time></trkpt><trkpt lat="44.748839" lon="9.3872449"><ele>347.0</ele><time>2026-04-18T07:23:29.999Z</time></trkpt><trkpt lat="44.7489025" lon="9.3869756"><ele>347.0</ele><time>2026-04-18T07:23:31.127Z</time></trkpt><trkpt lat="44.7489562" lon="9.3867075"><ele>332.0</ele><time>2026-04-18T07:23:32.102Z</time></trkpt><trkpt lat="44.749022" lon="9.386162"><ele>317.0</ele><time>2026-04-18T07:23:33.999Z</time></trkpt><trkpt lat="44.7490272" lon="9.3858842"><ele>317.0</ele><time>2026-04-18T07:23:34.999Z</time></trkpt><trkpt lat="44.749031" lon="9.3856207"><ele>317.0</ele><time>2026-04-18T07:23:35.999Z</time></trkpt><trkpt lat="44.7490219" lon="9.3853451"><ele>317.0</ele><time>2026-04-18T07:23:36.999Z</time></trkpt><trkpt lat="44.7490126" lon="9.3850434"><ele>315.33333333333337</ele><time>2026-04-18T07:23:37.999Z</time></trkpt><trkpt lat="44.7490066" lon="9.3847462"><ele>313.6666666666667</ele><time>2026-04-18T07:23:38.999Z</time></trkpt><trkpt lat="44.7489983" lon="9.3844427"><ele>312.0</ele><time>2026-04-18T07:23:39.999Z</time></trkpt><trkpt lat="44.7489887" lon="9.3841606"><ele>312.0</ele><time>2026-04-18T07:23:40.999Z</time></trkpt><trkpt lat="44.7489763" lon="9.3838814"><ele>312.0</ele><time>2026-04-18T07:23:41.999Z</time></trkpt><trkpt lat="44.7489419" lon="9.3836138"><ele>312.0</ele><time>2026-04-18T07:23:42.999Z</time></trkpt><trkpt lat="44.7489089" lon="9.3833426"><ele>310.3333333333333</ele><time>2026-04-18T07:23:43.999Z</time></trkpt><trkpt lat="44.7488724" lon="9.383105"><ele>308.66666666666663</ele><time>2026-04-18T07:23:44.999Z</time></trkpt><trkpt lat="44.7488331" lon="9.3828502"><ele>307.0</ele><time>2026-04-18T07:23:45.999Z</time></trkpt><trkpt lat="44.7487961" lon="9.3825956"><ele>306.66666666666663</ele><time>2026-04-18T07:23:46.999Z</time></trkpt><trkpt lat="44.7487691" lon="9.3823449"><ele>306.3333333333333</ele><time>2026-04-18T07:23:47.999Z</time></trkpt><trkpt lat="44.7487508" lon="9.3820825"><ele>306.0</ele><time>2026-04-18T07:23:48.999Z</time></trkpt><trkpt lat="44.7487487" lon="9.3818263"><ele>303.6666666666667</ele><time>2026-04-18T07:23:49.999Z</time></trkpt><trkpt lat="44.7487723" lon="9.3815932"><ele>301.33333333333337</ele><time>2026-04-18T07:23:50.999Z</time></trkpt><trkpt lat="44.7488102" lon="9.3813513"><ele>299.0</ele><time>2026-04-18T07:23:51.999Z</time></trkpt><trkpt lat="44.7488693" lon="9.3811136"><ele>294.33333333333337</ele><time>2026-04-18T07:23:52.999Z</time></trkpt><trkpt lat="44.7489455" lon="9.3808915"><ele>289.6666666666667</ele><time>2026-04-18T07:23:53.999Z</time></trkpt><trkpt lat="44.7490367" lon="9.3806774"><ele>285.0</ele><time>2026-04-18T07:23:54.999Z</time></trkpt><trkpt lat="44.7491464" lon="9.38048"><ele>282.0</ele><time>2026-04-18T07:23:55.999Z</time></trkpt><trkpt lat="44.7492758" lon="9.3803003"><ele>279.0</ele><time>2026-04-18T07:23:56.999Z</time></trkpt><trkpt lat="44.7494175" lon="9.3801389"><ele>276.0</ele><time>2026-04-18T07:23:57.999Z</time></trkpt><trkpt lat="44.7495702" lon="9.37999"><ele>274.0</ele><time>2026-04-18T07:23:58.999Z</time></trkpt><trkpt lat="44.7497343" lon="9.3798754"><ele>272.0</ele><time>2026-04-18T07:23:59.999Z</time></trkpt><trkpt lat="44.7499031" lon="9.3797617"><ele>270.0</ele><time>2026-04-18T07:24:00.999Z</time></trkpt><trkpt lat="44.750085" lon="9.3797152"><ele>269.0</ele><time>2026-04-18T07:24:01.999Z</time></trkpt><trkpt lat="44.7502685" lon="9.3796844"><ele>268.0</ele><time>2026-04-18T07:24:02.999Z</time></trkpt><trkpt lat="44.7504591" lon="9.37967"><ele>267.0</ele><time>2026-04-18T07:24:03.999Z</time></trkpt><trkpt lat="44.7506379" lon="9.3796776"><ele>267.0</ele><time>2026-04-18T07:24:04.999Z</time></trkpt><trkpt lat="44.750831" lon="9.3796867"><ele>267.0</ele><time>2026-04-18T07:24:05.999Z</time></trkpt><trkpt lat="44.7510197" lon="9.3797036"><ele>267.0</ele><time>2026-04-18T07:24:06.999Z</time></trkpt><trkpt lat="44.7511958" lon="9.3797161"><ele>266.3333333333333</ele><time>2026-04-18T07:24:07.999Z</time></trkpt><trkpt lat="44.7513764" lon="9.379731"><ele>265.66666666666663</ele><time>2026-04-18T07:24:08.999Z</time></trkpt><trkpt lat="44.7515532" lon="9.3797459"><ele>265.0</ele><time>2026-04-18T07:24:09.999Z</time></trkpt><trkpt lat="44.7517346" lon="9.3797664"><ele>264.0</ele><time>2026-04-18T07:24:10.999Z</time></trkpt><trkpt lat="44.7519141" lon="9.3797786"><ele>263.0</ele><time>2026-04-18T07:24:11.999Z</time></trkpt><trkpt lat="44.7520877" lon="9.3797969"><ele>262.0</ele><time>2026-04-18T07:24:12.999Z</time></trkpt><trkpt lat="44.7522668" lon="9.3798091"><ele>262.0</ele><time>2026-04-18T07:24:13.999Z</time></trkpt><trkpt lat="44.7524413" lon="9.3798245"><ele>262.0</ele><time>2026-04-18T07:24:14.999Z</time></trkpt><trkpt lat="44.7526198" lon="9.3798376"><ele>262.0</ele><time>2026-04-18T07:24:15.999Z</time></trkpt><trkpt lat="44.7527961" lon="9.3798523"><ele>262.66666666666663</ele><time>2026-04-18T07:24:16.999Z</time></trkpt><trkpt lat="44.7529772" lon="9.3798677"><ele>263.3333333333333</ele><time>2026-04-18T07:24:17.999Z</time></trkpt><trkpt lat="44.7531497" lon="9.3798809"><ele>264.0</ele><time>2026-04-18T07:24:18.999Z</time></trkpt><trkpt lat="44.7533132" lon="9.3798915"><ele>264.0</ele><time>2026-04-18T07:24:19.999Z</time></trkpt><trkpt lat="44.7534844" lon="9.3799071"><ele>264.0</ele><time>2026-04-18T07:24:20.999Z</time></trkpt><trkpt lat="44.7536475" lon="9.3799312"><ele>264.0</ele><time>2026-04-18T07:24:21.999Z</time></trkpt><trkpt lat="44.7538133" lon="9.3799721"><ele>266.3333333333333</ele><time>2026-04-18T07:24:22.999Z</time></trkpt><trkpt lat="44.7539755" lon="9.3800398"><ele>268.66666666666663</ele><time>2026-04-18T07:24:23.999Z</time></trkpt><trkpt lat="44.7541289" lon="9.3801319"><ele>271.0</ele><time>2026-04-18T07:24:24.999Z</time></trkpt><trkpt lat="44.7542769" lon="9.3802424"><ele>271.0</ele><time>2026-04-18T07:24:25.999Z</time></trkpt><trkpt lat="44.754417" lon="9.3803587"><ele>271.0</ele><time>2026-04-18T07:24:26.999Z</time></trkpt><trkpt lat="44.7545571" lon="9.3804824"><ele>271.0</ele><time>2026-04-18T07:24:27.999Z</time></trkpt><trkpt lat="44.7546854" lon="9.3806058"><ele>271.0</ele><time>2026-04-18T07:24:28.999Z</time></trkpt><trkpt lat="44.7548261" lon="9.3807277"><ele>271.0</ele><time>2026-04-18T07:24:29.999Z</time></trkpt><trkpt lat="44.7549636" lon="9.3808518"><ele>271.0</ele><time>2026-04-18T07:24:30.999Z</time></trkpt><trkpt lat="44.755103" lon="9.3809819"><ele>270.66666666666663</ele><time>2026-04-18T07:24:31.999Z</time></trkpt><trkpt lat="44.7552451" lon="9.3811067"><ele>270.3333333333333</ele><time>2026-04-18T07:24:32.999Z</time></trkpt><trkpt lat="44.7553851" lon="9.3812352"><ele>270.0</ele><time>2026-04-18T07:24:33.999Z</time></trkpt><trkpt lat="44.7555246" lon="9.3813714"><ele>270.0</ele><time>2026-04-18T07:24:34.999Z</time></trkpt><trkpt lat="44.7556661" lon="9.381497"><ele>270.0</ele><time>2026-04-18T07:24:35.999Z</time></trkpt><trkpt lat="44.7558045" lon="9.3816243"><ele>270.0</ele><time>2026-04-18T07:24:36.999Z</time></trkpt><trkpt lat="44.7559428" lon="9.3817453"><ele>270.3333333333333</ele><time>2026-04-18T07:24:38Z</time></trkpt><trkpt lat="44.7560852" lon="9.3818554"><ele>270.66666666666663</ele><time>2026-04-18T07:24:38.999Z</time></trkpt><trkpt lat="44.7562265" lon="9.3819389"><ele>271.0</ele><time>2026-04-18T07:24:39.999Z</time></trkpt><trkpt lat="44.7563679" lon="9.3820021"><ele>271.0</ele><time>2026-04-18T07:24:40.999Z</time></trkpt><trkpt lat="44.7565177" lon="9.38205"><ele>271.0</ele><time>2026-04-18T07:24:41.999Z</time></trkpt><trkpt lat="44.7566613" lon="9.3820862"><ele>271.0</ele><time>2026-04-18T07:24:42.999Z</time></trkpt><trkpt lat="44.756809" lon="9.3821053"><ele>271.0</ele><time>2026-04-18T07:24:43.999Z</time></trkpt><trkpt lat="44.7569586" lon="9.3821057"><ele>270.3333333333333</ele><time>2026-04-18T07:24:44.999Z</time></trkpt><trkpt lat="44.7571057" lon="9.3820847"><ele>269.6666666666667</ele><time>2026-04-18T07:24:45.999Z</time></trkpt><trkpt lat="44.7572612" lon="9.3820672"><ele>269.0</ele><time>2026-04-18T07:24:46.999Z</time></trkpt><trkpt lat="44.7574168" lon="9.3820404"><ele>269.0</ele><time>2026-04-18T07:24:48Z</time></trkpt><trkpt lat="44.7575681" lon="9.3820134"><ele>269.0</ele><time>2026-04-18T07:24:48.999Z</time></trkpt><trkpt lat="44.7577231" lon="9.3819823"><ele>269.0</ele><time>2026-04-18T07:24:49.999Z</time></trkpt><trkpt lat="44.75788" lon="9.3819584"><ele>268.33333333333337</ele><time>2026-04-18T07:24:50.999Z</time></trkpt><trkpt lat="44.7580338" lon="9.3819282"><ele>267.6666666666667</ele><time>2026-04-18T07:24:51.999Z</time></trkpt><trkpt lat="44.7581865" lon="9.3818991"><ele>267.0</ele><time>2026-04-18T07:24:52.999Z</time></trkpt><trkpt lat="44.7583339" lon="9.3818739"><ele>267.0</ele><time>2026-04-18T07:24:53.999Z</time></trkpt><trkpt lat="44.758469" lon="9.3818524"><ele>267.0</ele><time>2026-04-18T07:24:54.999Z</time></trkpt><trkpt lat="44.7586018" lon="9.3818351"><ele>267.0</ele><time>2026-04-18T07:24:55.999Z</time></trkpt><trkpt lat="44.7587394" lon="9.3818107"><ele>267.0</ele><time>2026-04-18T07:24:56.999Z</time></trkpt><trkpt lat="44.758874" lon="9.3817883"><ele>266.75</ele><time>2026-04-18T07:24:57.999Z</time></trkpt><trkpt lat="44.7590087" lon="9.3817658"><ele>266.5</ele><time>2026-04-18T07:24:58.999Z</time></trkpt><trkpt lat="44.7591443" lon="9.3817436"><ele>266.25</ele><time>2026-04-18T07:24:59.999Z</time></trkpt><trkpt lat="44.7592791" lon="9.3817188"><ele>266.0</ele><time>2026-04-18T07:25:00.999Z</time></trkpt><trkpt lat="44.7594115" lon="9.3816961"><ele>266.0</ele><time>2026-04-18T07:25:01.999Z</time></trkpt><trkpt lat="44.7595482" lon="9.3816744"><ele>266.0</ele><time>2026-04-18T07:25:02.999Z</time></trkpt><trkpt lat="44.759694" lon="9.3816625"><ele>266.0</ele><time>2026-04-18T07:25:04Z</time></trkpt><trkpt lat="44.7598383" lon="9.3816638"><ele>266.0</ele><time>2026-04-18T07:25:04.999Z</time></trkpt><trkpt lat="44.7599831" lon="9.3816804"><ele>266.0</ele><time>2026-04-18T07:25:05.999Z</time></trkpt><trkpt lat="44.7601432" lon="9.3817136"><ele>266.0</ele><time>2026-04-18T07:25:07Z</time></trkpt><trkpt lat="44.7602831" lon="9.3817762"><ele>266.0</ele><time>2026-04-18T07:25:07.999Z</time></trkpt><trkpt lat="44.7604337" lon="9.3818556"><ele>266.6666666666667</ele><time>2026-04-18T07:25:08.999Z</time></trkpt><trkpt lat="44.7605799" lon="9.3819458"><ele>267.3333333333333</ele><time>2026-04-18T07:25:09.999Z</time></trkpt><trkpt lat="44.7607211" lon="9.3820376"><ele>268.0</ele><time>2026-04-18T07:25:10.999Z</time></trkpt><trkpt lat="44.7608543" lon="9.382126"><ele>266.75</ele><time>2026-04-18T07:25:11.999Z</time></trkpt><trkpt lat="44.7609858" lon="9.3822194"><ele>265.5</ele><time>2026-04-18T07:25:12.999Z</time></trkpt><trkpt lat="44.7611152" lon="9.3823079"><ele>264.25</ele><time>2026-04-18T07:25:13.999Z</time></trkpt><trkpt lat="44.7612341" lon="9.3823963"><ele>263.0</ele><time>2026-04-18T07:25:14.999Z</time></trkpt><trkpt lat="44.7613526" lon="9.3824794"><ele>263.0</ele><time>2026-04-18T07:25:15.999Z</time></trkpt><trkpt lat="44.7614679" lon="9.382564"><ele>263.0</ele><time>2026-04-18T07:25:16.999Z</time></trkpt><trkpt lat="44.7615935" lon="9.3826391"><ele>263.0</ele><time>2026-04-18T07:25:17.999Z</time></trkpt><trkpt lat="44.7616967" lon="9.3827088"><ele>263.0</ele><time>2026-04-18T07:25:18.999Z</time></trkpt><trkpt lat="44.7618057" lon="9.3827944"><ele>263.0</ele><time>2026-04-18T07:25:19.999Z</time></trkpt><trkpt lat="44.7619194" lon="9.3828765"><ele>263.0</ele><time>2026-04-18T07:25:20.999Z</time></trkpt><trkpt lat="44.7620385" lon="9.3829488"><ele>263.0</ele><time>2026-04-18T07:25:21.999Z</time></trkpt><trkpt lat="44.7621489" lon="9.383029"><ele>263.0</ele><time>2026-04-18T07:25:22.999Z</time></trkpt><trkpt lat="44.7622702" lon="9.3831109"><ele>263.0</ele><time>2026-04-18T07:25:23.999Z</time></trkpt><trkpt lat="44.762388" lon="9.3831986"><ele>263.0</ele><time>2026-04-18T07:25:24.999Z</time></trkpt><trkpt lat="44.762499" lon="9.3832957"><ele>263.0</ele><time>2026-04-18T07:25:25.999Z</time></trkpt><trkpt lat="44.762611" lon="9.3833837"><ele>263.0</ele><time>2026-04-18T07:25:26.999Z</time></trkpt><trkpt lat="44.762721" lon="9.3834955"><ele>264.25</ele><time>2026-04-18T07:25:27.999Z</time></trkpt><trkpt lat="44.7628215" lon="9.3836192"><ele>265.5</ele><time>2026-04-18T07:25:28.998Z</time></trkpt><trkpt lat="44.7629211" lon="9.3837479"><ele>266.75</ele><time>2026-04-18T07:25:29.999Z</time></trkpt><trkpt lat="44.7630244" lon="9.3838778"><ele>268.0</ele><time>2026-04-18T07:25:30.999Z</time></trkpt><trkpt lat="44.7631205" lon="9.3840165"><ele>268.0</ele><time>2026-04-18T07:25:31.999Z</time></trkpt><trkpt lat="44.7632071" lon="9.3841738"><ele>268.0</ele><time>2026-04-18T07:25:32.999Z</time></trkpt><trkpt lat="44.7632824" lon="9.3843141"><ele>268.0</ele><time>2026-04-18T07:25:33.999Z</time></trkpt><trkpt lat="44.7633534" lon="9.384454"><ele>268.0</ele><time>2026-04-18T07:25:34.999Z</time></trkpt><trkpt lat="44.7634185" lon="9.384587"><ele>266.6</ele><time>2026-04-18T07:25:35.999Z</time></trkpt><trkpt lat="44.7634758" lon="9.384707"><ele>265.20000000000005</ele><time>2026-04-18T07:25:36.999Z</time></trkpt><trkpt lat="44.7635289" lon="9.3848286"><ele>263.8</ele><time>2026-04-18T07:25:38Z</time></trkpt><trkpt lat="44.7635855" lon="9.3849476"><ele>262.40000000000003</ele><time>2026-04-18T07:25:38.999Z</time></trkpt><trkpt lat="44.7636399" lon="9.3850623"><ele>261.0</ele><time>2026-04-18T07:25:39.999Z</time></trkpt><trkpt lat="44.7636922" lon="9.3851712"><ele>261.8333333333333</ele><time>2026-04-18T07:25:40.999Z</time></trkpt><trkpt lat="44.7637421" lon="9.3852648"><ele>262.6666666666667</ele><time>2026-04-18T07:25:41.999Z</time></trkpt><trkpt lat="44.7637904" lon="9.3853503"><ele>263.5</ele><time>2026-04-18T07:25:42.999Z</time></trkpt><trkpt lat="44.7638445" lon="9.3854467"><ele>264.33333333333337</ele><time>2026-04-18T07:25:43.999Z</time></trkpt><trkpt lat="44.7638888" lon="9.3855402"><ele>265.1666666666667</ele><time>2026-04-18T07:25:44.999Z</time></trkpt><trkpt lat="44.7639347" lon="9.3856336"><ele>266.0</ele><time>2026-04-18T07:25:45.999Z</time></trkpt><trkpt lat="44.7639743" lon="9.3857161"><ele>266.0</ele><time>2026-04-18T07:25:46.999Z</time></trkpt><trkpt lat="44.7640338" lon="9.3858477"><ele>266.0</ele><time>2026-04-18T07:25:48.999Z</time></trkpt><trkpt lat="44.7641099" lon="9.385988"><ele>266.0</ele><time>2026-04-18T07:25:50.999Z</time></trkpt><trkpt lat="44.7641474" lon="9.3860644"><ele>266.0</ele><time>2026-04-18T07:25:51.999Z</time></trkpt><trkpt lat="44.7641891" lon="9.3861435"><ele>266.0</ele><time>2026-04-18T07:25:52.999Z</time></trkpt><trkpt lat="44.7642323" lon="9.3862244"><ele>266.0</ele><time>2026-04-18T07:25:53.999Z</time></trkpt><trkpt lat="44.764274" lon="9.3863039"><ele>265.40000000000003</ele><time>2026-04-18T07:25:54.999Z</time></trkpt><trkpt lat="44.764324" lon="9.3863964"><ele>264.8</ele><time>2026-04-18T07:25:56Z</time></trkpt><trkpt lat="44.7643807" lon="9.3865182"><ele>264.20000000000005</ele><time>2026-04-18T07:25:56.999Z</time></trkpt><trkpt lat="44.7644361" lon="9.3866313"><ele>263.6</ele><time>2026-04-18T07:25:57.999Z</time></trkpt><trkpt lat="44.7644902" lon="9.3867402"><ele>263.0</ele><time>2026-04-18T07:25:58.999Z</time></trkpt><trkpt lat="44.7645445" lon="9.3868531"><ele>263.0</ele><time>2026-04-18T07:25:59.999Z</time></trkpt><trkpt lat="44.7646014" lon="9.386969"><ele>263.0</ele><time>2026-04-18T07:26:00.999Z</time></trkpt><trkpt lat="44.7646526" lon="9.3870801"><ele>263.0</ele><time>2026-04-18T07:26:01.999Z</time></trkpt><trkpt lat="44.7647083" lon="9.3871925"><ele>263.0</ele><time>2026-04-18T07:26:02.999Z</time></trkpt><trkpt lat="44.7647631" lon="9.3873062"><ele>263.0</ele><time>2026-04-18T07:26:03.999Z</time></trkpt><trkpt lat="44.7648185" lon="9.3874222"><ele>261.8</ele><time>2026-04-18T07:26:04.999Z</time></trkpt><trkpt lat="44.7648769" lon="9.387543"><ele>260.6</ele><time>2026-04-18T07:26:05.999Z</time></trkpt><trkpt lat="44.7649374" lon="9.387664"><ele>259.4</ele><time>2026-04-18T07:26:06.999Z</time></trkpt><trkpt lat="44.7649989" lon="9.3877851"><ele>258.2</ele><time>2026-04-18T07:26:07.999Z</time></trkpt><trkpt lat="44.765061" lon="9.3879028"><ele>257.0</ele><time>2026-04-18T07:26:08.999Z</time></trkpt><trkpt lat="44.7651182" lon="9.3880253"><ele>256.8</ele><time>2026-04-18T07:26:09.999Z</time></trkpt><trkpt lat="44.7651774" lon="9.3881455"><ele>256.6</ele><time>2026-04-18T07:26:10.999Z</time></trkpt><trkpt lat="44.7652388" lon="9.3882718"><ele>256.40000000000003</ele><time>2026-04-18T07:26:11.999Z</time></trkpt><trkpt lat="44.7653027" lon="9.3883965"><ele>256.2</ele><time>2026-04-18T07:26:12.999Z</time></trkpt><trkpt lat="44.7653656" lon="9.3885104"><ele>256.0</ele><time>2026-04-18T07:26:13.999Z</time></trkpt><trkpt lat="44.7654341" lon="9.3886209"><ele>256.2</ele><time>2026-04-18T07:26:14.999Z</time></trkpt><trkpt lat="44.765508" lon="9.3887312"><ele>256.40000000000003</ele><time>2026-04-18T07:26:15.999Z</time></trkpt><trkpt lat="44.7655871" lon="9.3888183"><ele>256.6</ele><time>2026-04-18T07:26:16.999Z</time></trkpt><trkpt lat="44.7656701" lon="9.3889028"><ele>256.8</ele><time>2026-04-18T07:26:17.999Z</time></trkpt><trkpt lat="44.7657556" lon="9.3889724"><ele>257.0</ele><time>2026-04-18T07:26:18.999Z</time></trkpt><trkpt lat="44.7658451" lon="9.3890385"><ele>257.0</ele><time>2026-04-18T07:26:19.999Z</time></trkpt><trkpt lat="44.7659405" lon="9.3890887"><ele>257.0</ele><time>2026-04-18T07:26:20.999Z</time></trkpt><trkpt lat="44.7660465" lon="9.3891436"><ele>257.0</ele><time>2026-04-18T07:26:21.999Z</time></trkpt><trkpt lat="44.7661591" lon="9.3891838"><ele>257.0</ele><time>2026-04-18T07:26:22.999Z</time></trkpt><trkpt lat="44.7662759" lon="9.3892087"><ele>257.0</ele><time>2026-04-18T07:26:23.999Z</time></trkpt><trkpt lat="44.7663895" lon="9.3892185"><ele>257.5</ele><time>2026-04-18T07:26:24.999Z</time></trkpt><trkpt lat="44.7665073" lon="9.3892212"><ele>258.0</ele><time>2026-04-18T07:26:25.999Z</time></trkpt><trkpt lat="44.7666196" lon="9.3892063"><ele>258.5</ele><time>2026-04-18T07:26:26.999Z</time></trkpt><trkpt lat="44.7667303" lon="9.3891752"><ele>259.0</ele><time>2026-04-18T07:26:27.999Z</time></trkpt><trkpt lat="44.7668358" lon="9.3891433"><ele>259.0</ele><time>2026-04-18T07:26:29Z</time></trkpt><trkpt lat="44.7669389" lon="9.389108"><ele>259.0</ele><time>2026-04-18T07:26:29.999Z</time></trkpt><trkpt lat="44.7670477" lon="9.3890726"><ele>259.0</ele><time>2026-04-18T07:26:31Z</time></trkpt><trkpt lat="44.7671565" lon="9.3890435"><ele>259.0</ele><time>2026-04-18T07:26:31.999Z</time></trkpt><trkpt lat="44.7672662" lon="9.3890155"><ele>259.0</ele><time>2026-04-18T07:26:32.999Z</time></trkpt><trkpt lat="44.7673682" lon="9.3889857"><ele>259.0</ele><time>2026-04-18T07:26:33.999Z</time></trkpt><trkpt lat="44.7674773" lon="9.3889568"><ele>259.0</ele><time>2026-04-18T07:26:34.999Z</time></trkpt><trkpt lat="44.7675936" lon="9.3889296"><ele>259.0</ele><time>2026-04-18T07:26:35.999Z</time></trkpt><trkpt lat="44.7677043" lon="9.3888999"><ele>259.0</ele><time>2026-04-18T07:26:37Z</time></trkpt><trkpt lat="44.7678113" lon="9.388865"><ele>259.59999999999997</ele><time>2026-04-18T07:26:37.999Z</time></trkpt><trkpt lat="44.7679139" lon="9.3888339"><ele>260.2</ele><time>2026-04-18T07:26:38.999Z</time></trkpt><trkpt lat="44.7680187" lon="9.3888005"><ele>260.79999999999995</ele><time>2026-04-18T07:26:39.999Z</time></trkpt><trkpt lat="44.7681276" lon="9.3887677"><ele>261.4</ele><time>2026-04-18T07:26:40.999Z</time></trkpt><trkpt lat="44.768235" lon="9.3887326"><ele>262.0</ele><time>2026-04-18T07:26:42Z</time></trkpt><trkpt lat="44.7683464" lon="9.3886982"><ele>262.0</ele><time>2026-04-18T07:26:42.999Z</time></trkpt><trkpt lat="44.7684574" lon="9.3886679"><ele>262.0</ele><time>2026-04-18T07:26:43.999Z</time></trkpt><trkpt lat="44.7685749" lon="9.3886296"><ele>262.0</ele><time>2026-04-18T07:26:44.999Z</time></trkpt><trkpt lat="44.7686952" lon="9.3885896"><ele>262.0</ele><time>2026-04-18T07:26:45.999Z</time></trkpt><trkpt lat="44.7688213" lon="9.3885491"><ele>262.5</ele><time>2026-04-18T07:26:46.999Z</time></trkpt><trkpt lat="44.768951" lon="9.3885148"><ele>263.0</ele><time>2026-04-18T07:26:47.999Z</time></trkpt><trkpt lat="44.7690807" lon="9.3884833"><ele>263.5</ele><time>2026-04-18T07:26:48.999Z</time></trkpt><trkpt lat="44.7692103" lon="9.388458"><ele>264.0</ele><time>2026-04-18T07:26:49.999Z</time></trkpt><trkpt lat="44.7693327" lon="9.3884384"><ele>262.75</ele><time>2026-04-18T07:26:50.999Z</time></trkpt><trkpt lat="44.7694567" lon="9.388424"><ele>261.5</ele><time>2026-04-18T07:26:51.999Z</time></trkpt><trkpt lat="44.7695825" lon="9.3884138"><ele>260.25</ele><time>2026-04-18T07:26:52.999Z</time></trkpt><trkpt lat="44.7697088" lon="9.3884086"><ele>259.0</ele><time>2026-04-18T07:26:53.999Z</time></trkpt><trkpt lat="44.7698468" lon="9.388414"><ele>259.0</ele><time>2026-04-18T07:26:54.999Z</time></trkpt><trkpt lat="44.769981" lon="9.3884242"><ele>259.0</ele><time>2026-04-18T07:26:55.999Z</time></trkpt><trkpt lat="44.7701249" lon="9.388441"><ele>259.0</ele><time>2026-04-18T07:26:56.999Z</time></trkpt><trkpt lat="44.7702658" lon="9.3884606"><ele>259.0</ele><time>2026-04-18T07:26:58Z</time></trkpt><trkpt lat="44.7704021" lon="9.3884847"><ele>259.75</ele><time>2026-04-18T07:26:58.999Z</time></trkpt><trkpt lat="44.7705321" lon="9.3885164"><ele>260.5</ele><time>2026-04-18T07:26:59.999Z</time></trkpt><trkpt lat="44.7706581" lon="9.3885538"><ele>261.25</ele><time>2026-04-18T07:27:00.999Z</time></trkpt><trkpt lat="44.77077" lon="9.388595"><ele>262.0</ele><time>2026-04-18T07:27:01.999Z</time></trkpt><trkpt lat="44.7708982" lon="9.3886425"><ele>262.5</ele><time>2026-04-18T07:27:02.999Z</time></trkpt><trkpt lat="44.771026" lon="9.388694"><ele>263.0</ele><time>2026-04-18T07:27:03.999Z</time></trkpt><trkpt lat="44.7711773" lon="9.388751"><ele>263.5</ele><time>2026-04-18T07:27:04.999Z</time></trkpt><trkpt lat="44.7713234" lon="9.3888085"><ele>264.0</ele><time>2026-04-18T07:27:05.999Z</time></trkpt><trkpt lat="44.77146" lon="9.3888681"><ele>262.75</ele><time>2026-04-18T07:27:06.999Z</time></trkpt><trkpt lat="44.7715974" lon="9.3889205"><ele>261.5</ele><time>2026-04-18T07:27:07.999Z</time></trkpt><trkpt lat="44.7717265" lon="9.3889756"><ele>260.25</ele><time>2026-04-18T07:27:08.999Z</time></trkpt><trkpt lat="44.7718493" lon="9.3890307"><ele>259.0</ele><time>2026-04-18T07:27:09.999Z</time></trkpt><trkpt lat="44.7719706" lon="9.3890824"><ele>259.0</ele><time>2026-04-18T07:27:10.999Z</time></trkpt><trkpt lat="44.7720881" lon="9.3891272"><ele>259.0</ele><time>2026-04-18T07:27:11.999Z</time></trkpt><trkpt lat="44.7721931" lon="9.3891765"><ele>259.0</ele><time>2026-04-18T07:27:12.999Z</time></trkpt><trkpt lat="44.7723026" lon="9.3892233"><ele>259.0</ele><time>2026-04-18T07:27:13.999Z</time></trkpt><trkpt lat="44.7724055" lon="9.3892616"><ele>259.0</ele><time>2026-04-18T07:27:14.999Z</time></trkpt><trkpt lat="44.7725063" lon="9.3892994"><ele>259.0</ele><time>2026-04-18T07:27:15.999Z</time></trkpt><trkpt lat="44.7725928" lon="9.389333"><ele>259.0</ele><time>2026-04-18T07:27:16.999Z</time></trkpt><trkpt lat="44.7726816" lon="9.3893664"><ele>259.0</ele><time>2026-04-18T07:27:17.999Z</time></trkpt><trkpt lat="44.7727698" lon="9.3893961"><ele>259.0</ele><time>2026-04-18T07:27:18.999Z</time></trkpt><trkpt lat="44.772837" lon="9.3893932"><ele>259.0</ele><time>2026-04-18T07:27:19.999Z</time></trkpt><trkpt lat="44.7728961" lon="9.3893596"><ele>259.2</ele><time>2026-04-18T07:27:20.999Z</time></trkpt><trkpt lat="44.7729429" lon="9.3892082"><ele>259.4</ele><time>2026-04-18T07:27:22.999Z</time></trkpt><trkpt lat="44.7729564" lon="9.3891205"><ele>259.6</ele><time>2026-04-18T07:27:23.999Z</time></trkpt><trkpt lat="44.7729496" lon="9.3889417"><ele>259.8</ele><time>2026-04-18T07:27:25.999Z</time></trkpt><trkpt lat="44.7729638" lon="9.3887751"><ele>260.0</ele><time>2026-04-18T07:27:27.999Z</time></trkpt><trkpt lat="44.7729771" lon="9.3886111"><ele>260.6</ele><time>2026-04-18T07:27:29.999Z</time></trkpt><trkpt lat="44.7729945" lon="9.3884401"><ele>261.2</ele><time>2026-04-18T07:27:31.999Z</time></trkpt><trkpt lat="44.7730137" lon="9.3882841"><ele>261.8</ele><time>2026-04-18T07:27:33.999Z</time></trkpt><trkpt lat="44.7730304" lon="9.3881714"><ele>262.4</ele><time>2026-04-18T07:27:35.999Z</time></trkpt><trkpt lat="44.7730259" lon="9.3880433"><ele>263.0</ele><time>2026-04-18T07:27:37.999Z</time></trkpt><trkpt lat="44.773051" lon="9.3879083"><ele>263.1666666666667</ele><time>2026-04-18T07:27:39.999Z</time></trkpt><trkpt lat="44.7730741" lon="9.3877923"><ele>263.33333333333337</ele><time>2026-04-18T07:27:41.999Z</time></trkpt><trkpt lat="44.7730828" lon="9.3876568"><ele>263.5</ele><time>2026-04-18T07:27:44.999Z</time></trkpt><trkpt lat="44.7731111" lon="9.3875714"><ele>263.6666666666667</ele><time>2026-04-18T07:27:47.999Z</time></trkpt><trkpt lat="44.7731875" lon="9.3875543"><ele>263.8333333333333</ele><time>2026-04-18T07:27:50.999Z</time></trkpt><trkpt lat="44.7732471" lon="9.3875974"><ele>264.0</ele><time>2026-04-18T07:27:52.999Z</time></trkpt><trkpt lat="44.7733115" lon="9.3876168"><ele>264.0</ele><time>2026-04-18T07:27:54.999Z</time></trkpt><trkpt lat="44.773389" lon="9.3876508"><ele>264.0</ele><time>2026-04-18T07:27:57.999Z</time></trkpt><trkpt lat="44.7734543" lon="9.3876628"><ele>264.0</ele><time>2026-04-18T07:27:59.999Z</time></trkpt><trkpt lat="44.7735448" lon="9.3876704"><ele>264.0</ele><time>2026-04-18T07:28:02.999Z</time></trkpt><trkpt lat="44.7736152" lon="9.3876821"><ele>264.0</ele><time>2026-04-18T07:28:04.999Z</time></trkpt><trkpt lat="44.7736781" lon="9.3877044"><ele>264.0</ele><time>2026-04-18T07:28:06.999Z</time></trkpt><trkpt lat="44.7737425" lon="9.3877205"><ele>264.0</ele><time>2026-04-18T07:28:08.999Z</time></trkpt><trkpt lat="44.7738058" lon="9.3877121"><ele>264.0</ele><time>2026-04-18T07:28:17.999Z</time></trkpt><trkpt lat="44.7737374" lon="9.387648"><ele>264.0</ele><time>2026-04-18T07:28:28.999Z</time></trkpt><trkpt lat="44.7736481" lon="9.387643"><ele>264.0</ele><time>2026-04-18T07:28:29.999Z</time></trkpt><trkpt lat="44.7735244" lon="9.3876342"><ele>264.0</ele><time>2026-04-18T07:28:31.999Z</time></trkpt><trkpt lat="44.7734579" lon="9.3876321"><ele>264.0</ele><time>2026-04-18T07:28:32.999Z</time></trkpt><trkpt lat="44.7733941" lon="9.3876099"><ele>264.0</ele><time>2026-04-18T07:28:33.999Z</time></trkpt><trkpt lat="44.7733251" lon="9.3875868"><ele>264.0</ele><time>2026-04-18T07:28:34.999Z</time></trkpt><trkpt lat="44.7732186" lon="9.3875697"><ele>264.0</ele><time>2026-04-18T07:28:36.999Z</time></trkpt><trkpt lat="44.7731469" lon="9.3875348"><ele>264.0</ele><time>2026-04-18T07:28:38.999Z</time></trkpt><trkpt lat="44.7730837" lon="9.3874906"><ele>264.0</ele><time>2026-04-18T07:28:46.999Z</time></trkpt><trkpt lat="44.773014" lon="9.3875417"><ele>264.0</ele><time>2026-04-18T07:28:51.999Z</time></trkpt><trkpt lat="44.7730019" lon="9.3876326"><ele>264.0</ele><time>2026-04-18T07:28:52.999Z</time></trkpt><trkpt lat="44.7729916" lon="9.3878036"><ele>264.0</ele><time>2026-04-18T07:28:54.999Z</time></trkpt><trkpt lat="44.7729794" lon="9.3879625"><ele>264.0</ele><time>2026-04-18T07:28:56.999Z</time></trkpt><trkpt lat="44.7729574" lon="9.3880504"><ele>264.0</ele><time>2026-04-18T07:28:58.999Z</time></trkpt><trkpt lat="44.7728941" lon="9.3881266"><ele>264.0</ele><time>2026-04-18T07:29:01.999Z</time></trkpt><trkpt lat="44.7728081" lon="9.3881165"><ele>264.0</ele><time>2026-04-18T07:29:03.999Z</time></trkpt><trkpt lat="44.772697" lon="9.3881102"><ele>263.8</ele><time>2026-04-18T07:29:05.999Z</time></trkpt><trkpt lat="44.772573" lon="9.3880965"><ele>263.59999999999997</ele><time>2026-04-18T07:29:07.999Z</time></trkpt><trkpt lat="44.7725072" lon="9.388088"><ele>263.4</ele><time>2026-04-18T07:29:08.999Z</time></trkpt><trkpt lat="44.7723939" lon="9.3880615"><ele>263.2</ele><time>2026-04-18T07:29:10.999Z</time></trkpt><trkpt lat="44.7722881" lon="9.3880388"><ele>263.0</ele><time>2026-04-18T07:29:12.999Z</time></trkpt><trkpt lat="44.7721867" lon="9.3880213"><ele>263.0</ele><time>2026-04-18T07:29:14.999Z</time></trkpt><trkpt lat="44.7720826" lon="9.3880135"><ele>263.0</ele><time>2026-04-18T07:29:16.999Z</time></trkpt><trkpt lat="44.7719691" lon="9.3879969"><ele>263.0</ele><time>2026-04-18T07:29:18.999Z</time></trkpt><trkpt lat="44.7718736" lon="9.3879814"><ele>263.0</ele><time>2026-04-18T07:29:20.999Z</time></trkpt><trkpt lat="44.7717972" lon="9.3879543"><ele>263.0</ele><time>2026-04-18T07:29:23.999Z</time></trkpt><trkpt lat="44.7717407" lon="9.387886"><ele>269.0</ele><time>2026-04-18T07:29:33.999Z</time></trkpt><trkpt lat="44.7716657" lon="9.3878789"><ele>269.0</ele><time>2026-04-18T07:29:36.999Z</time></trkpt><trkpt lat="44.7715954" lon="9.3878872"><ele>269.0</ele><time>2026-04-18T07:29:38.999Z</time></trkpt><trkpt lat="44.7715043" lon="9.3878889"><ele>269.0</ele><time>2026-04-18T07:29:41.999Z</time></trkpt><trkpt lat="44.7714247" lon="9.3878911"><ele>269.0</ele><time>2026-04-18T07:29:44.999Z</time></trkpt></trkseg></trk></gpx>